<?xml version='1.0' encoding='UTF-8'?><gpx version="1.1" creator="JPX - https://github.com/jenetics/jpx" xmlns="http://www.topografix.com/GPX/1/1"><trk><trkseg><trkpt lat="43.842237615876265" lon="11.18351873845046"><ele>49.0</ele><time>2026-04-29T12:01:51.004Z</time></trkpt><trkpt lat="43.84219100542563" lon="11.183579687874465"><ele>49.0</ele><time>2026-04-29T12:02:36Z</time></trkpt><trkpt lat="43.842239529472245" lon="11.183500525438644"><ele>49.0</ele><time>2026-04-29T12:03:11.999Z</time></trkpt><trkpt lat="43.84226330461667" lon="11.183408796322515"><ele>49.0</ele><time>2026-04-29T12:03:16.999Z</time></trkpt><trkpt lat="43.84221151774383" lon="11.183328577742973"><ele>49.0</ele><time>2026-04-29T12:03:23.999Z</time></trkpt><trkpt lat="43.84215037376408" lon="11.183371812747069"><ele>49.0</ele><time>2026-04-29T12:03:30.999Z</time></trkpt><trkpt lat="43.84211143313216" lon="11.183457535600807"><ele>49.0</ele><time>2026-04-29T12:03:36.999Z</time></trkpt><trkpt lat="43.842088829447796" lon="11.1835506018542"><ele>49.0</ele><time>2026-04-29T12:03:45Z</time></trkpt><trkpt lat="43.842184924853434" lon="11.183350342637778"><ele>49.0</ele><time>2026-04-29T12:10:53Z</time></trkpt><trkpt lat="43.842046397386106" lon="11.183107610893847"><ele>49.0</ele><time>2026-04-29T12:11:01Z</time></trkpt><trkpt lat="43.84197152234574" lon="11.183054907227078"><ele>49.166666666666664</ele><time>2026-04-29T12:11:02Z</time></trkpt><trkpt lat="43.841897963069066" lon="11.183018241668968"><ele>49.33333333333333</ele><time>2026-04-29T12:11:03Z</time></trkpt><trkpt lat="43.84182476866045" lon="11.182952140208329"><ele>49.5</ele><time>2026-04-29T12:11:04Z</time></trkpt><trkpt lat="43.841749897370875" lon="11.182884545918482"><ele>49.66666666666667</ele><time>2026-04-29T12:11:05Z</time></trkpt><trkpt lat="43.841670484276506" lon="11.182813033147545"><ele>49.833333333333336</ele><time>2026-04-29T12:11:06Z</time></trkpt><trkpt lat="43.84160728472617" lon="11.182730054020338"><ele>50.0</ele><time>2026-04-29T12:11:07Z</time></trkpt><trkpt lat="43.841545496229074" lon="11.182679763157408"><ele>49.66666666666667</ele><time>2026-04-29T12:11:08Z</time></trkpt><trkpt lat="43.8414812200645" lon="11.182642451251153"><ele>49.333333333333336</ele><time>2026-04-29T12:11:09Z</time></trkpt><trkpt lat="43.841423512593735" lon="11.182588590934994"><ele>49.0</ele><time>2026-04-29T12:11:10Z</time></trkpt><trkpt lat="43.84135087248565" lon="11.182520759645854"><ele>48.66666666666667</ele><time>2026-04-29T12:11:11Z</time></trkpt><trkpt lat="43.84127320753975" lon="11.182427746791012"><ele>48.333333333333336</ele><time>2026-04-29T12:11:12Z</time></trkpt><trkpt lat="43.8411900208797" lon="11.182354170099703"><ele>48.0</ele><time>2026-04-29T12:11:13Z</time></trkpt><trkpt lat="43.84110940003097" lon="11.1823057829265"><ele>47.833333333333336</ele><time>2026-04-29T12:11:14Z</time></trkpt><trkpt lat="43.84102927958867" lon="11.182236255072167"><ele>47.666666666666664</ele><time>2026-04-29T12:11:15Z</time></trkpt><trkpt lat="43.84095992414846" lon="11.182176069170366"><ele>47.5</ele><time>2026-04-29T12:11:16Z</time></trkpt><trkpt lat="43.840906315477476" lon="11.182102767469514"><ele>47.33333333333333</ele><time>2026-04-29T12:11:17Z</time></trkpt><trkpt lat="43.84084299249089" lon="11.182069522926048"><ele>47.166666666666664</ele><time>2026-04-29T12:11:18Z</time></trkpt><trkpt lat="43.840788468205176" lon="11.182018316524253"><ele>47.0</ele><time>2026-04-29T12:11:19Z</time></trkpt><trkpt lat="43.840692558046705" lon="11.181920299123806"><ele>47.0</ele><time>2026-04-29T12:11:21Z</time></trkpt><trkpt lat="43.840622465006554" lon="11.181876780976614"><ele>47.0</ele><time>2026-04-29T12:11:23Z</time></trkpt><trkpt lat="43.840553039866165" lon="11.1818249548599"><ele>47.0</ele><time>2026-04-29T12:11:26Z</time></trkpt><trkpt lat="43.84046408096998" lon="11.181960494719968"><ele>47.0</ele><time>2026-04-29T12:11:27Z</time></trkpt><trkpt lat="43.84040248200438" lon="11.182060123159841"><ele>47.0</ele><time>2026-04-29T12:11:28Z</time></trkpt><trkpt lat="43.840348660986145" lon="11.18217997596969"><ele>47.0</ele><time>2026-04-29T12:11:29Z</time></trkpt><trkpt lat="43.840266324533204" lon="11.182295732253284"><ele>47.0</ele><time>2026-04-29T12:11:30Z</time></trkpt><trkpt lat="43.84019212174567" lon="11.182422041955997"><ele>47.0</ele><time>2026-04-29T12:11:31Z</time></trkpt><trkpt lat="43.84011009895432" lon="11.1825616103108"><ele>47.0</ele><time>2026-04-29T12:11:32Z</time></trkpt><trkpt lat="43.84002565224439" lon="11.182704841130578"><ele>47.0</ele><time>2026-04-29T12:11:33Z</time></trkpt><trkpt lat="43.8399398974253" lon="11.182847018014455"><ele>47.0</ele><time>2026-04-29T12:11:34Z</time></trkpt><trkpt lat="43.83986523868341" lon="11.183002901722578"><ele>47.0</ele><time>2026-04-29T12:11:35Z</time></trkpt><trkpt lat="43.83977815953169" lon="11.183129073014547"><ele>47.0</ele><time>2026-04-29T12:11:36Z</time></trkpt><trkpt lat="43.8397075525916" lon="11.183257678842102"><ele>47.2</ele><time>2026-04-29T12:11:37Z</time></trkpt><trkpt lat="43.839645905079195" lon="11.183390624344112"><ele>47.400000000000006</ele><time>2026-04-29T12:11:38Z</time></trkpt><trkpt lat="43.83955622616733" lon="11.183481968048998"><ele>47.599999999999994</ele><time>2026-04-29T12:11:39Z</time></trkpt><trkpt lat="43.83948036394619" lon="11.183585687265463"><ele>47.8</ele><time>2026-04-29T12:11:40Z</time></trkpt><trkpt lat="43.83940603055223" lon="11.183704225640236"><ele>48.0</ele><time>2026-04-29T12:11:41Z</time></trkpt><trkpt lat="43.83934130279758" lon="11.183802522018263"><ele>48.0</ele><time>2026-04-29T12:11:42Z</time></trkpt><trkpt lat="43.83928493929146" lon="11.18389128965516"><ele>48.0</ele><time>2026-04-29T12:11:43Z</time></trkpt><trkpt lat="43.839227869203825" lon="11.183975847281303"><ele>48.0</ele><time>2026-04-29T12:11:44Z</time></trkpt><trkpt lat="43.83916694527477" lon="11.184063273629992"><ele>48.0</ele><time>2026-04-29T12:11:45Z</time></trkpt><trkpt lat="43.8391127377785" lon="11.184143869369787"><ele>48.0</ele><time>2026-04-29T12:11:46Z</time></trkpt><trkpt lat="43.8390613946034" lon="11.184238218975588"><ele>48.0</ele><time>2026-04-29T12:11:47Z</time></trkpt><trkpt lat="43.83900803187261" lon="11.18433845210102"><ele>48.0</ele><time>2026-04-29T12:11:48Z</time></trkpt><trkpt lat="43.83894611123003" lon="11.184449776453874"><ele>48.0</ele><time>2026-04-29T12:11:49Z</time></trkpt><trkpt lat="43.838891645434884" lon="11.184532694781602"><ele>48.0</ele><time>2026-04-29T12:11:50Z</time></trkpt><trkpt lat="43.83882912974801" lon="11.184621510112802"><ele>48.0</ele><time>2026-04-29T12:11:51Z</time></trkpt><trkpt lat="43.83876481899786" lon="11.184722066716121"><ele>48.0</ele><time>2026-04-29T12:11:52Z</time></trkpt><trkpt lat="43.8386987474045" lon="11.184824730519356"><ele>48.166666666666664</ele><time>2026-04-29T12:11:53Z</time></trkpt><trkpt lat="43.838638158966525" lon="11.184915577702377"><ele>48.33333333333333</ele><time>2026-04-29T12:11:54Z</time></trkpt><trkpt lat="43.83858549057338" lon="11.184993095694967"><ele>48.5</ele><time>2026-04-29T12:11:55Z</time></trkpt><trkpt lat="43.838539498172935" lon="11.185074031586032"><ele>48.666666666666664</ele><time>2026-04-29T12:11:56Z</time></trkpt><trkpt lat="43.83849135134622" lon="11.18516393397206"><ele>48.83333333333333</ele><time>2026-04-29T12:11:57Z</time></trkpt><trkpt lat="43.83843068455085" lon="11.185251543867357"><ele>49.0</ele><time>2026-04-29T12:11:58Z</time></trkpt><trkpt lat="43.83836751662851" lon="11.18534471830319"><ele>49.0</ele><time>2026-04-29T12:11:59Z</time></trkpt><trkpt lat="43.83831133742572" lon="11.1854229880448"><ele>49.0</ele><time>2026-04-29T12:12:00Z</time></trkpt><trkpt lat="43.83827306047559" lon="11.18555737363249"><ele>49.0</ele><time>2026-04-29T12:12:02Z</time></trkpt><trkpt lat="43.838343624098485" lon="11.185694649583843"><ele>49.0</ele><time>2026-04-29T12:12:04Z</time></trkpt><trkpt lat="43.83840671969359" lon="11.185749284911637"><ele>49.0</ele><time>2026-04-29T12:12:05Z</time></trkpt><trkpt lat="43.83848830715693" lon="11.185818610849601"><ele>49.800000000000004</ele><time>2026-04-29T12:12:06Z</time></trkpt><trkpt lat="43.83858034754213" lon="11.18589792596512"><ele>50.6</ele><time>2026-04-29T12:12:07Z</time></trkpt><trkpt lat="43.8386610641791" lon="11.185981231406936"><ele>51.4</ele><time>2026-04-29T12:12:08Z</time></trkpt><trkpt lat="43.83874255806603" lon="11.186052193555907"><ele>52.2</ele><time>2026-04-29T12:12:09Z</time></trkpt><trkpt lat="43.838817694683655" lon="11.186119973966465"><ele>53.0</ele><time>2026-04-29T12:12:10Z</time></trkpt><trkpt lat="43.83888177521907" lon="11.186178652980805"><ele>53.0</ele><time>2026-04-29T12:12:11Z</time></trkpt><trkpt lat="43.83893913039438" lon="11.186235725014665"><ele>53.0</ele><time>2026-04-29T12:12:12Z</time></trkpt><trkpt lat="43.838988211868724" lon="11.186290506747888"><ele>53.0</ele><time>2026-04-29T12:12:13Z</time></trkpt><trkpt lat="43.839080558261834" lon="11.186377846776537"><ele>53.0</ele><time>2026-04-29T12:12:15Z</time></trkpt><trkpt lat="43.839146374270506" lon="11.186497008194022"><ele>53.0</ele><time>2026-04-29T12:12:17Z</time></trkpt><trkpt lat="43.839172176685395" lon="11.186749307600733"><ele>52.75</ele><time>2026-04-29T12:12:19Z</time></trkpt><trkpt lat="43.8391848400827" lon="11.186913029288652"><ele>52.5</ele><time>2026-04-29T12:12:20Z</time></trkpt><trkpt lat="43.83921364028587" lon="11.187087779673362"><ele>52.25</ele><time>2026-04-29T12:12:21Z</time></trkpt><trkpt lat="43.83925604100854" lon="11.187268726802799"><ele>52.0</ele><time>2026-04-29T12:12:22Z</time></trkpt><trkpt lat="43.83930349519979" lon="11.187453322860973"><ele>52.0</ele><time>2026-04-29T12:12:23Z</time></trkpt><trkpt lat="43.839346753390046" lon="11.187639084273437"><ele>52.0</ele><time>2026-04-29T12:12:24Z</time></trkpt><trkpt lat="43.83939068393467" lon="11.187819066631056"><ele>52.0</ele><time>2026-04-29T12:12:25Z</time></trkpt><trkpt lat="43.839434985148095" lon="11.188001647885828"><ele>52.0</ele><time>2026-04-29T12:12:26Z</time></trkpt><trkpt lat="43.83947656036369" lon="11.188181621093106"><ele>52.5</ele><time>2026-04-29T12:12:27Z</time></trkpt><trkpt lat="43.83952361501535" lon="11.188354811067008"><ele>53.0</ele><time>2026-04-29T12:12:28Z</time></trkpt><trkpt lat="43.83957040440777" lon="11.188526032796824"><ele>53.5</ele><time>2026-04-29T12:12:29Z</time></trkpt><trkpt lat="43.83961673690565" lon="11.188695137783691"><ele>54.0</ele><time>2026-04-29T12:12:30Z</time></trkpt><trkpt lat="43.83965834655254" lon="11.188855961047697"><ele>54.0</ele><time>2026-04-29T12:12:31Z</time></trkpt><trkpt lat="43.83969707270105" lon="11.188992552988772"><ele>54.00000000000001</ele><time>2026-04-29T12:12:32Z</time></trkpt><trkpt lat="43.839729070602054" lon="11.189124857918364"><ele>54.00000000000001</ele><time>2026-04-29T12:12:33Z</time></trkpt><trkpt lat="43.839770569764696" lon="11.189233092194353"><ele>54.0</ele><time>2026-04-29T12:12:34Z</time></trkpt><trkpt lat="43.83975609528058" lon="11.189353734082289"><ele>54.0</ele><time>2026-04-29T12:12:35Z</time></trkpt><trkpt lat="43.83975486825658" lon="11.189449922330956"><ele>54.400000000000006</ele><time>2026-04-29T12:12:36Z</time></trkpt><trkpt lat="43.839740755991855" lon="11.18953825304336"><ele>54.800000000000004</ele><time>2026-04-29T12:12:37Z</time></trkpt><trkpt lat="43.83972008437885" lon="11.189643827822138"><ele>55.199999999999996</ele><time>2026-04-29T12:12:38Z</time></trkpt><trkpt lat="43.83970134586304" lon="11.18981070262769"><ele>55.599999999999994</ele><time>2026-04-29T12:12:40Z</time></trkpt><trkpt lat="43.83972520539455" lon="11.189986315784257"><ele>56.0</ele><time>2026-04-29T12:12:42Z</time></trkpt><trkpt lat="43.83965007688863" lon="11.190073798597007"><ele>56.16666666666667</ele><time>2026-04-29T12:12:43Z</time></trkpt><trkpt lat="43.83959067951151" lon="11.190212925888188"><ele>56.333333333333336</ele><time>2026-04-29T12:12:45Z</time></trkpt><trkpt lat="43.839550727973624" lon="11.190288541333029"><ele>56.5</ele><time>2026-04-29T12:12:46Z</time></trkpt><trkpt lat="43.83950769378953" lon="11.190377303453612"><ele>56.66666666666667</ele><time>2026-04-29T12:12:47Z</time></trkpt><trkpt lat="43.83946454386621" lon="11.190461852585889"><ele>56.833333333333336</ele><time>2026-04-29T12:12:48Z</time></trkpt><trkpt lat="43.839424738452436" lon="11.190531994733053"><ele>57.0</ele><time>2026-04-29T12:12:49Z</time></trkpt><trkpt lat="43.83938318877496" lon="11.190606084001166"><ele>57.0</ele><time>2026-04-29T12:12:50Z</time></trkpt><trkpt lat="43.8393337072126" lon="11.190669546075313"><ele>57.0</ele><time>2026-04-29T12:12:51Z</time></trkpt><trkpt lat="43.83928236251107" lon="11.190783194292736"><ele>57.0</ele><time>2026-04-29T12:12:53Z</time></trkpt><trkpt lat="43.83923489789893" lon="11.19087093516371"><ele>57.0</ele><time>2026-04-29T12:12:55Z</time></trkpt><trkpt lat="43.839200267235235" lon="11.190943886947952"><ele>57.0</ele><time>2026-04-29T12:12:58Z</time></trkpt><trkpt lat="43.83925864065342" lon="11.19106350140996"><ele>57.0</ele><time>2026-04-29T12:13:02Z</time></trkpt><trkpt lat="43.839297338365604" lon="11.191148236079483"><ele>57.166666666666664</ele><time>2026-04-29T12:13:08Z</time></trkpt><trkpt lat="43.83933684065751" lon="11.191292642483928"><ele>57.33333333333333</ele><time>2026-04-29T12:20:49Z</time></trkpt><trkpt lat="43.83928137109394" lon="11.191341749889734"><ele>57.5</ele><time>2026-04-29T12:21:08Z</time></trkpt><trkpt lat="43.83921090680607" lon="11.191311117398167"><ele>57.666666666666664</ele><time>2026-04-29T12:21:12Z</time></trkpt><trkpt lat="43.83914527461712" lon="11.191292491733494"><ele>57.83333333333333</ele><time>2026-04-29T12:21:16Z</time></trkpt><trkpt lat="43.83904056428416" lon="11.191307639493507"><ele>58.0</ele><time>2026-04-29T12:21:23Z</time></trkpt><trkpt lat="43.83898074156396" lon="11.19139889943065"><ele>58.0</ele><time>2026-04-29T12:21:24Z</time></trkpt><trkpt lat="43.83889438100809" lon="11.191486135365583"><ele>58.0</ele><time>2026-04-29T12:21:25Z</time></trkpt><trkpt lat="43.83884115342521" lon="11.19158479873823"><ele>58.0</ele><time>2026-04-29T12:21:26Z</time></trkpt><trkpt lat="43.83877640712039" lon="11.191704719997583"><ele>58.0</ele><time>2026-04-29T12:21:27Z</time></trkpt><trkpt lat="43.838720341069205" lon="11.191808489180719"><ele>58.0</ele><time>2026-04-29T12:21:28Z</time></trkpt><trkpt lat="43.83866713865689" lon="11.19190695822964"><ele>58.33333333333333</ele><time>2026-04-29T12:21:29Z</time></trkpt><trkpt lat="43.838620136043644" lon="11.191993753412861"><ele>58.666666666666664</ele><time>2026-04-29T12:21:30Z</time></trkpt><trkpt lat="43.83857693853886" lon="11.192072919349373"><ele>59.0</ele><time>2026-04-29T12:21:31Z</time></trkpt><trkpt lat="43.8385081892315" lon="11.192198912819476"><ele>59.33333333333333</ele><time>2026-04-29T12:21:33Z</time></trkpt><trkpt lat="43.83847602647528" lon="11.192277928138063"><ele>59.666666666666664</ele><time>2026-04-29T12:21:34Z</time></trkpt><trkpt lat="43.83841943984756" lon="11.192362680064726"><ele>60.0</ele><time>2026-04-29T12:21:35Z</time></trkpt><trkpt lat="43.83837839547321" lon="11.192440743411176"><ele>60.0</ele><time>2026-04-29T12:21:36Z</time></trkpt><trkpt lat="43.838338114486994" lon="11.192584242183585"><ele>60.0</ele><time>2026-04-29T12:21:38Z</time></trkpt><trkpt lat="43.838279010221065" lon="11.192685652787763"><ele>60.0</ele><time>2026-04-29T12:21:40Z</time></trkpt><trkpt lat="43.83821934612374" lon="11.19280199736881"><ele>60.0</ele><time>2026-04-29T12:21:42Z</time></trkpt><trkpt lat="43.838268741240455" lon="11.192893229190233"><ele>60.0</ele><time>2026-04-29T12:21:43Z</time></trkpt><trkpt lat="43.83834972492201" lon="11.192942722159392"><ele>60.0</ele><time>2026-04-29T12:21:44Z</time></trkpt><trkpt lat="43.83839693935626" lon="11.193028415086179"><ele>60.0</ele><time>2026-04-29T12:21:45Z</time></trkpt><trkpt lat="43.838420774876624" lon="11.193128324067558"><ele>60.0</ele><time>2026-04-29T12:21:46Z</time></trkpt><trkpt lat="43.83844486256512" lon="11.193247588841738"><ele>60.0</ele><time>2026-04-29T12:21:47Z</time></trkpt><trkpt lat="43.83845815958051" lon="11.193362709203193"><ele>60.0</ele><time>2026-04-29T12:21:48Z</time></trkpt><trkpt lat="43.838459376849535" lon="11.193462813457796"><ele>60.0</ele><time>2026-04-29T12:21:49Z</time></trkpt><trkpt lat="43.8384686350312" lon="11.193624416264603"><ele>60.5</ele><time>2026-04-29T12:21:51Z</time></trkpt><trkpt lat="43.83853541129604" lon="11.193738748732668"><ele>61.0</ele><time>2026-04-29T12:21:53Z</time></trkpt><trkpt lat="43.83856671235013" lon="11.193860511651083"><ele>61.5</ele><time>2026-04-29T12:21:55Z</time></trkpt><trkpt lat="43.83856907524508" lon="11.193988329089173"><ele>62.0</ele><time>2026-04-29T12:21:57Z</time></trkpt><trkpt lat="43.838599511986644" lon="11.194098261558286"><ele>62.5</ele><time>2026-04-29T12:21:59Z</time></trkpt><trkpt lat="43.83861934822445" lon="11.194191941600549"><ele>63.0</ele><time>2026-04-29T12:22:01Z</time></trkpt><trkpt lat="43.83865854526802" lon="11.194400458913012"><ele>63.0</ele><time>2026-04-29T12:22:03Z</time></trkpt><trkpt lat="43.83867894269009" lon="11.194550418864836"><ele>63.0</ele><time>2026-04-29T12:22:04Z</time></trkpt><trkpt lat="43.838697499297346" lon="11.194653449039542"><ele>63.0</ele><time>2026-04-29T12:22:05Z</time></trkpt><trkpt lat="43.83871039809107" lon="11.194738941752613"><ele>63.0</ele><time>2026-04-29T12:22:06Z</time></trkpt><trkpt lat="43.83870867776697" lon="11.194840634837517"><ele>63.0</ele><time>2026-04-29T12:22:08Z</time></trkpt><trkpt lat="43.83868353138418" lon="11.194979084537684"><ele>63.0</ele><time>2026-04-29T12:22:10Z</time></trkpt><trkpt lat="43.83863526332118" lon="11.19507653822614"><ele>63.4</ele><time>2026-04-29T12:22:11Z</time></trkpt><trkpt lat="43.83856603155274" lon="11.195195709241995"><ele>63.8</ele><time>2026-04-29T12:22:12Z</time></trkpt><trkpt lat="43.83849257817243" lon="11.19534140045053"><ele>64.2</ele><time>2026-04-29T12:22:13Z</time></trkpt><trkpt lat="43.838425705595135" lon="11.195466833920346"><ele>64.6</ele><time>2026-04-29T12:22:14Z</time></trkpt><trkpt lat="43.83835750471471" lon="11.195555300421818"><ele>65.0</ele><time>2026-04-29T12:22:15Z</time></trkpt><trkpt lat="43.838310243762216" lon="11.195640000312647"><ele>65.2</ele><time>2026-04-29T12:22:16Z</time></trkpt><trkpt lat="43.838270949329754" lon="11.195724996237745"><ele>65.4</ele><time>2026-04-29T12:22:17Z</time></trkpt><trkpt lat="43.83821823909458" lon="11.195825856710341"><ele>65.6</ele><time>2026-04-29T12:22:18Z</time></trkpt><trkpt lat="43.838153424515745" lon="11.195948437239474"><ele>65.8</ele><time>2026-04-29T12:22:19Z</time></trkpt><trkpt lat="43.838085724591316" lon="11.19607009591449"><ele>66.0</ele><time>2026-04-29T12:22:20Z</time></trkpt><trkpt lat="43.83803200469608" lon="11.196171473019136"><ele>66.0</ele><time>2026-04-29T12:22:21Z</time></trkpt><trkpt lat="43.83798491284396" lon="11.19626279147233"><ele>66.0</ele><time>2026-04-29T12:22:22Z</time></trkpt><trkpt lat="43.83793496602144" lon="11.196361237225368"><ele>66.0</ele><time>2026-04-29T12:22:23Z</time></trkpt><trkpt lat="43.83788656929919" lon="11.196449711618293"><ele>66.0</ele><time>2026-04-29T12:22:24Z</time></trkpt><trkpt lat="43.83785674710652" lon="11.196528640529948"><ele>66.0</ele><time>2026-04-29T12:22:25Z</time></trkpt><trkpt lat="43.83781363643208" lon="11.196608665029743"><ele>66.0</ele><time>2026-04-29T12:22:27Z</time></trkpt><trkpt lat="43.83789496200477" lon="11.196799640872362"><ele>66.0</ele><time>2026-04-29T12:22:32Z</time></trkpt><trkpt lat="43.8379773178525" lon="11.19688238842765"><ele>66.0</ele><time>2026-04-29T12:22:33Z</time></trkpt><trkpt lat="43.83806287973612" lon="11.196967915062812"><ele>66.0</ele><time>2026-04-29T12:22:34Z</time></trkpt><trkpt lat="43.83815562775643" lon="11.197060624887238"><ele>66.0</ele><time>2026-04-29T12:22:35Z</time></trkpt><trkpt lat="43.83824789609373" lon="11.197153844302786"><ele>66.0</ele><time>2026-04-29T12:22:36Z</time></trkpt><trkpt lat="43.83832408463021" lon="11.197230836076555"><ele>66.0</ele><time>2026-04-29T12:22:37Z</time></trkpt><trkpt lat="43.83838262578699" lon="11.19728999440149"><ele>66.0</ele><time>2026-04-29T12:22:38Z</time></trkpt><trkpt lat="43.83847109881359" lon="11.197351698448294"><ele>66.0</ele><time>2026-04-29T12:22:40Z</time></trkpt><trkpt lat="43.838565452819225" lon="11.197464038530734"><ele>66.0</ele><time>2026-04-29T12:23:15Z</time></trkpt><trkpt lat="43.838635288927634" lon="11.197526782170478"><ele>66.0</ele><time>2026-04-29T12:23:16Z</time></trkpt><trkpt lat="43.838716841417956" lon="11.197602487937205"><ele>66.66666666666667</ele><time>2026-04-29T12:23:17Z</time></trkpt><trkpt lat="43.83878368496396" lon="11.19769585777149"><ele>67.33333333333333</ele><time>2026-04-29T12:23:18Z</time></trkpt><trkpt lat="43.83886182560979" lon="11.19777501195722"><ele>68.0</ele><time>2026-04-29T12:23:19Z</time></trkpt><trkpt lat="43.8389411648624" lon="11.197828360512066"><ele>68.66666666666666</ele><time>2026-04-29T12:23:20Z</time></trkpt><trkpt lat="43.83900899733496" lon="11.19789632683085"><ele>69.33333333333333</ele><time>2026-04-29T12:23:21Z</time></trkpt><trkpt lat="43.839063000785224" lon="11.197950834241041"><ele>70.0</ele><time>2026-04-29T12:23:22Z</time></trkpt><trkpt lat="43.839164362980625" lon="11.19804438694993"><ele>70.0</ele><time>2026-04-29T12:23:24Z</time></trkpt><trkpt lat="43.83921557237601" lon="11.198096184246213"><ele>70.0</ele><time>2026-04-29T12:23:25Z</time></trkpt><trkpt lat="43.8393092735746" lon="11.198197967722384"><ele>70.0</ele><time>2026-04-29T12:23:27Z</time></trkpt><trkpt lat="43.83939116953258" lon="11.198275604364689"><ele>70.0</ele><time>2026-04-29T12:23:29Z</time></trkpt><trkpt lat="43.839423176094705" lon="11.198406919655211"><ele>70.0</ele><time>2026-04-29T12:23:31Z</time></trkpt><trkpt lat="43.83939304005932" lon="11.198491121524023"><ele>70.0</ele><time>2026-04-29T12:23:32Z</time></trkpt><trkpt lat="43.83933940676937" lon="11.198572834717854"><ele>70.0</ele><time>2026-04-29T12:23:33Z</time></trkpt><trkpt lat="43.839287686336355" lon="11.198667007581099"><ele>70.0</ele><time>2026-04-29T12:23:34Z</time></trkpt><trkpt lat="43.83923728523716" lon="11.19877703033358"><ele>70.0</ele><time>2026-04-29T12:23:35Z</time></trkpt><trkpt lat="43.83918597136068" lon="11.198890235546946"><ele>70.0</ele><time>2026-04-29T12:23:36Z</time></trkpt><trkpt lat="43.83913360955228" lon="11.199006077048493"><ele>70.0</ele><time>2026-04-29T12:23:37Z</time></trkpt><trkpt lat="43.839091078533585" lon="11.199109308752904"><ele>70.0</ele><time>2026-04-29T12:23:38Z</time></trkpt><trkpt lat="43.839047045033865" lon="11.19919638548642"><ele>70.0</ele><time>2026-04-29T12:23:39Z</time></trkpt><trkpt lat="43.83900905036978" lon="11.199274981842331"><ele>70.0</ele><time>2026-04-29T12:23:40Z</time></trkpt><trkpt lat="43.83896110446233" lon="11.199385036627552"><ele>70.0</ele><time>2026-04-29T12:23:42Z</time></trkpt><trkpt lat="43.83892589447653" lon="11.199473867458277"><ele>70.0</ele><time>2026-04-29T12:23:46Z</time></trkpt><trkpt lat="43.83906086358494" lon="11.199590238883241"><ele>70.0</ele><time>2026-04-29T12:23:48Z</time></trkpt><trkpt lat="43.83915453332898" lon="11.199651208048596"><ele>70.0</ele><time>2026-04-29T12:23:49Z</time></trkpt><trkpt lat="43.839232458119284" lon="11.199725690376717"><ele>70.0</ele><time>2026-04-29T12:23:50Z</time></trkpt><trkpt lat="43.83931286136396" lon="11.199804752106994"><ele>70.0</ele><time>2026-04-29T12:23:51Z</time></trkpt><trkpt lat="43.83940389704352" lon="11.19988378851507"><ele>70.0</ele><time>2026-04-29T12:23:52Z</time></trkpt><trkpt lat="43.83949083015936" lon="11.199961857308319"><ele>71.2</ele><time>2026-04-29T12:23:53Z</time></trkpt><trkpt lat="43.839570497031204" lon="11.200029968877974"><ele>72.4</ele><time>2026-04-29T12:23:54Z</time></trkpt><trkpt lat="43.8396480736908" lon="11.200099553153178"><ele>73.6</ele><time>2026-04-29T12:23:55Z</time></trkpt><trkpt lat="43.839735577461305" lon="11.200176053181767"><ele>74.8</ele><time>2026-04-29T12:23:56Z</time></trkpt><trkpt lat="43.83982234179426" lon="11.200253103017882"><ele>76.0</ele><time>2026-04-29T12:23:57Z</time></trkpt><trkpt lat="43.83989323926686" lon="11.200316703759208"><ele>76.0</ele><time>2026-04-29T12:23:58Z</time></trkpt><trkpt lat="43.839950883345765" lon="11.200369440107217"><ele>76.0</ele><time>2026-04-29T12:23:59Z</time></trkpt><trkpt lat="43.84003401174931" lon="11.20044949536629"><ele>76.0</ele><time>2026-04-29T12:24:01Z</time></trkpt><trkpt lat="43.84011890501307" lon="11.20049897859834"><ele>76.0</ele><time>2026-04-29T12:24:46Z</time></trkpt><trkpt lat="43.84017978217023" lon="11.200569185908307"><ele>76.0</ele><time>2026-04-29T12:24:48Z</time></trkpt><trkpt lat="43.8401403519712" lon="11.200697424580587"><ele>76.0</ele><time>2026-04-29T12:24:49Z</time></trkpt><trkpt lat="43.84008721568627" lon="11.200793821736541"><ele>76.0</ele><time>2026-04-29T12:24:50Z</time></trkpt><trkpt lat="43.84001631986442" lon="11.200925935100578"><ele>76.0</ele><time>2026-04-29T12:24:51Z</time></trkpt><trkpt lat="43.8399439182919" lon="11.201073411821252"><ele>76.0</ele><time>2026-04-29T12:24:52Z</time></trkpt><trkpt lat="43.83986014780446" lon="11.201241127409016"><ele>76.0</ele><time>2026-04-29T12:24:53Z</time></trkpt><trkpt lat="43.83976999765609" lon="11.201415896300304"><ele>76.25</ele><time>2026-04-29T12:24:54Z</time></trkpt><trkpt lat="43.839680565302686" lon="11.201588741883889"><ele>76.5</ele><time>2026-04-29T12:24:55Z</time></trkpt><trkpt lat="43.839594157823655" lon="11.201758994114469"><ele>76.75</ele><time>2026-04-29T12:24:56Z</time></trkpt><trkpt lat="43.83951469082604" lon="11.20192672846855"><ele>77.0</ele><time>2026-04-29T12:24:57Z</time></trkpt><trkpt lat="43.83943266578339" lon="11.202099483649107"><ele>77.0</ele><time>2026-04-29T12:24:58Z</time></trkpt><trkpt lat="43.839348666922156" lon="11.202287091872739"><ele>77.0</ele><time>2026-04-29T12:24:59Z</time></trkpt><trkpt lat="43.839272392818366" lon="11.202488171936084"><ele>77.0</ele><time>2026-04-29T12:25:00Z</time></trkpt><trkpt lat="43.839198360570535" lon="11.202708808704436"><ele>77.33333333333334</ele><time>2026-04-29T12:25:01Z</time></trkpt><trkpt lat="43.83912982017827" lon="11.202937655947473"><ele>77.66666666666667</ele><time>2026-04-29T12:25:02Z</time></trkpt><trkpt lat="43.83906273435472" lon="11.203180646678238"><ele>78.0</ele><time>2026-04-29T12:25:03Z</time></trkpt><trkpt lat="43.83899019363395" lon="11.203416463269683"><ele>78.66666666666667</ele><time>2026-04-29T12:25:04Z</time></trkpt><trkpt lat="43.838916880459806" lon="11.203621403724208"><ele>79.33333333333334</ele><time>2026-04-29T12:25:05Z</time></trkpt><trkpt lat="43.83882511347679" lon="11.20382433812152"><ele>80.0</ele><time>2026-04-29T12:25:06Z</time></trkpt><trkpt lat="43.838726212719266" lon="11.204024719914639"><ele>80.33333333333334</ele><time>2026-04-29T12:25:07Z</time></trkpt><trkpt lat="43.83862008837687" lon="11.204239117894733"><ele>80.66666666666667</ele><time>2026-04-29T12:25:08Z</time></trkpt><trkpt lat="43.83850409986426" lon="11.204451618735366"><ele>81.0</ele><time>2026-04-29T12:25:09Z</time></trkpt><trkpt lat="43.838397508381135" lon="11.204647702802397"><ele>81.33333333333333</ele><time>2026-04-29T12:25:10Z</time></trkpt><trkpt lat="43.83829870450126" lon="11.204824723150438"><ele>81.66666666666666</ele><time>2026-04-29T12:25:11Z</time></trkpt><trkpt lat="43.83820658079255" lon="11.204993641455856"><ele>82.0</ele><time>2026-04-29T12:25:12Z</time></trkpt><trkpt lat="43.83812177067866" lon="11.205157840068884"><ele>82.0</ele><time>2026-04-29T12:25:13Z</time></trkpt><trkpt lat="43.83804330240626" lon="11.205325499723896"><ele>82.0</ele><time>2026-04-29T12:25:14Z</time></trkpt><trkpt lat="43.83796929098655" lon="11.205480715213284"><ele>82.0</ele><time>2026-04-29T12:25:15Z</time></trkpt><trkpt lat="43.83789655524397" lon="11.205634978181456"><ele>82.0</ele><time>2026-04-29T12:25:16Z</time></trkpt><trkpt lat="43.83782612559406" lon="11.20580358065011"><ele>81.75</ele><time>2026-04-29T12:25:17Z</time></trkpt><trkpt lat="43.83773405785709" lon="11.205975505034361"><ele>81.5</ele><time>2026-04-29T12:25:18Z</time></trkpt><trkpt lat="43.83764152226755" lon="11.206129021470648"><ele>81.25</ele><time>2026-04-29T12:25:19Z</time></trkpt><trkpt lat="43.837558023654246" lon="11.206266870157698"><ele>81.0</ele><time>2026-04-29T12:25:20Z</time></trkpt><trkpt lat="43.83747586499546" lon="11.2063897719622"><ele>80.83333333333333</ele><time>2026-04-29T12:25:21Z</time></trkpt><trkpt lat="43.837386993698246" lon="11.206487209796345"><ele>80.66666666666667</ele><time>2026-04-29T12:25:22Z</time></trkpt><trkpt lat="43.83729422054289" lon="11.206552939499284"><ele>80.5</ele><time>2026-04-29T12:25:23Z</time></trkpt><trkpt lat="43.83720976303382" lon="11.206589968552262"><ele>80.33333333333334</ele><time>2026-04-29T12:25:24Z</time></trkpt><trkpt lat="43.83715201131671" lon="11.206628948909042"><ele>80.16666666666667</ele><time>2026-04-29T12:25:25Z</time></trkpt><trkpt lat="43.83711870015418" lon="11.206704120077223"><ele>80.0</ele><time>2026-04-29T12:25:26Z</time></trkpt><trkpt lat="43.83714717051009" lon="11.20687912671516"><ele>80.0</ele><time>2026-04-29T12:25:28Z</time></trkpt><trkpt lat="43.837239512658016" lon="11.206903868135532"><ele>80.0</ele><time>2026-04-29T12:25:29Z</time></trkpt><trkpt lat="43.83731647772536" lon="11.20684089305372"><ele>80.0</ele><time>2026-04-29T12:25:30Z</time></trkpt><trkpt lat="43.83737141209541" lon="11.206756271658731"><ele>80.0</ele><time>2026-04-29T12:25:31Z</time></trkpt><trkpt lat="43.83742485559991" lon="11.206618790309406"><ele>80.0</ele><time>2026-04-29T12:25:32Z</time></trkpt><trkpt lat="43.83749885670433" lon="11.206467722896832"><ele>80.2</ele><time>2026-04-29T12:25:33Z</time></trkpt><trkpt lat="43.83758595125557" lon="11.20631536457015"><ele>80.4</ele><time>2026-04-29T12:25:34Z</time></trkpt><trkpt lat="43.8376538230946" lon="11.20619018838251"><ele>80.6</ele><time>2026-04-29T12:25:35Z</time></trkpt><trkpt lat="43.83771148970483" lon="11.206078123607218"><ele>80.8</ele><time>2026-04-29T12:25:36Z</time></trkpt><trkpt lat="43.83776010038899" lon="11.205981256313871"><ele>81.0</ele><time>2026-04-29T12:25:37Z</time></trkpt><trkpt lat="43.837810480419726" lon="11.205910654627784"><ele>81.0</ele><time>2026-04-29T12:25:38Z</time></trkpt><trkpt lat="43.83785255312483" lon="11.205831590827009"><ele>81.0</ele><time>2026-04-29T12:25:39Z</time></trkpt><trkpt lat="43.83794444077167" lon="11.205785986530639"><ele>81.0</ele><time>2026-04-29T12:25:41Z</time></trkpt><trkpt lat="43.83811312602785" lon="11.205996614404249"><ele>81.0</ele><time>2026-04-29T12:25:43Z</time></trkpt><trkpt lat="43.83822240497203" lon="11.206123659912496"><ele>81.0</ele><time>2026-04-29T12:25:44Z</time></trkpt><trkpt lat="43.83829822672685" lon="11.206231614573293"><ele>81.0</ele><time>2026-04-29T12:25:45Z</time></trkpt><trkpt lat="43.83835310327461" lon="11.206341634283906"><ele>81.0</ele><time>2026-04-29T12:25:46Z</time></trkpt><trkpt lat="43.8384135808303" lon="11.206441246324145"><ele>81.0</ele><time>2026-04-29T12:25:47Z</time></trkpt><trkpt lat="43.83848537515115" lon="11.206559964598632"><ele>81.0</ele><time>2026-04-29T12:25:48Z</time></trkpt><trkpt lat="43.83856458881972" lon="11.206676969309228"><ele>81.75</ele><time>2026-04-29T12:25:49Z</time></trkpt><trkpt lat="43.838639949370254" lon="11.206801847567544"><ele>82.5</ele><time>2026-04-29T12:25:50Z</time></trkpt><trkpt lat="43.8387187476444" lon="11.206941643158672"><ele>83.25</ele><time>2026-04-29T12:25:51Z</time></trkpt><trkpt lat="43.8387788179504" lon="11.207070822172625"><ele>84.0</ele><time>2026-04-29T12:25:52Z</time></trkpt><trkpt lat="43.8388331426476" lon="11.207188954360149"><ele>84.0</ele><time>2026-04-29T12:25:53Z</time></trkpt><trkpt lat="43.838882630855615" lon="11.207288613295631"><ele>84.0</ele><time>2026-04-29T12:25:54Z</time></trkpt><trkpt lat="43.83892137299877" lon="11.207380938661295"><ele>84.0</ele><time>2026-04-29T12:25:55Z</time></trkpt><trkpt lat="43.83895185432056" lon="11.207466739744747"><ele>84.0</ele><time>2026-04-29T12:25:56Z</time></trkpt><trkpt lat="43.8389895647148" lon="11.207554987861107"><ele>84.0</ele><time>2026-04-29T12:25:57Z</time></trkpt><trkpt lat="43.83902643265381" lon="11.207644611298683"><ele>84.0</ele><time>2026-04-29T12:25:58Z</time></trkpt><trkpt lat="43.83905412545201" lon="11.207736125188536"><ele>84.5</ele><time>2026-04-29T12:25:59Z</time></trkpt><trkpt lat="43.8390890966446" lon="11.207830339307984"><ele>85.0</ele><time>2026-04-29T12:26:00Z</time></trkpt><trkpt lat="43.839119601839336" lon="11.20790997561634"><ele>85.5</ele><time>2026-04-29T12:26:01Z</time></trkpt><trkpt lat="43.839142235600406" lon="11.20804401221693"><ele>86.0</ele><time>2026-04-29T12:26:03Z</time></trkpt><trkpt lat="43.839159772777116" lon="11.208174229602196"><ele>86.5</ele><time>2026-04-29T12:26:05Z</time></trkpt><trkpt lat="43.83917235291652" lon="11.208267483524185"><ele>87.0</ele><time>2026-04-29T12:26:06Z</time></trkpt><trkpt lat="43.83918501207221" lon="11.208375987867926"><ele>87.16666666666667</ele><time>2026-04-29T12:26:07Z</time></trkpt><trkpt lat="43.83919268529637" lon="11.2084920947662"><ele>87.33333333333333</ele><time>2026-04-29T12:26:08Z</time></trkpt><trkpt lat="43.839195502223454" lon="11.208611566397122"><ele>87.5</ele><time>2026-04-29T12:26:09Z</time></trkpt><trkpt lat="43.839200101859156" lon="11.208709139860149"><ele>87.66666666666666</ele><time>2026-04-29T12:26:10Z</time></trkpt><trkpt lat="43.839212131459426" lon="11.20879903075592"><ele>87.83333333333333</ele><time>2026-04-29T12:26:11Z</time></trkpt><trkpt lat="43.839228593399774" lon="11.208890622685658"><ele>88.0</ele><time>2026-04-29T12:26:12Z</time></trkpt><trkpt lat="43.83923406224182" lon="11.209009939163915"><ele>88.33333333333333</ele><time>2026-04-29T12:26:13Z</time></trkpt><trkpt lat="43.83924832295057" lon="11.209124530017908"><ele>88.66666666666666</ele><time>2026-04-29T12:26:14Z</time></trkpt><trkpt lat="43.83926224589576" lon="11.209224140735648"><ele>89.0</ele><time>2026-04-29T12:26:15Z</time></trkpt><trkpt lat="43.83928481370123" lon="11.209398302363084"><ele>89.33333333333333</ele><time>2026-04-29T12:26:17Z</time></trkpt><trkpt lat="43.83930332750186" lon="11.209500982171727"><ele>89.66666666666667</ele><time>2026-04-29T12:26:18Z</time></trkpt><trkpt lat="43.83931646595748" lon="11.209604527464933"><ele>90.0</ele><time>2026-04-29T12:26:19Z</time></trkpt><trkpt lat="43.8393293322466" lon="11.209693021254145"><ele>91.0</ele><time>2026-04-29T12:26:20Z</time></trkpt><trkpt lat="43.839356145105995" lon="11.209876501763274"><ele>92.0</ele><time>2026-04-29T12:26:22Z</time></trkpt><trkpt lat="43.83937944939986" lon="11.209999023753964"><ele>93.0</ele><time>2026-04-29T12:26:23Z</time></trkpt><trkpt lat="43.83940416484409" lon="11.210127542984182"><ele>94.0</ele><time>2026-04-29T12:26:24Z</time></trkpt><trkpt lat="43.839422622929376" lon="11.210252638894653"><ele>95.0</ele><time>2026-04-29T12:26:25Z</time></trkpt><trkpt lat="43.83944405803387" lon="11.210362526730265"><ele>95.0</ele><time>2026-04-29T12:26:26Z</time></trkpt><trkpt lat="43.83946660173161" lon="11.210459927458004"><ele>95.0</ele><time>2026-04-29T12:26:27Z</time></trkpt><trkpt lat="43.8394807136404" lon="11.21056150250884"><ele>95.0</ele><time>2026-04-29T12:26:28Z</time></trkpt><trkpt lat="43.83949293453099" lon="11.210666851833304"><ele>95.0</ele><time>2026-04-29T12:26:29Z</time></trkpt><trkpt lat="43.839496183086005" lon="11.210767954398868"><ele>95.0</ele><time>2026-04-29T12:26:30Z</time></trkpt><trkpt lat="43.83949219129811" lon="11.210862527253987"><ele>95.0</ele><time>2026-04-29T12:26:31Z</time></trkpt><trkpt lat="43.83947298514257" lon="11.211045384870564"><ele>95.4</ele><time>2026-04-29T12:26:33Z</time></trkpt><trkpt lat="43.83946650714476" lon="11.211158161668973"><ele>95.8</ele><time>2026-04-29T12:26:34Z</time></trkpt><trkpt lat="43.839531011879984" lon="11.211259120060191"><ele>96.19999999999999</ele><time>2026-04-29T12:26:35Z</time></trkpt><trkpt lat="43.839612747267914" lon="11.211336751392407"><ele>96.6</ele><time>2026-04-29T12:26:36Z</time></trkpt><trkpt lat="43.83973028104594" lon="11.211420865795324"><ele>97.0</ele><time>2026-04-29T12:26:37Z</time></trkpt><trkpt lat="43.839830681382686" lon="11.211580539728986"><ele>97.50000000000001</ele><time>2026-04-29T12:26:38Z</time></trkpt><trkpt lat="43.83991750293175" lon="11.211681654210716"><ele>98.0</ele><time>2026-04-29T12:26:39Z</time></trkpt><trkpt lat="43.840002668861814" lon="11.21175431936933"><ele>98.5</ele><time>2026-04-29T12:26:40Z</time></trkpt><trkpt lat="43.840067307496646" lon="11.21184066707147"><ele>99.0</ele><time>2026-04-29T12:26:41Z</time></trkpt><trkpt lat="43.84010228719963" lon="11.211925818728304"><ele>99.50000000000001</ele><time>2026-04-29T12:26:42Z</time></trkpt><trkpt lat="43.84012349358151" lon="11.212019223385282"><ele>100.0</ele><time>2026-04-29T12:26:43Z</time></trkpt><trkpt lat="43.84012822571369" lon="11.212151025897823"><ele>100.0</ele><time>2026-04-29T12:26:44Z</time></trkpt><trkpt lat="43.840131759668296" lon="11.212315323009621"><ele>100.0</ele><time>2026-04-29T12:26:45Z</time></trkpt><trkpt lat="43.8401240674079" lon="11.212483671310864"><ele>100.0</ele><time>2026-04-29T12:26:46Z</time></trkpt><trkpt lat="43.84008816773453" lon="11.212648802569925"><ele>100.0</ele><time>2026-04-29T12:26:47Z</time></trkpt><trkpt lat="43.840042547204945" lon="11.212777821495058"><ele>100.75</ele><time>2026-04-29T12:26:48Z</time></trkpt><trkpt lat="43.840037154824934" lon="11.212907533334493"><ele>101.5</ele><time>2026-04-29T12:26:49Z</time></trkpt><trkpt lat="43.84009220139324" lon="11.213031380425429"><ele>102.25</ele><time>2026-04-29T12:26:50Z</time></trkpt><trkpt lat="43.84020197937427" lon="11.213143872841519"><ele>103.0</ele><time>2026-04-29T12:26:51Z</time></trkpt><trkpt lat="43.84033337157222" lon="11.213256404127524"><ele>104.4</ele><time>2026-04-29T12:26:52Z</time></trkpt><trkpt lat="43.84045138798152" lon="11.213369544464594"><ele>105.80000000000001</ele><time>2026-04-29T12:26:53Z</time></trkpt><trkpt lat="43.840537402159526" lon="11.213464525539012"><ele>107.2</ele><time>2026-04-29T12:26:54Z</time></trkpt><trkpt lat="43.84058822335176" lon="11.213529693420059"><ele>108.6</ele><time>2026-04-29T12:26:55Z</time></trkpt><trkpt lat="43.84066060418705" lon="11.213606469435382"><ele>110.0</ele><time>2026-04-29T12:26:57Z</time></trkpt><trkpt lat="43.84086597875795" lon="11.213564709518643"><ele>112.0</ele><time>2026-04-29T12:26:59Z</time></trkpt><trkpt lat="43.84100664762331" lon="11.21360549341994"><ele>114.0</ele><time>2026-04-29T12:27:00Z</time></trkpt><trkpt lat="43.84117143237403" lon="11.213659318407586"><ele>116.0</ele><time>2026-04-29T12:27:01Z</time></trkpt><trkpt lat="43.84132976998519" lon="11.213715014775048"><ele>116.0</ele><time>2026-04-29T12:27:02Z</time></trkpt><trkpt lat="43.84149649911225" lon="11.213774573597691"><ele>116.0</ele><time>2026-04-29T12:27:03Z</time></trkpt><trkpt lat="43.84167818579266" lon="11.213817481103904"><ele>116.0</ele><time>2026-04-29T12:27:04Z</time></trkpt><trkpt lat="43.8418666325209" lon="11.213891769294102"><ele>117.0</ele><time>2026-04-29T12:27:05Z</time></trkpt><trkpt lat="43.842059544738795" lon="11.213965834075774"><ele>118.0</ele><time>2026-04-29T12:27:06Z</time></trkpt><trkpt lat="43.84225092358934" lon="11.21403195728419"><ele>119.0</ele><time>2026-04-29T12:27:07Z</time></trkpt><trkpt lat="43.84243100095238" lon="11.214067370013364"><ele>120.66666666666666</ele><time>2026-04-29T12:27:08Z</time></trkpt><trkpt lat="43.842614042398864" lon="11.214045684629763"><ele>122.33333333333334</ele><time>2026-04-29T12:27:09Z</time></trkpt><trkpt lat="43.84280788309987" lon="11.213963869767563"><ele>124.0</ele><time>2026-04-29T12:27:10Z</time></trkpt><trkpt lat="43.842996301239936" lon="11.213823052749584"><ele>124.0</ele><time>2026-04-29T12:27:11Z</time></trkpt><trkpt lat="43.84315870296158" lon="11.21364454973843"><ele>124.0</ele><time>2026-04-29T12:27:12Z</time></trkpt><trkpt lat="43.843338177971255" lon="11.213508221755504"><ele>124.0</ele><time>2026-04-29T12:27:13Z</time></trkpt><trkpt lat="43.84352466143031" lon="11.213415175008098"><ele>127.5</ele><time>2026-04-29T12:27:14Z</time></trkpt><trkpt lat="43.84374204169218" lon="11.213350198442154"><ele>131.0</ele><time>2026-04-29T12:27:15Z</time></trkpt><trkpt lat="43.84397141559948" lon="11.213325397242809"><ele>131.0</ele><time>2026-04-29T12:27:16Z</time></trkpt><trkpt lat="43.8441975698198" lon="11.213312055136464"><ele>131.0</ele><time>2026-04-29T12:27:17Z</time></trkpt><trkpt lat="43.84440190318915" lon="11.213288153037832"><ele>131.0</ele><time>2026-04-29T12:27:18Z</time></trkpt><trkpt lat="43.84459380087041" lon="11.213359429385928"><ele>131.66666666666666</ele><time>2026-04-29T12:27:19Z</time></trkpt><trkpt lat="43.84480219020896" lon="11.213441295206831"><ele>132.33333333333334</ele><time>2026-04-29T12:27:20Z</time></trkpt><trkpt lat="43.845010274418506" lon="11.213498571382091"><ele>133.0</ele><time>2026-04-29T12:27:21Z</time></trkpt><trkpt lat="43.845228402913804" lon="11.213531873393958"><ele>135.0</ele><time>2026-04-29T12:27:22Z</time></trkpt><trkpt lat="43.845457248671245" lon="11.21350191395145"><ele>137.0</ele><time>2026-04-29T12:27:23Z</time></trkpt><trkpt lat="43.845681976062366" lon="11.213457952170698"><ele>137.0</ele><time>2026-04-29T12:27:24Z</time></trkpt><trkpt lat="43.8458944455945" lon="11.213469577075978"><ele>137.0</ele><time>2026-04-29T12:27:25Z</time></trkpt><trkpt lat="43.846105409472855" lon="11.213525839685547"><ele>137.0</ele><time>2026-04-29T12:27:26Z</time></trkpt><trkpt lat="43.84633730065655" lon="11.213578997808705"><ele>136.0</ele><time>2026-04-29T12:27:27Z</time></trkpt><trkpt lat="43.84657423037814" lon="11.213655409944472"><ele>135.0</ele><time>2026-04-29T12:27:28Z</time></trkpt><trkpt lat="43.84681596805531" lon="11.21371917715823"><ele>134.5</ele><time>2026-04-29T12:27:29Z</time></trkpt><trkpt lat="43.84705057154265" lon="11.213781717521616"><ele>134.0</ele><time>2026-04-29T12:27:30Z</time></trkpt><trkpt lat="43.84727631479946" lon="11.213842662155319"><ele>134.0</ele><time>2026-04-29T12:27:31Z</time></trkpt><trkpt lat="43.84749513780196" lon="11.21390864007493"><ele>134.0</ele><time>2026-04-29T12:27:32Z</time></trkpt><trkpt lat="43.84769324177854" lon="11.214006083554677"><ele>134.0</ele><time>2026-04-29T12:27:33Z</time></trkpt><trkpt lat="43.847888870058476" lon="11.214106377365233"><ele>138.0</ele><time>2026-04-29T12:27:34Z</time></trkpt><trkpt lat="43.84809631409554" lon="11.214193285137618"><ele>142.0</ele><time>2026-04-29T12:27:35Z</time></trkpt><trkpt lat="43.84829516953143" lon="11.214342182992922"><ele>146.0</ele><time>2026-04-29T12:27:36Z</time></trkpt><trkpt lat="43.84849198320564" lon="11.214505929933503"><ele>146.0</ele><time>2026-04-29T12:27:37Z</time></trkpt><trkpt lat="43.84867401324737" lon="11.214640153893733"><ele>146.0</ele><time>2026-04-29T12:27:38Z</time></trkpt><trkpt lat="43.84887166102616" lon="11.214713202814119"><ele>146.0</ele><time>2026-04-29T12:27:39Z</time></trkpt><trkpt lat="43.849098963030286" lon="11.214752654579339"><ele>146.0</ele><time>2026-04-29T12:27:40Z</time></trkpt><trkpt lat="43.84933738946539" lon="11.214770805079251"><ele>146.0</ele><time>2026-04-29T12:27:41Z</time></trkpt><trkpt lat="43.849578737286215" lon="11.214786897128821"><ele>151.5</ele><time>2026-04-29T12:27:42Z</time></trkpt><trkpt lat="43.84981435272505" lon="11.214823947955724"><ele>157.0</ele><time>2026-04-29T12:27:43Z</time></trkpt><trkpt lat="43.850034430004655" lon="11.214851205587115"><ele>155.0</ele><time>2026-04-29T12:27:44Z</time></trkpt><trkpt lat="43.850262558916135" lon="11.214875742721434"><ele>153.0</ele><time>2026-04-29T12:27:45Z</time></trkpt><trkpt lat="43.85049487290239" lon="11.214879108134229"><ele>153.0</ele><time>2026-04-29T12:27:46Z</time></trkpt><trkpt lat="43.85073158004472" lon="11.214903077142763"><ele>153.0</ele><time>2026-04-29T12:27:47Z</time></trkpt><trkpt lat="43.85096802389569" lon="11.214928783713356"><ele>156.5</ele><time>2026-04-29T12:27:48Z</time></trkpt><trkpt lat="43.851207239789275" lon="11.214957896398808"><ele>160.0</ele><time>2026-04-29T12:27:49Z</time></trkpt><trkpt lat="43.8514384392178" lon="11.214984599246954"><ele>160.0</ele><time>2026-04-29T12:27:50Z</time></trkpt><trkpt lat="43.85166129923234" lon="11.2150102956904"><ele>160.0</ele><time>2026-04-29T12:27:51Z</time></trkpt><trkpt lat="43.85187436926425" lon="11.21503456047755"><ele>160.0</ele><time>2026-04-29T12:27:52Z</time></trkpt><trkpt lat="43.85206003336743" lon="11.215053096261205"><ele>164.66666666666669</ele><time>2026-04-29T12:27:53Z</time></trkpt><trkpt lat="43.85222877899356" lon="11.215066928102617"><ele>169.33333333333334</ele><time>2026-04-29T12:27:54Z</time></trkpt><trkpt lat="43.8523846296779" lon="11.215072084580902"><ele>174.0</ele><time>2026-04-29T12:27:55Z</time></trkpt><trkpt lat="43.852532870247785" lon="11.215042410774956"><ele>177.0</ele><time>2026-04-29T12:27:56Z</time></trkpt><trkpt lat="43.85266334549845" lon="11.214987040269945"><ele>180.0</ele><time>2026-04-29T12:27:57Z</time></trkpt><trkpt lat="43.85277211718633" lon="11.214955837339366"><ele>183.0</ele><time>2026-04-29T12:27:58Z</time></trkpt><trkpt lat="43.85289061197781" lon="11.214918052516424"><ele>186.0</ele><time>2026-04-29T12:27:59Z</time></trkpt><trkpt lat="43.85300723709067" lon="11.214866361948191"><ele>187.75</ele><time>2026-04-29T12:28:00Z</time></trkpt><trkpt lat="43.853137535975094" lon="11.214801696489435"><ele>189.5</ele><time>2026-04-29T12:28:01Z</time></trkpt><trkpt lat="43.85326252787916" lon="11.214741092958585"><ele>191.25</ele><time>2026-04-29T12:28:02Z</time></trkpt><trkpt lat="43.85337279442594" lon="11.214690461532117"><ele>193.0</ele><time>2026-04-29T12:28:03Z</time></trkpt><trkpt lat="43.85345776870447" lon="11.214656185060178"><ele>196.4</ele><time>2026-04-29T12:28:04Z</time></trkpt><trkpt lat="43.8535304074329" lon="11.21463133803137"><ele>199.8</ele><time>2026-04-29T12:28:05Z</time></trkpt><trkpt lat="43.853626369272774" lon="11.214594933254297"><ele>203.2</ele><time>2026-04-29T12:28:07Z</time></trkpt><trkpt lat="43.85376204746303" lon="11.214538102294151"><ele>206.6</ele><time>2026-04-29T12:28:10Z</time></trkpt><trkpt lat="43.85384858341426" lon="11.21449560863171"><ele>210.0</ele><time>2026-04-29T12:28:11Z</time></trkpt><trkpt lat="43.853932876468306" lon="11.214439942352666"><ele>210.0</ele><time>2026-04-29T12:28:12Z</time></trkpt><trkpt lat="43.853998794946854" lon="11.214343439271484"><ele>210.0</ele><time>2026-04-29T12:28:13Z</time></trkpt><trkpt lat="43.85404924207681" lon="11.214233448285137"><ele>210.0</ele><time>2026-04-29T12:28:14Z</time></trkpt><trkpt lat="43.8541150330394" lon="11.214116421054081"><ele>210.0</ele><time>2026-04-29T12:28:16Z</time></trkpt><trkpt lat="43.85418562128433" lon="11.214372394751729"><ele>210.0</ele><time>2026-04-29T12:28:20Z</time></trkpt><trkpt lat="43.85419232978824" lon="11.214520190365338"><ele>210.0</ele><time>2026-04-29T12:28:21Z</time></trkpt><trkpt lat="43.85427066970082" lon="11.214673669715905"><ele>210.0</ele><time>2026-04-29T12:28:22Z</time></trkpt><trkpt lat="43.854337722375845" lon="11.214802886217482"><ele>210.0</ele><time>2026-04-29T12:28:23Z</time></trkpt><trkpt lat="43.85436185855297" lon="11.214958424815153"><ele>217.75</ele><time>2026-04-29T12:28:24Z</time></trkpt><trkpt lat="43.8543684102744" lon="11.21515756993703"><ele>225.5</ele><time>2026-04-29T12:28:25Z</time></trkpt><trkpt lat="43.85437623906046" lon="11.215362301409108"><ele>233.25</ele><time>2026-04-29T12:28:26Z</time></trkpt><trkpt lat="43.854413902149595" lon="11.215554394979334"><ele>241.0</ele><time>2026-04-29T12:28:27Z</time></trkpt><trkpt lat="43.85446823612883" lon="11.21573217257694"><ele>241.75</ele><time>2026-04-29T12:28:28Z</time></trkpt><trkpt lat="43.854514598809224" lon="11.215887784297106"><ele>242.5</ele><time>2026-04-29T12:28:29Z</time></trkpt><trkpt lat="43.85459236727305" lon="11.21603712509263"><ele>243.25</ele><time>2026-04-29T12:28:30Z</time></trkpt><trkpt lat="43.85467240389067" lon="11.216193169446653"><ele>244.0</ele><time>2026-04-29T12:28:31Z</time></trkpt><trkpt lat="43.85474594383668" lon="11.21628394182388"><ele>244.0</ele><time>2026-04-29T12:28:32Z</time></trkpt><trkpt lat="43.854798891934266" lon="11.216377744167866"><ele>243.99999999999997</ele><time>2026-04-29T12:28:33Z</time></trkpt><trkpt lat="43.85488018560182" lon="11.216280443177617"><ele>243.99999999999997</ele><time>2026-04-29T12:28:36Z</time></trkpt><trkpt lat="43.85486021696848" lon="11.21618877218231"><ele>244.0</ele><time>2026-04-29T12:28:37Z</time></trkpt><trkpt lat="43.85478988839538" lon="11.21607246658436"><ele>244.0</ele><time>2026-04-29T12:28:38Z</time></trkpt><trkpt lat="43.8547752904792" lon="11.215919646146007"><ele>244.0</ele><time>2026-04-29T12:28:39Z</time></trkpt><trkpt lat="43.85479454330587" lon="11.215738755650175"><ele>244.0</ele><time>2026-04-29T12:28:40Z</time></trkpt><trkpt lat="43.8548041132843" lon="11.215584009568085"><ele>244.0</ele><time>2026-04-29T12:28:41Z</time></trkpt><trkpt lat="43.85483215643539" lon="11.215423611186011"><ele>244.0</ele><time>2026-04-29T12:28:42Z</time></trkpt><trkpt lat="43.85484515486525" lon="11.215301831547746"><ele>243.39999999999998</ele><time>2026-04-29T12:28:43Z</time></trkpt><trkpt lat="43.85486121518788" lon="11.215204532807935"><ele>242.79999999999998</ele><time>2026-04-29T12:28:44Z</time></trkpt><trkpt lat="43.85491914055307" lon="11.215076218456813"><ele>242.20000000000002</ele><time>2026-04-29T12:28:45.999Z</time></trkpt><trkpt lat="43.854950492606044" lon="11.214981547962005"><ele>241.60000000000002</ele><time>2026-04-29T12:28:47.999Z</time></trkpt><trkpt lat="43.85501764340999" lon="11.21491463712964"><ele>241.0</ele><time>2026-04-29T12:28:49.999Z</time></trkpt><trkpt lat="43.85510757069966" lon="11.214816021451352"><ele>244.16666666666666</ele><time>2026-04-29T12:28:53Z</time></trkpt><trkpt lat="43.85517578633139" lon="11.21475280035077"><ele>247.33333333333331</ele><time>2026-04-29T12:28:55Z</time></trkpt><trkpt lat="43.855238054318605" lon="11.214716597676162"><ele>250.5</ele><time>2026-04-29T12:28:57Z</time></trkpt><trkpt lat="43.85530636370235" lon="11.214683063840997"><ele>253.66666666666669</ele><time>2026-04-29T12:28:59Z</time></trkpt><trkpt lat="43.85538680852791" lon="11.21462823090275"><ele>256.83333333333337</ele><time>2026-04-29T12:29:01Z</time></trkpt><trkpt lat="43.85549648733233" lon="11.214580220958673"><ele>260.0</ele><time>2026-04-29T12:29:03Z</time></trkpt><trkpt lat="43.85555729282971" lon="11.214553082379163"><ele>260.0</ele><time>2026-04-29T12:29:05Z</time></trkpt><trkpt lat="43.85562594336079" lon="11.214523171194372"><ele>260.0</ele><time>2026-04-29T12:29:08Z</time></trkpt><trkpt lat="43.85569050411389" lon="11.214496075867654"><ele>260.0</ele><time>2026-04-29T12:29:13Z</time></trkpt><trkpt lat="43.855763238671564" lon="11.214445736923958"><ele>260.0</ele><time>2026-04-29T12:29:23Z</time></trkpt><trkpt lat="43.85583766107918" lon="11.214434890935818"><ele>260.0</ele><time>2026-04-29T12:29:24Z</time></trkpt><trkpt lat="43.85589883279507" lon="11.21438803369516"><ele>260.0</ele><time>2026-04-29T12:29:25Z</time></trkpt><trkpt lat="43.85594164655164" lon="11.214248655441752"><ele>260.0</ele><time>2026-04-29T12:29:26Z</time></trkpt><trkpt lat="43.85584792468077" lon="11.214080017521887"><ele>260.0</ele><time>2026-04-29T12:29:27Z</time></trkpt><trkpt lat="43.855785537076706" lon="11.21397905352158"><ele>260.0</ele><time>2026-04-29T12:29:28Z</time></trkpt><trkpt lat="43.85573254071272" lon="11.21388877378474"><ele>260.0</ele><time>2026-04-29T12:29:29Z</time></trkpt><trkpt lat="43.85568051395907" lon="11.213767619575547"><ele>260.0</ele><time>2026-04-29T12:29:31Z</time></trkpt><trkpt lat="43.85577936672085" lon="11.213752797167304"><ele>259.6666666666667</ele><time>2026-04-29T12:29:34Z</time></trkpt><trkpt lat="43.855923384299544" lon="11.213941299782453"><ele>259.3333333333333</ele><time>2026-04-29T12:29:36Z</time></trkpt><trkpt lat="43.85603633000121" lon="11.214035683641205"><ele>259.0</ele><time>2026-04-29T12:29:37Z</time></trkpt><trkpt lat="43.85616258009577" lon="11.214118986620448"><ele>262.8</ele><time>2026-04-29T12:29:38Z</time></trkpt><trkpt lat="43.856257829841674" lon="11.214169228371558"><ele>266.59999999999997</ele><time>2026-04-29T12:29:39Z</time></trkpt><trkpt lat="43.85633039632643" lon="11.214217305435902"><ele>270.4</ele><time>2026-04-29T12:29:40Z</time></trkpt><trkpt lat="43.85639943079576" lon="11.214233377702394"><ele>274.2</ele><time>2026-04-29T12:29:42Z</time></trkpt><trkpt lat="43.85645611603942" lon="11.214071223432086"><ele>278.0</ele><time>2026-04-29T12:29:44Z</time></trkpt><trkpt lat="43.85637451457934" lon="11.213922347949843"><ele>279.25</ele><time>2026-04-29T12:29:45Z</time></trkpt><trkpt lat="43.85629435214816" lon="11.213750020716626"><ele>280.5</ele><time>2026-04-29T12:29:46Z</time></trkpt><trkpt lat="43.856231420059686" lon="11.213616367113728"><ele>281.75</ele><time>2026-04-29T12:29:47Z</time></trkpt><trkpt lat="43.85618477593729" lon="11.213489682594112"><ele>283.0</ele><time>2026-04-29T12:29:49Z</time></trkpt><trkpt lat="43.85632135053919" lon="11.213446882279559"><ele>283.0</ele><time>2026-04-29T12:29:52Z</time></trkpt><trkpt lat="43.85639611275584" lon="11.21353271358653"><ele>283.0</ele><time>2026-04-29T12:29:53Z</time></trkpt><trkpt lat="43.8564881808798" lon="11.213644051509633"><ele>283.0</ele><time>2026-04-29T12:29:54Z</time></trkpt><trkpt lat="43.85659235759869" lon="11.213775295419191"><ele>283.0</ele><time>2026-04-29T12:29:55Z</time></trkpt><trkpt lat="43.85670208311624" lon="11.213935009128063"><ele>289.0</ele><time>2026-04-29T12:29:56Z</time></trkpt><trkpt lat="43.85679884604503" lon="11.214110636021502"><ele>295.0</ele><time>2026-04-29T12:29:57Z</time></trkpt><trkpt lat="43.856905214578696" lon="11.214279935016807"><ele>301.0</ele><time>2026-04-29T12:29:58Z</time></trkpt><trkpt lat="43.85702618012477" lon="11.214449791548946"><ele>301.0</ele><time>2026-04-29T12:29:59Z</time></trkpt><trkpt lat="43.85715801682386" lon="11.214603131313515"><ele>301.0</ele><time>2026-04-29T12:30:00Z</time></trkpt><trkpt lat="43.857287110329175" lon="11.214735855049803"><ele>301.0</ele><time>2026-04-29T12:30:01Z</time></trkpt><trkpt lat="43.8574133789423" lon="11.214855402236507"><ele>300.3333333333333</ele><time>2026-04-29T12:30:02Z</time></trkpt><trkpt lat="43.857556693348144" lon="11.214963890065958"><ele>299.6666666666667</ele><time>2026-04-29T12:30:03Z</time></trkpt><trkpt lat="43.85771646363571" lon="11.215047404624183"><ele>299.0</ele><time>2026-04-29T12:30:04Z</time></trkpt><trkpt lat="43.857887342079906" lon="11.215138074500612"><ele>301.0</ele><time>2026-04-29T12:30:05Z</time></trkpt><trkpt lat="43.858030793316175" lon="11.215238157222455"><ele>303.0</ele><time>2026-04-29T12:30:06Z</time></trkpt><trkpt lat="43.85816575753688" lon="11.215344849796999"><ele>305.0</ele><time>2026-04-29T12:30:07Z</time></trkpt><trkpt lat="43.858292397842256" lon="11.215476169740022"><ele>305.0</ele><time>2026-04-29T12:30:08Z</time></trkpt><trkpt lat="43.85842308584331" lon="11.215602988822335"><ele>305.0</ele><time>2026-04-29T12:30:09Z</time></trkpt><trkpt lat="43.858555248402226" lon="11.21574247198783"><ele>305.0</ele><time>2026-04-29T12:30:10Z</time></trkpt><trkpt lat="43.85871064665733" lon="11.215890391966788"><ele>306.6666666666667</ele><time>2026-04-29T12:30:11Z</time></trkpt><trkpt lat="43.85888840938325" lon="11.216028685362383"><ele>308.3333333333333</ele><time>2026-04-29T12:30:12Z</time></trkpt><trkpt lat="43.85907041173081" lon="11.216162403010044"><ele>310.0</ele><time>2026-04-29T12:30:13Z</time></trkpt><trkpt lat="43.85924853759919" lon="11.216301770566709"><ele>311.3333333333333</ele><time>2026-04-29T12:30:14Z</time></trkpt><trkpt lat="43.85942786799306" lon="11.216447051851366"><ele>312.6666666666667</ele><time>2026-04-29T12:30:15Z</time></trkpt><trkpt lat="43.859616179683044" lon="11.216589006542847"><ele>314.0</ele><time>2026-04-29T12:30:16Z</time></trkpt><trkpt lat="43.85981572959124" lon="11.216709494572877"><ele>314.0</ele><time>2026-04-29T12:30:17Z</time></trkpt><trkpt lat="43.86000232976225" lon="11.216802365175065"><ele>314.0</ele><time>2026-04-29T12:30:18Z</time></trkpt><trkpt lat="43.860171396091786" lon="11.216875959310578"><ele>314.0</ele><time>2026-04-29T12:30:19Z</time></trkpt><trkpt lat="43.86031036201236" lon="11.216967500603428"><ele>317.0</ele><time>2026-04-29T12:30:20Z</time></trkpt><trkpt lat="43.86044085125267" lon="11.21703486448289"><ele>320.0</ele><time>2026-04-29T12:30:21Z</time></trkpt><trkpt lat="43.860560234756406" lon="11.217104266716108"><ele>323.0</ele><time>2026-04-29T12:30:22Z</time></trkpt><trkpt lat="43.86065707977026" lon="11.21724300254527"><ele>326.0</ele><time>2026-04-29T12:30:23Z</time></trkpt><trkpt lat="43.86072322976902" lon="11.217380358537097"><ele>326.0</ele><time>2026-04-29T12:30:24Z</time></trkpt><trkpt lat="43.860783349685356" lon="11.217477605356594"><ele>326.0</ele><time>2026-04-29T12:30:25Z</time></trkpt><trkpt lat="43.860850071225805" lon="11.217532633494042"><ele>326.0</ele><time>2026-04-29T12:30:26Z</time></trkpt><trkpt lat="43.86093287196102" lon="11.217531857423443"><ele>326.0</ele><time>2026-04-29T12:30:27Z</time></trkpt><trkpt lat="43.861026857940196" lon="11.217490194346237"><ele>326.0</ele><time>2026-04-29T12:30:28Z</time></trkpt><trkpt lat="43.86111580999445" lon="11.217495745683914"><ele>326.0</ele><time>2026-04-29T12:30:29Z</time></trkpt><trkpt lat="43.861167896896816" lon="11.217563725249914"><ele>326.25</ele><time>2026-04-29T12:30:30Z</time></trkpt><trkpt lat="43.8611941211819" lon="11.217666916725326"><ele>326.5</ele><time>2026-04-29T12:30:31Z</time></trkpt><trkpt lat="43.8612098963862" lon="11.21782007379095"><ele>326.75</ele><time>2026-04-29T12:30:32Z</time></trkpt><trkpt lat="43.86122506085983" lon="11.218013967466888"><ele>327.0</ele><time>2026-04-29T12:30:33Z</time></trkpt><trkpt lat="43.86125219905523" lon="11.2182306609143"><ele>328.3333333333333</ele><time>2026-04-29T12:30:34Z</time></trkpt><trkpt lat="43.861275430608046" lon="11.218452900944254"><ele>329.66666666666663</ele><time>2026-04-29T12:30:35Z</time></trkpt><trkpt lat="43.86129421619744" lon="11.218692723183894"><ele>331.0</ele><time>2026-04-29T12:30:36Z</time></trkpt><trkpt lat="43.861314207305846" lon="11.218948060072332"><ele>333.0</ele><time>2026-04-29T12:30:37Z</time></trkpt><trkpt lat="43.86136033149092" lon="11.219193112213791"><ele>335.0</ele><time>2026-04-29T12:30:38Z</time></trkpt><trkpt lat="43.86144058304376" lon="11.219427189805046"><ele>337.0</ele><time>2026-04-29T12:30:39Z</time></trkpt><trkpt lat="43.86156599091019" lon="11.219646417413852"><ele>339.66666666666663</ele><time>2026-04-29T12:30:40Z</time></trkpt><trkpt lat="43.86170871103017" lon="11.219861831943577"><ele>342.3333333333333</ele><time>2026-04-29T12:30:41Z</time></trkpt><trkpt lat="43.861848150149186" lon="11.220084993007626"><ele>345.0</ele><time>2026-04-29T12:30:42Z</time></trkpt><trkpt lat="43.86198247591353" lon="11.220316698424751"><ele>345.0</ele><time>2026-04-29T12:30:43Z</time></trkpt><trkpt lat="43.8621063633024" lon="11.22053861002567"><ele>345.0</ele><time>2026-04-29T12:30:44Z</time></trkpt><trkpt lat="43.86221046271351" lon="11.220775530014253"><ele>345.0</ele><time>2026-04-29T12:30:45Z</time></trkpt><trkpt lat="43.86231167911939" lon="11.221006022821372"><ele>348.6666666666667</ele><time>2026-04-29T12:30:46Z</time></trkpt><trkpt lat="43.86237473572725" lon="11.221249142647723"><ele>352.33333333333337</ele><time>2026-04-29T12:30:47Z</time></trkpt><trkpt lat="43.86243357742763" lon="11.221504639663635"><ele>356.0</ele><time>2026-04-29T12:30:47.999Z</time></trkpt><trkpt lat="43.86247612359236" lon="11.22175847872663"><ele>359.6666666666667</ele><time>2026-04-29T12:30:48.999Z</time></trkpt><trkpt lat="43.86255347141252" lon="11.221994098706476"><ele>363.3333333333333</ele><time>2026-04-29T12:30:49.999Z</time></trkpt><trkpt lat="43.8626639493678" lon="11.222193384412343"><ele>367.0</ele><time>2026-04-29T12:30:50.999Z</time></trkpt><trkpt lat="43.86276378422057" lon="11.22239492572498"><ele>371.3333333333333</ele><time>2026-04-29T12:30:51.999Z</time></trkpt><trkpt lat="43.862820068516506" lon="11.222601846240497"><ele>375.6666666666667</ele><time>2026-04-29T12:30:52.999Z</time></trkpt><trkpt lat="43.86285809372007" lon="11.222851366224136"><ele>380.0</ele><time>2026-04-29T12:30:53.999Z</time></trkpt><trkpt lat="43.86289183556853" lon="11.223109530640015"><ele>385.33333333333337</ele><time>2026-04-29T12:30:54.999Z</time></trkpt><trkpt lat="43.862929756037666" lon="11.22335564280893"><ele>390.6666666666667</ele><time>2026-04-29T12:30:56Z</time></trkpt><trkpt lat="43.86293095552124" lon="11.223568783157976"><ele>396.0</ele><time>2026-04-29T12:30:57Z</time></trkpt><trkpt lat="43.862925675090636" lon="11.223766595628197"><ele>396.0</ele><time>2026-04-29T12:30:58Z</time></trkpt><trkpt lat="43.86296472312152" lon="11.223946419145562"><ele>396.0</ele><time>2026-04-29T12:30:59Z</time></trkpt><trkpt lat="43.86305661910332" lon="11.224123483007943"><ele>396.0</ele><time>2026-04-29T12:31:00Z</time></trkpt><trkpt lat="43.86317181226119" lon="11.224294981981117"><ele>400.33333333333337</ele><time>2026-04-29T12:31:01Z</time></trkpt><trkpt lat="43.8633057261299" lon="11.224454369684175"><ele>404.6666666666667</ele><time>2026-04-29T12:31:02Z</time></trkpt><trkpt lat="43.863452444094605" lon="11.224585031263416"><ele>409.0</ele><time>2026-04-29T12:31:03Z</time></trkpt><trkpt lat="43.863599006373725" lon="11.224710365773703"><ele>412.6666666666667</ele><time>2026-04-29T12:31:04Z</time></trkpt><trkpt lat="43.863706955073916" lon="11.224846855282747"><ele>416.33333333333337</ele><time>2026-04-29T12:31:05Z</time></trkpt><trkpt lat="43.86384598432339" lon="11.22496286837098"><ele>420.0</ele><time>2026-04-29T12:31:06Z</time></trkpt><trkpt lat="43.86403438771909" lon="11.225026598279687"><ele>420.0</ele><time>2026-04-29T12:31:07Z</time></trkpt><trkpt lat="43.86422242385554" lon="11.225067014660151"><ele>420.0</ele><time>2026-04-29T12:31:08Z</time></trkpt><trkpt lat="43.86440304155633" lon="11.225120552466596"><ele>420.0</ele><time>2026-04-29T12:31:09Z</time></trkpt><trkpt lat="43.86454660998676" lon="11.225214421887545"><ele>424.25</ele><time>2026-04-29T12:31:10Z</time></trkpt><trkpt lat="43.86466328135744" lon="11.225309605545773"><ele>428.5</ele><time>2026-04-29T12:31:11Z</time></trkpt><trkpt lat="43.86476521313961" lon="11.225412564961465"><ele>432.75</ele><time>2026-04-29T12:31:12Z</time></trkpt><trkpt lat="43.86485886076609" lon="11.225504524269718"><ele>437.0</ele><time>2026-04-29T12:31:13Z</time></trkpt><trkpt lat="43.86492657879698" lon="11.225609633424364"><ele>436.0</ele><time>2026-04-29T12:31:14Z</time></trkpt><trkpt lat="43.86498906255989" lon="11.225694476430643"><ele>435.0</ele><time>2026-04-29T12:31:15Z</time></trkpt><trkpt lat="43.86506483316728" lon="11.22580459186232"><ele>434.0</ele><time>2026-04-29T12:31:16Z</time></trkpt><trkpt lat="43.86514113803324" lon="11.2259634266337"><ele>433.0</ele><time>2026-04-29T12:31:17Z</time></trkpt><trkpt lat="43.86523283580724" lon="11.226166436460387"><ele>446.0</ele><time>2026-04-29T12:31:18Z</time></trkpt><trkpt lat="43.86531412529564" lon="11.226387167161851"><ele>459.0</ele><time>2026-04-29T12:31:19Z</time></trkpt><trkpt lat="43.86538115411612" lon="11.226628548549341"><ele>472.0</ele><time>2026-04-29T12:31:20Z</time></trkpt><trkpt lat="43.86545283264624" lon="11.226884322657561"><ele>472.0</ele><time>2026-04-29T12:31:21Z</time></trkpt><trkpt lat="43.865531121405105" lon="11.227147491884402"><ele>472.0</ele><time>2026-04-29T12:31:22Z</time></trkpt><trkpt lat="43.86561457505466" lon="11.227422487504922"><ele>472.0</ele><time>2026-04-29T12:31:23Z</time></trkpt><trkpt lat="43.86569139202664" lon="11.227700784082126"><ele>468.0</ele><time>2026-04-29T12:31:24Z</time></trkpt><trkpt lat="43.865759048322126" lon="11.227978164926869"><ele>464.0</ele><time>2026-04-29T12:31:25Z</time></trkpt><trkpt lat="43.865828886547675" lon="11.228252740830008"><ele>460.0</ele><time>2026-04-29T12:31:26Z</time></trkpt><trkpt lat="43.86589717286692" lon="11.22852976447528"><ele>474.6666666666667</ele><time>2026-04-29T12:31:27Z</time></trkpt><trkpt lat="43.8659528780859" lon="11.22880209215518"><ele>489.33333333333337</ele><time>2026-04-29T12:31:28Z</time></trkpt><trkpt lat="43.865995807662074" lon="11.229075763678118"><ele>504.0</ele><time>2026-04-29T12:31:29Z</time></trkpt><trkpt lat="43.86603357917468" lon="11.229321219240825"><ele>504.0</ele><time>2026-04-29T12:31:30Z</time></trkpt><trkpt lat="43.866075623298585" lon="11.229560762527246"><ele>504.0</ele><time>2026-04-29T12:31:31Z</time></trkpt><trkpt lat="43.86611542343025" lon="11.229784276324953"><ele>504.0</ele><time>2026-04-29T12:31:32Z</time></trkpt><trkpt lat="43.86615704285852" lon="11.230010806427103"><ele>501.66666666666663</ele><time>2026-04-29T12:31:33Z</time></trkpt><trkpt lat="43.86619203585442" lon="11.23022767561501"><ele>499.3333333333333</ele><time>2026-04-29T12:31:34Z</time></trkpt><trkpt lat="43.866221178973234" lon="11.230441824295358"><ele>497.0</ele><time>2026-04-29T12:31:35Z</time></trkpt><trkpt lat="43.86622947966483" lon="11.23066942651228"><ele>497.0</ele><time>2026-04-29T12:31:36Z</time></trkpt><trkpt lat="43.86621763923901" lon="11.23090893868976"><ele>497.0</ele><time>2026-04-29T12:31:37Z</time></trkpt><trkpt lat="43.86619780188016" lon="11.231157086123465"><ele>497.0</ele><time>2026-04-29T12:31:38Z</time></trkpt><trkpt lat="43.86619163276912" lon="11.231361923880378"><ele>497.0</ele><time>2026-04-29T12:31:39Z</time></trkpt><trkpt lat="43.86621526199934" lon="11.231595798341756"><ele>497.0</ele><time>2026-04-29T12:31:40Z</time></trkpt><trkpt lat="43.86627368235668" lon="11.231809887297812"><ele>497.0</ele><time>2026-04-29T12:31:41Z</time></trkpt><trkpt lat="43.86634791702189" lon="11.232018979271178"><ele>497.0</ele><time>2026-04-29T12:31:42Z</time></trkpt><trkpt lat="43.86637656949276" lon="11.232212289372777"><ele>497.0</ele><time>2026-04-29T12:31:43Z</time></trkpt><trkpt lat="43.86641126758971" lon="11.232382542515724"><ele>497.0</ele><time>2026-04-29T12:31:44Z</time></trkpt><trkpt lat="43.866375715033634" lon="11.232555143022243"><ele>497.0</ele><time>2026-04-29T12:31:45Z</time></trkpt><trkpt lat="43.866329507536555" lon="11.232734210311635"><ele>497.25</ele><time>2026-04-29T12:31:46Z</time></trkpt><trkpt lat="43.8662570818256" lon="11.232897695505908"><ele>497.5</ele><time>2026-04-29T12:31:47Z</time></trkpt><trkpt lat="43.86615177962291" lon="11.23301371282857"><ele>497.75</ele><time>2026-04-29T12:31:48Z</time></trkpt><trkpt lat="43.86602661053247" lon="11.23311616787651"><ele>498.0</ele><time>2026-04-29T12:31:49Z</time></trkpt><trkpt lat="43.865884999696064" lon="11.233205786028064"><ele>493.33333333333337</ele><time>2026-04-29T12:31:50Z</time></trkpt><trkpt lat="43.8657048039646" lon="11.233270336419245"><ele>488.6666666666667</ele><time>2026-04-29T12:31:51Z</time></trkpt><trkpt lat="43.865488952254864" lon="11.233302384411171"><ele>484.0</ele><time>2026-04-29T12:31:52Z</time></trkpt><trkpt lat="43.86524400773435" lon="11.233324064148581"><ele>484.0</ele><time>2026-04-29T12:31:53Z</time></trkpt><trkpt lat="43.86499873182315" lon="11.233352388299947"><ele>484.0</ele><time>2026-04-29T12:31:54Z</time></trkpt><trkpt lat="43.86475868783347" lon="11.233386871174952"><ele>484.0</ele><time>2026-04-29T12:31:55Z</time></trkpt><trkpt lat="43.86451509477771" lon="11.23342706947494"><ele>484.0</ele><time>2026-04-29T12:31:56Z</time></trkpt><trkpt lat="43.86427740968172" lon="11.23348531063189"><ele>484.0</ele><time>2026-04-29T12:31:57Z</time></trkpt><trkpt lat="43.864049770894596" lon="11.233591630622994"><ele>484.0</ele><time>2026-04-29T12:31:58Z</time></trkpt><trkpt lat="43.863822616497686" lon="11.23376181812588"><ele>484.0</ele><time>2026-04-29T12:31:59Z</time></trkpt><trkpt lat="43.8636007856184" lon="11.233964537000173"><ele>484.0</ele><time>2026-04-29T12:32:00Z</time></trkpt><trkpt lat="43.86337243615924" lon="11.23418188004898"><ele>490.0</ele><time>2026-04-29T12:32:01Z</time></trkpt><trkpt lat="43.86314234908123" lon="11.23437866345979"><ele>496.0</ele><time>2026-04-29T12:32:02Z</time></trkpt><trkpt lat="43.862906746856616" lon="11.234534291755521"><ele>496.0</ele><time>2026-04-29T12:32:03Z</time></trkpt><trkpt lat="43.86266688084883" lon="11.234656134179538"><ele>496.0</ele><time>2026-04-29T12:32:04Z</time></trkpt><trkpt lat="43.86244665911634" lon="11.234765846580586"><ele>503.33333333333337</ele><time>2026-04-29T12:32:05Z</time></trkpt><trkpt lat="43.8622476775496" lon="11.234865495526785"><ele>510.66666666666663</ele><time>2026-04-29T12:32:06Z</time></trkpt><trkpt lat="43.86205313658531" lon="11.234923558074312"><ele>518.0</ele><time>2026-04-29T12:32:07Z</time></trkpt><trkpt lat="43.86185662698884" lon="11.234881555340536"><ele>516.0</ele><time>2026-04-29T12:32:08Z</time></trkpt><trkpt lat="43.861647676234405" lon="11.234803361627096"><ele>514.0</ele><time>2026-04-29T12:32:09Z</time></trkpt><trkpt lat="43.86145070748602" lon="11.234659776404126"><ele>512.0</ele><time>2026-04-29T12:32:10Z</time></trkpt><trkpt lat="43.86130951816743" lon="11.234468979426051"><ele>512.0</ele><time>2026-04-29T12:32:11Z</time></trkpt><trkpt lat="43.86118028736481" lon="11.234259518428228"><ele>512.0</ele><time>2026-04-29T12:32:12Z</time></trkpt><trkpt lat="43.86105407271239" lon="11.234053082697645"><ele>512.0</ele><time>2026-04-29T12:32:13Z</time></trkpt><trkpt lat="43.86089801108265" lon="11.233891490470043"><ele>512.5</ele><time>2026-04-29T12:32:14Z</time></trkpt><trkpt lat="43.86069477889395" lon="11.233771754950629"><ele>513.0</ele><time>2026-04-29T12:32:15Z</time></trkpt><trkpt lat="43.86046489955148" lon="11.233689263085184"><ele>513.0</ele><time>2026-04-29T12:32:16Z</time></trkpt><trkpt lat="43.86021739948722" lon="11.233647307075755"><ele>513.0</ele><time>2026-04-29T12:32:17Z</time></trkpt><trkpt lat="43.85995928744923" lon="11.233631426056844"><ele>517.5</ele><time>2026-04-29T12:32:18Z</time></trkpt><trkpt lat="43.85969687069109" lon="11.2335959787688"><ele>522.0</ele><time>2026-04-29T12:32:19Z</time></trkpt><trkpt lat="43.85943975602594" lon="11.233557397417"><ele>525.0</ele><time>2026-04-29T12:32:20Z</time></trkpt><trkpt lat="43.85920974334223" lon="11.233540810012359"><ele>528.0</ele><time>2026-04-29T12:32:21Z</time></trkpt><trkpt lat="43.858984186172336" lon="11.233558865371354"><ele>528.0</ele><time>2026-04-29T12:32:22Z</time></trkpt><trkpt lat="43.858753668756584" lon="11.233626843352155"><ele>528.0</ele><time>2026-04-29T12:32:23Z</time></trkpt><trkpt lat="43.85854824973033" lon="11.233753174165606"><ele>525.5</ele><time>2026-04-29T12:32:24Z</time></trkpt><trkpt lat="43.85835586365585" lon="11.233945415367636"><ele>523.0</ele><time>2026-04-29T12:32:25Z</time></trkpt><trkpt lat="43.85817650657855" lon="11.23418246887968"><ele>532.5</ele><time>2026-04-29T12:32:26Z</time></trkpt><trkpt lat="43.857988974718495" lon="11.234408985280853"><ele>542.0</ele><time>2026-04-29T12:32:27Z</time></trkpt><trkpt lat="43.857792117250526" lon="11.234625986406128"><ele>542.5</ele><time>2026-04-29T12:32:28Z</time></trkpt><trkpt lat="43.8575838386289" lon="11.234827760009313"><ele>543.0</ele><time>2026-04-29T12:32:29Z</time></trkpt><trkpt lat="43.85734176154666" lon="11.234972788866887"><ele>543.0</ele><time>2026-04-29T12:32:30Z</time></trkpt><trkpt lat="43.85709118670991" lon="11.235110064279283"><ele>543.0</ele><time>2026-04-29T12:32:31Z</time></trkpt><trkpt lat="43.856833541498474" lon="11.235262320085699"><ele>535.5</ele><time>2026-04-29T12:32:32Z</time></trkpt><trkpt lat="43.856581464447096" lon="11.235394408870693"><ele>528.0</ele><time>2026-04-29T12:32:33Z</time></trkpt><trkpt lat="43.8563236142644" lon="11.235539854068227"><ele>536.0</ele><time>2026-04-29T12:32:34Z</time></trkpt><trkpt lat="43.85608089186234" lon="11.235662901712997"><ele>544.0</ele><time>2026-04-29T12:32:35Z</time></trkpt><trkpt lat="43.85583871110075" lon="11.235744289169643"><ele>544.0</ele><time>2026-04-29T12:32:36Z</time></trkpt><trkpt lat="43.85558232051976" lon="11.23579392515768"><ele>544.0</ele><time>2026-04-29T12:32:37Z</time></trkpt><trkpt lat="43.85532152132203" lon="11.235843536376684"><ele>544.0</ele><time>2026-04-29T12:32:38Z</time></trkpt><trkpt lat="43.85507721379456" lon="11.235893185660368"><ele>544.0</ele><time>2026-04-29T12:32:39Z</time></trkpt><trkpt lat="43.854859508109364" lon="11.23593179551111"><ele>544.0</ele><time>2026-04-29T12:32:40Z</time></trkpt><trkpt lat="43.85465709970778" lon="11.235931174841076"><ele>544.0</ele><time>2026-04-29T12:32:41Z</time></trkpt><trkpt lat="43.854463466319224" lon="11.235827565689782"><ele>544.0</ele><time>2026-04-29T12:32:42Z</time></trkpt><trkpt lat="43.85426763030546" lon="11.235756731108864"><ele>546.3333333333334</ele><time>2026-04-29T12:32:43Z</time></trkpt><trkpt lat="43.85408047914649" lon="11.235702294682195"><ele>548.6666666666666</ele><time>2026-04-29T12:32:44Z</time></trkpt><trkpt lat="43.85385882004287" lon="11.235761871190894"><ele>551.0</ele><time>2026-04-29T12:32:45Z</time></trkpt><trkpt lat="43.853620847133506" lon="11.235854035990542"><ele>548.5</ele><time>2026-04-29T12:32:46Z</time></trkpt><trkpt lat="43.853377250574006" lon="11.235943249378204"><ele>546.0</ele><time>2026-04-29T12:32:47Z</time></trkpt><trkpt lat="43.85313186815115" lon="11.236024876054987"><ele>546.0</ele><time>2026-04-29T12:32:48Z</time></trkpt><trkpt lat="43.85288708165658" lon="11.236102103874671"><ele>546.0</ele><time>2026-04-29T12:32:49Z</time></trkpt><trkpt lat="43.852664270734344" lon="11.236180560071295"><ele>543.6666666666666</ele><time>2026-04-29T12:32:49.999Z</time></trkpt><trkpt lat="43.85245034970714" lon="11.23628468427637"><ele>541.3333333333333</ele><time>2026-04-29T12:32:50.999Z</time></trkpt><trkpt lat="43.852274640027034" lon="11.236440814591566"><ele>539.0</ele><time>2026-04-29T12:32:51.999Z</time></trkpt><trkpt lat="43.85211471395301" lon="11.236600286012065"><ele>546.6666666666666</ele><time>2026-04-29T12:32:52.999Z</time></trkpt><trkpt lat="43.85197521775348" lon="11.236752580276917"><ele>554.3333333333334</ele><time>2026-04-29T12:32:53.999Z</time></trkpt><trkpt lat="43.85183757535376" lon="11.236861796308993"><ele>562.0</ele><time>2026-04-29T12:32:54.999Z</time></trkpt><trkpt lat="43.851719453457065" lon="11.23697301189626"><ele>562.0</ele><time>2026-04-29T12:32:55.999Z</time></trkpt><trkpt lat="43.85161206908948" lon="11.237073898125992"><ele>562.0</ele><time>2026-04-29T12:32:56.999Z</time></trkpt><trkpt lat="43.85147855639373" lon="11.237083896828182"><ele>562.0</ele><time>2026-04-29T12:32:57.999Z</time></trkpt><trkpt lat="43.85136000646041" lon="11.236980979403494"><ele>562.0</ele><time>2026-04-29T12:32:58.999Z</time></trkpt><trkpt lat="43.8512445002256" lon="11.2368436158386"><ele>562.0</ele><time>2026-04-29T12:32:59.999Z</time></trkpt><trkpt lat="43.85115602377403" lon="11.236618887960768"><ele>562.0</ele><time>2026-04-29T12:33:00.999Z</time></trkpt><trkpt lat="43.85110100187566" lon="11.236353628320465"><ele>562.0</ele><time>2026-04-29T12:33:02Z</time></trkpt><trkpt lat="43.85103341050078" lon="11.23605077909746"><ele>555.5</ele><time>2026-04-29T12:33:03Z</time></trkpt><trkpt lat="43.850981721799684" lon="11.235741811744573"><ele>549.0</ele><time>2026-04-29T12:33:04Z</time></trkpt><trkpt lat="43.850926350017296" lon="11.235433844531622"><ele>558.5</ele><time>2026-04-29T12:33:05Z</time></trkpt><trkpt lat="43.85086368597516" lon="11.235115009668775"><ele>568.0</ele><time>2026-04-29T12:33:06Z</time></trkpt><trkpt lat="43.85079812548031" lon="11.234784144805722"><ele>568.0</ele><time>2026-04-29T12:33:07Z</time></trkpt><trkpt lat="43.850732799708375" lon="11.234477427341977"><ele>568.0</ele><time>2026-04-29T12:33:08Z</time></trkpt><trkpt lat="43.85067373836834" lon="11.23416493056554"><ele>562.5</ele><time>2026-04-29T12:33:09Z</time></trkpt><trkpt lat="43.85060024228965" lon="11.233849633022773"><ele>557.0</ele><time>2026-04-29T12:33:10Z</time></trkpt><trkpt lat="43.85053111358755" lon="11.23351900914612"><ele>557.0</ele><time>2026-04-29T12:33:11Z</time></trkpt><trkpt lat="43.85046035762707" lon="11.233189785330165"><ele>557.0</ele><time>2026-04-29T12:33:12Z</time></trkpt><trkpt lat="43.85038213860752" lon="11.2328584095949"><ele>563.5</ele><time>2026-04-29T12:33:13Z</time></trkpt><trkpt lat="43.850104105717385" lon="11.232604310296884"><ele>570.0</ele><time>2026-04-29T12:33:14Z</time></trkpt><trkpt lat="43.84993004903103" lon="11.23230616293042"><ele>570.0</ele><time>2026-04-29T12:33:15Z</time></trkpt><trkpt lat="43.849772994718215" lon="11.232016093885216"><ele>570.0</ele><time>2026-04-29T12:33:16Z</time></trkpt><trkpt lat="43.849639313409575" lon="11.231749803901055"><ele>570.0</ele><time>2026-04-29T12:33:17Z</time></trkpt><trkpt lat="43.84951119637253" lon="11.231507173578745"><ele>570.0</ele><time>2026-04-29T12:33:18Z</time></trkpt><trkpt lat="43.849377839587746" lon="11.231299231285641"><ele>570.0</ele><time>2026-04-29T12:33:19Z</time></trkpt><trkpt lat="43.849226427969626" lon="11.231144562138805"><ele>571.0</ele><time>2026-04-29T12:33:20Z</time></trkpt><trkpt lat="43.849053537516376" lon="11.231063076984404"><ele>572.0</ele><time>2026-04-29T12:33:21Z</time></trkpt><trkpt lat="43.84886604946335" lon="11.231046503289393"><ele>573.0</ele><time>2026-04-29T12:33:22Z</time></trkpt><trkpt lat="43.848643181725954" lon="11.231065349300536"><ele>573.3333333333334</ele><time>2026-04-29T12:33:23Z</time></trkpt><trkpt lat="43.848455315722646" lon="11.231104512628693"><ele>573.6666666666667</ele><time>2026-04-29T12:33:24Z</time></trkpt><trkpt lat="43.8482797240262" lon="11.231162425053293"><ele>574.0</ele><time>2026-04-29T12:33:25Z</time></trkpt><trkpt lat="43.84810091648471" lon="11.231279255862937"><ele>574.0</ele><time>2026-04-29T12:33:26Z</time></trkpt><trkpt lat="43.84796181695521" lon="11.231445073100533"><ele>574.0</ele><time>2026-04-29T12:33:27Z</time></trkpt><trkpt lat="43.84786302761443" lon="11.231610249933315"><ele>574.0</ele><time>2026-04-29T12:33:28Z</time></trkpt><trkpt lat="43.84780525438867" lon="11.231781264745186"><ele>579.0</ele><time>2026-04-29T12:33:29Z</time></trkpt><trkpt lat="43.847795863903094" lon="11.232007896985717"><ele>584.0</ele><time>2026-04-29T12:33:30Z</time></trkpt><trkpt lat="43.84783765500847" lon="11.232282298182676"><ele>589.0</ele><time>2026-04-29T12:33:31Z</time></trkpt><trkpt lat="43.84793623076959" lon="11.232562446356955"><ele>590.5</ele><time>2026-04-29T12:33:32Z</time></trkpt><trkpt lat="43.848066849855925" lon="11.232851865235428"><ele>592.0</ele><time>2026-04-29T12:33:33Z</time></trkpt><trkpt lat="43.84820451250659" lon="11.233115376788914"><ele>588.0</ele><time>2026-04-29T12:33:34Z</time></trkpt><trkpt lat="43.84834866678985" lon="11.23337920160953"><ele>584.0</ele><time>2026-04-29T12:33:35Z</time></trkpt><trkpt lat="43.84848641902605" lon="11.233656653231613"><ele>591.0</ele><time>2026-04-29T12:33:36Z</time></trkpt><trkpt lat="43.84861705097977" lon="11.233940866157539"><ele>598.0</ele><time>2026-04-29T12:33:37Z</time></trkpt><trkpt lat="43.848745626070304" lon="11.234226759325797"><ele>598.0</ele><time>2026-04-29T12:33:38Z</time></trkpt><trkpt lat="43.848857976744725" lon="11.234499015485381"><ele>598.0</ele><time>2026-04-29T12:33:39Z</time></trkpt><trkpt lat="43.84895954099543" lon="11.234763338358604"><ele>598.0</ele><time>2026-04-29T12:33:40Z</time></trkpt><trkpt lat="43.84906467188669" lon="11.235019584093843"><ele>598.6666666666667</ele><time>2026-04-29T12:33:41Z</time></trkpt><trkpt lat="43.84917636429024" lon="11.235270168581437"><ele>599.3333333333334</ele><time>2026-04-29T12:33:42Z</time></trkpt><trkpt lat="43.84928914477951" lon="11.235522552178194"><ele>600.0</ele><time>2026-04-29T12:33:43Z</time></trkpt><trkpt lat="43.8493927893148" lon="11.235786644624032"><ele>600.0</ele><time>2026-04-29T12:33:44Z</time></trkpt><trkpt lat="43.84949394484849" lon="11.236053507133825"><ele>600.0</ele><time>2026-04-29T12:33:45Z</time></trkpt><trkpt lat="43.84959593798058" lon="11.236320745488582"><ele>600.0</ele><time>2026-04-29T12:33:46Z</time></trkpt><trkpt lat="43.84970089962194" lon="11.23659162802107"><ele>597.6666666666666</ele><time>2026-04-29T12:33:47Z</time></trkpt><trkpt lat="43.84980058538539" lon="11.236842888476462"><ele>595.3333333333333</ele><time>2026-04-29T12:33:48Z</time></trkpt><trkpt lat="43.8499006592243" lon="11.237072518017795"><ele>593.0</ele><time>2026-04-29T12:33:49Z</time></trkpt><trkpt lat="43.85002244758704" lon="11.23726724345632"><ele>591.6666666666666</ele><time>2026-04-29T12:33:50Z</time></trkpt><trkpt lat="43.850175877744434" lon="11.23744554821107"><ele>590.3333333333334</ele><time>2026-04-29T12:33:51Z</time></trkpt><trkpt lat="43.85034814482203" lon="11.237593502326655"><ele>589.0</ele><time>2026-04-29T12:33:52Z</time></trkpt><trkpt lat="43.85052179892621" lon="11.237696959579766"><ele>589.0</ele><time>2026-04-29T12:33:53Z</time></trkpt><trkpt lat="43.85067484118039" lon="11.237803779707647"><ele>589.0</ele><time>2026-04-29T12:33:54Z</time></trkpt><trkpt lat="43.8508090786012" lon="11.237916998855185"><ele>589.0</ele><time>2026-04-29T12:33:55Z</time></trkpt><trkpt lat="43.85092531342061" lon="11.238044196554826"><ele>590.0</ele><time>2026-04-29T12:33:56Z</time></trkpt><trkpt lat="43.85101665753875" lon="11.238187776063999"><ele>591.0</ele><time>2026-04-29T12:33:57Z</time></trkpt><trkpt lat="43.851075589584916" lon="11.238348458925323"><ele>592.0</ele><time>2026-04-29T12:33:58Z</time></trkpt><trkpt lat="43.851101686694946" lon="11.23852998953629"><ele>593.0</ele><time>2026-04-29T12:33:59Z</time></trkpt><trkpt lat="43.85109808383969" lon="11.238729478622883"><ele>593.0</ele><time>2026-04-29T12:34:00Z</time></trkpt><trkpt lat="43.85107013674653" lon="11.238957086923584"><ele>593.0</ele><time>2026-04-29T12:34:01Z</time></trkpt><trkpt lat="43.8510265982543" lon="11.23918998682637"><ele>593.0</ele><time>2026-04-29T12:34:02Z</time></trkpt><trkpt lat="43.850975912990904" lon="11.239431642697365"><ele>592.6666666666666</ele><time>2026-04-29T12:34:03Z</time></trkpt><trkpt lat="43.8509252743766" lon="11.239686765530456"><ele>592.3333333333334</ele><time>2026-04-29T12:34:04Z</time></trkpt><trkpt lat="43.850877598780514" lon="11.239943924490442"><ele>592.0</ele><time>2026-04-29T12:34:05Z</time></trkpt><trkpt lat="43.85082330835729" lon="11.240193101892146"><ele>594.0</ele><time>2026-04-29T12:34:06Z</time></trkpt><trkpt lat="43.850795890266596" lon="11.240454577958388"><ele>596.0</ele><time>2026-04-29T12:34:07Z</time></trkpt><trkpt lat="43.85081045494893" lon="11.240715781055659"><ele>598.0</ele><time>2026-04-29T12:34:08Z</time></trkpt><trkpt lat="43.85084153613877" lon="11.240985428885509"><ele>599.0</ele><time>2026-04-29T12:34:09Z</time></trkpt><trkpt lat="43.850860493540154" lon="11.241248854539284"><ele>600.0</ele><time>2026-04-29T12:34:10Z</time></trkpt><trkpt lat="43.850859047225" lon="11.241526586491835"><ele>601.0</ele><time>2026-04-29T12:34:11Z</time></trkpt><trkpt lat="43.85083339517484" lon="11.241798863606684"><ele>602.0</ele><time>2026-04-29T12:34:12Z</time></trkpt><trkpt lat="43.85080204028931" lon="11.242078864471063"><ele>603.0</ele><time>2026-04-29T12:34:13Z</time></trkpt><trkpt lat="43.850770056560236" lon="11.242358502147729"><ele>604.0</ele><time>2026-04-29T12:34:14Z</time></trkpt><trkpt lat="43.850737564194375" lon="11.2426398599385"><ele>606.6666666666667</ele><time>2026-04-29T12:34:15Z</time></trkpt><trkpt lat="43.8507047087999" lon="11.242923061723303"><ele>609.3333333333334</ele><time>2026-04-29T12:34:16Z</time></trkpt><trkpt lat="43.85067034160896" lon="11.243207172395248"><ele>612.0</ele><time>2026-04-29T12:34:17Z</time></trkpt><trkpt lat="43.85063406330343" lon="11.243483741155975"><ele>613.3333333333334</ele><time>2026-04-29T12:34:18Z</time></trkpt><trkpt lat="43.850594459758135" lon="11.2437562491867"><ele>614.6666666666667</ele><time>2026-04-29T12:34:19Z</time></trkpt><trkpt lat="43.850544697643855" lon="11.244009770878826"><ele>616.0</ele><time>2026-04-29T12:34:20Z</time></trkpt><trkpt lat="43.850486813719094" lon="11.24423829928662"><ele>617.3333333333334</ele><time>2026-04-29T12:34:21Z</time></trkpt><trkpt lat="43.85044456629852" lon="11.244458409177096"><ele>618.6666666666666</ele><time>2026-04-29T12:34:22Z</time></trkpt><trkpt lat="43.85042793330594" lon="11.244671552349697"><ele>620.0</ele><time>2026-04-29T12:34:23Z</time></trkpt><trkpt lat="43.85043012751319" lon="11.244879432559346"><ele>621.75</ele><time>2026-04-29T12:34:24Z</time></trkpt><trkpt lat="43.850408542527454" lon="11.245066066253667"><ele>623.5</ele><time>2026-04-29T12:34:25Z</time></trkpt><trkpt lat="43.85035795747657" lon="11.245249353868507"><ele>625.25</ele><time>2026-04-29T12:34:26Z</time></trkpt><trkpt lat="43.85029503748615" lon="11.245427301508153"><ele>627.0</ele><time>2026-04-29T12:34:27Z</time></trkpt><trkpt lat="43.85021740700407" lon="11.245607047631092"><ele>630.0</ele><time>2026-04-29T12:34:28Z</time></trkpt><trkpt lat="43.8501294340257" lon="11.245799851122635"><ele>633.0</ele><time>2026-04-29T12:34:29Z</time></trkpt><trkpt lat="43.850039398412946" lon="11.246004274480445"><ele>636.0</ele><time>2026-04-29T12:34:30Z</time></trkpt><trkpt lat="43.84992637575314" lon="11.246192143423837"><ele>632.0</ele><time>2026-04-29T12:34:31Z</time></trkpt><trkpt lat="43.84978436751561" lon="11.246361972283752"><ele>628.0</ele><time>2026-04-29T12:34:32Z</time></trkpt><trkpt lat="43.84964622636805" lon="11.24651621434562"><ele>624.0</ele><time>2026-04-29T12:34:33Z</time></trkpt><trkpt lat="43.84952929562178" lon="11.246665213161828"><ele>624.0</ele><time>2026-04-29T12:34:34Z</time></trkpt><trkpt lat="43.8494111190854" lon="11.246800632941623"><ele>624.0</ele><time>2026-04-29T12:34:35Z</time></trkpt><trkpt lat="43.849270918393415" lon="11.246894251285262"><ele>624.0</ele><time>2026-04-29T12:34:36Z</time></trkpt><trkpt lat="43.849085894563565" lon="11.246936840827058"><ele>618.3333333333334</ele><time>2026-04-29T12:34:37Z</time></trkpt><trkpt lat="43.84887819827755" lon="11.246917285327818"><ele>612.6666666666667</ele><time>2026-04-29T12:34:38Z</time></trkpt><trkpt lat="43.84866745874956" lon="11.246853362582534"><ele>607.0</ele><time>2026-04-29T12:34:39Z</time></trkpt><trkpt lat="43.848457659503055" lon="11.246776828604167"><ele>605.6666666666667</ele><time>2026-04-29T12:34:40Z</time></trkpt><trkpt lat="43.84826961024828" lon="11.24674171717832"><ele>604.3333333333334</ele><time>2026-04-29T12:34:41Z</time></trkpt><trkpt lat="43.848098192749816" lon="11.24677811644602"><ele>603.0</ele><time>2026-04-29T12:34:42Z</time></trkpt><trkpt lat="43.847938246449196" lon="11.246886394592623"><ele>603.0</ele><time>2026-04-29T12:34:43Z</time></trkpt><trkpt lat="43.84777479628329" lon="11.247029191016308"><ele>603.0</ele><time>2026-04-29T12:34:44Z</time></trkpt><trkpt lat="43.84759444539337" lon="11.247104750429653"><ele>603.0</ele><time>2026-04-29T12:34:45Z</time></trkpt><trkpt lat="43.84742628486971" lon="11.247095576286693"><ele>601.6666666666666</ele><time>2026-04-29T12:34:46Z</time></trkpt><trkpt lat="43.84723948955945" lon="11.247016257922022"><ele>600.3333333333333</ele><time>2026-04-29T12:34:47Z</time></trkpt><trkpt lat="43.84704939516352" lon="11.246884373750518"><ele>599.0</ele><time>2026-04-29T12:34:48Z</time></trkpt><trkpt lat="43.84684666421048" lon="11.246729077056298"><ele>604.5</ele><time>2026-04-29T12:34:49Z</time></trkpt><trkpt lat="43.84664686005482" lon="11.246576662579457"><ele>610.0</ele><time>2026-04-29T12:34:50Z</time></trkpt><trkpt lat="43.84645131058202" lon="11.246400611382633"><ele>603.3333333333334</ele><time>2026-04-29T12:34:51Z</time></trkpt><trkpt lat="43.84628197640044" lon="11.24619385243518"><ele>596.6666666666666</ele><time>2026-04-29T12:34:52Z</time></trkpt><trkpt lat="43.8461127870034" lon="11.24604535683522"><ele>590.0</ele><time>2026-04-29T12:34:53Z</time></trkpt><trkpt lat="43.84592036755513" lon="11.245971760028555"><ele>590.0</ele><time>2026-04-29T12:34:54Z</time></trkpt><trkpt lat="43.84571049204402" lon="11.245965964227839"><ele>590.0</ele><time>2026-04-29T12:34:55Z</time></trkpt><trkpt lat="43.84549238846931" lon="11.246025579783211"><ele>590.0</ele><time>2026-04-29T12:34:56Z</time></trkpt><trkpt lat="43.84526066862961" lon="11.246132378147351"><ele>591.0</ele><time>2026-04-29T12:34:57Z</time></trkpt><trkpt lat="43.845018286502814" lon="11.246237141903048"><ele>592.0</ele><time>2026-04-29T12:34:58Z</time></trkpt><trkpt lat="43.84476290871634" lon="11.246288273110443"><ele>592.0</ele><time>2026-04-29T12:34:59Z</time></trkpt><trkpt lat="43.84450785815678" lon="11.246277849758762"><ele>592.0</ele><time>2026-04-29T12:35:00Z</time></trkpt><trkpt lat="43.84426312276576" lon="11.24624678972762"><ele>590.3333333333334</ele><time>2026-04-29T12:35:01Z</time></trkpt><trkpt lat="43.84403920398585" lon="11.246223883977715"><ele>588.6666666666666</ele><time>2026-04-29T12:35:02Z</time></trkpt><trkpt lat="43.84382684972302" lon="11.246214896481316"><ele>587.0</ele><time>2026-04-29T12:35:03Z</time></trkpt><trkpt lat="43.843630154925535" lon="11.246211550199327"><ele>586.0</ele><time>2026-04-29T12:35:04Z</time></trkpt><trkpt lat="43.843453698376955" lon="11.246198717259055"><ele>585.0</ele><time>2026-04-29T12:35:05Z</time></trkpt><trkpt lat="43.84329303731484" lon="11.246183614749139"><ele>584.0</ele><time>2026-04-29T12:35:06Z</time></trkpt><trkpt lat="43.84315494103524" lon="11.24617369817382"><ele>584.0</ele><time>2026-04-29T12:35:07Z</time></trkpt><trkpt lat="43.84302285238043" lon="11.246204427524992"><ele>584.0</ele><time>2026-04-29T12:35:08Z</time></trkpt><trkpt lat="43.842892634182896" lon="11.24627984680494"><ele>584.0</ele><time>2026-04-29T12:35:09Z</time></trkpt><trkpt lat="43.842757372128915" lon="11.246396664011517"><ele>584.0</ele><time>2026-04-29T12:35:10Z</time></trkpt><trkpt lat="43.84263736105657" lon="11.246558011298596"><ele>586.0</ele><time>2026-04-29T12:35:11Z</time></trkpt><trkpt lat="43.842542432804166" lon="11.246756098944104"><ele>588.0</ele><time>2026-04-29T12:35:12Z</time></trkpt><trkpt lat="43.842476944267744" lon="11.246970041650055"><ele>590.0</ele><time>2026-04-29T12:35:13Z</time></trkpt><trkpt lat="43.84244525091627" lon="11.247175752857883"><ele>593.0</ele><time>2026-04-29T12:35:14Z</time></trkpt><trkpt lat="43.84244385555551" lon="11.247379617915815"><ele>596.0</ele><time>2026-04-29T12:35:15Z</time></trkpt><trkpt lat="43.842481184975014" lon="11.247594368304092"><ele>599.0</ele><time>2026-04-29T12:35:16Z</time></trkpt><trkpt lat="43.842539528296506" lon="11.2478143489375"><ele>599.0</ele><time>2026-04-29T12:35:17Z</time></trkpt><trkpt lat="43.842595922347726" lon="11.248005821582813"><ele>599.0</ele><time>2026-04-29T12:35:18Z</time></trkpt><trkpt lat="43.842656025001105" lon="11.248187255992454"><ele>599.0</ele><time>2026-04-29T12:35:19Z</time></trkpt><trkpt lat="43.84273648238313" lon="11.248377609044368"><ele>602.6666666666666</ele><time>2026-04-29T12:35:20Z</time></trkpt><trkpt lat="43.84283180146838" lon="11.24857787976986"><ele>606.3333333333334</ele><time>2026-04-29T12:35:21Z</time></trkpt><trkpt lat="43.84293938981116" lon="11.248785843053804"><ele>610.0</ele><time>2026-04-29T12:35:22Z</time></trkpt><trkpt lat="43.84306372617132" lon="11.248984509065389"><ele>610.0</ele><time>2026-04-29T12:35:23Z</time></trkpt><trkpt lat="43.843185726970106" lon="11.249180609139808"><ele>610.0</ele><time>2026-04-29T12:35:24Z</time></trkpt><trkpt lat="43.843303857283274" lon="11.249364262403018"><ele>610.0</ele><time>2026-04-29T12:35:25Z</time></trkpt><trkpt lat="43.84342319125825" lon="11.249523010038486"><ele>611.0</ele><time>2026-04-29T12:35:26Z</time></trkpt><trkpt lat="43.84354943988541" lon="11.249688922705678"><ele>612.0</ele><time>2026-04-29T12:35:27Z</time></trkpt><trkpt lat="43.84368485573547" lon="11.24985416257156"><ele>613.0</ele><time>2026-04-29T12:35:28Z</time></trkpt><trkpt lat="43.84381929267234" lon="11.250011234603008"><ele>613.0</ele><time>2026-04-29T12:35:29Z</time></trkpt><trkpt lat="43.843954343282725" lon="11.250132182723036"><ele>613.0</ele><time>2026-04-29T12:35:30Z</time></trkpt><trkpt lat="43.844072502731926" lon="11.250251058675763"><ele>613.0</ele><time>2026-04-29T12:35:31Z</time></trkpt><trkpt lat="43.844191212917416" lon="11.250358946375204"><ele>613.0</ele><time>2026-04-29T12:35:32Z</time></trkpt><trkpt lat="43.844304549824905" lon="11.250443222369473"><ele>614.25</ele><time>2026-04-29T12:35:33Z</time></trkpt><trkpt lat="43.84442468738184" lon="11.250496262018348"><ele>615.5</ele><time>2026-04-29T12:35:34Z</time></trkpt><trkpt lat="43.84454257190364" lon="11.250494191801307"><ele>616.75</ele><time>2026-04-29T12:35:35Z</time></trkpt><trkpt lat="43.844660271507685" lon="11.250447664890217"><ele>618.0</ele><time>2026-04-29T12:35:36Z</time></trkpt><trkpt lat="43.844776810144104" lon="11.250366838682162"><ele>618.0</ele><time>2026-04-29T12:35:37Z</time></trkpt><trkpt lat="43.844868661742964" lon="11.250246798305131"><ele>618.0</ele><time>2026-04-29T12:35:38Z</time></trkpt><trkpt lat="43.84495804065131" lon="11.250156818425573"><ele>618.0</ele><time>2026-04-29T12:35:39Z</time></trkpt><trkpt lat="43.84507145755031" lon="11.250111795471092"><ele>618.0</ele><time>2026-04-29T12:35:40Z</time></trkpt><trkpt lat="43.84522509805999" lon="11.250083442486149"><ele>618.5</ele><time>2026-04-29T12:35:41Z</time></trkpt><trkpt lat="43.84537566800737" lon="11.25010976747007"><ele>619.0</ele><time>2026-04-29T12:35:42Z</time></trkpt><trkpt lat="43.845529202215005" lon="11.250141583872242"><ele>619.5</ele><time>2026-04-29T12:35:43Z</time></trkpt><trkpt lat="43.84566256159907" lon="11.250187829635584"><ele>620.0</ele><time>2026-04-29T12:35:44Z</time></trkpt><trkpt lat="43.84579900419207" lon="11.250284208262697"><ele>620.0</ele><time>2026-04-29T12:35:45Z</time></trkpt><trkpt lat="43.84594586864366" lon="11.250406211189798"><ele>620.0</ele><time>2026-04-29T12:35:46Z</time></trkpt><trkpt lat="43.84605676128477" lon="11.250543539891533"><ele>620.0</ele><time>2026-04-29T12:35:47Z</time></trkpt><trkpt lat="43.846145823005294" lon="11.250703047824812"><ele>618.3333333333333</ele><time>2026-04-29T12:35:48Z</time></trkpt><trkpt lat="43.84623845633474" lon="11.250909728458149"><ele>616.6666666666666</ele><time>2026-04-29T12:35:49Z</time></trkpt><trkpt lat="43.84636692590914" lon="11.251106962991603"><ele>615.0</ele><time>2026-04-29T12:35:50Z</time></trkpt><trkpt lat="43.846501268388955" lon="11.251261414561675"><ele>615.0</ele><time>2026-04-29T12:35:51Z</time></trkpt><trkpt lat="43.846606364668595" lon="11.251407423146446"><ele>615.0</ele><time>2026-04-29T12:35:52Z</time></trkpt><trkpt lat="43.84668401853676" lon="11.251560094698867"><ele>615.0</ele><time>2026-04-29T12:35:53Z</time></trkpt><trkpt lat="43.846694258016385" lon="11.251715968229172"><ele>615.0</ele><time>2026-04-29T12:35:54Z</time></trkpt><trkpt lat="43.8467102025593" lon="11.251908294405442"><ele>614.0</ele><time>2026-04-29T12:35:55Z</time></trkpt><trkpt lat="43.84675208077683" lon="11.25211869757388"><ele>613.0</ele><time>2026-04-29T12:35:56Z</time></trkpt><trkpt lat="43.84683323384884" lon="11.252320798835289"><ele>612.0</ele><time>2026-04-29T12:35:57Z</time></trkpt><trkpt lat="43.84692756192015" lon="11.252511895944394"><ele>612.0</ele><time>2026-04-29T12:35:58Z</time></trkpt><trkpt lat="43.847048800495095" lon="11.252681370414539"><ele>612.0</ele><time>2026-04-29T12:35:59Z</time></trkpt><trkpt lat="43.847169944730574" lon="11.252835217564849"><ele>612.0</ele><time>2026-04-29T12:36:00Z</time></trkpt><trkpt lat="43.847287731575484" lon="11.252973412102095"><ele>612.0</ele><time>2026-04-29T12:36:01Z</time></trkpt><trkpt lat="43.847385465280766" lon="11.25309960622556"><ele>612.0</ele><time>2026-04-29T12:36:02Z</time></trkpt><trkpt lat="43.84747770571068" lon="11.253228657257482"><ele>612.0</ele><time>2026-04-29T12:36:03Z</time></trkpt><trkpt lat="43.84756433554133" lon="11.25334806819655"><ele>612.0</ele><time>2026-04-29T12:36:04Z</time></trkpt><trkpt lat="43.84766679368122" lon="11.253441302975633"><ele>610.5</ele><time>2026-04-29T12:36:05Z</time></trkpt><trkpt lat="43.84779035515782" lon="11.253512254589191"><ele>609.0</ele><time>2026-04-29T12:36:06Z</time></trkpt><trkpt lat="43.847927427571804" lon="11.253557702227036"><ele>607.5</ele><time>2026-04-29T12:36:07Z</time></trkpt><trkpt lat="43.848075674768" lon="11.253573209340452"><ele>606.0</ele><time>2026-04-29T12:36:08Z</time></trkpt><trkpt lat="43.84823125582653" lon="11.253594700587914"><ele>606.0</ele><time>2026-04-29T12:36:09Z</time></trkpt><trkpt lat="43.84840088370856" lon="11.253597264498767"><ele>606.0</ele><time>2026-04-29T12:36:10Z</time></trkpt><trkpt lat="43.848563806686485" lon="11.253604037241765"><ele>606.0</ele><time>2026-04-29T12:36:11Z</time></trkpt><trkpt lat="43.848710629747956" lon="11.253613074342267"><ele>607.0</ele><time>2026-04-29T12:36:12Z</time></trkpt><trkpt lat="43.848854766646156" lon="11.253627490507936"><ele>608.0</ele><time>2026-04-29T12:36:13Z</time></trkpt><trkpt lat="43.84898703150626" lon="11.25364226335009"><ele>609.0</ele><time>2026-04-29T12:36:14Z</time></trkpt><trkpt lat="43.84911000655491" lon="11.253635899977715"><ele>610.0</ele><time>2026-04-29T12:36:15Z</time></trkpt><trkpt lat="43.84923305935465" lon="11.253611961621118"><ele>609.5</ele><time>2026-04-29T12:36:16Z</time></trkpt><trkpt lat="43.84936558197586" lon="11.253555794652979"><ele>609.0</ele><time>2026-04-29T12:36:17Z</time></trkpt><trkpt lat="43.849508566954476" lon="11.25350266151307"><ele>608.5</ele><time>2026-04-29T12:36:18Z</time></trkpt><trkpt lat="43.84965119508098" lon="11.253498758056981"><ele>608.0</ele><time>2026-04-29T12:36:19Z</time></trkpt><trkpt lat="43.849781270208126" lon="11.25349742443861"><ele>608.0</ele><time>2026-04-29T12:36:20Z</time></trkpt><trkpt lat="43.849913467641905" lon="11.253510351038463"><ele>608.0</ele><time>2026-04-29T12:36:21Z</time></trkpt><trkpt lat="43.850035623522594" lon="11.253529553990555"><ele>608.0</ele><time>2026-04-29T12:36:22Z</time></trkpt><trkpt lat="43.85016481158715" lon="11.253559648019793"><ele>608.0</ele><time>2026-04-29T12:36:23Z</time></trkpt><trkpt lat="43.850302784201105" lon="11.253608192596092"><ele>607.3333333333333</ele><time>2026-04-29T12:36:24Z</time></trkpt><trkpt lat="43.85042247714636" lon="11.253713877973906"><ele>606.6666666666666</ele><time>2026-04-29T12:36:25Z</time></trkpt><trkpt lat="43.8505604922066" lon="11.253827670076113"><ele>606.0</ele><time>2026-04-29T12:36:26Z</time></trkpt><trkpt lat="43.85070337469561" lon="11.253947412797578"><ele>599.6666666666666</ele><time>2026-04-29T12:36:27Z</time></trkpt><trkpt lat="43.850854820835224" lon="11.25406946869557"><ele>593.3333333333333</ele><time>2026-04-29T12:36:28Z</time></trkpt><trkpt lat="43.851020976408705" lon="11.254150709009952"><ele>587.0</ele><time>2026-04-29T12:36:29Z</time></trkpt><trkpt lat="43.851190230769674" lon="11.25424054277379"><ele>587.0</ele><time>2026-04-29T12:36:30Z</time></trkpt><trkpt lat="43.851359004644834" lon="11.254315482352792"><ele>587.0</ele><time>2026-04-29T12:36:31Z</time></trkpt><trkpt lat="43.85151449786865" lon="11.254391352494103"><ele>587.0</ele><time>2026-04-29T12:36:32Z</time></trkpt><trkpt lat="43.851648477757834" lon="11.25450135612477"><ele>587.0</ele><time>2026-04-29T12:36:33Z</time></trkpt><trkpt lat="43.85179301289432" lon="11.254615532764117"><ele>587.0</ele><time>2026-04-29T12:36:34Z</time></trkpt><trkpt lat="43.851943436894764" lon="11.254738880676554"><ele>587.0</ele><time>2026-04-29T12:36:35Z</time></trkpt><trkpt lat="43.85210429032301" lon="11.254872072944266"><ele>587.0</ele><time>2026-04-29T12:36:36Z</time></trkpt><trkpt lat="43.852282896700714" lon="11.254993829683807"><ele>587.0</ele><time>2026-04-29T12:36:37Z</time></trkpt><trkpt lat="43.85245947784122" lon="11.25513715715799"><ele>587.0</ele><time>2026-04-29T12:36:38Z</time></trkpt><trkpt lat="43.85264379428538" lon="11.255267452787319"><ele>586.3333333333333</ele><time>2026-04-29T12:36:39Z</time></trkpt><trkpt lat="43.85281885428634" lon="11.255424284900718"><ele>585.6666666666666</ele><time>2026-04-29T12:36:40Z</time></trkpt><trkpt lat="43.85298798288586" lon="11.25555259127782"><ele>585.0</ele><time>2026-04-29T12:36:41Z</time></trkpt><trkpt lat="43.85314806610542" lon="11.255681880976171"><ele>585.0</ele><time>2026-04-29T12:36:42Z</time></trkpt><trkpt lat="43.85330832733911" lon="11.255794521836805"><ele>585.0</ele><time>2026-04-29T12:36:43Z</time></trkpt><trkpt lat="43.85345676176341" lon="11.255912312513038"><ele>585.0</ele><time>2026-04-29T12:36:44Z</time></trkpt><trkpt lat="43.853587482823016" lon="11.256061144980102"><ele>590.75</ele><time>2026-04-29T12:36:45Z</time></trkpt><trkpt lat="43.85371020219465" lon="11.25619470503116"><ele>596.5</ele><time>2026-04-29T12:36:46Z</time></trkpt><trkpt lat="43.8538208831621" lon="11.256295813832208"><ele>602.25</ele><time>2026-04-29T12:36:47Z</time></trkpt><trkpt lat="43.85390491370758" lon="11.25638108872884"><ele>608.0</ele><time>2026-04-29T12:36:48Z</time></trkpt><trkpt lat="43.85400393074682" lon="11.256427171082638"><ele>608.0</ele><time>2026-04-29T12:36:49Z</time></trkpt><trkpt lat="43.854137143326376" lon="11.256412645834395"><ele>608.0</ele><time>2026-04-29T12:36:50Z</time></trkpt><trkpt lat="43.8542925913075" lon="11.256357089123094"><ele>608.0</ele><time>2026-04-29T12:36:51Z</time></trkpt><trkpt lat="43.85441862779838" lon="11.256390706311421"><ele>608.0</ele><time>2026-04-29T12:36:52Z</time></trkpt><trkpt lat="43.854524078213764" lon="11.256507317887033"><ele>602.6666666666666</ele><time>2026-04-29T12:36:53Z</time></trkpt><trkpt lat="43.854651388967014" lon="11.256658593329652"><ele>597.3333333333334</ele><time>2026-04-29T12:36:54Z</time></trkpt><trkpt lat="43.85478186071353" lon="11.256833578931678"><ele>592.0</ele><time>2026-04-29T12:36:55Z</time></trkpt><trkpt lat="43.85492052995054" lon="11.25696325090114"><ele>592.0</ele><time>2026-04-29T12:36:56Z</time></trkpt><trkpt lat="43.855020571855775" lon="11.257102466734217"><ele>592.0</ele><time>2026-04-29T12:36:57Z</time></trkpt><trkpt lat="43.85511367609095" lon="11.257236036715865"><ele>592.0</ele><time>2026-04-29T12:36:58Z</time></trkpt><trkpt lat="43.85517129342891" lon="11.257394296965659"><ele>592.0</ele><time>2026-04-29T12:36:59Z</time></trkpt><trkpt lat="43.8552093331766" lon="11.25756728926817"><ele>594.5</ele><time>2026-04-29T12:37:00Z</time></trkpt><trkpt lat="43.85521589554954" lon="11.25777542751537"><ele>597.0</ele><time>2026-04-29T12:37:01Z</time></trkpt><trkpt lat="43.85522892969285" lon="11.257968294387737"><ele>599.5</ele><time>2026-04-29T12:37:02Z</time></trkpt><trkpt lat="43.85525653274315" lon="11.25812286504727"><ele>602.0</ele><time>2026-04-29T12:37:03Z</time></trkpt><trkpt lat="43.85534749471274" lon="11.258254599036503"><ele>602.0</ele><time>2026-04-29T12:37:04Z</time></trkpt><trkpt lat="43.855477008757" lon="11.258392789287873"><ele>602.0</ele><time>2026-04-29T12:37:05Z</time></trkpt><trkpt lat="43.85556674933025" lon="11.258567568744127"><ele>602.0</ele><time>2026-04-29T12:37:06Z</time></trkpt><trkpt lat="43.855623399839835" lon="11.258768312912744"><ele>602.0</ele><time>2026-04-29T12:37:07Z</time></trkpt><trkpt lat="43.85568135303976" lon="11.258946198043015"><ele>602.0</ele><time>2026-04-29T12:37:08Z</time></trkpt><trkpt lat="43.85575628634939" lon="11.259116361350317"><ele>602.0</ele><time>2026-04-29T12:37:09Z</time></trkpt><trkpt lat="43.85585316252695" lon="11.259308974384837"><ele>605.0</ele><time>2026-04-29T12:37:10Z</time></trkpt><trkpt lat="43.855904654689574" lon="11.259558248482461"><ele>608.0</ele><time>2026-04-29T12:37:11Z</time></trkpt><trkpt lat="43.855938186134054" lon="11.259810912752336"><ele>611.0</ele><time>2026-04-29T12:37:12Z</time></trkpt><trkpt lat="43.855977469051666" lon="11.260046262238042"><ele>611.0</ele><time>2026-04-29T12:37:13Z</time></trkpt><trkpt lat="43.85601914915967" lon="11.260238959387"><ele>611.0</ele><time>2026-04-29T12:37:14Z</time></trkpt><trkpt lat="43.85606507833211" lon="11.260406730149127"><ele>611.0</ele><time>2026-04-29T12:37:15Z</time></trkpt><trkpt lat="43.856160862339514" lon="11.260572558090745"><ele>611.0</ele><time>2026-04-29T12:37:16Z</time></trkpt><trkpt lat="43.856268333472855" lon="11.26072740940806"><ele>604.6666666666666</ele><time>2026-04-29T12:37:17Z</time></trkpt><trkpt lat="43.85641241250684" lon="11.260881038670911"><ele>598.3333333333334</ele><time>2026-04-29T12:37:18Z</time></trkpt><trkpt lat="43.85655522698281" lon="11.261038862724995"><ele>592.0</ele><time>2026-04-29T12:37:19Z</time></trkpt><trkpt lat="43.85669755541973" lon="11.261203442816864"><ele>594.0</ele><time>2026-04-29T12:37:20Z</time></trkpt><trkpt lat="43.85680349149911" lon="11.26140891642847"><ele>596.0</ele><time>2026-04-29T12:37:21Z</time></trkpt><trkpt lat="43.85692815134525" lon="11.261597425027311"><ele>598.0</ele><time>2026-04-29T12:37:22Z</time></trkpt><trkpt lat="43.857032573675355" lon="11.261784938442867"><ele>598.0</ele><time>2026-04-29T12:37:23Z</time></trkpt><trkpt lat="43.85711747409109" lon="11.26197407211422"><ele>598.0</ele><time>2026-04-29T12:37:24Z</time></trkpt><trkpt lat="43.85719442327019" lon="11.26215176061333"><ele>598.0</ele><time>2026-04-29T12:37:25Z</time></trkpt><trkpt lat="43.85721036690052" lon="11.262341071615758"><ele>598.0</ele><time>2026-04-29T12:37:26Z</time></trkpt><trkpt lat="43.857248387688564" lon="11.262508418336468"><ele>593.25</ele><time>2026-04-29T12:37:27Z</time></trkpt><trkpt lat="43.85728741258265" lon="11.262653294771068"><ele>588.5</ele><time>2026-04-29T12:37:28Z</time></trkpt><trkpt lat="43.85737837654201" lon="11.262772345682926"><ele>583.75</ele><time>2026-04-29T12:37:29Z</time></trkpt><trkpt lat="43.8575004651401" lon="11.262876491794565"><ele>579.0</ele><time>2026-04-29T12:37:30Z</time></trkpt><trkpt lat="43.8576204991702" lon="11.262942629704293"><ele>579.0</ele><time>2026-04-29T12:37:31Z</time></trkpt><trkpt lat="43.857758280222896" lon="11.262968245781899"><ele>579.0</ele><time>2026-04-29T12:37:32Z</time></trkpt><trkpt lat="43.85790462873702" lon="11.262955844318649"><ele>579.0</ele><time>2026-04-29T12:37:33Z</time></trkpt><trkpt lat="43.85803877410266" lon="11.262899788785553"><ele>579.0</ele><time>2026-04-29T12:37:34Z</time></trkpt><trkpt lat="43.85817493470892" lon="11.262796763740015"><ele>579.0</ele><time>2026-04-29T12:37:35Z</time></trkpt><trkpt lat="43.8583054141625" lon="11.262721714883682"><ele>579.0</ele><time>2026-04-29T12:37:36Z</time></trkpt><trkpt lat="43.85842289002015" lon="11.262654222287372"><ele>579.0</ele><time>2026-04-29T12:37:37Z</time></trkpt><trkpt lat="43.858533488068424" lon="11.262613554882153"><ele>579.0</ele><time>2026-04-29T12:37:38Z</time></trkpt><trkpt lat="43.85863008229" lon="11.262575510365318"><ele>575.8</ele><time>2026-04-29T12:37:39Z</time></trkpt><trkpt lat="43.85872463251393" lon="11.262628294114005"><ele>572.5999999999999</ele><time>2026-04-29T12:37:40Z</time></trkpt><trkpt lat="43.85880340220381" lon="11.262735814183815"><ele>569.4</ele><time>2026-04-29T12:37:41Z</time></trkpt><trkpt lat="43.85884843657886" lon="11.262883871493655"><ele>566.1999999999999</ele><time>2026-04-29T12:37:42Z</time></trkpt><trkpt lat="43.858824107995936" lon="11.263039875217201"><ele>563.0</ele><time>2026-04-29T12:37:43Z</time></trkpt><trkpt lat="43.858796567497535" lon="11.26319919731164"><ele>563.0</ele><time>2026-04-29T12:37:44Z</time></trkpt><trkpt lat="43.858731531274344" lon="11.263370542352346"><ele>563.0</ele><time>2026-04-29T12:37:45Z</time></trkpt><trkpt lat="43.85871656667976" lon="11.263580191325204"><ele>563.0</ele><time>2026-04-29T12:37:46Z</time></trkpt><trkpt lat="43.85875414976476" lon="11.263814563021198"><ele>564.6666666666666</ele><time>2026-04-29T12:37:47Z</time></trkpt><trkpt lat="43.858831153618155" lon="11.264070621327177"><ele>566.3333333333334</ele><time>2026-04-29T12:37:48Z</time></trkpt><trkpt lat="43.8589135236439" lon="11.26434201299972"><ele>568.0</ele><time>2026-04-29T12:37:49Z</time></trkpt><trkpt lat="43.85897500196624" lon="11.264593704333048"><ele>565.6666666666667</ele><time>2026-04-29T12:37:50Z</time></trkpt><trkpt lat="43.85905531442827" lon="11.264826173012645"><ele>563.3333333333334</ele><time>2026-04-29T12:37:51Z</time></trkpt><trkpt lat="43.85917347215583" lon="11.265059195494853"><ele>561.0</ele><time>2026-04-29T12:37:52Z</time></trkpt><trkpt lat="43.85932979892114" lon="11.265290947293042"><ele>566.0</ele><time>2026-04-29T12:37:53Z</time></trkpt><trkpt lat="43.8594861163157" lon="11.265525993698192"><ele>571.0</ele><time>2026-04-29T12:37:54Z</time></trkpt><trkpt lat="43.85963269248167" lon="11.26575959586319"><ele>571.0</ele><time>2026-04-29T12:37:55Z</time></trkpt><trkpt lat="43.859763964567456" lon="11.265985479470954"><ele>571.0</ele><time>2026-04-29T12:37:56Z</time></trkpt><trkpt lat="43.8598764053393" lon="11.26618121047377"><ele>571.0</ele><time>2026-04-29T12:37:57Z</time></trkpt><trkpt lat="43.8599717768141" lon="11.266395569132552"><ele>567.6666666666667</ele><time>2026-04-29T12:37:58Z</time></trkpt><trkpt lat="43.8599956502089" lon="11.266617877321993"><ele>564.3333333333334</ele><time>2026-04-29T12:37:59Z</time></trkpt><trkpt lat="43.85998042996473" lon="11.266833515850571"><ele>561.0</ele><time>2026-04-29T12:38:00Z</time></trkpt><trkpt lat="43.85996028404689" lon="11.267105523454552"><ele>562.0</ele><time>2026-04-29T12:38:01Z</time></trkpt><trkpt lat="43.85992849892279" lon="11.267369065213622"><ele>563.0</ele><time>2026-04-29T12:38:02Z</time></trkpt><trkpt lat="43.85988134556781" lon="11.2675695997302"><ele>564.0</ele><time>2026-04-29T12:38:03Z</time></trkpt><trkpt lat="43.85982422235192" lon="11.26774573458291"><ele>564.0</ele><time>2026-04-29T12:38:04Z</time></trkpt><trkpt lat="43.85978487694835" lon="11.26790015673916"><ele>564.0</ele><time>2026-04-29T12:38:05Z</time></trkpt><trkpt lat="43.85975825835588" lon="11.268030474652004"><ele>564.0</ele><time>2026-04-29T12:38:06Z</time></trkpt><trkpt lat="43.859817570398896" lon="11.268172505675501"><ele>564.0</ele><time>2026-04-29T12:38:07Z</time></trkpt><trkpt lat="43.8599267072439" lon="11.268326606772058"><ele>561.6666666666666</ele><time>2026-04-29T12:38:08Z</time></trkpt><trkpt lat="43.86004626140587" lon="11.268514023040792"><ele>559.3333333333333</ele><time>2026-04-29T12:38:09Z</time></trkpt><trkpt lat="43.8601427795696" lon="11.268708646136501"><ele>557.0</ele><time>2026-04-29T12:38:10Z</time></trkpt><trkpt lat="43.860229464412" lon="11.268942098919384"><ele>563.3333333333333</ele><time>2026-04-29T12:38:11Z</time></trkpt><trkpt lat="43.860295977894" lon="11.269177449610073"><ele>569.6666666666666</ele><time>2026-04-29T12:38:12Z</time></trkpt><trkpt lat="43.860351406795296" lon="11.269401256557952"><ele>576.0</ele><time>2026-04-29T12:38:13Z</time></trkpt><trkpt lat="43.860371311205185" lon="11.269605109678041"><ele>573.5</ele><time>2026-04-29T12:38:14Z</time></trkpt><trkpt lat="43.86033802666903" lon="11.269813281745519"><ele>571.0</ele><time>2026-04-29T12:38:15Z</time></trkpt><trkpt lat="43.86026146271973" lon="11.269977113936076"><ele>568.5</ele><time>2026-04-29T12:38:16Z</time></trkpt><trkpt lat="43.86015427754695" lon="11.270093636740784"><ele>566.0</ele><time>2026-04-29T12:38:17Z</time></trkpt><trkpt lat="43.86002008555104" lon="11.270183520495104"><ele>560.0</ele><time>2026-04-29T12:38:18Z</time></trkpt><trkpt lat="43.859853114320224" lon="11.27026547157231"><ele>554.0</ele><time>2026-04-29T12:38:19Z</time></trkpt><trkpt lat="43.859676973110865" lon="11.270318995656954"><ele>548.0</ele><time>2026-04-29T12:38:20Z</time></trkpt><trkpt lat="43.85952980595958" lon="11.270380596146166"><ele>548.0</ele><time>2026-04-29T12:38:21Z</time></trkpt><trkpt lat="43.8594012771667" lon="11.270456158410829"><ele>548.0</ele><time>2026-04-29T12:38:22Z</time></trkpt><trkpt lat="43.859296120038735" lon="11.27057345274008"><ele>548.0</ele><time>2026-04-29T12:38:23Z</time></trkpt><trkpt lat="43.85922805628785" lon="11.270738039844689"><ele>548.0</ele><time>2026-04-29T12:38:24Z</time></trkpt><trkpt lat="43.85920099104453" lon="11.270930194654827"><ele>549.6666666666666</ele><time>2026-04-29T12:38:25Z</time></trkpt><trkpt lat="43.859218249283686" lon="11.271127224831954"><ele>551.3333333333334</ele><time>2026-04-29T12:38:26Z</time></trkpt><trkpt lat="43.85928165212162" lon="11.271321825587309"><ele>553.0</ele><time>2026-04-29T12:38:27Z</time></trkpt><trkpt lat="43.859389685102734" lon="11.271503498758138"><ele>553.0</ele><time>2026-04-29T12:38:28Z</time></trkpt><trkpt lat="43.8595042941578" lon="11.271677808448851"><ele>553.0</ele><time>2026-04-29T12:38:29Z</time></trkpt><trkpt lat="43.85959102457247" lon="11.271836023998747"><ele>553.0</ele><time>2026-04-29T12:38:30Z</time></trkpt><trkpt lat="43.85963569111623" lon="11.272004380815973"><ele>553.0</ele><time>2026-04-29T12:38:31Z</time></trkpt><trkpt lat="43.859633818398144" lon="11.272190057777907"><ele>551.0</ele><time>2026-04-29T12:38:32Z</time></trkpt><trkpt lat="43.85960106678281" lon="11.272391246052134"><ele>549.0</ele><time>2026-04-29T12:38:33Z</time></trkpt><trkpt lat="43.859541897621476" lon="11.272578396171092"><ele>547.0</ele><time>2026-04-29T12:38:34Z</time></trkpt><trkpt lat="43.85941231494353" lon="11.272704766299617"><ele>541.3333333333334</ele><time>2026-04-29T12:38:35Z</time></trkpt><trkpt lat="43.85924920767504" lon="11.27277190731462"><ele>535.6666666666666</ele><time>2026-04-29T12:38:36Z</time></trkpt><trkpt lat="43.85907553715779" lon="11.272825564336934"><ele>530.0</ele><time>2026-04-29T12:38:37Z</time></trkpt><trkpt lat="43.858930017969094" lon="11.272932378877218"><ele>534.6666666666666</ele><time>2026-04-29T12:38:38Z</time></trkpt><trkpt lat="43.85878794862479" lon="11.27313652138309"><ele>539.3333333333334</ele><time>2026-04-29T12:38:39Z</time></trkpt><trkpt lat="43.85866272353038" lon="11.2733699909887"><ele>544.0</ele><time>2026-04-29T12:38:40Z</time></trkpt><trkpt lat="43.858543513707275" lon="11.27356396444193"><ele>540.75</ele><time>2026-04-29T12:38:41Z</time></trkpt><trkpt lat="43.85843154977311" lon="11.2737139064419"><ele>537.5</ele><time>2026-04-29T12:38:42Z</time></trkpt><trkpt lat="43.858343111534246" lon="11.273853715559362"><ele>534.25</ele><time>2026-04-29T12:38:43Z</time></trkpt><trkpt lat="43.858299113904216" lon="11.27402812141214"><ele>531.0</ele><time>2026-04-29T12:38:44Z</time></trkpt><trkpt lat="43.858303984409204" lon="11.274239819079497"><ele>531.0</ele><time>2026-04-29T12:38:45Z</time></trkpt><trkpt lat="43.85836272707737" lon="11.274453929132804"><ele>531.0</ele><time>2026-04-29T12:38:46Z</time></trkpt><trkpt lat="43.85845822826422" lon="11.274667030552614"><ele>531.0</ele><time>2026-04-29T12:38:47Z</time></trkpt><trkpt lat="43.858568191013596" lon="11.274911189327451"><ele>532.6666666666666</ele><time>2026-04-29T12:38:48Z</time></trkpt><trkpt lat="43.858671402436336" lon="11.275161980438659"><ele>534.3333333333333</ele><time>2026-04-29T12:38:49Z</time></trkpt><trkpt lat="43.858770060114296" lon="11.275414772015074"><ele>536.0</ele><time>2026-04-29T12:38:50Z</time></trkpt><trkpt lat="43.85887522031173" lon="11.275688096961495"><ele>536.0</ele><time>2026-04-29T12:38:51Z</time></trkpt><trkpt lat="43.858987534198064" lon="11.275965444450598"><ele>536.0</ele><time>2026-04-29T12:38:52Z</time></trkpt><trkpt lat="43.85908535522333" lon="11.276250263414573"><ele>535.3333333333333</ele><time>2026-04-29T12:38:53Z</time></trkpt><trkpt lat="43.859183534001815" lon="11.276515324626374"><ele>534.6666666666666</ele><time>2026-04-29T12:38:54Z</time></trkpt><trkpt lat="43.859286577185195" lon="11.27676475687911"><ele>534.0</ele><time>2026-04-29T12:38:55Z</time></trkpt><trkpt lat="43.85937119424532" lon="11.277022879058661"><ele>534.0</ele><time>2026-04-29T12:38:56Z</time></trkpt><trkpt lat="43.859463012559694" lon="11.27726598284024"><ele>534.0</ele><time>2026-04-29T12:38:57Z</time></trkpt><trkpt lat="43.85955910445295" lon="11.27751455789218"><ele>534.0</ele><time>2026-04-29T12:38:58Z</time></trkpt><trkpt lat="43.85966981688462" lon="11.27777034604713"><ele>530.6666666666666</ele><time>2026-04-29T12:38:59Z</time></trkpt><trkpt lat="43.859805050910616" lon="11.27799338553733"><ele>527.3333333333333</ele><time>2026-04-29T12:39:00Z</time></trkpt><trkpt lat="43.85994480041155" lon="11.278191942289274"><ele>524.0</ele><time>2026-04-29T12:39:01Z</time></trkpt><trkpt lat="43.860073417900196" lon="11.278385421485698"><ele>517.3333333333333</ele><time>2026-04-29T12:39:02Z</time></trkpt><trkpt lat="43.860184284813755" lon="11.278598128193067"><ele>510.66666666666663</ele><time>2026-04-29T12:39:03Z</time></trkpt><trkpt lat="43.860242064223534" lon="11.278845613437753"><ele>504.0</ele><time>2026-04-29T12:39:04Z</time></trkpt><trkpt lat="43.86027640178397" lon="11.2790958649037"><ele>504.0</ele><time>2026-04-29T12:39:05Z</time></trkpt><trkpt lat="43.860281766640576" lon="11.279364391134482"><ele>504.0</ele><time>2026-04-29T12:39:06Z</time></trkpt><trkpt lat="43.86025142238548" lon="11.279640557318485"><ele>504.0</ele><time>2026-04-29T12:39:07Z</time></trkpt><trkpt lat="43.86019362348118" lon="11.27993284574142"><ele>502.66666666666663</ele><time>2026-04-29T12:39:08Z</time></trkpt><trkpt lat="43.8601372564094" lon="11.280230391932303"><ele>501.3333333333333</ele><time>2026-04-29T12:39:09Z</time></trkpt><trkpt lat="43.8600411573986" lon="11.280507874061326"><ele>500.0</ele><time>2026-04-29T12:39:10Z</time></trkpt><trkpt lat="43.85996435268529" lon="11.280776249422068"><ele>499.3333333333333</ele><time>2026-04-29T12:39:11Z</time></trkpt><trkpt lat="43.85985138137106" lon="11.281017469999604"><ele>498.66666666666663</ele><time>2026-04-29T12:39:12Z</time></trkpt><trkpt lat="43.85972139649421" lon="11.281213046872903"><ele>498.0</ele><time>2026-04-29T12:39:13Z</time></trkpt><trkpt lat="43.85956366980128" lon="11.281358752188256"><ele>497.0</ele><time>2026-04-29T12:39:14Z</time></trkpt><trkpt lat="43.85938631883239" lon="11.281490708460806"><ele>496.0</ele><time>2026-04-29T12:39:15Z</time></trkpt><trkpt lat="43.85922280578814" lon="11.2816119501711"><ele>495.0</ele><time>2026-04-29T12:39:16Z</time></trkpt><trkpt lat="43.85906953448464" lon="11.281707183555392"><ele>495.0</ele><time>2026-04-29T12:39:17Z</time></trkpt><trkpt lat="43.858949640943486" lon="11.2818557062394"><ele>495.0</ele><time>2026-04-29T12:39:18Z</time></trkpt><trkpt lat="43.85885918267689" lon="11.282059041633634"><ele>495.0</ele><time>2026-04-29T12:39:19Z</time></trkpt><trkpt lat="43.85879600733774" lon="11.282337773074074"><ele>496.5</ele><time>2026-04-29T12:39:20Z</time></trkpt><trkpt lat="43.85874379232041" lon="11.282645375388393"><ele>498.0</ele><time>2026-04-29T12:39:21Z</time></trkpt><trkpt lat="43.85868155809197" lon="11.282947881160323"><ele>494.33333333333337</ele><time>2026-04-29T12:39:22Z</time></trkpt><trkpt lat="43.858620067715314" lon="11.283215272210954"><ele>490.6666666666667</ele><time>2026-04-29T12:39:23Z</time></trkpt><trkpt lat="43.85856131292809" lon="11.283441718109144"><ele>487.0</ele><time>2026-04-29T12:39:24Z</time></trkpt><trkpt lat="43.85850893845497" lon="11.283643164503479"><ele>488.75</ele><time>2026-04-29T12:39:25Z</time></trkpt><trkpt lat="43.85842366277173" lon="11.283805555869945"><ele>490.5</ele><time>2026-04-29T12:39:26Z</time></trkpt><trkpt lat="43.8583302329112" lon="11.283939184560323"><ele>492.25</ele><time>2026-04-29T12:39:27Z</time></trkpt><trkpt lat="43.858208462141995" lon="11.284021091007485"><ele>494.0</ele><time>2026-04-29T12:39:28Z</time></trkpt><trkpt lat="43.85805821380221" lon="11.284076861516436"><ele>494.0</ele><time>2026-04-29T12:39:29Z</time></trkpt><trkpt lat="43.85789256368744" lon="11.284014081934673"><ele>494.0</ele><time>2026-04-29T12:39:30Z</time></trkpt><trkpt lat="43.85770567627318" lon="11.283981262574148"><ele>494.0</ele><time>2026-04-29T12:39:31Z</time></trkpt><trkpt lat="43.85755831203015" lon="11.28392089959193"><ele>495.66666666666663</ele><time>2026-04-29T12:39:32Z</time></trkpt><trkpt lat="43.85739590993638" lon="11.283914297906522"><ele>497.33333333333337</ele><time>2026-04-29T12:39:33Z</time></trkpt><trkpt lat="43.857185530283296" lon="11.283943196502955"><ele>499.0</ele><time>2026-04-29T12:39:34Z</time></trkpt><trkpt lat="43.85697183172026" lon="11.28398470460792"><ele>499.0</ele><time>2026-04-29T12:39:35Z</time></trkpt><trkpt lat="43.85679875148314" lon="11.284058447396196"><ele>499.0</ele><time>2026-04-29T12:39:36Z</time></trkpt><trkpt lat="43.856646379078256" lon="11.28418716943053"><ele>499.0</ele><time>2026-04-29T12:39:37Z</time></trkpt><trkpt lat="43.85651509157648" lon="11.284388683481426"><ele>499.5</ele><time>2026-04-29T12:39:38Z</time></trkpt><trkpt lat="43.85639501099991" lon="11.284666956986642"><ele>500.0</ele><time>2026-04-29T12:39:39Z</time></trkpt><trkpt lat="43.85629483564357" lon="11.284958252423126"><ele>499.0</ele><time>2026-04-29T12:39:40Z</time></trkpt><trkpt lat="43.85619140014492" lon="11.285275244652393"><ele>498.0</ele><time>2026-04-29T12:39:41Z</time></trkpt><trkpt lat="43.85608311887456" lon="11.28558135729993"><ele>498.33333333333337</ele><time>2026-04-29T12:39:42Z</time></trkpt><trkpt lat="43.85598201343251" lon="11.285850562726747"><ele>498.6666666666667</ele><time>2026-04-29T12:39:43Z</time></trkpt><trkpt lat="43.855893159397944" lon="11.28610788361265"><ele>499.0</ele><time>2026-04-29T12:39:44Z</time></trkpt><trkpt lat="43.85584392802781" lon="11.286390922538372"><ele>500.0</ele><time>2026-04-29T12:39:45Z</time></trkpt><trkpt lat="43.85583000720574" lon="11.28670263214914"><ele>501.0</ele><time>2026-04-29T12:39:46Z</time></trkpt><trkpt lat="43.855849668824355" lon="11.287018641462753"><ele>500.66666666666663</ele><time>2026-04-29T12:39:47Z</time></trkpt><trkpt lat="43.8559044200046" lon="11.287301293304695"><ele>500.3333333333333</ele><time>2026-04-29T12:39:48Z</time></trkpt><trkpt lat="43.85598755253443" lon="11.287561811263464"><ele>500.0</ele><time>2026-04-29T12:39:49Z</time></trkpt><trkpt lat="43.85602786106806" lon="11.287826838664603"><ele>505.0</ele><time>2026-04-29T12:39:50Z</time></trkpt><trkpt lat="43.85603194976591" lon="11.288155377201344"><ele>510.0</ele><time>2026-04-29T12:39:51Z</time></trkpt><trkpt lat="43.85604579242608" lon="11.288464435957806"><ele>510.0</ele><time>2026-04-29T12:39:52Z</time></trkpt><trkpt lat="43.85602712830654" lon="11.288747740708272"><ele>510.0</ele><time>2026-04-29T12:39:53Z</time></trkpt><trkpt lat="43.85601363355921" lon="11.28901464597386"><ele>510.0</ele><time>2026-04-29T12:39:54Z</time></trkpt><trkpt lat="43.855998424271135" lon="11.289274511702729"><ele>506.0</ele><time>2026-04-29T12:39:55Z</time></trkpt><trkpt lat="43.85598134277104" lon="11.289514362751737"><ele>502.0</ele><time>2026-04-29T12:39:56Z</time></trkpt><trkpt lat="43.855965559455676" lon="11.28972394243296"><ele>498.0</ele><time>2026-04-29T12:39:57Z</time></trkpt><trkpt lat="43.85593488885182" lon="11.28990205651706"><ele>497.0</ele><time>2026-04-29T12:39:58Z</time></trkpt><trkpt lat="43.855890426718204" lon="11.290042778902347"><ele>495.99999999999994</ele><time>2026-04-29T12:39:59Z</time></trkpt><trkpt lat="43.85585541220361" lon="11.29014411548202"><ele>494.99999999999994</ele><time>2026-04-29T12:40:00Z</time></trkpt><trkpt lat="43.855822049237645" lon="11.290223195915537"><ele>494.0</ele><time>2026-04-29T12:40:01Z</time></trkpt><trkpt lat="43.85592176865178" lon="11.290379679400322"><ele>493.0</ele><time>2026-04-29T12:40:03Z</time></trkpt><trkpt lat="43.856042017931856" lon="11.290438508187073"><ele>490.6666666666667</ele><time>2026-04-29T12:40:04Z</time></trkpt><trkpt lat="43.85615011424711" lon="11.290556238546205"><ele>488.33333333333337</ele><time>2026-04-29T12:40:05Z</time></trkpt><trkpt lat="43.85626956039186" lon="11.290676471033947"><ele>486.0</ele><time>2026-04-29T12:40:06Z</time></trkpt><trkpt lat="43.85641080112229" lon="11.290815246925243"><ele>486.0</ele><time>2026-04-29T12:40:07Z</time></trkpt><trkpt lat="43.856561147398786" lon="11.290951685780207"><ele>486.0</ele><time>2026-04-29T12:40:08Z</time></trkpt><trkpt lat="43.856713958556355" lon="11.291098252438003"><ele>486.0</ele><time>2026-04-29T12:40:09Z</time></trkpt><trkpt lat="43.85686397090305" lon="11.291242099243972"><ele>487.0</ele><time>2026-04-29T12:40:10Z</time></trkpt><trkpt lat="43.857002347073575" lon="11.29137683435324"><ele>488.0</ele><time>2026-04-29T12:40:11Z</time></trkpt><trkpt lat="43.85713219897378" lon="11.29150571671405"><ele>489.0</ele><time>2026-04-29T12:40:12Z</time></trkpt><trkpt lat="43.85724948944283" lon="11.291634379275129"><ele>489.0</ele><time>2026-04-29T12:40:13Z</time></trkpt><trkpt lat="43.857344357749746" lon="11.291770813489006"><ele>489.0</ele><time>2026-04-29T12:40:14Z</time></trkpt><trkpt lat="43.85744016179791" lon="11.29190156392506"><ele>489.0</ele><time>2026-04-29T12:40:15Z</time></trkpt><trkpt lat="43.85754309509694" lon="11.292022121399125"><ele>489.0</ele><time>2026-04-29T12:40:16Z</time></trkpt><trkpt lat="43.857630276534636" lon="11.292132955233555"><ele>487.75</ele><time>2026-04-29T12:40:17Z</time></trkpt><trkpt lat="43.857718879932705" lon="11.292235143416148"><ele>486.5</ele><time>2026-04-29T12:40:18Z</time></trkpt><trkpt lat="43.85783864655448" lon="11.29232638261313"><ele>485.25</ele><time>2026-04-29T12:40:19Z</time></trkpt><trkpt lat="43.85797215088107" lon="11.292402993818369"><ele>484.0</ele><time>2026-04-29T12:40:20Z</time></trkpt><trkpt lat="43.85810926587593" lon="11.292481660744563"><ele>486.0</ele><time>2026-04-29T12:40:21Z</time></trkpt><trkpt lat="43.85825762847334" lon="11.292552707472671"><ele>488.0</ele><time>2026-04-29T12:40:22Z</time></trkpt><trkpt lat="43.858403265429075" lon="11.292628147800745"><ele>490.0</ele><time>2026-04-29T12:40:23Z</time></trkpt><trkpt lat="43.85853988728892" lon="11.29270970717274"><ele>490.0</ele><time>2026-04-29T12:40:24Z</time></trkpt><trkpt lat="43.85867396037521" lon="11.292782144173835"><ele>490.0</ele><time>2026-04-29T12:40:25Z</time></trkpt><trkpt lat="43.85880228422358" lon="11.292853586795385"><ele>490.0</ele><time>2026-04-29T12:40:26Z</time></trkpt><trkpt lat="43.858916661696" lon="11.292921285726486"><ele>490.0</ele><time>2026-04-29T12:40:27Z</time></trkpt><trkpt lat="43.85903977151714" lon="11.292996504691196"><ele>490.0</ele><time>2026-04-29T12:40:28Z</time></trkpt><trkpt lat="43.859167671909354" lon="11.293076497374852"><ele>490.0</ele><time>2026-04-29T12:40:29Z</time></trkpt><trkpt lat="43.85929088550441" lon="11.293149140248195"><ele>490.0</ele><time>2026-04-29T12:40:30Z</time></trkpt><trkpt lat="43.859411094401" lon="11.293210853398131"><ele>490.0</ele><time>2026-04-29T12:40:31Z</time></trkpt><trkpt lat="43.85952655940562" lon="11.293269439222204"><ele>490.25</ele><time>2026-04-29T12:40:32Z</time></trkpt><trkpt lat="43.8596382592554" lon="11.293338963131495"><ele>490.5</ele><time>2026-04-29T12:40:33Z</time></trkpt><trkpt lat="43.859723309422094" lon="11.293456230528559"><ele>490.75</ele><time>2026-04-29T12:40:34Z</time></trkpt><trkpt lat="43.85982618131391" lon="11.293531157464423"><ele>491.0</ele><time>2026-04-29T12:40:35Z</time></trkpt><trkpt lat="43.859915353437735" lon="11.293648901278003"><ele>491.0</ele><time>2026-04-29T12:40:36Z</time></trkpt><trkpt lat="43.8600362010202" lon="11.293735880049374"><ele>491.0</ele><time>2026-04-29T12:40:37Z</time></trkpt><trkpt lat="43.86014951515441" lon="11.293829581421182"><ele>491.0</ele><time>2026-04-29T12:40:38Z</time></trkpt><trkpt lat="43.86025539789995" lon="11.293909355081697"><ele>491.0</ele><time>2026-04-29T12:40:39Z</time></trkpt><trkpt lat="43.86035846435941" lon="11.293994000366464"><ele>491.6</ele><time>2026-04-29T12:40:40Z</time></trkpt><trkpt lat="43.860460754805246" lon="11.294089004729107"><ele>492.20000000000005</ele><time>2026-04-29T12:40:41Z</time></trkpt><trkpt lat="43.86050592298904" lon="11.294233610934917"><ele>492.79999999999995</ele><time>2026-04-29T12:40:42Z</time></trkpt><trkpt lat="43.86057271277815" lon="11.294318714089934"><ele>493.4</ele><time>2026-04-29T12:40:43Z</time></trkpt><trkpt lat="43.860560263612584" lon="11.29443265118074"><ele>494.0</ele><time>2026-04-29T12:40:44Z</time></trkpt><trkpt lat="43.860510756326846" lon="11.294522844035775"><ele>494.0</ele><time>2026-04-29T12:40:45Z</time></trkpt><trkpt lat="43.86043458264308" lon="11.294593758915353"><ele>494.0</ele><time>2026-04-29T12:40:46Z</time></trkpt><trkpt lat="43.86039143202803" lon="11.294682013929298"><ele>494.0</ele><time>2026-04-29T12:40:47Z</time></trkpt><trkpt lat="43.86040483593573" lon="11.294807407412144"><ele>494.0</ele><time>2026-04-29T12:40:48Z</time></trkpt><trkpt lat="43.86047302425943" lon="11.294912390079816"><ele>494.0</ele><time>2026-04-29T12:40:49Z</time></trkpt><trkpt lat="43.86052784290938" lon="11.295070827222888"><ele>493.0</ele><time>2026-04-29T12:40:50Z</time></trkpt><trkpt lat="43.86058996195107" lon="11.295251117505478"><ele>492.0</ele><time>2026-04-29T12:40:51Z</time></trkpt><trkpt lat="43.860663536538226" lon="11.295452198118545"><ele>491.0</ele><time>2026-04-29T12:40:52Z</time></trkpt><trkpt lat="43.86074323083304" lon="11.295648125422817"><ele>489.0</ele><time>2026-04-29T12:40:53Z</time></trkpt><trkpt lat="43.86081638196417" lon="11.295845035659248"><ele>487.0</ele><time>2026-04-29T12:40:54Z</time></trkpt><trkpt lat="43.86088960215234" lon="11.296044067319846"><ele>485.0</ele><time>2026-04-29T12:40:55Z</time></trkpt><trkpt lat="43.860966167309726" lon="11.296250010268446"><ele>488.3333333333333</ele><time>2026-04-29T12:40:56Z</time></trkpt><trkpt lat="43.86104243174428" lon="11.296456961354307"><ele>491.66666666666663</ele><time>2026-04-29T12:40:57Z</time></trkpt><trkpt lat="43.861120011396" lon="11.296666680997168"><ele>495.0</ele><time>2026-04-29T12:40:58Z</time></trkpt><trkpt lat="43.861194134789095" lon="11.296863123351516"><ele>495.0</ele><time>2026-04-29T12:40:59Z</time></trkpt><trkpt lat="43.86126517587669" lon="11.297048047411037"><ele>495.0</ele><time>2026-04-29T12:41:00Z</time></trkpt><trkpt lat="43.86132768867057" lon="11.29722489279769"><ele>495.0</ele><time>2026-04-29T12:41:01Z</time></trkpt><trkpt lat="43.86138744426065" lon="11.297392144200282"><ele>495.0</ele><time>2026-04-29T12:41:02Z</time></trkpt><trkpt lat="43.86144791924228" lon="11.297543170280939"><ele>493.8333333333333</ele><time>2026-04-29T12:41:03Z</time></trkpt><trkpt lat="43.86149765061052" lon="11.29766312767705"><ele>492.66666666666663</ele><time>2026-04-29T12:41:04Z</time></trkpt><trkpt lat="43.86152769398018" lon="11.29777315404023"><ele>491.5</ele><time>2026-04-29T12:41:05Z</time></trkpt><trkpt lat="43.86152816953019" lon="11.297889796088942"><ele>490.3333333333333</ele><time>2026-04-29T12:41:06Z</time></trkpt><trkpt lat="43.86148937363563" lon="11.297981839138576"><ele>489.16666666666663</ele><time>2026-04-29T12:41:07Z</time></trkpt><trkpt lat="43.86142412868164" lon="11.29804681779916"><ele>488.0</ele><time>2026-04-29T12:41:08Z</time></trkpt><trkpt lat="43.861353476104505" lon="11.298115829363601"><ele>486.4</ele><time>2026-04-29T12:41:10Z</time></trkpt><trkpt lat="43.861406248068505" lon="11.298277952017184"><ele>484.79999999999995</ele><time>2026-04-29T12:41:13Z</time></trkpt><trkpt lat="43.8614906491975" lon="11.298367065873476"><ele>483.2</ele><time>2026-04-29T12:41:14Z</time></trkpt><trkpt lat="43.861556303163695" lon="11.29845186699329"><ele>481.6</ele><time>2026-04-29T12:41:15Z</time></trkpt><trkpt lat="43.86161898265665" lon="11.298545738231892"><ele>480.0</ele><time>2026-04-29T12:41:17Z</time></trkpt><trkpt lat="43.86158026002962" lon="11.298683912880817"><ele>480.0</ele><time>2026-04-29T12:41:20Z</time></trkpt><trkpt lat="43.86149538757505" lon="11.298791141701349"><ele>480.0</ele><time>2026-04-29T12:41:22Z</time></trkpt><trkpt lat="43.86144195109311" lon="11.298873650232224"><ele>480.0</ele><time>2026-04-29T12:41:24Z</time></trkpt><trkpt lat="43.86140013457284" lon="11.298964684647348"><ele>480.0</ele><time>2026-04-29T12:41:27Z</time></trkpt><trkpt lat="43.86135519232992" lon="11.299029864866197"><ele>480.0</ele><time>2026-04-29T12:41:49Z</time></trkpt><trkpt lat="43.86145018421089" lon="11.299149591923372"><ele>480.6</ele><time>2026-04-29T12:41:50Z</time></trkpt><trkpt lat="43.86150885456328" lon="11.299218157307568"><ele>481.2</ele><time>2026-04-29T12:41:51Z</time></trkpt><trkpt lat="43.86157615708728" lon="11.299298668846198"><ele>481.79999999999995</ele><time>2026-04-29T12:41:52Z</time></trkpt><trkpt lat="43.86164583251467" lon="11.299392256438635"><ele>482.4</ele><time>2026-04-29T12:41:53Z</time></trkpt><trkpt lat="43.8617172617687" lon="11.299482964505156"><ele>483.0</ele><time>2026-04-29T12:41:54Z</time></trkpt><trkpt lat="43.86179456433616" lon="11.299582239579856"><ele>483.0</ele><time>2026-04-29T12:41:55Z</time></trkpt><trkpt lat="43.86184963243792" lon="11.29966134416095"><ele>483.0</ele><time>2026-04-29T12:41:56Z</time></trkpt><trkpt lat="43.86190754675884" lon="11.299730611655075"><ele>483.0</ele><time>2026-04-29T12:41:57Z</time></trkpt><trkpt lat="43.86196369963623" lon="11.299817471702678"><ele>483.0</ele><time>2026-04-29T12:41:58Z</time></trkpt><trkpt lat="43.862026666485434" lon="11.299901444515198"><ele>483.0</ele><time>2026-04-29T12:41:59Z</time></trkpt><trkpt lat="43.86209011454603" lon="11.299991793884203"><ele>483.0</ele><time>2026-04-29T12:42:00Z</time></trkpt><trkpt lat="43.86215195259948" lon="11.300085383931375"><ele>482.0</ele><time>2026-04-29T12:42:01Z</time></trkpt><trkpt lat="43.86221273126685" lon="11.30017869572771"><ele>480.99999999999994</ele><time>2026-04-29T12:42:02Z</time></trkpt><trkpt lat="43.86227434476324" lon="11.300284776968821"><ele>479.99999999999994</ele><time>2026-04-29T12:42:03Z</time></trkpt><trkpt lat="43.86232019280636" lon="11.300409507902144"><ele>479.0</ele><time>2026-04-29T12:42:04Z</time></trkpt><trkpt lat="43.86237524538659" lon="11.300528533024472"><ele>478.0</ele><time>2026-04-29T12:42:05Z</time></trkpt><trkpt lat="43.862441156460925" lon="11.300652695867791"><ele>477.0</ele><time>2026-04-29T12:42:06Z</time></trkpt><trkpt lat="43.86248863842067" lon="11.300801868614057"><ele>476.0</ele><time>2026-04-29T12:42:07Z</time></trkpt><trkpt lat="43.86253781149168" lon="11.300954279675825"><ele>475.0</ele><time>2026-04-29T12:42:08Z</time></trkpt><trkpt lat="43.86258608656326" lon="11.301108229912062"><ele>474.0</ele><time>2026-04-29T12:42:09Z</time></trkpt><trkpt lat="43.862644522572204" lon="11.301261340781137"><ele>473.66666666666663</ele><time>2026-04-29T12:42:10Z</time></trkpt><trkpt lat="43.862733015892964" lon="11.301409621573788"><ele>473.3333333333333</ele><time>2026-04-29T12:42:11Z</time></trkpt><trkpt lat="43.862832162799656" lon="11.301581122245997"><ele>473.0</ele><time>2026-04-29T12:42:12Z</time></trkpt><trkpt lat="43.862917933266665" lon="11.301791459534948"><ele>473.0</ele><time>2026-04-29T12:42:13Z</time></trkpt><trkpt lat="43.86301325780745" lon="11.301992172763319"><ele>473.0</ele><time>2026-04-29T12:42:14Z</time></trkpt><trkpt lat="43.863079859152684" lon="11.302177895729814"><ele>473.0</ele><time>2026-04-29T12:42:15Z</time></trkpt><trkpt lat="43.8631615208576" lon="11.302355745262645"><ele>476.66666666666663</ele><time>2026-04-29T12:42:16Z</time></trkpt><trkpt lat="43.86325917773013" lon="11.3025194834596"><ele>480.33333333333337</ele><time>2026-04-29T12:42:17Z</time></trkpt><trkpt lat="43.863382985644954" lon="11.30264101314687"><ele>484.0</ele><time>2026-04-29T12:42:18Z</time></trkpt><trkpt lat="43.8635463049828" lon="11.302709250633466"><ele>485.6666666666667</ele><time>2026-04-29T12:42:19Z</time></trkpt><trkpt lat="43.86373938006943" lon="11.302757917809318"><ele>487.33333333333337</ele><time>2026-04-29T12:42:20Z</time></trkpt><trkpt lat="43.86393474387273" lon="11.302806444806208"><ele>489.0</ele><time>2026-04-29T12:42:21Z</time></trkpt><trkpt lat="43.86410891606471" lon="11.302876851141486"><ele>489.0</ele><time>2026-04-29T12:42:22Z</time></trkpt><trkpt lat="43.86425478129537" lon="11.302914336953908"><ele>489.0</ele><time>2026-04-29T12:42:23Z</time></trkpt><trkpt lat="43.86438331658957" lon="11.302927174321486"><ele>489.0</ele><time>2026-04-29T12:42:24Z</time></trkpt><trkpt lat="43.864483300106436" lon="11.302972898487132"><ele>489.0</ele><time>2026-04-29T12:42:25Z</time></trkpt><trkpt lat="43.86457793614072" lon="11.3030461019629"><ele>489.0</ele><time>2026-04-29T12:42:26Z</time></trkpt><trkpt lat="43.864652490031716" lon="11.30317970857816"><ele>489.0</ele><time>2026-04-29T12:42:27Z</time></trkpt><trkpt lat="43.864702613024036" lon="11.303389700448259"><ele>489.0</ele><time>2026-04-29T12:42:28Z</time></trkpt><trkpt lat="43.864762213413876" lon="11.30361436683258"><ele>489.0</ele><time>2026-04-29T12:42:29Z</time></trkpt><trkpt lat="43.864829483765384" lon="11.30384134271533"><ele>489.0</ele><time>2026-04-29T12:42:30Z</time></trkpt><trkpt lat="43.86486877163599" lon="11.30407356138467"><ele>489.0</ele><time>2026-04-29T12:42:31Z</time></trkpt><trkpt lat="43.86489647410643" lon="11.304319958679327"><ele>493.0</ele><time>2026-04-29T12:42:32Z</time></trkpt><trkpt lat="43.864913923742535" lon="11.304563688720615"><ele>497.0</ele><time>2026-04-29T12:42:33Z</time></trkpt><trkpt lat="43.86494134237477" lon="11.304792709748657"><ele>501.0</ele><time>2026-04-29T12:42:34Z</time></trkpt><trkpt lat="43.864961316750055" lon="11.304990823401402"><ele>501.33333333333337</ele><time>2026-04-29T12:42:35Z</time></trkpt><trkpt lat="43.86503562133057" lon="11.305175326858386"><ele>501.6666666666667</ele><time>2026-04-29T12:42:36Z</time></trkpt><trkpt lat="43.86516194832548" lon="11.305356975636151"><ele>502.0</ele><time>2026-04-29T12:42:37Z</time></trkpt><trkpt lat="43.86531781965272" lon="11.305485998454332"><ele>505.75</ele><time>2026-04-29T12:42:38Z</time></trkpt><trkpt lat="43.86540014065029" lon="11.30561116759738"><ele>509.5</ele><time>2026-04-29T12:42:39Z</time></trkpt><trkpt lat="43.865452808512636" lon="11.305765957689372"><ele>513.25</ele><time>2026-04-29T12:42:40Z</time></trkpt><trkpt lat="43.8654826693432" lon="11.305958210268807"><ele>517.0</ele><time>2026-04-29T12:42:41Z</time></trkpt><trkpt lat="43.86553726202953" lon="11.306175603577648"><ele>517.0</ele><time>2026-04-29T12:42:42Z</time></trkpt><trkpt lat="43.86555899738115" lon="11.306380869109661"><ele>517.0</ele><time>2026-04-29T12:42:43Z</time></trkpt><trkpt lat="43.865517424552614" lon="11.306591940640757"><ele>517.0</ele><time>2026-04-29T12:42:44Z</time></trkpt><trkpt lat="43.86551022367327" lon="11.306835665272342"><ele>519.0</ele><time>2026-04-29T12:42:45Z</time></trkpt><trkpt lat="43.86549601720709" lon="11.307097562376846"><ele>521.0</ele><time>2026-04-29T12:42:46Z</time></trkpt><trkpt lat="43.8655011770436" lon="11.307329873345896"><ele>523.0</ele><time>2026-04-29T12:42:47Z</time></trkpt><trkpt lat="43.8655022511446" lon="11.307527580871577"><ele>523.75</ele><time>2026-04-29T12:42:48Z</time></trkpt><trkpt lat="43.865477930440925" lon="11.307688300561294"><ele>524.5</ele><time>2026-04-29T12:42:49Z</time></trkpt><trkpt lat="43.86542436051918" lon="11.307842075181215"><ele>525.25</ele><time>2026-04-29T12:42:50Z</time></trkpt><trkpt lat="43.86538547986809" lon="11.308025843210114"><ele>526.0</ele><time>2026-04-29T12:42:51Z</time></trkpt><trkpt lat="43.86536688006125" lon="11.308224865083915"><ele>526.6666666666667</ele><time>2026-04-29T12:42:52Z</time></trkpt><trkpt lat="43.865396217717645" lon="11.308429457040926"><ele>527.3333333333334</ele><time>2026-04-29T12:42:53Z</time></trkpt><trkpt lat="43.86543293100323" lon="11.308622588596121"><ele>528.0</ele><time>2026-04-29T12:42:54Z</time></trkpt><trkpt lat="43.86547464181465" lon="11.308839803916056"><ele>528.6666666666666</ele><time>2026-04-29T12:42:55Z</time></trkpt><trkpt lat="43.865526977115316" lon="11.309112347373414"><ele>529.3333333333333</ele><time>2026-04-29T12:42:56Z</time></trkpt><trkpt lat="43.865591360054296" lon="11.309381242926143"><ele>530.0</ele><time>2026-04-29T12:42:57Z</time></trkpt><trkpt lat="43.86568119186941" lon="11.30959793287811"><ele>532.0</ele><time>2026-04-29T12:42:58Z</time></trkpt><trkpt lat="43.86575512116122" lon="11.309796389096155"><ele>534.0</ele><time>2026-04-29T12:42:59Z</time></trkpt><trkpt lat="43.86581433292113" lon="11.309982663139444"><ele>536.0</ele><time>2026-04-29T12:43:00Z</time></trkpt><trkpt lat="43.86580439546081" lon="11.31018750247112"><ele>536.0</ele><time>2026-04-29T12:43:01Z</time></trkpt><trkpt lat="43.865801212686414" lon="11.310395096614798"><ele>536.0</ele><time>2026-04-29T12:43:02Z</time></trkpt><trkpt lat="43.86581263782672" lon="11.310577136692574"><ele>536.0</ele><time>2026-04-29T12:43:03Z</time></trkpt><trkpt lat="43.865819469037056" lon="11.31076798834511"><ele>536.0</ele><time>2026-04-29T12:43:04Z</time></trkpt><trkpt lat="43.86587849076081" lon="11.310950857380975"><ele>537.6666666666666</ele><time>2026-04-29T12:43:05Z</time></trkpt><trkpt lat="43.86597744407037" lon="11.311125244518196"><ele>539.3333333333334</ele><time>2026-04-29T12:43:06Z</time></trkpt><trkpt lat="43.86610539992905" lon="11.311286704463855"><ele>541.0</ele><time>2026-04-29T12:43:07Z</time></trkpt><trkpt lat="43.8662534219874" lon="11.311437999784859"><ele>537.0</ele><time>2026-04-29T12:43:08Z</time></trkpt><trkpt lat="43.86641306437024" lon="11.311569236782844"><ele>533.0</ele><time>2026-04-29T12:43:09Z</time></trkpt><trkpt lat="43.86656309506095" lon="11.311678444000114"><ele>529.0</ele><time>2026-04-29T12:43:10Z</time></trkpt><trkpt lat="43.86670812132957" lon="11.31178333623564"><ele>527.25</ele><time>2026-04-29T12:43:11Z</time></trkpt><trkpt lat="43.866847430451" lon="11.311880213900922"><ele>525.5</ele><time>2026-04-29T12:43:12Z</time></trkpt><trkpt lat="43.866958574233166" lon="11.311971569658787"><ele>523.75</ele><time>2026-04-29T12:43:13Z</time></trkpt><trkpt lat="43.867064549491644" lon="11.312069781710598"><ele>522.0</ele><time>2026-04-29T12:43:14Z</time></trkpt><trkpt lat="43.8671652209479" lon="11.312175355151552"><ele>520.6</ele><time>2026-04-29T12:43:15Z</time></trkpt><trkpt lat="43.86724841821553" lon="11.312267279861961"><ele>519.2</ele><time>2026-04-29T12:43:16Z</time></trkpt><trkpt lat="43.86733244126641" lon="11.312358360026572"><ele>517.8</ele><time>2026-04-29T12:43:17Z</time></trkpt><trkpt lat="43.86741048387848" lon="11.312439378475453"><ele>516.4</ele><time>2026-04-29T12:43:18Z</time></trkpt><trkpt lat="43.86748155128944" lon="11.312517976528774"><ele>515.0</ele><time>2026-04-29T12:43:19Z</time></trkpt><trkpt lat="43.86755800915294" lon="11.31259547130287"><ele>514.8</ele><time>2026-04-29T12:43:20Z</time></trkpt><trkpt lat="43.867628737206424" lon="11.312673561724647"><ele>514.6</ele><time>2026-04-29T12:43:21Z</time></trkpt><trkpt lat="43.867696868930004" lon="11.312753789593271"><ele>514.4</ele><time>2026-04-29T12:43:22Z</time></trkpt><trkpt lat="43.867761005047214" lon="11.312838592356345"><ele>514.2</ele><time>2026-04-29T12:43:23Z</time></trkpt><trkpt lat="43.8678155825172" lon="11.312930140776501"><ele>514.0</ele><time>2026-04-29T12:43:24Z</time></trkpt><trkpt lat="43.867875830403705" lon="11.313041258741386"><ele>513.6</ele><time>2026-04-29T12:43:25Z</time></trkpt><trkpt lat="43.86791861702347" lon="11.313170574890833"><ele>513.2</ele><time>2026-04-29T12:43:26Z</time></trkpt><trkpt lat="43.86794453222398" lon="11.313297430448573"><ele>512.8000000000001</ele><time>2026-04-29T12:43:27Z</time></trkpt><trkpt lat="43.86797325152967" lon="11.313425654662442"><ele>512.4</ele><time>2026-04-29T12:43:28Z</time></trkpt><trkpt lat="43.867997607301554" lon="11.31355708474674"><ele>512.0</ele><time>2026-04-29T12:43:29Z</time></trkpt><trkpt lat="43.86801137059851" lon="11.313683999380228"><ele>512.0</ele><time>2026-04-29T12:43:30Z</time></trkpt><trkpt lat="43.86802518658925" lon="11.313815565348014"><ele>512.0</ele><time>2026-04-29T12:43:31Z</time></trkpt><trkpt lat="43.86804782646162" lon="11.313968147336839"><ele>512.0</ele><time>2026-04-29T12:43:32Z</time></trkpt><trkpt lat="43.868074508756656" lon="11.31413396336199"><ele>512.0</ele><time>2026-04-29T12:43:33Z</time></trkpt><trkpt lat="43.86811212309717" lon="11.314314870437611"><ele>512.0</ele><time>2026-04-29T12:43:34Z</time></trkpt><trkpt lat="43.86816934409514" lon="11.31449777977016"><ele>512.0</ele><time>2026-04-29T12:43:35Z</time></trkpt><trkpt lat="43.8682341025529" lon="11.314672017169647"><ele>512.0</ele><time>2026-04-29T12:43:36Z</time></trkpt><trkpt lat="43.8682896576847" lon="11.314835281972124"><ele>512.0</ele><time>2026-04-29T12:43:37Z</time></trkpt><trkpt lat="43.86833940599146" lon="11.314972512775974"><ele>512.0</ele><time>2026-04-29T12:43:38Z</time></trkpt><trkpt lat="43.86838907577767" lon="11.31509941926193"><ele>512.0</ele><time>2026-04-29T12:43:39Z</time></trkpt><trkpt lat="43.86844223673181" lon="11.31521954996603"><ele>512.0</ele><time>2026-04-29T12:43:40Z</time></trkpt><trkpt lat="43.86848910882097" lon="11.315343127430804"><ele>512.0</ele><time>2026-04-29T12:43:41Z</time></trkpt><trkpt lat="43.86852197784382" lon="11.315483573144581"><ele>512.0</ele><time>2026-04-29T12:43:42Z</time></trkpt><trkpt lat="43.868548194131264" lon="11.315618594501261"><ele>511.8</ele><time>2026-04-29T12:43:43Z</time></trkpt><trkpt lat="43.86855954618096" lon="11.315757951884812"><ele>511.6</ele><time>2026-04-29T12:43:44Z</time></trkpt><trkpt lat="43.86856450625726" lon="11.315904402914605"><ele>511.40000000000003</ele><time>2026-04-29T12:43:45Z</time></trkpt><trkpt lat="43.86856753914749" lon="11.31605519867138"><ele>511.20000000000005</ele><time>2026-04-29T12:43:46Z</time></trkpt><trkpt lat="43.868571518372256" lon="11.316233630974857"><ele>511.0</ele><time>2026-04-29T12:43:47Z</time></trkpt><trkpt lat="43.86855655264851" lon="11.316431245469852"><ele>510.5</ele><time>2026-04-29T12:43:48Z</time></trkpt><trkpt lat="43.868556988511294" lon="11.316610733631494"><ele>510.0</ele><time>2026-04-29T12:43:49Z</time></trkpt><trkpt lat="43.86857203935352" lon="11.316778125881646"><ele>509.5</ele><time>2026-04-29T12:43:50Z</time></trkpt><trkpt lat="43.86857132185763" lon="11.316928146850648"><ele>509.0</ele><time>2026-04-29T12:43:51Z</time></trkpt><trkpt lat="43.868582880557504" lon="11.317073517924209"><ele>510.25</ele><time>2026-04-29T12:43:52Z</time></trkpt><trkpt lat="43.8686088479018" lon="11.317253458152832"><ele>511.5</ele><time>2026-04-29T12:43:53Z</time></trkpt><trkpt lat="43.86868785975124" lon="11.317462438617675"><ele>512.75</ele><time>2026-04-29T12:43:54Z</time></trkpt><trkpt lat="43.868720489117834" lon="11.31763723262732"><ele>514.0</ele><time>2026-04-29T12:43:55Z</time></trkpt><trkpt lat="43.86873759158744" lon="11.31777014939176"><ele>514.0</ele><time>2026-04-29T12:43:56Z</time></trkpt><trkpt lat="43.86879400353676" lon="11.31787519209516"><ele>514.0</ele><time>2026-04-29T12:43:57Z</time></trkpt><trkpt lat="43.86886400454876" lon="11.31797415285056"><ele>514.0</ele><time>2026-04-29T12:43:58Z</time></trkpt><trkpt lat="43.86896658268582" lon="11.318027863193862"><ele>514.0</ele><time>2026-04-29T12:43:59Z</time></trkpt><trkpt lat="43.869088966448544" lon="11.318051006325229"><ele>514.0</ele><time>2026-04-29T12:44:00Z</time></trkpt><trkpt lat="43.869221396412385" lon="11.318073216985448"><ele>513.25</ele><time>2026-04-29T12:44:01Z</time></trkpt><trkpt lat="43.869350881435125" lon="11.318095220858853"><ele>512.5</ele><time>2026-04-29T12:44:02Z</time></trkpt><trkpt lat="43.869450845667046" lon="11.318156121560346"><ele>511.75</ele><time>2026-04-29T12:44:03Z</time></trkpt><trkpt lat="43.869531425331175" lon="11.31822874053973"><ele>511.0</ele><time>2026-04-29T12:44:04Z</time></trkpt><trkpt lat="43.86956408036351" lon="11.318389159889115"><ele>511.0</ele><time>2026-04-29T12:44:05Z</time></trkpt><trkpt lat="43.86962761508448" lon="11.318579471588857"><ele>511.0</ele><time>2026-04-29T12:44:06Z</time></trkpt><trkpt lat="43.86969307247745" lon="11.318802658320067"><ele>511.0</ele><time>2026-04-29T12:44:07Z</time></trkpt><trkpt lat="43.86976363002397" lon="11.319048705645676"><ele>512.3333333333334</ele><time>2026-04-29T12:44:08Z</time></trkpt><trkpt lat="43.869846816747646" lon="11.319289623043158"><ele>513.6666666666666</ele><time>2026-04-29T12:44:09Z</time></trkpt><trkpt lat="43.86993299869119" lon="11.319522508085992"><ele>515.0</ele><time>2026-04-29T12:44:10Z</time></trkpt><trkpt lat="43.86998090841366" lon="11.319789060065435"><ele>516.0</ele><time>2026-04-29T12:44:11Z</time></trkpt><trkpt lat="43.870042609731826" lon="11.320076760215002"><ele>517.0</ele><time>2026-04-29T12:44:12Z</time></trkpt><trkpt lat="43.87009653761196" lon="11.32034749304044"><ele>518.0</ele><time>2026-04-29T12:44:13Z</time></trkpt><trkpt lat="43.87016149780591" lon="11.320612475745298"><ele>518.3333333333333</ele><time>2026-04-29T12:44:14Z</time></trkpt><trkpt lat="43.87019369190362" lon="11.320889394795541"><ele>518.6666666666666</ele><time>2026-04-29T12:44:15Z</time></trkpt><trkpt lat="43.87024118600577" lon="11.321167808477645"><ele>519.0</ele><time>2026-04-29T12:44:16Z</time></trkpt><trkpt lat="43.87030415888387" lon="11.321455735450701"><ele>519.0</ele><time>2026-04-29T12:44:17Z</time></trkpt><trkpt lat="43.87035357621732" lon="11.321761538515217"><ele>519.0</ele><time>2026-04-29T12:44:18Z</time></trkpt><trkpt lat="43.8704007097237" lon="11.322042945669027"><ele>519.0</ele><time>2026-04-29T12:44:19Z</time></trkpt><trkpt lat="43.87045328717402" lon="11.322320777583798"><ele>522.5</ele><time>2026-04-29T12:44:20Z</time></trkpt><trkpt lat="43.87054107802478" lon="11.322618032356504"><ele>526.0</ele><time>2026-04-29T12:44:21Z</time></trkpt><trkpt lat="43.87065442331327" lon="11.32292189737945"><ele>528.0</ele><time>2026-04-29T12:44:22Z</time></trkpt><trkpt lat="43.870782892353425" lon="11.32322456981969"><ele>530.0</ele><time>2026-04-29T12:44:23Z</time></trkpt><trkpt lat="43.87090931015917" lon="11.32353115794652"><ele>527.5</ele><time>2026-04-29T12:44:24Z</time></trkpt><trkpt lat="43.871035353706674" lon="11.323830578157128"><ele>525.0</ele><time>2026-04-29T12:44:25Z</time></trkpt><trkpt lat="43.87116042338613" lon="11.324125526245489"><ele>530.5</ele><time>2026-04-29T12:44:26Z</time></trkpt><trkpt lat="43.87129597757497" lon="11.324406023947816"><ele>536.0</ele><time>2026-04-29T12:44:27Z</time></trkpt><trkpt lat="43.871448526254454" lon="11.324676982828045"><ele>539.5</ele><time>2026-04-29T12:44:28Z</time></trkpt><trkpt lat="43.8715923466153" lon="11.324948570845175"><ele>543.0</ele><time>2026-04-29T12:44:29Z</time></trkpt><trkpt lat="43.871731591222684" lon="11.32522309783923"><ele>541.6666666666666</ele><time>2026-04-29T12:44:30Z</time></trkpt><trkpt lat="43.8718678805357" lon="11.325482628711178"><ele>540.3333333333333</ele><time>2026-04-29T12:44:31Z</time></trkpt><trkpt lat="43.871993311137885" lon="11.325710109796034"><ele>539.0</ele><time>2026-04-29T12:44:32Z</time></trkpt><trkpt lat="43.87211225279577" lon="11.325911306272182"><ele>542.3333333333333</ele><time>2026-04-29T12:44:33Z</time></trkpt><trkpt lat="43.87223201730974" lon="11.326093655160857"><ele>545.6666666666666</ele><time>2026-04-29T12:44:34Z</time></trkpt><trkpt lat="43.87235071244765" lon="11.32623228816678"><ele>549.0</ele><time>2026-04-29T12:44:35Z</time></trkpt><trkpt lat="43.87245501302955" lon="11.326333357702477"><ele>550.0</ele><time>2026-04-29T12:44:36Z</time></trkpt><trkpt lat="43.872544367148286" lon="11.326409021706992"><ele>551.0</ele><time>2026-04-29T12:44:37Z</time></trkpt><trkpt lat="43.87261090283423" lon="11.326475790320512"><ele>552.0</ele><time>2026-04-29T12:44:38Z</time></trkpt><trkpt lat="43.872667134143846" lon="11.326530145159323"><ele>553.0</ele><time>2026-04-29T12:44:39Z</time></trkpt><trkpt lat="43.872739419845914" lon="11.326559908770925"><ele>554.0</ele><time>2026-04-29T12:44:40Z</time></trkpt><trkpt lat="43.87266348777868" lon="11.326866516251375"><ele>558.0</ele><time>2026-04-29T12:44:41Z</time></trkpt><trkpt lat="43.872678625070876" lon="11.327101316626702"><ele>562.0</ele><time>2026-04-29T12:44:42Z</time></trkpt><trkpt lat="43.872692767257675" lon="11.32733374035436"><ele>566.0</ele><time>2026-04-29T12:44:43Z</time></trkpt><trkpt lat="43.87271473078969" lon="11.327564383977915"><ele>566.6666666666666</ele><time>2026-04-29T12:44:44Z</time></trkpt><trkpt lat="43.8727352185505" lon="11.327794735540538"><ele>567.3333333333334</ele><time>2026-04-29T12:44:45Z</time></trkpt><trkpt lat="43.8727553707195" lon="11.328018775972033"><ele>568.0</ele><time>2026-04-29T12:44:46Z</time></trkpt><trkpt lat="43.872783720103364" lon="11.328233873284026"><ele>568.3333333333334</ele><time>2026-04-29T12:44:47Z</time></trkpt><trkpt lat="43.87284270434996" lon="11.328458648947224"><ele>568.6666666666666</ele><time>2026-04-29T12:44:48Z</time></trkpt><trkpt lat="43.87291181777723" lon="11.328703610743455"><ele>569.0</ele><time>2026-04-29T12:44:49Z</time></trkpt><trkpt lat="43.87294504260041" lon="11.32894052100561"><ele>567.3333333333333</ele><time>2026-04-29T12:44:50Z</time></trkpt><trkpt lat="43.872990454897504" lon="11.329151336585037"><ele>565.6666666666666</ele><time>2026-04-29T12:44:51Z</time></trkpt><trkpt lat="43.87307962212832" lon="11.329340132983614"><ele>564.0</ele><time>2026-04-29T12:44:52Z</time></trkpt><trkpt lat="43.873191459926325" lon="11.329548505574824"><ele>562.3333333333334</ele><time>2026-04-29T12:44:53Z</time></trkpt><trkpt lat="43.873273653932415" lon="11.32977257969677"><ele>560.6666666666667</ele><time>2026-04-29T12:44:54Z</time></trkpt><trkpt lat="43.87330478263297" lon="11.330008860721508"><ele>559.0</ele><time>2026-04-29T12:44:55Z</time></trkpt><trkpt lat="43.87335448901759" lon="11.330225811708521"><ele>561.6666666666667</ele><time>2026-04-29T12:44:56Z</time></trkpt><trkpt lat="43.87344457617462" lon="11.330407107817626"><ele>564.3333333333334</ele><time>2026-04-29T12:44:57Z</time></trkpt><trkpt lat="43.87350464594961" lon="11.330603700642886"><ele>567.0</ele><time>2026-04-29T12:44:58Z</time></trkpt><trkpt lat="43.873529662867426" lon="11.330801090436417"><ele>567.0</ele><time>2026-04-29T12:44:59Z</time></trkpt><trkpt lat="43.87349917528523" lon="11.331012983588636"><ele>567.0</ele><time>2026-04-29T12:45:00Z</time></trkpt><trkpt lat="43.873419669978574" lon="11.331236313363332"><ele>567.0</ele><time>2026-04-29T12:45:01Z</time></trkpt><trkpt lat="43.87335104568569" lon="11.331497584387805"><ele>563.6666666666666</ele><time>2026-04-29T12:45:02Z</time></trkpt><trkpt lat="43.87326596764798" lon="11.331771380933104"><ele>560.3333333333333</ele><time>2026-04-29T12:45:03Z</time></trkpt><trkpt lat="43.87319543359353" lon="11.332047398951305"><ele>557.0</ele><time>2026-04-29T12:45:04Z</time></trkpt><trkpt lat="43.87313839892835" lon="11.332308716891912"><ele>557.0</ele><time>2026-04-29T12:45:05Z</time></trkpt><trkpt lat="43.87309434891037" lon="11.332562975915545"><ele>557.0</ele><time>2026-04-29T12:45:06Z</time></trkpt><trkpt lat="43.8730253285864" lon="11.332789184756626"><ele>557.0</ele><time>2026-04-29T12:45:07Z</time></trkpt><trkpt lat="43.87294780799495" lon="11.332982858971668"><ele>558.0</ele><time>2026-04-29T12:45:08Z</time></trkpt><trkpt lat="43.87286045614323" lon="11.33314622037759"><ele>559.0</ele><time>2026-04-29T12:45:09Z</time></trkpt><trkpt lat="43.87275620961514" lon="11.333279717957904"><ele>560.0</ele><time>2026-04-29T12:45:10Z</time></trkpt><trkpt lat="43.872624684021076" lon="11.333354257807985"><ele>561.0</ele><time>2026-04-29T12:45:11Z</time></trkpt><trkpt lat="43.87246163441288" lon="11.333409934680505"><ele>559.0</ele><time>2026-04-29T12:45:12Z</time></trkpt><trkpt lat="43.872316789571805" lon="11.333448052626988"><ele>557.0</ele><time>2026-04-29T12:45:13Z</time></trkpt><trkpt lat="43.8721870183574" lon="11.333452821364594"><ele>555.0</ele><time>2026-04-29T12:45:14Z</time></trkpt><trkpt lat="43.87206583721189" lon="11.333321022746174"><ele>553.0</ele><time>2026-04-29T12:45:15Z</time></trkpt><trkpt lat="43.87189061809366" lon="11.333238055906827"><ele>552.0</ele><time>2026-04-29T12:45:16Z</time></trkpt><trkpt lat="43.87170362795684" lon="11.333144800269581"><ele>551.0</ele><time>2026-04-29T12:45:17Z</time></trkpt><trkpt lat="43.871510608802126" lon="11.333107287073139"><ele>550.0</ele><time>2026-04-29T12:45:18Z</time></trkpt><trkpt lat="43.87134739105836" lon="11.333081448978898"><ele>548.0</ele><time>2026-04-29T12:45:19Z</time></trkpt><trkpt lat="43.87122138032197" lon="11.333018022474148"><ele>546.0</ele><time>2026-04-29T12:45:20Z</time></trkpt><trkpt lat="43.87112245673726" lon="11.332959952477575"><ele>544.0</ele><time>2026-04-29T12:45:21Z</time></trkpt><trkpt lat="43.87103394538684" lon="11.33293801776358"><ele>542.0</ele><time>2026-04-29T12:45:22Z</time></trkpt><trkpt lat="43.870957020669124" lon="11.332981834987775"><ele>540.0</ele><time>2026-04-29T12:45:23Z</time></trkpt><trkpt lat="43.870899962554745" lon="11.333078146153559"><ele>540.0</ele><time>2026-04-29T12:45:24Z</time></trkpt><trkpt lat="43.8708748673008" lon="11.333229118553257"><ele>540.0</ele><time>2026-04-29T12:45:25Z</time></trkpt><trkpt lat="43.87085876873133" lon="11.333447212224455"><ele>540.0</ele><time>2026-04-29T12:45:26Z</time></trkpt><trkpt lat="43.87079460297952" lon="11.333669347222362"><ele>540.0</ele><time>2026-04-29T12:45:27Z</time></trkpt><trkpt lat="43.870720764999696" lon="11.333861903042491"><ele>541.25</ele><time>2026-04-29T12:45:28Z</time></trkpt><trkpt lat="43.870626713097394" lon="11.334020202460643"><ele>542.5</ele><time>2026-04-29T12:45:29Z</time></trkpt><trkpt lat="43.87051918717298" lon="11.334108252637353"><ele>543.75</ele><time>2026-04-29T12:45:30Z</time></trkpt><trkpt lat="43.8703908996337" lon="11.334132193820574"><ele>545.0</ele><time>2026-04-29T12:45:31Z</time></trkpt><trkpt lat="43.87023224563201" lon="11.334076876544783"><ele>542.3333333333333</ele><time>2026-04-29T12:45:32Z</time></trkpt><trkpt lat="43.870045356320006" lon="11.33402999241864"><ele>539.6666666666666</ele><time>2026-04-29T12:45:33Z</time></trkpt><trkpt lat="43.86986752955723" lon="11.33398121967672"><ele>537.0</ele><time>2026-04-29T12:45:34Z</time></trkpt><trkpt lat="43.8696715109951" lon="11.333923175283534"><ele>533.3333333333334</ele><time>2026-04-29T12:45:35Z</time></trkpt><trkpt lat="43.869508941076745" lon="11.333799424882052"><ele>529.6666666666667</ele><time>2026-04-29T12:45:36Z</time></trkpt><trkpt lat="43.869370065873014" lon="11.333686534292523"><ele>526.0</ele><time>2026-04-29T12:45:37Z</time></trkpt><trkpt lat="43.86926376236011" lon="11.33354729967832"><ele>525.0</ele><time>2026-04-29T12:45:38Z</time></trkpt><trkpt lat="43.86916183202179" lon="11.333453822322594"><ele>524.0</ele><time>2026-04-29T12:45:39Z</time></trkpt><trkpt lat="43.86904740759149" lon="11.333440669337717"><ele>523.0</ele><time>2026-04-29T12:45:40Z</time></trkpt><trkpt lat="43.868919924714355" lon="11.33350166664268"><ele>522.0</ele><time>2026-04-29T12:45:41Z</time></trkpt><trkpt lat="43.86881928388748" lon="11.3336213038356"><ele>522.0</ele><time>2026-04-29T12:45:42Z</time></trkpt><trkpt lat="43.86871265457859" lon="11.333785944572206"><ele>522.0</ele><time>2026-04-29T12:45:43Z</time></trkpt><trkpt lat="43.86859007515264" lon="11.33388666775827"><ele>522.0</ele><time>2026-04-29T12:45:44Z</time></trkpt><trkpt lat="43.868460407815675" lon="11.333955520483638"><ele>522.0</ele><time>2026-04-29T12:45:45Z</time></trkpt><trkpt lat="43.868289687432004" lon="11.33394881690996"><ele>522.3333333333334</ele><time>2026-04-29T12:45:46Z</time></trkpt><trkpt lat="43.868084487790256" lon="11.333922969820815"><ele>522.6666666666667</ele><time>2026-04-29T12:45:47Z</time></trkpt><trkpt lat="43.8678524718395" lon="11.333907467038589"><ele>523.0</ele><time>2026-04-29T12:45:48Z</time></trkpt><trkpt lat="43.86761749723571" lon="11.333873601828506"><ele>515.0</ele><time>2026-04-29T12:45:49Z</time></trkpt><trkpt lat="43.867390235522244" lon="11.333815502251975"><ele>507.0</ele><time>2026-04-29T12:45:50Z</time></trkpt><trkpt lat="43.867174588355745" lon="11.333738661568498"><ele>507.0</ele><time>2026-04-29T12:45:51Z</time></trkpt><trkpt lat="43.86697269636045" lon="11.333666729349847"><ele>507.0</ele><time>2026-04-29T12:45:52Z</time></trkpt><trkpt lat="43.866772122965564" lon="11.333587966122009"><ele>507.0</ele><time>2026-04-29T12:45:53Z</time></trkpt><trkpt lat="43.86657425601582" lon="11.333483684946463"><ele>509.33333333333337</ele><time>2026-04-29T12:45:54Z</time></trkpt><trkpt lat="43.866391080799765" lon="11.333366693350563"><ele>511.6666666666667</ele><time>2026-04-29T12:45:55Z</time></trkpt><trkpt lat="43.86621420217098" lon="11.333279538071748"><ele>514.0</ele><time>2026-04-29T12:45:56Z</time></trkpt><trkpt lat="43.86606256723741" lon="11.333203584560327"><ele>514.75</ele><time>2026-04-29T12:45:57Z</time></trkpt><trkpt lat="43.86593280572958" lon="11.333133462086224"><ele>515.5</ele><time>2026-04-29T12:45:58Z</time></trkpt><trkpt lat="43.86580320607256" lon="11.333078089987032"><ele>516.25</ele><time>2026-04-29T12:45:59Z</time></trkpt><trkpt lat="43.86566086902393" lon="11.333067482525607"><ele>517.0</ele><time>2026-04-29T12:46:00Z</time></trkpt><trkpt lat="43.86549466845913" lon="11.333102897246675"><ele>517.0</ele><time>2026-04-29T12:46:01Z</time></trkpt><trkpt lat="43.86533370851649" lon="11.333114439007314"><ele>517.0</ele><time>2026-04-29T12:46:02Z</time></trkpt><trkpt lat="43.865188302694754" lon="11.333123312039088"><ele>517.0</ele><time>2026-04-29T12:46:03Z</time></trkpt><trkpt lat="43.86504823006863" lon="11.333143668216225"><ele>517.0</ele><time>2026-04-29T12:46:04Z</time></trkpt><trkpt lat="43.864913998025656" lon="11.333187738990572"><ele>514.75</ele><time>2026-04-29T12:46:05Z</time></trkpt><trkpt lat="43.86478950726053" lon="11.333252604848312"><ele>512.5</ele><time>2026-04-29T12:46:06Z</time></trkpt><trkpt lat="43.86466982060656" lon="11.33332533869492"><ele>510.25</ele><time>2026-04-29T12:46:07Z</time></trkpt><trkpt lat="43.86457284733646" lon="11.33337605367047"><ele>508.0</ele><time>2026-04-29T12:46:08Z</time></trkpt><trkpt lat="43.86446859782136" lon="11.333365985818356"><ele>508.0</ele><time>2026-04-29T12:46:09Z</time></trkpt><trkpt lat="43.864350242486275" lon="11.333359304703706"><ele>508.0</ele><time>2026-04-29T12:46:10Z</time></trkpt><trkpt lat="43.86421627234367" lon="11.333327739915658"><ele>508.0</ele><time>2026-04-29T12:46:11Z</time></trkpt><trkpt lat="43.864084939281" lon="11.333320627020193"><ele>508.0</ele><time>2026-04-29T12:46:12Z</time></trkpt><trkpt lat="43.863943562655514" lon="11.333299540044402"><ele>506.25</ele><time>2026-04-29T12:46:13Z</time></trkpt><trkpt lat="43.86380984287865" lon="11.33327031109054"><ele>504.5</ele><time>2026-04-29T12:46:14Z</time></trkpt><trkpt lat="43.86368152667824" lon="11.333242107827838"><ele>502.75</ele><time>2026-04-29T12:46:15Z</time></trkpt><trkpt lat="43.86356715422307" lon="11.333221343692571"><ele>501.0</ele><time>2026-04-29T12:46:16Z</time></trkpt><trkpt lat="43.86346617418566" lon="11.33319659566457"><ele>498.0</ele><time>2026-04-29T12:46:17Z</time></trkpt><trkpt lat="43.86338306810649" lon="11.333182998951585"><ele>495.0</ele><time>2026-04-29T12:46:18Z</time></trkpt><trkpt lat="43.86331999272077" lon="11.33318873897387"><ele>492.0</ele><time>2026-04-29T12:46:19Z</time></trkpt><trkpt lat="43.86323628247326" lon="11.333326606452001"><ele>489.0</ele><time>2026-04-29T12:46:21Z</time></trkpt><trkpt lat="43.86328657766839" lon="11.333452709227053"><ele>486.0</ele><time>2026-04-29T12:46:22Z</time></trkpt><trkpt lat="43.86336365287232" lon="11.333574119345215"><ele>488.5</ele><time>2026-04-29T12:46:23Z</time></trkpt><trkpt lat="43.86346355865077" lon="11.333690733816116"><ele>491.0</ele><time>2026-04-29T12:46:24Z</time></trkpt><trkpt lat="43.86352267756636" lon="11.33386042321301"><ele>493.5</ele><time>2026-04-29T12:46:25Z</time></trkpt><trkpt lat="43.86359463236504" lon="11.334030749661231"><ele>496.0</ele><time>2026-04-29T12:46:26Z</time></trkpt><trkpt lat="43.863720884119786" lon="11.33417715033084"><ele>496.0</ele><time>2026-04-29T12:46:27Z</time></trkpt><trkpt lat="43.86385708414047" lon="11.33432096805744"><ele>496.0</ele><time>2026-04-29T12:46:28Z</time></trkpt><trkpt lat="43.86396221309556" lon="11.33447080905372"><ele>496.0</ele><time>2026-04-29T12:46:29Z</time></trkpt><trkpt lat="43.864034948332865" lon="11.334630719407828"><ele>494.75</ele><time>2026-04-29T12:46:30Z</time></trkpt><trkpt lat="43.86410358358013" lon="11.334801509664231"><ele>493.5</ele><time>2026-04-29T12:46:31Z</time></trkpt><trkpt lat="43.86415073075953" lon="11.334955629800247"><ele>492.25</ele><time>2026-04-29T12:46:32Z</time></trkpt><trkpt lat="43.86418740131398" lon="11.335097877373713"><ele>491.0</ele><time>2026-04-29T12:46:33Z</time></trkpt><trkpt lat="43.86414980131943" lon="11.335222929724083"><ele>491.0</ele><time>2026-04-29T12:46:34Z</time></trkpt><trkpt lat="43.86411173125656" lon="11.335385075054164"><ele>491.0</ele><time>2026-04-29T12:46:35Z</time></trkpt><trkpt lat="43.864105675618724" lon="11.335596607578307"><ele>491.0</ele><time>2026-04-29T12:46:36Z</time></trkpt><trkpt lat="43.864116159398066" lon="11.335824936788388"><ele>491.0</ele><time>2026-04-29T12:46:37Z</time></trkpt><trkpt lat="43.864137811813464" lon="11.336059559279358"><ele>490.66666666666663</ele><time>2026-04-29T12:46:38Z</time></trkpt><trkpt lat="43.86409776361291" lon="11.336282022934148"><ele>490.33333333333337</ele><time>2026-04-29T12:46:39Z</time></trkpt><trkpt lat="43.86404745480077" lon="11.336513166288382"><ele>490.0</ele><time>2026-04-29T12:46:40Z</time></trkpt><trkpt lat="43.86400616519477" lon="11.336760109213854"><ele>490.0</ele><time>2026-04-29T12:46:41Z</time></trkpt><trkpt lat="43.86395815521983" lon="11.33697908694002"><ele>490.0</ele><time>2026-04-29T12:46:42Z</time></trkpt><trkpt lat="43.86393410998699" lon="11.337196927924373"><ele>490.0</ele><time>2026-04-29T12:46:43Z</time></trkpt><trkpt lat="43.863925438187934" lon="11.337436379833502"><ele>492.33333333333337</ele><time>2026-04-29T12:46:44Z</time></trkpt><trkpt lat="43.863924917283605" lon="11.337687447054515"><ele>494.66666666666663</ele><time>2026-04-29T12:46:45Z</time></trkpt><trkpt lat="43.863912581957635" lon="11.337917578669042"><ele>497.0</ele><time>2026-04-29T12:46:46Z</time></trkpt><trkpt lat="43.86390637721256" lon="11.338123812986046"><ele>499.0</ele><time>2026-04-29T12:46:47Z</time></trkpt><trkpt lat="43.8639050018001" lon="11.338337593199928"><ele>501.0</ele><time>2026-04-29T12:46:48Z</time></trkpt><trkpt lat="43.86384644871394" lon="11.338521476415679"><ele>503.0</ele><time>2026-04-29T12:46:49Z</time></trkpt><trkpt lat="43.86375672841737" lon="11.338693347078348"><ele>503.0</ele><time>2026-04-29T12:46:50Z</time></trkpt><trkpt lat="43.86364647123616" lon="11.338874992500006"><ele>503.0</ele><time>2026-04-29T12:46:51Z</time></trkpt><trkpt lat="43.86356489781326" lon="11.339070394976376"><ele>503.0</ele><time>2026-04-29T12:46:52Z</time></trkpt><trkpt lat="43.863502935348144" lon="11.339260533507906"><ele>503.0</ele><time>2026-04-29T12:46:53Z</time></trkpt><trkpt lat="43.863418761034936" lon="11.339425244757416"><ele>502.99999999999994</ele><time>2026-04-29T12:46:54Z</time></trkpt><trkpt lat="43.86339535681403" lon="11.339509311037798"><ele>502.99999999999994</ele><time>2026-04-29T12:46:55Z</time></trkpt><trkpt lat="43.86335052104093" lon="11.339606768393686"><ele>503.0</ele><time>2026-04-29T12:46:56Z</time></trkpt><trkpt lat="43.86329479302878" lon="11.33972922635271"><ele>503.0</ele><time>2026-04-29T12:46:57Z</time></trkpt><trkpt lat="43.863255491943505" lon="11.33980166563389"><ele>503.25</ele><time>2026-04-29T12:46:59Z</time></trkpt><trkpt lat="43.86323173046327" lon="11.339931012871167"><ele>503.5</ele><time>2026-04-29T12:47:13Z</time></trkpt><trkpt lat="43.86341629258561" lon="11.340021394135245"><ele>503.75</ele><time>2026-04-29T12:47:14Z</time></trkpt><trkpt lat="43.86354141822459" lon="11.340053836300145"><ele>504.0</ele><time>2026-04-29T12:47:15Z</time></trkpt><trkpt lat="43.86366867405709" lon="11.340089540993736"><ele>505.5</ele><time>2026-04-29T12:47:16Z</time></trkpt><trkpt lat="43.863802400018265" lon="11.340125924845925"><ele>507.0</ele><time>2026-04-29T12:47:17Z</time></trkpt><trkpt lat="43.863937484061836" lon="11.340167433213374"><ele>508.5</ele><time>2026-04-29T12:47:18Z</time></trkpt><trkpt lat="43.864089332669145" lon="11.340212939632671"><ele>510.0</ele><time>2026-04-29T12:47:19Z</time></trkpt><trkpt lat="43.864249936411895" lon="11.340269525200693"><ele>511.33333333333337</ele><time>2026-04-29T12:47:20Z</time></trkpt><trkpt lat="43.86440952495949" lon="11.340335789027856"><ele>512.6666666666667</ele><time>2026-04-29T12:47:21Z</time></trkpt><trkpt lat="43.86457588075031" lon="11.340409540096672"><ele>514.0</ele><time>2026-04-29T12:47:22Z</time></trkpt><trkpt lat="43.86474506402705" lon="11.340486870897365"><ele>515.6666666666667</ele><time>2026-04-29T12:47:23Z</time></trkpt><trkpt lat="43.86491275171316" lon="11.340572779779405"><ele>517.3333333333334</ele><time>2026-04-29T12:47:24Z</time></trkpt><trkpt lat="43.86508102374963" lon="11.340662745470627"><ele>519.0</ele><time>2026-04-29T12:47:25Z</time></trkpt><trkpt lat="43.865233746135715" lon="11.340789987130504"><ele>521.0</ele><time>2026-04-29T12:47:26Z</time></trkpt><trkpt lat="43.86533329290458" lon="11.34100191030852"><ele>523.0</ele><time>2026-04-29T12:47:27Z</time></trkpt><trkpt lat="43.86544006625661" lon="11.341208262791524"><ele>525.0</ele><time>2026-04-29T12:47:28Z</time></trkpt><trkpt lat="43.86556763492017" lon="11.341408814318127"><ele>525.0</ele><time>2026-04-29T12:47:29Z</time></trkpt><trkpt lat="43.86570331196352" lon="11.341603648639742"><ele>525.0</ele><time>2026-04-29T12:47:30Z</time></trkpt><trkpt lat="43.86587405276921" lon="11.341793479060774"><ele>525.0</ele><time>2026-04-29T12:47:31Z</time></trkpt><trkpt lat="43.866063367795974" lon="11.341973962716688"><ele>524.5</ele><time>2026-04-29T12:47:32Z</time></trkpt><trkpt lat="43.86626685285863" lon="11.342145226175216"><ele>524.0</ele><time>2026-04-29T12:47:33Z</time></trkpt><trkpt lat="43.86647483213084" lon="11.342314557985812"><ele>524.0</ele><time>2026-04-29T12:47:34Z</time></trkpt><trkpt lat="43.866659189869125" lon="11.342472638226468"><ele>524.0</ele><time>2026-04-29T12:47:35Z</time></trkpt><trkpt lat="43.8668270728576" lon="11.342625411600434"><ele>524.0</ele><time>2026-04-29T12:47:36Z</time></trkpt><trkpt lat="43.86697878546608" lon="11.342775102326796"><ele>525.0</ele><time>2026-04-29T12:47:37Z</time></trkpt><trkpt lat="43.86713408355401" lon="11.34290770710322"><ele>526.0</ele><time>2026-04-29T12:47:38Z</time></trkpt><trkpt lat="43.86727333884456" lon="11.343040650982433"><ele>527.0</ele><time>2026-04-29T12:47:39Z</time></trkpt><trkpt lat="43.867404398597635" lon="11.343173219893085"><ele>526.0</ele><time>2026-04-29T12:47:40Z</time></trkpt><trkpt lat="43.86753907839329" lon="11.343263387135035"><ele>525.0</ele><time>2026-04-29T12:47:41Z</time></trkpt><trkpt lat="43.867650364360095" lon="11.34337242600683"><ele>524.0</ele><time>2026-04-29T12:47:42Z</time></trkpt><trkpt lat="43.8677480213014" lon="11.343480737933687"><ele>523.0</ele><time>2026-04-29T12:47:43Z</time></trkpt><trkpt lat="43.86782864732847" lon="11.343597892064611"><ele>523.0</ele><time>2026-04-29T12:47:44Z</time></trkpt><trkpt lat="43.86790416379895" lon="11.343712931954828"><ele>523.0</ele><time>2026-04-29T12:47:45Z</time></trkpt><trkpt lat="43.86798157993362" lon="11.34379984542676"><ele>523.0</ele><time>2026-04-29T12:47:46Z</time></trkpt><trkpt lat="43.868073247445565" lon="11.343857614688055"><ele>523.0</ele><time>2026-04-29T12:47:47Z</time></trkpt><trkpt lat="43.868182474576756" lon="11.343893916822976"><ele>523.0</ele><time>2026-04-29T12:47:48Z</time></trkpt><trkpt lat="43.86832736814375" lon="11.34389916334321"><ele>520.3333333333334</ele><time>2026-04-29T12:47:49Z</time></trkpt><trkpt lat="43.86850474597196" lon="11.343875471281745"><ele>517.6666666666666</ele><time>2026-04-29T12:47:50Z</time></trkpt><trkpt lat="43.86870770149825" lon="11.343868533031486"><ele>515.0</ele><time>2026-04-29T12:47:51Z</time></trkpt><trkpt lat="43.86891837779027" lon="11.343846446003752"><ele>515.0</ele><time>2026-04-29T12:47:52Z</time></trkpt><trkpt lat="43.86913112651141" lon="11.343826632029703"><ele>515.0</ele><time>2026-04-29T12:47:53Z</time></trkpt><trkpt lat="43.869333244322554" lon="11.343831776696144"><ele>515.0</ele><time>2026-04-29T12:47:54Z</time></trkpt><trkpt lat="43.86952598632869" lon="11.343896554923301"><ele>511.66666666666663</ele><time>2026-04-29T12:47:55Z</time></trkpt><trkpt lat="43.869705598167215" lon="11.343999635173823"><ele>508.33333333333337</ele><time>2026-04-29T12:47:56Z</time></trkpt><trkpt lat="43.86988151376202" lon="11.344093555217954"><ele>505.0</ele><time>2026-04-29T12:47:57Z</time></trkpt><trkpt lat="43.87004001957283" lon="11.344212991614533"><ele>504.33333333333337</ele><time>2026-04-29T12:47:58Z</time></trkpt><trkpt lat="43.870204577207204" lon="11.344283613287079"><ele>503.66666666666663</ele><time>2026-04-29T12:47:59Z</time></trkpt><trkpt lat="43.87039097819177" lon="11.344294596451858"><ele>503.0</ele><time>2026-04-29T12:48:00Z</time></trkpt><trkpt lat="43.87060142482769" lon="11.344251144363849"><ele>503.0</ele><time>2026-04-29T12:48:01Z</time></trkpt><trkpt lat="43.87083036624538" lon="11.34419061376329"><ele>503.0</ele><time>2026-04-29T12:48:02Z</time></trkpt><trkpt lat="43.87106424772548" lon="11.344147947398746"><ele>502.0</ele><time>2026-04-29T12:48:03Z</time></trkpt><trkpt lat="43.871295171171994" lon="11.344167346955556"><ele>501.0</ele><time>2026-04-29T12:48:04Z</time></trkpt><trkpt lat="43.87153112286415" lon="11.344203889491025"><ele>501.0</ele><time>2026-04-29T12:48:05Z</time></trkpt><trkpt lat="43.87175353520567" lon="11.344231593901968"><ele>501.0</ele><time>2026-04-29T12:48:06Z</time></trkpt><trkpt lat="43.871959118888114" lon="11.344277610414391"><ele>501.0</ele><time>2026-04-29T12:48:07Z</time></trkpt><trkpt lat="43.87216451875702" lon="11.344284658161499"><ele>499.0</ele><time>2026-04-29T12:48:08Z</time></trkpt><trkpt lat="43.87236771113817" lon="11.34421253148101"><ele>497.0</ele><time>2026-04-29T12:48:09Z</time></trkpt><trkpt lat="43.87258163116169" lon="11.344090349997956"><ele>495.0</ele><time>2026-04-29T12:48:10Z</time></trkpt><trkpt lat="43.87279771527195" lon="11.343959227849624"><ele>495.0</ele><time>2026-04-29T12:48:11Z</time></trkpt><trkpt lat="43.87299570737077" lon="11.343814683174415"><ele>495.0</ele><time>2026-04-29T12:48:12Z</time></trkpt><trkpt lat="43.87316552940651" lon="11.343644428618752"><ele>495.0</ele><time>2026-04-29T12:48:13Z</time></trkpt><trkpt lat="43.8733271798822" lon="11.343488269292838"><ele>494.0</ele><time>2026-04-29T12:48:14Z</time></trkpt><trkpt lat="43.873483114272666" lon="11.34337359589273"><ele>493.0</ele><time>2026-04-29T12:48:15Z</time></trkpt><trkpt lat="43.87366254917201" lon="11.343322447192513"><ele>492.0</ele><time>2026-04-29T12:48:16Z</time></trkpt><trkpt lat="43.87386980901644" lon="11.343298406874073"><ele>492.0</ele><time>2026-04-29T12:48:17Z</time></trkpt><trkpt lat="43.87409698199789" lon="11.34325651286928"><ele>492.0</ele><time>2026-04-29T12:48:18Z</time></trkpt><trkpt lat="43.874317572148556" lon="11.343222337684407"><ele>490.66666666666663</ele><time>2026-04-29T12:48:19Z</time></trkpt><trkpt lat="43.87452610057973" lon="11.343186325782806"><ele>489.3333333333333</ele><time>2026-04-29T12:48:20Z</time></trkpt><trkpt lat="43.87471778433292" lon="11.3431667446637"><ele>488.0</ele><time>2026-04-29T12:48:21Z</time></trkpt><trkpt lat="43.87490036732407" lon="11.343158694063035"><ele>488.0</ele><time>2026-04-29T12:48:22Z</time></trkpt><trkpt lat="43.87507951691472" lon="11.343215343962687"><ele>488.0</ele><time>2026-04-29T12:48:23Z</time></trkpt><trkpt lat="43.87526598979268" lon="11.343326903778749"><ele>488.0</ele><time>2026-04-29T12:48:24Z</time></trkpt><trkpt lat="43.87548010527215" lon="11.343453156765158"><ele>488.5</ele><time>2026-04-29T12:48:25Z</time></trkpt><trkpt lat="43.875688513484555" lon="11.34361386551353"><ele>489.0</ele><time>2026-04-29T12:48:26Z</time></trkpt><trkpt lat="43.87587853553177" lon="11.34375027761283"><ele>490.66666666666663</ele><time>2026-04-29T12:48:27Z</time></trkpt><trkpt lat="43.87605051842643" lon="11.343866516063784"><ele>492.3333333333333</ele><time>2026-04-29T12:48:28Z</time></trkpt><trkpt lat="43.876219974240655" lon="11.343962195029345"><ele>494.0</ele><time>2026-04-29T12:48:29Z</time></trkpt><trkpt lat="43.87641419660233" lon="11.344015994126147"><ele>488.0</ele><time>2026-04-29T12:48:30Z</time></trkpt><trkpt lat="43.87663840683071" lon="11.344022723316888"><ele>482.0</ele><time>2026-04-29T12:48:31Z</time></trkpt><trkpt lat="43.87688050219208" lon="11.344017528931648"><ele>482.0</ele><time>2026-04-29T12:48:32Z</time></trkpt><trkpt lat="43.87711780506456" lon="11.344026025908455"><ele>482.0</ele><time>2026-04-29T12:48:33Z</time></trkpt><trkpt lat="43.87733333604723" lon="11.344066859283904"><ele>482.0</ele><time>2026-04-29T12:48:34Z</time></trkpt><trkpt lat="43.877539785921606" lon="11.344114295747676"><ele>482.0</ele><time>2026-04-29T12:48:35Z</time></trkpt><trkpt lat="43.87775987652586" lon="11.344190673315072"><ele>482.0</ele><time>2026-04-29T12:48:36Z</time></trkpt><trkpt lat="43.8779880829948" lon="11.344269299332106"><ele>482.3333333333333</ele><time>2026-04-29T12:48:37Z</time></trkpt><trkpt lat="43.878201877089" lon="11.344366588439023"><ele>482.66666666666663</ele><time>2026-04-29T12:48:38Z</time></trkpt><trkpt lat="43.878398628486906" lon="11.344432459008896"><ele>483.0</ele><time>2026-04-29T12:48:39Z</time></trkpt><trkpt lat="43.87858739553101" lon="11.34443883767904"><ele>483.0</ele><time>2026-04-29T12:48:40Z</time></trkpt><trkpt lat="43.878769949322965" lon="11.344396604402169"><ele>483.0</ele><time>2026-04-29T12:48:41Z</time></trkpt><trkpt lat="43.87893824332607" lon="11.344381058928754"><ele>483.0</ele><time>2026-04-29T12:48:42Z</time></trkpt><trkpt lat="43.87907333496394" lon="11.34446498027112"><ele>483.0</ele><time>2026-04-29T12:48:43Z</time></trkpt><trkpt lat="43.87919273497875" lon="11.344574704797026"><ele>483.0</ele><time>2026-04-29T12:48:44Z</time></trkpt><trkpt lat="43.87928473494793" lon="11.3447422708572"><ele>483.0</ele><time>2026-04-29T12:48:45Z</time></trkpt><trkpt lat="43.879383427099896" lon="11.344963982080214"><ele>482.66666666666663</ele><time>2026-04-29T12:48:46Z</time></trkpt><trkpt lat="43.87949552151998" lon="11.345206144205234"><ele>482.3333333333333</ele><time>2026-04-29T12:48:47Z</time></trkpt><trkpt lat="43.879613130056754" lon="11.345443970826253"><ele>482.0</ele><time>2026-04-29T12:48:48Z</time></trkpt><trkpt lat="43.879753229629415" lon="11.34565508055201"><ele>482.3333333333333</ele><time>2026-04-29T12:48:49Z</time></trkpt><trkpt lat="43.87988918351509" lon="11.345831408160851"><ele>482.66666666666663</ele><time>2026-04-29T12:48:50Z</time></trkpt><trkpt lat="43.88003311379667" lon="11.345979665797143"><ele>483.0</ele><time>2026-04-29T12:48:51Z</time></trkpt><trkpt lat="43.88016446752685" lon="11.346119859689757"><ele>483.0</ele><time>2026-04-29T12:48:52Z</time></trkpt><trkpt lat="43.88028591436945" lon="11.346256918634827"><ele>483.0</ele><time>2026-04-29T12:48:53Z</time></trkpt><trkpt lat="43.88042122935216" lon="11.346366511806833"><ele>483.0</ele><time>2026-04-29T12:48:54Z</time></trkpt><trkpt lat="43.88057174062109" lon="11.346446868912265"><ele>481.33333333333337</ele><time>2026-04-29T12:48:55Z</time></trkpt><trkpt lat="43.880725876052274" lon="11.346500278777098"><ele>479.6666666666667</ele><time>2026-04-29T12:48:56Z</time></trkpt><trkpt lat="43.880898689290625" lon="11.346554825509365"><ele>478.0</ele><time>2026-04-29T12:48:57Z</time></trkpt><trkpt lat="43.881053323355005" lon="11.346617087154575"><ele>478.0</ele><time>2026-04-29T12:48:58Z</time></trkpt><trkpt lat="43.881208874938054" lon="11.346734946531091"><ele>478.0</ele><time>2026-04-29T12:48:59Z</time></trkpt><trkpt lat="43.881361721848194" lon="11.346845895755228"><ele>478.0</ele><time>2026-04-29T12:49:00Z</time></trkpt><trkpt lat="43.88151384978253" lon="11.34693606692964"><ele>478.0</ele><time>2026-04-29T12:49:01Z</time></trkpt><trkpt lat="43.881643092805696" lon="11.347074455582876"><ele>478.0</ele><time>2026-04-29T12:49:02Z</time></trkpt><trkpt lat="43.88176189012581" lon="11.347204157192225"><ele>478.0</ele><time>2026-04-29T12:49:03Z</time></trkpt><trkpt lat="43.88184542558647" lon="11.347354501200506"><ele>476.25</ele><time>2026-04-29T12:49:04Z</time></trkpt><trkpt lat="43.881903007713674" lon="11.34752621797077"><ele>474.5</ele><time>2026-04-29T12:49:05Z</time></trkpt><trkpt lat="43.88193721991312" lon="11.347718095564904"><ele>472.75</ele><time>2026-04-29T12:49:06Z</time></trkpt><trkpt lat="43.88195908338621" lon="11.34791168560501"><ele>471.0</ele><time>2026-04-29T12:49:07Z</time></trkpt><trkpt lat="43.88195747553777" lon="11.348098849148405"><ele>469.0</ele><time>2026-04-29T12:49:08Z</time></trkpt><trkpt lat="43.881992995591254" lon="11.348265827768932"><ele>467.0</ele><time>2026-04-29T12:49:09Z</time></trkpt><trkpt lat="43.881987306540694" lon="11.34845508200166"><ele>465.0</ele><time>2026-04-29T12:49:10Z</time></trkpt><trkpt lat="43.88206625717023" lon="11.348609468542245"><ele>463.0</ele><time>2026-04-29T12:49:11Z</time></trkpt><trkpt lat="43.88216591529504" lon="11.348754183717588"><ele>460.25</ele><time>2026-04-29T12:49:12Z</time></trkpt><trkpt lat="43.88226530943045" lon="11.348898441026158"><ele>457.5</ele><time>2026-04-29T12:49:13Z</time></trkpt><trkpt lat="43.88235419407461" lon="11.349023827111035"><ele>454.75</ele><time>2026-04-29T12:49:14Z</time></trkpt><trkpt lat="43.88244319061908" lon="11.349148623396715"><ele>452.0</ele><time>2026-04-29T12:49:15Z</time></trkpt><trkpt lat="43.882522158612886" lon="11.349269873193485"><ele>452.75</ele><time>2026-04-29T12:49:16Z</time></trkpt><trkpt lat="43.88262470271639" lon="11.34935482767137"><ele>453.5</ele><time>2026-04-29T12:49:17Z</time></trkpt><trkpt lat="43.882745938337166" lon="11.349402285895037"><ele>454.25</ele><time>2026-04-29T12:49:18Z</time></trkpt><trkpt lat="43.88288138256005" lon="11.349454620424503"><ele>455.0</ele><time>2026-04-29T12:49:19Z</time></trkpt><trkpt lat="43.88300903403721" lon="11.349475842483484"><ele>455.0</ele><time>2026-04-29T12:49:20Z</time></trkpt><trkpt lat="43.88312830808339" lon="11.349500361725712"><ele>455.0</ele><time>2026-04-29T12:49:21Z</time></trkpt><trkpt lat="43.8832432481244" lon="11.349528252836308"><ele>455.0</ele><time>2026-04-29T12:49:22Z</time></trkpt><trkpt lat="43.8833531055854" lon="11.349556491357184"><ele>455.0</ele><time>2026-04-29T12:49:23Z</time></trkpt><trkpt lat="43.883463029015005" lon="11.349584588077484"><ele>455.75</ele><time>2026-04-29T12:49:24Z</time></trkpt><trkpt lat="43.88357067492956" lon="11.349607185846935"><ele>456.5</ele><time>2026-04-29T12:49:25Z</time></trkpt><trkpt lat="43.88368021577507" lon="11.349638519086728"><ele>457.25</ele><time>2026-04-29T12:49:26Z</time></trkpt><trkpt lat="43.883792961258514" lon="11.34968948455185"><ele>458.0</ele><time>2026-04-29T12:49:27Z</time></trkpt><trkpt lat="43.883899426518056" lon="11.349782383430155"><ele>455.25</ele><time>2026-04-29T12:49:28Z</time></trkpt><trkpt lat="43.88399196408037" lon="11.349918182933843"><ele>452.5</ele><time>2026-04-29T12:49:29Z</time></trkpt><trkpt lat="43.88409038572033" lon="11.350033997450652"><ele>449.75</ele><time>2026-04-29T12:49:30Z</time></trkpt><trkpt lat="43.88417550359838" lon="11.350143474776374"><ele>447.0</ele><time>2026-04-29T12:49:31Z</time></trkpt><trkpt lat="43.88425729010378" lon="11.35024549914438"><ele>446.0</ele><time>2026-04-29T12:49:32Z</time></trkpt><trkpt lat="43.88433736942999" lon="11.350355910301491"><ele>445.0</ele><time>2026-04-29T12:49:33Z</time></trkpt><trkpt lat="43.88442239335893" lon="11.350470168477608"><ele>444.0</ele><time>2026-04-29T12:49:34Z</time></trkpt><trkpt lat="43.88450887119824" lon="11.350569900197476"><ele>443.0</ele><time>2026-04-29T12:49:35Z</time></trkpt><trkpt lat="43.88459159319634" lon="11.350661508055572"><ele>443.0</ele><time>2026-04-29T12:49:36Z</time></trkpt><trkpt lat="43.884683150547566" lon="11.350740684838124"><ele>442.99999999999994</ele><time>2026-04-29T12:49:37Z</time></trkpt><trkpt lat="43.88477980648832" lon="11.350812566984274"><ele>442.99999999999994</ele><time>2026-04-29T12:49:38Z</time></trkpt><trkpt lat="43.8848802382076" lon="11.350878721310512"><ele>443.0</ele><time>2026-04-29T12:49:39Z</time></trkpt><trkpt lat="43.88498557864298" lon="11.350941235753167"><ele>443.0</ele><time>2026-04-29T12:49:40Z</time></trkpt><trkpt lat="43.88510136858372" lon="11.350987343606871"><ele>444.5</ele><time>2026-04-29T12:49:41Z</time></trkpt><trkpt lat="43.88522369095735" lon="11.3510416057058"><ele>446.0</ele><time>2026-04-29T12:49:42Z</time></trkpt><trkpt lat="43.885341992047906" lon="11.351102218857386"><ele>447.5</ele><time>2026-04-29T12:49:43Z</time></trkpt><trkpt lat="43.88546239223661" lon="11.351177827274263"><ele>449.0</ele><time>2026-04-29T12:49:44Z</time></trkpt><trkpt lat="43.88557438711224" lon="11.351240615573502"><ele>449.0</ele><time>2026-04-29T12:49:45Z</time></trkpt><trkpt lat="43.885693929586225" lon="11.351314988600759"><ele>449.0</ele><time>2026-04-29T12:49:46Z</time></trkpt><trkpt lat="43.88580698822699" lon="11.351389326797523"><ele>449.0</ele><time>2026-04-29T12:49:47Z</time></trkpt><trkpt lat="43.885920662304464" lon="11.351469525645749"><ele>449.0</ele><time>2026-04-29T12:49:48Z</time></trkpt><trkpt lat="43.886073293889616" lon="11.351435463792606"><ele>447.66666666666663</ele><time>2026-04-29T12:49:49Z</time></trkpt><trkpt lat="43.88621060773828" lon="11.351499187208994"><ele>446.33333333333337</ele><time>2026-04-29T12:49:50Z</time></trkpt><trkpt lat="43.88636011247684" lon="11.351562523944548"><ele>445.0</ele><time>2026-04-29T12:49:51Z</time></trkpt><trkpt lat="43.88651878943387" lon="11.351656707426681"><ele>445.0</ele><time>2026-04-29T12:49:52Z</time></trkpt><trkpt lat="43.886658828678634" lon="11.351760375462323"><ele>445.0</ele><time>2026-04-29T12:49:53Z</time></trkpt><trkpt lat="43.88677882909706" lon="11.351881487618732"><ele>445.0</ele><time>2026-04-29T12:49:54Z</time></trkpt><trkpt lat="43.88688993312113" lon="11.351991616751315"><ele>445.0</ele><time>2026-04-29T12:49:55Z</time></trkpt><trkpt lat="43.88701702596679" lon="11.35206112048012"><ele>448.6666666666667</ele><time>2026-04-29T12:49:56Z</time></trkpt><trkpt lat="43.88717762166522" lon="11.352054659067653"><ele>452.33333333333337</ele><time>2026-04-29T12:49:57Z</time></trkpt><trkpt lat="43.88736539331788" lon="11.351991270032986"><ele>456.0</ele><time>2026-04-29T12:49:58Z</time></trkpt><trkpt lat="43.88756858240769" lon="11.351919652035798"><ele>459.0</ele><time>2026-04-29T12:49:59Z</time></trkpt><trkpt lat="43.88775508467758" lon="11.351845775787055"><ele>462.0</ele><time>2026-04-29T12:50:00Z</time></trkpt><trkpt lat="43.88792712115766" lon="11.351781498505522"><ele>465.0</ele><time>2026-04-29T12:50:01Z</time></trkpt><trkpt lat="43.88809335737328" lon="11.35175971709136"><ele>465.0</ele><time>2026-04-29T12:50:02Z</time></trkpt><trkpt lat="43.888256041392154" lon="11.35179931234442"><ele>465.0</ele><time>2026-04-29T12:50:03Z</time></trkpt><trkpt lat="43.888418768569004" lon="11.351896903541267"><ele>465.0</ele><time>2026-04-29T12:50:04Z</time></trkpt><trkpt lat="43.88859242982196" lon="11.35203166046396"><ele>460.0</ele><time>2026-04-29T12:50:05Z</time></trkpt><trkpt lat="43.88873456753715" lon="11.352169276355697"><ele>455.0</ele><time>2026-04-29T12:50:06Z</time></trkpt><trkpt lat="43.88885835302819" lon="11.35234364765576"><ele>450.0</ele><time>2026-04-29T12:50:07Z</time></trkpt><trkpt lat="43.88895857434275" lon="11.352536307898134"><ele>450.0</ele><time>2026-04-29T12:50:08Z</time></trkpt><trkpt lat="43.889050313760514" lon="11.35271444817611"><ele>450.0</ele><time>2026-04-29T12:50:09Z</time></trkpt><trkpt lat="43.889152723100885" lon="11.352874035282863"><ele>450.0</ele><time>2026-04-29T12:50:10Z</time></trkpt><trkpt lat="43.889245153410016" lon="11.353027565660884"><ele>445.66666666666663</ele><time>2026-04-29T12:50:11Z</time></trkpt><trkpt lat="43.88937081906354" lon="11.353142941863302"><ele>441.3333333333333</ele><time>2026-04-29T12:50:12Z</time></trkpt><trkpt lat="43.88950559668378" lon="11.353257880267325"><ele>437.0</ele><time>2026-04-29T12:50:13Z</time></trkpt><trkpt lat="43.88965640823991" lon="11.353347208945301"><ele>437.0</ele><time>2026-04-29T12:50:14Z</time></trkpt><trkpt lat="43.88976521224951" lon="11.353479826451395"><ele>437.0</ele><time>2026-04-29T12:50:15Z</time></trkpt><trkpt lat="43.889887639355166" lon="11.353578356403677"><ele>437.0</ele><time>2026-04-29T12:50:16Z</time></trkpt><trkpt lat="43.8900231343208" lon="11.353644791676551"><ele>437.0</ele><time>2026-04-29T12:50:17Z</time></trkpt><trkpt lat="43.890167212895435" lon="11.35367946109444"><ele>440.0</ele><time>2026-04-29T12:50:18Z</time></trkpt><trkpt lat="43.89031806137201" lon="11.35369214117862"><ele>443.0</ele><time>2026-04-29T12:50:19Z</time></trkpt><trkpt lat="43.890471362006615" lon="11.3537025197645"><ele>446.0</ele><time>2026-04-29T12:50:20Z</time></trkpt><trkpt lat="43.890618548326735" lon="11.353715356596595"><ele>446.0</ele><time>2026-04-29T12:50:21Z</time></trkpt><trkpt lat="43.8907625994128" lon="11.35375119205008"><ele>446.0</ele><time>2026-04-29T12:50:22Z</time></trkpt><trkpt lat="43.89088774900105" lon="11.353834491729272"><ele>446.0</ele><time>2026-04-29T12:50:23Z</time></trkpt><trkpt lat="43.89098618193382" lon="11.353959469929508"><ele>446.0</ele><time>2026-04-29T12:50:24Z</time></trkpt><trkpt lat="43.89106055794815" lon="11.354123939505973"><ele>442.66666666666663</ele><time>2026-04-29T12:50:25Z</time></trkpt><trkpt lat="43.89112232828924" lon="11.35434386740557"><ele>439.33333333333337</ele><time>2026-04-29T12:50:26Z</time></trkpt><trkpt lat="43.89119401990851" lon="11.354609574383334"><ele>436.0</ele><time>2026-04-29T12:50:27Z</time></trkpt><trkpt lat="43.89126711442472" lon="11.354858503221342"><ele>429.33333333333337</ele><time>2026-04-29T12:50:28Z</time></trkpt><trkpt lat="43.891354134824894" lon="11.355054306313596"><ele>422.66666666666663</ele><time>2026-04-29T12:50:29Z</time></trkpt><trkpt lat="43.891475907565976" lon="11.355187207363477"><ele>416.0</ele><time>2026-04-29T12:50:30Z</time></trkpt><trkpt lat="43.89164071248858" lon="11.355272198488702"><ele>417.66666666666663</ele><time>2026-04-29T12:50:31Z</time></trkpt><trkpt lat="43.89184570403557" lon="11.35532830699529"><ele>419.33333333333337</ele><time>2026-04-29T12:50:32Z</time></trkpt><trkpt lat="43.89207459458683" lon="11.355321416562136"><ele>421.0</ele><time>2026-04-29T12:50:33Z</time></trkpt><trkpt lat="43.892315923828626" lon="11.355274104767854"><ele>421.0</ele><time>2026-04-29T12:50:34Z</time></trkpt><trkpt lat="43.89254566335327" lon="11.355202765781007"><ele>421.0</ele><time>2026-04-29T12:50:35Z</time></trkpt><trkpt lat="43.89276310823372" lon="11.35514455904336"><ele>415.0</ele><time>2026-04-29T12:50:36Z</time></trkpt><trkpt lat="43.892977650930334" lon="11.35509617333233"><ele>409.0</ele><time>2026-04-29T12:50:37Z</time></trkpt><trkpt lat="43.89318398826322" lon="11.355074792880592"><ele>403.0</ele><time>2026-04-29T12:50:38Z</time></trkpt><trkpt lat="43.89338022447728" lon="11.355084026046422"><ele>403.0</ele><time>2026-04-29T12:50:39Z</time></trkpt><trkpt lat="43.89353442084191" lon="11.355116897091689"><ele>403.0</ele><time>2026-04-29T12:50:40Z</time></trkpt><trkpt lat="43.893653732637254" lon="11.35517399471088"><ele>403.0</ele><time>2026-04-29T12:50:41Z</time></trkpt><trkpt lat="43.89373959715872" lon="11.355272242204716"><ele>403.0</ele><time>2026-04-29T12:50:42Z</time></trkpt><trkpt lat="43.893802430253615" lon="11.35542284917088"><ele>400.25</ele><time>2026-04-29T12:50:43Z</time></trkpt><trkpt lat="43.893856035338096" lon="11.355605449414107"><ele>397.5</ele><time>2026-04-29T12:50:44Z</time></trkpt><trkpt lat="43.893915036303596" lon="11.355781355059396"><ele>394.75</ele><time>2026-04-29T12:50:45Z</time></trkpt><trkpt lat="43.894014844689224" lon="11.355946003693898"><ele>392.0</ele><time>2026-04-29T12:50:46Z</time></trkpt><trkpt lat="43.89416054504174" lon="11.356117560820802"><ele>392.3333333333333</ele><time>2026-04-29T12:50:47Z</time></trkpt><trkpt lat="43.89431511194916" lon="11.35628867481698"><ele>392.66666666666663</ele><time>2026-04-29T12:50:48Z</time></trkpt><trkpt lat="43.89445117274435" lon="11.356448686753422"><ele>393.0</ele><time>2026-04-29T12:50:49Z</time></trkpt><trkpt lat="43.894557421943574" lon="11.356618704830492"><ele>390.0</ele><time>2026-04-29T12:50:50Z</time></trkpt><trkpt lat="43.89463603081178" lon="11.356770066033093"><ele>387.0</ele><time>2026-04-29T12:50:51Z</time></trkpt><trkpt lat="43.894705346124525" lon="11.356882720309347"><ele>384.0</ele><time>2026-04-29T12:50:52Z</time></trkpt><trkpt lat="43.89479706018919" lon="11.356951738345336"><ele>381.0</ele><time>2026-04-29T12:50:53Z</time></trkpt><trkpt lat="43.89491244731959" lon="11.356955060081352"><ele>381.0</ele><time>2026-04-29T12:50:54Z</time></trkpt><trkpt lat="43.89505041937768" lon="11.356898292143976"><ele>381.0</ele><time>2026-04-29T12:50:55Z</time></trkpt><trkpt lat="43.89520238122076" lon="11.356805795674159"><ele>381.0</ele><time>2026-04-29T12:50:56Z</time></trkpt><trkpt lat="43.895363760976636" lon="11.356813423649047"><ele>380.0</ele><time>2026-04-29T12:50:57Z</time></trkpt><trkpt lat="43.895527742425784" lon="11.356856402533413"><ele>379.0</ele><time>2026-04-29T12:50:58Z</time></trkpt><trkpt lat="43.895699036369756" lon="11.3568941039138"><ele>378.0</ele><time>2026-04-29T12:50:59Z</time></trkpt><trkpt lat="43.895859854270185" lon="11.356941753906593"><ele>376.25</ele><time>2026-04-29T12:51:00Z</time></trkpt><trkpt lat="43.89601112894376" lon="11.35690632346038"><ele>374.5</ele><time>2026-04-29T12:51:01Z</time></trkpt><trkpt lat="43.8961458083534" lon="11.35686088301621"><ele>372.75</ele><time>2026-04-29T12:51:02Z</time></trkpt><trkpt lat="43.896246820778146" lon="11.356821313488537"><ele>371.0</ele><time>2026-04-29T12:51:03Z</time></trkpt><trkpt lat="43.896344463045224" lon="11.35678837665542"><ele>371.0</ele><time>2026-04-29T12:51:04Z</time></trkpt><trkpt lat="43.896446052029575" lon="11.356755041461513"><ele>371.0</ele><time>2026-04-29T12:51:05Z</time></trkpt><trkpt lat="43.89654852430071" lon="11.356725305129382"><ele>371.0</ele><time>2026-04-29T12:51:06Z</time></trkpt><trkpt lat="43.89665995074378" lon="11.356693724131215"><ele>371.0</ele><time>2026-04-29T12:51:07Z</time></trkpt><trkpt lat="43.89678433564594" lon="11.356652470121416"><ele>369.25</ele><time>2026-04-29T12:51:08Z</time></trkpt><trkpt lat="43.89692417194858" lon="11.356611940096078"><ele>367.5</ele><time>2026-04-29T12:51:09Z</time></trkpt><trkpt lat="43.897066995939525" lon="11.356570426304161"><ele>365.75</ele><time>2026-04-29T12:51:10Z</time></trkpt><trkpt lat="43.89721426644033" lon="11.356522206741445"><ele>364.0</ele><time>2026-04-29T12:51:11Z</time></trkpt><trkpt lat="43.8973546274096" lon="11.356477059082366"><ele>364.0</ele><time>2026-04-29T12:51:12Z</time></trkpt><trkpt lat="43.8974916422143" lon="11.356443068710863"><ele>364.0</ele><time>2026-04-29T12:51:13Z</time></trkpt><trkpt lat="43.89763464199481" lon="11.35643747922986"><ele>364.0</ele><time>2026-04-29T12:51:14Z</time></trkpt><trkpt lat="43.897767247672796" lon="11.356457910924817"><ele>364.0</ele><time>2026-04-29T12:51:15Z</time></trkpt><trkpt lat="43.897897307129" lon="11.356520675783596"><ele>362.0</ele><time>2026-04-29T12:51:16Z</time></trkpt><trkpt lat="43.898016865573986" lon="11.356612399979776"><ele>360.0</ele><time>2026-04-29T12:51:17Z</time></trkpt><trkpt lat="43.89809516212741" lon="11.356755785599752"><ele>358.0</ele><time>2026-04-29T12:51:18Z</time></trkpt><trkpt lat="43.898147020495294" lon="11.356909172505587"><ele>356.0</ele><time>2026-04-29T12:51:19Z</time></trkpt><trkpt lat="43.89816488219238" lon="11.357081687506689"><ele>354.33333333333337</ele><time>2026-04-29T12:51:20Z</time></trkpt><trkpt lat="43.89816653901223" lon="11.357291699286884"><ele>352.6666666666667</ele><time>2026-04-29T12:51:21Z</time></trkpt><trkpt lat="43.89816947136649" lon="11.357519752876772"><ele>351.0</ele><time>2026-04-29T12:51:22Z</time></trkpt><trkpt lat="43.89813932965281" lon="11.357734992958775"><ele>351.0</ele><time>2026-04-29T12:51:23Z</time></trkpt><trkpt lat="43.898105519275234" lon="11.35792586778656"><ele>351.0</ele><time>2026-04-29T12:51:24Z</time></trkpt><trkpt lat="43.89805105436446" lon="11.358098824786598"><ele>351.0</ele><time>2026-04-29T12:51:25Z</time></trkpt><trkpt lat="43.897954627622056" lon="11.358230110105605"><ele>351.0</ele><time>2026-04-29T12:51:26Z</time></trkpt><trkpt lat="43.89784257125823" lon="11.358335121197031"><ele>350.75</ele><time>2026-04-29T12:51:27Z</time></trkpt><trkpt lat="43.89771989248349" lon="11.358446674483544"><ele>350.5</ele><time>2026-04-29T12:51:28Z</time></trkpt><trkpt lat="43.897573792024055" lon="11.358490689850454"><ele>350.25</ele><time>2026-04-29T12:51:29Z</time></trkpt><trkpt lat="43.89743217362604" lon="11.358505663274327"><ele>350.0</ele><time>2026-04-29T12:51:30Z</time></trkpt><trkpt lat="43.89728650897649" lon="11.358481298882529"><ele>350.0</ele><time>2026-04-29T12:51:31Z</time></trkpt><trkpt lat="43.897148433504555" lon="11.358457531971327"><ele>350.0</ele><time>2026-04-29T12:51:32Z</time></trkpt><trkpt lat="43.89702114270202" lon="11.358446531718984"><ele>350.0</ele><time>2026-04-29T12:51:33Z</time></trkpt><trkpt lat="43.89691533396862" lon="11.358463463715108"><ele>350.0</ele><time>2026-04-29T12:51:34Z</time></trkpt><trkpt lat="43.89684135649108" lon="11.358531073306644"><ele>350.0</ele><time>2026-04-29T12:51:35Z</time></trkpt><trkpt lat="43.896811803176384" lon="11.358638383961228"><ele>350.0</ele><time>2026-04-29T12:51:36Z</time></trkpt><trkpt lat="43.89683717399321" lon="11.358763589061851"><ele>350.0</ele><time>2026-04-29T12:51:37Z</time></trkpt><trkpt lat="43.896922277493346" lon="11.358878060768165"><ele>350.0</ele><time>2026-04-29T12:51:38Z</time></trkpt><trkpt lat="43.89704060616402" lon="11.358986059012294"><ele>350.0</ele><time>2026-04-29T12:51:39Z</time></trkpt><trkpt lat="43.897192369369876" lon="11.359121268844648"><ele>347.6666666666667</ele><time>2026-04-29T12:51:40Z</time></trkpt><trkpt lat="43.89735185677091" lon="11.359280720587776"><ele>345.3333333333333</ele><time>2026-04-29T12:51:41Z</time></trkpt><trkpt lat="43.897502799652614" lon="11.359437833951077"><ele>343.0</ele><time>2026-04-29T12:51:42Z</time></trkpt><trkpt lat="43.897645112771364" lon="11.359573207942288"><ele>341.66666666666663</ele><time>2026-04-29T12:51:43Z</time></trkpt><trkpt lat="43.897789516111445" lon="11.35967148401353"><ele>340.3333333333333</ele><time>2026-04-29T12:51:44Z</time></trkpt><trkpt lat="43.89794049284263" lon="11.359726702127437"><ele>339.0</ele><time>2026-04-29T12:51:45Z</time></trkpt><trkpt lat="43.89809783687551" lon="11.359716979259508"><ele>339.0</ele><time>2026-04-29T12:51:46Z</time></trkpt><trkpt lat="43.898256433537576" lon="11.35963828813846"><ele>339.0</ele><time>2026-04-29T12:51:47Z</time></trkpt><trkpt lat="43.89842984207644" lon="11.35951469901855"><ele>339.0</ele><time>2026-04-29T12:51:48Z</time></trkpt><trkpt lat="43.89860272074237" lon="11.359391361152921"><ele>335.3333333333333</ele><time>2026-04-29T12:51:49Z</time></trkpt><trkpt lat="43.89875884974874" lon="11.359290908963489"><ele>331.66666666666663</ele><time>2026-04-29T12:51:50Z</time></trkpt><trkpt lat="43.89889200142099" lon="11.359164434561594"><ele>328.0</ele><time>2026-04-29T12:51:51Z</time></trkpt><trkpt lat="43.89901022911026" lon="11.35898934017699"><ele>329.66666666666663</ele><time>2026-04-29T12:51:52Z</time></trkpt><trkpt lat="43.899119390112084" lon="11.358754451938605"><ele>331.3333333333333</ele><time>2026-04-29T12:51:53Z</time></trkpt><trkpt lat="43.89922092894741" lon="11.35848881144033"><ele>333.0</ele><time>2026-04-29T12:51:54Z</time></trkpt><trkpt lat="43.899333168440876" lon="11.358226603157767"><ele>330.3333333333333</ele><time>2026-04-29T12:51:55Z</time></trkpt><trkpt lat="43.89944680163127" lon="11.357986353648466"><ele>327.66666666666663</ele><time>2026-04-29T12:51:56Z</time></trkpt><trkpt lat="43.89955376295475" lon="11.357760019321239"><ele>325.0</ele><time>2026-04-29T12:51:57Z</time></trkpt><trkpt lat="43.899653779965654" lon="11.357550290637084"><ele>325.0</ele><time>2026-04-29T12:51:58Z</time></trkpt><trkpt lat="43.8997580190926" lon="11.357356383766941"><ele>325.0</ele><time>2026-04-29T12:51:59Z</time></trkpt><trkpt lat="43.89990428685085" lon="11.357219019259917"><ele>325.0</ele><time>2026-04-29T12:52:00Z</time></trkpt><trkpt lat="43.9000779853717" lon="11.35712094880529"><ele>326.3333333333333</ele><time>2026-04-29T12:52:01Z</time></trkpt><trkpt lat="43.90028224200608" lon="11.357053320701777"><ele>327.6666666666667</ele><time>2026-04-29T12:52:02Z</time></trkpt><trkpt lat="43.90048822941438" lon="11.35698683284289"><ele>329.0</ele><time>2026-04-29T12:52:03Z</time></trkpt><trkpt lat="43.90066358708357" lon="11.356954932553787"><ele>329.0</ele><time>2026-04-29T12:52:04Z</time></trkpt><trkpt lat="43.90082110534507" lon="11.356890027466264"><ele>329.0</ele><time>2026-04-29T12:52:05Z</time></trkpt><trkpt lat="43.90098312907074" lon="11.356741521134355"><ele>329.0</ele><time>2026-04-29T12:52:06Z</time></trkpt><trkpt lat="43.9011379702165" lon="11.35661212799969"><ele>326.25</ele><time>2026-04-29T12:52:07Z</time></trkpt><trkpt lat="43.9012208963398" lon="11.356514265561232"><ele>323.5</ele><time>2026-04-29T12:52:08Z</time></trkpt><trkpt lat="43.90132926042215" lon="11.356515993691511"><ele>320.75</ele><time>2026-04-29T12:52:09Z</time></trkpt><trkpt lat="43.90145621521249" lon="11.35653117274743"><ele>318.0</ele><time>2026-04-29T12:52:10Z</time></trkpt><trkpt lat="43.90163996464757" lon="11.35650846435949"><ele>314.6666666666667</ele><time>2026-04-29T12:52:11Z</time></trkpt><trkpt lat="43.90184954153287" lon="11.356443791355137"><ele>311.33333333333337</ele><time>2026-04-29T12:52:12Z</time></trkpt><trkpt lat="43.90207501099858" lon="11.35640134137273"><ele>308.0</ele><time>2026-04-29T12:52:13Z</time></trkpt><trkpt lat="43.90227830434021" lon="11.356355271263457"><ele>309.6666666666667</ele><time>2026-04-29T12:52:14Z</time></trkpt><trkpt lat="43.90247392304254" lon="11.356318065843885"><ele>311.3333333333333</ele><time>2026-04-29T12:52:15Z</time></trkpt><trkpt lat="43.902668887017185" lon="11.35630210475629"><ele>313.0</ele><time>2026-04-29T12:52:16Z</time></trkpt><trkpt lat="43.9028487170562" lon="11.356359312503493"><ele>310.3333333333333</ele><time>2026-04-29T12:52:17Z</time></trkpt><trkpt lat="43.903025176208224" lon="11.356438296693188"><ele>307.6666666666667</ele><time>2026-04-29T12:52:18Z</time></trkpt><trkpt lat="43.90317608929418" lon="11.356530925036727"><ele>305.0</ele><time>2026-04-29T12:52:19Z</time></trkpt><trkpt lat="43.90333889974528" lon="11.356656963033187"><ele>303.6666666666667</ele><time>2026-04-29T12:52:20Z</time></trkpt><trkpt lat="43.90348307558656" lon="11.356781208444936"><ele>302.3333333333333</ele><time>2026-04-29T12:52:21Z</time></trkpt><trkpt lat="43.90363761394859" lon="11.356868552958977"><ele>301.0</ele><time>2026-04-29T12:52:22Z</time></trkpt><trkpt lat="43.903795052036635" lon="11.356930407510335"><ele>301.0</ele><time>2026-04-29T12:52:23Z</time></trkpt><trkpt lat="43.90394540656956" lon="11.3569614931115"><ele>301.0</ele><time>2026-04-29T12:52:24Z</time></trkpt><trkpt lat="43.904093887557856" lon="11.356944143605764"><ele>301.0</ele><time>2026-04-29T12:52:25Z</time></trkpt><trkpt lat="43.90426416404779" lon="11.356865773016066"><ele>300.3333333333333</ele><time>2026-04-29T12:52:26Z</time></trkpt><trkpt lat="43.904451861956666" lon="11.356735256872115"><ele>299.6666666666667</ele><time>2026-04-29T12:52:27Z</time></trkpt><trkpt lat="43.90462211052099" lon="11.356604289878343"><ele>299.0</ele><time>2026-04-29T12:52:28Z</time></trkpt><trkpt lat="43.90477157076624" lon="11.356491431785866"><ele>300.33333333333337</ele><time>2026-04-29T12:52:29Z</time></trkpt><trkpt lat="43.904892613940994" lon="11.356366193522627"><ele>301.6666666666667</ele><time>2026-04-29T12:52:30Z</time></trkpt><trkpt lat="43.90499266021578" lon="11.356189774385129"><ele>303.0</ele><time>2026-04-29T12:52:31Z</time></trkpt><trkpt lat="43.90507568277989" lon="11.355950180415649"><ele>301.6666666666667</ele><time>2026-04-29T12:52:32Z</time></trkpt><trkpt lat="43.9051581128101" lon="11.355667880990211"><ele>300.33333333333337</ele><time>2026-04-29T12:52:33Z</time></trkpt><trkpt lat="43.9052551250619" lon="11.355384720998813"><ele>299.0</ele><time>2026-04-29T12:52:34Z</time></trkpt><trkpt lat="43.90534481700721" lon="11.355126231478401"><ele>297.0</ele><time>2026-04-29T12:52:35Z</time></trkpt><trkpt lat="43.905412903749074" lon="11.354863239784692"><ele>295.0</ele><time>2026-04-29T12:52:36Z</time></trkpt><trkpt lat="43.90547198806301" lon="11.354597186216829"><ele>293.0</ele><time>2026-04-29T12:52:37Z</time></trkpt><trkpt lat="43.90554613877303" lon="11.35435440214352"><ele>293.0</ele><time>2026-04-29T12:52:38Z</time></trkpt><trkpt lat="43.90564642659706" lon="11.35414706474827"><ele>293.0</ele><time>2026-04-29T12:52:39Z</time></trkpt><trkpt lat="43.90576459201086" lon="11.353953338461446"><ele>293.0</ele><time>2026-04-29T12:52:40Z</time></trkpt><trkpt lat="43.90590085571461" lon="11.35379957623882"><ele>291.0</ele><time>2026-04-29T12:52:41Z</time></trkpt><trkpt lat="43.906044280098385" lon="11.353677405385199"><ele>289.0</ele><time>2026-04-29T12:52:42Z</time></trkpt><trkpt lat="43.90619256419013" lon="11.353584803055004"><ele>287.0</ele><time>2026-04-29T12:52:43Z</time></trkpt><trkpt lat="43.90639744428985" lon="11.353506323480886"><ele>287.0</ele><time>2026-04-29T12:52:44Z</time></trkpt><trkpt lat="43.90658330038752" lon="11.353475457545695"><ele>287.0</ele><time>2026-04-29T12:52:45Z</time></trkpt><trkpt lat="43.9067850232144" lon="11.353466499098618"><ele>287.0</ele><time>2026-04-29T12:52:46Z</time></trkpt><trkpt lat="43.90700977595917" lon="11.353469408481848"><ele>287.0</ele><time>2026-04-29T12:52:47Z</time></trkpt><trkpt lat="43.90725570026169" lon="11.353449065506968"><ele>287.0</ele><time>2026-04-29T12:52:48Z</time></trkpt><trkpt lat="43.90750037007414" lon="11.353455681208299"><ele>285.0</ele><time>2026-04-29T12:52:49Z</time></trkpt><trkpt lat="43.90774135114887" lon="11.353454050525066"><ele>283.0</ele><time>2026-04-29T12:52:50Z</time></trkpt><trkpt lat="43.90798266084811" lon="11.35345257359039"><ele>283.0</ele><time>2026-04-29T12:52:51Z</time></trkpt><trkpt lat="43.90821734942296" lon="11.353457523215491"><ele>283.0</ele><time>2026-04-29T12:52:52Z</time></trkpt><trkpt lat="43.908459125758014" lon="11.353457857663624"><ele>282.5</ele><time>2026-04-29T12:52:53Z</time></trkpt><trkpt lat="43.908702403678" lon="11.35345353791841"><ele>282.0</ele><time>2026-04-29T12:52:54Z</time></trkpt><trkpt lat="43.908947520604734" lon="11.353451837698971"><ele>282.0</ele><time>2026-04-29T12:52:55Z</time></trkpt><trkpt lat="43.90918911959892" lon="11.353457288480772"><ele>282.0</ele><time>2026-04-29T12:52:56Z</time></trkpt><trkpt lat="43.90942995574031" lon="11.35346288339881"><ele>287.0</ele><time>2026-04-29T12:52:57Z</time></trkpt><trkpt lat="43.90966513712438" lon="11.35352720634088"><ele>292.0</ele><time>2026-04-29T12:52:58Z</time></trkpt><trkpt lat="43.909892114306224" lon="11.353604282451977"><ele>289.66666666666663</ele><time>2026-04-29T12:52:59Z</time></trkpt><trkpt lat="43.910109757492286" lon="11.353677722169492"><ele>287.3333333333333</ele><time>2026-04-29T12:53:00Z</time></trkpt><trkpt lat="43.910311626959135" lon="11.353783060284485"><ele>285.0</ele><time>2026-04-29T12:53:01Z</time></trkpt><trkpt lat="43.9105078685009" lon="11.35386801500847"><ele>281.6666666666667</ele><time>2026-04-29T12:53:02Z</time></trkpt><trkpt lat="43.910705451685786" lon="11.353923392297729"><ele>278.33333333333337</ele><time>2026-04-29T12:53:03Z</time></trkpt><trkpt lat="43.910917250418564" lon="11.353940024905489"><ele>275.0</ele><time>2026-04-29T12:53:04Z</time></trkpt><trkpt lat="43.91113918151995" lon="11.35389549129171"><ele>276.0</ele><time>2026-04-29T12:53:05Z</time></trkpt><trkpt lat="43.911366816845735" lon="11.353799771601862"><ele>277.0</ele><time>2026-04-29T12:53:06Z</time></trkpt><trkpt lat="43.911593279781606" lon="11.353686481126621"><ele>277.3333333333333</ele><time>2026-04-29T12:53:07Z</time></trkpt><trkpt lat="43.91180810003828" lon="11.353581808018186"><ele>277.6666666666667</ele><time>2026-04-29T12:53:08Z</time></trkpt><trkpt lat="43.91201188086829" lon="11.35348941717276"><ele>278.0</ele><time>2026-04-29T12:53:09Z</time></trkpt><trkpt lat="43.912204922601816" lon="11.353402013652246"><ele>278.0</ele><time>2026-04-29T12:53:10Z</time></trkpt><trkpt lat="43.91238649346842" lon="11.353320346800913"><ele>278.0</ele><time>2026-04-29T12:53:11Z</time></trkpt><trkpt lat="43.91256956880869" lon="11.353252971582586"><ele>278.0</ele><time>2026-04-29T12:53:12Z</time></trkpt><trkpt lat="43.912767854096636" lon="11.35321854742956"><ele>276.0</ele><time>2026-04-29T12:53:13Z</time></trkpt><trkpt lat="43.912980764661654" lon="11.353238204284036"><ele>274.0</ele><time>2026-04-29T12:53:14Z</time></trkpt><trkpt lat="43.91319664921024" lon="11.353290750128915"><ele>272.0</ele><time>2026-04-29T12:53:15Z</time></trkpt><trkpt lat="43.91339533580922" lon="11.353335689565457"><ele>273.0</ele><time>2026-04-29T12:53:16Z</time></trkpt><trkpt lat="43.913580173817046" lon="11.353362693959548"><ele>274.0</ele><time>2026-04-29T12:53:17Z</time></trkpt><trkpt lat="43.91376082029554" lon="11.3533279633127"><ele>275.0</ele><time>2026-04-29T12:53:18Z</time></trkpt><trkpt lat="43.913952246433745" lon="11.353243366116432"><ele>275.0</ele><time>2026-04-29T12:53:19Z</time></trkpt><trkpt lat="43.91414543728771" lon="11.353175575291504"><ele>275.0</ele><time>2026-04-29T12:53:20Z</time></trkpt><trkpt lat="43.9143350837168" lon="11.353182353318008"><ele>275.0</ele><time>2026-04-29T12:53:21Z</time></trkpt><trkpt lat="43.914514101878275" lon="11.35324364040591"><ele>273.6666666666667</ele><time>2026-04-29T12:53:22Z</time></trkpt><trkpt lat="43.91468199386198" lon="11.353289442743922"><ele>272.3333333333333</ele><time>2026-04-29T12:53:23Z</time></trkpt><trkpt lat="43.9148759292876" lon="11.353259082869632"><ele>271.0</ele><time>2026-04-29T12:53:24Z</time></trkpt><trkpt lat="43.91507295645813" lon="11.35316106768817"><ele>272.0</ele><time>2026-04-29T12:53:25Z</time></trkpt><trkpt lat="43.91530717305631" lon="11.353051905326971"><ele>273.0</ele><time>2026-04-29T12:53:26Z</time></trkpt><trkpt lat="43.915525219973695" lon="11.352952059024426"><ele>273.0</ele><time>2026-04-29T12:53:27Z</time></trkpt><trkpt lat="43.91572773367154" lon="11.352863708743579"><ele>273.0</ele><time>2026-04-29T12:53:28Z</time></trkpt><trkpt lat="43.91591360062884" lon="11.352783384792513"><ele>273.0</ele><time>2026-04-29T12:53:29Z</time></trkpt><trkpt lat="43.91608914404301" lon="11.352710421194441"><ele>275.3333333333333</ele><time>2026-04-29T12:53:30Z</time></trkpt><trkpt lat="43.91626342184576" lon="11.35265521830808"><ele>277.66666666666663</ele><time>2026-04-29T12:53:31Z</time></trkpt><trkpt lat="43.91644262908033" lon="11.352651134888106"><ele>280.0</ele><time>2026-04-29T12:53:32Z</time></trkpt><trkpt lat="43.91661754659265" lon="11.35272899407743"><ele>283.0</ele><time>2026-04-29T12:53:33Z</time></trkpt><trkpt lat="43.916792971106" lon="11.352868500520888"><ele>286.0</ele><time>2026-04-29T12:53:34Z</time></trkpt><trkpt lat="43.916950465134114" lon="11.353030034142138"><ele>289.0</ele><time>2026-04-29T12:53:35Z</time></trkpt><trkpt lat="43.91709857790647" lon="11.353180480412462"><ele>282.3333333333333</ele><time>2026-04-29T12:53:36Z</time></trkpt><trkpt lat="43.91725010634308" lon="11.353275439853153"><ele>275.6666666666667</ele><time>2026-04-29T12:53:37Z</time></trkpt><trkpt lat="43.91742444393662" lon="11.353315372978436"><ele>269.0</ele><time>2026-04-29T12:53:38Z</time></trkpt><trkpt lat="43.917634593076635" lon="11.353316624926888"><ele>267.0</ele><time>2026-04-29T12:53:39Z</time></trkpt><trkpt lat="43.9178501191416" lon="11.353321829454694"><ele>265.0</ele><time>2026-04-29T12:53:40Z</time></trkpt><trkpt lat="43.918053596480476" lon="11.35332651733278"><ele>263.0</ele><time>2026-04-29T12:53:41Z</time></trkpt><trkpt lat="43.918243425092115" lon="11.353347763475865"><ele>262.6666666666667</ele><time>2026-04-29T12:53:42Z</time></trkpt><trkpt lat="43.91842904812261" lon="11.353368213322657"><ele>262.3333333333333</ele><time>2026-04-29T12:53:43Z</time></trkpt><trkpt lat="43.91860726033188" lon="11.353387273053784"><ele>262.0</ele><time>2026-04-29T12:53:44Z</time></trkpt><trkpt lat="43.9187810625595" lon="11.353402940128356"><ele>262.0</ele><time>2026-04-29T12:53:45Z</time></trkpt><trkpt lat="43.918946062179025" lon="11.353414410098491"><ele>262.0</ele><time>2026-04-29T12:53:46Z</time></trkpt><trkpt lat="43.91910697246824" lon="11.353432566744324"><ele>262.0</ele><time>2026-04-29T12:53:47Z</time></trkpt><trkpt lat="43.91925650448384" lon="11.353411766224253"><ele>262.3333333333333</ele><time>2026-04-29T12:53:48Z</time></trkpt><trkpt lat="43.91939621432909" lon="11.35333890697006"><ele>262.6666666666667</ele><time>2026-04-29T12:53:49Z</time></trkpt><trkpt lat="43.91952636748723" lon="11.353214467819479"><ele>263.0</ele><time>2026-04-29T12:53:50Z</time></trkpt><trkpt lat="43.91964892862073" lon="11.35303766429821"><ele>263.0</ele><time>2026-04-29T12:53:51Z</time></trkpt><trkpt lat="43.91976673605487" lon="11.352814157578676"><ele>263.0</ele><time>2026-04-29T12:53:52Z</time></trkpt><trkpt lat="43.91987751325081" lon="11.352574932605089"><ele>263.0</ele><time>2026-04-29T12:53:53Z</time></trkpt><trkpt lat="43.91998163306598" lon="11.352320060221158"><ele>261.33333333333337</ele><time>2026-04-29T12:53:54Z</time></trkpt><trkpt lat="43.9200661213053" lon="11.35204951925095"><ele>259.6666666666667</ele><time>2026-04-29T12:53:55Z</time></trkpt><trkpt lat="43.920138264546544" lon="11.351768138196467"><ele>258.0</ele><time>2026-04-29T12:53:56Z</time></trkpt><trkpt lat="43.92020698363151" lon="11.351508619747095"><ele>257.0</ele><time>2026-04-29T12:53:57Z</time></trkpt><trkpt lat="43.920275588047666" lon="11.351274855612951"><ele>256.0</ele><time>2026-04-29T12:53:58Z</time></trkpt><trkpt lat="43.920339818781834" lon="11.351051324578217"><ele>255.0</ele><time>2026-04-29T12:53:59Z</time></trkpt><trkpt lat="43.92041629791572" lon="11.350843738600496"><ele>255.0</ele><time>2026-04-29T12:54:00Z</time></trkpt><trkpt lat="43.92051880264547" lon="11.350672428889977"><ele>255.0</ele><time>2026-04-29T12:54:01Z</time></trkpt><trkpt lat="43.92064864037822" lon="11.350534713208223"><ele>255.0</ele><time>2026-04-29T12:54:02Z</time></trkpt><trkpt lat="43.92080887267506" lon="11.350413328732587"><ele>254.33333333333331</ele><time>2026-04-29T12:54:03Z</time></trkpt><trkpt lat="43.92099962165764" lon="11.350314600647167"><ele>253.66666666666666</ele><time>2026-04-29T12:54:04Z</time></trkpt><trkpt lat="43.921186104162" lon="11.350196747515463"><ele>253.0</ele><time>2026-04-29T12:54:05Z</time></trkpt><trkpt lat="43.921358710281964" lon="11.35008118274969"><ele>253.0</ele><time>2026-04-29T12:54:06Z</time></trkpt><trkpt lat="43.92151208469221" lon="11.349977512594112"><ele>253.0</ele><time>2026-04-29T12:54:07Z</time></trkpt><trkpt lat="43.921651755679534" lon="11.349881315902246"><ele>253.0</ele><time>2026-04-29T12:54:08Z</time></trkpt><trkpt lat="43.92178726692937" lon="11.349808807560773"><ele>253.0</ele><time>2026-04-29T12:54:09Z</time></trkpt><trkpt lat="43.92193741795537" lon="11.349764042192858"><ele>253.0</ele><time>2026-04-29T12:54:10Z</time></trkpt><trkpt lat="43.922097729192636" lon="11.349756301224145"><ele>253.0</ele><time>2026-04-29T12:54:11Z</time></trkpt><trkpt lat="43.92225617333207" lon="11.349788647940242"><ele>253.0</ele><time>2026-04-29T12:54:12Z</time></trkpt><trkpt lat="43.922397162997825" lon="11.349851305358222"><ele>253.0</ele><time>2026-04-29T12:54:13Z</time></trkpt><trkpt lat="43.92256270377071" lon="11.34989903979922"><ele>253.0</ele><time>2026-04-29T12:54:14Z</time></trkpt><trkpt lat="43.92270698100598" lon="11.349932046945582"><ele>252.0</ele><time>2026-04-29T12:54:15Z</time></trkpt><trkpt lat="43.92287873937438" lon="11.349907047989491"><ele>251.0</ele><time>2026-04-29T12:54:16Z</time></trkpt><trkpt lat="43.92307188941964" lon="11.34981232409409"><ele>250.0</ele><time>2026-04-29T12:54:17Z</time></trkpt><trkpt lat="43.92326090223619" lon="11.34970092579587"><ele>247.66666666666666</ele><time>2026-04-29T12:54:18Z</time></trkpt><trkpt lat="43.92342858572013" lon="11.349582356800292"><ele>245.33333333333331</ele><time>2026-04-29T12:54:19Z</time></trkpt><trkpt lat="43.92356596896014" lon="11.349444072997965"><ele>243.0</ele><time>2026-04-29T12:54:20Z</time></trkpt><trkpt lat="43.92367002171663" lon="11.349297559243444"><ele>243.0</ele><time>2026-04-29T12:54:21Z</time></trkpt><trkpt lat="43.92375163126619" lon="11.349170795804355"><ele>243.0</ele><time>2026-04-29T12:54:22Z</time></trkpt><trkpt lat="43.92382786050955" lon="11.349087124511312"><ele>243.0</ele><time>2026-04-29T12:54:23Z</time></trkpt><trkpt lat="43.92391061310805" lon="11.349065359171508"><ele>243.0</ele><time>2026-04-29T12:54:24Z</time></trkpt><trkpt lat="43.9239973607388" lon="11.349104088666305"><ele>243.0</ele><time>2026-04-29T12:54:25Z</time></trkpt><trkpt lat="43.924064085774646" lon="11.349227782342174"><ele>243.0</ele><time>2026-04-29T12:54:26Z</time></trkpt><trkpt lat="43.92417103898235" lon="11.34934826898824"><ele>243.0</ele><time>2026-04-29T12:54:27Z</time></trkpt><trkpt lat="43.92427982107068" lon="11.349530261545505"><ele>243.0</ele><time>2026-04-29T12:54:28Z</time></trkpt><trkpt lat="43.92439844739129" lon="11.349708266940862"><ele>243.0</ele><time>2026-04-29T12:54:29Z</time></trkpt><trkpt lat="43.92453574142081" lon="11.349897561641361"><ele>243.0</ele><time>2026-04-29T12:54:30Z</time></trkpt><trkpt lat="43.92468215815866" lon="11.350101699409054"><ele>243.0</ele><time>2026-04-29T12:54:31Z</time></trkpt><trkpt lat="43.92484213047667" lon="11.350304054401711"><ele>243.0</ele><time>2026-04-29T12:54:32Z</time></trkpt><trkpt lat="43.925020380566345" lon="11.350481246813958"><ele>243.0</ele><time>2026-04-29T12:54:33Z</time></trkpt><trkpt lat="43.92521514492789" lon="11.350649899265797"><ele>243.0</ele><time>2026-04-29T12:54:34Z</time></trkpt><trkpt lat="43.92539012285673" lon="11.35080767809746"><ele>242.33333333333331</ele><time>2026-04-29T12:54:35Z</time></trkpt><trkpt lat="43.925557574255905" lon="11.350955787336563"><ele>241.66666666666666</ele><time>2026-04-29T12:54:36Z</time></trkpt><trkpt lat="43.92571199527691" lon="11.351083094440575"><ele>241.0</ele><time>2026-04-29T12:54:37Z</time></trkpt><trkpt lat="43.9258694586377" lon="11.351226143236534"><ele>241.0</ele><time>2026-04-29T12:54:38Z</time></trkpt><trkpt lat="43.926043447224835" lon="11.35130568005411"><ele>241.0</ele><time>2026-04-29T12:54:39Z</time></trkpt><trkpt lat="43.92625672696232" lon="11.351328399283286"><ele>241.0</ele><time>2026-04-29T12:54:40Z</time></trkpt><trkpt lat="43.926490955494366" lon="11.351313673252811"><ele>241.0</ele><time>2026-04-29T12:54:41Z</time></trkpt><trkpt lat="43.926729619389334" lon="11.351289258967736"><ele>241.0</ele><time>2026-04-29T12:54:42Z</time></trkpt><trkpt lat="43.926968238910916" lon="11.351269491306736"><ele>241.0</ele><time>2026-04-29T12:54:43Z</time></trkpt><trkpt lat="43.92718205104828" lon="11.351248702087764"><ele>241.0</ele><time>2026-04-29T12:54:44Z</time></trkpt><trkpt lat="43.927386096244234" lon="11.351244403438036"><ele>241.0</ele><time>2026-04-29T12:54:45Z</time></trkpt><trkpt lat="43.927580177240664" lon="11.351230857305392"><ele>240.0</ele><time>2026-04-29T12:54:46Z</time></trkpt><trkpt lat="43.927776109858904" lon="11.351195305157333"><ele>239.0</ele><time>2026-04-29T12:54:47Z</time></trkpt><trkpt lat="43.92797271688193" lon="11.351120506208511"><ele>238.0</ele><time>2026-04-29T12:54:48Z</time></trkpt><trkpt lat="43.92817222328386" lon="11.351014206997167"><ele>238.0</ele><time>2026-04-29T12:54:49Z</time></trkpt><trkpt lat="43.9283695656063" lon="11.350890049303363"><ele>238.0</ele><time>2026-04-29T12:54:50Z</time></trkpt><trkpt lat="43.92856922367714" lon="11.350757692590678"><ele>238.0</ele><time>2026-04-29T12:54:51Z</time></trkpt><trkpt lat="43.9287584986547" lon="11.350622070481672"><ele>243.0</ele><time>2026-04-29T12:54:52Z</time></trkpt><trkpt lat="43.92893018045482" lon="11.350486565333638"><ele>248.0</ele><time>2026-04-29T12:54:53Z</time></trkpt><trkpt lat="43.929099297855224" lon="11.35037129074011"><ele>253.0</ele><time>2026-04-29T12:54:54Z</time></trkpt><trkpt lat="43.92926987141387" lon="11.350332628354979"><ele>256.66666666666663</ele><time>2026-04-29T12:54:55Z</time></trkpt><trkpt lat="43.929458822658724" lon="11.35032978488503"><ele>260.3333333333333</ele><time>2026-04-29T12:54:56Z</time></trkpt><trkpt lat="43.92966223270643" lon="11.350339096909165"><ele>264.0</ele><time>2026-04-29T12:54:57Z</time></trkpt><trkpt lat="43.92987013938827" lon="11.350333786641016"><ele>263.3333333333333</ele><time>2026-04-29T12:54:58Z</time></trkpt><trkpt lat="43.930068610846405" lon="11.35035488749608"><ele>262.66666666666663</ele><time>2026-04-29T12:54:59Z</time></trkpt><trkpt lat="43.93024612728288" lon="11.350411354540858"><ele>262.0</ele><time>2026-04-29T12:55:00Z</time></trkpt><trkpt lat="43.93042101544831" lon="11.350507143948494"><ele>255.33333333333331</ele><time>2026-04-29T12:55:01Z</time></trkpt><trkpt lat="43.93058865772387" lon="11.350619541022958"><ele>248.66666666666669</ele><time>2026-04-29T12:55:02Z</time></trkpt><trkpt lat="43.93076977466285" lon="11.350685171709511"><ele>242.0</ele><time>2026-04-29T12:55:03Z</time></trkpt><trkpt lat="43.930969609475376" lon="11.350711432517786"><ele>241.0</ele><time>2026-04-29T12:55:04Z</time></trkpt><trkpt lat="43.93115580508026" lon="11.350721977601497"><ele>240.0</ele><time>2026-04-29T12:55:05Z</time></trkpt><trkpt lat="43.931318264579694" lon="11.350729710163545"><ele>239.0</ele><time>2026-04-29T12:55:06Z</time></trkpt><trkpt lat="43.93146249349711" lon="11.35071989079514"><ele>239.0</ele><time>2026-04-29T12:55:07Z</time></trkpt><trkpt lat="43.93160023592793" lon="11.350651963506802"><ele>239.0</ele><time>2026-04-29T12:55:08Z</time></trkpt><trkpt lat="43.93174045197541" lon="11.350527325725304"><ele>239.0</ele><time>2026-04-29T12:55:09Z</time></trkpt><trkpt lat="43.93188001555907" lon="11.350331084298295"><ele>238.0</ele><time>2026-04-29T12:55:10Z</time></trkpt><trkpt lat="43.93204018870145" lon="11.350110648590054"><ele>237.0</ele><time>2026-04-29T12:55:11Z</time></trkpt><trkpt lat="43.93219277413296" lon="11.349898654795098"><ele>236.0</ele><time>2026-04-29T12:55:12Z</time></trkpt><trkpt lat="43.932336337386715" lon="11.34970852022075"><ele>236.0</ele><time>2026-04-29T12:55:13Z</time></trkpt><trkpt lat="43.93247863080107" lon="11.349525791701113"><ele>236.0</ele><time>2026-04-29T12:55:14Z</time></trkpt><trkpt lat="43.93262502066213" lon="11.349340989798549"><ele>236.0</ele><time>2026-04-29T12:55:15Z</time></trkpt><trkpt lat="43.93276492938619" lon="11.34916354245092"><ele>237.0</ele><time>2026-04-29T12:55:16Z</time></trkpt><trkpt lat="43.93290021748421" lon="11.348990027234095"><ele>238.0</ele><time>2026-04-29T12:55:17Z</time></trkpt><trkpt lat="43.93304791610155" lon="11.34886009381865"><ele>239.0</ele><time>2026-04-29T12:55:18Z</time></trkpt><trkpt lat="43.93320321457799" lon="11.348754875690807"><ele>239.0</ele><time>2026-04-29T12:55:19Z</time></trkpt><trkpt lat="43.933345571210765" lon="11.34864570897039"><ele>239.0</ele><time>2026-04-29T12:55:20Z</time></trkpt><trkpt lat="43.93350042197329" lon="11.348577110683747"><ele>239.0</ele><time>2026-04-29T12:55:21Z</time></trkpt><trkpt lat="43.93367192570419" lon="11.348575877987827"><ele>242.66666666666669</ele><time>2026-04-29T12:55:22Z</time></trkpt><trkpt lat="43.933841416419874" lon="11.3485961234829"><ele>246.33333333333331</ele><time>2026-04-29T12:55:23Z</time></trkpt><trkpt lat="43.93400191883768" lon="11.348662035946598"><ele>250.0</ele><time>2026-04-29T12:55:24Z</time></trkpt><trkpt lat="43.93417584466214" lon="11.348784238557261"><ele>244.0</ele><time>2026-04-29T12:55:25Z</time></trkpt><trkpt lat="43.934377289935355" lon="11.348916664728065"><ele>238.0</ele><time>2026-04-29T12:55:26Z</time></trkpt><trkpt lat="43.934562302115616" lon="11.349060812177095"><ele>232.0</ele><time>2026-04-29T12:55:27Z</time></trkpt><trkpt lat="43.93472272772201" lon="11.349152532550784"><ele>232.0</ele><time>2026-04-29T12:55:28Z</time></trkpt><trkpt lat="43.93484775323622" lon="11.349216200269604"><ele>232.0</ele><time>2026-04-29T12:55:29Z</time></trkpt><trkpt lat="43.93497818241319" lon="11.349251537357386"><ele>232.0</ele><time>2026-04-29T12:55:30Z</time></trkpt><trkpt lat="43.935081741328865" lon="11.34921847764356"><ele>232.0</ele><time>2026-04-29T12:55:31Z</time></trkpt><trkpt lat="43.9351809149879" lon="11.349139009828948"><ele>230.5</ele><time>2026-04-29T12:55:32Z</time></trkpt><trkpt lat="43.935251333607376" lon="11.349005225692132"><ele>229.0</ele><time>2026-04-29T12:55:33Z</time></trkpt><trkpt lat="43.93527311682978" lon="11.34881963612361"><ele>227.5</ele><time>2026-04-29T12:55:34Z</time></trkpt><trkpt lat="43.9352866123205" lon="11.348641274825011"><ele>226.0</ele><time>2026-04-29T12:55:35Z</time></trkpt><trkpt lat="43.93530226480939" lon="11.34848729585501"><ele>226.0</ele><time>2026-04-29T12:55:36Z</time></trkpt><trkpt lat="43.93533668463979" lon="11.34835133942955"><ele>226.00000000000003</ele><time>2026-04-29T12:55:37Z</time></trkpt><trkpt lat="43.93535738780953" lon="11.348210388762638"><ele>226.00000000000003</ele><time>2026-04-29T12:55:38Z</time></trkpt><trkpt lat="43.93540138186411" lon="11.348086569828743"><ele>226.0</ele><time>2026-04-29T12:55:39Z</time></trkpt><trkpt lat="43.93544490677215" lon="11.347958208280103"><ele>226.0</ele><time>2026-04-29T12:55:40Z</time></trkpt><trkpt lat="43.935491550842315" lon="11.347827300571645"><ele>226.20000000000002</ele><time>2026-04-29T12:55:41Z</time></trkpt><trkpt lat="43.935532609437956" lon="11.347702585615334"><ele>226.40000000000003</ele><time>2026-04-29T12:55:42Z</time></trkpt><trkpt lat="43.93554450936169" lon="11.34758425546082"><ele>226.6</ele><time>2026-04-29T12:55:43Z</time></trkpt><trkpt lat="43.9355579025364" lon="11.34746372544402"><ele>226.8</ele><time>2026-04-29T12:55:44Z</time></trkpt><trkpt lat="43.935557657238306" lon="11.347325739273234"><ele>227.0</ele><time>2026-04-29T12:55:45Z</time></trkpt><trkpt lat="43.93556943382599" lon="11.34719740979127"><ele>227.0</ele><time>2026-04-29T12:55:46Z</time></trkpt><trkpt lat="43.93557631672105" lon="11.347076765462203"><ele>227.0</ele><time>2026-04-29T12:55:47Z</time></trkpt><trkpt lat="43.93557950462188" lon="11.346950867738144"><ele>227.0</ele><time>2026-04-29T12:55:48Z</time></trkpt><trkpt lat="43.93558698588439" lon="11.34682329727455"><ele>227.0</ele><time>2026-04-29T12:55:49Z</time></trkpt><trkpt lat="43.93560083797711" lon="11.346674216415288"><ele>227.0</ele><time>2026-04-29T12:55:50Z</time></trkpt><trkpt lat="43.935614611128536" lon="11.346539530815926"><ele>227.0</ele><time>2026-04-29T12:55:51Z</time></trkpt><trkpt lat="43.935630338128654" lon="11.346410479455844"><ele>227.0</ele><time>2026-04-29T12:55:52Z</time></trkpt><trkpt lat="43.935651350544795" lon="11.346265588742776"><ele>227.0</ele><time>2026-04-29T12:55:53Z</time></trkpt><trkpt lat="43.93568931981943" lon="11.346127692640925"><ele>227.0</ele><time>2026-04-29T12:55:54Z</time></trkpt><trkpt lat="43.93572399309987" lon="11.34599431066821"><ele>227.0</ele><time>2026-04-29T12:55:55Z</time></trkpt><trkpt lat="43.935761663499704" lon="11.34587468817119"><ele>226.8</ele><time>2026-04-29T12:55:56Z</time></trkpt><trkpt lat="43.93580380063974" lon="11.34576096100601"><ele>226.6</ele><time>2026-04-29T12:55:57Z</time></trkpt><trkpt lat="43.93585028293084" lon="11.3456461216877"><ele>226.40000000000003</ele><time>2026-04-29T12:55:58Z</time></trkpt><trkpt lat="43.9359139743949" lon="11.345522282050803"><ele>226.20000000000002</ele><time>2026-04-29T12:55:59Z</time></trkpt><trkpt lat="43.935995848243635" lon="11.345411725130216"><ele>226.0</ele><time>2026-04-29T12:56:00Z</time></trkpt><trkpt lat="43.936102429405096" lon="11.34531818813566"><ele>225.0</ele><time>2026-04-29T12:56:01Z</time></trkpt><trkpt lat="43.93622301585438" lon="11.345236644014209"><ele>224.0</ele><time>2026-04-29T12:56:02Z</time></trkpt><trkpt lat="43.936352530021395" lon="11.34515717919436"><ele>223.0</ele><time>2026-04-29T12:56:03Z</time></trkpt><trkpt lat="43.93649696259817" lon="11.345074220972997"><ele>222.0</ele><time>2026-04-29T12:56:04Z</time></trkpt><trkpt lat="43.936628109876565" lon="11.34501810433468"><ele>223.25</ele><time>2026-04-29T12:56:05Z</time></trkpt><trkpt lat="43.93674736118529" lon="11.34497871418465"><ele>224.5</ele><time>2026-04-29T12:56:06Z</time></trkpt><trkpt lat="43.93686828170505" lon="11.345006971994529"><ele>225.75</ele><time>2026-04-29T12:56:07Z</time></trkpt><trkpt lat="43.93700146315823" lon="11.345051422110325"><ele>227.0</ele><time>2026-04-29T12:56:08Z</time></trkpt><trkpt lat="43.937141780205124" lon="11.345107043970001"><ele>227.0</ele><time>2026-04-29T12:56:09Z</time></trkpt><trkpt lat="43.93730333694634" lon="11.34517446318764"><ele>227.0</ele><time>2026-04-29T12:56:10Z</time></trkpt><trkpt lat="43.937494932638415" lon="11.345258140839283"><ele>227.0</ele><time>2026-04-29T12:56:11Z</time></trkpt><trkpt lat="43.937710221986265" lon="11.345353111423096"><ele>226.33333333333334</ele><time>2026-04-29T12:56:12Z</time></trkpt><trkpt lat="43.937922910474455" lon="11.345438701804133"><ele>225.66666666666669</ele><time>2026-04-29T12:56:13Z</time></trkpt><trkpt lat="43.938113263244105" lon="11.345494534514938"><ele>225.0</ele><time>2026-04-29T12:56:14Z</time></trkpt><trkpt lat="43.93827423446078" lon="11.3455654364358"><ele>226.5</ele><time>2026-04-29T12:56:15Z</time></trkpt><trkpt lat="43.9384237776478" lon="11.345605875620164"><ele>228.0</ele><time>2026-04-29T12:56:16Z</time></trkpt><trkpt lat="43.93856675293381" lon="11.345652589389777"><ele>229.5</ele><time>2026-04-29T12:56:17Z</time></trkpt><trkpt lat="43.93870068853412" lon="11.345746420297694"><ele>231.0</ele><time>2026-04-29T12:56:18Z</time></trkpt><trkpt lat="43.93884253162282" lon="11.34587212094745"><ele>231.0</ele><time>2026-04-29T12:56:19Z</time></trkpt><trkpt lat="43.93901333959828" lon="11.346024377673523"><ele>231.0</ele><time>2026-04-29T12:56:20Z</time></trkpt><trkpt lat="43.93917940000521" lon="11.346144456955129"><ele>231.0</ele><time>2026-04-29T12:56:21Z</time></trkpt><trkpt lat="43.93931374386703" lon="11.346262308738535"><ele>231.75</ele><time>2026-04-29T12:56:22Z</time></trkpt><trkpt lat="43.939441903203864" lon="11.346342180570865"><ele>232.5</ele><time>2026-04-29T12:56:23Z</time></trkpt><trkpt lat="43.93955587336631" lon="11.346429153897594"><ele>233.25</ele><time>2026-04-29T12:56:24Z</time></trkpt><trkpt lat="43.939653005094065" lon="11.346538574878064"><ele>234.0</ele><time>2026-04-29T12:56:25Z</time></trkpt><trkpt lat="43.93972307454533" lon="11.346672815330269"><ele>234.0</ele><time>2026-04-29T12:56:26Z</time></trkpt><trkpt lat="43.93979191505614" lon="11.346805072260313"><ele>234.0</ele><time>2026-04-29T12:56:27Z</time></trkpt><trkpt lat="43.93984098766907" lon="11.346978532059403"><ele>234.0</ele><time>2026-04-29T12:56:28Z</time></trkpt><trkpt lat="43.93986884813359" lon="11.347168798207948"><ele>234.0</ele><time>2026-04-29T12:56:29Z</time></trkpt><trkpt lat="43.93985734180484" lon="11.347364205901828"><ele>232.25</ele><time>2026-04-29T12:56:30Z</time></trkpt><trkpt lat="43.93987932568919" lon="11.347571937683131"><ele>230.5</ele><time>2026-04-29T12:56:31Z</time></trkpt><trkpt lat="43.93988126582866" lon="11.34777309008612"><ele>228.75</ele><time>2026-04-29T12:56:32Z</time></trkpt><trkpt lat="43.93988876199949" lon="11.347964410045797"><ele>227.0</ele><time>2026-04-29T12:56:33Z</time></trkpt><trkpt lat="43.93990435397332" lon="11.348168387497399"><ele>226.66666666666669</ele><time>2026-04-29T12:56:34Z</time></trkpt><trkpt lat="43.93992037928341" lon="11.348410651593111"><ele>226.33333333333331</ele><time>2026-04-29T12:56:35Z</time></trkpt><trkpt lat="43.93998639710972" lon="11.348680228722715"><ele>226.0</ele><time>2026-04-29T12:56:36Z</time></trkpt><trkpt lat="43.94003473052437" lon="11.348969494138968"><ele>233.66666666666666</ele><time>2026-04-29T12:56:37Z</time></trkpt><trkpt lat="43.94008088448498" lon="11.349274563995245"><ele>241.33333333333331</ele><time>2026-04-29T12:56:38Z</time></trkpt><trkpt lat="43.94012976622428" lon="11.349568202048108"><ele>249.0</ele><time>2026-04-29T12:56:39Z</time></trkpt><trkpt lat="43.94016420580487" lon="11.349850550707007"><ele>249.33333333333331</ele><time>2026-04-29T12:56:40Z</time></trkpt><trkpt lat="43.94015795435528" lon="11.350141986248616"><ele>249.66666666666666</ele><time>2026-04-29T12:56:41Z</time></trkpt><trkpt lat="43.940186536718855" lon="11.350445427030722"><ele>250.0</ele><time>2026-04-29T12:56:42Z</time></trkpt><trkpt lat="43.940232633067374" lon="11.350749809836474"><ele>250.0</ele><time>2026-04-29T12:56:43Z</time></trkpt><trkpt lat="43.940267344001334" lon="11.351034052828094"><ele>250.0</ele><time>2026-04-29T12:56:44Z</time></trkpt><trkpt lat="43.940304217659886" lon="11.35128544654906"><ele>250.0</ele><time>2026-04-29T12:56:45Z</time></trkpt><trkpt lat="43.94034080262685" lon="11.351538145915793"><ele>247.66666666666666</ele><time>2026-04-29T12:56:46Z</time></trkpt><trkpt lat="43.94030241440933" lon="11.351814956045656"><ele>245.33333333333331</ele><time>2026-04-29T12:56:47Z</time></trkpt><trkpt lat="43.94024576500251" lon="11.352078749186036"><ele>243.0</ele><time>2026-04-29T12:56:48Z</time></trkpt><trkpt lat="43.94019001723389" lon="11.352323441919"><ele>240.0</ele><time>2026-04-29T12:56:49Z</time></trkpt><trkpt lat="43.94012215559699" lon="11.352573683208595"><ele>237.0</ele><time>2026-04-29T12:56:50Z</time></trkpt><trkpt lat="43.94009060377897" lon="11.352843107673591"><ele>234.0</ele><time>2026-04-29T12:56:51Z</time></trkpt><trkpt lat="43.94010061046119" lon="11.353110784875883"><ele>231.0</ele><time>2026-04-29T12:56:52Z</time></trkpt><trkpt lat="43.94016567273691" lon="11.35338753793937"><ele>228.0</ele><time>2026-04-29T12:56:53Z</time></trkpt><trkpt lat="43.94025244561616" lon="11.353694303818713"><ele>225.0</ele><time>2026-04-29T12:56:54Z</time></trkpt><trkpt lat="43.94033801608128" lon="11.354027730538688"><ele>222.5</ele><time>2026-04-29T12:56:55Z</time></trkpt><trkpt lat="43.94041182917119" lon="11.354351707992226"><ele>220.0</ele><time>2026-04-29T12:56:56Z</time></trkpt><trkpt lat="43.940481148377614" lon="11.35465429677167"><ele>218.0</ele><time>2026-04-29T12:56:57Z</time></trkpt><trkpt lat="43.9405592379193" lon="11.354948339649509"><ele>216.0</ele><time>2026-04-29T12:56:58Z</time></trkpt><trkpt lat="43.94066012090832" lon="11.355248786066154"><ele>214.0</ele><time>2026-04-29T12:56:59Z</time></trkpt><trkpt lat="43.94079799864612" lon="11.355541504943684"><ele>212.0</ele><time>2026-04-29T12:57:00Z</time></trkpt><trkpt lat="43.94096377251732" lon="11.355833091291556"><ele>212.0</ele><time>2026-04-29T12:57:01Z</time></trkpt><trkpt lat="43.941139427280326" lon="11.356127351587189"><ele>212.0</ele><time>2026-04-29T12:57:02Z</time></trkpt><trkpt lat="43.9413170476638" lon="11.356429493313358"><ele>210.0</ele><time>2026-04-29T12:57:03Z</time></trkpt><trkpt lat="43.9414961106345" lon="11.35672259726328"><ele>208.0</ele><time>2026-04-29T12:57:04Z</time></trkpt><trkpt lat="43.94168366647098" lon="11.35701737566339"><ele>208.5</ele><time>2026-04-29T12:57:05Z</time></trkpt><trkpt lat="43.941873024047595" lon="11.357309293520183"><ele>209.0</ele><time>2026-04-29T12:57:06Z</time></trkpt><trkpt lat="43.94205132701586" lon="11.35757977782567"><ele>209.0</ele><time>2026-04-29T12:57:07Z</time></trkpt><trkpt lat="43.942216050184385" lon="11.357846464063394"><ele>209.0</ele><time>2026-04-29T12:57:08Z</time></trkpt><trkpt lat="43.94236778143269" lon="11.358096774733205"><ele>208.33333333333334</ele><time>2026-04-29T12:57:09Z</time></trkpt><trkpt lat="43.942508272360804" lon="11.358325144356094"><ele>207.66666666666669</ele><time>2026-04-29T12:57:10Z</time></trkpt><trkpt lat="43.94264988392031" lon="11.358523454796229"><ele>207.0</ele><time>2026-04-29T12:57:11Z</time></trkpt><trkpt lat="43.94281475916745" lon="11.358686470385674"><ele>212.0</ele><time>2026-04-29T12:57:12Z</time></trkpt><trkpt lat="43.94301973622287" lon="11.358832661203811"><ele>217.0</ele><time>2026-04-29T12:57:13Z</time></trkpt><trkpt lat="43.943234687035485" lon="11.358964446702991"><ele>226.0</ele><time>2026-04-29T12:57:14Z</time></trkpt><trkpt lat="43.94342222548738" lon="11.359109172980201"><ele>235.0</ele><time>2026-04-29T12:57:15Z</time></trkpt><trkpt lat="43.94358755472975" lon="11.359262433040392"><ele>244.0</ele><time>2026-04-29T12:57:16Z</time></trkpt><trkpt lat="43.943747631344664" lon="11.35942280214568"><ele>244.0</ele><time>2026-04-29T12:57:17Z</time></trkpt><trkpt lat="43.943905299545705" lon="11.359586243039299"><ele>244.0</ele><time>2026-04-29T12:57:18Z</time></trkpt><trkpt lat="43.94405191906421" lon="11.359745611216143"><ele>244.0</ele><time>2026-04-29T12:57:19Z</time></trkpt><trkpt lat="43.94419264844908" lon="11.359907472054296"><ele>235.66666666666666</ele><time>2026-04-29T12:57:20Z</time></trkpt><trkpt lat="43.944323641067285" lon="11.360046099583906"><ele>227.33333333333331</ele><time>2026-04-29T12:57:21Z</time></trkpt><trkpt lat="43.94443376058372" lon="11.360201227961918"><ele>219.0</ele><time>2026-04-29T12:57:22Z</time></trkpt><trkpt lat="43.94453590520701" lon="11.36036668172884"><ele>219.0</ele><time>2026-04-29T12:57:23Z</time></trkpt><trkpt lat="43.94462799993564" lon="11.36052990132418"><ele>219.0</ele><time>2026-04-29T12:57:24Z</time></trkpt><trkpt lat="43.94469574496825" lon="11.360700387098383"><ele>219.0</ele><time>2026-04-29T12:57:25Z</time></trkpt><trkpt lat="43.94473701523999" lon="11.360859293469323"><ele>219.0</ele><time>2026-04-29T12:57:26Z</time></trkpt><trkpt lat="43.944799609395595" lon="11.360967414612203"><ele>214.66666666666669</ele><time>2026-04-29T12:57:27Z</time></trkpt><trkpt lat="43.94490850626583" lon="11.361018914458052"><ele>210.33333333333334</ele><time>2026-04-29T12:57:28Z</time></trkpt><trkpt lat="43.9450718831208" lon="11.361012037915144"><ele>206.0</ele><time>2026-04-29T12:57:29Z</time></trkpt><trkpt lat="43.94526045803124" lon="11.360961568410126"><ele>205.0</ele><time>2026-04-29T12:57:30Z</time></trkpt><trkpt lat="43.94546003291682" lon="11.360910583033306"><ele>204.0</ele><time>2026-04-29T12:57:31Z</time></trkpt><trkpt lat="43.94565834900016" lon="11.360909274751414"><ele>203.0</ele><time>2026-04-29T12:57:32Z</time></trkpt><trkpt lat="43.945855826912926" lon="11.360955648928464"><ele>202.33333333333334</ele><time>2026-04-29T12:57:33Z</time></trkpt><trkpt lat="43.94606495650533" lon="11.361051120205127"><ele>201.66666666666669</ele><time>2026-04-29T12:57:34Z</time></trkpt><trkpt lat="43.946267796527735" lon="11.36117095052719"><ele>201.0</ele><time>2026-04-29T12:57:35Z</time></trkpt><trkpt lat="43.94644028558204" lon="11.361299985001013"><ele>200.33333333333331</ele><time>2026-04-29T12:57:36Z</time></trkpt><trkpt lat="43.94658948592538" lon="11.361423898459893"><ele>199.66666666666666</ele><time>2026-04-29T12:57:37Z</time></trkpt><trkpt lat="43.9467187373875" lon="11.361544354846787"><ele>199.0</ele><time>2026-04-29T12:57:38Z</time></trkpt><trkpt lat="43.94682816736241" lon="11.361679473907795"><ele>199.0</ele><time>2026-04-29T12:57:39Z</time></trkpt><trkpt lat="43.94690181580247" lon="11.361840600582424"><ele>199.0</ele><time>2026-04-29T12:57:40Z</time></trkpt><trkpt lat="43.946938535497736" lon="11.362018138157312"><ele>199.0</ele><time>2026-04-29T12:57:41Z</time></trkpt><trkpt lat="43.94696183982201" lon="11.362215827506905"><ele>199.0</ele><time>2026-04-29T12:57:42Z</time></trkpt><trkpt lat="43.946978558770574" lon="11.362424540696741"><ele>198.75</ele><time>2026-04-29T12:57:43Z</time></trkpt><trkpt lat="43.94699968453944" lon="11.362624494441627"><ele>198.5</ele><time>2026-04-29T12:57:44Z</time></trkpt><trkpt lat="43.94702100492844" lon="11.362819813767409"><ele>198.25</ele><time>2026-04-29T12:57:45Z</time></trkpt><trkpt lat="43.94706834690143" lon="11.363020152124946"><ele>198.0</ele><time>2026-04-29T12:57:46Z</time></trkpt><trkpt lat="43.947129726151594" lon="11.363205558411961"><ele>197.66666666666669</ele><time>2026-04-29T12:57:47Z</time></trkpt><trkpt lat="43.947217579165674" lon="11.363367886432918"><ele>197.33333333333334</ele><time>2026-04-29T12:57:48Z</time></trkpt><trkpt lat="43.94733478045875" lon="11.363518657865189"><ele>197.0</ele><time>2026-04-29T12:57:49Z</time></trkpt><trkpt lat="43.94748646901023" lon="11.36368452681831"><ele>197.0</ele><time>2026-04-29T12:57:50Z</time></trkpt><trkpt lat="43.94765150814063" lon="11.363857062451599"><ele>197.0</ele><time>2026-04-29T12:57:51Z</time></trkpt><trkpt lat="43.94781639526394" lon="11.364051251777074"><ele>197.0</ele><time>2026-04-29T12:57:52Z</time></trkpt><trkpt lat="43.947973804519684" lon="11.364295847989245"><ele>197.0</ele><time>2026-04-29T12:57:53Z</time></trkpt><trkpt lat="43.9481102821194" lon="11.364558574104002"><ele>197.0</ele><time>2026-04-29T12:57:54Z</time></trkpt><trkpt lat="43.9482270335093" lon="11.364806568027998"><ele>197.0</ele><time>2026-04-29T12:57:55Z</time></trkpt><trkpt lat="43.94833078232521" lon="11.365046490617265"><ele>196.66666666666669</ele><time>2026-04-29T12:57:56Z</time></trkpt><trkpt lat="43.94842030021105" lon="11.365305161561487"><ele>196.33333333333331</ele><time>2026-04-29T12:57:57Z</time></trkpt><trkpt lat="43.94849165961254" lon="11.365578911909546"><ele>196.0</ele><time>2026-04-29T12:57:58Z</time></trkpt><trkpt lat="43.948541114514555" lon="11.365842567782362"><ele>195.66666666666666</ele><time>2026-04-29T12:57:59Z</time></trkpt><trkpt lat="43.948592740339045" lon="11.366079633415351"><ele>195.33333333333331</ele><time>2026-04-29T12:58:00Z</time></trkpt><trkpt lat="43.94863343482021" lon="11.366315311558667"><ele>195.0</ele><time>2026-04-29T12:58:01Z</time></trkpt><trkpt lat="43.94865447905221" lon="11.366548836911756"><ele>195.0</ele><time>2026-04-29T12:58:02Z</time></trkpt><trkpt lat="43.948640045371654" lon="11.366803243632866"><ele>195.0</ele><time>2026-04-29T12:58:03Z</time></trkpt><trkpt lat="43.948582961653344" lon="11.367077229284757"><ele>195.0</ele><time>2026-04-29T12:58:04Z</time></trkpt><trkpt lat="43.9484974794733" lon="11.367356888522163"><ele>194.66666666666669</ele><time>2026-04-29T12:58:05Z</time></trkpt><trkpt lat="43.948416817992204" lon="11.367615274496647"><ele>194.33333333333334</ele><time>2026-04-29T12:58:06Z</time></trkpt><trkpt lat="43.94834518518969" lon="11.367850891032198"><ele>194.0</ele><time>2026-04-29T12:58:07Z</time></trkpt><trkpt lat="43.9482774815779" lon="11.368072972549188"><ele>196.33333333333334</ele><time>2026-04-29T12:58:08Z</time></trkpt><trkpt lat="43.94821342177044" lon="11.368306473644878"><ele>198.66666666666669</ele><time>2026-04-29T12:58:09Z</time></trkpt><trkpt lat="43.94813899822733" lon="11.368563188531837"><ele>201.0</ele><time>2026-04-29T12:58:10Z</time></trkpt><trkpt lat="43.94806201467111" lon="11.36883735961773"><ele>200.33333333333331</ele><time>2026-04-29T12:58:11Z</time></trkpt><trkpt lat="43.94797554054962" lon="11.369120758226648"><ele>199.66666666666666</ele><time>2026-04-29T12:58:12Z</time></trkpt><trkpt lat="43.94787950578392" lon="11.369405022311462"><ele>199.0</ele><time>2026-04-29T12:58:13Z</time></trkpt><trkpt lat="43.947788434412715" lon="11.36970064726074"><ele>197.33333333333331</ele><time>2026-04-29T12:58:14Z</time></trkpt><trkpt lat="43.947705874099505" lon="11.369983074434607"><ele>195.66666666666669</ele><time>2026-04-29T12:58:15Z</time></trkpt><trkpt lat="43.947627335739284" lon="11.370244267011708"><ele>194.0</ele><time>2026-04-29T12:58:16Z</time></trkpt><trkpt lat="43.94755209272603" lon="11.370501736025247"><ele>197.33333333333334</ele><time>2026-04-29T12:58:17Z</time></trkpt><trkpt lat="43.94748150632013" lon="11.370741228237552"><ele>200.66666666666669</ele><time>2026-04-29T12:58:18Z</time></trkpt><trkpt lat="43.94741025967843" lon="11.370982570277905"><ele>204.0</ele><time>2026-04-29T12:58:19Z</time></trkpt><trkpt lat="43.94733952562874" lon="11.371222141471808"><ele>203.66666666666669</ele><time>2026-04-29T12:58:20Z</time></trkpt><trkpt lat="43.94727331326586" lon="11.37146459741264"><ele>203.33333333333334</ele><time>2026-04-29T12:58:21Z</time></trkpt><trkpt lat="43.94720367541752" lon="11.371703736690204"><ele>203.0</ele><time>2026-04-29T12:58:22Z</time></trkpt><trkpt lat="43.94713782368935" lon="11.371921061532241"><ele>203.0</ele><time>2026-04-29T12:58:23Z</time></trkpt><trkpt lat="43.9470751034242" lon="11.372140080643858"><ele>203.0</ele><time>2026-04-29T12:58:24Z</time></trkpt><trkpt lat="43.9470159081683" lon="11.372345229946287"><ele>203.0</ele><time>2026-04-29T12:58:25Z</time></trkpt><trkpt lat="43.946955001002785" lon="11.372533700486391"><ele>203.0</ele><time>2026-04-29T12:58:26Z</time></trkpt><trkpt lat="43.94689156515041" lon="11.372716980640522"><ele>203.0</ele><time>2026-04-29T12:58:27Z</time></trkpt><trkpt lat="43.94682521821235" lon="11.372900641760904"><ele>203.0</ele><time>2026-04-29T12:58:28Z</time></trkpt><trkpt lat="43.9467532499574" lon="11.373088455874004"><ele>203.0</ele><time>2026-04-29T12:58:29Z</time></trkpt><trkpt lat="43.946673907363966" lon="11.373286590580815"><ele>203.33333333333334</ele><time>2026-04-29T12:58:30Z</time></trkpt><trkpt lat="43.94657754840244" lon="11.373498548360873"><ele>203.66666666666669</ele><time>2026-04-29T12:58:31Z</time></trkpt><trkpt lat="43.946451903572715" lon="11.373743279981412"><ele>204.0</ele><time>2026-04-29T12:58:32Z</time></trkpt><trkpt lat="43.94633154694419" lon="11.373989830939271"><ele>201.5</ele><time>2026-04-29T12:58:33Z</time></trkpt><trkpt lat="43.946191849063574" lon="11.374264432090692"><ele>199.0</ele><time>2026-04-29T12:58:34Z</time></trkpt><trkpt lat="43.94605223542001" lon="11.374540193626844"><ele>198.5</ele><time>2026-04-29T12:58:35Z</time></trkpt><trkpt lat="43.945911972200214" lon="11.37482996315938"><ele>198.0</ele><time>2026-04-29T12:58:36Z</time></trkpt><trkpt lat="43.945773272456485" lon="11.375111965057974"><ele>199.5</ele><time>2026-04-29T12:58:37Z</time></trkpt><trkpt lat="43.94563036128264" lon="11.375401088445031"><ele>201.0</ele><time>2026-04-29T12:58:38Z</time></trkpt><trkpt lat="43.94548690990955" lon="11.375690544451711"><ele>205.0</ele><time>2026-04-29T12:58:39Z</time></trkpt><trkpt lat="43.945351395566945" lon="11.375966056244543"><ele>209.0</ele><time>2026-04-29T12:58:40Z</time></trkpt><trkpt lat="43.94522310128285" lon="11.37623534792344"><ele>209.5</ele><time>2026-04-29T12:58:41Z</time></trkpt><trkpt lat="43.94508899349625" lon="11.376496384666089"><ele>210.0</ele><time>2026-04-29T12:58:42Z</time></trkpt><trkpt lat="43.94495999510175" lon="11.376746928813338"><ele>210.0</ele><time>2026-04-29T12:58:43Z</time></trkpt><trkpt lat="43.94483906331024" lon="11.377020214639211"><ele>210.0</ele><time>2026-04-29T12:58:44Z</time></trkpt><trkpt lat="43.944756231251844" lon="11.377341866125839"><ele>208.5</ele><time>2026-04-29T12:58:45Z</time></trkpt><trkpt lat="43.944693694257964" lon="11.377686878474032"><ele>207.0</ele><time>2026-04-29T12:58:46Z</time></trkpt><trkpt lat="43.94464154201669" lon="11.3780419527558"><ele>205.5</ele><time>2026-04-29T12:58:47Z</time></trkpt><trkpt lat="43.9445929483536" lon="11.378395075036654"><ele>204.0</ele><time>2026-04-29T12:58:48Z</time></trkpt><trkpt lat="43.94454879107468" lon="11.378750997343"><ele>201.5</ele><time>2026-04-29T12:58:49Z</time></trkpt><trkpt lat="43.944502664758595" lon="11.379102707206197"><ele>199.0</ele><time>2026-04-29T12:58:50Z</time></trkpt><trkpt lat="43.94445239986844" lon="11.37945477458723"><ele>195.0</ele><time>2026-04-29T12:58:51Z</time></trkpt><trkpt lat="43.94439957823283" lon="11.379809530397585"><ele>191.0</ele><time>2026-04-29T12:58:52Z</time></trkpt><trkpt lat="43.94434975035628" lon="11.38016363206239"><ele>189.0</ele><time>2026-04-29T12:58:53Z</time></trkpt><trkpt lat="43.94430236742344" lon="11.380525798882818"><ele>187.0</ele><time>2026-04-29T12:58:54Z</time></trkpt><trkpt lat="43.94425171313888" lon="11.380883066578896"><ele>191.5</ele><time>2026-04-29T12:58:55Z</time></trkpt><trkpt lat="43.9442002597468" lon="11.381254450801865"><ele>196.0</ele><time>2026-04-29T12:58:56Z</time></trkpt><trkpt lat="43.944145968309584" lon="11.381628196122968"><ele>196.0</ele><time>2026-04-29T12:58:57Z</time></trkpt><trkpt lat="43.94409465401487" lon="11.381975087793531"><ele>196.0</ele><time>2026-04-29T12:58:58Z</time></trkpt><trkpt lat="43.94404441701471" lon="11.38230660922119"><ele>195.0</ele><time>2026-04-29T12:58:59Z</time></trkpt><trkpt lat="43.9439966725053" lon="11.382622346279108"><ele>194.0</ele><time>2026-04-29T12:59:00Z</time></trkpt><trkpt lat="43.943949453090106" lon="11.382917949253946"><ele>193.66666666666669</ele><time>2026-04-29T12:59:01Z</time></trkpt><trkpt lat="43.94390671223419" lon="11.383192572141052"><ele>193.33333333333331</ele><time>2026-04-29T12:59:02Z</time></trkpt><trkpt lat="43.94387249908547" lon="11.383417404648458"><ele>193.0</ele><time>2026-04-29T12:59:03Z</time></trkpt><trkpt lat="43.94386058873285" lon="11.383631505319224"><ele>193.0</ele><time>2026-04-29T12:59:04Z</time></trkpt><trkpt lat="43.94389653311979" lon="11.383844990674012"><ele>193.0</ele><time>2026-04-29T12:59:05Z</time></trkpt><trkpt lat="43.943995773468075" lon="11.384069692596983"><ele>193.0</ele><time>2026-04-29T12:59:06Z</time></trkpt><trkpt lat="43.94413439425341" lon="11.384273287859324"><ele>191.5</ele><time>2026-04-29T12:59:07Z</time></trkpt><trkpt lat="43.94431857339833" lon="11.384468125327102"><ele>190.0</ele><time>2026-04-29T12:59:08Z</time></trkpt><trkpt lat="43.94450435162415" lon="11.384698085085034"><ele>190.0</ele><time>2026-04-29T12:59:09Z</time></trkpt><trkpt lat="43.94466773402121" lon="11.384912440240413"><ele>190.0</ele><time>2026-04-29T12:59:10Z</time></trkpt><trkpt lat="43.94481667401183" lon="11.385115777285584"><ele>190.0</ele><time>2026-04-29T12:59:11Z</time></trkpt><trkpt lat="43.944955067711206" lon="11.385303614971338"><ele>189.66666666666669</ele><time>2026-04-29T12:59:12Z</time></trkpt><trkpt lat="43.94508368580131" lon="11.38547037449052"><ele>189.33333333333334</ele><time>2026-04-29T12:59:13Z</time></trkpt><trkpt lat="43.94520817502498" lon="11.38562991762746"><ele>189.0</ele><time>2026-04-29T12:59:14Z</time></trkpt><trkpt lat="43.94532994130612" lon="11.385789609688928"><ele>189.0</ele><time>2026-04-29T12:59:15Z</time></trkpt><trkpt lat="43.945439472788955" lon="11.385940541549747"><ele>189.0</ele><time>2026-04-29T12:59:16Z</time></trkpt><trkpt lat="43.94553350933434" lon="11.386079192526456"><ele>189.0</ele><time>2026-04-29T12:59:17Z</time></trkpt><trkpt lat="43.94561218161119" lon="11.386198966653462"><ele>189.0</ele><time>2026-04-29T12:59:18Z</time></trkpt><trkpt lat="43.94568948872053" lon="11.386304509631032"><ele>188.79999999999998</ele><time>2026-04-29T12:59:19Z</time></trkpt><trkpt lat="43.945768248629804" lon="11.386399164535938"><ele>188.6</ele><time>2026-04-29T12:59:20Z</time></trkpt><trkpt lat="43.94580615184751" lon="11.386527522924027"><ele>188.4</ele><time>2026-04-29T12:59:21Z</time></trkpt><trkpt lat="43.94581803998795" lon="11.386664680428126"><ele>188.2</ele><time>2026-04-29T12:59:22Z</time></trkpt><trkpt lat="43.94579625800199" lon="11.386809597929357"><ele>188.0</ele><time>2026-04-29T12:59:23Z</time></trkpt><trkpt lat="43.94575509855099" lon="11.386949785820939"><ele>188.0</ele><time>2026-04-29T12:59:24Z</time></trkpt><trkpt lat="43.94564123353697" lon="11.387047357249765"><ele>188.0</ele><time>2026-04-29T12:59:25Z</time></trkpt><trkpt lat="43.945513956313924" lon="11.38713146790491"><ele>188.0</ele><time>2026-04-29T12:59:26Z</time></trkpt><trkpt lat="43.94536063658845" lon="11.38719709425839"><ele>188.0</ele><time>2026-04-29T12:59:27Z</time></trkpt><trkpt lat="43.9451801093486" lon="11.38726256565561"><ele>189.0</ele><time>2026-04-29T12:59:28Z</time></trkpt><trkpt lat="43.944995997603705" lon="11.387343148259394"><ele>190.0</ele><time>2026-04-29T12:59:29Z</time></trkpt><trkpt lat="43.94482706014447" lon="11.38743061377988"><ele>191.0</ele><time>2026-04-29T12:59:30Z</time></trkpt><trkpt lat="43.944619300891866" lon="11.387543805287303"><ele>191.0</ele><time>2026-04-29T12:59:31Z</time></trkpt><trkpt lat="43.94439504388451" lon="11.387643532383319"><ele>191.0</ele><time>2026-04-29T12:59:32Z</time></trkpt><trkpt lat="43.944165723429954" lon="11.387742068652827"><ele>192.0</ele><time>2026-04-29T12:59:33Z</time></trkpt><trkpt lat="43.943933106121044" lon="11.387850774809664"><ele>193.0</ele><time>2026-04-29T12:59:34Z</time></trkpt><trkpt lat="43.943708806697764" lon="11.387975582967128"><ele>192.5</ele><time>2026-04-29T12:59:35Z</time></trkpt><trkpt lat="43.94348354663481" lon="11.388113009281563"><ele>192.0</ele><time>2026-04-29T12:59:36Z</time></trkpt><trkpt lat="43.94325890665244" lon="11.388276700070952"><ele>192.0</ele><time>2026-04-29T12:59:37Z</time></trkpt><trkpt lat="43.94304790281316" lon="11.38847525000526"><ele>192.0</ele><time>2026-04-29T12:59:38Z</time></trkpt><trkpt lat="43.94284950387076" lon="11.388692432498711"><ele>193.0</ele><time>2026-04-29T12:59:39Z</time></trkpt><trkpt lat="43.94268268348946" lon="11.38891151872664"><ele>194.0</ele><time>2026-04-29T12:59:40Z</time></trkpt><trkpt lat="43.942527330200605" lon="11.389155435869725"><ele>195.0</ele><time>2026-04-29T12:59:41Z</time></trkpt><trkpt lat="43.94236954061019" lon="11.38941482304124"><ele>196.0</ele><time>2026-04-29T12:59:42Z</time></trkpt><trkpt lat="43.942208200205854" lon="11.38967996320936"><ele>196.0</ele><time>2026-04-29T12:59:43Z</time></trkpt><trkpt lat="43.94202761779709" lon="11.389945386175793"><ele>196.0</ele><time>2026-04-29T12:59:44Z</time></trkpt><trkpt lat="43.94184020942917" lon="11.390236935350773"><ele>195.0</ele><time>2026-04-29T12:59:45Z</time></trkpt><trkpt lat="43.94165160948901" lon="11.39053033827486"><ele>194.0</ele><time>2026-04-29T12:59:46Z</time></trkpt><trkpt lat="43.94147393659358" lon="11.390830209452446"><ele>194.0</ele><time>2026-04-29T12:59:47Z</time></trkpt><trkpt lat="43.941279812642364" lon="11.391121637724812"><ele>194.0</ele><time>2026-04-29T12:59:48Z</time></trkpt><trkpt lat="43.94108559408628" lon="11.391423676427992"><ele>195.0</ele><time>2026-04-29T12:59:49Z</time></trkpt><trkpt lat="43.940889552546054" lon="11.391723538450991"><ele>196.0</ele><time>2026-04-29T12:59:50Z</time></trkpt><trkpt lat="43.94069740333051" lon="11.392023877639156"><ele>196.0</ele><time>2026-04-29T12:59:51Z</time></trkpt><trkpt lat="43.94050726064476" lon="11.39232062321334"><ele>196.0</ele><time>2026-04-29T12:59:52Z</time></trkpt><trkpt lat="43.940317450119565" lon="11.39261656425507"><ele>196.0</ele><time>2026-04-29T12:59:53Z</time></trkpt><trkpt lat="43.94012635482162" lon="11.392914086370135"><ele>196.0</ele><time>2026-04-29T12:59:54Z</time></trkpt><trkpt lat="43.9399315440899" lon="11.393212633408865"><ele>196.0</ele><time>2026-04-29T12:59:55Z</time></trkpt><trkpt lat="43.93973674156816" lon="11.393509095808506"><ele>196.0</ele><time>2026-04-29T12:59:56Z</time></trkpt><trkpt lat="43.9395421571438" lon="11.393810138426524"><ele>196.5</ele><time>2026-04-29T12:59:57Z</time></trkpt><trkpt lat="43.939348850177296" lon="11.394109411973544"><ele>197.0</ele><time>2026-04-29T12:59:58Z</time></trkpt><trkpt lat="43.93915857716814" lon="11.394402388290343"><ele>195.0</ele><time>2026-04-29T12:59:59Z</time></trkpt><trkpt lat="43.938967766020056" lon="11.394697662614165"><ele>193.0</ele><time>2026-04-29T13:00:00Z</time></trkpt><trkpt lat="43.93878175066829" lon="11.394993334879468"><ele>193.0</ele><time>2026-04-29T13:00:01Z</time></trkpt><trkpt lat="43.938594477691424" lon="11.395286326140557"><ele>193.0</ele><time>2026-04-29T13:00:02Z</time></trkpt><trkpt lat="43.93840266026581" lon="11.395576532751042"><ele>192.0</ele><time>2026-04-29T13:00:03Z</time></trkpt><trkpt lat="43.9382062739661" lon="11.39586798513919"><ele>191.0</ele><time>2026-04-29T13:00:04Z</time></trkpt><trkpt lat="43.93801797190819" lon="11.396152830919009"><ele>190.0</ele><time>2026-04-29T13:00:05Z</time></trkpt><trkpt lat="43.93784188887239" lon="11.396426579838622"><ele>189.0</ele><time>2026-04-29T13:00:06Z</time></trkpt><trkpt lat="43.937681460127145" lon="11.396683233657159"><ele>188.5</ele><time>2026-04-29T13:00:07Z</time></trkpt><trkpt lat="43.93753787985899" lon="11.396945885391846"><ele>188.0</ele><time>2026-04-29T13:00:08Z</time></trkpt><trkpt lat="43.93741296213208" lon="11.39724187373989"><ele>188.0</ele><time>2026-04-29T13:00:09Z</time></trkpt><trkpt lat="43.93731540071429" lon="11.397568776930386"><ele>188.0</ele><time>2026-04-29T13:00:10Z</time></trkpt><trkpt lat="43.937248713902946" lon="11.397908178591068"><ele>189.0</ele><time>2026-04-29T13:00:11Z</time></trkpt><trkpt lat="43.93722353437558" lon="11.398274151497082"><ele>190.0</ele><time>2026-04-29T13:00:12Z</time></trkpt><trkpt lat="43.93720918156469" lon="11.398663792859635"><ele>193.0</ele><time>2026-04-29T13:00:13Z</time></trkpt><trkpt lat="43.93716615535856" lon="11.399026505314067"><ele>196.0</ele><time>2026-04-29T13:00:14Z</time></trkpt><trkpt lat="43.937139668921986" lon="11.399360769964627"><ele>194.5</ele><time>2026-04-29T13:00:15Z</time></trkpt><trkpt lat="43.93712332964621" lon="11.399677192353115"><ele>193.0</ele><time>2026-04-29T13:00:16Z</time></trkpt><trkpt lat="43.93707052471542" lon="11.399994852489744"><ele>193.0</ele><time>2026-04-29T13:00:17Z</time></trkpt><trkpt lat="43.936982498892355" lon="11.400316628523022"><ele>193.0</ele><time>2026-04-29T13:00:18Z</time></trkpt><trkpt lat="43.936889426890396" lon="11.40065937449813"><ele>189.5</ele><time>2026-04-29T13:00:19Z</time></trkpt><trkpt lat="43.93680346734669" lon="11.401019299879442"><ele>186.0</ele><time>2026-04-29T13:00:20Z</time></trkpt><trkpt lat="43.93669941154973" lon="11.401367549880408"><ele>186.0</ele><time>2026-04-29T13:00:21Z</time></trkpt><trkpt lat="43.93659423071359" lon="11.401717270931583"><ele>186.0</ele><time>2026-04-29T13:00:22Z</time></trkpt><trkpt lat="43.936485981121166" lon="11.402061711195454"><ele>185.0</ele><time>2026-04-29T13:00:23Z</time></trkpt><trkpt lat="43.93636547526939" lon="11.402390808275491"><ele>184.0</ele><time>2026-04-29T13:00:24Z</time></trkpt><trkpt lat="43.93623452606679" lon="11.402707165397455"><ele>183.5</ele><time>2026-04-29T13:00:25Z</time></trkpt><trkpt lat="43.93607951136163" lon="11.403005023527594"><ele>183.0</ele><time>2026-04-29T13:00:26Z</time></trkpt><trkpt lat="43.935940007685765" lon="11.403326737006108"><ele>183.5</ele><time>2026-04-29T13:00:27Z</time></trkpt><trkpt lat="43.93578485669152" lon="11.403636876827207"><ele>184.0</ele><time>2026-04-29T13:00:28Z</time></trkpt><trkpt lat="43.935629302155874" lon="11.403950881292724"><ele>184.0</ele><time>2026-04-29T13:00:29Z</time></trkpt><trkpt lat="43.93547602243455" lon="11.404271270538482"><ele>184.0</ele><time>2026-04-29T13:00:30Z</time></trkpt><trkpt lat="43.9353222710542" lon="11.404590994003346"><ele>182.5</ele><time>2026-04-29T13:00:31Z</time></trkpt><trkpt lat="43.935167862412946" lon="11.404908719978039"><ele>181.0</ele><time>2026-04-29T13:00:32Z</time></trkpt><trkpt lat="43.93501014611139" lon="11.405230502956666"><ele>183.0</ele><time>2026-04-29T13:00:33Z</time></trkpt><trkpt lat="43.934850037077624" lon="11.405549953174727"><ele>185.0</ele><time>2026-04-29T13:00:34Z</time></trkpt><trkpt lat="43.934691062048074" lon="11.40587284677555"><ele>185.0</ele><time>2026-04-29T13:00:35Z</time></trkpt><trkpt lat="43.934537102428926" lon="11.406191844191996"><ele>185.0</ele><time>2026-04-29T13:00:36Z</time></trkpt><trkpt lat="43.93438106902242" lon="11.406506716302093"><ele>183.0</ele><time>2026-04-29T13:00:37Z</time></trkpt><trkpt lat="43.93422811759607" lon="11.406817513903889"><ele>181.0</ele><time>2026-04-29T13:00:38Z</time></trkpt><trkpt lat="43.93407396501223" lon="11.407128319936229"><ele>183.0</ele><time>2026-04-29T13:00:39Z</time></trkpt><trkpt lat="43.93392516105003" lon="11.407432365820712"><ele>185.0</ele><time>2026-04-29T13:00:40Z</time></trkpt><trkpt lat="43.93378548032248" lon="11.40771767334303"><ele>186.0</ele><time>2026-04-29T13:00:41Z</time></trkpt><trkpt lat="43.93364847858858" lon="11.408001692283792"><ele>187.0</ele><time>2026-04-29T13:00:42Z</time></trkpt><trkpt lat="43.933511067852855" lon="11.408275584876783"><ele>188.5</ele><time>2026-04-29T13:00:43Z</time></trkpt><trkpt lat="43.933383245379034" lon="11.40854802318433"><ele>190.0</ele><time>2026-04-29T13:00:44Z</time></trkpt><trkpt lat="43.93326502661878" lon="11.408835444642483"><ele>190.0</ele><time>2026-04-29T13:00:45Z</time></trkpt><trkpt lat="43.93315966168285" lon="11.409147559017704"><ele>190.0</ele><time>2026-04-29T13:00:46Z</time></trkpt><trkpt lat="43.93307980200685" lon="11.409457101590046"><ele>189.33333333333334</ele><time>2026-04-29T13:00:47Z</time></trkpt><trkpt lat="43.93302246380409" lon="11.40975971863181"><ele>188.66666666666666</ele><time>2026-04-29T13:00:48Z</time></trkpt><trkpt lat="43.93298038217311" lon="11.410056631726402"><ele>188.0</ele><time>2026-04-29T13:00:49Z</time></trkpt><trkpt lat="43.93293420814894" lon="11.410335433385498"><ele>187.33333333333331</ele><time>2026-04-29T13:00:50Z</time></trkpt><trkpt lat="43.93288468864358" lon="11.410601586407509"><ele>186.66666666666666</ele><time>2026-04-29T13:00:51Z</time></trkpt><trkpt lat="43.93283701324001" lon="11.41086030185486"><ele>186.0</ele><time>2026-04-29T13:00:52Z</time></trkpt><trkpt lat="43.932796017921646" lon="11.411108077520106"><ele>185.66666666666666</ele><time>2026-04-29T13:00:53Z</time></trkpt><trkpt lat="43.93275202146222" lon="11.411365585888385"><ele>185.33333333333331</ele><time>2026-04-29T13:00:54Z</time></trkpt><trkpt lat="43.93271125759344" lon="11.411620772529385"><ele>185.0</ele><time>2026-04-29T13:00:55Z</time></trkpt><trkpt lat="43.932677408767866" lon="11.411887025431056"><ele>185.0</ele><time>2026-04-29T13:00:56Z</time></trkpt><trkpt lat="43.93265415124602" lon="11.412144130392123"><ele>185.0</ele><time>2026-04-29T13:00:57Z</time></trkpt><trkpt lat="43.932651159690884" lon="11.412388864374945"><ele>185.0</ele><time>2026-04-29T13:00:58Z</time></trkpt><trkpt lat="43.932666260482854" lon="11.412624216562888"><ele>185.33333333333331</ele><time>2026-04-29T13:00:59Z</time></trkpt><trkpt lat="43.93269542422892" lon="11.412847065776539"><ele>185.66666666666666</ele><time>2026-04-29T13:01:00Z</time></trkpt><trkpt lat="43.932728946066" lon="11.413063037569376"><ele>186.0</ele><time>2026-04-29T13:01:01Z</time></trkpt><trkpt lat="43.93275615555907" lon="11.413275297579863"><ele>185.25</ele><time>2026-04-29T13:01:02Z</time></trkpt><trkpt lat="43.93278021453449" lon="11.413468054538892"><ele>184.5</ele><time>2026-04-29T13:01:03Z</time></trkpt><trkpt lat="43.932803329821944" lon="11.413648660238472"><ele>183.75</ele><time>2026-04-29T13:01:04Z</time></trkpt><trkpt lat="43.932830804316154" lon="11.413824272913969"><ele>183.0</ele><time>2026-04-29T13:01:05Z</time></trkpt><trkpt lat="43.932855664768645" lon="11.414007125131345"><ele>182.5</ele><time>2026-04-29T13:01:06Z</time></trkpt><trkpt lat="43.93287852649684" lon="11.41419175226936"><ele>182.0</ele><time>2026-04-29T13:01:07Z</time></trkpt><trkpt lat="43.932902307835576" lon="11.414376207541732"><ele>181.5</ele><time>2026-04-29T13:01:08Z</time></trkpt><trkpt lat="43.93292325773903" lon="11.414562274634172"><ele>181.0</ele><time>2026-04-29T13:01:09Z</time></trkpt><trkpt lat="43.93294373825999" lon="11.41474824145972"><ele>181.0</ele><time>2026-04-29T13:01:10Z</time></trkpt><trkpt lat="43.9329650524416" lon="11.414920380696454"><ele>181.0</ele><time>2026-04-29T13:01:11Z</time></trkpt><trkpt lat="43.93298625298402" lon="11.415087095650673"><ele>181.0</ele><time>2026-04-29T13:01:12Z</time></trkpt><trkpt lat="43.93300334032118" lon="11.415252646103944"><ele>181.0</ele><time>2026-04-29T13:01:13Z</time></trkpt><trkpt lat="43.93301362799833" lon="11.41541906590297"><ele>181.0</ele><time>2026-04-29T13:01:14Z</time></trkpt><trkpt lat="43.93302551861067" lon="11.415596305939676"><ele>181.0</ele><time>2026-04-29T13:01:15Z</time></trkpt><trkpt lat="43.93303858490514" lon="11.415768455664722"><ele>181.0</ele><time>2026-04-29T13:01:16Z</time></trkpt><trkpt lat="43.93304826668608" lon="11.415937076715737"><ele>181.0</ele><time>2026-04-29T13:01:17Z</time></trkpt><trkpt lat="43.93305324088706" lon="11.416120264048624"><ele>181.0</ele><time>2026-04-29T13:01:18Z</time></trkpt><trkpt lat="43.933068141586645" lon="11.416314556159307"><ele>181.0</ele><time>2026-04-29T13:01:19Z</time></trkpt><trkpt lat="43.93305766297685" lon="11.416457519826524"><ele>181.0</ele><time>2026-04-29T13:01:20Z</time></trkpt><trkpt lat="43.93306259660399" lon="11.416626322925865"><ele>181.0</ele><time>2026-04-29T13:01:21Z</time></trkpt><trkpt lat="43.9330720375762" lon="11.416801007026926"><ele>181.0</ele><time>2026-04-29T13:01:22Z</time></trkpt><trkpt lat="43.93308013728651" lon="11.417003720785788"><ele>181.0</ele><time>2026-04-29T13:01:23Z</time></trkpt><trkpt lat="43.9330889084312" lon="11.417236207886955"><ele>181.0</ele><time>2026-04-29T13:01:24Z</time></trkpt><trkpt lat="43.9330976555694" lon="11.417490220320138"><ele>181.0</ele><time>2026-04-29T13:01:25Z</time></trkpt><trkpt lat="43.9331077869811" lon="11.4177451031636"><ele>181.0</ele><time>2026-04-29T13:01:26Z</time></trkpt><trkpt lat="43.933112350177865" lon="11.418021057152165"><ele>181.0</ele><time>2026-04-29T13:01:27Z</time></trkpt><trkpt lat="43.933116650658675" lon="11.418312406045455"><ele>180.66666666666669</ele><time>2026-04-29T13:01:28Z</time></trkpt><trkpt lat="43.933122718488654" lon="11.418622772499264"><ele>180.33333333333334</ele><time>2026-04-29T13:01:29Z</time></trkpt><trkpt lat="43.93312452291066" lon="11.41891708661168"><ele>180.0</ele><time>2026-04-29T13:01:30Z</time></trkpt><trkpt lat="43.93312408784326" lon="11.419200046388944"><ele>180.0</ele><time>2026-04-29T13:01:31Z</time></trkpt><trkpt lat="43.9331186246727" lon="11.419466124795795"><ele>180.0</ele><time>2026-04-29T13:01:32Z</time></trkpt><trkpt lat="43.93311230501939" lon="11.419731253829562"><ele>180.0</ele><time>2026-04-29T13:01:33Z</time></trkpt><trkpt lat="43.93309352034174" lon="11.42000037392702"><ele>180.0</ele><time>2026-04-29T13:01:34Z</time></trkpt><trkpt lat="43.93306442022788" lon="11.420291956192708"><ele>180.0</ele><time>2026-04-29T13:01:35Z</time></trkpt><trkpt lat="43.93302781426945" lon="11.420587388930644"><ele>180.0</ele><time>2026-04-29T13:01:36Z</time></trkpt><trkpt lat="43.932978574421035" lon="11.420889192005157"><ele>180.33333333333334</ele><time>2026-04-29T13:01:37Z</time></trkpt><trkpt lat="43.9329409282414" lon="11.421165328795984"><ele>180.66666666666669</ele><time>2026-04-29T13:01:38Z</time></trkpt><trkpt lat="43.93291512534688" lon="11.421430445652067"><ele>181.0</ele><time>2026-04-29T13:01:39Z</time></trkpt><trkpt lat="43.93291562742303" lon="11.421704528086437"><ele>181.33333333333334</ele><time>2026-04-29T13:01:40Z</time></trkpt><trkpt lat="43.93294073724728" lon="11.421993901722447"><ele>181.66666666666666</ele><time>2026-04-29T13:01:41Z</time></trkpt><trkpt lat="43.932990378174544" lon="11.422300343860055"><ele>182.0</ele><time>2026-04-29T13:01:42Z</time></trkpt><trkpt lat="43.93305512525808" lon="11.422629571265004"><ele>182.0</ele><time>2026-04-29T13:01:43Z</time></trkpt><trkpt lat="43.93313657297185" lon="11.422963333790062"><ele>182.0</ele><time>2026-04-29T13:01:44Z</time></trkpt><trkpt lat="43.9332229178619" lon="11.423303053630702"><ele>181.5</ele><time>2026-04-29T13:01:45Z</time></trkpt><trkpt lat="43.9333067104294" lon="11.423643898356483"><ele>181.0</ele><time>2026-04-29T13:01:46Z</time></trkpt><trkpt lat="43.93338574189131" lon="11.423990354938033"><ele>180.5</ele><time>2026-04-29T13:01:47Z</time></trkpt><trkpt lat="43.933448229397314" lon="11.424338707205198"><ele>180.0</ele><time>2026-04-29T13:01:48Z</time></trkpt><trkpt lat="43.93352967292098" lon="11.424661896450457"><ele>180.0</ele><time>2026-04-29T13:01:49Z</time></trkpt><trkpt lat="43.9335988932401" lon="11.424965254955088"><ele>180.0</ele><time>2026-04-29T13:01:50Z</time></trkpt><trkpt lat="43.9336660283219" lon="11.425261496550073"><ele>179.66666666666666</ele><time>2026-04-29T13:01:51Z</time></trkpt><trkpt lat="43.93369124756868" lon="11.425566429104926"><ele>179.33333333333331</ele><time>2026-04-29T13:01:52Z</time></trkpt><trkpt lat="43.93369499140803" lon="11.425874407852298"><ele>179.0</ele><time>2026-04-29T13:01:53Z</time></trkpt><trkpt lat="43.93367243168544" lon="11.426206585751597"><ele>178.5</ele><time>2026-04-29T13:01:54Z</time></trkpt><trkpt lat="43.93361447725384" lon="11.426520254915745"><ele>178.0</ele><time>2026-04-29T13:01:55Z</time></trkpt><trkpt lat="43.93352594016282" lon="11.42682926602583"><ele>178.0</ele><time>2026-04-29T13:01:56Z</time></trkpt><trkpt lat="43.933418423237676" lon="11.427157919750199"><ele>178.0</ele><time>2026-04-29T13:01:57Z</time></trkpt><trkpt lat="43.93330264578265" lon="11.427499138173248"><ele>178.5</ele><time>2026-04-29T13:01:58Z</time></trkpt><trkpt lat="43.93318327657512" lon="11.427848509463457"><ele>179.0</ele><time>2026-04-29T13:01:59Z</time></trkpt><trkpt lat="43.93306490648717" lon="11.428201378005536"><ele>179.0</ele><time>2026-04-29T13:02:00Z</time></trkpt><trkpt lat="43.932946023701255" lon="11.42855116793923"><ele>179.0</ele><time>2026-04-29T13:02:01Z</time></trkpt><trkpt lat="43.93282369534226" lon="11.428904716638261"><ele>178.0</ele><time>2026-04-29T13:02:02Z</time></trkpt><trkpt lat="43.93269756642391" lon="11.42925273710321"><ele>177.0</ele><time>2026-04-29T13:02:03Z</time></trkpt><trkpt lat="43.93256556683743" lon="11.42959953021494"><ele>177.5</ele><time>2026-04-29T13:02:04Z</time></trkpt><trkpt lat="43.9324319603996" lon="11.429944271211737"><ele>178.0</ele><time>2026-04-29T13:02:05Z</time></trkpt><trkpt lat="43.93229938064924" lon="11.430286363621915"><ele>178.0</ele><time>2026-04-29T13:02:06Z</time></trkpt><trkpt lat="43.9321656155281" lon="11.430627987730801"><ele>178.0</ele><time>2026-04-29T13:02:07Z</time></trkpt><trkpt lat="43.93203578299644" lon="11.430968698027325"><ele>178.0</ele><time>2026-04-29T13:02:08Z</time></trkpt><trkpt lat="43.931914772555906" lon="11.431286257074992"><ele>178.0</ele><time>2026-04-29T13:02:09Z</time></trkpt><trkpt lat="43.93180964041139" lon="11.431605206223873"><ele>178.5</ele><time>2026-04-29T13:02:10Z</time></trkpt><trkpt lat="43.9316843630491" lon="11.431908494795852"><ele>179.0</ele><time>2026-04-29T13:02:11Z</time></trkpt><trkpt lat="43.93155884550551" lon="11.432217848194986"><ele>179.0</ele><time>2026-04-29T13:02:12Z</time></trkpt><trkpt lat="43.931439837941184" lon="11.432538992814788"><ele>179.0</ele><time>2026-04-29T13:02:13Z</time></trkpt><trkpt lat="43.931315803226056" lon="11.432854723940794"><ele>178.5</ele><time>2026-04-29T13:02:14Z</time></trkpt><trkpt lat="43.93120090762997" lon="11.433146754409083"><ele>178.0</ele><time>2026-04-29T13:02:15Z</time></trkpt><trkpt lat="43.93110333626126" lon="11.433443794185372"><ele>178.0</ele><time>2026-04-29T13:02:16Z</time></trkpt><trkpt lat="43.931025848442005" lon="11.433743857279655"><ele>178.0</ele><time>2026-04-29T13:02:17Z</time></trkpt><trkpt lat="43.930980328550795" lon="11.434050960782574"><ele>178.0</ele><time>2026-04-29T13:02:18Z</time></trkpt><trkpt lat="43.9309623638853" lon="11.434387447250609"><ele>178.0</ele><time>2026-04-29T13:02:19Z</time></trkpt><trkpt lat="43.93096233921805" lon="11.434743611315763"><ele>178.5</ele><time>2026-04-29T13:02:20Z</time></trkpt><trkpt lat="43.930983023969226" lon="11.435102567624002"><ele>179.0</ele><time>2026-04-29T13:02:21Z</time></trkpt><trkpt lat="43.931023626116655" lon="11.435437559596666"><ele>179.33333333333331</ele><time>2026-04-29T13:02:22Z</time></trkpt><trkpt lat="43.931017277716506" lon="11.435743623933686"><ele>179.66666666666666</ele><time>2026-04-29T13:02:23Z</time></trkpt><trkpt lat="43.930991778480845" lon="11.436044382037457"><ele>180.0</ele><time>2026-04-29T13:02:24Z</time></trkpt><trkpt lat="43.93093589726914" lon="11.436346769993996"><ele>182.0</ele><time>2026-04-29T13:02:25Z</time></trkpt><trkpt lat="43.93083704442094" lon="11.436646482754309"><ele>184.0</ele><time>2026-04-29T13:02:26Z</time></trkpt><trkpt lat="43.93070355480699" lon="11.436949746533902"><ele>182.5</ele><time>2026-04-29T13:02:27Z</time></trkpt><trkpt lat="43.93056369090015" lon="11.437254420903624"><ele>181.0</ele><time>2026-04-29T13:02:28Z</time></trkpt><trkpt lat="43.93042301907784" lon="11.437565305875692"><ele>181.0</ele><time>2026-04-29T13:02:29Z</time></trkpt><trkpt lat="43.93028956185648" lon="11.437876406652304"><ele>181.0</ele><time>2026-04-29T13:02:30Z</time></trkpt><trkpt lat="43.93015253700502" lon="11.438179791621861"><ele>183.5</ele><time>2026-04-29T13:02:31Z</time></trkpt><trkpt lat="43.93001880151317" lon="11.438460394160655"><ele>186.0</ele><time>2026-04-29T13:02:32Z</time></trkpt><trkpt lat="43.92988155501906" lon="11.438735246827976"><ele>183.0</ele><time>2026-04-29T13:02:33Z</time></trkpt><trkpt lat="43.92974296191355" lon="11.438992251187946"><ele>180.0</ele><time>2026-04-29T13:02:34Z</time></trkpt><trkpt lat="43.929592147243554" lon="11.439258041178682"><ele>180.0</ele><time>2026-04-29T13:02:35Z</time></trkpt><trkpt lat="43.9294310520445" lon="11.439526698754104"><ele>180.0</ele><time>2026-04-29T13:02:36Z</time></trkpt><trkpt lat="43.92926409028391" lon="11.439805717081319"><ele>178.0</ele><time>2026-04-29T13:02:37Z</time></trkpt><trkpt lat="43.92910372367539" lon="11.440084255684214"><ele>176.0</ele><time>2026-04-29T13:02:38Z</time></trkpt><trkpt lat="43.928938820875636" lon="11.440366529795392"><ele>175.5</ele><time>2026-04-29T13:02:39Z</time></trkpt><trkpt lat="43.92877081351668" lon="11.440651704469909"><ele>175.0</ele><time>2026-04-29T13:02:40Z</time></trkpt><trkpt lat="43.928598102447616" lon="11.440941357246354"><ele>175.0</ele><time>2026-04-29T13:02:41Z</time></trkpt><trkpt lat="43.92841724458889" lon="11.44124703087654"><ele>175.0</ele><time>2026-04-29T13:02:42Z</time></trkpt><trkpt lat="43.9282296905315" lon="11.441557585156243"><ele>175.5</ele><time>2026-04-29T13:02:43Z</time></trkpt><trkpt lat="43.92806030519807" lon="11.441843884021056"><ele>176.0</ele><time>2026-04-29T13:02:44Z</time></trkpt><trkpt lat="43.927906562606964" lon="11.44210852760368"><ele>176.5</ele><time>2026-04-29T13:02:45Z</time></trkpt><trkpt lat="43.92775217162478" lon="11.44237350075829"><ele>177.0</ele><time>2026-04-29T13:02:46Z</time></trkpt><trkpt lat="43.92760565684962" lon="11.44263534027944"><ele>178.0</ele><time>2026-04-29T13:02:47Z</time></trkpt><trkpt lat="43.92745303545174" lon="11.442883889711482"><ele>179.0</ele><time>2026-04-29T13:02:48Z</time></trkpt><trkpt lat="43.92731367897135" lon="11.44311879944923"><ele>179.0</ele><time>2026-04-29T13:02:49Z</time></trkpt><trkpt lat="43.92718411989533" lon="11.443365153595655"><ele>179.0</ele><time>2026-04-29T13:02:50Z</time></trkpt><trkpt lat="43.927053051748636" lon="11.443633867520942"><ele>178.5</ele><time>2026-04-29T13:02:51Z</time></trkpt><trkpt lat="43.92691681774073" lon="11.443925702091658"><ele>178.0</ele><time>2026-04-29T13:02:52Z</time></trkpt><trkpt lat="43.92678631387739" lon="11.444232654894769"><ele>178.0</ele><time>2026-04-29T13:02:53Z</time></trkpt><trkpt lat="43.926665738580056" lon="11.444541897555593"><ele>178.0</ele><time>2026-04-29T13:02:54Z</time></trkpt><trkpt lat="43.92654729056881" lon="11.444868621809553"><ele>178.0</ele><time>2026-04-29T13:02:55Z</time></trkpt><trkpt lat="43.92643929310305" lon="11.445190404373978"><ele>178.0</ele><time>2026-04-29T13:02:56Z</time></trkpt><trkpt lat="43.92633836757591" lon="11.445518939681214"><ele>178.5</ele><time>2026-04-29T13:02:57Z</time></trkpt><trkpt lat="43.9262465074029" lon="11.445848853363003"><ele>179.0</ele><time>2026-04-29T13:02:58Z</time></trkpt><trkpt lat="43.92616377964384" lon="11.446183097199295"><ele>179.0</ele><time>2026-04-29T13:02:59Z</time></trkpt><trkpt lat="43.926090630670174" lon="11.446519383481705"><ele>179.0</ele><time>2026-04-29T13:03:00Z</time></trkpt><trkpt lat="43.92602434501625" lon="11.44685789279781"><ele>179.5</ele><time>2026-04-29T13:03:01Z</time></trkpt><trkpt lat="43.925955787436116" lon="11.447192685934773"><ele>180.0</ele><time>2026-04-29T13:03:02Z</time></trkpt><trkpt lat="43.92588206563777" lon="11.44752022533354"><ele>180.5</ele><time>2026-04-29T13:03:03Z</time></trkpt><trkpt lat="43.92580520897141" lon="11.447826234378526"><ele>181.0</ele><time>2026-04-29T13:03:04Z</time></trkpt><trkpt lat="43.92573252788069" lon="11.448132383800717"><ele>181.0</ele><time>2026-04-29T13:03:05Z</time></trkpt><trkpt lat="43.9256602746457" lon="11.44845412180869"><ele>181.0</ele><time>2026-04-29T13:03:06Z</time></trkpt><trkpt lat="43.92558326148537" lon="11.448783477185607"><ele>179.0</ele><time>2026-04-29T13:03:07Z</time></trkpt><trkpt lat="43.92550447540049" lon="11.449120262747597"><ele>177.0</ele><time>2026-04-29T13:03:08Z</time></trkpt><trkpt lat="43.92542749967786" lon="11.449458340657069"><ele>176.0</ele><time>2026-04-29T13:03:09Z</time></trkpt><trkpt lat="43.92534804231552" lon="11.449795104444032"><ele>175.0</ele><time>2026-04-29T13:03:10Z</time></trkpt><trkpt lat="43.9252725049909" lon="11.450137843754103"><ele>174.5</ele><time>2026-04-29T13:03:11Z</time></trkpt><trkpt lat="43.92520202144068" lon="11.450483587776464"><ele>174.0</ele><time>2026-04-29T13:03:12Z</time></trkpt><trkpt lat="43.92513670426212" lon="11.450829687712453"><ele>174.0</ele><time>2026-04-29T13:03:13Z</time></trkpt><trkpt lat="43.92508378403963" lon="11.451183896167066"><ele>174.0</ele><time>2026-04-29T13:03:14Z</time></trkpt><trkpt lat="43.925044060602055" lon="11.451549097734507"><ele>175.0</ele><time>2026-04-29T13:03:15Z</time></trkpt><trkpt lat="43.92501732475811" lon="11.451918098836853"><ele>176.0</ele><time>2026-04-29T13:03:16Z</time></trkpt><trkpt lat="43.92500679019478" lon="11.452282523843635"><ele>176.5</ele><time>2026-04-29T13:03:17Z</time></trkpt><trkpt lat="43.92501124130578" lon="11.452649016179075"><ele>177.0</ele><time>2026-04-29T13:03:18Z</time></trkpt><trkpt lat="43.92501634371663" lon="11.453018189721838"><ele>178.0</ele><time>2026-04-29T13:03:19Z</time></trkpt><trkpt lat="43.925034443019285" lon="11.453382328029049"><ele>179.0</ele><time>2026-04-29T13:03:20Z</time></trkpt><trkpt lat="43.92504902570713" lon="11.453728332032949"><ele>176.0</ele><time>2026-04-29T13:03:21Z</time></trkpt><trkpt lat="43.92507914420398" lon="11.454075118525406"><ele>173.0</ele><time>2026-04-29T13:03:22Z</time></trkpt><trkpt lat="43.925125063102016" lon="11.454422772798791"><ele>174.0</ele><time>2026-04-29T13:03:23Z</time></trkpt><trkpt lat="43.92519020452064" lon="11.454751809304945"><ele>175.0</ele><time>2026-04-29T13:03:24Z</time></trkpt><trkpt lat="43.925250905037394" lon="11.455060200884038"><ele>175.0</ele><time>2026-04-29T13:03:25Z</time></trkpt><trkpt lat="43.92531345021694" lon="11.455351514697307"><ele>175.0</ele><time>2026-04-29T13:03:26Z</time></trkpt><trkpt lat="43.925379789998566" lon="11.455637744462503"><ele>175.0</ele><time>2026-04-29T13:03:27Z</time></trkpt><trkpt lat="43.925476844770365" lon="11.45591693030709"><ele>175.5</ele><time>2026-04-29T13:03:28Z</time></trkpt><trkpt lat="43.92560910337626" lon="11.45619369140436"><ele>176.0</ele><time>2026-04-29T13:03:29Z</time></trkpt><trkpt lat="43.92578422053119" lon="11.456450635639303"><ele>176.5</ele><time>2026-04-29T13:03:30Z</time></trkpt><trkpt lat="43.92597933278838" lon="11.456684526107532"><ele>177.0</ele><time>2026-04-29T13:03:31Z</time></trkpt><trkpt lat="43.926207688870264" lon="11.45688492907056"><ele>177.0</ele><time>2026-04-29T13:03:32Z</time></trkpt><trkpt lat="43.92643542016615" lon="11.457087140646559"><ele>177.0</ele><time>2026-04-29T13:03:33Z</time></trkpt><trkpt lat="43.92666277589325" lon="11.457291010125685"><ele>176.0</ele><time>2026-04-29T13:03:34Z</time></trkpt><trkpt lat="43.92685906008945" lon="11.457504392649895"><ele>175.0</ele><time>2026-04-29T13:03:35Z</time></trkpt><trkpt lat="43.92705814704224" lon="11.457692752574475"><ele>175.0</ele><time>2026-04-29T13:03:36Z</time></trkpt><trkpt lat="43.92725165000605" lon="11.457874890236482"><ele>175.0</ele><time>2026-04-29T13:03:37Z</time></trkpt><trkpt lat="43.927446686827416" lon="11.458058655224471"><ele>174.66666666666669</ele><time>2026-04-29T13:03:38Z</time></trkpt><trkpt lat="43.927633885122944" lon="11.458245476435014"><ele>174.33333333333334</ele><time>2026-04-29T13:03:39Z</time></trkpt><trkpt lat="43.92779735016676" lon="11.458436038979002"><ele>174.0</ele><time>2026-04-29T13:03:40Z</time></trkpt><trkpt lat="43.92793100636878" lon="11.45865594776976"><ele>175.0</ele><time>2026-04-29T13:03:41Z</time></trkpt><trkpt lat="43.928022061370136" lon="11.45889759629701"><ele>176.0</ele><time>2026-04-29T13:03:42Z</time></trkpt><trkpt lat="43.928085106729284" lon="11.459161173948777"><ele>177.0</ele><time>2026-04-29T13:03:43Z</time></trkpt><trkpt lat="43.92811970733742" lon="11.45945247307329"><ele>176.33333333333334</ele><time>2026-04-29T13:03:44Z</time></trkpt><trkpt lat="43.928115309719765" lon="11.459742230606345"><ele>175.66666666666669</ele><time>2026-04-29T13:03:45Z</time></trkpt><trkpt lat="43.92808155744835" lon="11.460031441413893"><ele>175.0</ele><time>2026-04-29T13:03:46Z</time></trkpt><trkpt lat="43.92801442084327" lon="11.460339461200096"><ele>174.0</ele><time>2026-04-29T13:03:47Z</time></trkpt><trkpt lat="43.92793245011116" lon="11.460677392946184"><ele>173.0</ele><time>2026-04-29T13:03:48Z</time></trkpt><trkpt lat="43.92783816483593" lon="11.461008105237196"><ele>172.5</ele><time>2026-04-29T13:03:49Z</time></trkpt><trkpt lat="43.92775640993819" lon="11.46132762451349"><ele>172.0</ele><time>2026-04-29T13:03:50Z</time></trkpt><trkpt lat="43.92768088234634" lon="11.461648587094302"><ele>172.0</ele><time>2026-04-29T13:03:51Z</time></trkpt><trkpt lat="43.92760106483108" lon="11.46196434668752"><ele>172.0</ele><time>2026-04-29T13:03:52Z</time></trkpt><trkpt lat="43.927550651984625" lon="11.4623282214674"><ele>174.0</ele><time>2026-04-29T13:03:53Z</time></trkpt><trkpt lat="43.92750065846523" lon="11.462684350009326"><ele>176.0</ele><time>2026-04-29T13:03:54Z</time></trkpt><trkpt lat="43.92744209754053" lon="11.463025108853849"><ele>176.0</ele><time>2026-04-29T13:03:55Z</time></trkpt><trkpt lat="43.92740126714922" lon="11.463351698458188"><ele>176.0</ele><time>2026-04-29T13:03:56Z</time></trkpt><trkpt lat="43.92737715667182" lon="11.463665101507436"><ele>175.5</ele><time>2026-04-29T13:03:57Z</time></trkpt><trkpt lat="43.927324896531225" lon="11.46397047725465"><ele>175.0</ele><time>2026-04-29T13:03:58Z</time></trkpt><trkpt lat="43.9272869028669" lon="11.464281561126992"><ele>175.0</ele><time>2026-04-29T13:03:59Z</time></trkpt><trkpt lat="43.927255552581094" lon="11.464571757718678"><ele>175.0</ele><time>2026-04-29T13:04:00Z</time></trkpt><trkpt lat="43.92725670999335" lon="11.464833573076653"><ele>175.0</ele><time>2026-04-29T13:04:01Z</time></trkpt><trkpt lat="43.927259981498146" lon="11.465075586746822"><ele>175.0</ele><time>2026-04-29T13:04:02Z</time></trkpt><trkpt lat="43.92728672574692" lon="11.465322520698965"><ele>175.0</ele><time>2026-04-29T13:04:03Z</time></trkpt><trkpt lat="43.92732555898034" lon="11.465557956586359"><ele>175.0</ele><time>2026-04-29T13:04:04Z</time></trkpt><trkpt lat="43.92737015163478" lon="11.465778620958954"><ele>175.0</ele><time>2026-04-29T13:04:05Z</time></trkpt><trkpt lat="43.92741940875635" lon="11.466003849569256"><ele>175.0</ele><time>2026-04-29T13:04:06Z</time></trkpt><trkpt lat="43.927478019840365" lon="11.466241741359896"><ele>175.0</ele><time>2026-04-29T13:04:07Z</time></trkpt><trkpt lat="43.927530838991764" lon="11.466464146924555"><ele>173.66666666666669</ele><time>2026-04-29T13:04:08Z</time></trkpt><trkpt lat="43.92759053259474" lon="11.466672559326765"><ele>172.33333333333334</ele><time>2026-04-29T13:04:09Z</time></trkpt><trkpt lat="43.927664989354746" lon="11.466864988688126"><ele>171.0</ele><time>2026-04-29T13:04:10Z</time></trkpt><trkpt lat="43.92776284572515" lon="11.467049184763576"><ele>171.66666666666666</ele><time>2026-04-29T13:04:11Z</time></trkpt><trkpt lat="43.9278837355508" lon="11.467216862133402"><ele>172.33333333333331</ele><time>2026-04-29T13:04:12Z</time></trkpt><trkpt lat="43.92802346695478" lon="11.467377752405351"><ele>173.0</ele><time>2026-04-29T13:04:13Z</time></trkpt><trkpt lat="43.92816953116982" lon="11.467544128761995"><ele>173.0</ele><time>2026-04-29T13:04:14Z</time></trkpt><trkpt lat="43.928320099187815" lon="11.467705947037938"><ele>173.0</ele><time>2026-04-29T13:04:15Z</time></trkpt><trkpt lat="43.9284554839481" lon="11.467870286876328"><ele>173.0</ele><time>2026-04-29T13:04:16Z</time></trkpt><trkpt lat="43.92858174872785" lon="11.468060508604713"><ele>172.66666666666666</ele><time>2026-04-29T13:04:17Z</time></trkpt><trkpt lat="43.92869910279628" lon="11.468278823614584"><ele>172.33333333333334</ele><time>2026-04-29T13:04:18Z</time></trkpt><trkpt lat="43.928813023963606" lon="11.468515103984874"><ele>172.0</ele><time>2026-04-29T13:04:19Z</time></trkpt><trkpt lat="43.928937434244034" lon="11.468736083847993"><ele>174.0</ele><time>2026-04-29T13:04:20Z</time></trkpt><trkpt lat="43.92904435092265" lon="11.468959207678576"><ele>176.0</ele><time>2026-04-29T13:04:21Z</time></trkpt><trkpt lat="43.929128667510135" lon="11.469184652849018"><ele>178.0</ele><time>2026-04-29T13:04:22Z</time></trkpt><trkpt lat="43.929216915699406" lon="11.469384122326389"><ele>175.66666666666669</ele><time>2026-04-29T13:04:23Z</time></trkpt><trkpt lat="43.92930316584396" lon="11.469575657394676"><ele>173.33333333333334</ele><time>2026-04-29T13:04:24Z</time></trkpt><trkpt lat="43.92938634599354" lon="11.469760375081513"><ele>171.0</ele><time>2026-04-29T13:04:25Z</time></trkpt><trkpt lat="43.92946312784431" lon="11.46993088409988"><ele>170.5</ele><time>2026-04-29T13:04:26Z</time></trkpt><trkpt lat="43.9295473765125" lon="11.47010345442011"><ele>170.0</ele><time>2026-04-29T13:04:27Z</time></trkpt><trkpt lat="43.92960184039462" lon="11.470283083326308"><ele>169.5</ele><time>2026-04-29T13:04:28Z</time></trkpt><trkpt lat="43.92965423655015" lon="11.470459295688084"><ele>169.0</ele><time>2026-04-29T13:04:29Z</time></trkpt><trkpt lat="43.92968953322669" lon="11.470647648734332"><ele>170.66666666666669</ele><time>2026-04-29T13:04:30Z</time></trkpt><trkpt lat="43.929713626161686" lon="11.4708755074227"><ele>172.33333333333334</ele><time>2026-04-29T13:04:31Z</time></trkpt><trkpt lat="43.92971786680067" lon="11.471147433051803"><ele>174.0</ele><time>2026-04-29T13:04:32Z</time></trkpt><trkpt lat="43.92975130514269" lon="11.471407160760009"><ele>176.33333333333334</ele><time>2026-04-29T13:04:33Z</time></trkpt><trkpt lat="43.929791933073915" lon="11.4716704127327"><ele>178.66666666666669</ele><time>2026-04-29T13:04:34Z</time></trkpt><trkpt lat="43.92983002331798" lon="11.471925752083909"><ele>181.0</ele><time>2026-04-29T13:04:35Z</time></trkpt><trkpt lat="43.92987904760697" lon="11.472186023919937"><ele>181.0</ele><time>2026-04-29T13:04:36Z</time></trkpt><trkpt lat="43.929948181788326" lon="11.47244407371261"><ele>181.0</ele><time>2026-04-29T13:04:37Z</time></trkpt><trkpt lat="43.930024518918195" lon="11.472698632309847"><ele>181.0</ele><time>2026-04-29T13:04:38Z</time></trkpt><trkpt lat="43.93010849378532" lon="11.472953543163634"><ele>178.66666666666669</ele><time>2026-04-29T13:04:39Z</time></trkpt><trkpt lat="43.930183790219566" lon="11.473191775671522"><ele>176.33333333333334</ele><time>2026-04-29T13:04:40Z</time></trkpt><trkpt lat="43.930255217196205" lon="11.473421884228388"><ele>174.0</ele><time>2026-04-29T13:04:41Z</time></trkpt><trkpt lat="43.93031763996608" lon="11.473640578748364"><ele>175.33333333333334</ele><time>2026-04-29T13:04:42Z</time></trkpt><trkpt lat="43.93037245991449" lon="11.47385295036962"><ele>176.66666666666669</ele><time>2026-04-29T13:04:43Z</time></trkpt><trkpt lat="43.93042402191175" lon="11.4740640330397"><ele>178.0</ele><time>2026-04-29T13:04:44Z</time></trkpt><trkpt lat="43.93046033970498" lon="11.474264863598462"><ele>178.0</ele><time>2026-04-29T13:04:45Z</time></trkpt><trkpt lat="43.93048646910402" lon="11.474455855886616"><ele>178.0</ele><time>2026-04-29T13:04:46Z</time></trkpt><trkpt lat="43.9305024937052" lon="11.474631747978671"><ele>178.0</ele><time>2026-04-29T13:04:47Z</time></trkpt><trkpt lat="43.93049150606815" lon="11.474799481790196"><ele>178.0</ele><time>2026-04-29T13:04:48Z</time></trkpt><trkpt lat="43.93045240950756" lon="11.47497162253974"><ele>178.0</ele><time>2026-04-29T13:04:49Z</time></trkpt><trkpt lat="43.93037728053451" lon="11.475162020643532"><ele>178.0</ele><time>2026-04-29T13:04:50Z</time></trkpt><trkpt lat="43.93028894693979" lon="11.475371753238809"><ele>178.0</ele><time>2026-04-29T13:04:51Z</time></trkpt><trkpt lat="43.93019625650489" lon="11.475602580503821"><ele>178.0</ele><time>2026-04-29T13:04:52Z</time></trkpt><trkpt lat="43.93010128787373" lon="11.475848527194412"><ele>178.0</ele><time>2026-04-29T13:04:53Z</time></trkpt><trkpt lat="43.929993459672765" lon="11.47610254811649"><ele>178.0</ele><time>2026-04-29T13:04:54Z</time></trkpt><trkpt lat="43.92988197123961" lon="11.47636942202508"><ele>179.0</ele><time>2026-04-29T13:04:55Z</time></trkpt><trkpt lat="43.929768681365566" lon="11.476644654083092"><ele>180.0</ele><time>2026-04-29T13:04:56Z</time></trkpt><trkpt lat="43.92965393612164" lon="11.476919476427346"><ele>178.5</ele><time>2026-04-29T13:04:57Z</time></trkpt><trkpt lat="43.92954026284293" lon="11.477194381427811"><ele>177.0</ele><time>2026-04-29T13:04:58Z</time></trkpt><trkpt lat="43.929427643137636" lon="11.477469107879848"><ele>177.0</ele><time>2026-04-29T13:04:59Z</time></trkpt><trkpt lat="43.929321544050744" lon="11.477737066759301"><ele>177.0</ele><time>2026-04-29T13:05:00Z</time></trkpt><trkpt lat="43.929221291282865" lon="11.477980608541145"><ele>177.0</ele><time>2026-04-29T13:05:01Z</time></trkpt><trkpt lat="43.92912548709871" lon="11.478208529591429"><ele>176.66666666666666</ele><time>2026-04-29T13:05:02Z</time></trkpt><trkpt lat="43.929035123968745" lon="11.478423235646735"><ele>176.33333333333331</ele><time>2026-04-29T13:05:03Z</time></trkpt><trkpt lat="43.928930025470144" lon="11.478631110385672"><ele>176.0</ele><time>2026-04-29T13:05:04Z</time></trkpt><trkpt lat="43.928793950555416" lon="11.478836505242223"><ele>176.0</ele><time>2026-04-29T13:05:05Z</time></trkpt><trkpt lat="43.92864235099244" lon="11.47904061483961"><ele>176.0</ele><time>2026-04-29T13:05:06Z</time></trkpt><trkpt lat="43.928479381108694" lon="11.47925014514778"><ele>176.0</ele><time>2026-04-29T13:05:07Z</time></trkpt><trkpt lat="43.92831898788223" lon="11.479459339732113"><ele>176.33333333333331</ele><time>2026-04-29T13:05:08Z</time></trkpt><trkpt lat="43.92817082911163" lon="11.4796535020497"><ele>176.66666666666666</ele><time>2026-04-29T13:05:09Z</time></trkpt><trkpt lat="43.92803784743502" lon="11.479841998907961"><ele>177.0</ele><time>2026-04-29T13:05:10Z</time></trkpt><trkpt lat="43.92791473352561" lon="11.48003265917372"><ele>177.0</ele><time>2026-04-29T13:05:11Z</time></trkpt><trkpt lat="43.927811920961034" lon="11.480233688968427"><ele>177.0</ele><time>2026-04-29T13:05:12Z</time></trkpt><trkpt lat="43.92771502349047" lon="11.480456307393988"><ele>177.0</ele><time>2026-04-29T13:05:13Z</time></trkpt><trkpt lat="43.92761230571966" lon="11.480701520608218"><ele>177.66666666666666</ele><time>2026-04-29T13:05:14Z</time></trkpt><trkpt lat="43.92750789443385" lon="11.480939316218384"><ele>178.33333333333331</ele><time>2026-04-29T13:05:15Z</time></trkpt><trkpt lat="43.9274113086453" lon="11.481152368045636"><ele>179.0</ele><time>2026-04-29T13:05:16Z</time></trkpt><trkpt lat="43.927315420478315" lon="11.481356892494432"><ele>179.0</ele><time>2026-04-29T13:05:17Z</time></trkpt><trkpt lat="43.92721605357002" lon="11.481551640734901"><ele>179.0</ele><time>2026-04-29T13:05:18Z</time></trkpt><trkpt lat="43.92712361190486" lon="11.48175100075312"><ele>179.0</ele><time>2026-04-29T13:05:19Z</time></trkpt><trkpt lat="43.927038777682256" lon="11.481936716006386"><ele>178.33333333333331</ele><time>2026-04-29T13:05:20Z</time></trkpt><trkpt lat="43.92696923372563" lon="11.48213496706941"><ele>177.66666666666666</ele><time>2026-04-29T13:05:21Z</time></trkpt><trkpt lat="43.92691699547215" lon="11.482372498783095"><ele>177.0</ele><time>2026-04-29T13:05:22Z</time></trkpt><trkpt lat="43.9268876069193" lon="11.48263559237385"><ele>177.0</ele><time>2026-04-29T13:05:23Z</time></trkpt><trkpt lat="43.92685726961458" lon="11.482902707274684"><ele>177.0</ele><time>2026-04-29T13:05:24Z</time></trkpt><trkpt lat="43.92678204886856" lon="11.483135842653736"><ele>177.0</ele><time>2026-04-29T13:05:25Z</time></trkpt><trkpt lat="43.92671567589648" lon="11.48334195959413"><ele>179.0</ele><time>2026-04-29T13:05:26Z</time></trkpt><trkpt lat="43.926653767366425" lon="11.483519028958908"><ele>181.0</ele><time>2026-04-29T13:05:27Z</time></trkpt><trkpt lat="43.926614574420405" lon="11.483674357025368"><ele>183.0</ele><time>2026-04-29T13:05:28Z</time></trkpt><trkpt lat="43.92657277273615" lon="11.483781283496949"><ele>185.0</ele><time>2026-04-29T13:05:29Z</time></trkpt><trkpt lat="43.92654210917844" lon="11.48387479897835"><ele>187.0</ele><time>2026-04-29T13:05:30Z</time></trkpt><trkpt lat="43.926504505472145" lon="11.483965840490198"><ele>187.0</ele><time>2026-04-29T13:05:31Z</time></trkpt><trkpt lat="43.92647184139662" lon="11.484076953808696"><ele>187.0</ele><time>2026-04-29T13:05:32Z</time></trkpt><trkpt lat="43.926433203352794" lon="11.484194371633862"><ele>187.0</ele><time>2026-04-29T13:05:33Z</time></trkpt><trkpt lat="43.926388310299934" lon="11.48434660035914"><ele>187.0</ele><time>2026-04-29T13:05:34Z</time></trkpt><trkpt lat="43.926329379470936" lon="11.484526774192325"><ele>187.0</ele><time>2026-04-29T13:05:35Z</time></trkpt><trkpt lat="43.92631903209765" lon="11.484720689934692"><ele>185.33333333333334</ele><time>2026-04-29T13:05:36Z</time></trkpt><trkpt lat="43.92629156007743" lon="11.484955065651867"><ele>183.66666666666666</ele><time>2026-04-29T13:05:37Z</time></trkpt><trkpt lat="43.92628315849521" lon="11.485200343497361"><ele>182.0</ele><time>2026-04-29T13:05:38Z</time></trkpt><trkpt lat="43.92626155913165" lon="11.485445686623265"><ele>180.33333333333331</ele><time>2026-04-29T13:05:39Z</time></trkpt><trkpt lat="43.926212464327634" lon="11.485705482218943"><ele>178.66666666666666</ele><time>2026-04-29T13:05:40Z</time></trkpt><trkpt lat="43.92615095472899" lon="11.485982309258956"><ele>177.0</ele><time>2026-04-29T13:05:41Z</time></trkpt><trkpt lat="43.92608942866597" lon="11.486270560682406"><ele>175.33333333333334</ele><time>2026-04-29T13:05:42Z</time></trkpt><trkpt lat="43.926030720040416" lon="11.486550796523623"><ele>173.66666666666669</ele><time>2026-04-29T13:05:43Z</time></trkpt><trkpt lat="43.92597248009746" lon="11.486816651752788"><ele>172.0</ele><time>2026-04-29T13:05:44Z</time></trkpt><trkpt lat="43.925910001673586" lon="11.487060445324685"><ele>176.5</ele><time>2026-04-29T13:05:45Z</time></trkpt><trkpt lat="43.92585331244746" lon="11.48728318314662"><ele>181.0</ele><time>2026-04-29T13:05:46Z</time></trkpt><trkpt lat="43.925798074125446" lon="11.487465755958391"><ele>185.5</ele><time>2026-04-29T13:05:47Z</time></trkpt><trkpt lat="43.92574191950281" lon="11.487622509644492"><ele>190.0</ele><time>2026-04-29T13:05:48Z</time></trkpt><trkpt lat="43.925707542866256" lon="11.487748359591242"><ele>190.0</ele><time>2026-04-29T13:05:49Z</time></trkpt><trkpt lat="43.92569838492701" lon="11.487870678843752"><ele>190.0</ele><time>2026-04-29T13:05:50Z</time></trkpt><trkpt lat="43.92567974550873" lon="11.48797791962447"><ele>190.0</ele><time>2026-04-29T13:05:51Z</time></trkpt><trkpt lat="43.925665271233584" lon="11.488067162330095"><ele>190.0</ele><time>2026-04-29T13:05:52Z</time></trkpt><trkpt lat="43.92565769022097" lon="11.48817774960264"><ele>190.0</ele><time>2026-04-29T13:05:53Z</time></trkpt><trkpt lat="43.925659219685826" lon="11.488314640699079"><ele>190.0</ele><time>2026-04-29T13:05:54Z</time></trkpt><trkpt lat="43.92566083284067" lon="11.488486693168387"><ele>190.0</ele><time>2026-04-29T13:05:55Z</time></trkpt><trkpt lat="43.9257082641798" lon="11.48867159553997"><ele>190.0</ele><time>2026-04-29T13:05:56Z</time></trkpt><trkpt lat="43.92574726280323" lon="11.48881325879785"><ele>190.0</ele><time>2026-04-29T13:05:57Z</time></trkpt><trkpt lat="43.92577843101802" lon="11.488957632463945"><ele>190.0</ele><time>2026-04-29T13:05:58Z</time></trkpt><trkpt lat="43.925792624847276" lon="11.489065833741327"><ele>190.0</ele><time>2026-04-29T13:05:59Z</time></trkpt><trkpt lat="43.925790950459344" lon="11.489189066913715"><ele>190.0</ele><time>2026-04-29T13:06:00Z</time></trkpt><trkpt lat="43.925764710201605" lon="11.489300713749321"><ele>190.0</ele><time>2026-04-29T13:06:01Z</time></trkpt><trkpt lat="43.92573363664659" lon="11.489395112284223"><ele>190.0</ele><time>2026-04-29T13:06:02Z</time></trkpt><trkpt lat="43.92568956963301" lon="11.48948228368344"><ele>190.0</ele><time>2026-04-29T13:06:03Z</time></trkpt><trkpt lat="43.925627032909944" lon="11.489588576648194"><ele>190.0</ele><time>2026-04-29T13:06:04Z</time></trkpt><trkpt lat="43.925547358974576" lon="11.48973487098679"><ele>188.33333333333334</ele><time>2026-04-29T13:06:05Z</time></trkpt><trkpt lat="43.92545416316182" lon="11.489909786816135"><ele>186.66666666666666</ele><time>2026-04-29T13:06:06Z</time></trkpt><trkpt lat="43.925354222188574" lon="11.490098512002849"><ele>185.0</ele><time>2026-04-29T13:06:07Z</time></trkpt><trkpt lat="43.92524407790596" lon="11.490306694013933"><ele>184.33333333333331</ele><time>2026-04-29T13:06:08Z</time></trkpt><trkpt lat="43.925137299041815" lon="11.490508515092145"><ele>183.66666666666666</ele><time>2026-04-29T13:06:09Z</time></trkpt><trkpt lat="43.92503056206902" lon="11.490710256993061"><ele>183.0</ele><time>2026-04-29T13:06:10Z</time></trkpt><trkpt lat="43.92493522354275" lon="11.49091661065368"><ele>183.0</ele><time>2026-04-29T13:06:11Z</time></trkpt><trkpt lat="43.92483590938286" lon="11.49110032178211"><ele>183.0</ele><time>2026-04-29T13:06:12Z</time></trkpt><trkpt lat="43.924749158315365" lon="11.491273502490998"><ele>183.0</ele><time>2026-04-29T13:06:13Z</time></trkpt><trkpt lat="43.92465482739921" lon="11.491447910294367"><ele>181.75</ele><time>2026-04-29T13:06:14Z</time></trkpt><trkpt lat="43.924565663692746" lon="11.491618068549801"><ele>180.5</ele><time>2026-04-29T13:06:15Z</time></trkpt><trkpt lat="43.92447077838815" lon="11.491762469061216"><ele>179.25</ele><time>2026-04-29T13:06:16Z</time></trkpt><trkpt lat="43.924388728057274" lon="11.491903126578435"><ele>178.0</ele><time>2026-04-29T13:06:17Z</time></trkpt><trkpt lat="43.924306289013735" lon="11.492020112152856"><ele>177.0</ele><time>2026-04-29T13:06:18Z</time></trkpt><trkpt lat="43.92421014752851" lon="11.49211139602826"><ele>176.0</ele><time>2026-04-29T13:06:19Z</time></trkpt><trkpt lat="43.924102397013826" lon="11.49215005751015"><ele>175.0</ele><time>2026-04-29T13:06:20Z</time></trkpt><trkpt lat="43.92399851301671" lon="11.492189888608438"><ele>174.0</ele><time>2026-04-29T13:06:21Z</time></trkpt><trkpt lat="43.92384790264696" lon="11.492202920208756"><ele>174.0</ele><time>2026-04-29T13:06:22Z</time></trkpt><trkpt lat="43.92368021557358" lon="11.492203682546132"><ele>174.0</ele><time>2026-04-29T13:06:23Z</time></trkpt><trkpt lat="43.92352533272888" lon="11.492208607486463"><ele>174.0</ele><time>2026-04-29T13:06:24Z</time></trkpt><trkpt lat="43.92338505597357" lon="11.492218917189712"><ele>174.0</ele><time>2026-04-29T13:06:25Z</time></trkpt><trkpt lat="43.92324143114465" lon="11.492232845052094"><ele>174.0</ele><time>2026-04-29T13:06:26Z</time></trkpt><trkpt lat="43.92307452086515" lon="11.492258370738279"><ele>174.0</ele><time>2026-04-29T13:06:27Z</time></trkpt><trkpt lat="43.9229004652328" lon="11.492324802492904"><ele>174.0</ele><time>2026-04-29T13:06:28Z</time></trkpt><trkpt lat="43.922710540546504" lon="11.49242437441637"><ele>174.0</ele><time>2026-04-29T13:06:29Z</time></trkpt><trkpt lat="43.92251139485637" lon="11.492524531120724"><ele>174.0</ele><time>2026-04-29T13:06:30Z</time></trkpt><trkpt lat="43.92231119736471" lon="11.49262244192611"><ele>173.66666666666666</ele><time>2026-04-29T13:06:31Z</time></trkpt><trkpt lat="43.92212153564936" lon="11.49271156449736"><ele>173.33333333333331</ele><time>2026-04-29T13:06:32Z</time></trkpt><trkpt lat="43.9219430936673" lon="11.492792441481983"><ele>173.0</ele><time>2026-04-29T13:06:33Z</time></trkpt><trkpt lat="43.92177951893427" lon="11.492874532750202"><ele>172.0</ele><time>2026-04-29T13:06:34Z</time></trkpt><trkpt lat="43.92162459412386" lon="11.492923998201858"><ele>171.0</ele><time>2026-04-29T13:06:35Z</time></trkpt><trkpt lat="43.92150476805904" lon="11.49300030230624"><ele>170.0</ele><time>2026-04-29T13:06:36Z</time></trkpt><trkpt lat="43.92139021305241" lon="11.493029290833727"><ele>169.0</ele><time>2026-04-29T13:06:37Z</time></trkpt><trkpt lat="43.92128999717927" lon="11.493094972707988"><ele>169.0</ele><time>2026-04-29T13:06:38Z</time></trkpt><trkpt lat="43.92119350776215" lon="11.493132637775819"><ele>169.0</ele><time>2026-04-29T13:06:39Z</time></trkpt><trkpt lat="43.921097732179746" lon="11.493167235858849"><ele>169.0</ele><time>2026-04-29T13:06:40Z</time></trkpt><trkpt lat="43.9210111010866" lon="11.493208530810028"><ele>169.0</ele><time>2026-04-29T13:06:41Z</time></trkpt><trkpt lat="43.920928917279916" lon="11.493242496389218"><ele>169.0</ele><time>2026-04-29T13:06:42Z</time></trkpt><trkpt lat="43.920853976265185" lon="11.49327910482497"><ele>170.5</ele><time>2026-04-29T13:06:43Z</time></trkpt><trkpt lat="43.920765669326165" lon="11.49333576767997"><ele>172.0</ele><time>2026-04-29T13:06:44Z</time></trkpt><trkpt lat="43.92066973367069" lon="11.493432300144484"><ele>173.5</ele><time>2026-04-29T13:06:45Z</time></trkpt><trkpt lat="43.9205752465139" lon="11.493550387238109"><ele>175.0</ele><time>2026-04-29T13:06:46Z</time></trkpt><trkpt lat="43.92048999965473" lon="11.493667397821936"><ele>173.8</ele><time>2026-04-29T13:06:47Z</time></trkpt><trkpt lat="43.92040593920712" lon="11.493768672118007"><ele>172.6</ele><time>2026-04-29T13:06:48Z</time></trkpt><trkpt lat="43.92032407433164" lon="11.493856816864891"><ele>171.39999999999998</ele><time>2026-04-29T13:06:49Z</time></trkpt><trkpt lat="43.92023372001694" lon="11.493917783994911"><ele>170.2</ele><time>2026-04-29T13:06:50Z</time></trkpt><trkpt lat="43.920166851251665" lon="11.494010807279839"><ele>169.0</ele><time>2026-04-29T13:06:51Z</time></trkpt><trkpt lat="43.92008967828168" lon="11.494085427916993"><ele>170.0</ele><time>2026-04-29T13:06:52Z</time></trkpt><trkpt lat="43.91999873435924" lon="11.49416994711367"><ele>171.0</ele><time>2026-04-29T13:06:53Z</time></trkpt><trkpt lat="43.91994144767043" lon="11.494318676271224"><ele>172.0</ele><time>2026-04-29T13:06:54Z</time></trkpt><trkpt lat="43.91988056520255" lon="11.494497704906344"><ele>173.0</ele><time>2026-04-29T13:06:55Z</time></trkpt><trkpt lat="43.91982222296855" lon="11.494660849613322"><ele>173.0</ele><time>2026-04-29T13:06:56Z</time></trkpt><trkpt lat="43.91978966305493" lon="11.494825925000075"><ele>173.0</ele><time>2026-04-29T13:06:57Z</time></trkpt><trkpt lat="43.9197540503656" lon="11.494909032142491"><ele>173.0</ele><time>2026-04-29T13:06:58Z</time></trkpt><trkpt lat="43.91971731536138" lon="11.495053637339854"><ele>173.0</ele><time>2026-04-29T13:07:00Z</time></trkpt><trkpt lat="43.91966526074779" lon="11.495195248487653"><ele>173.0</ele><time>2026-04-29T13:07:02Z</time></trkpt><trkpt lat="43.91964668033574" lon="11.495288920297297"><ele>173.0</ele><time>2026-04-29T13:07:03Z</time></trkpt><trkpt lat="43.919640527064516" lon="11.495405629546974"><ele>173.0</ele><time>2026-04-29T13:07:04Z</time></trkpt><trkpt lat="43.9196429741645" lon="11.495518000653563"><ele>173.0</ele><time>2026-04-29T13:07:05Z</time></trkpt><trkpt lat="43.91964647852346" lon="11.495646186336028"><ele>173.0</ele><time>2026-04-29T13:07:06Z</time></trkpt><trkpt lat="43.91964918355774" lon="11.495791113734866"><ele>173.0</ele><time>2026-04-29T13:07:07Z</time></trkpt><trkpt lat="43.91964728657389" lon="11.49595872526478"><ele>172.5</ele><time>2026-04-29T13:07:08Z</time></trkpt><trkpt lat="43.919636051146355" lon="11.496147400906443"><ele>172.0</ele><time>2026-04-29T13:07:09Z</time></trkpt><trkpt lat="43.91961938637074" lon="11.496341548665058"><ele>171.5</ele><time>2026-04-29T13:07:10Z</time></trkpt><trkpt lat="43.919601840847484" lon="11.496536922923914"><ele>171.0</ele><time>2026-04-29T13:07:11Z</time></trkpt><trkpt lat="43.91960100789794" lon="11.4967166211431"><ele>169.5</ele><time>2026-04-29T13:07:12Z</time></trkpt><trkpt lat="43.91957435817452" lon="11.496883049823888"><ele>168.0</ele><time>2026-04-29T13:07:13Z</time></trkpt><trkpt lat="43.91954597417123" lon="11.497061673181475"><ele>166.5</ele><time>2026-04-29T13:07:14Z</time></trkpt><trkpt lat="43.91951940010329" lon="11.497256697501973"><ele>165.0</ele><time>2026-04-29T13:07:15Z</time></trkpt><trkpt lat="43.91950020081655" lon="11.497460233579712"><ele>164.25</ele><time>2026-04-29T13:07:16Z</time></trkpt><trkpt lat="43.9194827218918" lon="11.497655781727207"><ele>163.5</ele><time>2026-04-29T13:07:17Z</time></trkpt><trkpt lat="43.91945485420679" lon="11.49784724114906"><ele>162.75</ele><time>2026-04-29T13:07:18Z</time></trkpt><trkpt lat="43.91943486988263" lon="11.498032942618703"><ele>162.0</ele><time>2026-04-29T13:07:19Z</time></trkpt><trkpt lat="43.91940271588636" lon="11.498237126908034"><ele>161.75</ele><time>2026-04-29T13:07:20Z</time></trkpt><trkpt lat="43.91937823155177" lon="11.49842696644138"><ele>161.5</ele><time>2026-04-29T13:07:21Z</time></trkpt><trkpt lat="43.91935789379385" lon="11.49861620727192"><ele>161.25</ele><time>2026-04-29T13:07:22Z</time></trkpt><trkpt lat="43.91932675608118" lon="11.49879217460152"><ele>161.0</ele><time>2026-04-29T13:07:23Z</time></trkpt><trkpt lat="43.91928455912077" lon="11.49895886919611"><ele>161.25</ele><time>2026-04-29T13:07:24Z</time></trkpt><trkpt lat="43.91920620306313" lon="11.499098796523421"><ele>161.5</ele><time>2026-04-29T13:07:25Z</time></trkpt><trkpt lat="43.919093603982795" lon="11.499222980732652"><ele>161.75</ele><time>2026-04-29T13:07:26Z</time></trkpt><trkpt lat="43.91896158084181" lon="11.499342126498181"><ele>162.0</ele><time>2026-04-29T13:07:27Z</time></trkpt><trkpt lat="43.91881551094094" lon="11.49946680714668"><ele>161.66666666666666</ele><time>2026-04-29T13:07:28Z</time></trkpt><trkpt lat="43.91866790701774" lon="11.499592955865776"><ele>161.33333333333331</ele><time>2026-04-29T13:07:29Z</time></trkpt><trkpt lat="43.91851835994613" lon="11.499710352707432"><ele>161.0</ele><time>2026-04-29T13:07:30Z</time></trkpt><trkpt lat="43.9183542222795" lon="11.499812235066539"><ele>162.33333333333331</ele><time>2026-04-29T13:07:31Z</time></trkpt><trkpt lat="43.918183626292446" lon="11.499898842241588"><ele>163.66666666666666</ele><time>2026-04-29T13:07:32Z</time></trkpt><trkpt lat="43.918018196436634" lon="11.499990624545463"><ele>165.0</ele><time>2026-04-29T13:07:33Z</time></trkpt><trkpt lat="43.91786173924014" lon="11.500084544019689"><ele>165.0</ele><time>2026-04-29T13:07:34Z</time></trkpt><trkpt lat="43.91772416174068" lon="11.500173148096989"><ele>165.0</ele><time>2026-04-29T13:07:35Z</time></trkpt><trkpt lat="43.91758696283765" lon="11.50024464740254"><ele>165.0</ele><time>2026-04-29T13:07:36Z</time></trkpt><trkpt lat="43.91745403675625" lon="11.500302030918464"><ele>165.0</ele><time>2026-04-29T13:07:37Z</time></trkpt><trkpt lat="43.9173010373362" lon="11.500310604798726"><ele>165.0</ele><time>2026-04-29T13:07:38Z</time></trkpt><trkpt lat="43.91712628766868" lon="11.500337307674517"><ele>165.0</ele><time>2026-04-29T13:07:39Z</time></trkpt><trkpt lat="43.9169305543595" lon="11.500328817984679"><ele>165.0</ele><time>2026-04-29T13:07:40Z</time></trkpt><trkpt lat="43.91673436447665" lon="11.500342647218314"><ele>164.33333333333334</ele><time>2026-04-29T13:07:41Z</time></trkpt><trkpt lat="43.916535126626066" lon="11.500389303275396"><ele>163.66666666666669</ele><time>2026-04-29T13:07:42Z</time></trkpt><trkpt lat="43.9163343384857" lon="11.500445955055326"><ele>163.0</ele><time>2026-04-29T13:07:43Z</time></trkpt><trkpt lat="43.91612885027226" lon="11.500507562838708"><ele>162.66666666666669</ele><time>2026-04-29T13:07:44Z</time></trkpt><trkpt lat="43.91591803293878" lon="11.500571277905104"><ele>162.33333333333334</ele><time>2026-04-29T13:07:45Z</time></trkpt><trkpt lat="43.91570367680327" lon="11.500642912729852"><ele>162.0</ele><time>2026-04-29T13:07:46Z</time></trkpt><trkpt lat="43.91548719238423" lon="11.500733281357506"><ele>161.5</ele><time>2026-04-29T13:07:47Z</time></trkpt><trkpt lat="43.91527396408802" lon="11.500831229316102"><ele>161.0</ele><time>2026-04-29T13:07:48Z</time></trkpt><trkpt lat="43.91505858769148" lon="11.500929604140717"><ele>160.66666666666666</ele><time>2026-04-29T13:07:49Z</time></trkpt><trkpt lat="43.91484422936421" lon="11.5010184783478"><ele>160.33333333333334</ele><time>2026-04-29T13:07:50Z</time></trkpt><trkpt lat="43.91463541611458" lon="11.501105451307556"><ele>160.0</ele><time>2026-04-29T13:07:51Z</time></trkpt><trkpt lat="43.91443765464502" lon="11.501186957641078"><ele>160.0</ele><time>2026-04-29T13:07:52Z</time></trkpt><trkpt lat="43.91425593159939" lon="11.501261649799234"><ele>160.0</ele><time>2026-04-29T13:07:53Z</time></trkpt><trkpt lat="43.91408445665499" lon="11.501338860800104"><ele>160.0</ele><time>2026-04-29T13:07:54Z</time></trkpt><trkpt lat="43.91392333850015" lon="11.501404854162983"><ele>160.0</ele><time>2026-04-29T13:07:55Z</time></trkpt><trkpt lat="43.91377942035492" lon="11.501464747412536"><ele>160.0</ele><time>2026-04-29T13:07:56Z</time></trkpt><trkpt lat="43.91364744199461" lon="11.50149891998938"><ele>160.0</ele><time>2026-04-29T13:07:57Z</time></trkpt><trkpt lat="43.91353231002518" lon="11.501502999834827"><ele>160.0</ele><time>2026-04-29T13:07:58Z</time></trkpt><trkpt lat="43.91344210687746" lon="11.501490053547906"><ele>162.75</ele><time>2026-04-29T13:07:59Z</time></trkpt><trkpt lat="43.91336160642816" lon="11.501490562087762"><ele>165.5</ele><time>2026-04-29T13:08:00Z</time></trkpt><trkpt lat="43.91325482779183" lon="11.501614199749165"><ele>168.25</ele><time>2026-04-29T13:08:02Z</time></trkpt><trkpt lat="43.91321211972054" lon="11.501772719287898"><ele>171.0</ele><time>2026-04-29T13:08:03Z</time></trkpt><trkpt lat="43.913128660199" lon="11.501946752807392"><ele>168.0</ele><time>2026-04-29T13:08:04Z</time></trkpt><trkpt lat="43.9130501709252" lon="11.502153654218084"><ele>165.0</ele><time>2026-04-29T13:08:05Z</time></trkpt><trkpt lat="43.9129672488718" lon="11.502359481010167"><ele>162.0</ele><time>2026-04-29T13:08:06Z</time></trkpt><trkpt lat="43.912881272675705" lon="11.502558507342751"><ele>162.0</ele><time>2026-04-29T13:08:07Z</time></trkpt><trkpt lat="43.91280731372897" lon="11.502731627215834"><ele>162.0</ele><time>2026-04-29T13:08:08Z</time></trkpt><trkpt lat="43.91274449151047" lon="11.502881826014072"><ele>162.0</ele><time>2026-04-29T13:08:09Z</time></trkpt><trkpt lat="43.912641129213256" lon="11.502996570648774"><ele>162.0</ele><time>2026-04-29T13:08:10Z</time></trkpt><trkpt lat="43.91253135096617" lon="11.503131109710669"><ele>164.66666666666666</ele><time>2026-04-29T13:08:11Z</time></trkpt><trkpt lat="43.912378719419394" lon="11.5032650570177"><ele>167.33333333333331</ele><time>2026-04-29T13:08:12Z</time></trkpt><trkpt lat="43.91222245721048" lon="11.503408670681658"><ele>170.0</ele><time>2026-04-29T13:08:13Z</time></trkpt><trkpt lat="43.91208200118418" lon="11.503542281370313"><ele>170.0</ele><time>2026-04-29T13:08:14Z</time></trkpt><trkpt lat="43.911956394880534" lon="11.50366269980921"><ele>170.0</ele><time>2026-04-29T13:08:15Z</time></trkpt><trkpt lat="43.91183803912374" lon="11.503769444926677"><ele>170.0</ele><time>2026-04-29T13:08:16Z</time></trkpt><trkpt lat="43.91172158729895" lon="11.503866234685756"><ele>170.0</ele><time>2026-04-29T13:08:17Z</time></trkpt><trkpt lat="43.91160046142177" lon="11.50393155648433"><ele>169.25</ele><time>2026-04-29T13:08:18Z</time></trkpt><trkpt lat="43.91147769580341" lon="11.503944976960215"><ele>168.5</ele><time>2026-04-29T13:08:19Z</time></trkpt><trkpt lat="43.911348279829014" lon="11.503913874390658"><ele>167.75</ele><time>2026-04-29T13:08:20Z</time></trkpt><trkpt lat="43.91120302753868" lon="11.503836662520248"><ele>167.0</ele><time>2026-04-29T13:08:21Z</time></trkpt><trkpt lat="43.911044071687414" lon="11.503748526115407"><ele>172.66666666666666</ele><time>2026-04-29T13:08:22Z</time></trkpt><trkpt lat="43.91088611673034" lon="11.50367048486636"><ele>178.33333333333334</ele><time>2026-04-29T13:08:23Z</time></trkpt><trkpt lat="43.91074208097486" lon="11.503592573318368"><ele>184.0</ele><time>2026-04-29T13:08:24Z</time></trkpt><trkpt lat="43.91060820155105" lon="11.503506863876167"><ele>184.0</ele><time>2026-04-29T13:08:25Z</time></trkpt><trkpt lat="43.91046501190759" lon="11.503390666454145"><ele>184.0</ele><time>2026-04-29T13:08:26Z</time></trkpt><trkpt lat="43.91031484628047" lon="11.503256857036977"><ele>184.0</ele><time>2026-04-29T13:08:27Z</time></trkpt><trkpt lat="43.91016441617" lon="11.503117710098303"><ele>181.66666666666669</ele><time>2026-04-29T13:08:28Z</time></trkpt><trkpt lat="43.91001627112374" lon="11.502977714008663"><ele>179.33333333333334</ele><time>2026-04-29T13:08:29Z</time></trkpt><trkpt lat="43.90986417900637" lon="11.502847563211146"><ele>177.0</ele><time>2026-04-29T13:08:30Z</time></trkpt><trkpt lat="43.90972102834133" lon="11.502720562403505"><ele>177.0</ele><time>2026-04-29T13:08:31Z</time></trkpt><trkpt lat="43.90959011134628" lon="11.502602584316746"><ele>177.0</ele><time>2026-04-29T13:08:32Z</time></trkpt><trkpt lat="43.90945501631793" lon="11.502483765544751"><ele>177.0</ele><time>2026-04-29T13:08:33Z</time></trkpt><trkpt lat="43.90931674721448" lon="11.502360873760882"><ele>174.33333333333334</ele><time>2026-04-29T13:08:34Z</time></trkpt><trkpt lat="43.90917663909169" lon="11.502233334735049"><ele>171.66666666666669</ele><time>2026-04-29T13:08:35Z</time></trkpt><trkpt lat="43.90904074194263" lon="11.502109301898926"><ele>169.0</ele><time>2026-04-29T13:08:36Z</time></trkpt><trkpt lat="43.90889928778964" lon="11.50198310699999"><ele>169.0</ele><time>2026-04-29T13:08:37Z</time></trkpt><trkpt lat="43.908762622001696" lon="11.501861434706443"><ele>169.0</ele><time>2026-04-29T13:08:38Z</time></trkpt><trkpt lat="43.90863449027579" lon="11.50174590477055"><ele>169.0</ele><time>2026-04-29T13:08:39Z</time></trkpt><trkpt lat="43.90851360301443" lon="11.501640550986158"><ele>167.75</ele><time>2026-04-29T13:08:40Z</time></trkpt><trkpt lat="43.908399594678784" lon="11.501541898697889"><ele>166.5</ele><time>2026-04-29T13:08:41Z</time></trkpt><trkpt lat="43.908293762682554" lon="11.501448378995772"><ele>165.25</ele><time>2026-04-29T13:08:42Z</time></trkpt><trkpt lat="43.90819789683192" lon="11.501350339789838"><ele>164.0</ele><time>2026-04-29T13:08:43Z</time></trkpt><trkpt lat="43.908082819494346" lon="11.501261219959202"><ele>169.25</ele><time>2026-04-29T13:08:44Z</time></trkpt><trkpt lat="43.90799684933257" lon="11.501185967675474"><ele>174.5</ele><time>2026-04-29T13:08:45Z</time></trkpt><trkpt lat="43.907897310243264" lon="11.501098664371092"><ele>179.75</ele><time>2026-04-29T13:08:46Z</time></trkpt><trkpt lat="43.90778956467003" lon="11.501008948622"><ele>185.0</ele><time>2026-04-29T13:08:47Z</time></trkpt><trkpt lat="43.907679684362456" lon="11.50091577710612"><ele>180.0</ele><time>2026-04-29T13:08:48Z</time></trkpt><trkpt lat="43.90754626990076" lon="11.500818831359748"><ele>175.0</ele><time>2026-04-29T13:08:49Z</time></trkpt><trkpt lat="43.907396082142846" lon="11.500739743187383"><ele>170.0</ele><time>2026-04-29T13:08:50Z</time></trkpt><trkpt lat="43.90723855680264" lon="11.500706977549232"><ele>170.0</ele><time>2026-04-29T13:08:51Z</time></trkpt><trkpt lat="43.90705895557532" lon="11.500708657992895"><ele>170.0</ele><time>2026-04-29T13:08:52Z</time></trkpt><trkpt lat="43.906880642317084" lon="11.500732458619536"><ele>170.0</ele><time>2026-04-29T13:08:53Z</time></trkpt><trkpt lat="43.90669840298776" lon="11.500755359341666"><ele>167.33333333333331</ele><time>2026-04-29T13:08:54Z</time></trkpt><trkpt lat="43.906503609586245" lon="11.500746832706918"><ele>164.66666666666666</ele><time>2026-04-29T13:08:55Z</time></trkpt><trkpt lat="43.90631929075048" lon="11.500759656004279"><ele>162.0</ele><time>2026-04-29T13:08:56Z</time></trkpt><trkpt lat="43.90614306056165" lon="11.500771914824597"><ele>162.0</ele><time>2026-04-29T13:08:57Z</time></trkpt><trkpt lat="43.90597578695262" lon="11.500785783680529"><ele>162.0</ele><time>2026-04-29T13:08:58Z</time></trkpt><trkpt lat="43.90581534368126" lon="11.500827612379615"><ele>162.0</ele><time>2026-04-29T13:08:59Z</time></trkpt><trkpt lat="43.90565321968794" lon="11.50084090588083"><ele>161.25</ele><time>2026-04-29T13:09:00Z</time></trkpt><trkpt lat="43.905510625529146" lon="11.500872918270371"><ele>160.5</ele><time>2026-04-29T13:09:01Z</time></trkpt><trkpt lat="43.905379002542894" lon="11.500905256837832"><ele>159.75</ele><time>2026-04-29T13:09:02Z</time></trkpt><trkpt lat="43.90526097407004" lon="11.500939510870058"><ele>159.0</ele><time>2026-04-29T13:09:03Z</time></trkpt><trkpt lat="43.90515604633607" lon="11.501003704927074"><ele>159.4</ele><time>2026-04-29T13:09:04Z</time></trkpt><trkpt lat="43.905062329278266" lon="11.501093429141594"><ele>159.8</ele><time>2026-04-29T13:09:05Z</time></trkpt><trkpt lat="43.90496736859324" lon="11.501174898334202"><ele>160.20000000000002</ele><time>2026-04-29T13:09:06Z</time></trkpt><trkpt lat="43.90487410154339" lon="11.501244548623609"><ele>160.60000000000002</ele><time>2026-04-29T13:09:07Z</time></trkpt><trkpt lat="43.90478171007339" lon="11.501311225652511"><ele>161.0</ele><time>2026-04-29T13:09:08Z</time></trkpt><trkpt lat="43.90467529832733" lon="11.501378473487293"><ele>161.0</ele><time>2026-04-29T13:09:09Z</time></trkpt><trkpt lat="43.904575190648224" lon="11.501456640332163"><ele>161.0</ele><time>2026-04-29T13:09:10Z</time></trkpt><trkpt lat="43.90447946925821" lon="11.501517049144951"><ele>161.0</ele><time>2026-04-29T13:09:11Z</time></trkpt><trkpt lat="43.90438396672623" lon="11.50154370577256"><ele>161.0</ele><time>2026-04-29T13:09:12Z</time></trkpt><trkpt lat="43.904286233676224" lon="11.501553579571683"><ele>161.0</ele><time>2026-04-29T13:09:13Z</time></trkpt><trkpt lat="43.90418763839091" lon="11.50155686592745"><ele>161.25</ele><time>2026-04-29T13:09:14Z</time></trkpt><trkpt lat="43.904097681356575" lon="11.501581117214801"><ele>161.5</ele><time>2026-04-29T13:09:15Z</time></trkpt><trkpt lat="43.904000106929566" lon="11.501673590306895"><ele>161.75</ele><time>2026-04-29T13:09:16Z</time></trkpt><trkpt lat="43.90392934055778" lon="11.50184227786106"><ele>162.0</ele><time>2026-04-29T13:09:17Z</time></trkpt><trkpt lat="43.903830775375326" lon="11.502015376172512"><ele>160.33333333333334</ele><time>2026-04-29T13:09:18Z</time></trkpt><trkpt lat="43.9037334324567" lon="11.502195594794086"><ele>158.66666666666669</ele><time>2026-04-29T13:09:19Z</time></trkpt><trkpt lat="43.903633700101565" lon="11.502380751941296"><ele>157.0</ele><time>2026-04-29T13:09:20Z</time></trkpt><trkpt lat="43.90354548931026" lon="11.502543506043667"><ele>157.0</ele><time>2026-04-29T13:09:21Z</time></trkpt><trkpt lat="43.90345842963117" lon="11.502689019227658"><ele>157.0</ele><time>2026-04-29T13:09:22Z</time></trkpt><trkpt lat="43.903363765062934" lon="11.502825418976336"><ele>157.0</ele><time>2026-04-29T13:09:23Z</time></trkpt><trkpt lat="43.90325368513312" lon="11.502948775190934"><ele>157.0</ele><time>2026-04-29T13:09:24Z</time></trkpt><trkpt lat="43.90312894651444" lon="11.503077765686998"><ele>157.66666666666669</ele><time>2026-04-29T13:09:25Z</time></trkpt><trkpt lat="43.90299872842699" lon="11.503211612164112"><ele>158.33333333333334</ele><time>2026-04-29T13:09:26Z</time></trkpt><trkpt lat="43.90286218472896" lon="11.503352332628255"><ele>159.0</ele><time>2026-04-29T13:09:27Z</time></trkpt><trkpt lat="43.90272292799325" lon="11.50349605660767"><ele>159.0</ele><time>2026-04-29T13:09:28Z</time></trkpt><trkpt lat="43.902578462744074" lon="11.503645156208703"><ele>159.0</ele><time>2026-04-29T13:09:29Z</time></trkpt><trkpt lat="43.90243934825062" lon="11.503786575582044"><ele>159.0</ele><time>2026-04-29T13:09:30Z</time></trkpt><trkpt lat="43.90230584266278" lon="11.503921380736239"><ele>159.0</ele><time>2026-04-29T13:09:31Z</time></trkpt><trkpt lat="43.90217839472298" lon="11.504051558822711"><ele>159.0</ele><time>2026-04-29T13:09:32Z</time></trkpt><trkpt lat="43.902060322882875" lon="11.50420878282674"><ele>159.0</ele><time>2026-04-29T13:09:33Z</time></trkpt><trkpt lat="43.901928985010194" lon="11.504343836453605"><ele>159.0</ele><time>2026-04-29T13:09:34Z</time></trkpt><trkpt lat="43.90180886888306" lon="11.504511155641927"><ele>159.0</ele><time>2026-04-29T13:09:35Z</time></trkpt><trkpt lat="43.901693827031814" lon="11.504685138388801"><ele>159.0</ele><time>2026-04-29T13:09:36Z</time></trkpt><trkpt lat="43.90158586981989" lon="11.50487117402197"><ele>160.33333333333334</ele><time>2026-04-29T13:09:37Z</time></trkpt><trkpt lat="43.90146522706167" lon="11.505046308720688"><ele>161.66666666666669</ele><time>2026-04-29T13:09:38Z</time></trkpt><trkpt lat="43.90135863006586" lon="11.505257553335445"><ele>163.0</ele><time>2026-04-29T13:09:39Z</time></trkpt><trkpt lat="43.90125375106818" lon="11.505467890122851"><ele>160.33333333333334</ele><time>2026-04-29T13:09:40Z</time></trkpt><trkpt lat="43.90114678830481" lon="11.505684398664984"><ele>157.66666666666666</ele><time>2026-04-29T13:09:41Z</time></trkpt><trkpt lat="43.90104190283297" lon="11.50589678557533"><ele>155.0</ele><time>2026-04-29T13:09:42Z</time></trkpt><trkpt lat="43.90093805289707" lon="11.506109248449828"><ele>156.33333333333331</ele><time>2026-04-29T13:09:43Z</time></trkpt><trkpt lat="43.90083446945742" lon="11.506321166093949"><ele>157.66666666666666</ele><time>2026-04-29T13:09:44Z</time></trkpt><trkpt lat="43.90073443567608" lon="11.506525822408143"><ele>159.0</ele><time>2026-04-29T13:09:45Z</time></trkpt><trkpt lat="43.90064222623205" lon="11.50671446599739"><ele>159.0</ele><time>2026-04-29T13:09:46Z</time></trkpt><trkpt lat="43.90057953061864" lon="11.506921048918144"><ele>159.0</ele><time>2026-04-29T13:09:47Z</time></trkpt><trkpt lat="43.90049362623751" lon="11.507082987518448"><ele>159.0</ele><time>2026-04-29T13:09:48Z</time></trkpt><trkpt lat="43.900414390374706" lon="11.507248653112594"><ele>158.5</ele><time>2026-04-29T13:09:49Z</time></trkpt><trkpt lat="43.90033875477227" lon="11.507406139974696"><ele>158.0</ele><time>2026-04-29T13:09:50Z</time></trkpt><trkpt lat="43.90023519258441" lon="11.50752960048953"><ele>157.5</ele><time>2026-04-29T13:09:51Z</time></trkpt><trkpt lat="43.9001446429274" lon="11.507654154171844"><ele>157.0</ele><time>2026-04-29T13:09:52Z</time></trkpt><trkpt lat="43.9000262375543" lon="11.507781034918507"><ele>157.0</ele><time>2026-04-29T13:09:53Z</time></trkpt><trkpt lat="43.899891193991905" lon="11.50790768125801"><ele>157.0</ele><time>2026-04-29T13:09:54Z</time></trkpt><trkpt lat="43.89975985650742" lon="11.508030326158917"><ele>157.0</ele><time>2026-04-29T13:09:55Z</time></trkpt><trkpt lat="43.89963794260378" lon="11.508134216731099"><ele>157.0</ele><time>2026-04-29T13:09:56Z</time></trkpt><trkpt lat="43.89951573549626" lon="11.508228489953215"><ele>157.0</ele><time>2026-04-29T13:09:57Z</time></trkpt><trkpt lat="43.89938274719652" lon="11.50834355028503"><ele>157.0</ele><time>2026-04-29T13:09:58Z</time></trkpt><trkpt lat="43.89924913677894" lon="11.508428683988187"><ele>157.0</ele><time>2026-04-29T13:09:59Z</time></trkpt><trkpt lat="43.8991367333514" lon="11.508529278964643"><ele>157.25</ele><time>2026-04-29T13:10:00Z</time></trkpt><trkpt lat="43.89904507132849" lon="11.50864533146991"><ele>157.5</ele><time>2026-04-29T13:10:01Z</time></trkpt><trkpt lat="43.89895391936249" lon="11.5087892962086"><ele>157.75</ele><time>2026-04-29T13:10:02Z</time></trkpt><trkpt lat="43.89883869064696" lon="11.508928841467915"><ele>158.0</ele><time>2026-04-29T13:10:03Z</time></trkpt><trkpt lat="43.89872068522763" lon="11.509102217441763"><ele>158.0</ele><time>2026-04-29T13:10:04Z</time></trkpt><trkpt lat="43.89859247859458" lon="11.509285889118129"><ele>158.0</ele><time>2026-04-29T13:10:05Z</time></trkpt><trkpt lat="43.89846361533963" lon="11.509476252703724"><ele>158.0</ele><time>2026-04-29T13:10:06Z</time></trkpt><trkpt lat="43.8983364796105" lon="11.509681746896042"><ele>160.0</ele><time>2026-04-29T13:10:07Z</time></trkpt><trkpt lat="43.89823238088079" lon="11.509884440076133"><ele>162.0</ele><time>2026-04-29T13:10:08Z</time></trkpt><trkpt lat="43.8981439175768" lon="11.510085443152578"><ele>164.0</ele><time>2026-04-29T13:10:09Z</time></trkpt><trkpt lat="43.89806253638672" lon="11.510276185583674"><ele>160.66666666666666</ele><time>2026-04-29T13:10:10Z</time></trkpt><trkpt lat="43.89797891821503" lon="11.510476002955834"><ele>157.33333333333334</ele><time>2026-04-29T13:10:11Z</time></trkpt><trkpt lat="43.89789019831698" lon="11.510677193422012"><ele>154.0</ele><time>2026-04-29T13:10:12Z</time></trkpt><trkpt lat="43.8977913542485" lon="11.510867955809644"><ele>154.0</ele><time>2026-04-29T13:10:13Z</time></trkpt><trkpt lat="43.89768468414998" lon="11.511068502054956"><ele>154.0</ele><time>2026-04-29T13:10:14Z</time></trkpt><trkpt lat="43.897577448713726" lon="11.511270112521583"><ele>154.0</ele><time>2026-04-29T13:10:15Z</time></trkpt><trkpt lat="43.8974680717739" lon="11.511468691595441"><ele>155.0</ele><time>2026-04-29T13:10:16Z</time></trkpt><trkpt lat="43.897356686235334" lon="11.51167230297856"><ele>156.0</ele><time>2026-04-29T13:10:17Z</time></trkpt><trkpt lat="43.89724755641218" lon="11.511870946736925"><ele>157.0</ele><time>2026-04-29T13:10:18Z</time></trkpt><trkpt lat="43.89714525436709" lon="11.512056896264333"><ele>155.66666666666669</ele><time>2026-04-29T13:10:19Z</time></trkpt><trkpt lat="43.897048425654596" lon="11.512232897156334"><ele>154.33333333333334</ele><time>2026-04-29T13:10:20Z</time></trkpt><trkpt lat="43.89695110416324" lon="11.512409793703092"><ele>153.0</ele><time>2026-04-29T13:10:21Z</time></trkpt><trkpt lat="43.89684972094666" lon="11.512594073190455"><ele>153.0</ele><time>2026-04-29T13:10:22Z</time></trkpt><trkpt lat="43.896755516672705" lon="11.512764417432317"><ele>153.0</ele><time>2026-04-29T13:10:23Z</time></trkpt><trkpt lat="43.896663118611784" lon="11.512931487577614"><ele>153.0</ele><time>2026-04-29T13:10:24Z</time></trkpt><trkpt lat="43.89657722434865" lon="11.513086455197172"><ele>153.0</ele><time>2026-04-29T13:10:25Z</time></trkpt><trkpt lat="43.896491880959296" lon="11.513230860324539"><ele>153.75</ele><time>2026-04-29T13:10:26Z</time></trkpt><trkpt lat="43.89639629535551" lon="11.513357163797"><ele>154.5</ele><time>2026-04-29T13:10:27Z</time></trkpt><trkpt lat="43.89629949534598" lon="11.513461906898717"><ele>155.25</ele><time>2026-04-29T13:10:28Z</time></trkpt><trkpt lat="43.896193603587754" lon="11.51354896477935"><ele>156.0</ele><time>2026-04-29T13:10:29Z</time></trkpt><trkpt lat="43.89609622446632" lon="11.51362668965984"><ele>156.0</ele><time>2026-04-29T13:10:30Z</time></trkpt><trkpt lat="43.89598891111283" lon="11.513663435030221"><ele>156.0</ele><time>2026-04-29T13:10:31Z</time></trkpt><trkpt lat="43.89586763877234" lon="11.513687026479746"><ele>156.0</ele><time>2026-04-29T13:10:32Z</time></trkpt><trkpt lat="43.895736774933816" lon="11.513700708049354"><ele>156.0</ele><time>2026-04-29T13:10:33Z</time></trkpt><trkpt lat="43.895593544200956" lon="11.513701985392139"><ele>162.66666666666666</ele><time>2026-04-29T13:10:34Z</time></trkpt><trkpt lat="43.89543915539466" lon="11.513702940686663"><ele>169.33333333333331</ele><time>2026-04-29T13:10:35Z</time></trkpt><trkpt lat="43.89527647171977" lon="11.513708492991851"><ele>176.0</ele><time>2026-04-29T13:10:36Z</time></trkpt><trkpt lat="43.89512005935816" lon="11.513710658325522"><ele>172.75</ele><time>2026-04-29T13:10:37Z</time></trkpt><trkpt lat="43.89497292320663" lon="11.513707253834628"><ele>169.5</ele><time>2026-04-29T13:10:38Z</time></trkpt><trkpt lat="43.894829789539564" lon="11.513730177358516"><ele>166.25</ele><time>2026-04-29T13:10:39Z</time></trkpt><trkpt lat="43.89469852748763" lon="11.513761668067698"><ele>163.0</ele><time>2026-04-29T13:10:40Z</time></trkpt><trkpt lat="43.8945762929229" lon="11.513814515811397"><ele>163.0</ele><time>2026-04-29T13:10:41Z</time></trkpt><trkpt lat="43.89447964630886" lon="11.513859697044412"><ele>163.0</ele><time>2026-04-29T13:10:42Z</time></trkpt><trkpt lat="43.894414859736855" lon="11.51386852229788"><ele>163.0</ele><time>2026-04-29T13:10:43Z</time></trkpt><trkpt lat="43.89435360174741" lon="11.513774439099526"><ele>163.0</ele><time>2026-04-29T13:10:45Z</time></trkpt><trkpt lat="43.89437449832962" lon="11.513643660736228"><ele>163.0</ele><time>2026-04-29T13:10:47Z</time></trkpt><trkpt lat="43.89439490392747" lon="11.51352915886523"><ele>163.0</ele><time>2026-04-29T13:10:48Z</time></trkpt><trkpt lat="43.89442013638937" lon="11.513381078856533"><ele>163.0</ele><time>2026-04-29T13:10:49.001Z</time></trkpt><trkpt lat="43.89444739857895" lon="11.513242510767524"><ele>163.0</ele><time>2026-04-29T13:10:50Z</time></trkpt><trkpt lat="43.89446546793906" lon="11.51312394509143"><ele>163.0</ele><time>2026-04-29T13:10:51.001Z</time></trkpt><trkpt lat="43.89446459322832" lon="11.513018470780521"><ele>163.0</ele><time>2026-04-29T13:10:52.001Z</time></trkpt><trkpt lat="43.89444021784579" lon="11.512928806814822"><ele>163.0</ele><time>2026-04-29T13:10:53Z</time></trkpt><trkpt lat="43.894371850558656" lon="11.512864650339273"><ele>163.0</ele><time>2026-04-29T13:10:54Z</time></trkpt><trkpt lat="43.894318145807816" lon="11.512790542293542"><ele>162.4</ele><time>2026-04-29T13:10:55Z</time></trkpt><trkpt lat="43.89422656861888" lon="11.512694613224406"><ele>161.8</ele><time>2026-04-29T13:10:57Z</time></trkpt><trkpt lat="43.89414391457061" lon="11.512709034273456"><ele>161.2</ele><time>2026-04-29T13:10:58Z</time></trkpt><trkpt lat="43.89407708627567" lon="11.512814337725393"><ele>160.6</ele><time>2026-04-29T13:10:59Z</time></trkpt><trkpt lat="43.89400308850323" lon="11.512917216260075"><ele>160.0</ele><time>2026-04-29T13:11:00Z</time></trkpt><trkpt lat="43.89390474789655" lon="11.513027960932268"><ele>160.0</ele><time>2026-04-29T13:11:01Z</time></trkpt><trkpt lat="43.89379680553911" lon="11.513169415738723"><ele>160.0</ele><time>2026-04-29T13:11:02Z</time></trkpt><trkpt lat="43.8936915887099" lon="11.513292013249671"><ele>160.0</ele><time>2026-04-29T13:11:03Z</time></trkpt><trkpt lat="43.893593306514504" lon="11.513387935304353"><ele>160.0</ele><time>2026-04-29T13:11:04Z</time></trkpt><trkpt lat="43.8934973294305" lon="11.51346341775222"><ele>162.75</ele><time>2026-04-29T13:11:05Z</time></trkpt><trkpt lat="43.89338141218203" lon="11.51353515206519"><ele>165.5</ele><time>2026-04-29T13:11:06Z</time></trkpt><trkpt lat="43.893256105688" lon="11.51359094519524"><ele>168.25</ele><time>2026-04-29T13:11:07Z</time></trkpt><trkpt lat="43.893133472127296" lon="11.513623928363657"><ele>171.0</ele><time>2026-04-29T13:11:08Z</time></trkpt><trkpt lat="43.893014426881166" lon="11.51362485097712"><ele>171.0</ele><time>2026-04-29T13:11:09Z</time></trkpt><trkpt lat="43.89288471171145" lon="11.513606251629136"><ele>171.0</ele><time>2026-04-29T13:11:10Z</time></trkpt><trkpt lat="43.89272203398845" lon="11.513573826009182"><ele>171.0</ele><time>2026-04-29T13:11:11Z</time></trkpt><trkpt lat="43.89254730985297" lon="11.513534010062084"><ele>172.33333333333334</ele><time>2026-04-29T13:11:12Z</time></trkpt><trkpt lat="43.892365449391335" lon="11.513487472819055"><ele>173.66666666666669</ele><time>2026-04-29T13:11:13Z</time></trkpt><trkpt lat="43.892181706678436" lon="11.513440430014"><ele>175.0</ele><time>2026-04-29T13:11:14Z</time></trkpt><trkpt lat="43.89200379975305" lon="11.513393829216692"><ele>175.0</ele><time>2026-04-29T13:11:15Z</time></trkpt><trkpt lat="43.8918404670093" lon="11.513350345048336"><ele>175.0</ele><time>2026-04-29T13:11:16Z</time></trkpt><trkpt lat="43.89169016227538" lon="11.513310331173226"><ele>175.0</ele><time>2026-04-29T13:11:17Z</time></trkpt><trkpt lat="43.89153905634658" lon="11.513272022536318"><ele>173.66666666666669</ele><time>2026-04-29T13:11:18Z</time></trkpt><trkpt lat="43.89138845447199" lon="11.513233999278413"><ele>172.33333333333334</ele><time>2026-04-29T13:11:19Z</time></trkpt><trkpt lat="43.89123036480665" lon="11.513195550907064"><ele>171.0</ele><time>2026-04-29T13:11:20Z</time></trkpt><trkpt lat="43.89106524121696" lon="11.5131629842614"><ele>170.66666666666666</ele><time>2026-04-29T13:11:21Z</time></trkpt><trkpt lat="43.89089532304075" lon="11.513148000076681"><ele>170.33333333333331</ele><time>2026-04-29T13:11:22Z</time></trkpt><trkpt lat="43.89074005947499" lon="11.513156087378718"><ele>170.0</ele><time>2026-04-29T13:11:23Z</time></trkpt><trkpt lat="43.8905914405339" lon="11.513174607914186"><ele>170.0</ele><time>2026-04-29T13:11:24Z</time></trkpt><trkpt lat="43.89045617444639" lon="11.513199475939096"><ele>170.0</ele><time>2026-04-29T13:11:25Z</time></trkpt><trkpt lat="43.89033336019295" lon="11.513247197110449"><ele>170.0</ele><time>2026-04-29T13:11:26Z</time></trkpt><trkpt lat="43.89022871580573" lon="11.513325926456432"><ele>170.0</ele><time>2026-04-29T13:11:27Z</time></trkpt><trkpt lat="43.89014812841945" lon="11.513468941484337"><ele>170.0</ele><time>2026-04-29T13:11:28Z</time></trkpt><trkpt lat="43.89010403064665" lon="11.513649692409862"><ele>170.0</ele><time>2026-04-29T13:11:29Z</time></trkpt><trkpt lat="43.89001734270518" lon="11.513807325876341"><ele>170.0</ele><time>2026-04-29T13:11:30Z</time></trkpt><trkpt lat="43.8899157310715" lon="11.51394648850565"><ele>170.0</ele><time>2026-04-29T13:11:31Z</time></trkpt><trkpt lat="43.88979055942164" lon="11.51407704250187"><ele>167.66666666666666</ele><time>2026-04-29T13:11:32Z</time></trkpt><trkpt lat="43.8896446914583" lon="11.514227280255303"><ele>165.33333333333334</ele><time>2026-04-29T13:11:33Z</time></trkpt><trkpt lat="43.88949206431875" lon="11.514374630041974"><ele>163.0</ele><time>2026-04-29T13:11:34Z</time></trkpt><trkpt lat="43.88934751879867" lon="11.514514033924055"><ele>164.66666666666669</ele><time>2026-04-29T13:11:35Z</time></trkpt><trkpt lat="43.88920758156433" lon="11.514649230360938"><ele>166.33333333333334</ele><time>2026-04-29T13:11:36Z</time></trkpt><trkpt lat="43.88908347975998" lon="11.514772906746192"><ele>168.0</ele><time>2026-04-29T13:11:37Z</time></trkpt><trkpt lat="43.88895959231459" lon="11.514903295793932"><ele>168.0</ele><time>2026-04-29T13:11:38Z</time></trkpt><trkpt lat="43.88884474312841" lon="11.515032378443534"><ele>168.0</ele><time>2026-04-29T13:11:39Z</time></trkpt><trkpt lat="43.88873497645149" lon="11.515159385440205"><ele>168.0</ele><time>2026-04-29T13:11:40Z</time></trkpt><trkpt lat="43.88863014426955" lon="11.515282542471615"><ele>168.0</ele><time>2026-04-29T13:11:41Z</time></trkpt><trkpt lat="43.88852979956245" lon="11.515401647146813"><ele>169.25</ele><time>2026-04-29T13:11:42Z</time></trkpt><trkpt lat="43.888427452937066" lon="11.515524940282374"><ele>170.5</ele><time>2026-04-29T13:11:43Z</time></trkpt><trkpt lat="43.88832611969584" lon="11.515645865528626"><ele>171.75</ele><time>2026-04-29T13:11:44Z</time></trkpt><trkpt lat="43.88821947778496" lon="11.515794740208541"><ele>173.0</ele><time>2026-04-29T13:11:45Z</time></trkpt><trkpt lat="43.8881297196264" lon="11.515941602223638"><ele>173.0</ele><time>2026-04-29T13:11:46Z</time></trkpt><trkpt lat="43.88805021709638" lon="11.516086580678415"><ele>173.0</ele><time>2026-04-29T13:11:47Z</time></trkpt><trkpt lat="43.88797569509863" lon="11.516221197969205"><ele>173.0</ele><time>2026-04-29T13:11:48Z</time></trkpt><trkpt lat="43.88789526227105" lon="11.516350018290723"><ele>173.0</ele><time>2026-04-29T13:11:49Z</time></trkpt><trkpt lat="43.887800239315936" lon="11.516472740509998"><ele>173.5</ele><time>2026-04-29T13:11:50Z</time></trkpt><trkpt lat="43.88769027042632" lon="11.516596715407916"><ele>174.0</ele><time>2026-04-29T13:11:51Z</time></trkpt><trkpt lat="43.88756471849172" lon="11.516718939901608"><ele>174.5</ele><time>2026-04-29T13:11:52Z</time></trkpt><trkpt lat="43.88743851850681" lon="11.516834239809977"><ele>175.0</ele><time>2026-04-29T13:11:53Z</time></trkpt><trkpt lat="43.88731678047207" lon="11.516944189801183"><ele>175.0</ele><time>2026-04-29T13:11:54Z</time></trkpt><trkpt lat="43.88720847073995" lon="11.51704745000051"><ele>175.0</ele><time>2026-04-29T13:11:55Z</time></trkpt><trkpt lat="43.88711030068045" lon="11.517141488571601"><ele>175.0</ele><time>2026-04-29T13:11:56Z</time></trkpt><trkpt lat="43.88700992617955" lon="11.51723862015037"><ele>175.0</ele><time>2026-04-29T13:11:57Z</time></trkpt><trkpt lat="43.886924847391555" lon="11.517353082175312"><ele>174.8</ele><time>2026-04-29T13:11:58Z</time></trkpt><trkpt lat="43.88683579347859" lon="11.51744998861412"><ele>174.6</ele><time>2026-04-29T13:11:59Z</time></trkpt><trkpt lat="43.88674995079651" lon="11.517545191732063"><ele>174.39999999999998</ele><time>2026-04-29T13:12:00Z</time></trkpt><trkpt lat="43.88668927275786" lon="11.517686448185394"><ele>174.2</ele><time>2026-04-29T13:12:01Z</time></trkpt><trkpt lat="43.886646489956604" lon="11.517822401724002"><ele>174.0</ele><time>2026-04-29T13:12:02Z</time></trkpt><trkpt lat="43.88662302451531" lon="11.517979218344594"><ele>173.25</ele><time>2026-04-29T13:12:03Z</time></trkpt><trkpt lat="43.88663323313798" lon="11.518146138975249"><ele>172.5</ele><time>2026-04-29T13:12:04Z</time></trkpt><trkpt lat="43.88665650779023" lon="11.518336179109784"><ele>171.75</ele><time>2026-04-29T13:12:05Z</time></trkpt><trkpt lat="43.886674694396014" lon="11.518540667921865"><ele>171.0</ele><time>2026-04-29T13:12:06Z</time></trkpt><trkpt lat="43.886731065459415" lon="11.518740081821697"><ele>166.0</ele><time>2026-04-29T13:12:07Z</time></trkpt><trkpt lat="43.88676194433102" lon="11.518948666816822"><ele>161.0</ele><time>2026-04-29T13:12:08Z</time></trkpt><trkpt lat="43.88679060424269" lon="11.519125764848466"><ele>156.0</ele><time>2026-04-29T13:12:09Z</time></trkpt><trkpt lat="43.88682627113203" lon="11.519298638581226"><ele>151.0</ele><time>2026-04-29T13:12:10Z</time></trkpt><trkpt lat="43.88685927331358" lon="11.519467549729551"><ele>151.0</ele><time>2026-04-29T13:12:11Z</time></trkpt><trkpt lat="43.88689092572605" lon="11.519632244626058"><ele>151.0</ele><time>2026-04-29T13:12:12Z</time></trkpt><trkpt lat="43.88692090695575" lon="11.519788243539178"><ele>151.0</ele><time>2026-04-29T13:12:13Z</time></trkpt><trkpt lat="43.88695051803808" lon="11.519942316889793"><ele>151.0</ele><time>2026-04-29T13:12:14Z</time></trkpt><trkpt lat="43.886978646406284" lon="11.520088675181377"><ele>151.0</ele><time>2026-04-29T13:12:15Z</time></trkpt><trkpt lat="43.88700656006045" lon="11.520233285071095"><ele>151.0</ele><time>2026-04-29T13:12:16Z</time></trkpt><trkpt lat="43.88703599068296" lon="11.52038280410759"><ele>151.0</ele><time>2026-04-29T13:12:17Z</time></trkpt><trkpt lat="43.887077806157876" lon="11.520522669406372"><ele>151.0</ele><time>2026-04-29T13:12:18Z</time></trkpt><trkpt lat="43.88710124743977" lon="11.52066332785481"><ele>151.0</ele><time>2026-04-29T13:12:19Z</time></trkpt><trkpt lat="43.88712682269645" lon="11.520796702060059"><ele>151.0</ele><time>2026-04-29T13:12:20Z</time></trkpt><trkpt lat="43.88715234830577" lon="11.520929707670826"><ele>151.0</ele><time>2026-04-29T13:12:21Z</time></trkpt><trkpt lat="43.88717579691445" lon="11.521058791747853"><ele>151.0</ele><time>2026-04-29T13:12:22Z</time></trkpt><trkpt lat="43.8871974891099" lon="11.521174266533494"><ele>151.0</ele><time>2026-04-29T13:12:23Z</time></trkpt><trkpt lat="43.887218541380754" lon="11.521275271037764"><ele>151.0</ele><time>2026-04-29T13:12:24Z</time></trkpt><trkpt lat="43.88723978905643" lon="11.521367727322243"><ele>151.0</ele><time>2026-04-29T13:12:25Z</time></trkpt><trkpt lat="43.887294168240345" lon="11.521444252498126"><ele>150.8</ele><time>2026-04-29T13:12:26Z</time></trkpt><trkpt lat="43.887363013790434" lon="11.52148333736046"><ele>150.6</ele><time>2026-04-29T13:12:27Z</time></trkpt><trkpt lat="43.88747356194199" lon="11.521430734338328"><ele>150.4</ele><time>2026-04-29T13:12:28Z</time></trkpt><trkpt lat="43.88756494786572" lon="11.521379071044668"><ele>150.2</ele><time>2026-04-29T13:12:29Z</time></trkpt><trkpt lat="43.8876452577969" lon="11.521335256642947"><ele>150.0</ele><time>2026-04-29T13:12:30Z</time></trkpt><trkpt lat="43.88772492893648" lon="11.521270983335942"><ele>150.0</ele><time>2026-04-29T13:12:31Z</time></trkpt><trkpt lat="43.88781774922767" lon="11.521225246442388"><ele>150.0</ele><time>2026-04-29T13:12:32Z</time></trkpt><trkpt lat="43.887914322777966" lon="11.521184305355375"><ele>150.0</ele><time>2026-04-29T13:12:33Z</time></trkpt><trkpt lat="43.88799442891048" lon="11.52113894730571"><ele>150.0</ele><time>2026-04-29T13:12:34Z</time></trkpt><trkpt lat="43.88809103190153" lon="11.521084002554307"><ele>150.0</ele><time>2026-04-29T13:12:35Z</time></trkpt><trkpt lat="43.8881754455694" lon="11.521035990788317"><ele>150.0</ele><time>2026-04-29T13:12:36Z</time></trkpt><trkpt lat="43.88825279839527" lon="11.520992085009306"><ele>150.0</ele><time>2026-04-29T13:12:37Z</time></trkpt><trkpt lat="43.88833203529441" lon="11.520952296097239"><ele>150.0</ele><time>2026-04-29T13:12:38Z</time></trkpt><trkpt lat="43.88842827230359" lon="11.520920542386792"><ele>150.0</ele><time>2026-04-29T13:12:39Z</time></trkpt><trkpt lat="43.888531495879825" lon="11.520906417612716"><ele>150.0</ele><time>2026-04-29T13:12:40Z</time></trkpt><trkpt lat="43.88864226201763" lon="11.520915267237152"><ele>150.0</ele><time>2026-04-29T13:12:41Z</time></trkpt><trkpt lat="43.888761252532376" lon="11.52091984974066"><ele>150.0</ele><time>2026-04-29T13:12:42Z</time></trkpt><trkpt lat="43.88888292588581" lon="11.520926908931445"><ele>150.0</ele><time>2026-04-29T13:12:43Z</time></trkpt><trkpt lat="43.88899582961067" lon="11.520934958657406"><ele>150.0</ele><time>2026-04-29T13:12:44Z</time></trkpt><trkpt lat="43.88910217716316" lon="11.520942540956037"><ele>150.0</ele><time>2026-04-29T13:12:45Z</time></trkpt><trkpt lat="43.88920711560202" lon="11.520950022785174"><ele>150.0</ele><time>2026-04-29T13:12:46Z</time></trkpt><trkpt lat="43.88932358225122" lon="11.520958326540399"><ele>150.0</ele><time>2026-04-29T13:12:47Z</time></trkpt><trkpt lat="43.88943624556292" lon="11.52096597662685"><ele>150.0</ele><time>2026-04-29T13:12:48Z</time></trkpt><trkpt lat="43.88953801392858" lon="11.520955762280803"><ele>150.0</ele><time>2026-04-29T13:12:49Z</time></trkpt><trkpt lat="43.889633194665855" lon="11.520961471590764"><ele>151.0</ele><time>2026-04-29T13:12:50Z</time></trkpt><trkpt lat="43.88973176066783" lon="11.520967788151784"><ele>152.0</ele><time>2026-04-29T13:12:51Z</time></trkpt><trkpt lat="43.889841688156146" lon="11.520971960854318"><ele>153.0</ele><time>2026-04-29T13:12:52Z</time></trkpt><trkpt lat="43.88995527091498" lon="11.520972690689897"><ele>154.0</ele><time>2026-04-29T13:12:53Z</time></trkpt><trkpt lat="43.89007270537316" lon="11.521002994195886"><ele>155.0</ele><time>2026-04-29T13:12:54.001Z</time></trkpt><trkpt lat="43.89017452483345" lon="11.521009494551283"><ele>155.16666666666666</ele><time>2026-04-29T13:12:55.001Z</time></trkpt><trkpt lat="43.890272916081706" lon="11.521015446602961"><ele>155.33333333333331</ele><time>2026-04-29T13:12:56.001Z</time></trkpt><trkpt lat="43.89035744746566" lon="11.521019885158342"><ele>155.5</ele><time>2026-04-29T13:12:57.001Z</time></trkpt><trkpt lat="43.89044835179877" lon="11.521027680897834"><ele>155.66666666666666</ele><time>2026-04-29T13:12:58.001Z</time></trkpt><trkpt lat="43.890531114497314" lon="11.521051653172776"><ele>155.83333333333334</ele><time>2026-04-29T13:12:59.001Z</time></trkpt><trkpt lat="43.89059256019648" lon="11.521103958686341"><ele>156.0</ele><time>2026-04-29T13:13:00.001Z</time></trkpt><trkpt lat="43.89065650116431" lon="11.52116105512124"><ele>156.33333333333334</ele><time>2026-04-29T13:13:01.001Z</time></trkpt><trkpt lat="43.890719036227274" lon="11.521237562375322"><ele>156.66666666666666</ele><time>2026-04-29T13:13:02.001Z</time></trkpt><trkpt lat="43.890781437754754" lon="11.521338297078971"><ele>157.0</ele><time>2026-04-29T13:13:03.001Z</time></trkpt><trkpt lat="43.890805528994356" lon="11.521441997422334"><ele>157.33333333333331</ele><time>2026-04-29T13:13:04.001Z</time></trkpt><trkpt lat="43.89081952204742" lon="11.521542628790764"><ele>157.66666666666666</ele><time>2026-04-29T13:13:05.001Z</time></trkpt><trkpt lat="43.890828494407884" lon="11.521631443246866"><ele>158.0</ele><time>2026-04-29T13:13:06.001Z</time></trkpt><trkpt lat="43.89083746039919" lon="11.52171803710138"><ele>158.0</ele><time>2026-04-29T13:13:07.001Z</time></trkpt><trkpt lat="43.89085606161177" lon="11.521889778321833"><ele>158.0</ele><time>2026-04-29T13:13:09.001Z</time></trkpt><trkpt lat="43.890876992699916" lon="11.52198472619442"><ele>158.0</ele><time>2026-04-29T13:13:10.001Z</time></trkpt><trkpt lat="43.89088489399272" lon="11.522093915837665"><ele>158.0</ele><time>2026-04-29T13:13:11.001Z</time></trkpt><trkpt lat="43.89089266538321" lon="11.522209877065029"><ele>158.0</ele><time>2026-04-29T13:13:12.001Z</time></trkpt><trkpt lat="43.89090080797527" lon="11.522313589263177"><ele>158.0</ele><time>2026-04-29T13:13:13.001Z</time></trkpt><trkpt lat="43.89091195475586" lon="11.522460150129774"><ele>158.16666666666666</ele><time>2026-04-29T13:13:15Z</time></trkpt><trkpt lat="43.89092222427951" lon="11.522571949705796"><ele>158.33333333333331</ele><time>2026-04-29T13:13:18Z</time></trkpt><trkpt lat="43.8909433229567" lon="11.522698612002817"><ele>158.5</ele><time>2026-04-29T13:13:21Z</time></trkpt><trkpt lat="43.89096506866982" lon="11.522797477595537"><ele>158.66666666666666</ele><time>2026-04-29T13:13:23Z</time></trkpt><trkpt lat="43.89095836101484" lon="11.522920039033847"><ele>158.83333333333334</ele><time>2026-04-29T13:13:24Z</time></trkpt><trkpt lat="43.8909573703255" lon="11.523016913258097"><ele>159.0</ele><time>2026-04-29T13:13:25Z</time></trkpt><trkpt lat="43.890955865015535" lon="11.523168113266953"><ele>159.8</ele><time>2026-04-29T13:13:27Z</time></trkpt><trkpt lat="43.89109951951533" lon="11.523219813378649"><ele>160.60000000000002</ele><time>2026-04-29T13:13:30Z</time></trkpt><trkpt lat="43.89122725106059" lon="11.52319443058917"><ele>161.4</ele><time>2026-04-29T13:13:32Z</time></trkpt><trkpt lat="43.891298441011074" lon="11.523186392358324"><ele>162.20000000000002</ele><time>2026-04-29T13:13:33Z</time></trkpt><trkpt lat="43.89137312374756" lon="11.523194142045458"><ele>163.0</ele><time>2026-04-29T13:13:34Z</time></trkpt><trkpt lat="43.891457015353076" lon="11.52321983588343"><ele>163.0</ele><time>2026-04-29T13:13:35Z</time></trkpt><trkpt lat="43.8915403868415" lon="11.523279030748323"><ele>163.0</ele><time>2026-04-29T13:13:36Z</time></trkpt><trkpt lat="43.89160945569957" lon="11.523366813101143"><ele>163.0</ele><time>2026-04-29T13:13:37Z</time></trkpt><trkpt lat="43.89166702620732" lon="11.523464544093004"><ele>163.0</ele><time>2026-04-29T13:13:38Z</time></trkpt><trkpt lat="43.89171050454622" lon="11.523590512070086"><ele>163.0</ele><time>2026-04-29T13:13:39Z</time></trkpt><trkpt lat="43.891734839174454" lon="11.523732082333948"><ele>163.25</ele><time>2026-04-29T13:13:40Z</time></trkpt><trkpt lat="43.89175355480284" lon="11.523884536071892"><ele>163.5</ele><time>2026-04-29T13:13:41Z</time></trkpt><trkpt lat="43.89176569860849" lon="11.524053680617387"><ele>163.75</ele><time>2026-04-29T13:13:42Z</time></trkpt><trkpt lat="43.8917767157397" lon="11.524231213468251"><ele>164.0</ele><time>2026-04-29T13:13:43Z</time></trkpt><trkpt lat="43.891781380591496" lon="11.524414767943092"><ele>168.25</ele><time>2026-04-29T13:13:44Z</time></trkpt><trkpt lat="43.8917959721487" lon="11.524620903001882"><ele>172.5</ele><time>2026-04-29T13:13:45Z</time></trkpt><trkpt lat="43.891812581343885" lon="11.524813205632826"><ele>176.75</ele><time>2026-04-29T13:13:46Z</time></trkpt><trkpt lat="43.89182308330554" lon="11.524988527018786"><ele>181.0</ele><time>2026-04-29T13:13:47Z</time></trkpt><trkpt lat="43.891843258596936" lon="11.525155577144522"><ele>181.0</ele><time>2026-04-29T13:13:48Z</time></trkpt><trkpt lat="43.891854826912784" lon="11.525316963796495"><ele>181.0</ele><time>2026-04-29T13:13:49Z</time></trkpt><trkpt lat="43.89187123908506" lon="11.52548472696926"><ele>181.0</ele><time>2026-04-29T13:13:50Z</time></trkpt><trkpt lat="43.8918799572193" lon="11.525658633148806"><ele>181.0</ele><time>2026-04-29T13:13:51Z</time></trkpt><trkpt lat="43.8919013866858" lon="11.525831771615913"><ele>180.5</ele><time>2026-04-29T13:13:52Z</time></trkpt><trkpt lat="43.891904520053885" lon="11.526020207713243"><ele>180.0</ele><time>2026-04-29T13:13:53Z</time></trkpt><trkpt lat="43.89192880094167" lon="11.526200541854259"><ele>179.5</ele><time>2026-04-29T13:13:54Z</time></trkpt><trkpt lat="43.8919327422023" lon="11.526383334949472"><ele>179.0</ele><time>2026-04-29T13:13:55Z</time></trkpt><trkpt lat="43.89194819074935" lon="11.526569902220437"><ele>179.0</ele><time>2026-04-29T13:13:56Z</time></trkpt><trkpt lat="43.891983400069414" lon="11.526762018596092"><ele>179.0</ele><time>2026-04-29T13:13:57Z</time></trkpt><trkpt lat="43.89202147414253" lon="11.526963442702503"><ele>179.0</ele><time>2026-04-29T13:13:58Z</time></trkpt><trkpt lat="43.89206680164888" lon="11.527164766441619"><ele>179.0</ele><time>2026-04-29T13:13:59Z</time></trkpt><trkpt lat="43.892117492899985" lon="11.527379544125074"><ele>178.66666666666666</ele><time>2026-04-29T13:14:00Z</time></trkpt><trkpt lat="43.89216829347788" lon="11.527597650736638"><ele>178.33333333333334</ele><time>2026-04-29T13:14:01Z</time></trkpt><trkpt lat="43.89222422231023" lon="11.527830189072148"><ele>178.0</ele><time>2026-04-29T13:14:02Z</time></trkpt><trkpt lat="43.89226775146824" lon="11.528078044298285"><ele>176.66666666666669</ele><time>2026-04-29T13:14:03Z</time></trkpt><trkpt lat="43.892301715736394" lon="11.52830696802048"><ele>175.33333333333334</ele><time>2026-04-29T13:14:04Z</time></trkpt><trkpt lat="43.892318992694875" lon="11.528550124177317"><ele>174.0</ele><time>2026-04-29T13:14:05Z</time></trkpt><trkpt lat="43.89233489638272" lon="11.52878458304104"><ele>173.0</ele><time>2026-04-29T13:14:06Z</time></trkpt><trkpt lat="43.892344598063055" lon="11.529010726257333"><ele>172.0</ele><time>2026-04-29T13:14:07Z</time></trkpt><trkpt lat="43.892368034853966" lon="11.529240276233677"><ele>171.0</ele><time>2026-04-29T13:14:08Z</time></trkpt><trkpt lat="43.89237738871238" lon="11.529466008081716"><ele>170.66666666666666</ele><time>2026-04-29T13:14:09Z</time></trkpt><trkpt lat="43.89236243869739" lon="11.529696969274815"><ele>170.33333333333331</ele><time>2026-04-29T13:14:10Z</time></trkpt><trkpt lat="43.89235829898809" lon="11.529954937749828"><ele>170.0</ele><time>2026-04-29T13:14:11Z</time></trkpt><trkpt lat="43.89235124144702" lon="11.530249964739015"><ele>169.5</ele><time>2026-04-29T13:14:12Z</time></trkpt><trkpt lat="43.89234466046572" lon="11.530580750033776"><ele>169.0</ele><time>2026-04-29T13:14:13Z</time></trkpt><trkpt lat="43.892344397514464" lon="11.530894752346347"><ele>169.0</ele><time>2026-04-29T13:14:14Z</time></trkpt><trkpt lat="43.89232060770741" lon="11.531178679824015"><ele>169.0</ele><time>2026-04-29T13:14:15Z</time></trkpt><trkpt lat="43.892288848295685" lon="11.531445252538091"><ele>169.0</ele><time>2026-04-29T13:14:16Z</time></trkpt><trkpt lat="43.89225896908171" lon="11.531694111499018"><ele>169.0</ele><time>2026-04-29T13:14:17Z</time></trkpt><trkpt lat="43.892235442605084" lon="11.531924801441502"><ele>169.0</ele><time>2026-04-29T13:14:18Z</time></trkpt><trkpt lat="43.89222605146089" lon="11.532126672359297"><ele>169.0</ele><time>2026-04-29T13:14:19Z</time></trkpt><trkpt lat="43.89225835959615" lon="11.532318995577505"><ele>169.0</ele><time>2026-04-29T13:14:20Z</time></trkpt><trkpt lat="43.89233923680023" lon="11.532522966077371"><ele>169.0</ele><time>2026-04-29T13:14:21Z</time></trkpt><trkpt lat="43.892445618263146" lon="11.5327446060154"><ele>169.0</ele><time>2026-04-29T13:14:22Z</time></trkpt><trkpt lat="43.8925416136624" lon="11.532986813459765"><ele>175.66666666666669</ele><time>2026-04-29T13:14:23Z</time></trkpt><trkpt lat="43.892637098581595" lon="11.53321893581588"><ele>182.33333333333334</ele><time>2026-04-29T13:14:24Z</time></trkpt><trkpt lat="43.8927178293124" lon="11.533448058625732"><ele>189.0</ele><time>2026-04-29T13:14:25Z</time></trkpt><trkpt lat="43.89276371617521" lon="11.53371337545413"><ele>188.33333333333334</ele><time>2026-04-29T13:14:26Z</time></trkpt><trkpt lat="43.892783564672335" lon="11.534003270465211"><ele>187.66666666666669</ele><time>2026-04-29T13:14:27Z</time></trkpt><trkpt lat="43.89280662522771" lon="11.534277497732678"><ele>187.0</ele><time>2026-04-29T13:14:28Z</time></trkpt><trkpt lat="43.89281174296302" lon="11.53452850931415"><ele>185.0</ele><time>2026-04-29T13:14:29Z</time></trkpt><trkpt lat="43.89282433132193" lon="11.534758735278364"><ele>183.0</ele><time>2026-04-29T13:14:30Z</time></trkpt><trkpt lat="43.89284985415831" lon="11.534979346534165"><ele>181.0</ele><time>2026-04-29T13:14:31Z</time></trkpt><trkpt lat="43.89290205508548" lon="11.535168155917319"><ele>181.0</ele><time>2026-04-29T13:14:32Z</time></trkpt><trkpt lat="43.89296017954106" lon="11.535342293340783"><ele>181.0</ele><time>2026-04-29T13:14:33Z</time></trkpt><trkpt lat="43.89302061677604" lon="11.535500577128964"><ele>181.0</ele><time>2026-04-29T13:14:34Z</time></trkpt><trkpt lat="43.89308191074845" lon="11.535650698582188"><ele>181.0</ele><time>2026-04-29T13:14:35Z</time></trkpt><trkpt lat="43.89314443755405" lon="11.535782104407089"><ele>180.75</ele><time>2026-04-29T13:14:36Z</time></trkpt><trkpt lat="43.893186353355084" lon="11.535924052503459"><ele>180.5</ele><time>2026-04-29T13:14:37Z</time></trkpt><trkpt lat="43.89323597299095" lon="11.536053680467113"><ele>180.25</ele><time>2026-04-29T13:14:38Z</time></trkpt><trkpt lat="43.89331938409202" lon="11.53616628739796"><ele>180.0</ele><time>2026-04-29T13:14:39Z</time></trkpt><trkpt lat="43.89342955112907" lon="11.536282735431584"><ele>180.0</ele><time>2026-04-29T13:14:40Z</time></trkpt><trkpt lat="43.89357675326705" lon="11.536386292062078"><ele>180.0</ele><time>2026-04-29T13:14:41Z</time></trkpt><trkpt lat="43.893710953058914" lon="11.536473540913688"><ele>180.0</ele><time>2026-04-29T13:14:42Z</time></trkpt><trkpt lat="43.89382928179936" lon="11.536551654889475"><ele>180.0</ele><time>2026-04-29T13:14:43Z</time></trkpt><trkpt lat="43.89393025754162" lon="11.536642971638814"><ele>180.0</ele><time>2026-04-29T13:14:44Z</time></trkpt><trkpt lat="43.89400406666295" lon="11.536780053529487"><ele>180.0</ele><time>2026-04-29T13:14:45Z</time></trkpt><trkpt lat="43.89402809467952" lon="11.536972904508739"><ele>180.0</ele><time>2026-04-29T13:14:46Z</time></trkpt><trkpt lat="43.894077608193335" lon="11.537175875947426"><ele>180.0</ele><time>2026-04-29T13:14:47Z</time></trkpt><trkpt lat="43.89411910534968" lon="11.537387733372192"><ele>179.66666666666666</ele><time>2026-04-29T13:14:48Z</time></trkpt><trkpt lat="43.894170120567466" lon="11.537603899560139"><ele>179.33333333333331</ele><time>2026-04-29T13:14:49Z</time></trkpt><trkpt lat="43.894213107847165" lon="11.537807181099687"><ele>179.0</ele><time>2026-04-29T13:14:50Z</time></trkpt><trkpt lat="43.89425599217144" lon="11.538019910255857"><ele>184.66666666666666</ele><time>2026-04-29T13:14:51Z</time></trkpt><trkpt lat="43.89429865021688" lon="11.5382233654924"><ele>190.33333333333331</ele><time>2026-04-29T13:14:52Z</time></trkpt><trkpt lat="43.894344455463376" lon="11.538434166449575"><ele>196.0</ele><time>2026-04-29T13:14:53Z</time></trkpt><trkpt lat="43.89439941018399" lon="11.538653946296431"><ele>195.25</ele><time>2026-04-29T13:14:54Z</time></trkpt><trkpt lat="43.89444513561273" lon="11.538856979974348"><ele>194.5</ele><time>2026-04-29T13:14:55Z</time></trkpt><trkpt lat="43.89448148968436" lon="11.539041146221278"><ele>193.75</ele><time>2026-04-29T13:14:56Z</time></trkpt><trkpt lat="43.894514830689864" lon="11.53921051586033"><ele>193.0</ele><time>2026-04-29T13:14:57Z</time></trkpt><trkpt lat="43.89454808516288" lon="11.539376061343704"><ele>194.0</ele><time>2026-04-29T13:14:58Z</time></trkpt><trkpt lat="43.89458562210882" lon="11.53955285658101"><ele>195.0</ele><time>2026-04-29T13:14:59Z</time></trkpt><trkpt lat="43.89461521247522" lon="11.539753317537496"><ele>196.0</ele><time>2026-04-29T13:15:00Z</time></trkpt><trkpt lat="43.89463704074316" lon="11.53998334493161"><ele>197.0</ele><time>2026-04-29T13:15:01Z</time></trkpt><trkpt lat="43.89465978443639" lon="11.540227444250055"><ele>196.66666666666669</ele><time>2026-04-29T13:15:02Z</time></trkpt><trkpt lat="43.89469267710648" lon="11.540479717248308"><ele>196.33333333333331</ele><time>2026-04-29T13:15:03Z</time></trkpt><trkpt lat="43.894729448671875" lon="11.540765717669988"><ele>196.0</ele><time>2026-04-29T13:15:04Z</time></trkpt><trkpt lat="43.894755868289074" lon="11.541050852895578"><ele>195.0</ele><time>2026-04-29T13:15:05Z</time></trkpt><trkpt lat="43.894782346492065" lon="11.541305324244185"><ele>194.0</ele><time>2026-04-29T13:15:06Z</time></trkpt><trkpt lat="43.89480340350371" lon="11.541550088764462"><ele>193.0</ele><time>2026-04-29T13:15:07Z</time></trkpt><trkpt lat="43.89481994914459" lon="11.54178744022537"><ele>193.0</ele><time>2026-04-29T13:15:08Z</time></trkpt><trkpt lat="43.8948484009914" lon="11.54204791242913"><ele>193.0</ele><time>2026-04-29T13:15:09Z</time></trkpt><trkpt lat="43.89489429188274" lon="11.542325347308308"><ele>193.0</ele><time>2026-04-29T13:15:10Z</time></trkpt><trkpt lat="43.89496445870842" lon="11.542606638210692"><ele>192.33333333333331</ele><time>2026-04-29T13:15:11Z</time></trkpt><trkpt lat="43.895052799899624" lon="11.54286805596277"><ele>191.66666666666666</ele><time>2026-04-29T13:15:12Z</time></trkpt><trkpt lat="43.89515015351206" lon="11.54312481516691"><ele>191.0</ele><time>2026-04-29T13:15:13Z</time></trkpt><trkpt lat="43.89523719777799" lon="11.543356920208058"><ele>192.0</ele><time>2026-04-29T13:15:14Z</time></trkpt><trkpt lat="43.89532627028075" lon="11.543571990448735"><ele>193.0</ele><time>2026-04-29T13:15:15Z</time></trkpt><trkpt lat="43.89543043852052" lon="11.54375935024897"><ele>194.0</ele><time>2026-04-29T13:15:16Z</time></trkpt><trkpt lat="43.895561238619486" lon="11.543933162902412"><ele>194.0</ele><time>2026-04-29T13:15:17Z</time></trkpt><trkpt lat="43.89573211365584" lon="11.544079668188852"><ele>194.0</ele><time>2026-04-29T13:15:18Z</time></trkpt><trkpt lat="43.89592478686627" lon="11.5441857698102"><ele>194.0</ele><time>2026-04-29T13:15:19Z</time></trkpt><trkpt lat="43.8961053397572" lon="11.544260322212105"><ele>194.0</ele><time>2026-04-29T13:15:20Z</time></trkpt><trkpt lat="43.896254485450044" lon="11.544360758119979"><ele>194.0</ele><time>2026-04-29T13:15:21Z</time></trkpt><trkpt lat="43.89639308907775" lon="11.544456035728466"><ele>194.0</ele><time>2026-04-29T13:15:22Z</time></trkpt><trkpt lat="43.89652519739735" lon="11.544591101405858"><ele>194.0</ele><time>2026-04-29T13:15:23Z</time></trkpt><trkpt lat="43.896605492606824" lon="11.544834208466927"><ele>194.0</ele><time>2026-04-29T13:15:24Z</time></trkpt><trkpt lat="43.89670102375115" lon="11.5451174125428"><ele>194.0</ele><time>2026-04-29T13:15:25Z</time></trkpt><trkpt lat="43.89678284091722" lon="11.54542770534974"><ele>203.5</ele><time>2026-04-29T13:15:26Z</time></trkpt><trkpt lat="43.89688758176454" lon="11.545753822274978"><ele>213.0</ele><time>2026-04-29T13:15:27Z</time></trkpt><trkpt lat="43.896993104736225" lon="11.546075001905308"><ele>208.5</ele><time>2026-04-29T13:15:28Z</time></trkpt><trkpt lat="43.89708750931018" lon="11.546363638413675"><ele>204.0</ele><time>2026-04-29T13:15:29Z</time></trkpt><trkpt lat="43.897180891703805" lon="11.546642759624717"><ele>204.0</ele><time>2026-04-29T13:15:30Z</time></trkpt><trkpt lat="43.89728294253397" lon="11.546934400650237"><ele>204.0</ele><time>2026-04-29T13:15:31Z</time></trkpt><trkpt lat="43.89737986865367" lon="11.547212043918035"><ele>205.0</ele><time>2026-04-29T13:15:32Z</time></trkpt><trkpt lat="43.897463620511495" lon="11.54746524578973"><ele>206.0</ele><time>2026-04-29T13:15:33Z</time></trkpt><trkpt lat="43.89753612144097" lon="11.547683990903383"><ele>207.0</ele><time>2026-04-29T13:15:34Z</time></trkpt><trkpt lat="43.89761984087021" lon="11.54787872244853"><ele>207.0</ele><time>2026-04-29T13:15:35Z</time></trkpt><trkpt lat="43.89773992542572" lon="11.548039994980538"><ele>207.0</ele><time>2026-04-29T13:15:36Z</time></trkpt><trkpt lat="43.897887235621276" lon="11.548175737239786"><ele>207.0</ele><time>2026-04-29T13:15:37Z</time></trkpt><trkpt lat="43.898060215040054" lon="11.548255528285896"><ele>207.0</ele><time>2026-04-29T13:15:38Z</time></trkpt><trkpt lat="43.898244073101644" lon="11.548294819449804"><ele>207.0</ele><time>2026-04-29T13:15:39Z</time></trkpt><trkpt lat="43.89842925696115" lon="11.548310679216023"><ele>207.0</ele><time>2026-04-29T13:15:40Z</time></trkpt><trkpt lat="43.898615379970934" lon="11.548348930366046"><ele>208.33333333333331</ele><time>2026-04-29T13:15:41Z</time></trkpt><trkpt lat="43.89879761134631" lon="11.548417178480818"><ele>209.66666666666666</ele><time>2026-04-29T13:15:42Z</time></trkpt><trkpt lat="43.89896551446812" lon="11.548532628078844"><ele>211.0</ele><time>2026-04-29T13:15:43Z</time></trkpt><trkpt lat="43.89913942014194" lon="11.548693299810756"><ele>202.0</ele><time>2026-04-29T13:15:44Z</time></trkpt><trkpt lat="43.89930791024606" lon="11.54890322421668"><ele>193.0</ele><time>2026-04-29T13:15:45Z</time></trkpt><trkpt lat="43.89948758451553" lon="11.54913543352983"><ele>193.0</ele><time>2026-04-29T13:15:46Z</time></trkpt><trkpt lat="43.89967310963125" lon="11.549371884117598"><ele>193.0</ele><time>2026-04-29T13:15:47Z</time></trkpt><trkpt lat="43.899843660343755" lon="11.549588125583288"><ele>194.33333333333331</ele><time>2026-04-29T13:15:48Z</time></trkpt><trkpt lat="43.899998911798136" lon="11.549779915526944"><ele>195.66666666666669</ele><time>2026-04-29T13:15:49Z</time></trkpt><trkpt lat="43.900132506568006" lon="11.549970446107897"><ele>197.0</ele><time>2026-04-29T13:15:50Z</time></trkpt><trkpt lat="43.90025357932865" lon="11.550209781959008"><ele>196.0</ele><time>2026-04-29T13:15:51Z</time></trkpt><trkpt lat="43.90034959734649" lon="11.550505387566483"><ele>195.0</ele><time>2026-04-29T13:15:52Z</time></trkpt><trkpt lat="43.900422461436136" lon="11.550801869184358"><ele>195.0</ele><time>2026-04-29T13:15:53Z</time></trkpt><trkpt lat="43.90049338403291" lon="11.551060687638183"><ele>195.0</ele><time>2026-04-29T13:15:54Z</time></trkpt><trkpt lat="43.90057591463234" lon="11.551279852432355"><ele>195.0</ele><time>2026-04-29T13:15:55Z</time></trkpt><trkpt lat="43.90069812815709" lon="11.551494315600634"><ele>197.5</ele><time>2026-04-29T13:15:56Z</time></trkpt><trkpt lat="43.90086610637333" lon="11.551708809783843"><ele>200.0</ele><time>2026-04-29T13:15:57Z</time></trkpt><trkpt lat="43.901038715232275" lon="11.551928781111805"><ele>201.0</ele><time>2026-04-29T13:15:58Z</time></trkpt><trkpt lat="43.90119259105644" lon="11.55213735321805"><ele>202.0</ele><time>2026-04-29T13:15:59Z</time></trkpt><trkpt lat="43.901347407291034" lon="11.55232663755118"><ele>203.0</ele><time>2026-04-29T13:16:00Z</time></trkpt><trkpt lat="43.901531756306206" lon="11.552503888128179"><ele>200.5</ele><time>2026-04-29T13:16:01Z</time></trkpt><trkpt lat="43.901749244573615" lon="11.552669658803605"><ele>198.0</ele><time>2026-04-29T13:16:02Z</time></trkpt><trkpt lat="43.901984257853165" lon="11.55284221900524"><ele>203.5</ele><time>2026-04-29T13:16:03Z</time></trkpt><trkpt lat="43.90219100881094" lon="11.553009664852826"><ele>209.0</ele><time>2026-04-29T13:16:04Z</time></trkpt><trkpt lat="43.90237100913867" lon="11.553160217293648"><ele>209.0</ele><time>2026-04-29T13:16:05Z</time></trkpt><trkpt lat="43.90254013469199" lon="11.553294437295557"><ele>209.0</ele><time>2026-04-29T13:16:06Z</time></trkpt><trkpt lat="43.90272218816129" lon="11.553367862000425"><ele>209.0</ele><time>2026-04-29T13:16:07Z</time></trkpt><trkpt lat="43.90293503754054" lon="11.5534133773496"><ele>207.0</ele><time>2026-04-29T13:16:08Z</time></trkpt><trkpt lat="43.903166510673145" lon="11.553434145708177"><ele>205.0</ele><time>2026-04-29T13:16:09Z</time></trkpt><trkpt lat="43.90340283402775" lon="11.553469298142604"><ele>206.5</ele><time>2026-04-29T13:16:10Z</time></trkpt><trkpt lat="43.903631656982675" lon="11.553505166362596"><ele>208.0</ele><time>2026-04-29T13:16:11Z</time></trkpt><trkpt lat="43.90386528412901" lon="11.553538548414869"><ele>208.0</ele><time>2026-04-29T13:16:12Z</time></trkpt><trkpt lat="43.904102843533934" lon="11.55358542237333"><ele>208.0</ele><time>2026-04-29T13:16:13Z</time></trkpt><trkpt lat="43.904323190433935" lon="11.55362592339317"><ele>208.33333333333331</ele><time>2026-04-29T13:16:14Z</time></trkpt><trkpt lat="43.90452581477131" lon="11.553650879364909"><ele>208.66666666666669</ele><time>2026-04-29T13:16:15Z</time></trkpt><trkpt lat="43.9047047320572" lon="11.553681228774256"><ele>209.0</ele><time>2026-04-29T13:16:16Z</time></trkpt><trkpt lat="43.90489804388051" lon="11.553738395802672"><ele>209.0</ele><time>2026-04-29T13:16:17Z</time></trkpt><trkpt lat="43.90507149929178" lon="11.55382924801656"><ele>209.0</ele><time>2026-04-29T13:16:18Z</time></trkpt><trkpt lat="43.90524902296772" lon="11.553978604738301"><ele>209.0</ele><time>2026-04-29T13:16:19Z</time></trkpt><trkpt lat="43.90543299793616" lon="11.554131504428527"><ele>209.0</ele><time>2026-04-29T13:16:20Z</time></trkpt><trkpt lat="43.905577501789566" lon="11.554298891569909"><ele>209.0</ele><time>2026-04-29T13:16:21Z</time></trkpt><trkpt lat="43.9057299453345" lon="11.55450250827343"><ele>209.0</ele><time>2026-04-29T13:16:22Z</time></trkpt><trkpt lat="43.905890087959015" lon="11.554728853174131"><ele>210.0</ele><time>2026-04-29T13:16:23Z</time></trkpt><trkpt lat="43.906056760107354" lon="11.554948461381423"><ele>211.0</ele><time>2026-04-29T13:16:24Z</time></trkpt><trkpt lat="43.90622523180658" lon="11.555177883266191"><ele>212.5</ele><time>2026-04-29T13:16:25Z</time></trkpt><trkpt lat="43.906396455866435" lon="11.555409634402327"><ele>214.0</ele><time>2026-04-29T13:16:26Z</time></trkpt><trkpt lat="43.90656002089988" lon="11.555634050042675"><ele>214.0</ele><time>2026-04-29T13:16:27Z</time></trkpt><trkpt lat="43.90671259239593" lon="11.555847464648092"><ele>214.0</ele><time>2026-04-29T13:16:28Z</time></trkpt><trkpt lat="43.90685891497426" lon="11.556053269845679"><ele>214.0</ele><time>2026-04-29T13:16:29Z</time></trkpt><trkpt lat="43.90700451677718" lon="11.55623647577245"><ele>214.33333333333331</ele><time>2026-04-29T13:16:30Z</time></trkpt><trkpt lat="43.90715018232529" lon="11.55639682202979"><ele>214.66666666666669</ele><time>2026-04-29T13:16:31Z</time></trkpt><trkpt lat="43.90731466464644" lon="11.55649465915919"><ele>215.0</ele><time>2026-04-29T13:16:32Z</time></trkpt><trkpt lat="43.90748276206757" lon="11.556543303045306"><ele>217.33333333333334</ele><time>2026-04-29T13:16:33Z</time></trkpt><trkpt lat="43.907647014482606" lon="11.556527905696928"><ele>219.66666666666669</ele><time>2026-04-29T13:16:34Z</time></trkpt><trkpt lat="43.9077911802022" lon="11.55649401006153"><ele>222.0</ele><time>2026-04-29T13:16:35Z</time></trkpt><trkpt lat="43.90793371487372" lon="11.556500108846313"><ele>222.0</ele><time>2026-04-29T13:16:36Z</time></trkpt><trkpt lat="43.90804754147468" lon="11.556560846610296"><ele>222.0</ele><time>2026-04-29T13:16:37Z</time></trkpt><trkpt lat="43.908130333292846" lon="11.556691904215187"><ele>222.0</ele><time>2026-04-29T13:16:38Z</time></trkpt><trkpt lat="43.90819589121288" lon="11.556901856465572"><ele>222.0</ele><time>2026-04-29T13:16:39Z</time></trkpt><trkpt lat="43.9082868794895" lon="11.557124465572748"><ele>223.66666666666669</ele><time>2026-04-29T13:16:40Z</time></trkpt><trkpt lat="43.90838367578331" lon="11.5573458048178"><ele>225.33333333333334</ele><time>2026-04-29T13:16:41Z</time></trkpt><trkpt lat="43.90851251294999" lon="11.55756759909889"><ele>227.0</ele><time>2026-04-29T13:16:42Z</time></trkpt><trkpt lat="43.90862613805293" lon="11.557766767245282"><ele>224.0</ele><time>2026-04-29T13:16:43Z</time></trkpt><trkpt lat="43.9087356714244" lon="11.557916155970812"><ele>221.0</ele><time>2026-04-29T13:16:44Z</time></trkpt><trkpt lat="43.908862946820314" lon="11.557995889657342"><ele>218.0</ele><time>2026-04-29T13:16:45Z</time></trkpt><trkpt lat="43.90902524527031" lon="11.557984088250423"><ele>218.0</ele><time>2026-04-29T13:16:46Z</time></trkpt><trkpt lat="43.909196258270896" lon="11.557903066054154"><ele>218.0</ele><time>2026-04-29T13:16:47Z</time></trkpt><trkpt lat="43.90937309064752" lon="11.557787945690329"><ele>218.0</ele><time>2026-04-29T13:16:48Z</time></trkpt><trkpt lat="43.909524772857175" lon="11.55776767760164"><ele>219.66666666666669</ele><time>2026-04-29T13:16:49Z</time></trkpt><trkpt lat="43.909689159982996" lon="11.557822346270525"><ele>221.33333333333331</ele><time>2026-04-29T13:16:50Z</time></trkpt><trkpt lat="43.90986379550124" lon="11.557916407731264"><ele>223.0</ele><time>2026-04-29T13:16:51Z</time></trkpt><trkpt lat="43.91002734107346" lon="11.558048375843763"><ele>234.0</ele><time>2026-04-29T13:16:52Z</time></trkpt><trkpt lat="43.91017070372425" lon="11.558210757060786"><ele>245.0</ele><time>2026-04-29T13:16:53Z</time></trkpt><trkpt lat="43.910290536671255" lon="11.558374040204107"><ele>256.0</ele><time>2026-04-29T13:16:54Z</time></trkpt><trkpt lat="43.910418962304654" lon="11.558549313916755"><ele>251.0</ele><time>2026-04-29T13:16:55Z</time></trkpt><trkpt lat="43.91053590707524" lon="11.558751960250886"><ele>246.0</ele><time>2026-04-29T13:16:56Z</time></trkpt><trkpt lat="43.910593654678294" lon="11.558903648757395"><ele>241.0</ele><time>2026-04-29T13:16:57Z</time></trkpt><trkpt lat="43.91062156493801" lon="11.558992169157538"><ele>236.0</ele><time>2026-04-29T13:16:59Z</time></trkpt><trkpt lat="43.91065793250089" lon="11.55908515112494"><ele>236.0</ele><time>2026-04-29T13:17:44Z</time></trkpt><trkpt lat="43.910710184864655" lon="11.559205485197342"><ele>236.00000000000003</ele><time>2026-04-29T13:17:45Z</time></trkpt><trkpt lat="43.910756023080744" lon="11.559317198556357"><ele>236.00000000000003</ele><time>2026-04-29T13:17:46Z</time></trkpt><trkpt lat="43.91080043252688" lon="11.559426054404511"><ele>236.0</ele><time>2026-04-29T13:17:47Z</time></trkpt><trkpt lat="43.91084383165822" lon="11.55953223481555"><ele>236.0</ele><time>2026-04-29T13:17:48Z</time></trkpt><trkpt lat="43.91088653579913" lon="11.559646106145951"><ele>243.20000000000002</ele><time>2026-04-29T13:17:49Z</time></trkpt><trkpt lat="43.910916911530045" lon="11.559764947591223"><ele>250.40000000000003</ele><time>2026-04-29T13:17:50Z</time></trkpt><trkpt lat="43.91094624965658" lon="11.559888826266164"><ele>257.6</ele><time>2026-04-29T13:17:51Z</time></trkpt><trkpt lat="43.91098587368248" lon="11.560021087222673"><ele>264.8</ele><time>2026-04-29T13:17:52Z</time></trkpt><trkpt lat="43.911028526155334" lon="11.560169038688201"><ele>272.0</ele><time>2026-04-29T13:17:53Z</time></trkpt><trkpt lat="43.91107800390412" lon="11.560336087887949"><ele>264.0</ele><time>2026-04-29T13:17:54Z</time></trkpt><trkpt lat="43.91114102074343" lon="11.560520808733251"><ele>256.0</ele><time>2026-04-29T13:17:55Z</time></trkpt><trkpt lat="43.91121902147165" lon="11.560731132755333"><ele>248.0</ele><time>2026-04-29T13:17:56Z</time></trkpt><trkpt lat="43.911313412629575" lon="11.560956985525097"><ele>248.0</ele><time>2026-04-29T13:17:57Z</time></trkpt><trkpt lat="43.911410345696105" lon="11.561173713901217"><ele>248.0</ele><time>2026-04-29T13:17:58Z</time></trkpt><trkpt lat="43.91151788907042" lon="11.561364669575534"><ele>248.0</ele><time>2026-04-29T13:17:59Z</time></trkpt><trkpt lat="43.91162564502757" lon="11.56151603985416"><ele>244.33333333333334</ele><time>2026-04-29T13:18:00Z</time></trkpt><trkpt lat="43.91176257112119" lon="11.561620995747685"><ele>240.66666666666669</ele><time>2026-04-29T13:18:01Z</time></trkpt><trkpt lat="43.91192620716301" lon="11.561687249999324"><ele>237.0</ele><time>2026-04-29T13:18:02Z</time></trkpt><trkpt lat="43.912158166992455" lon="11.561647719145691"><ele>237.0</ele><time>2026-04-29T13:18:03Z</time></trkpt><trkpt lat="43.91234613924084" lon="11.56158690682775"><ele>237.0</ele><time>2026-04-29T13:18:04Z</time></trkpt><trkpt lat="43.91251636178411" lon="11.56151015935252"><ele>237.0</ele><time>2026-04-29T13:18:05Z</time></trkpt><trkpt lat="43.912672610775275" lon="11.561473172993086"><ele>239.33333333333331</ele><time>2026-04-29T13:18:06Z</time></trkpt><trkpt lat="43.91284195353364" lon="11.561508439376684"><ele>241.66666666666666</ele><time>2026-04-29T13:18:07Z</time></trkpt><trkpt lat="43.913038640922444" lon="11.561598325308982"><ele>244.0</ele><time>2026-04-29T13:18:08Z</time></trkpt><trkpt lat="43.91323972013783" lon="11.561676831200757"><ele>247.0</ele><time>2026-04-29T13:18:09Z</time></trkpt><trkpt lat="43.91341313401351" lon="11.561735007319113"><ele>250.0</ele><time>2026-04-29T13:18:10Z</time></trkpt><trkpt lat="43.91357892736526" lon="11.561795854859287"><ele>253.0</ele><time>2026-04-29T13:18:11Z</time></trkpt><trkpt lat="43.91373101585542" lon="11.561842441998094"><ele>253.0</ele><time>2026-04-29T13:18:12Z</time></trkpt><trkpt lat="43.913872776288" lon="11.561895889226275"><ele>253.0</ele><time>2026-04-29T13:18:13Z</time></trkpt><trkpt lat="43.91400629884056" lon="11.561942464224314"><ele>253.0</ele><time>2026-04-29T13:18:14Z</time></trkpt><trkpt lat="43.91414801301312" lon="11.561982583033089"><ele>253.0</ele><time>2026-04-29T13:18:15Z</time></trkpt><trkpt lat="43.91429970151857" lon="11.562032565466845"><ele>250.0</ele><time>2026-04-29T13:18:16Z</time></trkpt><trkpt lat="43.91446226083433" lon="11.562130162403712"><ele>247.0</ele><time>2026-04-29T13:18:17Z</time></trkpt><trkpt lat="43.914635898501935" lon="11.562286055290826"><ele>244.0</ele><time>2026-04-29T13:18:18Z</time></trkpt><trkpt lat="43.914810915910756" lon="11.56246945819953"><ele>244.0</ele><time>2026-04-29T13:18:19Z</time></trkpt><trkpt lat="43.91499593846977" lon="11.562655265725363"><ele>244.0</ele><time>2026-04-29T13:18:20Z</time></trkpt><trkpt lat="43.91516326402769" lon="11.562821340661873"><ele>244.0</ele><time>2026-04-29T13:18:21Z</time></trkpt><trkpt lat="43.91532163826172" lon="11.562979063984395"><ele>244.0</ele><time>2026-04-29T13:18:22Z</time></trkpt><trkpt lat="43.915454537674634" lon="11.563164461618713"><ele>244.0</ele><time>2026-04-29T13:18:23Z</time></trkpt><trkpt lat="43.91557415858417" lon="11.563413757855665"><ele>244.0</ele><time>2026-04-29T13:18:24Z</time></trkpt><trkpt lat="43.91567479076105" lon="11.563710152366019"><ele>244.0</ele><time>2026-04-29T13:18:25Z</time></trkpt><trkpt lat="43.91579165014909" lon="11.564011133051709"><ele>244.0</ele><time>2026-04-29T13:18:26Z</time></trkpt><trkpt lat="43.915915786427725" lon="11.564301893247348"><ele>248.66666666666666</ele><time>2026-04-29T13:18:27Z</time></trkpt><trkpt lat="43.91602703136125" lon="11.56456777665725"><ele>253.33333333333331</ele><time>2026-04-29T13:18:28Z</time></trkpt><trkpt lat="43.9161212297142" lon="11.564827381004429"><ele>258.0</ele><time>2026-04-29T13:18:29Z</time></trkpt><trkpt lat="43.916204553897536" lon="11.565089067145552"><ele>258.0</ele><time>2026-04-29T13:18:30Z</time></trkpt><trkpt lat="43.9162955678223" lon="11.56534472879868"><ele>258.0</ele><time>2026-04-29T13:18:31Z</time></trkpt><trkpt lat="43.91640899683612" lon="11.565604294759247"><ele>258.0</ele><time>2026-04-29T13:18:32Z</time></trkpt><trkpt lat="43.916533680231396" lon="11.56585270624358"><ele>254.0</ele><time>2026-04-29T13:18:33Z</time></trkpt><trkpt lat="43.916655366964186" lon="11.56609511251926"><ele>250.0</ele><time>2026-04-29T13:18:34Z</time></trkpt><trkpt lat="43.916756243857584" lon="11.56636798510414"><ele>246.0</ele><time>2026-04-29T13:18:35Z</time></trkpt><trkpt lat="43.916836181614585" lon="11.56668678494924"><ele>245.0</ele><time>2026-04-29T13:18:36Z</time></trkpt><trkpt lat="43.916899268348885" lon="11.566973578119114"><ele>244.0</ele><time>2026-04-29T13:18:37Z</time></trkpt><trkpt lat="43.916960139981065" lon="11.56725342481102"><ele>243.0</ele><time>2026-04-29T13:18:38Z</time></trkpt><trkpt lat="43.91700717276188" lon="11.567522678991965"><ele>247.0</ele><time>2026-04-29T13:18:39Z</time></trkpt><trkpt lat="43.91705002846594" lon="11.567783272332269"><ele>251.0</ele><time>2026-04-29T13:18:40Z</time></trkpt><trkpt lat="43.917103546920885" lon="11.568029957507619"><ele>255.0</ele><time>2026-04-29T13:18:41Z</time></trkpt><trkpt lat="43.91717906488857" lon="11.56825471896318"><ele>256.0</ele><time>2026-04-29T13:18:42Z</time></trkpt><trkpt lat="43.91728379392298" lon="11.568473190432625"><ele>257.0</ele><time>2026-04-29T13:18:43Z</time></trkpt><trkpt lat="43.91742404433559" lon="11.56868022832212"><ele>258.0</ele><time>2026-04-29T13:18:44Z</time></trkpt><trkpt lat="43.91758632192387" lon="11.568880965784505"><ele>258.0</ele><time>2026-04-29T13:18:45Z</time></trkpt><trkpt lat="43.9177751045919" lon="11.56907734713996"><ele>258.0</ele><time>2026-04-29T13:18:46Z</time></trkpt><trkpt lat="43.91796597157406" lon="11.569275249634428"><ele>258.0</ele><time>2026-04-29T13:18:47Z</time></trkpt><trkpt lat="43.91815603510139" lon="11.569473810498584"><ele>258.0</ele><time>2026-04-29T13:18:48Z</time></trkpt><trkpt lat="43.9183377561642" lon="11.569672419091777"><ele>260.0</ele><time>2026-04-29T13:18:49Z</time></trkpt><trkpt lat="43.91850314191666" lon="11.569854486095327"><ele>262.0</ele><time>2026-04-29T13:18:50Z</time></trkpt><trkpt lat="43.918661346827136" lon="11.570025756446698"><ele>264.0</ele><time>2026-04-29T13:18:51Z</time></trkpt><trkpt lat="43.91881293729205" lon="11.57018720314058"><ele>264.0</ele><time>2026-04-29T13:18:52Z</time></trkpt><trkpt lat="43.918947389433384" lon="11.570339534399226"><ele>264.0</ele><time>2026-04-29T13:18:53Z</time></trkpt><trkpt lat="43.91907410235315" lon="11.570464941522586"><ele>264.0</ele><time>2026-04-29T13:18:54Z</time></trkpt><trkpt lat="43.91921291925832" lon="11.570531729427842"><ele>259.0</ele><time>2026-04-29T13:18:55Z</time></trkpt><trkpt lat="43.919391949615466" lon="11.570559368281968"><ele>254.0</ele><time>2026-04-29T13:18:56Z</time></trkpt><trkpt lat="43.919591625597164" lon="11.570561231689627"><ele>249.0</ele><time>2026-04-29T13:18:57Z</time></trkpt><trkpt lat="43.91979961355256" lon="11.570605435631578"><ele>249.0</ele><time>2026-04-29T13:18:58Z</time></trkpt><trkpt lat="43.92000015492102" lon="11.570659397539774"><ele>249.0</ele><time>2026-04-29T13:18:59Z</time></trkpt><trkpt lat="43.92018856849028" lon="11.570768786546314"><ele>249.0</ele><time>2026-04-29T13:19:00Z</time></trkpt><trkpt lat="43.920368744163426" lon="11.570872371588232"><ele>249.0</ele><time>2026-04-29T13:19:01Z</time></trkpt><trkpt lat="43.92052014597334" lon="11.571037163547004"><ele>249.0</ele><time>2026-04-29T13:19:02Z</time></trkpt><trkpt lat="43.9206827710859" lon="11.571220209687155"><ele>249.0</ele><time>2026-04-29T13:19:03Z</time></trkpt><trkpt lat="43.92085283373573" lon="11.571406546633641"><ele>251.33333333333331</ele><time>2026-04-29T13:19:04Z</time></trkpt><trkpt lat="43.920997898323876" lon="11.571631597976872"><ele>253.66666666666666</ele><time>2026-04-29T13:19:05Z</time></trkpt><trkpt lat="43.92111519491683" lon="11.57189141364098"><ele>256.0</ele><time>2026-04-29T13:19:06Z</time></trkpt><trkpt lat="43.92123341819771" lon="11.572126536499672"><ele>256.0</ele><time>2026-04-29T13:19:07Z</time></trkpt><trkpt lat="43.921323350780995" lon="11.572366782011304"><ele>256.0</ele><time>2026-04-29T13:19:08Z</time></trkpt><trkpt lat="43.9214031819567" lon="11.57261131701402"><ele>256.0</ele><time>2026-04-29T13:19:09Z</time></trkpt><trkpt lat="43.92147684164253" lon="11.572868160824427"><ele>253.66666666666666</ele><time>2026-04-29T13:19:10Z</time></trkpt><trkpt lat="43.92155022265727" lon="11.573134813076436"><ele>251.33333333333331</ele><time>2026-04-29T13:19:11Z</time></trkpt><trkpt lat="43.92166507297602" lon="11.573385985169633"><ele>249.0</ele><time>2026-04-29T13:19:12Z</time></trkpt><trkpt lat="43.9218145838069" lon="11.57361082984336"><ele>251.0</ele><time>2026-04-29T13:19:13Z</time></trkpt><trkpt lat="43.92197606321247" lon="11.573790252493572"><ele>253.0</ele><time>2026-04-29T13:19:14Z</time></trkpt><trkpt lat="43.922121613852106" lon="11.573958221298504"><ele>255.0</ele><time>2026-04-29T13:19:15Z</time></trkpt><trkpt lat="43.9222640269922" lon="11.574122591355664"><ele>255.0</ele><time>2026-04-29T13:19:16Z</time></trkpt><trkpt lat="43.9224286106802" lon="11.574264088626744"><ele>255.0</ele><time>2026-04-29T13:19:17Z</time></trkpt><trkpt lat="43.922594861551794" lon="11.574375850432412"><ele>255.0</ele><time>2026-04-29T13:19:18Z</time></trkpt><trkpt lat="43.92273952655977" lon="11.574486915274734"><ele>255.0</ele><time>2026-04-29T13:19:19Z</time></trkpt><trkpt lat="43.92286578078634" lon="11.574610806935176"><ele>255.0</ele><time>2026-04-29T13:19:20Z</time></trkpt><trkpt lat="43.922978941680014" lon="11.574747963744233"><ele>255.0</ele><time>2026-04-29T13:19:21Z</time></trkpt><trkpt lat="43.923080561121644" lon="11.57488636256786"><ele>255.0</ele><time>2026-04-29T13:19:22Z</time></trkpt><trkpt lat="43.923174774794276" lon="11.575019427744083"><ele>255.0</ele><time>2026-04-29T13:19:23Z</time></trkpt><trkpt lat="43.92326381915192" lon="11.575144641527247"><ele>255.0</ele><time>2026-04-29T13:19:24Z</time></trkpt><trkpt lat="43.92335808590923" lon="11.575270356825836"><ele>255.0</ele><time>2026-04-29T13:19:25Z</time></trkpt><trkpt lat="43.92345730516427" lon="11.575398194071981"><ele>255.0</ele><time>2026-04-29T13:19:26Z</time></trkpt><trkpt lat="43.92355182896269" lon="11.575519469737479"><ele>255.75</ele><time>2026-04-29T13:19:27Z</time></trkpt><trkpt lat="43.92363913527845" lon="11.575633964333733"><ele>256.5</ele><time>2026-04-29T13:19:28Z</time></trkpt><trkpt lat="43.923724103387855" lon="11.575748202925197"><ele>257.25</ele><time>2026-04-29T13:19:29Z</time></trkpt><trkpt lat="43.92380611093834" lon="11.575863544795432"><ele>258.0</ele><time>2026-04-29T13:19:30Z</time></trkpt><trkpt lat="43.92388581624662" lon="11.575982623972452"><ele>258.0</ele><time>2026-04-29T13:19:31Z</time></trkpt><trkpt lat="43.92395240881394" lon="11.57608930146599"><ele>258.0</ele><time>2026-04-29T13:19:32Z</time></trkpt><trkpt lat="43.92402028598493" lon="11.576202447307546"><ele>258.0</ele><time>2026-04-29T13:19:33Z</time></trkpt><trkpt lat="43.92409183984819" lon="11.576314171362064"><ele>258.0</ele><time>2026-04-29T13:19:34Z</time></trkpt><trkpt lat="43.924166089937096" lon="11.576430755216318"><ele>258.0</ele><time>2026-04-29T13:19:35Z</time></trkpt><trkpt lat="43.9242367571906" lon="11.576551340472122"><ele>260.0</ele><time>2026-04-29T13:19:36Z</time></trkpt><trkpt lat="43.924308997753606" lon="11.576679912996104"><ele>262.0</ele><time>2026-04-29T13:19:37Z</time></trkpt><trkpt lat="43.924389163906746" lon="11.576814868570784"><ele>264.0</ele><time>2026-04-29T13:19:38Z</time></trkpt><trkpt lat="43.924487496217225" lon="11.576964971842894"><ele>266.0</ele><time>2026-04-29T13:19:39Z</time></trkpt><trkpt lat="43.924592954043185" lon="11.577134496443705"><ele>266.0</ele><time>2026-04-29T13:19:40Z</time></trkpt><trkpt lat="43.92470564140104" lon="11.57731963922866"><ele>266.0</ele><time>2026-04-29T13:19:41Z</time></trkpt><trkpt lat="43.92481658992398" lon="11.577503383137504"><ele>266.0</ele><time>2026-04-29T13:19:42Z</time></trkpt><trkpt lat="43.92490976305301" lon="11.577704743569342"><ele>266.33333333333337</ele><time>2026-04-29T13:19:43Z</time></trkpt><trkpt lat="43.92493916356347" lon="11.577957309193618"><ele>266.6666666666667</ele><time>2026-04-29T13:19:44Z</time></trkpt><trkpt lat="43.92499115668804" lon="11.5782295644494"><ele>267.0</ele><time>2026-04-29T13:19:45Z</time></trkpt><trkpt lat="43.925020450836435" lon="11.578537617564614"><ele>267.0</ele><time>2026-04-29T13:19:46Z</time></trkpt><trkpt lat="43.925053351186605" lon="11.578855011009884"><ele>267.0</ele><time>2026-04-29T13:19:47Z</time></trkpt><trkpt lat="43.92509473264147" lon="11.57916219138643"><ele>269.6666666666667</ele><time>2026-04-29T13:19:48Z</time></trkpt><trkpt lat="43.92513204089959" lon="11.57945119521776"><ele>272.33333333333337</ele><time>2026-04-29T13:19:49Z</time></trkpt><trkpt lat="43.92516208881875" lon="11.57970027882237"><ele>275.0</ele><time>2026-04-29T13:19:50Z</time></trkpt><trkpt lat="43.925201152859074" lon="11.579921934132617"><ele>275.0</ele><time>2026-04-29T13:19:51Z</time></trkpt><trkpt lat="43.92527173090681" lon="11.580123624656288"><ele>275.0</ele><time>2026-04-29T13:19:52Z</time></trkpt><trkpt lat="43.92540068022696" lon="11.580285763282838"><ele>275.0</ele><time>2026-04-29T13:19:53Z</time></trkpt><trkpt lat="43.925564933454524" lon="11.580415864592851"><ele>276.0</ele><time>2026-04-29T13:19:54Z</time></trkpt><trkpt lat="43.925731955120845" lon="11.580568619135544"><ele>277.0</ele><time>2026-04-29T13:19:55Z</time></trkpt><trkpt lat="43.92585272723847" lon="11.580740651088831"><ele>278.0</ele><time>2026-04-29T13:19:56Z</time></trkpt><trkpt lat="43.92596280151197" lon="11.580977088652212"><ele>273.5</ele><time>2026-04-29T13:19:57Z</time></trkpt><trkpt lat="43.92609936961589" lon="11.581230131280359"><ele>269.0</ele><time>2026-04-29T13:19:58Z</time></trkpt><trkpt lat="43.926232651398806" lon="11.581496140979105"><ele>269.0</ele><time>2026-04-29T13:19:59Z</time></trkpt><trkpt lat="43.92640401440381" lon="11.581744497236864"><ele>269.0</ele><time>2026-04-29T13:20:00Z</time></trkpt><trkpt lat="43.92657665108591" lon="11.581984421439945"><ele>269.6666666666667</ele><time>2026-04-29T13:20:01Z</time></trkpt><trkpt lat="43.926716843835436" lon="11.582218500562114"><ele>270.3333333333333</ele><time>2026-04-29T13:20:02Z</time></trkpt><trkpt lat="43.92684135839046" lon="11.582430047438207"><ele>271.0</ele><time>2026-04-29T13:20:03Z</time></trkpt><trkpt lat="43.9269747951111" lon="11.582594790329113"><ele>275.0</ele><time>2026-04-29T13:20:04Z</time></trkpt><trkpt lat="43.9271097120535" lon="11.582732757937539"><ele>279.0</ele><time>2026-04-29T13:20:05Z</time></trkpt><trkpt lat="43.92720587654708" lon="11.582859647833171"><ele>283.0</ele><time>2026-04-29T13:20:06Z</time></trkpt><trkpt lat="43.92727355748769" lon="11.582987353286502"><ele>287.0</ele><time>2026-04-29T13:20:07Z</time></trkpt><trkpt lat="43.92730925261329" lon="11.583126371781361"><ele>287.0</ele><time>2026-04-29T13:20:08Z</time></trkpt><trkpt lat="43.92726132703625" lon="11.583319124303822"><ele>287.0</ele><time>2026-04-29T13:20:09Z</time></trkpt><trkpt lat="43.92717467900666" lon="11.583508183576129"><ele>287.0</ele><time>2026-04-29T13:20:10Z</time></trkpt><trkpt lat="43.92707886728507" lon="11.583746534138326"><ele>292.5</ele><time>2026-04-29T13:20:11Z</time></trkpt><trkpt lat="43.926938703791265" lon="11.583968503766306"><ele>298.0</ele><time>2026-04-29T13:20:12Z</time></trkpt><trkpt lat="43.92675106537822" lon="11.584184056063016"><ele>297.0</ele><time>2026-04-29T13:20:13Z</time></trkpt><trkpt lat="43.92658222937884" lon="11.584404459351148"><ele>296.0</ele><time>2026-04-29T13:20:14Z</time></trkpt><trkpt lat="43.926414036347275" lon="11.584611304508405"><ele>296.0</ele><time>2026-04-29T13:20:15Z</time></trkpt><trkpt lat="43.926251865314605" lon="11.584792920120965"><ele>296.0</ele><time>2026-04-29T13:20:16Z</time></trkpt><trkpt lat="43.926113177517124" lon="11.584962105156386"><ele>296.0</ele><time>2026-04-29T13:20:17Z</time></trkpt><trkpt lat="43.926001733066535" lon="11.585157903637269"><ele>300.33333333333337</ele><time>2026-04-29T13:20:18Z</time></trkpt><trkpt lat="43.92591582101345" lon="11.585409171128642"><ele>304.6666666666667</ele><time>2026-04-29T13:20:19Z</time></trkpt><trkpt lat="43.92585736701523" lon="11.585665540779841"><ele>309.0</ele><time>2026-04-29T13:20:20Z</time></trkpt><trkpt lat="43.925832001165816" lon="11.585935743174835"><ele>304.6666666666667</ele><time>2026-04-29T13:20:21Z</time></trkpt><trkpt lat="43.9258444500591" lon="11.586229995323755"><ele>300.33333333333337</ele><time>2026-04-29T13:20:22Z</time></trkpt><trkpt lat="43.92588019441042" lon="11.586553450986562"><ele>296.0</ele><time>2026-04-29T13:20:23Z</time></trkpt><trkpt lat="43.92591579132833" lon="11.586884680098784"><ele>296.33333333333337</ele><time>2026-04-29T13:20:24Z</time></trkpt><trkpt lat="43.925948866091105" lon="11.587189632511818"><ele>296.6666666666667</ele><time>2026-04-29T13:20:25Z</time></trkpt><trkpt lat="43.92598634569711" lon="11.587474658175779"><ele>297.0</ele><time>2026-04-29T13:20:26Z</time></trkpt><trkpt lat="43.92604704223962" lon="11.587738577533486"><ele>297.3333333333333</ele><time>2026-04-29T13:20:27Z</time></trkpt><trkpt lat="43.92612175262028" lon="11.587974500185824"><ele>297.66666666666663</ele><time>2026-04-29T13:20:28Z</time></trkpt><trkpt lat="43.92620630215399" lon="11.588175333466872"><ele>298.0</ele><time>2026-04-29T13:20:29Z</time></trkpt><trkpt lat="43.92630641029873" lon="11.588330462404858"><ele>298.0</ele><time>2026-04-29T13:20:30Z</time></trkpt><trkpt lat="43.92641310079224" lon="11.588452110719855"><ele>298.0</ele><time>2026-04-29T13:20:31Z</time></trkpt><trkpt lat="43.926501540879414" lon="11.588570175732073"><ele>298.0</ele><time>2026-04-29T13:20:32Z</time></trkpt><trkpt lat="43.92657925313664" lon="11.58865678039704"><ele>298.0</ele><time>2026-04-29T13:20:33Z</time></trkpt><trkpt lat="43.92665304245366" lon="11.588721550573291"><ele>298.0</ele><time>2026-04-29T13:20:34Z</time></trkpt><trkpt lat="43.92670237516751" lon="11.588795539160369"><ele>303.3333333333333</ele><time>2026-04-29T13:20:35Z</time></trkpt><trkpt lat="43.926747099336794" lon="11.588867247830716"><ele>308.66666666666663</ele><time>2026-04-29T13:20:36Z</time></trkpt><trkpt lat="43.92679529591326" lon="11.588956484564402"><ele>314.0</ele><time>2026-04-29T13:20:37Z</time></trkpt><trkpt lat="43.92683315431353" lon="11.589062256967134"><ele>319.3333333333333</ele><time>2026-04-29T13:20:38Z</time></trkpt><trkpt lat="43.92685751525885" lon="11.589165373709065"><ele>324.6666666666667</ele><time>2026-04-29T13:20:39Z</time></trkpt><trkpt lat="43.926872086344396" lon="11.589257633045879"><ele>330.0</ele><time>2026-04-29T13:20:40Z</time></trkpt><trkpt lat="43.92688945170753" lon="11.589361236451552"><ele>330.0</ele><time>2026-04-29T13:20:41Z</time></trkpt><trkpt lat="43.92689590576863" lon="11.589494377562023"><ele>330.0</ele><time>2026-04-29T13:20:42Z</time></trkpt><trkpt lat="43.92689658115143" lon="11.589657446179423"><ele>330.0</ele><time>2026-04-29T13:20:43Z</time></trkpt><trkpt lat="43.92688807545682" lon="11.58984509038093"><ele>330.0</ele><time>2026-04-29T13:20:44Z</time></trkpt><trkpt lat="43.926863839313675" lon="11.590028780469702"><ele>331.0</ele><time>2026-04-29T13:20:45Z</time></trkpt><trkpt lat="43.92683466851072" lon="11.590228600684334"><ele>332.0</ele><time>2026-04-29T13:20:46Z</time></trkpt><trkpt lat="43.92674495935006" lon="11.590427895566144"><ele>333.0</ele><time>2026-04-29T13:20:47Z</time></trkpt><trkpt lat="43.92662439653551" lon="11.590620199656778"><ele>321.3333333333333</ele><time>2026-04-29T13:20:48Z</time></trkpt><trkpt lat="43.926510960266796" lon="11.59076487170846"><ele>309.66666666666663</ele><time>2026-04-29T13:20:49Z</time></trkpt><trkpt lat="43.92643298701692" lon="11.590953471137846"><ele>298.0</ele><time>2026-04-29T13:20:50Z</time></trkpt><trkpt lat="43.92638957578727" lon="11.591142504040699"><ele>299.0</ele><time>2026-04-29T13:20:51Z</time></trkpt><trkpt lat="43.92639095590301" lon="11.591357957156365"><ele>300.0</ele><time>2026-04-29T13:20:52Z</time></trkpt><trkpt lat="43.92641638529431" lon="11.591595707980039"><ele>301.0</ele><time>2026-04-29T13:20:53Z</time></trkpt><trkpt lat="43.92644500764308" lon="11.591810615254344"><ele>302.3333333333333</ele><time>2026-04-29T13:20:54Z</time></trkpt><trkpt lat="43.926433661602196" lon="11.592027790488485"><ele>303.6666666666667</ele><time>2026-04-29T13:20:55Z</time></trkpt><trkpt lat="43.92638082221949" lon="11.59229034168659"><ele>305.0</ele><time>2026-04-29T13:20:56Z</time></trkpt><trkpt lat="43.926324084296944" lon="11.592574264072095"><ele>311.5</ele><time>2026-04-29T13:20:57Z</time></trkpt><trkpt lat="43.92627438399922" lon="11.592872352005863"><ele>318.0</ele><time>2026-04-29T13:20:58Z</time></trkpt><trkpt lat="43.92623611182095" lon="11.593191314432472"><ele>318.0</ele><time>2026-04-29T13:20:59Z</time></trkpt><trkpt lat="43.92620361455645" lon="11.593504707778898"><ele>318.0</ele><time>2026-04-29T13:21:00Z</time></trkpt><trkpt lat="43.92617442369945" lon="11.593790902565082"><ele>318.0</ele><time>2026-04-29T13:21:01Z</time></trkpt><trkpt lat="43.92614715802785" lon="11.59405781915536"><ele>320.0</ele><time>2026-04-29T13:21:02Z</time></trkpt><trkpt lat="43.9261213510775" lon="11.594310455424312"><ele>322.0</ele><time>2026-04-29T13:21:03Z</time></trkpt><trkpt lat="43.92609639069783" lon="11.594544073688207"><ele>324.0</ele><time>2026-04-29T13:21:04Z</time></trkpt><trkpt lat="43.926096470018614" lon="11.59475019657265"><ele>324.25</ele><time>2026-04-29T13:21:05Z</time></trkpt><trkpt lat="43.92612061033364" lon="11.594929642825578"><ele>324.5</ele><time>2026-04-29T13:21:06Z</time></trkpt><trkpt lat="43.926194353240064" lon="11.595077862721222"><ele>324.75</ele><time>2026-04-29T13:21:07Z</time></trkpt><trkpt lat="43.926290420320974" lon="11.595215524048445"><ele>325.0</ele><time>2026-04-29T13:21:08Z</time></trkpt><trkpt lat="43.926361238738174" lon="11.595362766151048"><ele>320.3333333333333</ele><time>2026-04-29T13:21:09Z</time></trkpt><trkpt lat="43.92641830738983" lon="11.59553905334451"><ele>315.6666666666667</ele><time>2026-04-29T13:21:10Z</time></trkpt><trkpt lat="43.92639217890738" lon="11.595729208710905"><ele>311.0</ele><time>2026-04-29T13:21:11Z</time></trkpt><trkpt lat="43.926373115831446" lon="11.595974907886106"><ele>311.33333333333337</ele><time>2026-04-29T13:21:12Z</time></trkpt><trkpt lat="43.92631468680809" lon="11.596251213711872"><ele>311.6666666666667</ele><time>2026-04-29T13:21:13Z</time></trkpt><trkpt lat="43.926228583991055" lon="11.596520449258866"><ele>312.0</ele><time>2026-04-29T13:21:14Z</time></trkpt><trkpt lat="43.92611027210427" lon="11.59676824149969"><ele>312.0</ele><time>2026-04-29T13:21:15Z</time></trkpt><trkpt lat="43.925993325365845" lon="11.5969996777008"><ele>312.0</ele><time>2026-04-29T13:21:16Z</time></trkpt><trkpt lat="43.92585747150288" lon="11.597144352841525"><ele>312.0</ele><time>2026-04-29T13:21:17Z</time></trkpt><trkpt lat="43.925705171710725" lon="11.59727194577427"><ele>309.0</ele><time>2026-04-29T13:21:18Z</time></trkpt><trkpt lat="43.92552746265989" lon="11.597418612706186"><ele>306.0</ele><time>2026-04-29T13:21:19Z</time></trkpt><trkpt lat="43.92536769003263" lon="11.59755649290751"><ele>303.0</ele><time>2026-04-29T13:21:20Z</time></trkpt><trkpt lat="43.92523892970084" lon="11.597700142532375"><ele>309.0</ele><time>2026-04-29T13:21:21Z</time></trkpt><trkpt lat="43.925172696590906" lon="11.597880818758254"><ele>315.0</ele><time>2026-04-29T13:21:22Z</time></trkpt><trkpt lat="43.92511690124082" lon="11.598092279009972"><ele>321.0</ele><time>2026-04-29T13:21:23Z</time></trkpt><trkpt lat="43.92508306643311" lon="11.598319111206044"><ele>321.0</ele><time>2026-04-29T13:21:24Z</time></trkpt><trkpt lat="43.925105165253505" lon="11.598539904479756"><ele>321.0</ele><time>2026-04-29T13:21:25Z</time></trkpt><trkpt lat="43.925188057795076" lon="11.598735824145045"><ele>321.0</ele><time>2026-04-29T13:21:26Z</time></trkpt><trkpt lat="43.92527981796981" lon="11.598947121716906"><ele>323.5</ele><time>2026-04-29T13:21:27Z</time></trkpt><trkpt lat="43.92539332422" lon="11.599179693792266"><ele>326.0</ele><time>2026-04-29T13:21:28Z</time></trkpt><trkpt lat="43.92558285685613" lon="11.599428892020137"><ele>317.5</ele><time>2026-04-29T13:21:29Z</time></trkpt><trkpt lat="43.925743540105564" lon="11.59969141896685"><ele>309.0</ele><time>2026-04-29T13:21:30Z</time></trkpt><trkpt lat="43.92588857535879" lon="11.599905746915173"><ele>317.6666666666667</ele><time>2026-04-29T13:21:31Z</time></trkpt><trkpt lat="43.9260110937392" lon="11.600087943061448"><ele>326.33333333333337</ele><time>2026-04-29T13:21:32Z</time></trkpt><trkpt lat="43.92612392957152" lon="11.600260422433378"><ele>335.0</ele><time>2026-04-29T13:21:33Z</time></trkpt><trkpt lat="43.92621726009384" lon="11.60042507760943"><ele>335.0</ele><time>2026-04-29T13:21:34Z</time></trkpt><trkpt lat="43.926266999718834" lon="11.600610567159567"><ele>335.0</ele><time>2026-04-29T13:21:35Z</time></trkpt><trkpt lat="43.92628042395583" lon="11.600836029406874"><ele>335.0</ele><time>2026-04-29T13:21:36Z</time></trkpt><trkpt lat="43.926305666349954" lon="11.601113978633917"><ele>332.0</ele><time>2026-04-29T13:21:37Z</time></trkpt><trkpt lat="43.92634491552571" lon="11.60141329616366"><ele>329.0</ele><time>2026-04-29T13:21:38Z</time></trkpt><trkpt lat="43.92633283898963" lon="11.601717094656324"><ele>326.0</ele><time>2026-04-29T13:21:39Z</time></trkpt><trkpt lat="43.92632938548773" lon="11.602026006497383"><ele>326.0</ele><time>2026-04-29T13:21:40Z</time></trkpt><trkpt lat="43.926334986177" lon="11.602340395985175"><ele>326.0</ele><time>2026-04-29T13:21:41Z</time></trkpt><trkpt lat="43.92632891047038" lon="11.602661371791203"><ele>323.0</ele><time>2026-04-29T13:21:42Z</time></trkpt><trkpt lat="43.9263301668009" lon="11.602992471600617"><ele>320.0</ele><time>2026-04-29T13:21:43Z</time></trkpt><trkpt lat="43.926313899401656" lon="11.603316238327519"><ele>320.0</ele><time>2026-04-29T13:21:44Z</time></trkpt><trkpt lat="43.926313823704454" lon="11.60364583953749"><ele>320.0</ele><time>2026-04-29T13:21:45Z</time></trkpt><trkpt lat="43.92633159138705" lon="11.603974935529857"><ele>320.0</ele><time>2026-04-29T13:21:46Z</time></trkpt><trkpt lat="43.926334751209794" lon="11.604305896219916"><ele>320.0</ele><time>2026-04-29T13:21:47Z</time></trkpt><trkpt lat="43.926346799592174" lon="11.604643746642822"><ele>320.5</ele><time>2026-04-29T13:21:48Z</time></trkpt><trkpt lat="43.92635986719473" lon="11.604988637270552"><ele>321.0</ele><time>2026-04-29T13:21:49Z</time></trkpt><trkpt lat="43.92637302095772" lon="11.605323996516177"><ele>320.6666666666667</ele><time>2026-04-29T13:21:50Z</time></trkpt><trkpt lat="43.92639764745854" lon="11.605633266661428"><ele>320.33333333333337</ele><time>2026-04-29T13:21:51Z</time></trkpt><trkpt lat="43.92642411690433" lon="11.605932035293133"><ele>320.0</ele><time>2026-04-29T13:21:52Z</time></trkpt><trkpt lat="43.92646642805331" lon="11.606235792582227"><ele>319.5</ele><time>2026-04-29T13:21:53Z</time></trkpt><trkpt lat="43.92654070451986" lon="11.606551131984263"><ele>319.0</ele><time>2026-04-29T13:21:54Z</time></trkpt><trkpt lat="43.926629436123505" lon="11.606851565495083"><ele>317.66666666666663</ele><time>2026-04-29T13:21:55Z</time></trkpt><trkpt lat="43.92671123388479" lon="11.607123990375964"><ele>316.3333333333333</ele><time>2026-04-29T13:21:56Z</time></trkpt><trkpt lat="43.92678010811445" lon="11.607382446541472"><ele>315.0</ele><time>2026-04-29T13:21:57Z</time></trkpt><trkpt lat="43.926847634407075" lon="11.60762640430397"><ele>317.0</ele><time>2026-04-29T13:21:58Z</time></trkpt><trkpt lat="43.926922521866615" lon="11.607854473770525"><ele>319.0</ele><time>2026-04-29T13:21:59Z</time></trkpt><trkpt lat="43.92701503554853" lon="11.608064381649772"><ele>321.0</ele><time>2026-04-29T13:22:00Z</time></trkpt><trkpt lat="43.92713653440794" lon="11.608254388854647"><ele>321.0</ele><time>2026-04-29T13:22:01Z</time></trkpt><trkpt lat="43.92725819236349" lon="11.608424481431467"><ele>321.0</ele><time>2026-04-29T13:22:02Z</time></trkpt><trkpt lat="43.92735001576219" lon="11.608587942517794"><ele>321.0</ele><time>2026-04-29T13:22:03Z</time></trkpt><trkpt lat="43.927445542424756" lon="11.608734228297754"><ele>320.25</ele><time>2026-04-29T13:22:04Z</time></trkpt><trkpt lat="43.92751523695445" lon="11.608883171524592"><ele>319.5</ele><time>2026-04-29T13:22:05Z</time></trkpt><trkpt lat="43.92754776745331" lon="11.609061021588268"><ele>318.75</ele><time>2026-04-29T13:22:06Z</time></trkpt><trkpt lat="43.92758917592838" lon="11.609252484727108"><ele>318.0</ele><time>2026-04-29T13:22:07Z</time></trkpt><trkpt lat="43.92762742161437" lon="11.60942717620579"><ele>325.25</ele><time>2026-04-29T13:22:08Z</time></trkpt><trkpt lat="43.92766477978848" lon="11.609588425714275"><ele>332.5</ele><time>2026-04-29T13:22:09Z</time></trkpt><trkpt lat="43.92770004314303" lon="11.60974421668777"><ele>339.75</ele><time>2026-04-29T13:22:10Z</time></trkpt><trkpt lat="43.927736141319954" lon="11.609903695830525"><ele>347.0</ele><time>2026-04-29T13:22:11Z</time></trkpt><trkpt lat="43.927770212677274" lon="11.61006697089944"><ele>347.0</ele><time>2026-04-29T13:22:12Z</time></trkpt><trkpt lat="43.92778233956883" lon="11.610238055114946"><ele>347.0</ele><time>2026-04-29T13:22:13Z</time></trkpt><trkpt lat="43.92775865313294" lon="11.610389290937745"><ele>347.0</ele><time>2026-04-29T13:22:14Z</time></trkpt><trkpt lat="43.927714913149615" lon="11.61053825823377"><ele>347.0</ele><time>2026-04-29T13:22:15Z</time></trkpt><trkpt lat="43.927637443975215" lon="11.610649416269597"><ele>344.0</ele><time>2026-04-29T13:22:16Z</time></trkpt><trkpt lat="43.92753958788802" lon="11.61074300002183"><ele>341.0</ele><time>2026-04-29T13:22:17Z</time></trkpt><trkpt lat="43.92742233769457" lon="11.610811176778205"><ele>338.0</ele><time>2026-04-29T13:22:18Z</time></trkpt><trkpt lat="43.927289229322966" lon="11.61086205417491"><ele>335.0</ele><time>2026-04-29T13:22:19Z</time></trkpt><trkpt lat="43.92716375270406" lon="11.61091010498989"><ele>335.0</ele><time>2026-04-29T13:22:20Z</time></trkpt><trkpt lat="43.92704903041405" lon="11.610954037473661"><ele>335.0</ele><time>2026-04-29T13:22:21Z</time></trkpt><trkpt lat="43.92693620823558" lon="11.61100128383374"><ele>335.0</ele><time>2026-04-29T13:22:22Z</time></trkpt><trkpt lat="43.926808174771" lon="11.611033818301689"><ele>335.0</ele><time>2026-04-29T13:22:23Z</time></trkpt><trkpt lat="43.92668536978666" lon="11.611019563853969"><ele>334.0</ele><time>2026-04-29T13:22:24Z</time></trkpt><trkpt lat="43.92658162816836" lon="11.611026985198075"><ele>333.0</ele><time>2026-04-29T13:22:25Z</time></trkpt><trkpt lat="43.92648847778585" lon="11.611012133419276"><ele>332.0</ele><time>2026-04-29T13:22:26Z</time></trkpt><trkpt lat="43.9264026179446" lon="11.610996455272058"><ele>331.0</ele><time>2026-04-29T13:22:27Z</time></trkpt><trkpt lat="43.926299760930014" lon="11.611025376746507"><ele>330.0</ele><time>2026-04-29T13:22:28Z</time></trkpt><trkpt lat="43.926198219629846" lon="11.611125821530552"><ele>332.3333333333333</ele><time>2026-04-29T13:22:29Z</time></trkpt><trkpt lat="43.92611233664393" lon="11.611242733358324"><ele>334.6666666666667</ele><time>2026-04-29T13:22:30Z</time></trkpt><trkpt lat="43.92604675380501" lon="11.611345489950335"><ele>337.0</ele><time>2026-04-29T13:22:31Z</time></trkpt><trkpt lat="43.92600126632191" lon="11.611433581726224"><ele>339.33333333333337</ele><time>2026-04-29T13:22:32Z</time></trkpt><trkpt lat="43.92596213737766" lon="11.611517991253635"><ele>341.6666666666667</ele><time>2026-04-29T13:22:33Z</time></trkpt><trkpt lat="43.92595920576856" lon="11.611620268131771"><ele>344.0</ele><time>2026-04-29T13:22:34Z</time></trkpt><trkpt lat="43.925978651656024" lon="11.611736032951898"><ele>344.0</ele><time>2026-04-29T13:22:35Z</time></trkpt><trkpt lat="43.92602080734335" lon="11.611829819729763"><ele>344.0</ele><time>2026-04-29T13:22:36Z</time></trkpt><trkpt lat="43.926087976255744" lon="11.611900576557506"><ele>344.0</ele><time>2026-04-29T13:22:37Z</time></trkpt><trkpt lat="43.92616689348718" lon="11.611946448935608"><ele>344.0</ele><time>2026-04-29T13:22:38Z</time></trkpt><trkpt lat="43.926258353078694" lon="11.611930577695128"><ele>344.0</ele><time>2026-04-29T13:22:39Z</time></trkpt><trkpt lat="43.92634913681162" lon="11.611900917258303"><ele>344.0</ele><time>2026-04-29T13:22:40Z</time></trkpt><trkpt lat="43.9264318126421" lon="11.611889080395155"><ele>344.0</ele><time>2026-04-29T13:22:41Z</time></trkpt><trkpt lat="43.92650892082746" lon="11.611911004449643"><ele>344.0</ele><time>2026-04-29T13:22:42Z</time></trkpt><trkpt lat="43.92659209889845" lon="11.611962489546135"><ele>344.0</ele><time>2026-04-29T13:22:43Z</time></trkpt><trkpt lat="43.92666945544718" lon="11.612055360628107"><ele>344.0</ele><time>2026-04-29T13:22:44Z</time></trkpt><trkpt lat="43.926736960900406" lon="11.612087039265194"><ele>344.0</ele><time>2026-04-29T13:22:45Z</time></trkpt><trkpt lat="43.92676078799172" lon="11.61233185379299"><ele>345.0</ele><time>2026-04-29T13:22:46Z</time></trkpt><trkpt lat="43.92675610270718" lon="11.612484823747351"><ele>346.0</ele><time>2026-04-29T13:22:47Z</time></trkpt><trkpt lat="43.92673358834311" lon="11.612653572386892"><ele>347.0</ele><time>2026-04-29T13:22:48Z</time></trkpt><trkpt lat="43.92668581990062" lon="11.612864868483708"><ele>348.0</ele><time>2026-04-29T13:22:49Z</time></trkpt><trkpt lat="43.926643222503536" lon="11.61306044173808"><ele>348.0</ele><time>2026-04-29T13:22:50Z</time></trkpt><trkpt lat="43.926611010537485" lon="11.613200805879027"><ele>348.0</ele><time>2026-04-29T13:22:51Z</time></trkpt><trkpt lat="43.92658750877348" lon="11.613302026470524"><ele>348.0</ele><time>2026-04-29T13:22:52Z</time></trkpt><trkpt lat="43.92653922522875" lon="11.613358599016276"><ele>348.0</ele><time>2026-04-29T13:22:53Z</time></trkpt><trkpt lat="43.926468109542235" lon="11.613372811770388"><ele>348.0</ele><time>2026-04-29T13:22:54Z</time></trkpt><trkpt lat="43.926383263703684" lon="11.613340830919759"><ele>348.0</ele><time>2026-04-29T13:22:55Z</time></trkpt><trkpt lat="43.92628860864813" lon="11.6132611230222"><ele>348.0</ele><time>2026-04-29T13:22:56Z</time></trkpt><trkpt lat="43.92618857976788" lon="11.613121780249285"><ele>348.0</ele><time>2026-04-29T13:22:57Z</time></trkpt><trkpt lat="43.926083827584776" lon="11.612973242859768"><ele>348.0</ele><time>2026-04-29T13:22:58Z</time></trkpt><trkpt lat="43.92596275809221" lon="11.612869492968212"><ele>348.0</ele><time>2026-04-29T13:22:59Z</time></trkpt><trkpt lat="43.92586299264392" lon="11.612870328214198"><ele>348.25</ele><time>2026-04-29T13:23:00Z</time></trkpt><trkpt lat="43.92576847843678" lon="11.61291105423575"><ele>348.5</ele><time>2026-04-29T13:23:01Z</time></trkpt><trkpt lat="43.92567925629344" lon="11.613029524240758"><ele>348.75</ele><time>2026-04-29T13:23:02Z</time></trkpt><trkpt lat="43.92562034892936" lon="11.613207163433897"><ele>349.0</ele><time>2026-04-29T13:23:03Z</time></trkpt><trkpt lat="43.92561043671398" lon="11.613414233241146"><ele>349.0</ele><time>2026-04-29T13:23:04Z</time></trkpt><trkpt lat="43.92564135527346" lon="11.613642347415553"><ele>349.0</ele><time>2026-04-29T13:23:05Z</time></trkpt><trkpt lat="43.925673777357076" lon="11.613901928154396"><ele>349.0</ele><time>2026-04-29T13:23:06Z</time></trkpt><trkpt lat="43.92566387507508" lon="11.614135864003238"><ele>352.3333333333333</ele><time>2026-04-29T13:23:07Z</time></trkpt><trkpt lat="43.92565360973113" lon="11.6143284582132"><ele>355.6666666666667</ele><time>2026-04-29T13:23:08Z</time></trkpt><trkpt lat="43.925681929154585" lon="11.614535604459505"><ele>359.0</ele><time>2026-04-29T13:23:09Z</time></trkpt><trkpt lat="43.92572517325045" lon="11.614772178013345"><ele>360.0</ele><time>2026-04-29T13:23:10Z</time></trkpt><trkpt lat="43.92576959314903" lon="11.615026730057986"><ele>361.0</ele><time>2026-04-29T13:23:11Z</time></trkpt><trkpt lat="43.925802128228" lon="11.615253896546225"><ele>362.0</ele><time>2026-04-29T13:23:12Z</time></trkpt><trkpt lat="43.92582686980364" lon="11.615470892040927"><ele>363.6666666666667</ele><time>2026-04-29T13:23:13Z</time></trkpt><trkpt lat="43.92579005090455" lon="11.615723733520293"><ele>365.3333333333333</ele><time>2026-04-29T13:23:14Z</time></trkpt><trkpt lat="43.925782993077696" lon="11.615988488829618"><ele>367.0</ele><time>2026-04-29T13:23:15Z</time></trkpt><trkpt lat="43.92577760365305" lon="11.61620335968209"><ele>368.40000000000003</ele><time>2026-04-29T13:23:16Z</time></trkpt><trkpt lat="43.925771078394106" lon="11.61637378770341"><ele>369.8</ele><time>2026-04-29T13:23:17Z</time></trkpt><trkpt lat="43.925760344967784" lon="11.61651600665594"><ele>371.2</ele><time>2026-04-29T13:23:18Z</time></trkpt><trkpt lat="43.92574230430615" lon="11.6166456697986"><ele>372.6</ele><time>2026-04-29T13:23:19Z</time></trkpt><trkpt lat="43.92571074248657" lon="11.61679906314418"><ele>374.0</ele><time>2026-04-29T13:23:20Z</time></trkpt><trkpt lat="43.92566381710384" lon="11.616975044743656"><ele>379.0</ele><time>2026-04-29T13:23:21Z</time></trkpt><trkpt lat="43.92559621585567" lon="11.61717397843702"><ele>384.0</ele><time>2026-04-29T13:23:22Z</time></trkpt><trkpt lat="43.92549905893794" lon="11.617370938522342"><ele>389.0</ele><time>2026-04-29T13:23:23Z</time></trkpt><trkpt lat="43.92536719700001" lon="11.617563934213175"><ele>389.0</ele><time>2026-04-29T13:23:24Z</time></trkpt><trkpt lat="43.92524600150869" lon="11.617742239989376"><ele>389.0</ele><time>2026-04-29T13:23:25Z</time></trkpt><trkpt lat="43.925155997974436" lon="11.617892450593242"><ele>389.0</ele><time>2026-04-29T13:23:26Z</time></trkpt><trkpt lat="43.925072652126694" lon="11.618028101783667"><ele>389.0</ele><time>2026-04-29T13:23:27Z</time></trkpt><trkpt lat="43.925019185727535" lon="11.618192133147188"><ele>388.25</ele><time>2026-04-29T13:23:28Z</time></trkpt><trkpt lat="43.92499479082538" lon="11.618408054400678"><ele>387.5</ele><time>2026-04-29T13:23:29Z</time></trkpt><trkpt lat="43.924986046495874" lon="11.618611526640086"><ele>386.75</ele><time>2026-04-29T13:23:30Z</time></trkpt><trkpt lat="43.92497309167923" lon="11.618780906887986"><ele>386.0</ele><time>2026-04-29T13:23:31Z</time></trkpt><trkpt lat="43.92495380616746" lon="11.618939503651877"><ele>386.0</ele><time>2026-04-29T13:23:32Z</time></trkpt><trkpt lat="43.924937806698225" lon="11.619077338551694"><ele>386.0</ele><time>2026-04-29T13:23:33Z</time></trkpt><trkpt lat="43.92492359252305" lon="11.619194538326623"><ele>386.0</ele><time>2026-04-29T13:23:34Z</time></trkpt><trkpt lat="43.924933852689655" lon="11.619293115445043"><ele>386.0</ele><time>2026-04-29T13:23:35Z</time></trkpt><trkpt lat="43.92505305438837" lon="11.619336726403038"><ele>386.0</ele><time>2026-04-29T13:23:37Z</time></trkpt><trkpt lat="43.925147432826954" lon="11.619274968618612"><ele>391.0</ele><time>2026-04-29T13:23:38Z</time></trkpt><trkpt lat="43.925241851155924" lon="11.619165154703701"><ele>396.0</ele><time>2026-04-29T13:23:39Z</time></trkpt><trkpt lat="43.92530847478195" lon="11.61903615871172"><ele>401.0</ele><time>2026-04-29T13:23:40Z</time></trkpt><trkpt lat="43.92531727107311" lon="11.618889818309363"><ele>406.0</ele><time>2026-04-29T13:23:41Z</time></trkpt><trkpt lat="43.92528969054568" lon="11.61872367536078"><ele>404.5</ele><time>2026-04-29T13:23:42Z</time></trkpt><trkpt lat="43.925273214976286" lon="11.618558896261003"><ele>403.0</ele><time>2026-04-29T13:23:43Z</time></trkpt><trkpt lat="43.92532831013289" lon="11.618438215287519"><ele>401.5</ele><time>2026-04-29T13:23:44Z</time></trkpt><trkpt lat="43.925407119456345" lon="11.618314731912351"><ele>400.0</ele><time>2026-04-29T13:23:45Z</time></trkpt><trkpt lat="43.925499584135316" lon="11.618224819258803"><ele>400.0</ele><time>2026-04-29T13:23:46Z</time></trkpt><trkpt lat="43.925596954777525" lon="11.6181270425426"><ele>400.0</ele><time>2026-04-29T13:23:47Z</time></trkpt><trkpt lat="43.92565444922971" lon="11.617966702748706"><ele>400.0</ele><time>2026-04-29T13:23:48Z</time></trkpt><trkpt lat="43.92572411647202" lon="11.617907894031573"><ele>400.0</ele><time>2026-04-29T13:23:49Z</time></trkpt><trkpt lat="43.92579305032693" lon="11.617870661476177"><ele>400.0</ele><time>2026-04-29T13:23:50Z</time></trkpt><trkpt lat="43.92592180037852" lon="11.617940367879372"><ele>397.8</ele><time>2026-04-29T13:23:52Z</time></trkpt><trkpt lat="43.92601425752531" lon="11.617986758499589"><ele>395.6</ele><time>2026-04-29T13:23:53Z</time></trkpt><trkpt lat="43.926123871221705" lon="11.618036605971648"><ele>393.4</ele><time>2026-04-29T13:23:54Z</time></trkpt><trkpt lat="43.926216619380746" lon="11.618081648426722"><ele>391.2</ele><time>2026-04-29T13:23:55Z</time></trkpt><trkpt lat="43.92629002886652" lon="11.618149051332066"><ele>389.0</ele><time>2026-04-29T13:23:56Z</time></trkpt><trkpt lat="43.92631025093196" lon="11.618256212431286"><ele>389.0</ele><time>2026-04-29T13:23:57Z</time></trkpt><trkpt lat="43.92632317683344" lon="11.618404167471738"><ele>389.0</ele><time>2026-04-29T13:23:58Z</time></trkpt><trkpt lat="43.92634914168931" lon="11.61856630541902"><ele>389.0</ele><time>2026-04-29T13:23:59Z</time></trkpt><trkpt lat="43.92638821970352" lon="11.618750014376708"><ele>389.0</ele><time>2026-04-29T13:24:00Z</time></trkpt><trkpt lat="43.92646227738823" lon="11.618942369486149"><ele>388.3333333333333</ele><time>2026-04-29T13:24:01Z</time></trkpt><trkpt lat="43.926580423675844" lon="11.619107725817504"><ele>387.66666666666663</ele><time>2026-04-29T13:24:02Z</time></trkpt><trkpt lat="43.92671766091455" lon="11.619268053733096"><ele>387.0</ele><time>2026-04-29T13:24:03Z</time></trkpt><trkpt lat="43.92687257194227" lon="11.619412955891423"><ele>393.66666666666663</ele><time>2026-04-29T13:24:04Z</time></trkpt><trkpt lat="43.92705346581473" lon="11.619521895018972"><ele>400.3333333333333</ele><time>2026-04-29T13:24:05Z</time></trkpt><trkpt lat="43.92723744116584" lon="11.619596898450627"><ele>407.0</ele><time>2026-04-29T13:24:06Z</time></trkpt><trkpt lat="43.92739732872222" lon="11.61967619695062"><ele>407.0</ele><time>2026-04-29T13:24:07Z</time></trkpt><trkpt lat="43.92752932148318" lon="11.619838848233528"><ele>407.0</ele><time>2026-04-29T13:24:08Z</time></trkpt><trkpt lat="43.927651556451316" lon="11.620025832466059"><ele>407.0</ele><time>2026-04-29T13:24:09Z</time></trkpt><trkpt lat="43.92778964975556" lon="11.620202339522713"><ele>405.3333333333333</ele><time>2026-04-29T13:24:10Z</time></trkpt><trkpt lat="43.927900597277834" lon="11.62038428428679"><ele>403.66666666666663</ele><time>2026-04-29T13:24:11Z</time></trkpt><trkpt lat="43.928013574382035" lon="11.62055252371578"><ele>402.0</ele><time>2026-04-29T13:24:12Z</time></trkpt><trkpt lat="43.9281130264666" lon="11.620722459546585"><ele>402.0</ele><time>2026-04-29T13:24:13Z</time></trkpt><trkpt lat="43.928212657088174" lon="11.620879578430971"><ele>402.0</ele><time>2026-04-29T13:24:14Z</time></trkpt><trkpt lat="43.92831869415078" lon="11.621042087112095"><ele>402.0</ele><time>2026-04-29T13:24:15Z</time></trkpt><trkpt lat="43.92842126642419" lon="11.621194445552264"><ele>402.66666666666663</ele><time>2026-04-29T13:24:16Z</time></trkpt><trkpt lat="43.928539569274406" lon="11.621353850623839"><ele>403.3333333333333</ele><time>2026-04-29T13:24:17Z</time></trkpt><trkpt lat="43.92865314763426" lon="11.621525138483479"><ele>404.0</ele><time>2026-04-29T13:24:18Z</time></trkpt><trkpt lat="43.92877246064287" lon="11.62168482864067"><ele>404.0</ele><time>2026-04-29T13:24:19Z</time></trkpt><trkpt lat="43.92888573811384" lon="11.621851208405081"><ele>404.0</ele><time>2026-04-29T13:24:20Z</time></trkpt><trkpt lat="43.92896543887706" lon="11.622038236328777"><ele>404.0</ele><time>2026-04-29T13:24:21Z</time></trkpt><trkpt lat="43.92905144617027" lon="11.622246866611244"><ele>407.0</ele><time>2026-04-29T13:24:22Z</time></trkpt><trkpt lat="43.92913310734558" lon="11.622446395730357"><ele>410.0</ele><time>2026-04-29T13:24:23Z</time></trkpt><trkpt lat="43.9292271845357" lon="11.62260369267437"><ele>413.0</ele><time>2026-04-29T13:24:24Z</time></trkpt><trkpt lat="43.92931866971039" lon="11.622713613910248"><ele>416.0</ele><time>2026-04-29T13:24:25Z</time></trkpt><trkpt lat="43.92941766995751" lon="11.622765430671773"><ele>416.0</ele><time>2026-04-29T13:24:26Z</time></trkpt><trkpt lat="43.92951524788533" lon="11.622738862366274"><ele>416.0</ele><time>2026-04-29T13:24:27Z</time></trkpt><trkpt lat="43.92962014473267" lon="11.622635412565133"><ele>416.0</ele><time>2026-04-29T13:24:28Z</time></trkpt><trkpt lat="43.92974657174" lon="11.622482559722975"><ele>416.0</ele><time>2026-04-29T13:24:29Z</time></trkpt><trkpt lat="43.92987210496317" lon="11.6223490283594"><ele>416.0</ele><time>2026-04-29T13:24:30Z</time></trkpt><trkpt lat="43.929963088642566" lon="11.62222925869916"><ele>416.0</ele><time>2026-04-29T13:24:31Z</time></trkpt><trkpt lat="43.93002025149665" lon="11.6220708426982"><ele>416.0</ele><time>2026-04-29T13:24:32Z</time></trkpt><trkpt lat="43.93004267965972" lon="11.621883937484306"><ele>416.0</ele><time>2026-04-29T13:24:33Z</time></trkpt><trkpt lat="43.93000761629582" lon="11.621666684463639"><ele>417.0</ele><time>2026-04-29T13:24:34Z</time></trkpt><trkpt lat="43.92993975721376" lon="11.621447755232492"><ele>418.0</ele><time>2026-04-29T13:24:35Z</time></trkpt><trkpt lat="43.929831518479254" lon="11.621228876970681"><ele>419.0</ele><time>2026-04-29T13:24:36Z</time></trkpt><trkpt lat="43.92974352692223" lon="11.621029238939032"><ele>421.79999999999995</ele><time>2026-04-29T13:24:37Z</time></trkpt><trkpt lat="43.929713087420865" lon="11.620881087534517"><ele>424.59999999999997</ele><time>2026-04-29T13:24:38Z</time></trkpt><trkpt lat="43.92969795284276" lon="11.620703742171035"><ele>427.4</ele><time>2026-04-29T13:24:39Z</time></trkpt><trkpt lat="43.92969155102655" lon="11.620568862089609"><ele>430.2</ele><time>2026-04-29T13:24:40Z</time></trkpt><trkpt lat="43.92973879418363" lon="11.620487252547903"><ele>433.0</ele><time>2026-04-29T13:24:41Z</time></trkpt><trkpt lat="43.92980585751059" lon="11.620445859136108"><ele>433.0</ele><time>2026-04-29T13:24:42Z</time></trkpt><trkpt lat="43.929898311088834" lon="11.620479105753398"><ele>432.99999999999994</ele><time>2026-04-29T13:24:43Z</time></trkpt><trkpt lat="43.92996205550498" lon="11.620591352363384"><ele>432.99999999999994</ele><time>2026-04-29T13:24:44Z</time></trkpt><trkpt lat="43.92992809100817" lon="11.620749259812719"><ele>433.0</ele><time>2026-04-29T13:24:45Z</time></trkpt><trkpt lat="43.92991825699637" lon="11.620905307905456"><ele>433.0</ele><time>2026-04-29T13:24:46Z</time></trkpt><trkpt lat="43.929930605240095" lon="11.621080886257216"><ele>429.5</ele><time>2026-04-29T13:24:47Z</time></trkpt><trkpt lat="43.92995254130763" lon="11.621264781250957"><ele>426.0</ele><time>2026-04-29T13:24:48Z</time></trkpt><trkpt lat="43.93003114618153" lon="11.621415745727473"><ele>422.5</ele><time>2026-04-29T13:24:49Z</time></trkpt><trkpt lat="43.930144202892905" lon="11.621514068643027"><ele>419.0</ele><time>2026-04-29T13:24:50Z</time></trkpt><trkpt lat="43.93029241930697" lon="11.621527911115283"><ele>426.25</ele><time>2026-04-29T13:24:51Z</time></trkpt><trkpt lat="43.930437890709285" lon="11.621481270452366"><ele>433.5</ele><time>2026-04-29T13:24:52Z</time></trkpt><trkpt lat="43.930582318484994" lon="11.621429289477089"><ele>440.75</ele><time>2026-04-29T13:24:53Z</time></trkpt><trkpt lat="43.93070042348523" lon="11.621418791984071"><ele>448.0</ele><time>2026-04-29T13:24:54Z</time></trkpt><trkpt lat="43.93079035520004" lon="11.62150324452751"><ele>448.0</ele><time>2026-04-29T13:24:55Z</time></trkpt><trkpt lat="43.930843425970174" lon="11.621625029187435"><ele>448.0</ele><time>2026-04-29T13:24:56Z</time></trkpt><trkpt lat="43.9308093510991" lon="11.621793858316753"><ele>448.0</ele><time>2026-04-29T13:24:57Z</time></trkpt><trkpt lat="43.930740825410616" lon="11.621931621305926"><ele>448.0</ele><time>2026-04-29T13:24:58Z</time></trkpt><trkpt lat="43.93065863741135" lon="11.622120208566686"><ele>449.59999999999997</ele><time>2026-04-29T13:24:59Z</time></trkpt><trkpt lat="43.93059691964054" lon="11.62227693548408"><ele>451.19999999999993</ele><time>2026-04-29T13:25:00Z</time></trkpt><trkpt lat="43.93062082820192" lon="11.622400873344754"><ele>452.8</ele><time>2026-04-29T13:25:01Z</time></trkpt><trkpt lat="43.93068535307109" lon="11.622508939904943"><ele>454.4</ele><time>2026-04-29T13:25:02Z</time></trkpt><trkpt lat="43.93079206636936" lon="11.62258251222133"><ele>456.0</ele><time>2026-04-29T13:25:03Z</time></trkpt><trkpt lat="43.93093184635006" lon="11.622595140655832"><ele>456.0</ele><time>2026-04-29T13:25:04Z</time></trkpt><trkpt lat="43.931097655725736" lon="11.622589345835397"><ele>456.0</ele><time>2026-04-29T13:25:05Z</time></trkpt><trkpt lat="43.931268875436025" lon="11.622604230526107"><ele>456.0</ele><time>2026-04-29T13:25:06Z</time></trkpt><trkpt lat="43.9314124322713" lon="11.622619835221343"><ele>456.0</ele><time>2026-04-29T13:25:07Z</time></trkpt><trkpt lat="43.931537471011104" lon="11.62260010389845"><ele>456.0</ele><time>2026-04-29T13:25:08Z</time></trkpt><trkpt lat="43.931678476587884" lon="11.622516554620443"><ele>456.0</ele><time>2026-04-29T13:25:09Z</time></trkpt><trkpt lat="43.931861952969435" lon="11.622406935732307"><ele>461.66666666666663</ele><time>2026-04-29T13:25:10Z</time></trkpt><trkpt lat="43.932032706964534" lon="11.622328112598542"><ele>467.3333333333333</ele><time>2026-04-29T13:25:11Z</time></trkpt><trkpt lat="43.93218711681725" lon="11.622318076901625"><ele>473.0</ele><time>2026-04-29T13:25:12Z</time></trkpt><trkpt lat="43.93230590728313" lon="11.622313081261863"><ele>473.0</ele><time>2026-04-29T13:25:13Z</time></trkpt><trkpt lat="43.932398483591264" lon="11.622341470493643"><ele>473.0</ele><time>2026-04-29T13:25:14Z</time></trkpt><trkpt lat="43.93247439439746" lon="11.622414391782726"><ele>473.0</ele><time>2026-04-29T13:25:15Z</time></trkpt><trkpt lat="43.93253346269825" lon="11.622594068043172"><ele>473.0</ele><time>2026-04-29T13:25:16Z</time></trkpt><trkpt lat="43.93249562466619" lon="11.622868322860825"><ele>471.0</ele><time>2026-04-29T13:25:18Z</time></trkpt><trkpt lat="43.93242247523621" lon="11.623012595160509"><ele>469.0</ele><time>2026-04-29T13:25:19Z</time></trkpt><trkpt lat="43.93235194695639" lon="11.623190175175363"><ele>467.0</ele><time>2026-04-29T13:25:20Z</time></trkpt><trkpt lat="43.93233362339266" lon="11.623312869980754"><ele>465.0</ele><time>2026-04-29T13:25:21Z</time></trkpt><trkpt lat="43.93236610919345" lon="11.623448855934495"><ele>465.0</ele><time>2026-04-29T13:25:22Z</time></trkpt><trkpt lat="43.93245370902796" lon="11.623538363805983"><ele>465.0</ele><time>2026-04-29T13:25:23Z</time></trkpt><trkpt lat="43.93258040864344" lon="11.623590099892297"><ele>465.0</ele><time>2026-04-29T13:25:24Z</time></trkpt><trkpt lat="43.93275214866355" lon="11.623678949932039"><ele>465.0</ele><time>2026-04-29T13:25:25Z</time></trkpt><trkpt lat="43.932949929356035" lon="11.62379811825345"><ele>468.0</ele><time>2026-04-29T13:25:26Z</time></trkpt><trkpt lat="43.93311357769965" lon="11.623895451552281"><ele>471.0</ele><time>2026-04-29T13:25:27Z</time></trkpt><trkpt lat="43.933266257947494" lon="11.623936996514027"><ele>474.0</ele><time>2026-04-29T13:25:28Z</time></trkpt><trkpt lat="43.933426680842686" lon="11.623910522171784"><ele>485.5</ele><time>2026-04-29T13:25:29Z</time></trkpt><trkpt lat="43.93355647655078" lon="11.623918794125847"><ele>497.0</ele><time>2026-04-29T13:25:30Z</time></trkpt><trkpt lat="43.933673454470714" lon="11.624031830595081"><ele>508.5</ele><time>2026-04-29T13:25:31Z</time></trkpt><trkpt lat="43.93376582525726" lon="11.624197692494063"><ele>520.0</ele><time>2026-04-29T13:25:32Z</time></trkpt><trkpt lat="43.93389031047424" lon="11.62437780251422"><ele>513.25</ele><time>2026-04-29T13:25:33Z</time></trkpt><trkpt lat="43.93399303353663" lon="11.624566309762242"><ele>506.5</ele><time>2026-04-29T13:25:34Z</time></trkpt><trkpt lat="43.934047519009454" lon="11.624755669559322"><ele>499.75</ele><time>2026-04-29T13:25:35Z</time></trkpt><trkpt lat="43.9340279695203" lon="11.624933013073838"><ele>493.0</ele><time>2026-04-29T13:25:36Z</time></trkpt><trkpt lat="43.93404462068585" lon="11.625089127938514"><ele>493.0</ele><time>2026-04-29T13:25:37Z</time></trkpt><trkpt lat="43.934081575659334" lon="11.625229697931335"><ele>493.0</ele><time>2026-04-29T13:25:38Z</time></trkpt><trkpt lat="43.93418933429895" lon="11.625356414180036"><ele>493.0</ele><time>2026-04-29T13:25:39Z</time></trkpt><trkpt lat="43.93436375243058" lon="11.625461925015966"><ele>493.0</ele><time>2026-04-29T13:25:40Z</time></trkpt><trkpt lat="43.93455863361837" lon="11.62549518927177"><ele>491.6666666666667</ele><time>2026-04-29T13:25:41Z</time></trkpt><trkpt lat="43.934764605817406" lon="11.625510877341474"><ele>490.33333333333337</ele><time>2026-04-29T13:25:42Z</time></trkpt><trkpt lat="43.93497616335298" lon="11.625545479222497"><ele>489.0</ele><time>2026-04-29T13:25:43Z</time></trkpt><trkpt lat="43.93517402837895" lon="11.62557873007997"><ele>486.75</ele><time>2026-04-29T13:25:44Z</time></trkpt><trkpt lat="43.93532470833222" lon="11.625563427934258"><ele>484.5</ele><time>2026-04-29T13:25:45Z</time></trkpt><trkpt lat="43.935437886648174" lon="11.62546496897162"><ele>482.25</ele><time>2026-04-29T13:25:46Z</time></trkpt><trkpt lat="43.9355187432227" lon="11.625336606756518"><ele>480.0</ele><time>2026-04-29T13:25:47Z</time></trkpt><trkpt lat="43.93556411359721" lon="11.625126762266092"><ele>486.66666666666663</ele><time>2026-04-29T13:25:48Z</time></trkpt><trkpt lat="43.93563559458244" lon="11.624884180907204"><ele>493.3333333333333</ele><time>2026-04-29T13:25:49Z</time></trkpt><trkpt lat="43.93571719970925" lon="11.624669402550397"><ele>500.0</ele><time>2026-04-29T13:25:50Z</time></trkpt><trkpt lat="43.93584987336838" lon="11.624478955455976"><ele>505.3333333333333</ele><time>2026-04-29T13:25:51Z</time></trkpt><trkpt lat="43.93599631098948" lon="11.624331742915658"><ele>510.66666666666663</ele><time>2026-04-29T13:25:52Z</time></trkpt><trkpt lat="43.93615749000649" lon="11.62422910176958"><ele>516.0</ele><time>2026-04-29T13:25:53Z</time></trkpt><trkpt lat="43.936334058691756" lon="11.624150291525547"><ele>516.0</ele><time>2026-04-29T13:25:54Z</time></trkpt><trkpt lat="43.93650300931228" lon="11.624078046483941"><ele>516.0</ele><time>2026-04-29T13:25:55Z</time></trkpt><trkpt lat="43.93662327658025" lon="11.624059496507687"><ele>516.0</ele><time>2026-04-29T13:25:56Z</time></trkpt><trkpt lat="43.936741154348034" lon="11.624109917724565"><ele>516.0</ele><time>2026-04-29T13:25:57Z</time></trkpt><trkpt lat="43.93689554212583" lon="11.624208272907017"><ele>518.25</ele><time>2026-04-29T13:25:58Z</time></trkpt><trkpt lat="43.93705473717558" lon="11.6242564084713"><ele>520.5</ele><time>2026-04-29T13:25:59Z</time></trkpt><trkpt lat="43.93715670665659" lon="11.624272218399227"><ele>522.75</ele><time>2026-04-29T13:26:00Z</time></trkpt><trkpt lat="43.93728292580727" lon="11.624168428328712"><ele>525.0</ele><time>2026-04-29T13:26:01Z</time></trkpt><trkpt lat="43.93742574028402" lon="11.624039742060203"><ele>530.3333333333334</ele><time>2026-04-29T13:26:02Z</time></trkpt><trkpt lat="43.93756753931888" lon="11.624001439030794"><ele>535.6666666666667</ele><time>2026-04-29T13:26:03Z</time></trkpt><trkpt lat="43.9377055890227" lon="11.624039332567614"><ele>541.0</ele><time>2026-04-29T13:26:04Z</time></trkpt><trkpt lat="43.93796798851851" lon="11.624165934130216"><ele>541.0</ele><time>2026-04-29T13:26:05Z</time></trkpt><trkpt lat="43.93815038306415" lon="11.624248747171091"><ele>541.0</ele><time>2026-04-29T13:26:06Z</time></trkpt><trkpt lat="43.938294773283154" lon="11.624325693102543"><ele>541.0</ele><time>2026-04-29T13:26:07Z</time></trkpt><trkpt lat="43.93836340923821" lon="11.624421775072495"><ele>541.0</ele><time>2026-04-29T13:26:08Z</time></trkpt><trkpt lat="43.938441354136344" lon="11.62456101393437"><ele>544.5</ele><time>2026-04-29T13:26:09Z</time></trkpt><trkpt lat="43.93852693168654" lon="11.624718279320259"><ele>548.0</ele><time>2026-04-29T13:26:10Z</time></trkpt><trkpt lat="43.938611036579665" lon="11.62485028483963"><ele>551.5</ele><time>2026-04-29T13:26:11Z</time></trkpt><trkpt lat="43.93863103121467" lon="11.625007258186209"><ele>555.0</ele><time>2026-04-29T13:26:12Z</time></trkpt><trkpt lat="43.93860092143952" lon="11.625092261628025"><ele>555.0</ele><time>2026-04-29T13:26:13Z</time></trkpt><trkpt lat="43.938577169940245" lon="11.625223097389203"><ele>555.0</ele><time>2026-04-29T13:26:14Z</time></trkpt><trkpt lat="43.93854240498326" lon="11.625346701636646"><ele>555.0</ele><time>2026-04-29T13:26:15Z</time></trkpt><trkpt lat="43.938489556059075" lon="11.62543975308668"><ele>555.0</ele><time>2026-04-29T13:26:16Z</time></trkpt><trkpt lat="43.93837093254787" lon="11.625404474385544"><ele>555.0</ele><time>2026-04-29T13:26:17Z</time></trkpt><trkpt lat="43.93827109064628" lon="11.625411264914039"><ele>554.6</ele><time>2026-04-29T13:26:18Z</time></trkpt><trkpt lat="43.9381793121993" lon="11.625433988837456"><ele>554.2</ele><time>2026-04-29T13:26:19Z</time></trkpt><trkpt lat="43.9381142497358" lon="11.625437867747756"><ele>553.8</ele><time>2026-04-29T13:26:20Z</time></trkpt><trkpt lat="43.93800301233133" lon="11.62545041009756"><ele>553.4</ele><time>2026-04-29T13:26:22Z</time></trkpt><trkpt lat="43.93791114810566" lon="11.625491016398124"><ele>553.0</ele><time>2026-04-29T13:26:25Z</time></trkpt><trkpt lat="43.937807898112936" lon="11.625517256334488"><ele>553.0</ele><time>2026-04-29T13:27:22Z</time></trkpt><trkpt lat="43.93775248194739" lon="11.625569115853493"><ele>553.0</ele><time>2026-04-29T13:27:23Z</time></trkpt><trkpt lat="43.93769111891103" lon="11.625636499792792"><ele>553.0</ele><time>2026-04-29T13:27:24Z</time></trkpt><trkpt lat="43.93765357574131" lon="11.625741024637948"><ele>553.0</ele><time>2026-04-29T13:27:25Z</time></trkpt><trkpt lat="43.93761897692251" lon="11.625856835245859"><ele>553.0</ele><time>2026-04-29T13:27:26Z</time></trkpt><trkpt lat="43.93761186414099" lon="11.625997665323176"><ele>553.0</ele><time>2026-04-29T13:27:27Z</time></trkpt><trkpt lat="43.93754745651038" lon="11.62608928704719"><ele>552.8</ele><time>2026-04-29T13:27:28Z</time></trkpt><trkpt lat="43.937484421082445" lon="11.626158728046784"><ele>552.5999999999999</ele><time>2026-04-29T13:27:29Z</time></trkpt><trkpt lat="43.937422789483286" lon="11.626238953110837"><ele>552.4000000000001</ele><time>2026-04-29T13:27:30Z</time></trkpt><trkpt lat="43.93739329965396" lon="11.626367450757469"><ele>552.2</ele><time>2026-04-29T13:27:31Z</time></trkpt><trkpt lat="43.937393547604835" lon="11.62653280784292"><ele>552.0</ele><time>2026-04-29T13:27:32Z</time></trkpt><trkpt lat="43.93738465512517" lon="11.62670313844949"><ele>552.0</ele><time>2026-04-29T13:27:33Z</time></trkpt><trkpt lat="43.937359383015774" lon="11.626861966821764"><ele>552.0</ele><time>2026-04-29T13:27:34Z</time></trkpt><trkpt lat="43.937313761672414" lon="11.626982546829336"><ele>552.0</ele><time>2026-04-29T13:27:35Z</time></trkpt><trkpt lat="43.93723434638673" lon="11.627089580460812"><ele>552.0</ele><time>2026-04-29T13:27:36Z</time></trkpt><trkpt lat="43.937147567133444" lon="11.627189023510866"><ele>552.0</ele><time>2026-04-29T13:27:37Z</time></trkpt><trkpt lat="43.93704605326849" lon="11.627305254349498"><ele>558.0</ele><time>2026-04-29T13:27:38Z</time></trkpt><trkpt lat="43.93696049994694" lon="11.627433981790123"><ele>564.0</ele><time>2026-04-29T13:27:39Z</time></trkpt><trkpt lat="43.93690800508529" lon="11.627588416806782"><ele>570.0</ele><time>2026-04-29T13:27:40Z</time></trkpt><trkpt lat="43.936881868925404" lon="11.627781716786545"><ele>576.0</ele><time>2026-04-29T13:27:41Z</time></trkpt><trkpt lat="43.936865104964596" lon="11.627986515113053"><ele>572.0</ele><time>2026-04-29T13:27:42Z</time></trkpt><trkpt lat="43.936828631732986" lon="11.628157252041769"><ele>568.0</ele><time>2026-04-29T13:27:43Z</time></trkpt><trkpt lat="43.936820162277435" lon="11.628305336150644"><ele>564.0</ele><time>2026-04-29T13:27:44Z</time></trkpt><trkpt lat="43.93676449293564" lon="11.628419203692163"><ele>560.0</ele><time>2026-04-29T13:27:45Z</time></trkpt><trkpt lat="43.93666211052055" lon="11.628479900265477"><ele>556.0</ele><time>2026-04-29T13:27:46Z</time></trkpt><trkpt lat="43.936579412662944" lon="11.628561992128256"><ele>556.0</ele><time>2026-04-29T13:27:47Z</time></trkpt><trkpt lat="43.93650333723612" lon="11.628637273813297"><ele>556.0</ele><time>2026-04-29T13:27:48Z</time></trkpt><trkpt lat="43.93646407359367" lon="11.62875414544071"><ele>556.0</ele><time>2026-04-29T13:27:49Z</time></trkpt><trkpt lat="43.93648461789637" lon="11.628926633662843"><ele>556.0</ele><time>2026-04-29T13:27:50Z</time></trkpt><trkpt lat="43.93652551734424" lon="11.629118392361805"><ele>561.0</ele><time>2026-04-29T13:27:51Z</time></trkpt><trkpt lat="43.936543624092984" lon="11.629314420356863"><ele>566.0</ele><time>2026-04-29T13:27:52Z</time></trkpt><trkpt lat="43.936504997540794" lon="11.629471605961484"><ele>571.0</ele><time>2026-04-29T13:27:53Z</time></trkpt><trkpt lat="43.93641728807559" lon="11.629597940372584"><ele>576.0</ele><time>2026-04-29T13:27:54Z</time></trkpt><trkpt lat="43.936313550861435" lon="11.629717525136712"><ele>581.0</ele><time>2026-04-29T13:27:55Z</time></trkpt><trkpt lat="43.93627079718942" lon="11.62990590907896"><ele>586.0</ele><time>2026-04-29T13:27:56Z</time></trkpt><trkpt lat="43.93629392163874" lon="11.630128685974903"><ele>591.0</ele><time>2026-04-29T13:27:57Z</time></trkpt><trkpt lat="43.93629698501768" lon="11.630335093892871"><ele>598.6666666666666</ele><time>2026-04-29T13:27:58Z</time></trkpt><trkpt lat="43.93620114769171" lon="11.630518166161933"><ele>606.3333333333333</ele><time>2026-04-29T13:27:59Z</time></trkpt><trkpt lat="43.93609018600825" lon="11.630737455097298"><ele>614.0</ele><time>2026-04-29T13:28:00Z</time></trkpt><trkpt lat="43.9359818860435" lon="11.630951517538788"><ele>614.0</ele><time>2026-04-29T13:28:01Z</time></trkpt><trkpt lat="43.93590242737807" lon="11.631135120577715"><ele>614.0</ele><time>2026-04-29T13:28:02Z</time></trkpt><trkpt lat="43.93585578949664" lon="11.631305349783139"><ele>614.0</ele><time>2026-04-29T13:28:03Z</time></trkpt><trkpt lat="43.93585018383914" lon="11.631470099181847"><ele>614.0</ele><time>2026-04-29T13:28:04Z</time></trkpt><trkpt lat="43.93590235147493" lon="11.631623755138575"><ele>617.5</ele><time>2026-04-29T13:28:05Z</time></trkpt><trkpt lat="43.93599410906282" lon="11.631756657622361"><ele>621.0</ele><time>2026-04-29T13:28:06Z</time></trkpt><trkpt lat="43.93606596378658" lon="11.631881581723956"><ele>624.5</ele><time>2026-04-29T13:28:07Z</time></trkpt><trkpt lat="43.93605273376355" lon="11.632044611271924"><ele>628.0</ele><time>2026-04-29T13:28:08Z</time></trkpt><trkpt lat="43.93599305850738" lon="11.632180151231807"><ele>619.6666666666667</ele><time>2026-04-29T13:28:09Z</time></trkpt><trkpt lat="43.9358648989381" lon="11.632270906269309"><ele>611.3333333333334</ele><time>2026-04-29T13:28:10Z</time></trkpt><trkpt lat="43.9357096358522" lon="11.632349350042967"><ele>603.0</ele><time>2026-04-29T13:28:11Z</time></trkpt><trkpt lat="43.93554146173771" lon="11.63243181411744"><ele>603.0</ele><time>2026-04-29T13:28:12Z</time></trkpt><trkpt lat="43.9354057809404" lon="11.632511142311523"><ele>603.0</ele><time>2026-04-29T13:28:13Z</time></trkpt><trkpt lat="43.935296573229714" lon="11.632580859643108"><ele>603.0</ele><time>2026-04-29T13:28:14Z</time></trkpt><trkpt lat="43.93524161114985" lon="11.632681735719752"><ele>603.0</ele><time>2026-04-29T13:28:15Z</time></trkpt><trkpt lat="43.935241385423794" lon="11.632839316325144"><ele>608.3333333333334</ele><time>2026-04-29T13:28:16Z</time></trkpt><trkpt lat="43.935294073925526" lon="11.6330433409474"><ele>613.6666666666667</ele><time>2026-04-29T13:28:17Z</time></trkpt><trkpt lat="43.935352020970804" lon="11.633255623389706"><ele>619.0</ele><time>2026-04-29T13:28:18Z</time></trkpt><trkpt lat="43.93539121370462" lon="11.63348214214475"><ele>618.75</ele><time>2026-04-29T13:28:19Z</time></trkpt><trkpt lat="43.9353885749135" lon="11.63369053217152"><ele>618.5</ele><time>2026-04-29T13:28:20Z</time></trkpt><trkpt lat="43.935376439182484" lon="11.633859090149365"><ele>618.25</ele><time>2026-04-29T13:28:21Z</time></trkpt><trkpt lat="43.935409991324065" lon="11.634014091354231"><ele>618.0</ele><time>2026-04-29T13:28:22Z</time></trkpt><trkpt lat="43.93549978009855" lon="11.634110617695898"><ele>618.0</ele><time>2026-04-29T13:28:23Z</time></trkpt><trkpt lat="43.93561058551009" lon="11.634148014958342"><ele>618.0</ele><time>2026-04-29T13:28:24Z</time></trkpt><trkpt lat="43.93569821077228" lon="11.634175171108383"><ele>618.0</ele><time>2026-04-29T13:28:25Z</time></trkpt><trkpt lat="43.93573075113314" lon="11.634257190154194"><ele>618.0</ele><time>2026-04-29T13:28:26Z</time></trkpt><trkpt lat="43.93571434817634" lon="11.634371087314367"><ele>618.0</ele><time>2026-04-29T13:28:27Z</time></trkpt><trkpt lat="43.935632194446306" lon="11.634469871026768"><ele>623.0</ele><time>2026-04-29T13:28:28Z</time></trkpt><trkpt lat="43.935509829384024" lon="11.634515891676754"><ele>628.0</ele><time>2026-04-29T13:28:29Z</time></trkpt><trkpt lat="43.93536301869245" lon="11.634593756790908"><ele>633.0</ele><time>2026-04-29T13:28:30Z</time></trkpt><trkpt lat="43.93520933577821" lon="11.63464061395761"><ele>638.0</ele><time>2026-04-29T13:28:31Z</time></trkpt><trkpt lat="43.93505654598646" lon="11.634653876930935"><ele>635.3333333333333</ele><time>2026-04-29T13:28:32Z</time></trkpt><trkpt lat="43.934912159221355" lon="11.63457454516162"><ele>632.6666666666666</ele><time>2026-04-29T13:28:33Z</time></trkpt><trkpt lat="43.93478070156124" lon="11.634452176439561"><ele>630.0</ele><time>2026-04-29T13:28:34Z</time></trkpt><trkpt lat="43.93467936234095" lon="11.634310325459058"><ele>630.0</ele><time>2026-04-29T13:28:35Z</time></trkpt><trkpt lat="43.93458877327928" lon="11.634251053578216"><ele>630.0</ele><time>2026-04-29T13:28:36Z</time></trkpt><trkpt lat="43.93450664565117" lon="11.634272469648185"><ele>630.0</ele><time>2026-04-29T13:28:37Z</time></trkpt><trkpt lat="43.934443172703354" lon="11.634370441109528"><ele>630.0</ele><time>2026-04-29T13:28:38Z</time></trkpt><trkpt lat="43.93440487268064" lon="11.634535122248842"><ele>630.0</ele><time>2026-04-29T13:28:39Z</time></trkpt><trkpt lat="43.934380746355345" lon="11.63473282536687"><ele>630.0</ele><time>2026-04-29T13:28:40Z</time></trkpt><trkpt lat="43.9343357122684" lon="11.634942301650435"><ele>630.0</ele><time>2026-04-29T13:28:41Z</time></trkpt><trkpt lat="43.9342923190211" lon="11.635142291083877"><ele>630.0</ele><time>2026-04-29T13:28:42Z</time></trkpt><trkpt lat="43.93428132498396" lon="11.635273400144483"><ele>630.0</ele><time>2026-04-29T13:28:43Z</time></trkpt><trkpt lat="43.934328556795435" lon="11.63541287166221"><ele>631.5</ele><time>2026-04-29T13:28:44Z</time></trkpt><trkpt lat="43.93442657368173" lon="11.635531186369127"><ele>633.0</ele><time>2026-04-29T13:28:45Z</time></trkpt><trkpt lat="43.934548427817965" lon="11.635679158572588"><ele>634.5</ele><time>2026-04-29T13:28:46Z</time></trkpt><trkpt lat="43.93464522119829" lon="11.635837986010042"><ele>636.0</ele><time>2026-04-29T13:28:47Z</time></trkpt><trkpt lat="43.93472464137299" lon="11.635952375319352"><ele>636.0</ele><time>2026-04-29T13:28:48Z</time></trkpt><trkpt lat="43.934851227937706" lon="11.63597238144785"><ele>636.0</ele><time>2026-04-29T13:28:49Z</time></trkpt><trkpt lat="43.93498893267516" lon="11.635942262237288"><ele>636.0</ele><time>2026-04-29T13:28:50Z</time></trkpt><trkpt lat="43.93515492227631" lon="11.635865965198947"><ele>636.0</ele><time>2026-04-29T13:28:51Z</time></trkpt><trkpt lat="43.935347108550395" lon="11.63584049488465"><ele>639.0</ele><time>2026-04-29T13:28:52Z</time></trkpt><trkpt lat="43.935551348687724" lon="11.63583087543059"><ele>642.0</ele><time>2026-04-29T13:28:53Z</time></trkpt><trkpt lat="43.935746070690456" lon="11.635820019197453"><ele>645.0</ele><time>2026-04-29T13:28:54Z</time></trkpt><trkpt lat="43.93593067926395" lon="11.635897545993371"><ele>651.0</ele><time>2026-04-29T13:28:55Z</time></trkpt><trkpt lat="43.93611522972191" lon="11.636009316863495"><ele>657.0</ele><time>2026-04-29T13:28:56Z</time></trkpt><trkpt lat="43.93627118790458" lon="11.636144673164367"><ele>663.0</ele><time>2026-04-29T13:28:57Z</time></trkpt><trkpt lat="43.93639303267162" lon="11.636281130512979"><ele>663.0</ele><time>2026-04-29T13:28:58Z</time></trkpt><trkpt lat="43.93648023188824" lon="11.636411960892909"><ele>663.0</ele><time>2026-04-29T13:28:59Z</time></trkpt><trkpt lat="43.9365321348533" lon="11.636563281517635"><ele>663.0</ele><time>2026-04-29T13:29:00Z</time></trkpt><trkpt lat="43.936530594794185" lon="11.636712822237842"><ele>663.0</ele><time>2026-04-29T13:29:01Z</time></trkpt><trkpt lat="43.936471535436006" lon="11.636873987736179"><ele>667.25</ele><time>2026-04-29T13:29:02Z</time></trkpt><trkpt lat="43.936384174963884" lon="11.637006833952032"><ele>671.5</ele><time>2026-04-29T13:29:03Z</time></trkpt><trkpt lat="43.93628168650235" lon="11.63707045522371"><ele>675.75</ele><time>2026-04-29T13:29:04Z</time></trkpt><trkpt lat="43.93614184398501" lon="11.637038671186524"><ele>680.0</ele><time>2026-04-29T13:29:05Z</time></trkpt><trkpt lat="43.93597895255557" lon="11.63698200820611"><ele>677.3333333333333</ele><time>2026-04-29T13:29:06Z</time></trkpt><trkpt lat="43.935774735910734" lon="11.637001579514983"><ele>674.6666666666666</ele><time>2026-04-29T13:29:07Z</time></trkpt><trkpt lat="43.93554055570492" lon="11.637050710976155"><ele>672.0</ele><time>2026-04-29T13:29:08Z</time></trkpt><trkpt lat="43.93536075207452" lon="11.637151944384442"><ele>672.0</ele><time>2026-04-29T13:29:09Z</time></trkpt><trkpt lat="43.93537081835545" lon="11.637251735060365"><ele>672.0</ele><time>2026-04-29T13:29:10Z</time></trkpt><trkpt lat="43.935238272732754" lon="11.637382972268195"><ele>672.0</ele><time>2026-04-29T13:29:11Z</time></trkpt><trkpt lat="43.93510001744834" lon="11.63750153086368"><ele>672.0</ele><time>2026-04-29T13:29:12Z</time></trkpt><trkpt lat="43.9349843653124" lon="11.637612887503678"><ele>673.25</ele><time>2026-04-29T13:29:13Z</time></trkpt><trkpt lat="43.93495367287171" lon="11.63774195289402"><ele>674.5</ele><time>2026-04-29T13:29:14Z</time></trkpt><trkpt lat="43.93502704924723" lon="11.637887998153385"><ele>675.75</ele><time>2026-04-29T13:29:15Z</time></trkpt><trkpt lat="43.935084396320406" lon="11.63803018295606"><ele>677.0</ele><time>2026-04-29T13:29:16Z</time></trkpt><trkpt lat="43.93519474033572" lon="11.63826257583332"><ele>681.8</ele><time>2026-04-29T13:29:17Z</time></trkpt><trkpt lat="43.935207929303225" lon="11.638474121790026"><ele>686.6</ele><time>2026-04-29T13:29:18Z</time></trkpt><trkpt lat="43.93521129016126" lon="11.63867042987205"><ele>691.4</ele><time>2026-04-29T13:29:19Z</time></trkpt><trkpt lat="43.93520063322116" lon="11.63879485490087"><ele>696.1999999999999</ele><time>2026-04-29T13:29:20Z</time></trkpt><trkpt lat="43.93516715958608" lon="11.63887077509291"><ele>701.0</ele><time>2026-04-29T13:29:21Z</time></trkpt><trkpt lat="43.9351008216296" lon="11.638917958743935"><ele>699.0</ele><time>2026-04-29T13:29:22Z</time></trkpt><trkpt lat="43.93500286791763" lon="11.638862824914197"><ele>697.0</ele><time>2026-04-29T13:29:23Z</time></trkpt><trkpt lat="43.93492395070398" lon="11.638761107299292"><ele>695.0</ele><time>2026-04-29T13:29:24Z</time></trkpt><trkpt lat="43.934821862292544" lon="11.63864072810098"><ele>693.0</ele><time>2026-04-29T13:29:25Z</time></trkpt><trkpt lat="43.93467971606037" lon="11.638515499917549"><ele>687.6666666666666</ele><time>2026-04-29T13:29:26Z</time></trkpt><trkpt lat="43.934504862324914" lon="11.638447505479503"><ele>682.3333333333333</ele><time>2026-04-29T13:29:27Z</time></trkpt><trkpt lat="43.934326728761846" lon="11.638419452055958"><ele>677.0</ele><time>2026-04-29T13:29:28Z</time></trkpt><trkpt lat="43.93415024406105" lon="11.638421713026394"><ele>675.25</ele><time>2026-04-29T13:29:29Z</time></trkpt><trkpt lat="43.93397914805111" lon="11.638441994786108"><ele>673.5</ele><time>2026-04-29T13:29:30Z</time></trkpt><trkpt lat="43.933860135087905" lon="11.63848550054435"><ele>671.75</ele><time>2026-04-29T13:29:31Z</time></trkpt><trkpt lat="43.93378157906577" lon="11.638569651523511"><ele>670.0</ele><time>2026-04-29T13:29:32Z</time></trkpt><trkpt lat="43.93370549101112" lon="11.638742204402313"><ele>679.3333333333334</ele><time>2026-04-29T13:29:33Z</time></trkpt><trkpt lat="43.933687718040666" lon="11.638981457606832"><ele>688.6666666666666</ele><time>2026-04-29T13:29:34Z</time></trkpt><trkpt lat="43.93361768828665" lon="11.639247847922308"><ele>698.0</ele><time>2026-04-29T13:29:35Z</time></trkpt><trkpt lat="43.933527485820996" lon="11.639493425961184"><ele>700.0</ele><time>2026-04-29T13:29:36Z</time></trkpt><trkpt lat="43.93344096668888" lon="11.639649724179728"><ele>702.0</ele><time>2026-04-29T13:29:37Z</time></trkpt><trkpt lat="43.933349414180846" lon="11.639802786420178"><ele>704.0</ele><time>2026-04-29T13:29:38Z</time></trkpt><trkpt lat="43.93332587896391" lon="11.639984392265134"><ele>706.0</ele><time>2026-04-29T13:29:39Z</time></trkpt><trkpt lat="43.933344059964746" lon="11.640141797188893"><ele>706.0</ele><time>2026-04-29T13:29:40Z</time></trkpt><trkpt lat="43.933314068510185" lon="11.640241052260784"><ele>706.0</ele><time>2026-04-29T13:29:41Z</time></trkpt><trkpt lat="43.9331726906106" lon="11.640293841100526"><ele>706.0</ele><time>2026-04-29T13:29:43Z</time></trkpt><trkpt lat="43.93309899689738" lon="11.640169667714412"><ele>706.0</ele><time>2026-04-29T13:29:44Z</time></trkpt><trkpt lat="43.933040397221596" lon="11.640046677083685"><ele>706.0</ele><time>2026-04-29T13:29:45Z</time></trkpt><trkpt lat="43.932954425126255" lon="11.639863525764968"><ele>706.0</ele><time>2026-04-29T13:29:46Z</time></trkpt><trkpt lat="43.93290759921366" lon="11.639664191808183"><ele>706.0</ele><time>2026-04-29T13:29:47Z</time></trkpt><trkpt lat="43.932902376814255" lon="11.639447552518094"><ele>706.0</ele><time>2026-04-29T13:29:48Z</time></trkpt><trkpt lat="43.932877484677746" lon="11.639183828818233"><ele>701.3333333333334</ele><time>2026-04-29T13:29:49Z</time></trkpt><trkpt lat="43.932826514644255" lon="11.638977668349098"><ele>696.6666666666666</ele><time>2026-04-29T13:29:50Z</time></trkpt><trkpt lat="43.932735280488984" lon="11.638780345961763"><ele>692.0</ele><time>2026-04-29T13:29:51Z</time></trkpt><trkpt lat="43.932616519885194" lon="11.638623275381146"><ele>696.0</ele><time>2026-04-29T13:29:52Z</time></trkpt><trkpt lat="43.93249881028561" lon="11.638456670193518"><ele>700.0</ele><time>2026-04-29T13:29:53Z</time></trkpt><trkpt lat="43.93237895263161" lon="11.638273616150899"><ele>704.0</ele><time>2026-04-29T13:29:54Z</time></trkpt><trkpt lat="43.93228074739064" lon="11.638102708586961"><ele>704.0</ele><time>2026-04-29T13:29:55Z</time></trkpt><trkpt lat="43.93220916911377" lon="11.63793314662253"><ele>704.0</ele><time>2026-04-29T13:29:56Z</time></trkpt><trkpt lat="43.932173833148994" lon="11.63774047164627"><ele>704.0</ele><time>2026-04-29T13:29:57Z</time></trkpt><trkpt lat="43.93216097740933" lon="11.637565548808224"><ele>704.0</ele><time>2026-04-29T13:29:58Z</time></trkpt><trkpt lat="43.93212993757973" lon="11.637391354434394"><ele>701.8333333333333</ele><time>2026-04-29T13:29:59Z</time></trkpt><trkpt lat="43.93212617553175" lon="11.637280496306122"><ele>699.6666666666666</ele><time>2026-04-29T13:30:00Z</time></trkpt><trkpt lat="43.93209135595882" lon="11.63718015794297"><ele>697.5</ele><time>2026-04-29T13:30:01Z</time></trkpt><trkpt lat="43.93199686123796" lon="11.637152424725711"><ele>695.3333333333334</ele><time>2026-04-29T13:30:02Z</time></trkpt><trkpt lat="43.93192668100456" lon="11.637195155394117"><ele>693.1666666666667</ele><time>2026-04-29T13:30:03Z</time></trkpt><trkpt lat="43.931882087312644" lon="11.63727800099731"><ele>691.0</ele><time>2026-04-29T13:30:04Z</time></trkpt><trkpt lat="43.931873180192234" lon="11.637366337534122"><ele>691.0</ele><time>2026-04-29T13:30:05Z</time></trkpt><trkpt lat="43.93189215183806" lon="11.637490202434556"><ele>691.0</ele><time>2026-04-29T13:30:07Z</time></trkpt><trkpt lat="43.9318898887952" lon="11.637594953574553"><ele>691.0</ele><time>2026-04-29T13:30:10Z</time></trkpt><trkpt lat="43.9318838571339" lon="11.637690426771423"><ele>691.0</ele><time>2026-04-29T13:30:15Z</time></trkpt><trkpt lat="43.931867711063624" lon="11.637801341275981"><ele>691.0</ele><time>2026-04-29T13:30:20Z</time></trkpt><trkpt lat="43.931863293009165" lon="11.637910362241527"><ele>691.0</ele><time>2026-04-29T13:32:04Z</time></trkpt><trkpt lat="43.93185137336071" lon="11.637999635964537"><ele>693.5999999999999</ele><time>2026-04-29T13:32:05Z</time></trkpt><trkpt lat="43.931834769435426" lon="11.638112434404594"><ele>696.2</ele><time>2026-04-29T13:32:06Z</time></trkpt><trkpt lat="43.93181734555151" lon="11.638233333429978"><ele>698.8</ele><time>2026-04-29T13:32:07Z</time></trkpt><trkpt lat="43.93179795417836" lon="11.6383572673033"><ele>701.4000000000001</ele><time>2026-04-29T13:32:08Z</time></trkpt><trkpt lat="43.9317737661955" lon="11.638480254312269"><ele>704.0</ele><time>2026-04-29T13:32:09Z</time></trkpt><trkpt lat="43.93173387595076" lon="11.638618674507034"><ele>705.0</ele><time>2026-04-29T13:32:10Z</time></trkpt><trkpt lat="43.93168917700005" lon="11.638753156997561"><ele>706.0</ele><time>2026-04-29T13:32:11Z</time></trkpt><trkpt lat="43.93165722402253" lon="11.638901300881528"><ele>707.0</ele><time>2026-04-29T13:32:12Z</time></trkpt><trkpt lat="43.931595724013285" lon="11.639039571743236"><ele>708.0</ele><time>2026-04-29T13:32:13Z</time></trkpt><trkpt lat="43.931570344694286" lon="11.639209174505519"><ele>708.0</ele><time>2026-04-29T13:32:14Z</time></trkpt><trkpt lat="43.931595518919195" lon="11.639393473784205"><ele>708.0</ele><time>2026-04-29T13:32:15Z</time></trkpt><trkpt lat="43.93165793835635" lon="11.639587001172556"><ele>708.0</ele><time>2026-04-29T13:32:16Z</time></trkpt><trkpt lat="43.93172733326531" lon="11.63979888666235"><ele>713.0</ele><time>2026-04-29T13:32:17Z</time></trkpt><trkpt lat="43.93180008541377" lon="11.640021501286398"><ele>718.0</ele><time>2026-04-29T13:32:18Z</time></trkpt><trkpt lat="43.93186567342817" lon="11.640224724342486"><ele>723.0</ele><time>2026-04-29T13:32:19Z</time></trkpt><trkpt lat="43.931924659855774" lon="11.64040749253643"><ele>724.5</ele><time>2026-04-29T13:32:20Z</time></trkpt><trkpt lat="43.93200243523767" lon="11.640574115390804"><ele>726.0</ele><time>2026-04-29T13:32:21Z</time></trkpt><trkpt lat="43.93211911677536" lon="11.640709650869264"><ele>727.5</ele><time>2026-04-29T13:32:22Z</time></trkpt><trkpt lat="43.93222450088816" lon="11.640842936251785"><ele>729.0</ele><time>2026-04-29T13:32:23Z</time></trkpt><trkpt lat="43.93228161958811" lon="11.640973900628959"><ele>733.25</ele><time>2026-04-29T13:32:24Z</time></trkpt><trkpt lat="43.93230452219885" lon="11.641140340308016"><ele>737.5</ele><time>2026-04-29T13:32:25Z</time></trkpt><trkpt lat="43.932300609877714" lon="11.641301300106537"><ele>741.75</ele><time>2026-04-29T13:32:26Z</time></trkpt><trkpt lat="43.93228711067371" lon="11.64146870028752"><ele>746.0</ele><time>2026-04-29T13:32:27Z</time></trkpt><trkpt lat="43.9322472824565" lon="11.641630251240882"><ele>746.0</ele><time>2026-04-29T13:32:28Z</time></trkpt><trkpt lat="43.93216930034396" lon="11.64178475515449"><ele>746.0</ele><time>2026-04-29T13:32:29Z</time></trkpt><trkpt lat="43.93205856478426" lon="11.641904244429528"><ele>746.0</ele><time>2026-04-29T13:32:30Z</time></trkpt><trkpt lat="43.931974328527296" lon="11.642033112344974"><ele>746.0</ele><time>2026-04-29T13:32:31Z</time></trkpt><trkpt lat="43.93187282880327" lon="11.642160360558632"><ele>750.5</ele><time>2026-04-29T13:32:32Z</time></trkpt><trkpt lat="43.93181354993231" lon="11.642357297956092"><ele>755.0</ele><time>2026-04-29T13:32:33Z</time></trkpt><trkpt lat="43.931797517386876" lon="11.642566328287561"><ele>759.5</ele><time>2026-04-29T13:32:34Z</time></trkpt><trkpt lat="43.93182274477243" lon="11.64272447662359"><ele>764.0</ele><time>2026-04-29T13:32:35Z</time></trkpt><trkpt lat="43.93185537871627" lon="11.64284985629237"><ele>765.75</ele><time>2026-04-29T13:32:36Z</time></trkpt><trkpt lat="43.93193279641816" lon="11.642978790020932"><ele>767.5</ele><time>2026-04-29T13:32:37Z</time></trkpt><trkpt lat="43.93200207893263" lon="11.64315018530033"><ele>769.25</ele><time>2026-04-29T13:32:38Z</time></trkpt><trkpt lat="43.93206099318802" lon="11.643312534193361"><ele>771.0</ele><time>2026-04-29T13:32:39Z</time></trkpt><trkpt lat="43.932107088650554" lon="11.643460286922785"><ele>771.0</ele><time>2026-04-29T13:32:40Z</time></trkpt><trkpt lat="43.932098661949745" lon="11.64361924552279"><ele>771.0</ele><time>2026-04-29T13:32:41Z</time></trkpt><trkpt lat="43.932028239194565" lon="11.643778640170527"><ele>771.0</ele><time>2026-04-29T13:32:42Z</time></trkpt><trkpt lat="43.9319756013378" lon="11.643925089168215"><ele>771.0</ele><time>2026-04-29T13:32:43Z</time></trkpt><trkpt lat="43.931947428188515" lon="11.64407738944284"><ele>772.5</ele><time>2026-04-29T13:32:44Z</time></trkpt><trkpt lat="43.93200950727049" lon="11.644273757889902"><ele>774.0</ele><time>2026-04-29T13:32:45Z</time></trkpt><trkpt lat="43.93196488590435" lon="11.644411562030045"><ele>775.5</ele><time>2026-04-29T13:32:46Z</time></trkpt><trkpt lat="43.931895135012766" lon="11.64448014137386"><ele>777.0</ele><time>2026-04-29T13:32:47Z</time></trkpt><trkpt lat="43.93175798799475" lon="11.64453239663028"><ele>771.75</ele><time>2026-04-29T13:32:48Z</time></trkpt><trkpt lat="43.93159299823948" lon="11.644562245903003"><ele>766.5</ele><time>2026-04-29T13:32:49Z</time></trkpt><trkpt lat="43.931457215392754" lon="11.644578940608843"><ele>761.25</ele><time>2026-04-29T13:32:50Z</time></trkpt><trkpt lat="43.93134617173156" lon="11.64461694059349"><ele>756.0</ele><time>2026-04-29T13:32:51Z</time></trkpt><trkpt lat="43.93127511875936" lon="11.6447119045802"><ele>756.0</ele><time>2026-04-29T13:32:52Z</time></trkpt><trkpt lat="43.93123692952916" lon="11.644807995763571"><ele>756.0</ele><time>2026-04-29T13:32:53Z</time></trkpt><trkpt lat="43.931238759116724" lon="11.644938954807762"><ele>756.0</ele><time>2026-04-29T13:32:54Z</time></trkpt><trkpt lat="43.93128595623648" lon="11.645150768450138"><ele>756.0</ele><time>2026-04-29T13:32:55Z</time></trkpt><trkpt lat="43.93130700048529" lon="11.645406768087403"><ele>755.5</ele><time>2026-04-29T13:32:56Z</time></trkpt><trkpt lat="43.93127915134337" lon="11.645593844847658"><ele>755.0</ele><time>2026-04-29T13:32:57Z</time></trkpt><trkpt lat="43.931290210999606" lon="11.64574231811633"><ele>754.5</ele><time>2026-04-29T13:32:58Z</time></trkpt><trkpt lat="43.93135973615006" lon="11.6458580267188"><ele>754.0</ele><time>2026-04-29T13:32:59Z</time></trkpt><trkpt lat="43.93151931822573" lon="11.645928168302875"><ele>754.0</ele><time>2026-04-29T13:33:00Z</time></trkpt><trkpt lat="43.931654724330976" lon="11.64592388552502"><ele>754.0</ele><time>2026-04-29T13:33:01Z</time></trkpt><trkpt lat="43.93177180616862" lon="11.645971160211351"><ele>754.0</ele><time>2026-04-29T13:33:02Z</time></trkpt><trkpt lat="43.931903931567504" lon="11.646083233622685"><ele>754.0</ele><time>2026-04-29T13:33:03Z</time></trkpt><trkpt lat="43.932101114918154" lon="11.646226370449384"><ele>757.3333333333334</ele><time>2026-04-29T13:33:04Z</time></trkpt><trkpt lat="43.93226937111871" lon="11.646314971273396"><ele>760.6666666666666</ele><time>2026-04-29T13:33:05Z</time></trkpt><trkpt lat="43.93244018444371" lon="11.64635246702792"><ele>764.0</ele><time>2026-04-29T13:33:06Z</time></trkpt><trkpt lat="43.93256404278812" lon="11.646416610222365"><ele>764.0</ele><time>2026-04-29T13:33:07Z</time></trkpt><trkpt lat="43.93263924127828" lon="11.646501673303424"><ele>764.0</ele><time>2026-04-29T13:33:08Z</time></trkpt><trkpt lat="43.932651845602706" lon="11.646622848389953"><ele>764.0</ele><time>2026-04-29T13:33:09Z</time></trkpt><trkpt lat="43.932604786084525" lon="11.64673413292781"><ele>764.0</ele><time>2026-04-29T13:33:10Z</time></trkpt><trkpt lat="43.93254269916721" lon="11.64682771922447"><ele>764.0</ele><time>2026-04-29T13:33:11Z</time></trkpt><trkpt lat="43.93245229780528" lon="11.646918859226414"><ele>763.0</ele><time>2026-04-29T13:33:12Z</time></trkpt><trkpt lat="43.93233147256411" lon="11.647033691454098"><ele>762.0</ele><time>2026-04-29T13:33:13Z</time></trkpt><trkpt lat="43.93225398579112" lon="11.647140840252264"><ele>761.0</ele><time>2026-04-29T13:33:14Z</time></trkpt><trkpt lat="43.93222521584387" lon="11.64725629606727"><ele>760.0</ele><time>2026-04-29T13:33:15Z</time></trkpt><trkpt lat="43.93224073312223" lon="11.647412742848916"><ele>760.0</ele><time>2026-04-29T13:33:16Z</time></trkpt><trkpt lat="43.93232226888837" lon="11.647528499640282"><ele>760.0</ele><time>2026-04-29T13:33:17Z</time></trkpt><trkpt lat="43.93242592309836" lon="11.647561649337172"><ele>760.0</ele><time>2026-04-29T13:33:18Z</time></trkpt><trkpt lat="43.932523516873005" lon="11.647508744846338"><ele>760.0</ele><time>2026-04-29T13:33:19Z</time></trkpt><trkpt lat="43.93260281253771" lon="11.647400521954156"><ele>760.0</ele><time>2026-04-29T13:33:20Z</time></trkpt><trkpt lat="43.93262617674048" lon="11.647306843987801"><ele>764.5</ele><time>2026-04-29T13:33:21Z</time></trkpt><trkpt lat="43.93264359757011" lon="11.64714649483734"><ele>769.0</ele><time>2026-04-29T13:33:22Z</time></trkpt><trkpt lat="43.93267669334795" lon="11.646949297561946"><ele>773.5</ele><time>2026-04-29T13:33:23Z</time></trkpt><trkpt lat="43.93276203466298" lon="11.646750293763992"><ele>778.0</ele><time>2026-04-29T13:33:24Z</time></trkpt><trkpt lat="43.93286499236708" lon="11.646593904242179"><ele>781.4</ele><time>2026-04-29T13:33:25Z</time></trkpt><trkpt lat="43.9329437690386" lon="11.646467156617032"><ele>784.8</ele><time>2026-04-29T13:33:26Z</time></trkpt><trkpt lat="43.93298487184519" lon="11.646350902562853"><ele>788.2</ele><time>2026-04-29T13:33:27Z</time></trkpt><trkpt lat="43.93293244789939" lon="11.646224921644217"><ele>791.6</ele><time>2026-04-29T13:33:28Z</time></trkpt><trkpt lat="43.932834818952145" lon="11.646169722197918"><ele>795.0</ele><time>2026-04-29T13:33:29Z</time></trkpt><trkpt lat="43.93269390727986" lon="11.646103109827733"><ele>792.3333333333333</ele><time>2026-04-29T13:33:30Z</time></trkpt><trkpt lat="43.93257066850246" lon="11.64598857181027"><ele>789.6666666666666</ele><time>2026-04-29T13:33:31Z</time></trkpt><trkpt lat="43.9324365315263" lon="11.645886343565461"><ele>787.0</ele><time>2026-04-29T13:33:32Z</time></trkpt><trkpt lat="43.93227893746869" lon="11.645745324457137"><ele>787.0</ele><time>2026-04-29T13:33:33Z</time></trkpt><trkpt lat="43.93216031636609" lon="11.645627387770835"><ele>787.0</ele><time>2026-04-29T13:33:34Z</time></trkpt><trkpt lat="43.93209118406282" lon="11.645554330385666"><ele>787.0</ele><time>2026-04-29T13:33:35Z</time></trkpt><trkpt lat="43.9320221999013" lon="11.645446553027808"><ele>787.0</ele><time>2026-04-29T13:33:36Z</time></trkpt><trkpt lat="43.93201164574592" lon="11.645342893528577"><ele>787.0</ele><time>2026-04-29T13:33:37Z</time></trkpt><trkpt lat="43.932087592160194" lon="11.64524552431641"><ele>788.25</ele><time>2026-04-29T13:33:38Z</time></trkpt><trkpt lat="43.932196278495695" lon="11.645194958387071"><ele>789.5</ele><time>2026-04-29T13:33:39Z</time></trkpt><trkpt lat="43.9323470668564" lon="11.645138957940164"><ele>790.75</ele><time>2026-04-29T13:33:40Z</time></trkpt><trkpt lat="43.93248590336444" lon="11.645061290065167"><ele>792.0</ele><time>2026-04-29T13:33:41Z</time></trkpt><trkpt lat="43.9326096790437" lon="11.644937786118785"><ele>800.5</ele><time>2026-04-29T13:33:42Z</time></trkpt><trkpt lat="43.932734992902745" lon="11.64475705464175"><ele>809.0</ele><time>2026-04-29T13:33:43Z</time></trkpt><trkpt lat="43.93283554177954" lon="11.644602765196918"><ele>817.5</ele><time>2026-04-29T13:33:44Z</time></trkpt><trkpt lat="43.932888841724306" lon="11.644485162249245"><ele>826.0</ele><time>2026-04-29T13:33:45Z</time></trkpt><trkpt lat="43.93286556189014" lon="11.644271798946141"><ele>826.0</ele><time>2026-04-29T13:33:46Z</time></trkpt><trkpt lat="43.932852075985494" lon="11.644074120141193"><ele>826.0</ele><time>2026-04-29T13:33:47Z</time></trkpt><trkpt lat="43.932945893446714" lon="11.643868222270573"><ele>826.0</ele><time>2026-04-29T13:33:48Z</time></trkpt><trkpt lat="43.93301677218859" lon="11.643623994686392"><ele>820.6666666666666</ele><time>2026-04-29T13:33:49Z</time></trkpt><trkpt lat="43.93307181938174" lon="11.643362675430385"><ele>815.3333333333333</ele><time>2026-04-29T13:33:50Z</time></trkpt><trkpt lat="43.93307100906723" lon="11.643176327220203"><ele>810.0</ele><time>2026-04-29T13:33:51Z</time></trkpt><trkpt lat="43.93303603640948" lon="11.642979863125246"><ele>810.0</ele><time>2026-04-29T13:33:52Z</time></trkpt><trkpt lat="43.93299148026497" lon="11.642843648180497"><ele>810.0</ele><time>2026-04-29T13:33:53Z</time></trkpt><trkpt lat="43.932966967749756" lon="11.64276284216607"><ele>810.0</ele><time>2026-04-29T13:33:54Z</time></trkpt><trkpt lat="43.933016007929446" lon="11.642706895090916"><ele>810.0</ele><time>2026-04-29T13:33:55Z</time></trkpt><trkpt lat="43.93310373786875" lon="11.64279755096093"><ele>810.0</ele><time>2026-04-29T13:33:57Z</time></trkpt><trkpt lat="43.9331494305458" lon="11.642887307298096"><ele>810.0</ele><time>2026-04-29T13:33:58Z</time></trkpt><trkpt lat="43.93324012586055" lon="11.643040205732436"><ele>808.3333333333333</ele><time>2026-04-29T13:33:59Z</time></trkpt><trkpt lat="43.93340270255606" lon="11.643324648705182"><ele>806.6666666666666</ele><time>2026-04-29T13:34:00Z</time></trkpt><trkpt lat="43.933511223179586" lon="11.643478510488137"><ele>805.0</ele><time>2026-04-29T13:34:01Z</time></trkpt><trkpt lat="43.93365056351147" lon="11.64363854138218"><ele>814.0</ele><time>2026-04-29T13:34:02Z</time></trkpt><trkpt lat="43.93383243015713" lon="11.643820357943826"><ele>823.0</ele><time>2026-04-29T13:34:03Z</time></trkpt><trkpt lat="43.93399909530969" lon="11.64399197660198"><ele>832.0</ele><time>2026-04-29T13:34:04Z</time></trkpt><trkpt lat="43.93416053733816" lon="11.644145984460312"><ele>828.3333333333333</ele><time>2026-04-29T13:34:05Z</time></trkpt><trkpt lat="43.93432390631668" lon="11.644305316938116"><ele>824.6666666666667</ele><time>2026-04-29T13:34:06Z</time></trkpt><trkpt lat="43.93449244892877" lon="11.64443004656042"><ele>821.0</ele><time>2026-04-29T13:34:07Z</time></trkpt><trkpt lat="43.93470771162089" lon="11.644511649408093"><ele>833.0</ele><time>2026-04-29T13:34:08Z</time></trkpt><trkpt lat="43.93489139355913" lon="11.644608816017763"><ele>845.0</ele><time>2026-04-29T13:34:09Z</time></trkpt><trkpt lat="43.935065346191394" lon="11.64468496778422"><ele>857.0</ele><time>2026-04-29T13:34:10Z</time></trkpt><trkpt lat="43.93519008525234" lon="11.64473959065034"><ele>858.75</ele><time>2026-04-29T13:34:11Z</time></trkpt><trkpt lat="43.93528998788216" lon="11.644734136206843"><ele>860.5</ele><time>2026-04-29T13:34:12Z</time></trkpt><trkpt lat="43.93542287414085" lon="11.644643415656894"><ele>862.25</ele><time>2026-04-29T13:34:13Z</time></trkpt><trkpt lat="43.935498950943575" lon="11.644470021999016"><ele>864.0</ele><time>2026-04-29T13:34:14Z</time></trkpt><trkpt lat="43.935613622350594" lon="11.644411496702999"><ele>864.0</ele><time>2026-04-29T13:34:15Z</time></trkpt><trkpt lat="43.93571096822773" lon="11.644472161146734"><ele>864.0</ele><time>2026-04-29T13:34:16Z</time></trkpt><trkpt lat="43.935800282286394" lon="11.644591692524875"><ele>864.0</ele><time>2026-04-29T13:34:17Z</time></trkpt><trkpt lat="43.93587007116415" lon="11.64474088180777"><ele>864.0</ele><time>2026-04-29T13:34:18Z</time></trkpt><trkpt lat="43.935978515075625" lon="11.644750413650852"><ele>866.25</ele><time>2026-04-29T13:34:19Z</time></trkpt><trkpt lat="43.93609912651971" lon="11.644687956934506"><ele>868.5</ele><time>2026-04-29T13:34:20Z</time></trkpt><trkpt lat="43.936141534245856" lon="11.644508445345288"><ele>870.75</ele><time>2026-04-29T13:34:21Z</time></trkpt><trkpt lat="43.93619710627346" lon="11.644312040721982"><ele>873.0</ele><time>2026-04-29T13:34:22Z</time></trkpt><trkpt lat="43.936255155791464" lon="11.64410565578723"><ele>873.0</ele><time>2026-04-29T13:34:23Z</time></trkpt><trkpt lat="43.936306484044735" lon="11.643905984026645"><ele>873.0</ele><time>2026-04-29T13:34:24Z</time></trkpt><trkpt lat="43.9362964116191" lon="11.64371716720456"><ele>873.0</ele><time>2026-04-29T13:34:25Z</time></trkpt><trkpt lat="43.93622187530691" lon="11.643579613529287"><ele>873.0</ele><time>2026-04-29T13:34:26Z</time></trkpt><trkpt lat="43.93609032221271" lon="11.64346707821986"><ele>870.2</ele><time>2026-04-29T13:34:27Z</time></trkpt><trkpt lat="43.93596446896359" lon="11.643395508331276"><ele>867.4</ele><time>2026-04-29T13:34:28Z</time></trkpt><trkpt lat="43.93591417653531" lon="11.643291941211878"><ele>864.6000000000001</ele><time>2026-04-29T13:34:29Z</time></trkpt><trkpt lat="43.93591327279409" lon="11.643190422835524"><ele>861.8000000000001</ele><time>2026-04-29T13:34:30Z</time></trkpt><trkpt lat="43.93595350537172" lon="11.643085011503905"><ele>859.0</ele><time>2026-04-29T13:34:31Z</time></trkpt><trkpt lat="43.93605547700604" lon="11.643050264121172"><ele>859.0</ele><time>2026-04-29T13:34:32Z</time></trkpt><trkpt lat="43.9361563917253" lon="11.643100768178225"><ele>859.0</ele><time>2026-04-29T13:34:33Z</time></trkpt><trkpt lat="43.93622276421846" lon="11.643218904299633"><ele>859.0</ele><time>2026-04-29T13:34:34Z</time></trkpt><trkpt lat="43.93628602002437" lon="11.643400683423822"><ele>859.0</ele><time>2026-04-29T13:34:35Z</time></trkpt><trkpt lat="43.93636903622842" lon="11.64362219801212"><ele>863.6666666666666</ele><time>2026-04-29T13:34:36Z</time></trkpt><trkpt lat="43.93643593694028" lon="11.643887259169531"><ele>868.3333333333333</ele><time>2026-04-29T13:34:37Z</time></trkpt><trkpt lat="43.93649076211677" lon="11.644169432152546"><ele>873.0</ele><time>2026-04-29T13:34:38Z</time></trkpt><trkpt lat="43.93652493639495" lon="11.644409395348303"><ele>874.0</ele><time>2026-04-29T13:34:39Z</time></trkpt><trkpt lat="43.93661404252388" lon="11.644633765479336"><ele>875.0</ele><time>2026-04-29T13:34:40Z</time></trkpt><trkpt lat="43.936708082201875" lon="11.644811911091931"><ele>876.0</ele><time>2026-04-29T13:34:41Z</time></trkpt><trkpt lat="43.936736287404074" lon="11.644934365381713"><ele>877.0</ele><time>2026-04-29T13:34:42Z</time></trkpt><trkpt lat="43.936732252223464" lon="11.645081622692553"><ele>877.0</ele><time>2026-04-29T13:34:43Z</time></trkpt><trkpt lat="43.93668134540983" lon="11.645161136577881"><ele>877.0</ele><time>2026-04-29T13:34:44Z</time></trkpt><trkpt lat="43.93657674601204" lon="11.645214266818318"><ele>877.0</ele><time>2026-04-29T13:34:45Z</time></trkpt><trkpt lat="43.936437132802425" lon="11.64521666613017"><ele>877.0</ele><time>2026-04-29T13:34:46Z</time></trkpt><trkpt lat="43.93624311653852" lon="11.645248933395402"><ele>880.3333333333333</ele><time>2026-04-29T13:34:47Z</time></trkpt><trkpt lat="43.93606124681234" lon="11.645322594847485"><ele>883.6666666666667</ele><time>2026-04-29T13:34:48Z</time></trkpt><trkpt lat="43.93587523898543" lon="11.645410597878076"><ele>887.0</ele><time>2026-04-29T13:34:49Z</time></trkpt><trkpt lat="43.93572715643998" lon="11.645492722999347"><ele>887.0</ele><time>2026-04-29T13:34:50Z</time></trkpt><trkpt lat="43.93554226199054" lon="11.645613887888233"><ele>887.0</ele><time>2026-04-29T13:34:51Z</time></trkpt><trkpt lat="43.93537447202333" lon="11.645657769214115"><ele>887.0</ele><time>2026-04-29T13:34:52Z</time></trkpt><trkpt lat="43.93520971020392" lon="11.645667043007787"><ele>887.0</ele><time>2026-04-29T13:34:53Z</time></trkpt><trkpt lat="43.93508111363542" lon="11.645673843018464"><ele>887.0</ele><time>2026-04-29T13:34:54Z</time></trkpt><trkpt lat="43.93498716476367" lon="11.645712520524794"><ele>887.0</ele><time>2026-04-29T13:34:55Z</time></trkpt><trkpt lat="43.9349141170213" lon="11.64574547261784"><ele>887.0</ele><time>2026-04-29T13:34:56Z</time></trkpt><trkpt lat="43.93487392184331" lon="11.645828541925214"><ele>887.0</ele><time>2026-04-29T13:34:57Z</time></trkpt><trkpt lat="43.93489525466529" lon="11.64596010755124"><ele>884.0</ele><time>2026-04-29T13:34:58Z</time></trkpt><trkpt lat="43.934965282701334" lon="11.646081542999184"><ele>881.0</ele><time>2026-04-29T13:34:59Z</time></trkpt><trkpt lat="43.93508479013239" lon="11.646221192463699"><ele>878.0</ele><time>2026-04-29T13:35:00Z</time></trkpt><trkpt lat="43.93521686651527" lon="11.646332959716496"><ele>875.0</ele><time>2026-04-29T13:35:01Z</time></trkpt><trkpt lat="43.93536723578999" lon="11.646477346128997"><ele>880.25</ele><time>2026-04-29T13:35:02Z</time></trkpt><trkpt lat="43.93549285653355" lon="11.646550097456952"><ele>885.5</ele><time>2026-04-29T13:35:03Z</time></trkpt><trkpt lat="43.93558468369521" lon="11.646683936178851"><ele>890.75</ele><time>2026-04-29T13:35:04Z</time></trkpt><trkpt lat="43.93559362078224" lon="11.646872422461765"><ele>896.0</ele><time>2026-04-29T13:35:05Z</time></trkpt><trkpt lat="43.93564552106226" lon="11.647100432016304"><ele>896.0</ele><time>2026-04-29T13:35:06Z</time></trkpt><trkpt lat="43.93569838138003" lon="11.647321070021485"><ele>896.0</ele><time>2026-04-29T13:35:07Z</time></trkpt><trkpt lat="43.93579855965283" lon="11.647479596392023"><ele>896.0</ele><time>2026-04-29T13:35:08Z</time></trkpt><trkpt lat="43.93593957033527" lon="11.647673006777781"><ele>909.0</ele><time>2026-04-29T13:35:09Z</time></trkpt><trkpt lat="43.936106974545915" lon="11.647904761630617"><ele>922.0</ele><time>2026-04-29T13:35:10Z</time></trkpt><trkpt lat="43.93616320397485" lon="11.648083005134325"><ele>935.0</ele><time>2026-04-29T13:35:11Z</time></trkpt><trkpt lat="43.93619033735112" lon="11.648219378321203"><ele>935.0</ele><time>2026-04-29T13:35:12Z</time></trkpt><trkpt lat="43.936155328690965" lon="11.648360334157754"><ele>935.0</ele><time>2026-04-29T13:35:13Z</time></trkpt><trkpt lat="43.93609516100688" lon="11.648510417876217"><ele>935.0</ele><time>2026-04-29T13:35:14Z</time></trkpt><trkpt lat="43.93607984169384" lon="11.648664555560305"><ele>935.0</ele><time>2026-04-29T13:35:15Z</time></trkpt><trkpt lat="43.93610745820055" lon="11.648803470004038"><ele>935.0</ele><time>2026-04-29T13:35:16Z</time></trkpt><trkpt lat="43.9361796904909" lon="11.648969318700471"><ele>936.3333333333334</ele><time>2026-04-29T13:35:17Z</time></trkpt><trkpt lat="43.936247389414255" lon="11.649157012217774"><ele>937.6666666666667</ele><time>2026-04-29T13:35:18Z</time></trkpt><trkpt lat="43.93626000517611" lon="11.649371011930928"><ele>939.0</ele><time>2026-04-29T13:35:19Z</time></trkpt><trkpt lat="43.93625113304245" lon="11.649594546369304"><ele>940.25</ele><time>2026-04-29T13:35:20Z</time></trkpt><trkpt lat="43.936217165489204" lon="11.649788014268331"><ele>941.5</ele><time>2026-04-29T13:35:21Z</time></trkpt><trkpt lat="43.93614078859808" lon="11.649924597635732"><ele>942.75</ele><time>2026-04-29T13:35:22Z</time></trkpt><trkpt lat="43.9360345206591" lon="11.649969710798821"><ele>944.0</ele><time>2026-04-29T13:35:23Z</time></trkpt><trkpt lat="43.935913739736655" lon="11.65004017794132"><ele>931.6666666666667</ele><time>2026-04-29T13:35:24Z</time></trkpt><trkpt lat="43.935813955332904" lon="11.650152043351126"><ele>919.3333333333333</ele><time>2026-04-29T13:35:25Z</time></trkpt><trkpt lat="43.93576142777507" lon="11.650354326395705"><ele>907.0</ele><time>2026-04-29T13:35:26Z</time></trkpt><trkpt lat="43.93567705880242" lon="11.650572213075732"><ele>907.0</ele><time>2026-04-29T13:35:27Z</time></trkpt><trkpt lat="43.935647161357636" lon="11.650834910607847"><ele>907.0</ele><time>2026-04-29T13:35:28Z</time></trkpt><trkpt lat="43.93563518800511" lon="11.651060325331306"><ele>907.0</ele><time>2026-04-29T13:35:29Z</time></trkpt><trkpt lat="43.93554876121326" lon="11.651248560485868"><ele>915.3333333333333</ele><time>2026-04-29T13:35:30Z</time></trkpt><trkpt lat="43.93542986224318" lon="11.651457184567974"><ele>923.6666666666667</ele><time>2026-04-29T13:35:31Z</time></trkpt><trkpt lat="43.935314294338895" lon="11.651673257720244"><ele>932.0</ele><time>2026-04-29T13:35:32Z</time></trkpt><trkpt lat="43.93518800985034" lon="11.651909633369277"><ele>933.0</ele><time>2026-04-29T13:35:33Z</time></trkpt><trkpt lat="43.93507141116742" lon="11.652128006616554"><ele>934.0</ele><time>2026-04-29T13:35:34Z</time></trkpt><trkpt lat="43.934956763598706" lon="11.652312838478007"><ele>935.0</ele><time>2026-04-29T13:35:35Z</time></trkpt><trkpt lat="43.93480919031021" lon="11.652423490402622"><ele>928.6666666666667</ele><time>2026-04-29T13:35:36Z</time></trkpt><trkpt lat="43.93462523286053" lon="11.652549696233883"><ele>922.3333333333333</ele><time>2026-04-29T13:35:37Z</time></trkpt><trkpt lat="43.93445854699158" lon="11.652636067609578"><ele>916.0</ele><time>2026-04-29T13:35:38Z</time></trkpt><trkpt lat="43.93429443683157" lon="11.652700953653476"><ele>915.6666666666666</ele><time>2026-04-29T13:35:39Z</time></trkpt><trkpt lat="43.934157962364" lon="11.652809932880988"><ele>915.3333333333333</ele><time>2026-04-29T13:35:40Z</time></trkpt><trkpt lat="43.93404476959579" lon="11.652914121686193"><ele>915.0</ele><time>2026-04-29T13:35:41Z</time></trkpt><trkpt lat="43.933938882535195" lon="11.653123477344568"><ele>915.0</ele><time>2026-04-29T13:35:42Z</time></trkpt><trkpt lat="43.93386894121804" lon="11.653372222280685"><ele>915.0</ele><time>2026-04-29T13:35:43Z</time></trkpt><trkpt lat="43.93380068814841" lon="11.653569195821314"><ele>915.0</ele><time>2026-04-29T13:35:44Z</time></trkpt><trkpt lat="43.93368862926563" lon="11.653734863460391"><ele>911.6666666666667</ele><time>2026-04-29T13:35:45Z</time></trkpt><trkpt lat="43.93351914408845" lon="11.653855094941283"><ele>908.3333333333334</ele><time>2026-04-29T13:35:46Z</time></trkpt><trkpt lat="43.933360396884254" lon="11.65394931504532"><ele>905.0</ele><time>2026-04-29T13:35:47Z</time></trkpt><trkpt lat="43.93323580859728" lon="11.65406504265076"><ele>905.0</ele><time>2026-04-29T13:35:48Z</time></trkpt><trkpt lat="43.933138995369575" lon="11.65421113061489"><ele>905.0</ele><time>2026-04-29T13:35:49Z</time></trkpt><trkpt lat="43.933073654713354" lon="11.65436575766975"><ele>905.0</ele><time>2026-04-29T13:35:50Z</time></trkpt><trkpt lat="43.93301514510077" lon="11.65450473419548"><ele>905.0</ele><time>2026-04-29T13:35:51Z</time></trkpt><trkpt lat="43.932955128088906" lon="11.654627976699548"><ele>906.0000000000001</ele><time>2026-04-29T13:35:52Z</time></trkpt><trkpt lat="43.93290409722258" lon="11.654727252470549"><ele>907.0</ele><time>2026-04-29T13:35:53Z</time></trkpt><trkpt lat="43.932858124362426" lon="11.654819261409843"><ele>908.0</ele><time>2026-04-29T13:35:54Z</time></trkpt><trkpt lat="43.932817632045996" lon="11.654899185571715"><ele>909.0</ele><time>2026-04-29T13:35:55Z</time></trkpt><trkpt lat="43.932776504866766" lon="11.654967557083022"><ele>910.0000000000001</ele><time>2026-04-29T13:35:56Z</time></trkpt><trkpt lat="43.932713914345264" lon="11.655054681567819"><ele>911.0</ele><time>2026-04-29T13:35:58Z</time></trkpt><trkpt lat="43.93266612968515" lon="11.655134277880348"><ele>911.0000000000001</ele><time>2026-04-29T13:36:01Z</time></trkpt><trkpt lat="43.93262896335782" lon="11.655236412067891"><ele>911.0</ele><time>2026-04-29T13:36:46Z</time></trkpt><trkpt lat="43.9325898392365" lon="11.655320409399557"><ele>911.0</ele><time>2026-04-29T13:36:48Z</time></trkpt><trkpt lat="43.932655039561006" lon="11.655344342565378"><ele>911.0</ele><time>2026-04-29T14:09:19.999Z</time></trkpt><trkpt lat="43.93270734525085" lon="11.65525419620803"><ele>911.0000000000001</ele><time>2026-04-29T14:09:21.999Z</time></trkpt><trkpt lat="43.932775352636746" lon="11.655130738921054"><ele>911.0</ele><time>2026-04-29T14:09:23.999Z</time></trkpt><trkpt lat="43.93281548525497" lon="11.655056935679339"><ele>911.0</ele><time>2026-04-29T14:09:24.999Z</time></trkpt><trkpt lat="43.93285573131705" lon="11.65498002709368"><ele>911.0</ele><time>2026-04-29T14:09:25.999Z</time></trkpt><trkpt lat="43.93290099392111" lon="11.654893515501401"><ele>911.0</ele><time>2026-04-29T14:09:26.999Z</time></trkpt><trkpt lat="43.93294687926163" lon="11.654797868319298"><ele>911.0</ele><time>2026-04-29T14:09:27.999Z</time></trkpt><trkpt lat="43.93299032491447" lon="11.654703890948436"><ele>911.0</ele><time>2026-04-29T14:09:28.999Z</time></trkpt><trkpt lat="43.93303277079131" lon="11.654619499264244"><ele>911.0</ele><time>2026-04-29T14:09:29.999Z</time></trkpt><trkpt lat="43.933069830478104" lon="11.654546086267258"><ele>911.0</ele><time>2026-04-29T14:09:30.999Z</time></trkpt><trkpt lat="43.933105877410995" lon="11.654472598726239"><ele>910.1428571428571</ele><time>2026-04-29T14:09:31.999Z</time></trkpt><trkpt lat="43.933140863847974" lon="11.65439025548962"><ele>909.2857142857142</ele><time>2026-04-29T14:09:33Z</time></trkpt><trkpt lat="43.933181386963945" lon="11.654302178673705"><ele>908.4285714285713</ele><time>2026-04-29T14:09:34Z</time></trkpt><trkpt lat="43.933227784970015" lon="11.65421396591036"><ele>907.5714285714286</ele><time>2026-04-29T14:09:35Z</time></trkpt><trkpt lat="43.93327634218148" lon="11.654136859366515"><ele>906.7142857142856</ele><time>2026-04-29T14:09:36Z</time></trkpt><trkpt lat="43.933321118364994" lon="11.65406783624209"><ele>905.8571428571428</ele><time>2026-04-29T14:09:37Z</time></trkpt><trkpt lat="43.93336869691269" lon="11.654003891913472"><ele>905.0</ele><time>2026-04-29T14:09:38Z</time></trkpt><trkpt lat="43.93342421251631" lon="11.653946079477599"><ele>906.6666666666667</ele><time>2026-04-29T14:09:39Z</time></trkpt><trkpt lat="43.93348428803878" lon="11.653896787090167"><ele>908.3333333333334</ele><time>2026-04-29T14:09:40Z</time></trkpt><trkpt lat="43.93354491390687" lon="11.653847395355783"><ele>910.0</ele><time>2026-04-29T14:09:41Z</time></trkpt><trkpt lat="43.93365811041948" lon="11.653765895033212"><ele>911.6666666666667</ele><time>2026-04-29T14:09:43Z</time></trkpt><trkpt lat="43.9337254102955" lon="11.65371073303479"><ele>913.3333333333334</ele><time>2026-04-29T14:09:44Z</time></trkpt><trkpt lat="43.933806673016086" lon="11.653654797774404"><ele>915.0</ele><time>2026-04-29T14:09:45Z</time></trkpt><trkpt lat="43.93386332458066" lon="11.653525103046144"><ele>915.0</ele><time>2026-04-29T14:09:46Z</time></trkpt><trkpt lat="43.93392919925239" lon="11.653384849979552"><ele>915.0</ele><time>2026-04-29T14:09:47Z</time></trkpt><trkpt lat="43.9340001642911" lon="11.653233265432869"><ele>915.0</ele><time>2026-04-29T14:09:48Z</time></trkpt><trkpt lat="43.9340889691126" lon="11.653081101943732"><ele>915.0</ele><time>2026-04-29T14:09:49Z</time></trkpt><trkpt lat="43.934155402394424" lon="11.652937370901686"><ele>915.25</ele><time>2026-04-29T14:09:50Z</time></trkpt><trkpt lat="43.93422258961388" lon="11.652809738965178"><ele>915.5</ele><time>2026-04-29T14:09:51Z</time></trkpt><trkpt lat="43.934317646320814" lon="11.652726208992537"><ele>915.75</ele><time>2026-04-29T14:09:52Z</time></trkpt><trkpt lat="43.93444431384522" lon="11.652687624905774"><ele>916.0</ele><time>2026-04-29T14:09:53Z</time></trkpt><trkpt lat="43.934597110217524" lon="11.652615397816215"><ele>916.0</ele><time>2026-04-29T14:09:54Z</time></trkpt><trkpt lat="43.934744438038386" lon="11.652518062991826"><ele>916.0</ele><time>2026-04-29T14:09:55Z</time></trkpt><trkpt lat="43.9348698193461" lon="11.652431500014371"><ele>916.0</ele><time>2026-04-29T14:09:56Z</time></trkpt><trkpt lat="43.93498537864913" lon="11.652337458987484"><ele>916.0</ele><time>2026-04-29T14:09:57Z</time></trkpt><trkpt lat="43.93509016013665" lon="11.65217241170182"><ele>921.3333333333333</ele><time>2026-04-29T14:09:58Z</time></trkpt><trkpt lat="43.93518921973568" lon="11.651984900545527"><ele>926.6666666666667</ele><time>2026-04-29T14:09:59Z</time></trkpt><trkpt lat="43.93529326431389" lon="11.651790039308729"><ele>932.0</ele><time>2026-04-29T14:10:00Z</time></trkpt><trkpt lat="43.93539982527014" lon="11.651590790691358"><ele>932.0</ele><time>2026-04-29T14:10:01Z</time></trkpt><trkpt lat="43.93550200398876" lon="11.651399751525775"><ele>932.0</ele><time>2026-04-29T14:10:02Z</time></trkpt><trkpt lat="43.93559510654439" lon="11.651221838824133"><ele>932.0</ele><time>2026-04-29T14:10:03Z</time></trkpt><trkpt lat="43.93566208383181" lon="11.651018615905024"><ele>923.6666666666667</ele><time>2026-04-29T14:10:04Z</time></trkpt><trkpt lat="43.93567152865876" lon="11.650773382452673"><ele>915.3333333333333</ele><time>2026-04-29T14:10:05Z</time></trkpt><trkpt lat="43.93573012309689" lon="11.650553109220553"><ele>907.0</ele><time>2026-04-29T14:10:06Z</time></trkpt><trkpt lat="43.935788627938095" lon="11.650368509205416"><ele>902.5</ele><time>2026-04-29T14:10:07Z</time></trkpt><trkpt lat="43.93582370686589" lon="11.650206619473117"><ele>898.0</ele><time>2026-04-29T14:10:08Z</time></trkpt><trkpt lat="43.93590222467792" lon="11.6500841955289"><ele>893.5</ele><time>2026-04-29T14:10:09Z</time></trkpt><trkpt lat="43.93601301826952" lon="11.6500241014749"><ele>889.0</ele><time>2026-04-29T14:10:10Z</time></trkpt><trkpt lat="43.93614465488574" lon="11.649986075977573"><ele>901.5</ele><time>2026-04-29T14:10:11Z</time></trkpt><trkpt lat="43.936247299418824" lon="11.649921856875789"><ele>914.0</ele><time>2026-04-29T14:10:12Z</time></trkpt><trkpt lat="43.936273823603905" lon="11.649701403048162"><ele>926.5</ele><time>2026-04-29T14:10:13Z</time></trkpt><trkpt lat="43.93631337435643" lon="11.649515254666039"><ele>939.0</ele><time>2026-04-29T14:10:14Z</time></trkpt><trkpt lat="43.936314937791074" lon="11.649301377349595"><ele>939.0</ele><time>2026-04-29T14:10:15Z</time></trkpt><trkpt lat="43.936295076748976" lon="11.64910088904402"><ele>939.0</ele><time>2026-04-29T14:10:16Z</time></trkpt><trkpt lat="43.93622043335055" lon="11.648899441360882"><ele>939.0</ele><time>2026-04-29T14:10:17Z</time></trkpt><trkpt lat="43.93617891451373" lon="11.648701376342908"><ele>938.0</ele><time>2026-04-29T14:10:18Z</time></trkpt><trkpt lat="43.93608432964973" lon="11.64856026698614"><ele>937.0</ele><time>2026-04-29T14:10:19Z</time></trkpt><trkpt lat="43.93618228671897" lon="11.648408821988076"><ele>936.0</ele><time>2026-04-29T14:10:20Z</time></trkpt><trkpt lat="43.93620455938271" lon="11.648270655208993"><ele>935.0</ele><time>2026-04-29T14:10:21Z</time></trkpt><trkpt lat="43.936206168981535" lon="11.648107902706233"><ele>935.0</ele><time>2026-04-29T14:10:22Z</time></trkpt><trkpt lat="43.936166429027146" lon="11.647953346708292"><ele>935.0</ele><time>2026-04-29T14:10:23Z</time></trkpt><trkpt lat="43.93608544320564" lon="11.64778468726259"><ele>935.0</ele><time>2026-04-29T14:10:24Z</time></trkpt><trkpt lat="43.93594860322113" lon="11.647603486201351"><ele>922.0</ele><time>2026-04-29T14:10:25Z</time></trkpt><trkpt lat="43.93582516198564" lon="11.647466833832942"><ele>909.0</ele><time>2026-04-29T14:10:26Z</time></trkpt><trkpt lat="43.93573930823868" lon="11.64729279042123"><ele>896.0</ele><time>2026-04-29T14:10:27Z</time></trkpt><trkpt lat="43.935667361777206" lon="11.647111572116232"><ele>898.0</ele><time>2026-04-29T14:10:28Z</time></trkpt><trkpt lat="43.935634368190414" lon="11.646905245652693"><ele>900.0</ele><time>2026-04-29T14:10:29Z</time></trkpt><trkpt lat="43.93559569467038" lon="11.646705102607344"><ele>902.0</ele><time>2026-04-29T14:10:30Z</time></trkpt><trkpt lat="43.93555494877318" lon="11.646583423822136"><ele>904.0</ele><time>2026-04-29T14:10:31Z</time></trkpt><trkpt lat="43.93547300604963" lon="11.64645846951168"><ele>904.0</ele><time>2026-04-29T14:10:32Z</time></trkpt><trkpt lat="43.93535833348334" lon="11.646391215081344"><ele>904.0</ele><time>2026-04-29T14:10:33Z</time></trkpt><trkpt lat="43.93521250892187" lon="11.646290299860246"><ele>904.0</ele><time>2026-04-29T14:10:34Z</time></trkpt><trkpt lat="43.93509412303415" lon="11.64610390435094"><ele>900.6</ele><time>2026-04-29T14:10:35Z</time></trkpt><trkpt lat="43.93500380938093" lon="11.64597389361065"><ele>897.2</ele><time>2026-04-29T14:10:36Z</time></trkpt><trkpt lat="43.934923742333794" lon="11.64587581436695"><ele>893.8000000000001</ele><time>2026-04-29T14:10:37Z</time></trkpt><trkpt lat="43.93491875627257" lon="11.645775346029714"><ele>890.4000000000001</ele><time>2026-04-29T14:10:38Z</time></trkpt><trkpt lat="43.9350344960817" lon="11.64569870533549"><ele>887.0</ele><time>2026-04-29T14:10:40Z</time></trkpt><trkpt lat="43.93516547997377" lon="11.64571511166866"><ele>887.0</ele><time>2026-04-29T14:10:41Z</time></trkpt><trkpt lat="43.935317547433264" lon="11.645720604600017"><ele>887.0</ele><time>2026-04-29T14:10:42Z</time></trkpt><trkpt lat="43.93545407797441" lon="11.645699105985992"><ele>887.0</ele><time>2026-04-29T14:10:43Z</time></trkpt><trkpt lat="43.93562981473036" lon="11.645615956328038"><ele>887.0</ele><time>2026-04-29T14:10:44Z</time></trkpt><trkpt lat="43.935816885586206" lon="11.64550613362664"><ele>887.0</ele><time>2026-04-29T14:10:45Z</time></trkpt><trkpt lat="43.93600243521878" lon="11.645414918093413"><ele>887.0</ele><time>2026-04-29T14:10:46Z</time></trkpt><trkpt lat="43.936197576031276" lon="11.64534459672373"><ele>883.6666666666667</ele><time>2026-04-29T14:10:47Z</time></trkpt><trkpt lat="43.93637892742354" lon="11.645285165032366"><ele>880.3333333333333</ele><time>2026-04-29T14:10:48Z</time></trkpt><trkpt lat="43.936537241977874" lon="11.645234623099055"><ele>877.0</ele><time>2026-04-29T14:10:49Z</time></trkpt><trkpt lat="43.93666242129623" lon="11.645168322031267"><ele>877.0</ele><time>2026-04-29T14:10:50Z</time></trkpt><trkpt lat="43.9367571373462" lon="11.645121633441262"><ele>877.0</ele><time>2026-04-29T14:10:51Z</time></trkpt><trkpt lat="43.93682124317606" lon="11.645026184577393"><ele>877.0</ele><time>2026-04-29T14:10:52Z</time></trkpt><trkpt lat="43.93683088670967" lon="11.644896814956457"><ele>877.0</ele><time>2026-04-29T14:10:53Z</time></trkpt><trkpt lat="43.93678774724466" lon="11.644755893751842"><ele>877.0</ele><time>2026-04-29T14:10:54Z</time></trkpt><trkpt lat="43.93669264265012" lon="11.64459797862908"><ele>875.6666666666666</ele><time>2026-04-29T14:10:55Z</time></trkpt><trkpt lat="43.9365798527822" lon="11.64442288806935"><ele>874.3333333333333</ele><time>2026-04-29T14:10:56Z</time></trkpt><trkpt lat="43.93651303235628" lon="11.644177956466661"><ele>873.0</ele><time>2026-04-29T14:10:57Z</time></trkpt><trkpt lat="43.93648046913769" lon="11.64392863403128"><ele>873.0</ele><time>2026-04-29T14:10:58Z</time></trkpt><trkpt lat="43.936438934023606" lon="11.64371739952617"><ele>873.0</ele><time>2026-04-29T14:10:59Z</time></trkpt><trkpt lat="43.936383257538346" lon="11.643515418381128"><ele>873.0</ele><time>2026-04-29T14:11:00Z</time></trkpt><trkpt lat="43.936309948933946" lon="11.64333759624566"><ele>870.2</ele><time>2026-04-29T14:11:01Z</time></trkpt><trkpt lat="43.93624300949386" lon="11.643189266106466"><ele>867.4</ele><time>2026-04-29T14:11:02Z</time></trkpt><trkpt lat="43.93618865458911" lon="11.643060777011208"><ele>864.6000000000001</ele><time>2026-04-29T14:11:03Z</time></trkpt><trkpt lat="43.9361138387199" lon="11.642967259530273"><ele>861.8000000000001</ele><time>2026-04-29T14:11:04Z</time></trkpt><trkpt lat="43.936015937011376" lon="11.642944253638698"><ele>859.0</ele><time>2026-04-29T14:11:05Z</time></trkpt><trkpt lat="43.93593060928668" lon="11.643044948389383"><ele>859.0</ele><time>2026-04-29T14:11:06Z</time></trkpt><trkpt lat="43.93588580810732" lon="11.643173212236622"><ele>859.0000000000001</ele><time>2026-04-29T14:11:07Z</time></trkpt><trkpt lat="43.93588623184616" lon="11.643315130516818"><ele>859.0000000000001</ele><time>2026-04-29T14:11:08Z</time></trkpt><trkpt lat="43.9359288022711" lon="11.643437826463035"><ele>859.0</ele><time>2026-04-29T14:11:09Z</time></trkpt><trkpt lat="43.93602436804253" lon="11.643522303727053"><ele>859.0</ele><time>2026-04-29T14:11:10Z</time></trkpt><trkpt lat="43.93612727188842" lon="11.643582707951174"><ele>861.8000000000001</ele><time>2026-04-29T14:11:11Z</time></trkpt><trkpt lat="43.9361950128022" lon="11.643678354045084"><ele>864.6000000000001</ele><time>2026-04-29T14:11:12Z</time></trkpt><trkpt lat="43.93623881643556" lon="11.643789637202705"><ele>867.4</ele><time>2026-04-29T14:11:13Z</time></trkpt><trkpt lat="43.93622916007792" lon="11.64392085434688"><ele>870.2</ele><time>2026-04-29T14:11:13.999Z</time></trkpt><trkpt lat="43.93618925171215" lon="11.64409065812484"><ele>873.0</ele><time>2026-04-29T14:11:14.999Z</time></trkpt><trkpt lat="43.93613977808232" lon="11.64430004578272"><ele>873.8</ele><time>2026-04-29T14:11:15.999Z</time></trkpt><trkpt lat="43.93610246579064" lon="11.644485555607368"><ele>874.5999999999999</ele><time>2026-04-29T14:11:16.999Z</time></trkpt><trkpt lat="43.936060199121805" lon="11.644614535777055"><ele>875.4000000000001</ele><time>2026-04-29T14:11:17.999Z</time></trkpt><trkpt lat="43.93600431705274" lon="11.644697974398921"><ele>876.2</ele><time>2026-04-29T14:11:18.999Z</time></trkpt><trkpt lat="43.93592293149122" lon="11.644722069287155"><ele>877.0</ele><time>2026-04-29T14:11:19.999Z</time></trkpt><trkpt lat="43.935837227801564" lon="11.644675752609785"><ele>873.75</ele><time>2026-04-29T14:11:20.999Z</time></trkpt><trkpt lat="43.935754063502436" lon="11.644561385663327"><ele>870.5</ele><time>2026-04-29T14:11:21.999Z</time></trkpt><trkpt lat="43.93565871200385" lon="11.644432060950102"><ele>867.25</ele><time>2026-04-29T14:11:22.999Z</time></trkpt><trkpt lat="43.93557097701367" lon="11.644376144340072"><ele>864.0</ele><time>2026-04-29T14:11:23.999Z</time></trkpt><trkpt lat="43.93545716537651" lon="11.644424043130476"><ele>864.0</ele><time>2026-04-29T14:11:24.999Z</time></trkpt><trkpt lat="43.93536991546838" lon="11.644524811350383"><ele>864.0</ele><time>2026-04-29T14:11:25.999Z</time></trkpt><trkpt lat="43.93528326160716" lon="11.644651987012717"><ele>864.0</ele><time>2026-04-29T14:11:26.999Z</time></trkpt><trkpt lat="43.93519777843057" lon="11.64470863027735"><ele>864.0</ele><time>2026-04-29T14:11:27.999Z</time></trkpt><trkpt lat="43.935072911096796" lon="11.644654503395337"><ele>861.6666666666667</ele><time>2026-04-29T14:11:28.999Z</time></trkpt><trkpt lat="43.93493320421627" lon="11.644566171956672"><ele>859.3333333333334</ele><time>2026-04-29T14:11:29.999Z</time></trkpt><trkpt lat="43.93477430595729" lon="11.64448667518491"><ele>857.0</ele><time>2026-04-29T14:11:30.999Z</time></trkpt><trkpt lat="43.93459518166609" lon="11.644413584476952"><ele>848.6666666666667</ele><time>2026-04-29T14:11:31.999Z</time></trkpt><trkpt lat="43.934437268743174" lon="11.64435138735539"><ele>840.3333333333333</ele><time>2026-04-29T14:11:32.999Z</time></trkpt><trkpt lat="43.9343070588425" lon="11.644235263635387"><ele>832.0</ele><time>2026-04-29T14:11:33.999Z</time></trkpt><trkpt lat="43.93414172811484" lon="11.644080826948631"><ele>832.0</ele><time>2026-04-29T14:11:34.999Z</time></trkpt><trkpt lat="43.933982168622705" lon="11.643909548142398"><ele>832.0</ele><time>2026-04-29T14:11:35.999Z</time></trkpt><trkpt lat="43.933825317167354" lon="11.64375766730205"><ele>832.0</ele><time>2026-04-29T14:11:36.999Z</time></trkpt><trkpt lat="43.933672567340096" lon="11.643610548796383"><ele>824.6666666666666</ele><time>2026-04-29T14:11:37.999Z</time></trkpt><trkpt lat="43.93352913214529" lon="11.643451778249505"><ele>817.3333333333333</ele><time>2026-04-29T14:11:39Z</time></trkpt><trkpt lat="43.9334126076718" lon="11.6432670881487"><ele>810.0</ele><time>2026-04-29T14:11:40Z</time></trkpt><trkpt lat="43.93331927155566" lon="11.643087713906"><ele>810.0</ele><time>2026-04-29T14:11:41Z</time></trkpt><trkpt lat="43.933230876383384" lon="11.642933138462698"><ele>810.0</ele><time>2026-04-29T14:11:42Z</time></trkpt><trkpt lat="43.93315298946644" lon="11.642798234751645"><ele>810.0</ele><time>2026-04-29T14:11:43Z</time></trkpt><trkpt lat="43.933090159487556" lon="11.64271176743087"><ele>810.0</ele><time>2026-04-29T14:11:44Z</time></trkpt><trkpt lat="43.93301667643274" lon="11.642688974813598"><ele>810.0</ele><time>2026-04-29T14:11:45Z</time></trkpt><trkpt lat="43.93295323488288" lon="11.642745040735898"><ele>810.0</ele><time>2026-04-29T14:11:46Z</time></trkpt><trkpt lat="43.932924493743485" lon="11.642837825256633"><ele>810.0</ele><time>2026-04-29T14:11:47Z</time></trkpt><trkpt lat="43.93294083312748" lon="11.642960136415283"><ele>810.0</ele><time>2026-04-29T14:11:48Z</time></trkpt><trkpt lat="43.93299204657156" lon="11.64312706126978"><ele>810.0</ele><time>2026-04-29T14:11:49Z</time></trkpt><trkpt lat="43.933018293865366" lon="11.64331918508395"><ele>810.0</ele><time>2026-04-29T14:11:50Z</time></trkpt><trkpt lat="43.9330121749283" lon="11.643511892680436"><ele>815.3333333333333</ele><time>2026-04-29T14:11:51Z</time></trkpt><trkpt lat="43.93296744776631" lon="11.643711974575043"><ele>820.6666666666666</ele><time>2026-04-29T14:11:52Z</time></trkpt><trkpt lat="43.93290615545091" lon="11.643922333207014"><ele>826.0</ele><time>2026-04-29T14:11:53Z</time></trkpt><trkpt lat="43.93283783118008" lon="11.644119980583115"><ele>826.0</ele><time>2026-04-29T14:11:54Z</time></trkpt><trkpt lat="43.9328158975763" lon="11.644309519126741"><ele>826.0</ele><time>2026-04-29T14:11:55Z</time></trkpt><trkpt lat="43.93281944180292" lon="11.644478202929301"><ele>826.0</ele><time>2026-04-29T14:11:56Z</time></trkpt><trkpt lat="43.93282002043439" lon="11.644590162330417"><ele>826.0</ele><time>2026-04-29T14:11:57Z</time></trkpt><trkpt lat="43.93276887506926" lon="11.644712172509097"><ele>826.0</ele><time>2026-04-29T14:11:58Z</time></trkpt><trkpt lat="43.93266430535331" lon="11.64481744887547"><ele>817.5</ele><time>2026-04-29T14:11:59Z</time></trkpt><trkpt lat="43.93254442157665" lon="11.64493416654696"><ele>809.0</ele><time>2026-04-29T14:12:00Z</time></trkpt><trkpt lat="43.932418160357784" lon="11.64504906915815"><ele>800.5</ele><time>2026-04-29T14:12:01Z</time></trkpt><trkpt lat="43.93229663358689" lon="11.645120845299914"><ele>792.0</ele><time>2026-04-29T14:12:02Z</time></trkpt><trkpt lat="43.93217452297334" lon="11.645166283094278"><ele>792.0</ele><time>2026-04-29T14:12:03Z</time></trkpt><trkpt lat="43.932086989963416" lon="11.645212239229817"><ele>792.0</ele><time>2026-04-29T14:12:04Z</time></trkpt><trkpt lat="43.932025053717695" lon="11.645286324563406"><ele>792.0</ele><time>2026-04-29T14:12:05Z</time></trkpt><trkpt lat="43.93198232588145" lon="11.645373737263188"><ele>792.0</ele><time>2026-04-29T14:12:06Z</time></trkpt><trkpt lat="43.932006548467164" lon="11.64551908607069"><ele>792.0</ele><time>2026-04-29T14:12:07Z</time></trkpt><trkpt lat="43.9320919994112" lon="11.645626128511037"><ele>790.3333333333333</ele><time>2026-04-29T14:12:08Z</time></trkpt><trkpt lat="43.93220397440483" lon="11.645739599974359"><ele>788.6666666666666</ele><time>2026-04-29T14:12:09Z</time></trkpt><trkpt lat="43.93233905142745" lon="11.645856753501207"><ele>787.0</ele><time>2026-04-29T14:12:10Z</time></trkpt><trkpt lat="43.93249235361333" lon="11.645972285371405"><ele>789.0</ele><time>2026-04-29T14:12:11Z</time></trkpt><trkpt lat="43.93263979278775" lon="11.646068086021923"><ele>791.0</ele><time>2026-04-29T14:12:12Z</time></trkpt><trkpt lat="43.93274866457581" lon="11.646171703618123"><ele>793.0</ele><time>2026-04-29T14:12:13Z</time></trkpt><trkpt lat="43.93284310240297" lon="11.646242441647267"><ele>795.0</ele><time>2026-04-29T14:12:14Z</time></trkpt><trkpt lat="43.93290849335562" lon="11.64630766712164"><ele>795.0</ele><time>2026-04-29T14:12:15Z</time></trkpt><trkpt lat="43.932942893523816" lon="11.646385342696343"><ele>795.0</ele><time>2026-04-29T14:12:16Z</time></trkpt><trkpt lat="43.93293271654972" lon="11.646496451435732"><ele>795.0</ele><time>2026-04-29T14:12:17Z</time></trkpt><trkpt lat="43.932853150346226" lon="11.646606853162908"><ele>795.0</ele><time>2026-04-29T14:12:18Z</time></trkpt><trkpt lat="43.932745208944645" lon="11.64674199545373"><ele>795.0</ele><time>2026-04-29T14:12:19Z</time></trkpt><trkpt lat="43.93265890546925" lon="11.646921196936427"><ele>791.6</ele><time>2026-04-29T14:12:20Z</time></trkpt><trkpt lat="43.93261393148396" lon="11.647095142119209"><ele>788.2</ele><time>2026-04-29T14:12:21Z</time></trkpt><trkpt lat="43.932573419348714" lon="11.647251567163968"><ele>784.8</ele><time>2026-04-29T14:12:22Z</time></trkpt><trkpt lat="43.93254739884641" lon="11.647367424580098"><ele>781.4</ele><time>2026-04-29T14:12:23Z</time></trkpt><trkpt lat="43.9325093097927" lon="11.647451466525924"><ele>778.0</ele><time>2026-04-29T14:12:24Z</time></trkpt><trkpt lat="43.932422603144026" lon="11.64747354953166"><ele>774.9999999999999</ele><time>2026-04-29T14:12:25Z</time></trkpt><trkpt lat="43.93233784082382" lon="11.64743299065142"><ele>772.0</ele><time>2026-04-29T14:12:26Z</time></trkpt><trkpt lat="43.93228156151758" lon="11.647347516466063"><ele>769.0</ele><time>2026-04-29T14:12:27Z</time></trkpt><trkpt lat="43.93225218347609" lon="11.64723106177286"><ele>766.0</ele><time>2026-04-29T14:12:28Z</time></trkpt><trkpt lat="43.93228426170038" lon="11.647131777648791"><ele>763.0</ele><time>2026-04-29T14:12:29Z</time></trkpt><trkpt lat="43.93234906093047" lon="11.64702652103305"><ele>760.0</ele><time>2026-04-29T14:12:30Z</time></trkpt><trkpt lat="43.932445344498156" lon="11.646982819268406"><ele>760.6666666666667</ele><time>2026-04-29T14:12:31Z</time></trkpt><trkpt lat="43.9325100321185" lon="11.646895333845324"><ele>761.3333333333334</ele><time>2026-04-29T14:12:32Z</time></trkpt><trkpt lat="43.93256557316093" lon="11.646820609163196"><ele>762.0</ele><time>2026-04-29T14:12:33Z</time></trkpt><trkpt lat="43.9326124092649" lon="11.646745185611994"><ele>762.6666666666666</ele><time>2026-04-29T14:12:34Z</time></trkpt><trkpt lat="43.93265191242952" lon="11.64665915332432"><ele>763.3333333333333</ele><time>2026-04-29T14:12:35Z</time></trkpt><trkpt lat="43.93266512231311" lon="11.646549213090497"><ele>764.0</ele><time>2026-04-29T14:12:36Z</time></trkpt><trkpt lat="43.9326245978608" lon="11.646433565792773"><ele>764.0</ele><time>2026-04-29T14:12:37Z</time></trkpt><trkpt lat="43.932546278354216" lon="11.646340848374006"><ele>764.0</ele><time>2026-04-29T14:12:38Z</time></trkpt><trkpt lat="43.93244030590841" lon="11.64628957189339"><ele>764.0</ele><time>2026-04-29T14:12:39Z</time></trkpt><trkpt lat="43.93231273590016" lon="11.646262232533898"><ele>764.0</ele><time>2026-04-29T14:12:40Z</time></trkpt><trkpt lat="43.932168268819105" lon="11.646232809416977"><ele>764.0</ele><time>2026-04-29T14:12:41Z</time></trkpt><trkpt lat="43.93204609846504" lon="11.646165451757389"><ele>764.0</ele><time>2026-04-29T14:12:42Z</time></trkpt><trkpt lat="43.93192247435046" lon="11.646052887185743"><ele>764.0</ele><time>2026-04-29T14:12:43Z</time></trkpt><trkpt lat="43.93179052907543" lon="11.645934657856861"><ele>764.0</ele><time>2026-04-29T14:12:44Z</time></trkpt><trkpt lat="43.93167215738929" lon="11.64585861612186"><ele>762.0</ele><time>2026-04-29T14:12:45Z</time></trkpt><trkpt lat="43.93156076178816" lon="11.645832623760413"><ele>760.0</ele><time>2026-04-29T14:12:46Z</time></trkpt><trkpt lat="43.93145837250734" lon="11.645842317215454"><ele>758.0</ele><time>2026-04-29T14:12:47Z</time></trkpt><trkpt lat="43.931387016380405" lon="11.645814081587917"><ele>756.0</ele><time>2026-04-29T14:12:48Z</time></trkpt><trkpt lat="43.93134602522518" lon="11.64572441570319"><ele>754.0</ele><time>2026-04-29T14:12:49Z</time></trkpt><trkpt lat="43.931339050516115" lon="11.645582166417261"><ele>754.0</ele><time>2026-04-29T14:12:50Z</time></trkpt><trkpt lat="43.931364310630435" lon="11.64539443674597"><ele>754.0</ele><time>2026-04-29T14:12:51Z</time></trkpt><trkpt lat="43.93137830178079" lon="11.645185194849784"><ele>754.0</ele><time>2026-04-29T14:12:52Z</time></trkpt><trkpt lat="43.93136522945225" lon="11.64498542938372"><ele>754.0</ele><time>2026-04-29T14:12:53Z</time></trkpt><trkpt lat="43.93134757763783" lon="11.644823772027435"><ele>754.4000000000001</ele><time>2026-04-29T14:12:54Z</time></trkpt><trkpt lat="43.93134366996847" lon="11.644696280392855"><ele>754.8</ele><time>2026-04-29T14:12:55Z</time></trkpt><trkpt lat="43.9313836236933" lon="11.644597885877904"><ele>755.2</ele><time>2026-04-29T14:12:56Z</time></trkpt><trkpt lat="43.93146250063824" lon="11.644538700112262"><ele>755.5999999999999</ele><time>2026-04-29T14:12:57Z</time></trkpt><trkpt lat="43.93158252327534" lon="11.644561647474154"><ele>756.0</ele><time>2026-04-29T14:12:58Z</time></trkpt><trkpt lat="43.93171644838467" lon="11.644510344732558"><ele>761.25</ele><time>2026-04-29T14:12:59Z</time></trkpt><trkpt lat="43.9318502260885" lon="11.644460785168597"><ele>766.5</ele><time>2026-04-29T14:13:00Z</time></trkpt><trkpt lat="43.931958169539506" lon="11.644386827331163"><ele>771.75</ele><time>2026-04-29T14:13:01Z</time></trkpt><trkpt lat="43.932031122189585" lon="11.644286061351579"><ele>777.0</ele><time>2026-04-29T14:13:02Z</time></trkpt><trkpt lat="43.93205758182607" lon="11.644144251802409"><ele>777.0</ele><time>2026-04-29T14:13:03Z</time></trkpt><trkpt lat="43.93204065329498" lon="11.643992901938967"><ele>777.0</ele><time>2026-04-29T14:13:04Z</time></trkpt><trkpt lat="43.93200952929191" lon="11.643839702896727"><ele>777.0</ele><time>2026-04-29T14:13:05Z</time></trkpt><trkpt lat="43.93207297156396" lon="11.643691968922685"><ele>777.0</ele><time>2026-04-29T14:13:06Z</time></trkpt><trkpt lat="43.93210919814571" lon="11.643542839445436"><ele>775.8</ele><time>2026-04-29T14:13:07Z</time></trkpt><trkpt lat="43.93212271508047" lon="11.643392807458339"><ele>774.6</ele><time>2026-04-29T14:13:08Z</time></trkpt><trkpt lat="43.93208544089216" lon="11.64325361327133"><ele>773.4</ele><time>2026-04-29T14:13:09Z</time></trkpt><trkpt lat="43.93202895961753" lon="11.643145974251784"><ele>772.1999999999999</ele><time>2026-04-29T14:13:10Z</time></trkpt><trkpt lat="43.93198734878376" lon="11.643065095139992"><ele>771.0</ele><time>2026-04-29T14:13:11Z</time></trkpt><trkpt lat="43.931946965656614" lon="11.642931166849111"><ele>771.0</ele><time>2026-04-29T14:13:13Z</time></trkpt><trkpt lat="43.93191591932662" lon="11.642824280830496"><ele>771.0</ele><time>2026-04-29T14:13:15Z</time></trkpt><trkpt lat="43.931887151429535" lon="11.642738376168335"><ele>771.0</ele><time>2026-04-29T14:13:17.999Z</time></trkpt><trkpt lat="43.93185273169356" lon="11.64265800178725"><ele>771.0</ele><time>2026-04-29T14:16:02Z</time></trkpt><trkpt lat="43.93183139513794" lon="11.642561374195566"><ele>771.0</ele><time>2026-04-29T14:16:04Z</time></trkpt><trkpt lat="43.931827608681324" lon="11.642466984349365"><ele>771.0</ele><time>2026-04-29T14:16:05Z</time></trkpt><trkpt lat="43.93184389985141" lon="11.642361955030061"><ele>771.0</ele><time>2026-04-29T14:16:06Z</time></trkpt><trkpt lat="43.9318667031742" lon="11.642244045735117"><ele>769.25</ele><time>2026-04-29T14:16:07Z</time></trkpt><trkpt lat="43.93192799571426" lon="11.642121121629307"><ele>767.5</ele><time>2026-04-29T14:16:08Z</time></trkpt><trkpt lat="43.932010582218574" lon="11.64201470892141"><ele>765.75</ele><time>2026-04-29T14:16:09Z</time></trkpt><trkpt lat="43.9321145999783" lon="11.641913597711662"><ele>764.0</ele><time>2026-04-29T14:16:10Z</time></trkpt><trkpt lat="43.93220252564664" lon="11.64180182954273"><ele>759.5</ele><time>2026-04-29T14:16:11Z</time></trkpt><trkpt lat="43.932278223499196" lon="11.641683039362396"><ele>755.0</ele><time>2026-04-29T14:16:12Z</time></trkpt><trkpt lat="43.93232248621146" lon="11.641528373023673"><ele>750.5</ele><time>2026-04-29T14:16:13Z</time></trkpt><trkpt lat="43.932347736052314" lon="11.641356756473137"><ele>746.0</ele><time>2026-04-29T14:16:14Z</time></trkpt><trkpt lat="43.932358828199206" lon="11.641184429416418"><ele>741.75</ele><time>2026-04-29T14:16:15Z</time></trkpt><trkpt lat="43.932364097912895" lon="11.64102876829604"><ele>737.5</ele><time>2026-04-29T14:16:16Z</time></trkpt><trkpt lat="43.9323400207564" lon="11.640884488032121"><ele>733.25</ele><time>2026-04-29T14:16:17Z</time></trkpt><trkpt lat="43.93230692586266" lon="11.640746272095326"><ele>729.0</ele><time>2026-04-29T14:16:18Z</time></trkpt><trkpt lat="43.932103766088076" lon="11.640596547891404"><ele>729.0</ele><time>2026-04-29T14:16:19Z</time></trkpt><trkpt lat="43.93200220904224" lon="11.640467832394506"><ele>729.0</ele><time>2026-04-29T14:16:20Z</time></trkpt><trkpt lat="43.931920842590976" lon="11.640314516580982"><ele>729.0</ele><time>2026-04-29T14:16:21Z</time></trkpt><trkpt lat="43.931864610916136" lon="11.64014361571967"><ele>729.0</ele><time>2026-04-29T14:16:22Z</time></trkpt><trkpt lat="43.931806730317554" lon="11.63995405287077"><ele>727.5</ele><time>2026-04-29T14:16:23Z</time></trkpt><trkpt lat="43.931751482799385" lon="11.63977913434163"><ele>726.0</ele><time>2026-04-29T14:16:24Z</time></trkpt><trkpt lat="43.93169730861772" lon="11.639612363442433"><ele>724.5</ele><time>2026-04-29T14:16:25Z</time></trkpt><trkpt lat="43.93164112632871" lon="11.639453551584229"><ele>723.0</ele><time>2026-04-29T14:16:26Z</time></trkpt><trkpt lat="43.931599654685826" lon="11.639304532060379"><ele>720.5</ele><time>2026-04-29T14:16:27Z</time></trkpt><trkpt lat="43.93158898724765" lon="11.639142813858912"><ele>718.0</ele><time>2026-04-29T14:16:28Z</time></trkpt><trkpt lat="43.93164816925556" lon="11.638974908395264"><ele>715.5</ele><time>2026-04-29T14:16:29Z</time></trkpt><trkpt lat="43.931708654224096" lon="11.63880482085129"><ele>713.0</ele><time>2026-04-29T14:16:30Z</time></trkpt><trkpt lat="43.93175923774654" lon="11.638652634157781"><ele>711.2</ele><time>2026-04-29T14:16:31Z</time></trkpt><trkpt lat="43.93180492655198" lon="11.63850398791012"><ele>709.4</ele><time>2026-04-29T14:16:32Z</time></trkpt><trkpt lat="43.93181434121468" lon="11.638362763008073"><ele>707.6</ele><time>2026-04-29T14:16:33Z</time></trkpt><trkpt lat="43.93183590304822" lon="11.63823896402985"><ele>705.8000000000001</ele><time>2026-04-29T14:16:34Z</time></trkpt><trkpt lat="43.93186071547523" lon="11.638124422999267"><ele>704.0</ele><time>2026-04-29T14:16:35Z</time></trkpt><trkpt lat="43.9318756737426" lon="11.63802549699075"><ele>704.0</ele><time>2026-04-29T14:16:36Z</time></trkpt><trkpt lat="43.9318895615102" lon="11.637873165003747"><ele>704.0</ele><time>2026-04-29T14:16:38Z</time></trkpt><trkpt lat="43.9319135856531" lon="11.637768910705157"><ele>704.0</ele><time>2026-04-29T14:16:40Z</time></trkpt><trkpt lat="43.93192322455137" lon="11.63767316442148"><ele>704.0</ele><time>2026-04-29T14:16:43Z</time></trkpt><trkpt lat="43.93191399117739" lon="11.637763233568421"><ele>704.0</ele><time>2026-04-29T14:17:31.999Z</time></trkpt><trkpt lat="43.93191346502767" lon="11.63764976558095"><ele>704.0</ele><time>2026-04-29T14:17:59Z</time></trkpt><trkpt lat="43.93193115073065" lon="11.637783098905386"><ele>702.1428571428571</ele><time>2026-04-29T14:18:26Z</time></trkpt><trkpt lat="43.93197234223723" lon="11.637653360388219"><ele>700.2857142857142</ele><time>2026-04-29T14:19:04.061Z</time></trkpt><trkpt lat="43.93200012630873" lon="11.637732720269662"><ele>698.4285714285713</ele><time>2026-04-29T14:19:54.024Z</time></trkpt><trkpt lat="43.93193749138287" lon="11.637744030021587"><ele>696.5714285714286</ele><time>2026-04-29T14:19:58.999Z</time></trkpt><trkpt lat="43.93187507455069" lon="11.637783956852768"><ele>694.7142857142857</ele><time>2026-04-29T14:20:03Z</time></trkpt><trkpt lat="43.93181272199967" lon="11.637768713190253"><ele>692.8571428571428</ele><time>2026-04-29T14:20:10Z</time></trkpt><trkpt lat="43.93181119887259" lon="11.637675244896153"><ele>691.0</ele><time>2026-04-29T14:22:13Z</time></trkpt><trkpt lat="43.93183744142216" lon="11.637766908638984"><ele>691.0</ele><time>2026-04-29T14:22:18Z</time></trkpt><trkpt lat="43.93185673215559" lon="11.63785705998092"><ele>691.0</ele><time>2026-04-29T14:23:06Z</time></trkpt><trkpt lat="43.93191332285649" lon="11.637794034655736"><ele>691.0</ele><time>2026-04-29T14:23:08Z</time></trkpt><trkpt lat="43.93192326814073" lon="11.637684995775688"><ele>691.0</ele><time>2026-04-29T14:23:09Z</time></trkpt><trkpt lat="43.931918252411705" lon="11.637534262923232"><ele>691.0</ele><time>2026-04-29T14:23:10Z</time></trkpt><trkpt lat="43.93191441571331" lon="11.637401655623306"><ele>691.0</ele><time>2026-04-29T14:23:11Z</time></trkpt><trkpt lat="43.93192525485561" lon="11.63730452963318"><ele>691.0</ele><time>2026-04-29T14:23:12Z</time></trkpt><trkpt lat="43.93202713456867" lon="11.637216447685311"><ele>691.0</ele><time>2026-04-29T14:23:14Z</time></trkpt><trkpt lat="43.93208719059672" lon="11.637246294562956"><ele>691.0</ele><time>2026-04-29T14:23:15Z</time></trkpt><trkpt lat="43.93212276077126" lon="11.63733595239822"><ele>691.0</ele><time>2026-04-29T14:23:16Z</time></trkpt><trkpt lat="43.93212186500864" lon="11.63746283801246"><ele>691.0</ele><time>2026-04-29T14:23:17Z</time></trkpt><trkpt lat="43.93212912240202" lon="11.637593283526083"><ele>691.0</ele><time>2026-04-29T14:23:18Z</time></trkpt><trkpt lat="43.93215177668552" lon="11.637750907881596"><ele>694.25</ele><time>2026-04-29T14:23:19Z</time></trkpt><trkpt lat="43.93217905225689" lon="11.637910064449011"><ele>697.5</ele><time>2026-04-29T14:23:20Z</time></trkpt><trkpt lat="43.932231551095605" lon="11.638053448688751"><ele>700.75</ele><time>2026-04-29T14:23:21Z</time></trkpt><trkpt lat="43.93229184462771" lon="11.638189708180553"><ele>704.0</ele><time>2026-04-29T14:23:22Z</time></trkpt><trkpt lat="43.93236423297203" lon="11.63831378759124"><ele>704.0</ele><time>2026-04-29T14:23:23Z</time></trkpt><trkpt lat="43.932441930587906" lon="11.638434687208115"><ele>704.0</ele><time>2026-04-29T14:23:24Z</time></trkpt><trkpt lat="43.932543788062475" lon="11.638567416344898"><ele>704.0</ele><time>2026-04-29T14:23:25Z</time></trkpt><trkpt lat="43.93265120480492" lon="11.638730579351162"><ele>704.0</ele><time>2026-04-29T14:23:25.999Z</time></trkpt><trkpt lat="43.93273892149484" lon="11.638886605971017"><ele>704.5</ele><time>2026-04-29T14:23:26.999Z</time></trkpt><trkpt lat="43.93281372789705" lon="11.639055100119133"><ele>705.0</ele><time>2026-04-29T14:23:27.999Z</time></trkpt><trkpt lat="43.932860942569754" lon="11.639237090672923"><ele>705.5</ele><time>2026-04-29T14:23:28.999Z</time></trkpt><trkpt lat="43.93288059304944" lon="11.639434257401696"><ele>706.0</ele><time>2026-04-29T14:23:29.999Z</time></trkpt><trkpt lat="43.93288075895199" lon="11.63963698517264"><ele>706.0</ele><time>2026-04-29T14:23:30.999Z</time></trkpt><trkpt lat="43.93290411254202" lon="11.639820214946246"><ele>706.0</ele><time>2026-04-29T14:23:31.999Z</time></trkpt><trkpt lat="43.93298071492584" lon="11.639993083285804"><ele>706.0</ele><time>2026-04-29T14:23:32.999Z</time></trkpt><trkpt lat="43.93306366302951" lon="11.640140740140863"><ele>706.0</ele><time>2026-04-29T14:23:33.999Z</time></trkpt><trkpt lat="43.93313133976396" lon="11.64025116879679"><ele>706.0</ele><time>2026-04-29T14:23:34.999Z</time></trkpt><trkpt lat="43.93320096069299" lon="11.640314886175094"><ele>706.0</ele><time>2026-04-29T14:23:35.999Z</time></trkpt><trkpt lat="43.93328008751145" lon="11.64032479182802"><ele>706.0</ele><time>2026-04-29T14:23:36.999Z</time></trkpt><trkpt lat="43.933343279530064" lon="11.640266683262054"><ele>706.0</ele><time>2026-04-29T14:23:37.999Z</time></trkpt><trkpt lat="43.93337815181954" lon="11.640151199490328"><ele>706.0</ele><time>2026-04-29T14:23:38.999Z</time></trkpt><trkpt lat="43.93337921495995" lon="11.640007217165541"><ele>706.0</ele><time>2026-04-29T14:23:39.999Z</time></trkpt><trkpt lat="43.93338852196136" lon="11.639837841584377"><ele>703.3333333333334</ele><time>2026-04-29T14:23:40.999Z</time></trkpt><trkpt lat="43.933462146893284" lon="11.639681334195664"><ele>700.6666666666666</ele><time>2026-04-29T14:23:41.999Z</time></trkpt><trkpt lat="43.933571741916076" lon="11.639516466065416"><ele>698.0</ele><time>2026-04-29T14:23:42.999Z</time></trkpt><trkpt lat="43.933666853122524" lon="11.639308403646067"><ele>698.0</ele><time>2026-04-29T14:23:43.999Z</time></trkpt><trkpt lat="43.93375382351004" lon="11.639088775185112"><ele>698.0</ele><time>2026-04-29T14:23:44.999Z</time></trkpt><trkpt lat="43.93376656873158" lon="11.638902824820386"><ele>698.0</ele><time>2026-04-29T14:23:45.999Z</time></trkpt><trkpt lat="43.93380964882729" lon="11.638744180015406"><ele>698.0</ele><time>2026-04-29T14:23:46.999Z</time></trkpt><trkpt lat="43.93386844304998" lon="11.63860089808053"><ele>692.75</ele><time>2026-04-29T14:23:47.999Z</time></trkpt><trkpt lat="43.93394863589315" lon="11.638503093512284"><ele>687.5</ele><time>2026-04-29T14:23:48.999Z</time></trkpt><trkpt lat="43.93404906586177" lon="11.638497084159571"><ele>682.25</ele><time>2026-04-29T14:23:49.999Z</time></trkpt><trkpt lat="43.934164613019924" lon="11.638478217407586"><ele>677.0</ele><time>2026-04-29T14:23:50.999Z</time></trkpt><trkpt lat="43.93433420124604" lon="11.638479296803451"><ele>677.0</ele><time>2026-04-29T14:23:51.999Z</time></trkpt><trkpt lat="43.93450391979528" lon="11.638520988008228"><ele>677.0</ele><time>2026-04-29T14:23:52.999Z</time></trkpt><trkpt lat="43.93465079355957" lon="11.63858084759011"><ele>677.0</ele><time>2026-04-29T14:23:53.999Z</time></trkpt><trkpt lat="43.93478397698869" lon="11.6386616806742"><ele>680.2</ele><time>2026-04-29T14:23:54.999Z</time></trkpt><trkpt lat="43.93488974087351" lon="11.638774777384038"><ele>683.4000000000001</ele><time>2026-04-29T14:23:55.999Z</time></trkpt><trkpt lat="43.93498700301378" lon="11.638859693758404"><ele>686.5999999999999</ele><time>2026-04-29T14:23:56.999Z</time></trkpt><trkpt lat="43.93507684246388" lon="11.638962326699174"><ele>689.8</ele><time>2026-04-29T14:23:57.999Z</time></trkpt><trkpt lat="43.93514825374408" lon="11.638973298823844"><ele>693.0</ele><time>2026-04-29T14:23:58.999Z</time></trkpt><trkpt lat="43.93521009848826" lon="11.638929278149975"><ele>695.0</ele><time>2026-04-29T14:23:59.999Z</time></trkpt><trkpt lat="43.935252279820936" lon="11.638846622417141"><ele>697.0</ele><time>2026-04-29T14:24:00.999Z</time></trkpt><trkpt lat="43.93526920726753" lon="11.638653052212131"><ele>699.0</ele><time>2026-04-29T14:24:01.999Z</time></trkpt><trkpt lat="43.93523791943463" lon="11.638388910544606"><ele>701.0</ele><time>2026-04-29T14:24:02.999Z</time></trkpt><trkpt lat="43.93520320108716" lon="11.638157364969016"><ele>701.0</ele><time>2026-04-29T14:24:03.999Z</time></trkpt><trkpt lat="43.935140345734716" lon="11.637937140754966"><ele>701.0</ele><time>2026-04-29T14:24:04.999Z</time></trkpt><trkpt lat="43.93508777813013" lon="11.637772897325055"><ele>701.0</ele><time>2026-04-29T14:24:05.999Z</time></trkpt><trkpt lat="43.93509192229633" lon="11.637570342623423"><ele>701.0</ele><time>2026-04-29T14:24:07.999Z</time></trkpt><trkpt lat="43.935202072680326" lon="11.63748955323174"><ele>691.3333333333333</ele><time>2026-04-29T14:24:08.999Z</time></trkpt><trkpt lat="43.935299502460296" lon="11.637372848762787"><ele>681.6666666666666</ele><time>2026-04-29T14:24:09.999Z</time></trkpt><trkpt lat="43.93543941725576" lon="11.637248877767574"><ele>672.0</ele><time>2026-04-29T14:24:10.999Z</time></trkpt><trkpt lat="43.93558799840584" lon="11.63717786252213"><ele>672.0</ele><time>2026-04-29T14:24:11.999Z</time></trkpt><trkpt lat="43.93576413875103" lon="11.637136197793348"><ele>672.0</ele><time>2026-04-29T14:24:12.999Z</time></trkpt><trkpt lat="43.93594076125815" lon="11.637127569996597"><ele>672.0</ele><time>2026-04-29T14:24:14Z</time></trkpt><trkpt lat="43.93610298726855" lon="11.637128805585025"><ele>674.0</ele><time>2026-04-29T14:24:15Z</time></trkpt><trkpt lat="43.93623678706573" lon="11.637155218756876"><ele>676.0</ele><time>2026-04-29T14:24:16Z</time></trkpt><trkpt lat="43.936374795644895" lon="11.63714299164785"><ele>678.0</ele><time>2026-04-29T14:24:17Z</time></trkpt><trkpt lat="43.936461660290696" lon="11.637055810139032"><ele>680.0</ele><time>2026-04-29T14:24:18Z</time></trkpt><trkpt lat="43.936536812797286" lon="11.636929411972723"><ele>675.75</ele><time>2026-04-29T14:24:19Z</time></trkpt><trkpt lat="43.936588527798115" lon="11.636769629648537"><ele>671.5</ele><time>2026-04-29T14:24:20Z</time></trkpt><trkpt lat="43.93658409918774" lon="11.636583232146181"><ele>667.25</ele><time>2026-04-29T14:24:21Z</time></trkpt><trkpt lat="43.93657026903411" lon="11.636388911793476"><ele>663.0</ele><time>2026-04-29T14:24:22Z</time></trkpt><trkpt lat="43.93648760516968" lon="11.63621271034889"><ele>665.0</ele><time>2026-04-29T14:24:23Z</time></trkpt><trkpt lat="43.936324317326374" lon="11.636076827710067"><ele>667.0</ele><time>2026-04-29T14:24:24Z</time></trkpt><trkpt lat="43.93610542418538" lon="11.635901752733673"><ele>669.0</ele><time>2026-04-29T14:24:25Z</time></trkpt><trkpt lat="43.93590218996315" lon="11.63580753616703"><ele>657.0</ele><time>2026-04-29T14:24:26Z</time></trkpt><trkpt lat="43.935679856454186" lon="11.63576770214412"><ele>645.0</ele><time>2026-04-29T14:24:27Z</time></trkpt><trkpt lat="43.93543936575855" lon="11.63576547483604"><ele>645.0</ele><time>2026-04-29T14:24:28Z</time></trkpt><trkpt lat="43.935213630396824" lon="11.63581310140044"><ele>645.0</ele><time>2026-04-29T14:24:29Z</time></trkpt><trkpt lat="43.935025539555426" lon="11.635862167326831"><ele>645.0</ele><time>2026-04-29T14:24:30Z</time></trkpt><trkpt lat="43.9348609485442" lon="11.635907862421492"><ele>643.2</ele><time>2026-04-29T14:24:31Z</time></trkpt><trkpt lat="43.93477309155203" lon="11.635905462151712"><ele>641.4</ele><time>2026-04-29T14:24:32Z</time></trkpt><trkpt lat="43.93470269485861" lon="11.635902078380987"><ele>639.6</ele><time>2026-04-29T14:24:33Z</time></trkpt><trkpt lat="43.934624664983055" lon="11.63579975507778"><ele>637.8</ele><time>2026-04-29T14:24:34Z</time></trkpt><trkpt lat="43.93453474530633" lon="11.63559747197922"><ele>636.0</ele><time>2026-04-29T14:24:35Z</time></trkpt><trkpt lat="43.93442584909076" lon="11.635428955262118"><ele>634.8</ele><time>2026-04-29T14:24:36Z</time></trkpt><trkpt lat="43.9343435951597" lon="11.635287800370412"><ele>633.6</ele><time>2026-04-29T14:24:37Z</time></trkpt><trkpt lat="43.934293974814565" lon="11.635163367524124"><ele>632.4</ele><time>2026-04-29T14:24:38Z</time></trkpt><trkpt lat="43.93432474836409" lon="11.635043586994257"><ele>631.2</ele><time>2026-04-29T14:24:39Z</time></trkpt><trkpt lat="43.93437981780631" lon="11.634889245157696"><ele>630.0</ele><time>2026-04-29T14:24:40Z</time></trkpt><trkpt lat="43.934426242530925" lon="11.634671330864162"><ele>630.0</ele><time>2026-04-29T14:24:41Z</time></trkpt><trkpt lat="43.93446011646108" lon="11.634495086584257"><ele>630.0</ele><time>2026-04-29T14:24:42Z</time></trkpt><trkpt lat="43.93449594121116" lon="11.634344855989568"><ele>630.0</ele><time>2026-04-29T14:24:43Z</time></trkpt><trkpt lat="43.93457501437732" lon="11.634291466320468"><ele>630.0</ele><time>2026-04-29T14:24:44Z</time></trkpt><trkpt lat="43.93466016213746" lon="11.634320381057247"><ele>630.0</ele><time>2026-04-29T14:24:45Z</time></trkpt><trkpt lat="43.93474503706745" lon="11.634392476229962"><ele>630.0</ele><time>2026-04-29T14:24:46Z</time></trkpt><trkpt lat="43.934793641462555" lon="11.634498460353973"><ele>630.0</ele><time>2026-04-29T14:24:47Z</time></trkpt><trkpt lat="43.9349181035108" lon="11.634606118426266"><ele>630.0</ele><time>2026-04-29T14:24:48Z</time></trkpt><trkpt lat="43.93505713692134" lon="11.634695196350307"><ele>630.0</ele><time>2026-04-29T14:24:49Z</time></trkpt><trkpt lat="43.93523634237282" lon="11.63470770159081"><ele>632.6666666666666</ele><time>2026-04-29T14:24:50Z</time></trkpt><trkpt lat="43.9354206585799" lon="11.634637289688925"><ele>635.3333333333333</ele><time>2026-04-29T14:24:51Z</time></trkpt><trkpt lat="43.93556958619544" lon="11.634555537699645"><ele>638.0</ele><time>2026-04-29T14:24:52Z</time></trkpt><trkpt lat="43.93569250935629" lon="11.63446647966405"><ele>633.0</ele><time>2026-04-29T14:24:53Z</time></trkpt><trkpt lat="43.93575902905622" lon="11.6343841704926"><ele>628.0</ele><time>2026-04-29T14:24:54Z</time></trkpt><trkpt lat="43.93578313880822" lon="11.63417784445568"><ele>623.0</ele><time>2026-04-29T14:24:56Z</time></trkpt><trkpt lat="43.93568115153179" lon="11.634085250516348"><ele>618.0</ele><time>2026-04-29T14:24:57Z</time></trkpt><trkpt lat="43.93557842756343" lon="11.634059378714117"><ele>618.0</ele><time>2026-04-29T14:24:58Z</time></trkpt><trkpt lat="43.935483652498036" lon="11.634046931134005"><ele>618.0</ele><time>2026-04-29T14:24:59Z</time></trkpt><trkpt lat="43.93540463577894" lon="11.63393904060851"><ele>618.0</ele><time>2026-04-29T14:25:00Z</time></trkpt><trkpt lat="43.93538453640803" lon="11.633760429268547"><ele>618.0</ele><time>2026-04-29T14:25:01Z</time></trkpt><trkpt lat="43.935374916156206" lon="11.633576375852831"><ele>618.3333333333334</ele><time>2026-04-29T14:25:02Z</time></trkpt><trkpt lat="43.935364359965604" lon="11.633352956375724"><ele>618.6666666666667</ele><time>2026-04-29T14:25:03Z</time></trkpt><trkpt lat="43.935314956668684" lon="11.633096246051752"><ele>619.0</ele><time>2026-04-29T14:25:04Z</time></trkpt><trkpt lat="43.93526436833299" lon="11.632907632258107"><ele>615.0</ele><time>2026-04-29T14:25:05Z</time></trkpt><trkpt lat="43.935287626613245" lon="11.632724128214713"><ele>611.0</ele><time>2026-04-29T14:25:06Z</time></trkpt><trkpt lat="43.93529693991145" lon="11.632608727448076"><ele>607.0</ele><time>2026-04-29T14:25:07Z</time></trkpt><trkpt lat="43.935382743268455" lon="11.632533038067654"><ele>603.0</ele><time>2026-04-29T14:25:08Z</time></trkpt><trkpt lat="43.93551513319213" lon="11.632520549193517"><ele>603.0</ele><time>2026-04-29T14:25:09Z</time></trkpt><trkpt lat="43.935680016144325" lon="11.632418878860182"><ele>603.0</ele><time>2026-04-29T14:25:10Z</time></trkpt><trkpt lat="43.93583813360475" lon="11.632319657469738"><ele>603.0</ele><time>2026-04-29T14:25:11Z</time></trkpt><trkpt lat="43.935977746941184" lon="11.632218640206915"><ele>609.25</ele><time>2026-04-29T14:25:12Z</time></trkpt><trkpt lat="43.936081845203255" lon="11.632086316808927"><ele>615.5</ele><time>2026-04-29T14:25:13Z</time></trkpt><trkpt lat="43.9361156090046" lon="11.631946068806192"><ele>621.75</ele><time>2026-04-29T14:25:14Z</time></trkpt><trkpt lat="43.93611500699668" lon="11.631827077183248"><ele>628.0</ele><time>2026-04-29T14:25:15Z</time></trkpt><trkpt lat="43.936037078141595" lon="11.63167818492429"><ele>628.0</ele><time>2026-04-29T14:25:16Z</time></trkpt><trkpt lat="43.935934303815785" lon="11.631570255728548"><ele>628.0</ele><time>2026-04-29T14:25:17Z</time></trkpt><trkpt lat="43.93587630325551" lon="11.631432864111634"><ele>628.0</ele><time>2026-04-29T14:25:18Z</time></trkpt><trkpt lat="43.93588176279219" lon="11.631264446421614"><ele>628.0</ele><time>2026-04-29T14:25:19Z</time></trkpt><trkpt lat="43.935962275599145" lon="11.631129880137175"><ele>623.3333333333334</ele><time>2026-04-29T14:25:20Z</time></trkpt><trkpt lat="43.936068372268174" lon="11.630895930770041"><ele>618.6666666666666</ele><time>2026-04-29T14:25:21Z</time></trkpt><trkpt lat="43.93616905059384" lon="11.630677262412304"><ele>614.0</ele><time>2026-04-29T14:25:22Z</time></trkpt><trkpt lat="43.936265817123235" lon="11.630460633504807"><ele>606.3333333333333</ele><time>2026-04-29T14:25:23Z</time></trkpt><trkpt lat="43.936323818809726" lon="11.630241054332199"><ele>598.6666666666666</ele><time>2026-04-29T14:25:24Z</time></trkpt><trkpt lat="43.9363460060978" lon="11.630053654657305"><ele>591.0</ele><time>2026-04-29T14:25:25Z</time></trkpt><trkpt lat="43.93636292157878" lon="11.629781369179286"><ele>591.0</ele><time>2026-04-29T14:25:27Z</time></trkpt><trkpt lat="43.9364245729272" lon="11.629642080598352"><ele>591.0</ele><time>2026-04-29T14:25:28Z</time></trkpt><trkpt lat="43.936508959840864" lon="11.62952846475514"><ele>591.0</ele><time>2026-04-29T14:25:29Z</time></trkpt><trkpt lat="43.936565875123655" lon="11.629416654283148"><ele>591.0</ele><time>2026-04-29T14:25:30Z</time></trkpt><trkpt lat="43.93659293651703" lon="11.629283731971288"><ele>591.0</ele><time>2026-04-29T14:25:31Z</time></trkpt><trkpt lat="43.93655546896695" lon="11.629100364351205"><ele>588.5</ele><time>2026-04-29T14:25:32Z</time></trkpt><trkpt lat="43.93655060685955" lon="11.62900498344935"><ele>586.0</ele><time>2026-04-29T14:25:33Z</time></trkpt><trkpt lat="43.93653759429812" lon="11.62888295358023"><ele>583.5</ele><time>2026-04-29T14:25:35Z</time></trkpt><trkpt lat="43.93653220938913" lon="11.62877560584945"><ele>581.0</ele><time>2026-04-29T14:28:29Z</time></trkpt><trkpt lat="43.93656484160258" lon="11.628649363073324"><ele>578.5</ele><time>2026-04-29T14:28:31Z</time></trkpt><trkpt lat="43.93662345166533" lon="11.628553637247135"><ele>576.0</ele><time>2026-04-29T14:28:32Z</time></trkpt><trkpt lat="43.936705995369316" lon="11.62847480170263"><ele>583.0</ele><time>2026-04-29T14:28:33Z</time></trkpt><trkpt lat="43.93679868493935" lon="11.628406344996444"><ele>590.0</ele><time>2026-04-29T14:28:34Z</time></trkpt><trkpt lat="43.93685686145746" lon="11.628279833191579"><ele>597.0</ele><time>2026-04-29T14:28:35Z</time></trkpt><trkpt lat="43.936858406472126" lon="11.628106070694301"><ele>604.0</ele><time>2026-04-29T14:28:36Z</time></trkpt><trkpt lat="43.93689289558911" lon="11.627947697207007"><ele>597.0</ele><time>2026-04-29T14:28:37Z</time></trkpt><trkpt lat="43.936918370622486" lon="11.62778309523789"><ele>590.0</ele><time>2026-04-29T14:28:38Z</time></trkpt><trkpt lat="43.93694485478026" lon="11.627632788180792"><ele>583.0</ele><time>2026-04-29T14:28:39Z</time></trkpt><trkpt lat="43.93698594650822" lon="11.627492461529759"><ele>576.0</ele><time>2026-04-29T14:28:40Z</time></trkpt><trkpt lat="43.937056068083436" lon="11.627366717722161"><ele>576.0</ele><time>2026-04-29T14:28:41Z</time></trkpt><trkpt lat="43.93715813989652" lon="11.627245143331358"><ele>576.0</ele><time>2026-04-29T14:28:42Z</time></trkpt><trkpt lat="43.93727414579339" lon="11.627100943137386"><ele>576.0</ele><time>2026-04-29T14:28:43Z</time></trkpt><trkpt lat="43.93736144384311" lon="11.6269475170622"><ele>576.0</ele><time>2026-04-29T14:28:44Z</time></trkpt><trkpt lat="43.93740615584153" lon="11.626768466662583"><ele>570.25</ele><time>2026-04-29T14:28:45Z</time></trkpt><trkpt lat="43.93742248989307" lon="11.626570792545449"><ele>564.5</ele><time>2026-04-29T14:28:46Z</time></trkpt><trkpt lat="43.937420758639604" lon="11.62637738152451"><ele>558.75</ele><time>2026-04-29T14:28:47Z</time></trkpt><trkpt lat="43.93747344602748" lon="11.626209584100588"><ele>553.0</ele><time>2026-04-29T14:28:48Z</time></trkpt><trkpt lat="43.93756674752771" lon="11.626115562886076"><ele>553.0</ele><time>2026-04-29T14:28:49Z</time></trkpt><trkpt lat="43.93764509323968" lon="11.625970288871825"><ele>553.0</ele><time>2026-04-29T14:28:50Z</time></trkpt><trkpt lat="43.93766728725858" lon="11.625797651341056"><ele>553.0</ele><time>2026-04-29T14:28:51Z</time></trkpt><trkpt lat="43.93770028578911" lon="11.625651019678344"><ele>553.0</ele><time>2026-04-29T14:28:52Z</time></trkpt><trkpt lat="43.93778943871699" lon="11.625535615173353"><ele>553.0</ele><time>2026-04-29T14:28:53Z</time></trkpt><trkpt lat="43.937893646546506" lon="11.625524516394245"><ele>553.0</ele><time>2026-04-29T14:28:54Z</time></trkpt><trkpt lat="43.93799220789655" lon="11.625495935729061"><ele>553.0</ele><time>2026-04-29T14:28:55Z</time></trkpt><trkpt lat="43.93813259637772" lon="11.6254701803101"><ele>553.0</ele><time>2026-04-29T14:28:56Z</time></trkpt><trkpt lat="43.938289256564815" lon="11.625456391872735"><ele>553.5</ele><time>2026-04-29T14:28:57Z</time></trkpt><trkpt lat="43.93842952690068" lon="11.625445365727124"><ele>554.0</ele><time>2026-04-29T14:28:58Z</time></trkpt><trkpt lat="43.9385338045019" lon="11.625430901200856"><ele>554.5</ele><time>2026-04-29T14:28:59Z</time></trkpt><trkpt lat="43.93861908086857" lon="11.625354598044687"><ele>555.0</ele><time>2026-04-29T14:29:00Z</time></trkpt><trkpt lat="43.93865185043496" lon="11.625196147596165"><ele>555.0</ele><time>2026-04-29T14:29:01Z</time></trkpt><trkpt lat="43.93866776381291" lon="11.625021513856105"><ele>555.0</ele><time>2026-04-29T14:29:02Z</time></trkpt><trkpt lat="43.93866447110155" lon="11.62485471978878"><ele>555.0</ele><time>2026-04-29T14:29:03Z</time></trkpt><trkpt lat="43.93860438576738" lon="11.624676690928181"><ele>555.0</ele><time>2026-04-29T14:29:04Z</time></trkpt><trkpt lat="43.938495994194206" lon="11.624495820379598"><ele>550.3333333333334</ele><time>2026-04-29T14:29:05Z</time></trkpt><trkpt lat="43.93836449506888" lon="11.624341928222716"><ele>545.6666666666667</ele><time>2026-04-29T14:29:06Z</time></trkpt><trkpt lat="43.93824262928698" lon="11.624233323548113"><ele>541.0</ele><time>2026-04-29T14:29:07Z</time></trkpt><trkpt lat="43.93807964661323" lon="11.624151462317398"><ele>541.0</ele><time>2026-04-29T14:29:08Z</time></trkpt><trkpt lat="43.93789752065861" lon="11.624072114777473"><ele>541.0</ele><time>2026-04-29T14:29:09Z</time></trkpt><trkpt lat="43.937716466343936" lon="11.62401669076078"><ele>541.0</ele><time>2026-04-29T14:29:10Z</time></trkpt><trkpt lat="43.93756814492317" lon="11.623972151348749"><ele>535.6666666666667</ele><time>2026-04-29T14:29:11Z</time></trkpt><trkpt lat="43.93742431247817" lon="11.623975709193191"><ele>530.3333333333334</ele><time>2026-04-29T14:29:12Z</time></trkpt><trkpt lat="43.93727913492081" lon="11.624057140661952"><ele>525.0</ele><time>2026-04-29T14:29:13Z</time></trkpt><trkpt lat="43.93714922127476" lon="11.624165309738077"><ele>525.0</ele><time>2026-04-29T14:29:14Z</time></trkpt><trkpt lat="43.93703926918345" lon="11.624229584255506"><ele>525.0</ele><time>2026-04-29T14:29:15Z</time></trkpt><trkpt lat="43.93693296319411" lon="11.62422056587841"><ele>525.0</ele><time>2026-04-29T14:29:16Z</time></trkpt><trkpt lat="43.936827495354905" lon="11.624114550424855"><ele>525.0</ele><time>2026-04-29T14:29:17Z</time></trkpt><trkpt lat="43.93667067009305" lon="11.624039391705168"><ele>522.0</ele><time>2026-04-29T14:29:18Z</time></trkpt><trkpt lat="43.93648625452956" lon="11.62402241296946"><ele>519.0</ele><time>2026-04-29T14:29:19Z</time></trkpt><trkpt lat="43.9363203551652" lon="11.624083875627589"><ele>516.0</ele><time>2026-04-29T14:29:20Z</time></trkpt><trkpt lat="43.93613840786458" lon="11.62418529837069"><ele>516.0</ele><time>2026-04-29T14:29:21Z</time></trkpt><trkpt lat="43.93597383330997" lon="11.624301711296834"><ele>516.0</ele><time>2026-04-29T14:29:22Z</time></trkpt><trkpt lat="43.935822076502255" lon="11.624460085175894"><ele>516.0</ele><time>2026-04-29T14:29:23Z</time></trkpt><trkpt lat="43.93568130838876" lon="11.624645741277325"><ele>510.66666666666663</ele><time>2026-04-29T14:29:24Z</time></trkpt><trkpt lat="43.93558051042733" lon="11.624883380156904"><ele>505.3333333333333</ele><time>2026-04-29T14:29:25Z</time></trkpt><trkpt lat="43.93551572602755" lon="11.625104128718363"><ele>500.0</ele><time>2026-04-29T14:29:26Z</time></trkpt><trkpt lat="43.935475763680344" lon="11.625283653278299"><ele>495.0</ele><time>2026-04-29T14:29:27Z</time></trkpt><trkpt lat="43.93542835989699" lon="11.625416879548512"><ele>490.0</ele><time>2026-04-29T14:29:28Z</time></trkpt><trkpt lat="43.935360523252264" lon="11.625516418471904"><ele>485.0</ele><time>2026-04-29T14:29:29Z</time></trkpt><trkpt lat="43.93522726523533" lon="11.625544060499237"><ele>480.0</ele><time>2026-04-29T14:29:30Z</time></trkpt><trkpt lat="43.935097526872354" lon="11.625544800525079"><ele>483.0</ele><time>2026-04-29T14:29:31Z</time></trkpt><trkpt lat="43.93493972451066" lon="11.625514635320119"><ele>486.0</ele><time>2026-04-29T14:29:32Z</time></trkpt><trkpt lat="43.9347584796512" lon="11.625504278105875"><ele>489.0</ele><time>2026-04-29T14:29:33Z</time></trkpt><trkpt lat="43.93458583036663" lon="11.62545424139062"><ele>489.0</ele><time>2026-04-29T14:29:34Z</time></trkpt><trkpt lat="43.934446540453955" lon="11.625431599158144"><ele>489.0</ele><time>2026-04-29T14:29:35Z</time></trkpt><trkpt lat="43.93432847050111" lon="11.625402269210115"><ele>489.0</ele><time>2026-04-29T14:29:36Z</time></trkpt><trkpt lat="43.93421061439715" lon="11.62535215506783"><ele>489.0</ele><time>2026-04-29T14:29:37Z</time></trkpt><trkpt lat="43.93412820844143" lon="11.6252176109782"><ele>490.0</ele><time>2026-04-29T14:29:38Z</time></trkpt><trkpt lat="43.93406822922233" lon="11.625068095801673"><ele>491.0</ele><time>2026-04-29T14:29:39Z</time></trkpt><trkpt lat="43.93405912455255" lon="11.624888857090859"><ele>492.0</ele><time>2026-04-29T14:29:40Z</time></trkpt><trkpt lat="43.934041125838284" lon="11.624690365542145"><ele>493.0</ele><time>2026-04-29T14:29:41Z</time></trkpt><trkpt lat="43.93399224864057" lon="11.624498718612061"><ele>502.0</ele><time>2026-04-29T14:29:42Z</time></trkpt><trkpt lat="43.933874881076385" lon="11.624291918700521"><ele>511.0</ele><time>2026-04-29T14:29:43Z</time></trkpt><trkpt lat="43.93375231925898" lon="11.624100720405758"><ele>520.0</ele><time>2026-04-29T14:29:44Z</time></trkpt><trkpt lat="43.93364564007409" lon="11.623958062148171"><ele>520.0</ele><time>2026-04-29T14:29:45Z</time></trkpt><trkpt lat="43.93352302799037" lon="11.623869243064817"><ele>520.0</ele><time>2026-04-29T14:29:46Z</time></trkpt><trkpt lat="43.93337793630125" lon="11.62382443643496"><ele>520.0</ele><time>2026-04-29T14:29:46.999Z</time></trkpt><trkpt lat="43.93320812343618" lon="11.62385330308475"><ele>514.0</ele><time>2026-04-29T14:29:47.999Z</time></trkpt><trkpt lat="43.9330603714991" lon="11.623800349655104"><ele>508.0</ele><time>2026-04-29T14:29:48.999Z</time></trkpt><trkpt lat="43.93289315395895" lon="11.623701214255657"><ele>502.0</ele><time>2026-04-29T14:29:49.999Z</time></trkpt><trkpt lat="43.9327194297584" lon="11.62360170317429"><ele>502.0</ele><time>2026-04-29T14:29:50.999Z</time></trkpt><trkpt lat="43.93257459180993" lon="11.623518738635031"><ele>502.00000000000006</ele><time>2026-04-29T14:29:51.999Z</time></trkpt><trkpt lat="43.93246321377319" lon="11.623472715653168"><ele>502.00000000000006</ele><time>2026-04-29T14:29:52.999Z</time></trkpt><trkpt lat="43.93239588410176" lon="11.623410645694262"><ele>502.0</ele><time>2026-04-29T14:29:53.999Z</time></trkpt><trkpt lat="43.93235979796314" lon="11.623308565155684"><ele>502.0</ele><time>2026-04-29T14:29:54.999Z</time></trkpt><trkpt lat="43.9323764189615" lon="11.623177484985252"><ele>503.75</ele><time>2026-04-29T14:29:55.999Z</time></trkpt><trkpt lat="43.93244036121886" lon="11.62303238283691"><ele>505.5</ele><time>2026-04-29T14:29:56.999Z</time></trkpt><trkpt lat="43.93253056489323" lon="11.622873697240342"><ele>507.25</ele><time>2026-04-29T14:29:57.999Z</time></trkpt><trkpt lat="43.932590534736704" lon="11.622718747095504"><ele>509.0</ele><time>2026-04-29T14:29:58.999Z</time></trkpt><trkpt lat="43.9325844417689" lon="11.622565709112735"><ele>500.0</ele><time>2026-04-29T14:29:59.999Z</time></trkpt><trkpt lat="43.9325252322576" lon="11.6224140904224"><ele>491.0</ele><time>2026-04-29T14:30:00.999Z</time></trkpt><trkpt lat="43.932415900799334" lon="11.622297680526875"><ele>482.0</ele><time>2026-04-29T14:30:01.999Z</time></trkpt><trkpt lat="43.932282974988055" lon="11.62224779809193"><ele>473.0</ele><time>2026-04-29T14:30:02.999Z</time></trkpt><trkpt lat="43.932109175563774" lon="11.622263303035957"><ele>473.0</ele><time>2026-04-29T14:30:03.999Z</time></trkpt><trkpt lat="43.931934285149126" lon="11.62233068554571"><ele>473.0</ele><time>2026-04-29T14:30:04.999Z</time></trkpt><trkpt lat="43.93176640358018" lon="11.622413906475005"><ele>473.0</ele><time>2026-04-29T14:30:05.999Z</time></trkpt><trkpt lat="43.93158081665385" lon="11.622510550014333"><ele>467.3333333333333</ele><time>2026-04-29T14:30:06.999Z</time></trkpt><trkpt lat="43.931433237202455" lon="11.622568660498708"><ele>461.66666666666663</ele><time>2026-04-29T14:30:07.999Z</time></trkpt><trkpt lat="43.93127667523696" lon="11.622556591501748"><ele>456.0</ele><time>2026-04-29T14:30:08.999Z</time></trkpt><trkpt lat="43.93111151364637" lon="11.622535113435129"><ele>456.0</ele><time>2026-04-29T14:30:09.999Z</time></trkpt><trkpt lat="43.930928447873704" lon="11.622511572529017"><ele>456.0</ele><time>2026-04-29T14:30:10.999Z</time></trkpt><trkpt lat="43.93078946359568" lon="11.622491805273947"><ele>456.0</ele><time>2026-04-29T14:30:11.999Z</time></trkpt><trkpt lat="43.930721957734946" lon="11.622464692494562"><ele>456.0</ele><time>2026-04-29T14:30:12.999Z</time></trkpt><trkpt lat="43.93065288306904" lon="11.6224301921458"><ele>454.0</ele><time>2026-04-29T14:30:13.999Z</time></trkpt><trkpt lat="43.93062412144604" lon="11.6223187098974"><ele>452.0</ele><time>2026-04-29T14:30:14.999Z</time></trkpt><trkpt lat="43.93063697158928" lon="11.62217845750798"><ele>450.0</ele><time>2026-04-29T14:30:15.999Z</time></trkpt><trkpt lat="43.93073385397123" lon="11.622039532241617"><ele>448.0</ele><time>2026-04-29T14:30:16.999Z</time></trkpt><trkpt lat="43.93080457379819" lon="11.621869583350852"><ele>448.0</ele><time>2026-04-29T14:30:17.999Z</time></trkpt><trkpt lat="43.93086159001974" lon="11.621726291785464"><ele>447.99999999999994</ele><time>2026-04-29T14:30:18.999Z</time></trkpt><trkpt lat="43.93085490199342" lon="11.621584716111524"><ele>447.99999999999994</ele><time>2026-04-29T14:30:19.999Z</time></trkpt><trkpt lat="43.93079524230681" lon="11.621459308520672"><ele>448.0</ele><time>2026-04-29T14:30:20.999Z</time></trkpt><trkpt lat="43.930693099848924" lon="11.621390179875876"><ele>448.0</ele><time>2026-04-29T14:30:21.999Z</time></trkpt><trkpt lat="43.93056375955394" lon="11.621385813105908"><ele>448.0</ele><time>2026-04-29T14:30:22.999Z</time></trkpt><trkpt lat="43.930420587544006" lon="11.621427320022757"><ele>448.0</ele><time>2026-04-29T14:30:23.999Z</time></trkpt><trkpt lat="43.9302915090073" lon="11.621466556729866"><ele>448.0</ele><time>2026-04-29T14:30:24.999Z</time></trkpt><trkpt lat="43.93017632215862" lon="11.621460173923003"><ele>448.0</ele><time>2026-04-29T14:30:25.999Z</time></trkpt><trkpt lat="43.930078430939396" lon="11.621414547592032"><ele>444.25</ele><time>2026-04-29T14:30:26.999Z</time></trkpt><trkpt lat="43.92999296070821" lon="11.621299768266395"><ele>440.5</ele><time>2026-04-29T14:30:27.999Z</time></trkpt><trkpt lat="43.92994044550041" lon="11.621136383604117"><ele>436.75</ele><time>2026-04-29T14:30:28.999Z</time></trkpt><trkpt lat="43.92995004890789" lon="11.620941806973072"><ele>433.0</ele><time>2026-04-29T14:30:29.999Z</time></trkpt><trkpt lat="43.929954676013026" lon="11.620743024023572"><ele>433.0</ele><time>2026-04-29T14:30:31Z</time></trkpt><trkpt lat="43.92997067220253" lon="11.620563295810063"><ele>433.0</ele><time>2026-04-29T14:30:32Z</time></trkpt><trkpt lat="43.92997082551038" lon="11.620395078482499"><ele>433.0</ele><time>2026-04-29T14:30:33Z</time></trkpt><trkpt lat="43.92985933214464" lon="11.620418709209792"><ele>433.0</ele><time>2026-04-29T14:30:34Z</time></trkpt><trkpt lat="43.9297717224956" lon="11.6204278805864"><ele>433.0</ele><time>2026-04-29T14:30:35Z</time></trkpt><trkpt lat="43.929668141005045" lon="11.62059463171768"><ele>433.0</ele><time>2026-04-29T14:30:37Z</time></trkpt><trkpt lat="43.92965585966789" lon="11.62079438880769"><ele>433.0</ele><time>2026-04-29T14:30:38Z</time></trkpt><trkpt lat="43.9296851779462" lon="11.62100905589135"><ele>428.33333333333337</ele><time>2026-04-29T14:30:39Z</time></trkpt><trkpt lat="43.92976341878198" lon="11.621208996381887"><ele>423.66666666666663</ele><time>2026-04-29T14:30:40Z</time></trkpt><trkpt lat="43.92986972745509" lon="11.62142328965027"><ele>419.0</ele><time>2026-04-29T14:30:41Z</time></trkpt><trkpt lat="43.92994590023867" lon="11.621604904745382"><ele>419.0</ele><time>2026-04-29T14:30:42Z</time></trkpt><trkpt lat="43.92998062068513" lon="11.62174372343423"><ele>419.0</ele><time>2026-04-29T14:30:43Z</time></trkpt><trkpt lat="43.92998586400191" lon="11.621923225262181"><ele>419.0</ele><time>2026-04-29T14:30:44Z</time></trkpt><trkpt lat="43.92998049618513" lon="11.622085233071461"><ele>419.0</ele><time>2026-04-29T14:30:45Z</time></trkpt><trkpt lat="43.929947121257406" lon="11.622234287907466"><ele>418.25</ele><time>2026-04-29T14:30:46Z</time></trkpt><trkpt lat="43.92986100136442" lon="11.622340818512884"><ele>417.5</ele><time>2026-04-29T14:30:47Z</time></trkpt><trkpt lat="43.92976588022985" lon="11.622430317972857"><ele>416.75</ele><time>2026-04-29T14:30:48Z</time></trkpt><trkpt lat="43.92967634255624" lon="11.622526795254545"><ele>416.0</ele><time>2026-04-29T14:30:49Z</time></trkpt><trkpt lat="43.929574447550934" lon="11.622629522642377"><ele>416.0</ele><time>2026-04-29T14:30:50Z</time></trkpt><trkpt lat="43.92946958453712" lon="11.622689907225908"><ele>416.0</ele><time>2026-04-29T14:30:51Z</time></trkpt><trkpt lat="43.92937603883606" lon="11.622706491311535"><ele>416.0</ele><time>2026-04-29T14:30:52Z</time></trkpt><trkpt lat="43.92928706483759" lon="11.622604709236983"><ele>416.0</ele><time>2026-04-29T14:30:53Z</time></trkpt><trkpt lat="43.929207801284946" lon="11.622487830514048"><ele>416.0</ele><time>2026-04-29T14:30:54Z</time></trkpt><trkpt lat="43.929115171922845" lon="11.622296973518084"><ele>416.3333333333333</ele><time>2026-04-29T14:30:55Z</time></trkpt><trkpt lat="43.929026067767246" lon="11.622072520625991"><ele>416.66666666666663</ele><time>2026-04-29T14:30:56Z</time></trkpt><trkpt lat="43.92888564008774" lon="11.62184297129018"><ele>417.0</ele><time>2026-04-29T14:30:57Z</time></trkpt><trkpt lat="43.928775087914765" lon="11.621669554022922"><ele>413.75</ele><time>2026-04-29T14:30:58Z</time></trkpt><trkpt lat="43.92867926504508" lon="11.621528320332219"><ele>410.5</ele><time>2026-04-29T14:30:59Z</time></trkpt><trkpt lat="43.92859151848217" lon="11.621394798809169"><ele>407.25</ele><time>2026-04-29T14:31:00Z</time></trkpt><trkpt lat="43.92852730687324" lon="11.621285440085973"><ele>404.0</ele><time>2026-04-29T14:31:01Z</time></trkpt><trkpt lat="43.92846895054426" lon="11.621183059565766"><ele>404.2</ele><time>2026-04-29T14:31:02Z</time></trkpt><trkpt lat="43.9284019643561" lon="11.621084629924951"><ele>404.4</ele><time>2026-04-29T14:31:03Z</time></trkpt><trkpt lat="43.928345045943814" lon="11.621001870831776"><ele>404.6</ele><time>2026-04-29T14:31:04Z</time></trkpt><trkpt lat="43.928285561743984" lon="11.620916009951404"><ele>404.8</ele><time>2026-04-29T14:31:05Z</time></trkpt><trkpt lat="43.928229293144334" lon="11.620817702587166"><ele>405.0</ele><time>2026-04-29T14:31:06Z</time></trkpt><trkpt lat="43.92814679357344" lon="11.620699443170768"><ele>404.0</ele><time>2026-04-29T14:31:07Z</time></trkpt><trkpt lat="43.92804924292912" lon="11.620550584387713"><ele>403.0</ele><time>2026-04-29T14:31:08Z</time></trkpt><trkpt lat="43.92793583793367" lon="11.62037374122921"><ele>402.0</ele><time>2026-04-29T14:31:09Z</time></trkpt><trkpt lat="43.92781497802149" lon="11.620189203476995"><ele>403.66666666666663</ele><time>2026-04-29T14:31:10Z</time></trkpt><trkpt lat="43.927688838862124" lon="11.61999622659017"><ele>405.3333333333333</ele><time>2026-04-29T14:31:11Z</time></trkpt><trkpt lat="43.92757279724595" lon="11.6198229509312"><ele>407.0</ele><time>2026-04-29T14:31:12Z</time></trkpt><trkpt lat="43.92745073212072" lon="11.619668525983599"><ele>407.0</ele><time>2026-04-29T14:31:13Z</time></trkpt><trkpt lat="43.927300479163016" lon="11.619545914884386"><ele>407.0</ele><time>2026-04-29T14:31:14Z</time></trkpt><trkpt lat="43.92713724789755" lon="11.619466194120637"><ele>407.0</ele><time>2026-04-29T14:31:15Z</time></trkpt><trkpt lat="43.926969070634385" lon="11.619398202764486"><ele>405.0</ele><time>2026-04-29T14:31:16Z</time></trkpt><trkpt lat="43.92681960568077" lon="11.619300209923493"><ele>403.0</ele><time>2026-04-29T14:31:17Z</time></trkpt><trkpt lat="43.926685728940576" lon="11.619179827296072"><ele>401.0</ele><time>2026-04-29T14:31:18Z</time></trkpt><trkpt lat="43.92658202596092" lon="11.619033885796451"><ele>401.0</ele><time>2026-04-29T14:31:19Z</time></trkpt><trkpt lat="43.926475632051606" lon="11.618919420539186"><ele>401.0</ele><time>2026-04-29T14:31:20Z</time></trkpt><trkpt lat="43.92641006268144" lon="11.618759692718454"><ele>401.0</ele><time>2026-04-29T14:31:21Z</time></trkpt><trkpt lat="43.926370369263125" lon="11.618566744859464"><ele>401.0</ele><time>2026-04-29T14:31:22Z</time></trkpt><trkpt lat="43.92634553948558" lon="11.618385710642128"><ele>398.99999999999994</ele><time>2026-04-29T14:31:23Z</time></trkpt><trkpt lat="43.92632767371726" lon="11.618229814948158"><ele>397.0</ele><time>2026-04-29T14:31:24Z</time></trkpt><trkpt lat="43.926300397008724" lon="11.618099331245546"><ele>395.0</ele><time>2026-04-29T14:31:25Z</time></trkpt><trkpt lat="43.92625885697751" lon="11.618024416310806"><ele>393.0</ele><time>2026-04-29T14:31:26Z</time></trkpt><trkpt lat="43.92619299020438" lon="11.617998622206903"><ele>390.99999999999994</ele><time>2026-04-29T14:31:27Z</time></trkpt><trkpt lat="43.926101668160086" lon="11.617977929153076"><ele>389.0</ele><time>2026-04-29T14:31:28Z</time></trkpt><trkpt lat="43.925996885280526" lon="11.617929838232069"><ele>391.2</ele><time>2026-04-29T14:31:29Z</time></trkpt><trkpt lat="43.925892173195685" lon="11.617898476222594"><ele>393.4</ele><time>2026-04-29T14:31:30Z</time></trkpt><trkpt lat="43.925810231839854" lon="11.617863222564033"><ele>395.6</ele><time>2026-04-29T14:31:31Z</time></trkpt><trkpt lat="43.925721694667864" lon="11.617865401864345"><ele>397.8</ele><time>2026-04-29T14:31:32Z</time></trkpt><trkpt lat="43.92562958535452" lon="11.617931548727013"><ele>400.0</ele><time>2026-04-29T14:31:33Z</time></trkpt><trkpt lat="43.925539494304" lon="11.618052128262564"><ele>400.0</ele><time>2026-04-29T14:31:34Z</time></trkpt><trkpt lat="43.92545058733805" lon="11.618202057220122"><ele>400.0</ele><time>2026-04-29T14:31:35Z</time></trkpt><trkpt lat="43.92536811027902" lon="11.618327927066325"><ele>400.0</ele><time>2026-04-29T14:31:36Z</time></trkpt><trkpt lat="43.92529486760806" lon="11.618438320576663"><ele>400.0</ele><time>2026-04-29T14:31:37Z</time></trkpt><trkpt lat="43.92525238011701" lon="11.618566640540655"><ele>401.2</ele><time>2026-04-29T14:31:38Z</time></trkpt><trkpt lat="43.9252370384886" lon="11.618719841444346"><ele>402.4</ele><time>2026-04-29T14:31:39Z</time></trkpt><trkpt lat="43.92527480265628" lon="11.61887685146969"><ele>403.6</ele><time>2026-04-29T14:31:40Z</time></trkpt><trkpt lat="43.92525752943623" lon="11.619022522201035"><ele>404.8</ele><time>2026-04-29T14:31:41Z</time></trkpt><trkpt lat="43.925209923319365" lon="11.619145761274766"><ele>406.0</ele><time>2026-04-29T14:31:42Z</time></trkpt><trkpt lat="43.925126631105734" lon="11.619203091210808"><ele>402.0</ele><time>2026-04-29T14:31:43Z</time></trkpt><trkpt lat="43.92505885307741" lon="11.619266199187257"><ele>398.0</ele><time>2026-04-29T14:31:44Z</time></trkpt><trkpt lat="43.92495377289104" lon="11.619217174068943"><ele>394.0</ele><time>2026-04-29T14:31:46Z</time></trkpt><trkpt lat="43.924938453980516" lon="11.619119370294046"><ele>390.0</ele><time>2026-04-29T14:31:47Z</time></trkpt><trkpt lat="43.92495608188992" lon="11.619005976633233"><ele>386.0</ele><time>2026-04-29T14:31:48Z</time></trkpt><trkpt lat="43.924987553878445" lon="11.618856252939315"><ele>384.0</ele><time>2026-04-29T14:31:49Z</time></trkpt><trkpt lat="43.925011056551384" lon="11.618639859795742"><ele>382.0</ele><time>2026-04-29T14:31:50Z</time></trkpt><trkpt lat="43.925032258424615" lon="11.618437627873165"><ele>380.0</ele><time>2026-04-29T14:31:51Z</time></trkpt><trkpt lat="43.92505385213172" lon="11.618250929027587"><ele>378.0</ele><time>2026-04-29T14:31:52Z</time></trkpt><trkpt lat="43.9250852188217" lon="11.618090309815717"><ele>380.75</ele><time>2026-04-29T14:31:53Z</time></trkpt><trkpt lat="43.92514351664452" lon="11.617934795144132"><ele>383.5</ele><time>2026-04-29T14:31:54Z</time></trkpt><trkpt lat="43.92525467734337" lon="11.617796725535097"><ele>386.25</ele><time>2026-04-29T14:31:55Z</time></trkpt><trkpt lat="43.92536591969141" lon="11.617620786452333"><ele>389.0</ele><time>2026-04-29T14:31:56Z</time></trkpt><trkpt lat="43.92548988011904" lon="11.617444700879851"><ele>389.0</ele><time>2026-04-29T14:31:57Z</time></trkpt><trkpt lat="43.92560128119803" lon="11.617250913770336"><ele>389.0</ele><time>2026-04-29T14:31:58Z</time></trkpt><trkpt lat="43.925690390036685" lon="11.617023630086594"><ele>389.0</ele><time>2026-04-29T14:31:58.999Z</time></trkpt><trkpt lat="43.9257653893981" lon="11.616777903136002"><ele>384.0</ele><time>2026-04-29T14:31:59.999Z</time></trkpt><trkpt lat="43.925805786109834" lon="11.616528409347076"><ele>379.0</ele><time>2026-04-29T14:32:00.999Z</time></trkpt><trkpt lat="43.92582038080183" lon="11.616275050449959"><ele>374.0</ele><time>2026-04-29T14:32:01.999Z</time></trkpt><trkpt lat="43.92582101518747" lon="11.616014692501565"><ele>371.6666666666667</ele><time>2026-04-29T14:32:02.999Z</time></trkpt><trkpt lat="43.92582164242507" lon="11.615749465705553"><ele>369.3333333333333</ele><time>2026-04-29T14:32:03.999Z</time></trkpt><trkpt lat="43.92582839110746" lon="11.615483176410427"><ele>367.0</ele><time>2026-04-29T14:32:04.999Z</time></trkpt><trkpt lat="43.92581279214608" lon="11.615193627227663"><ele>364.5</ele><time>2026-04-29T14:32:05.999Z</time></trkpt><trkpt lat="43.925763914995784" lon="11.614878311519227"><ele>362.0</ele><time>2026-04-29T14:32:06.999Z</time></trkpt><trkpt lat="43.925705257360086" lon="11.614573765410917"><ele>361.0</ele><time>2026-04-29T14:32:07.999Z</time></trkpt><trkpt lat="43.92566916754228" lon="11.61428729010767"><ele>360.0</ele><time>2026-04-29T14:32:08.999Z</time></trkpt><trkpt lat="43.925665209549344" lon="11.614004405400953"><ele>359.0</ele><time>2026-04-29T14:32:09.999Z</time></trkpt><trkpt lat="43.925671190926444" lon="11.613747946096202"><ele>356.5</ele><time>2026-04-29T14:32:10.999Z</time></trkpt><trkpt lat="43.925663979803154" lon="11.613528113411546"><ele>354.0</ele><time>2026-04-29T14:32:11.999Z</time></trkpt><trkpt lat="43.92565991184327" lon="11.61333304029354"><ele>351.5</ele><time>2026-04-29T14:32:12.999Z</time></trkpt><trkpt lat="43.925680490140664" lon="11.61316589830997"><ele>349.0</ele><time>2026-04-29T14:32:13.999Z</time></trkpt><trkpt lat="43.92576419095339" lon="11.613037275419373"><ele>349.0</ele><time>2026-04-29T14:32:14.999Z</time></trkpt><trkpt lat="43.92585827708616" lon="11.61293220794638"><ele>349.0</ele><time>2026-04-29T14:32:15.999Z</time></trkpt><trkpt lat="43.925940626068716" lon="11.612909233605027"><ele>349.0</ele><time>2026-04-29T14:32:16.999Z</time></trkpt><trkpt lat="43.92601195700315" lon="11.61296672602637"><ele>349.0</ele><time>2026-04-29T14:32:17.999Z</time></trkpt><trkpt lat="43.926093379339854" lon="11.613059488045353"><ele>349.0</ele><time>2026-04-29T14:32:18.999Z</time></trkpt><trkpt lat="43.92621099056285" lon="11.613187184496875"><ele>348.79999999999995</ele><time>2026-04-29T14:32:19.999Z</time></trkpt><trkpt lat="43.92633075500385" lon="11.613313693719633"><ele>348.59999999999997</ele><time>2026-04-29T14:32:20.999Z</time></trkpt><trkpt lat="43.92641575744644" lon="11.61339299859578"><ele>348.4</ele><time>2026-04-29T14:32:21.999Z</time></trkpt><trkpt lat="43.926506814817934" lon="11.613408551722406"><ele>348.2</ele><time>2026-04-29T14:32:22.999Z</time></trkpt><trkpt lat="43.926589974321026" lon="11.613361741319743"><ele>348.0</ele><time>2026-04-29T14:32:23.999Z</time></trkpt><trkpt lat="43.926650735404195" lon="11.613197983337118"><ele>348.0</ele><time>2026-04-29T14:32:24.999Z</time></trkpt><trkpt lat="43.92667105471143" lon="11.612995971891369"><ele>348.0</ele><time>2026-04-29T14:32:25.999Z</time></trkpt><trkpt lat="43.92669488830328" lon="11.612796013660457"><ele>348.0</ele><time>2026-04-29T14:32:26.999Z</time></trkpt><trkpt lat="43.92674628481587" lon="11.612576595786631"><ele>347.0</ele><time>2026-04-29T14:32:27.999Z</time></trkpt><trkpt lat="43.92678862691846" lon="11.612379204429097"><ele>346.0</ele><time>2026-04-29T14:32:28.999Z</time></trkpt><trkpt lat="43.92681375441447" lon="11.612178145666478"><ele>345.0</ele><time>2026-04-29T14:32:29.999Z</time></trkpt><trkpt lat="43.9266994268775" lon="11.61204114210616"><ele>344.0</ele><time>2026-04-29T14:32:30.999Z</time></trkpt><trkpt lat="43.926608360704996" lon="11.611926509682943"><ele>344.0</ele><time>2026-04-29T14:32:31.999Z</time></trkpt><trkpt lat="43.92649206344249" lon="11.611849156699261"><ele>344.0</ele><time>2026-04-29T14:32:32.999Z</time></trkpt><trkpt lat="43.92637620543702" lon="11.611841407072239"><ele>344.0</ele><time>2026-04-29T14:32:33.999Z</time></trkpt><trkpt lat="43.92626525046496" lon="11.611854161171653"><ele>344.0</ele><time>2026-04-29T14:32:34.999Z</time></trkpt><trkpt lat="43.92616339532738" lon="11.611895873089335"><ele>344.0</ele><time>2026-04-29T14:32:35.999Z</time></trkpt><trkpt lat="43.92607466914845" lon="11.611857273951708"><ele>344.0</ele><time>2026-04-29T14:32:37Z</time></trkpt><trkpt lat="43.92599372582461" lon="11.611776230824255"><ele>344.0</ele><time>2026-04-29T14:32:38Z</time></trkpt><trkpt lat="43.92596300199447" lon="11.611648432970725"><ele>344.0</ele><time>2026-04-29T14:32:39Z</time></trkpt><trkpt lat="43.92598944915834" lon="11.61150976753898"><ele>344.0</ele><time>2026-04-29T14:32:40Z</time></trkpt><trkpt lat="43.92605275832523" lon="11.611402805574706"><ele>344.0</ele><time>2026-04-29T14:32:41Z</time></trkpt><trkpt lat="43.92613925834316" lon="11.611285047262959"><ele>344.0</ele><time>2026-04-29T14:32:42Z</time></trkpt><trkpt lat="43.926230265018944" lon="11.611165485939233"><ele>344.0</ele><time>2026-04-29T14:32:43Z</time></trkpt><trkpt lat="43.92632648852208" lon="11.611074599982153"><ele>344.0</ele><time>2026-04-29T14:32:44Z</time></trkpt><trkpt lat="43.92642514357391" lon="11.611046269018248"><ele>341.0</ele><time>2026-04-29T14:32:45Z</time></trkpt><trkpt lat="43.926564565850896" lon="11.611056217717211"><ele>338.0</ele><time>2026-04-29T14:32:46Z</time></trkpt><trkpt lat="43.926755036711086" lon="11.611065635240891"><ele>335.0</ele><time>2026-04-29T14:32:47Z</time></trkpt><trkpt lat="43.92693223997672" lon="11.611039216783166"><ele>335.0</ele><time>2026-04-29T14:32:48Z</time></trkpt><trkpt lat="43.92714372224521" lon="11.610965579056403"><ele>335.0</ele><time>2026-04-29T14:32:49Z</time></trkpt><trkpt lat="43.927324078753614" lon="11.610896265508485"><ele>335.0</ele><time>2026-04-29T14:32:50Z</time></trkpt><trkpt lat="43.92746439278953" lon="11.610824644852599"><ele>343.6666666666667</ele><time>2026-04-29T14:32:51Z</time></trkpt><trkpt lat="43.92761517539664" lon="11.610752629264848"><ele>352.3333333333333</ele><time>2026-04-29T14:32:52Z</time></trkpt><trkpt lat="43.9277443317719" lon="11.610628924471408"><ele>361.0</ele><time>2026-04-29T14:32:53Z</time></trkpt><trkpt lat="43.92781109883213" lon="11.6104194463734"><ele>356.3333333333333</ele><time>2026-04-29T14:32:54Z</time></trkpt><trkpt lat="43.92783357170499" lon="11.610198149851964"><ele>351.6666666666667</ele><time>2026-04-29T14:32:55Z</time></trkpt><trkpt lat="43.927809551369045" lon="11.609964476919709"><ele>347.0</ele><time>2026-04-29T14:32:56Z</time></trkpt><trkpt lat="43.92772561223843" lon="11.609701654701164"><ele>341.33333333333337</ele><time>2026-04-29T14:32:57Z</time></trkpt><trkpt lat="43.92767078787097" lon="11.609464888127272"><ele>335.6666666666667</ele><time>2026-04-29T14:32:58Z</time></trkpt><trkpt lat="43.927616138696415" lon="11.60925147873494"><ele>330.0</ele><time>2026-04-29T14:32:59Z</time></trkpt><trkpt lat="43.92756654140139" lon="11.609016912382302"><ele>327.0</ele><time>2026-04-29T14:33:00Z</time></trkpt><trkpt lat="43.92751360472272" lon="11.608807905272068"><ele>324.0</ele><time>2026-04-29T14:33:01Z</time></trkpt><trkpt lat="43.927419587836496" lon="11.608601151491584"><ele>321.0</ele><time>2026-04-29T14:33:02Z</time></trkpt><trkpt lat="43.927285919159516" lon="11.608428192492923"><ele>321.0</ele><time>2026-04-29T14:33:03Z</time></trkpt><trkpt lat="43.92715511503845" lon="11.608198084904435"><ele>321.0</ele><time>2026-04-29T14:33:04Z</time></trkpt><trkpt lat="43.92703969636281" lon="11.608035310489187"><ele>321.0</ele><time>2026-04-29T14:33:05Z</time></trkpt><trkpt lat="43.926937840744095" lon="11.607861939794113"><ele>319.0</ele><time>2026-04-29T14:33:06Z</time></trkpt><trkpt lat="43.926856200483755" lon="11.607633012137606"><ele>317.0</ele><time>2026-04-29T14:33:07Z</time></trkpt><trkpt lat="43.92679529720759" lon="11.60735635674587"><ele>315.0</ele><time>2026-04-29T14:33:08Z</time></trkpt><trkpt lat="43.926706453153066" lon="11.607069360110348"><ele>316.3333333333333</ele><time>2026-04-29T14:33:09Z</time></trkpt><trkpt lat="43.9266287226261" lon="11.606780400723354"><ele>317.66666666666663</ele><time>2026-04-29T14:33:10Z</time></trkpt><trkpt lat="43.92655898319084" lon="11.6065172438323"><ele>319.0</ele><time>2026-04-29T14:33:11Z</time></trkpt><trkpt lat="43.926494739105195" lon="11.606267084826987"><ele>319.3333333333333</ele><time>2026-04-29T14:33:12Z</time></trkpt><trkpt lat="43.9264441977876" lon="11.606006811321908"><ele>319.6666666666667</ele><time>2026-04-29T14:33:13Z</time></trkpt><trkpt lat="43.92641494623312" lon="11.605707661251905"><ele>320.0</ele><time>2026-04-29T14:33:14Z</time></trkpt><trkpt lat="43.92639444944959" lon="11.60538127840087"><ele>320.5</ele><time>2026-04-29T14:33:15Z</time></trkpt><trkpt lat="43.926378346033914" lon="11.605060668899291"><ele>321.0</ele><time>2026-04-29T14:33:16Z</time></trkpt><trkpt lat="43.92636490474615" lon="11.604733776907315"><ele>320.6666666666667</ele><time>2026-04-29T14:33:17Z</time></trkpt><trkpt lat="43.92635283103759" lon="11.604436019094301"><ele>320.33333333333337</ele><time>2026-04-29T14:33:18Z</time></trkpt><trkpt lat="43.9263441418065" lon="11.604138117992422"><ele>320.0</ele><time>2026-04-29T14:33:19Z</time></trkpt><trkpt lat="43.92633981273452" lon="11.603839237697777"><ele>320.0</ele><time>2026-04-29T14:33:20Z</time></trkpt><trkpt lat="43.92634397169017" lon="11.60353235973333"><ele>320.0</ele><time>2026-04-29T14:33:21Z</time></trkpt><trkpt lat="43.92634621099972" lon="11.603217693250656"><ele>320.0</ele><time>2026-04-29T14:33:22Z</time></trkpt><trkpt lat="43.926346133926174" lon="11.60290385521856"><ele>323.0</ele><time>2026-04-29T14:33:23Z</time></trkpt><trkpt lat="43.92634812597658" lon="11.60258591769539"><ele>326.0</ele><time>2026-04-29T14:33:24Z</time></trkpt><trkpt lat="43.926355659491485" lon="11.602269154097383"><ele>326.0</ele><time>2026-04-29T14:33:25Z</time></trkpt><trkpt lat="43.9263651141795" lon="11.601959785626505"><ele>326.0</ele><time>2026-04-29T14:33:26Z</time></trkpt><trkpt lat="43.92637535798996" lon="11.60163762229593"><ele>326.0</ele><time>2026-04-29T14:33:27Z</time></trkpt><trkpt lat="43.92637381102225" lon="11.601323124928424"><ele>326.0</ele><time>2026-04-29T14:33:28Z</time></trkpt><trkpt lat="43.926358693934375" lon="11.60103165685142"><ele>326.0</ele><time>2026-04-29T14:33:29Z</time></trkpt><trkpt lat="43.926325411423996" lon="11.600755136789248"><ele>329.0</ele><time>2026-04-29T14:33:30Z</time></trkpt><trkpt lat="43.9262970714536" lon="11.600519924338142"><ele>332.0</ele><time>2026-04-29T14:33:31Z</time></trkpt><trkpt lat="43.92626226992196" lon="11.600323567507688"><ele>335.0</ele><time>2026-04-29T14:33:32Z</time></trkpt><trkpt lat="43.92618166473879" lon="11.600151367209348"><ele>341.33333333333337</ele><time>2026-04-29T14:33:33Z</time></trkpt><trkpt lat="43.926041988294635" lon="11.599974584396078"><ele>347.6666666666667</ele><time>2026-04-29T14:33:34Z</time></trkpt><trkpt lat="43.9258771008788" lon="11.599776677173086"><ele>354.0</ele><time>2026-04-29T14:33:35Z</time></trkpt><trkpt lat="43.92573287600121" lon="11.599569142667574"><ele>344.6666666666667</ele><time>2026-04-29T14:33:36Z</time></trkpt><trkpt lat="43.92560007391155" lon="11.599385211012574"><ele>335.33333333333337</ele><time>2026-04-29T14:33:37Z</time></trkpt><trkpt lat="43.925477502759" lon="11.599211843547048"><ele>326.0</ele><time>2026-04-29T14:33:38Z</time></trkpt><trkpt lat="43.92536049032053" lon="11.599045061172033"><ele>326.0</ele><time>2026-04-29T14:33:39Z</time></trkpt><trkpt lat="43.925256432204215" lon="11.598869893940272"><ele>326.0</ele><time>2026-04-29T14:33:40Z</time></trkpt><trkpt lat="43.92519909322987" lon="11.598650245743652"><ele>326.0</ele><time>2026-04-29T14:33:41Z</time></trkpt><trkpt lat="43.92514458507378" lon="11.598449598514506"><ele>324.33333333333337</ele><time>2026-04-29T14:33:42Z</time></trkpt><trkpt lat="43.925126712622045" lon="11.59825122220034"><ele>322.6666666666667</ele><time>2026-04-29T14:33:43Z</time></trkpt><trkpt lat="43.92515555093481" lon="11.598044636162056"><ele>321.0</ele><time>2026-04-29T14:33:44Z</time></trkpt><trkpt lat="43.9252089819593" lon="11.597837567794524"><ele>315.0</ele><time>2026-04-29T14:33:45Z</time></trkpt><trkpt lat="43.925296866506955" lon="11.597688203704047"><ele>309.0</ele><time>2026-04-29T14:33:46Z</time></trkpt><trkpt lat="43.925414100883614" lon="11.597568535403333"><ele>303.0</ele><time>2026-04-29T14:33:47Z</time></trkpt><trkpt lat="43.92556701490422" lon="11.59743961498969"><ele>303.0</ele><time>2026-04-29T14:33:48Z</time></trkpt><trkpt lat="43.92575375219833" lon="11.597285497074882"><ele>303.0</ele><time>2026-04-29T14:33:49Z</time></trkpt><trkpt lat="43.92592982921487" lon="11.597115534663464"><ele>303.0</ele><time>2026-04-29T14:33:50Z</time></trkpt><trkpt lat="43.92608813524448" lon="11.596955639401694"><ele>306.0</ele><time>2026-04-29T14:33:51Z</time></trkpt><trkpt lat="43.92620826347105" lon="11.596729250933999"><ele>309.0</ele><time>2026-04-29T14:33:52Z</time></trkpt><trkpt lat="43.92631686733821" lon="11.596470734361377"><ele>312.0</ele><time>2026-04-29T14:33:53Z</time></trkpt><trkpt lat="43.926407053392715" lon="11.596199978192312"><ele>311.6666666666667</ele><time>2026-04-29T14:33:54Z</time></trkpt><trkpt lat="43.92645882110558" lon="11.59590726173337"><ele>311.33333333333337</ele><time>2026-04-29T14:33:55Z</time></trkpt><trkpt lat="43.92647182749848" lon="11.59563815992377"><ele>311.0</ele><time>2026-04-29T14:33:56Z</time></trkpt><trkpt lat="43.92645736327543" lon="11.595405033819816"><ele>315.6666666666667</ele><time>2026-04-29T14:33:57Z</time></trkpt><trkpt lat="43.92641024774574" lon="11.595223619851442"><ele>320.3333333333333</ele><time>2026-04-29T14:33:58Z</time></trkpt><trkpt lat="43.92632013811967" lon="11.595070359089592"><ele>325.0</ele><time>2026-04-29T14:33:59Z</time></trkpt><trkpt lat="43.9261526162266" lon="11.594975635580827"><ele>325.0</ele><time>2026-04-29T14:34:00Z</time></trkpt><trkpt lat="43.92609880446836" lon="11.59480174604758"><ele>325.0</ele><time>2026-04-29T14:34:01Z</time></trkpt><trkpt lat="43.926120809384756" lon="11.594619419211067"><ele>325.0</ele><time>2026-04-29T14:34:02Z</time></trkpt><trkpt lat="43.926130508885144" lon="11.594418374367072"><ele>325.0</ele><time>2026-04-29T14:34:03Z</time></trkpt><trkpt lat="43.92617103807176" lon="11.594147639349671"><ele>324.66666666666663</ele><time>2026-04-29T14:34:03.999Z</time></trkpt><trkpt lat="43.9261992053501" lon="11.593850239180854"><ele>324.3333333333333</ele><time>2026-04-29T14:34:04.999Z</time></trkpt><trkpt lat="43.92622856294697" lon="11.593549649618767"><ele>324.0</ele><time>2026-04-29T14:34:05.999Z</time></trkpt><trkpt lat="43.926259462363426" lon="11.593244001604356"><ele>322.0</ele><time>2026-04-29T14:34:06.999Z</time></trkpt><trkpt lat="43.92629083932552" lon="11.592946666130878"><ele>320.0</ele><time>2026-04-29T14:34:07.999Z</time></trkpt><trkpt lat="43.92632779286609" lon="11.592662676211605"><ele>318.0</ele><time>2026-04-29T14:34:08.999Z</time></trkpt><trkpt lat="43.926381481074884" lon="11.592387372007563"><ele>313.6666666666667</ele><time>2026-04-29T14:34:09.999Z</time></trkpt><trkpt lat="43.92644367194739" lon="11.59213688708582"><ele>309.33333333333337</ele><time>2026-04-29T14:34:10.999Z</time></trkpt><trkpt lat="43.92648531171889" lon="11.59189271712448"><ele>305.0</ele><time>2026-04-29T14:34:11.999Z</time></trkpt><trkpt lat="43.926484105189104" lon="11.591660812050105"><ele>303.6666666666667</ele><time>2026-04-29T14:34:12.999Z</time></trkpt><trkpt lat="43.92643809253767" lon="11.591435827829661"><ele>302.3333333333333</ele><time>2026-04-29T14:34:13.999Z</time></trkpt><trkpt lat="43.92639965671962" lon="11.591230774955719"><ele>301.0</ele><time>2026-04-29T14:34:14.999Z</time></trkpt><trkpt lat="43.926437289885136" lon="11.59104606157773"><ele>300.0</ele><time>2026-04-29T14:34:15.999Z</time></trkpt><trkpt lat="43.92650054891091" lon="11.590869968417088"><ele>299.0</ele><time>2026-04-29T14:34:16.999Z</time></trkpt><trkpt lat="43.92659390553241" lon="11.59069097002243"><ele>298.0</ele><time>2026-04-29T14:34:17.999Z</time></trkpt><trkpt lat="43.92671571693786" lon="11.590548531596985"><ele>307.3333333333333</ele><time>2026-04-29T14:34:18.999Z</time></trkpt><trkpt lat="43.92682318898298" lon="11.590362063408278"><ele>316.6666666666667</ele><time>2026-04-29T14:34:19.999Z</time></trkpt><trkpt lat="43.9269084760935" lon="11.59016648432804"><ele>326.0</ele><time>2026-04-29T14:34:20.999Z</time></trkpt><trkpt lat="43.92694039503098" lon="11.589951504610935"><ele>326.0</ele><time>2026-04-29T14:34:21.999Z</time></trkpt><trkpt lat="43.92694519412271" lon="11.589770451108064"><ele>326.0</ele><time>2026-04-29T14:34:22.999Z</time></trkpt><trkpt lat="43.92693217250631" lon="11.589617791726422"><ele>326.0</ele><time>2026-04-29T14:34:23.999Z</time></trkpt><trkpt lat="43.92693571908089" lon="11.589469833822488"><ele>326.0</ele><time>2026-04-29T14:34:24.999Z</time></trkpt><trkpt lat="43.926924751655186" lon="11.589316701226048"><ele>327.0</ele><time>2026-04-29T14:34:25.999Z</time></trkpt><trkpt lat="43.92687782971498" lon="11.58917475462983"><ele>328.0</ele><time>2026-04-29T14:34:26.999Z</time></trkpt><trkpt lat="43.926835924880606" lon="11.589019133856162"><ele>329.0</ele><time>2026-04-29T14:34:27.999Z</time></trkpt><trkpt lat="43.92679467073052" lon="11.588845202035069"><ele>330.0</ele><time>2026-04-29T14:34:28.999Z</time></trkpt><trkpt lat="43.926713679276396" lon="11.588713759706657"><ele>319.3333333333333</ele><time>2026-04-29T14:34:29.999Z</time></trkpt><trkpt lat="43.92658004323227" lon="11.588583560177494"><ele>308.66666666666663</ele><time>2026-04-29T14:34:30.999Z</time></trkpt><trkpt lat="43.926427961484315" lon="11.588440250908633"><ele>298.0</ele><time>2026-04-29T14:34:31.999Z</time></trkpt><trkpt lat="43.92629480404872" lon="11.588278617618567"><ele>298.0</ele><time>2026-04-29T14:34:32.999Z</time></trkpt><trkpt lat="43.926178138281" lon="11.588093089812704"><ele>298.0</ele><time>2026-04-29T14:34:33.999Z</time></trkpt><trkpt lat="43.926108047868325" lon="11.587874873701193"><ele>298.0</ele><time>2026-04-29T14:34:34.999Z</time></trkpt><trkpt lat="43.92605592448941" lon="11.58767291363237"><ele>297.66666666666663</ele><time>2026-04-29T14:34:35.999Z</time></trkpt><trkpt lat="43.92600409943978" lon="11.587486146643833"><ele>297.3333333333333</ele><time>2026-04-29T14:34:36.999Z</time></trkpt><trkpt lat="43.92597464122827" lon="11.587282276831917"><ele>297.0</ele><time>2026-04-29T14:34:37.999Z</time></trkpt><trkpt lat="43.925953064246116" lon="11.587064250108492"><ele>296.6666666666667</ele><time>2026-04-29T14:34:38.999Z</time></trkpt><trkpt lat="43.925939126578854" lon="11.586830137300662"><ele>296.33333333333337</ele><time>2026-04-29T14:34:39.999Z</time></trkpt><trkpt lat="43.92591176353559" lon="11.58659427557633"><ele>296.0</ele><time>2026-04-29T14:34:40.999Z</time></trkpt><trkpt lat="43.92588258014543" lon="11.586370179731556"><ele>291.0</ele><time>2026-04-29T14:34:41.999Z</time></trkpt><trkpt lat="43.92586264030941" lon="11.586156286584547"><ele>286.0</ele><time>2026-04-29T14:34:43Z</time></trkpt><trkpt lat="43.92585258145902" lon="11.585946812247853"><ele>281.0</ele><time>2026-04-29T14:34:44Z</time></trkpt><trkpt lat="43.92586665332649" lon="11.585721501643652"><ele>286.0</ele><time>2026-04-29T14:34:45Z</time></trkpt><trkpt lat="43.925931383829194" lon="11.58550606218987"><ele>291.0</ele><time>2026-04-29T14:34:46Z</time></trkpt><trkpt lat="43.925984445440776" lon="11.585288453692959"><ele>296.0</ele><time>2026-04-29T14:34:47Z</time></trkpt><trkpt lat="43.9260706698215" lon="11.585090880552103"><ele>296.0</ele><time>2026-04-29T14:34:48Z</time></trkpt><trkpt lat="43.92620625099399" lon="11.584921509083697"><ele>296.0</ele><time>2026-04-29T14:34:49Z</time></trkpt><trkpt lat="43.92635919163213" lon="11.584744670556004"><ele>296.0</ele><time>2026-04-29T14:34:50Z</time></trkpt><trkpt lat="43.926506707903066" lon="11.58454425819322"><ele>296.6666666666667</ele><time>2026-04-29T14:34:51Z</time></trkpt><trkpt lat="43.92664821674165" lon="11.58437093403042"><ele>297.3333333333333</ele><time>2026-04-29T14:34:52Z</time></trkpt><trkpt lat="43.92676833455553" lon="11.58421062399881"><ele>298.0</ele><time>2026-04-29T14:34:53Z</time></trkpt><trkpt lat="43.9268751938998" lon="11.584064497811042"><ele>298.0</ele><time>2026-04-29T14:34:54Z</time></trkpt><trkpt lat="43.926975895864615" lon="11.58393413242461"><ele>298.0</ele><time>2026-04-29T14:34:55Z</time></trkpt><trkpt lat="43.92706376741712" lon="11.583808525388186"><ele>298.0</ele><time>2026-04-29T14:34:56Z</time></trkpt><trkpt lat="43.92713943893278" lon="11.583677559679675"><ele>298.0</ele><time>2026-04-29T14:34:57Z</time></trkpt><trkpt lat="43.927198594491344" lon="11.58354262279837"><ele>295.8</ele><time>2026-04-29T14:34:58Z</time></trkpt><trkpt lat="43.92725215945641" lon="11.583406887427143"><ele>293.6</ele><time>2026-04-29T14:34:59Z</time></trkpt><trkpt lat="43.92729938067246" lon="11.583275319781935"><ele>291.4</ele><time>2026-04-29T14:35:00Z</time></trkpt><trkpt lat="43.9273306841097" lon="11.583146078174629"><ele>289.2</ele><time>2026-04-29T14:35:01Z</time></trkpt><trkpt lat="43.92732836267002" lon="11.58301455303381"><ele>287.0</ele><time>2026-04-29T14:35:02Z</time></trkpt><trkpt lat="43.92728597104477" lon="11.582881323200036"><ele>289.0</ele><time>2026-04-29T14:35:03Z</time></trkpt><trkpt lat="43.92720133529836" lon="11.58276588580743"><ele>291.0</ele><time>2026-04-29T14:35:04Z</time></trkpt><trkpt lat="43.927079545043036" lon="11.58266792785208"><ele>293.0</ele><time>2026-04-29T14:35:05Z</time></trkpt><trkpt lat="43.92694530435778" lon="11.582532242971338"><ele>295.0</ele><time>2026-04-29T14:35:06Z</time></trkpt><trkpt lat="43.92682099155277" lon="11.582366311712454"><ele>287.0</ele><time>2026-04-29T14:35:07Z</time></trkpt><trkpt lat="43.926703297578094" lon="11.582168230615686"><ele>279.0</ele><time>2026-04-29T14:35:08Z</time></trkpt><trkpt lat="43.926598067047664" lon="11.581975990115732"><ele>271.0</ele><time>2026-04-29T14:35:09Z</time></trkpt><trkpt lat="43.926508106743" lon="11.581829219276482"><ele>270.6</ele><time>2026-04-29T14:35:10Z</time></trkpt><trkpt lat="43.92642088235064" lon="11.581707676030591"><ele>270.20000000000005</ele><time>2026-04-29T14:35:11Z</time></trkpt><trkpt lat="43.92633524613078" lon="11.581594495401454"><ele>269.79999999999995</ele><time>2026-04-29T14:35:12Z</time></trkpt><trkpt lat="43.926263243675336" lon="11.58149083159649"><ele>269.4</ele><time>2026-04-29T14:35:13Z</time></trkpt><trkpt lat="43.92619890735772" lon="11.581402853949987"><ele>269.0</ele><time>2026-04-29T14:35:14Z</time></trkpt><trkpt lat="43.92615178547869" lon="11.581293688866158"><ele>269.0</ele><time>2026-04-29T14:35:15Z</time></trkpt><trkpt lat="43.92609799444472" lon="11.58118380353604"><ele>269.0</ele><time>2026-04-29T14:35:16Z</time></trkpt><trkpt lat="43.926024623119964" lon="11.58106697560325"><ele>269.0</ele><time>2026-04-29T14:35:17Z</time></trkpt><trkpt lat="43.925973946868595" lon="11.58094824557194"><ele>269.0</ele><time>2026-04-29T14:35:18Z</time></trkpt><trkpt lat="43.9259250756193" lon="11.580844786885809"><ele>269.0</ele><time>2026-04-29T14:35:19Z</time></trkpt><trkpt lat="43.92587879177953" lon="11.58074839664544"><ele>268.6666666666667</ele><time>2026-04-29T14:35:20Z</time></trkpt><trkpt lat="43.92583082869979" lon="11.580657557397219"><ele>268.33333333333337</ele><time>2026-04-29T14:35:21Z</time></trkpt><trkpt lat="43.925772204305176" lon="11.580565064949457"><ele>268.0</ele><time>2026-04-29T14:35:22Z</time></trkpt><trkpt lat="43.925704626395145" lon="11.580488021716667"><ele>267.6666666666667</ele><time>2026-04-29T14:35:23Z</time></trkpt><trkpt lat="43.92563521922576" lon="11.580424641581219"><ele>267.3333333333333</ele><time>2026-04-29T14:35:24Z</time></trkpt><trkpt lat="43.925557042090446" lon="11.580355540204447"><ele>267.0</ele><time>2026-04-29T14:35:25Z</time></trkpt><trkpt lat="43.92547638443425" lon="11.58028462023959"><ele>268.6</ele><time>2026-04-29T14:35:26Z</time></trkpt><trkpt lat="43.92539908808775" lon="11.580206045138057"><ele>270.2</ele><time>2026-04-29T14:35:27Z</time></trkpt><trkpt lat="43.92532595775436" lon="11.580115226893522"><ele>271.8</ele><time>2026-04-29T14:35:28Z</time></trkpt><trkpt lat="43.925265067647665" lon="11.580010534220206"><ele>273.4</ele><time>2026-04-29T14:35:29Z</time></trkpt><trkpt lat="43.92522601268427" lon="11.579887181088619"><ele>275.0</ele><time>2026-04-29T14:35:30Z</time></trkpt><trkpt lat="43.925196566455035" lon="11.57976324321437"><ele>275.0</ele><time>2026-04-29T14:35:31Z</time></trkpt><trkpt lat="43.92517623043367" lon="11.579617354988297"><ele>275.0</ele><time>2026-04-29T14:35:32Z</time></trkpt><trkpt lat="43.92514893898204" lon="11.579434341424474"><ele>275.0</ele><time>2026-04-29T14:35:33Z</time></trkpt><trkpt lat="43.92513567138564" lon="11.579208333665957"><ele>275.0</ele><time>2026-04-29T14:35:34Z</time></trkpt><trkpt lat="43.925094403084245" lon="11.578954885635154"><ele>272.33333333333337</ele><time>2026-04-29T14:35:35Z</time></trkpt><trkpt lat="43.92508283789236" lon="11.578684743212873"><ele>269.6666666666667</ele><time>2026-04-29T14:35:36Z</time></trkpt><trkpt lat="43.92505245084092" lon="11.578405150753616"><ele>267.0</ele><time>2026-04-29T14:35:37Z</time></trkpt><trkpt lat="43.92501540715291" lon="11.578151906412083"><ele>267.0</ele><time>2026-04-29T14:35:38Z</time></trkpt><trkpt lat="43.924984259342" lon="11.577916118542053"><ele>267.0</ele><time>2026-04-29T14:35:39Z</time></trkpt><trkpt lat="43.92494732272303" lon="11.577713636567145"><ele>267.0</ele><time>2026-04-29T14:35:40Z</time></trkpt><trkpt lat="43.924890413282085" lon="11.577542804544734"><ele>267.0</ele><time>2026-04-29T14:35:41Z</time></trkpt><trkpt lat="43.92481173609383" lon="11.577396681756024"><ele>267.0</ele><time>2026-04-29T14:35:42Z</time></trkpt><trkpt lat="43.92471995600003" lon="11.57726125619396"><ele>267.0</ele><time>2026-04-29T14:35:43Z</time></trkpt><trkpt lat="43.92462890611215" lon="11.577130870299042"><ele>267.0</ele><time>2026-04-29T14:35:44Z</time></trkpt><trkpt lat="43.924545777976114" lon="11.577003643143904"><ele>267.0</ele><time>2026-04-29T14:35:45Z</time></trkpt><trkpt lat="43.92447259639746" lon="11.576885204046608"><ele>267.0</ele><time>2026-04-29T14:35:46Z</time></trkpt><trkpt lat="43.924405156241114" lon="11.576769055205277"><ele>267.0</ele><time>2026-04-29T14:35:47Z</time></trkpt><trkpt lat="43.92433720347379" lon="11.576658025958945"><ele>267.0</ele><time>2026-04-29T14:35:48Z</time></trkpt><trkpt lat="43.9242821107988" lon="11.57655946628931"><ele>267.0</ele><time>2026-04-29T14:35:49Z</time></trkpt><trkpt lat="43.92422978211064" lon="11.57647385189545"><ele>265.5</ele><time>2026-04-29T14:35:50Z</time></trkpt><trkpt lat="43.92417417610705" lon="11.576389031190422"><ele>264.0</ele><time>2026-04-29T14:35:51Z</time></trkpt><trkpt lat="43.92412458075553" lon="11.576305084659365"><ele>262.5</ele><time>2026-04-29T14:35:52Z</time></trkpt><trkpt lat="43.924078552929494" lon="11.57622425757877"><ele>261.0</ele><time>2026-04-29T14:35:53Z</time></trkpt><trkpt lat="43.924037292141655" lon="11.576148598233502"><ele>259.5</ele><time>2026-04-29T14:35:54Z</time></trkpt><trkpt lat="43.923987254567535" lon="11.57606963890343"><ele>258.0</ele><time>2026-04-29T14:35:55Z</time></trkpt><trkpt lat="43.923923241889696" lon="11.57597047789039"><ele>258.0</ele><time>2026-04-29T14:35:56Z</time></trkpt><trkpt lat="43.9238511148977" lon="11.575856532324657"><ele>258.0</ele><time>2026-04-29T14:35:57Z</time></trkpt><trkpt lat="43.923757159019765" lon="11.575730871674466"><ele>258.0</ele><time>2026-04-29T14:35:58Z</time></trkpt><trkpt lat="43.92364606263279" lon="11.575587887040216"><ele>258.0</ele><time>2026-04-29T14:35:59Z</time></trkpt><trkpt lat="43.92352786348856" lon="11.575430627891764"><ele>257.0</ele><time>2026-04-29T14:36:00Z</time></trkpt><trkpt lat="43.92340256407634" lon="11.575258376552124"><ele>256.0</ele><time>2026-04-29T14:36:01Z</time></trkpt><trkpt lat="43.923267176642" lon="11.575071308108624"><ele>255.0</ele><time>2026-04-29T14:36:02Z</time></trkpt><trkpt lat="43.92312804725488" lon="11.574884265035063"><ele>255.0</ele><time>2026-04-29T14:36:03Z</time></trkpt><trkpt lat="43.922987653053006" lon="11.57469814670176"><ele>255.0</ele><time>2026-04-29T14:36:04Z</time></trkpt><trkpt lat="43.922845846061826" lon="11.574530533342406"><ele>255.0</ele><time>2026-04-29T14:36:05Z</time></trkpt><trkpt lat="43.9226826534729" lon="11.574379971373586"><ele>255.0</ele><time>2026-04-29T14:36:06Z</time></trkpt><trkpt lat="43.92249970180162" lon="11.574251421235848"><ele>255.0</ele><time>2026-04-29T14:36:06.999Z</time></trkpt><trkpt lat="43.922328228317916" lon="11.574127551484136"><ele>255.0</ele><time>2026-04-29T14:36:07.999Z</time></trkpt><trkpt lat="43.92218099726354" lon="11.573984558538989"><ele>255.0</ele><time>2026-04-29T14:36:08.999Z</time></trkpt><trkpt lat="43.92204902945935" lon="11.573823176963664"><ele>255.0</ele><time>2026-04-29T14:36:09.999Z</time></trkpt><trkpt lat="43.921928657615034" lon="11.573665483380491"><ele>255.0</ele><time>2026-04-29T14:36:10.999Z</time></trkpt><trkpt lat="43.92181011778254" lon="11.573507746629165"><ele>253.0</ele><time>2026-04-29T14:36:11.999Z</time></trkpt><trkpt lat="43.92169355277555" lon="11.573345387668915"><ele>251.0</ele><time>2026-04-29T14:36:12.999Z</time></trkpt><trkpt lat="43.921593447413635" lon="11.573139324158358"><ele>249.0</ele><time>2026-04-29T14:36:13.999Z</time></trkpt><trkpt lat="43.92152156065811" lon="11.572947287116804"><ele>251.33333333333331</ele><time>2026-04-29T14:36:14.999Z</time></trkpt><trkpt lat="43.921465991431575" lon="11.57276102703067"><ele>253.66666666666666</ele><time>2026-04-29T14:36:15.999Z</time></trkpt><trkpt lat="43.9214073521142" lon="11.572572460076842"><ele>256.0</ele><time>2026-04-29T14:36:16.999Z</time></trkpt><trkpt lat="43.92133725636014" lon="11.572370932587106"><ele>256.0</ele><time>2026-04-29T14:36:17.999Z</time></trkpt><trkpt lat="43.92126872662324" lon="11.572172300053817"><ele>256.0</ele><time>2026-04-29T14:36:18.999Z</time></trkpt><trkpt lat="43.92120321470829" lon="11.571994983197417"><ele>256.0</ele><time>2026-04-29T14:36:19.999Z</time></trkpt><trkpt lat="43.92112872004421" lon="11.571836571453293"><ele>256.0</ele><time>2026-04-29T14:36:20.999Z</time></trkpt><trkpt lat="43.921052180556096" lon="11.571695703719977"><ele>256.66666666666663</ele><time>2026-04-29T14:36:21.999Z</time></trkpt><trkpt lat="43.92096944257905" lon="11.571537627259872"><ele>257.3333333333333</ele><time>2026-04-29T14:36:22.999Z</time></trkpt><trkpt lat="43.92083613754225" lon="11.571345241782344"><ele>258.0</ele><time>2026-04-29T14:36:23.999Z</time></trkpt><trkpt lat="43.92067593062837" lon="11.571161219401391"><ele>258.0</ele><time>2026-04-29T14:36:24.999Z</time></trkpt><trkpt lat="43.92054041826324" lon="11.570997955884577"><ele>258.0</ele><time>2026-04-29T14:36:25.999Z</time></trkpt><trkpt lat="43.92036922383464" lon="11.570859152152519"><ele>258.0</ele><time>2026-04-29T14:36:26.999Z</time></trkpt><trkpt lat="43.92019522538462" lon="11.570726199657722"><ele>255.0</ele><time>2026-04-29T14:36:27.999Z</time></trkpt><trkpt lat="43.91999373325869" lon="11.570631054633326"><ele>252.0</ele><time>2026-04-29T14:36:28.999Z</time></trkpt><trkpt lat="43.91978963540618" lon="11.570572284765602"><ele>249.0</ele><time>2026-04-29T14:36:29.999Z</time></trkpt><trkpt lat="43.91959152744124" lon="11.570544446337607"><ele>249.0</ele><time>2026-04-29T14:36:30.999Z</time></trkpt><trkpt lat="43.91940307539916" lon="11.5704966655672"><ele>249.0</ele><time>2026-04-29T14:36:31.999Z</time></trkpt><trkpt lat="43.9192529985046" lon="11.570472399435937"><ele>249.0</ele><time>2026-04-29T14:36:32.999Z</time></trkpt><trkpt lat="43.91909027389283" lon="11.57043665019439"><ele>254.0</ele><time>2026-04-29T14:36:33.999Z</time></trkpt><trkpt lat="43.91896916785972" lon="11.570302013405675"><ele>259.0</ele><time>2026-04-29T14:36:34.999Z</time></trkpt><trkpt lat="43.91883189086174" lon="11.570152554499067"><ele>264.0</ele><time>2026-04-29T14:36:35.999Z</time></trkpt><trkpt lat="43.91868252906951" lon="11.569990748787044"><ele>264.0</ele><time>2026-04-29T14:36:36.999Z</time></trkpt><trkpt lat="43.918528033041746" lon="11.569850116929649"><ele>264.0</ele><time>2026-04-29T14:36:37.999Z</time></trkpt><trkpt lat="43.91841475520239" lon="11.569700899105358"><ele>264.0</ele><time>2026-04-29T14:36:38.999Z</time></trkpt><trkpt lat="43.91828997262315" lon="11.569565937517142"><ele>262.0</ele><time>2026-04-29T14:36:39.999Z</time></trkpt><trkpt lat="43.91815895868375" lon="11.569424236534246"><ele>260.0</ele><time>2026-04-29T14:36:40.999Z</time></trkpt><trkpt lat="43.918028429414335" lon="11.56928305947532"><ele>258.0</ele><time>2026-04-29T14:36:41.999Z</time></trkpt><trkpt lat="43.917895632422365" lon="11.569139429900472"><ele>258.0</ele><time>2026-04-29T14:36:42.999Z</time></trkpt><trkpt lat="43.917762655092666" lon="11.56899541674554"><ele>258.0</ele><time>2026-04-29T14:36:43.999Z</time></trkpt><trkpt lat="43.917644076329935" lon="11.568866502245355"><ele>258.0</ele><time>2026-04-29T14:36:44.999Z</time></trkpt><trkpt lat="43.91752916774191" lon="11.568741577692382"><ele>258.0</ele><time>2026-04-29T14:36:45.999Z</time></trkpt><trkpt lat="43.91742558719289" lon="11.568615107883845"><ele>258.0</ele><time>2026-04-29T14:36:46.999Z</time></trkpt><trkpt lat="43.91733666444315" lon="11.568479004382672"><ele>258.0</ele><time>2026-04-29T14:36:47.999Z</time></trkpt><trkpt lat="43.91725536631974" lon="11.568330975986676"><ele>258.0</ele><time>2026-04-29T14:36:49Z</time></trkpt><trkpt lat="43.91715722187965" lon="11.568173159925374"><ele>258.0</ele><time>2026-04-29T14:36:50Z</time></trkpt><trkpt lat="43.91709215133048" lon="11.567976452790042"><ele>258.0</ele><time>2026-04-29T14:36:51Z</time></trkpt><trkpt lat="43.91704609877313" lon="11.5677752701294"><ele>258.0</ele><time>2026-04-29T14:36:52Z</time></trkpt><trkpt lat="43.91701662217102" lon="11.567579006521594"><ele>257.25</ele><time>2026-04-29T14:36:53Z</time></trkpt><trkpt lat="43.91701143618462" lon="11.567379611956545"><ele>256.5</ele><time>2026-04-29T14:36:54Z</time></trkpt><trkpt lat="43.916969662844984" lon="11.567195854027418"><ele>255.75</ele><time>2026-04-29T14:36:55Z</time></trkpt><trkpt lat="43.91693863686756" lon="11.567030146112845"><ele>255.0</ele><time>2026-04-29T14:36:56Z</time></trkpt><trkpt lat="43.91690975594602" lon="11.566886021458144"><ele>253.2</ele><time>2026-04-29T14:36:57Z</time></trkpt><trkpt lat="43.916879513023574" lon="11.566753587243822"><ele>251.4</ele><time>2026-04-29T14:36:58Z</time></trkpt><trkpt lat="43.91684627383932" lon="11.56663135629921"><ele>249.60000000000002</ele><time>2026-04-29T14:36:59Z</time></trkpt><trkpt lat="43.916810878735" lon="11.566495527765092"><ele>247.8</ele><time>2026-04-29T14:37:00Z</time></trkpt><trkpt lat="43.91676335366072" lon="11.56633277569376"><ele>246.0</ele><time>2026-04-29T14:37:01Z</time></trkpt><trkpt lat="43.916710988200734" lon="11.56613927960173"><ele>246.0</ele><time>2026-04-29T14:37:02Z</time></trkpt><trkpt lat="43.916631897961" lon="11.565943267590466"><ele>246.0</ele><time>2026-04-29T14:37:03Z</time></trkpt><trkpt lat="43.91651791811462" lon="11.56575771799868"><ele>246.0</ele><time>2026-04-29T14:37:04Z</time></trkpt><trkpt lat="43.9164226395026" lon="11.565558492565229"><ele>250.0</ele><time>2026-04-29T14:37:05Z</time></trkpt><trkpt lat="43.916330129031024" lon="11.565345187347777"><ele>254.0</ele><time>2026-04-29T14:37:06Z</time></trkpt><trkpt lat="43.916247369205614" lon="11.565139338840439"><ele>258.0</ele><time>2026-04-29T14:37:07Z</time></trkpt><trkpt lat="43.9161799934814" lon="11.56493779737881"><ele>258.0</ele><time>2026-04-29T14:37:08Z</time></trkpt><trkpt lat="43.91611165708375" lon="11.564725662741242"><ele>258.0</ele><time>2026-04-29T14:37:09Z</time></trkpt><trkpt lat="43.91603497599468" lon="11.56450330687936"><ele>258.0</ele><time>2026-04-29T14:37:10Z</time></trkpt><trkpt lat="43.915940820165815" lon="11.56428920609124"><ele>258.0</ele><time>2026-04-29T14:37:11Z</time></trkpt><trkpt lat="43.91584612333186" lon="11.564072502579313"><ele>258.0</ele><time>2026-04-29T14:37:12Z</time></trkpt><trkpt lat="43.91575930262964" lon="11.563854917366932"><ele>258.0</ele><time>2026-04-29T14:37:13Z</time></trkpt><trkpt lat="43.91567677140179" lon="11.56364464701585"><ele>258.0</ele><time>2026-04-29T14:37:14Z</time></trkpt><trkpt lat="43.91559724422857" lon="11.563445255701799"><ele>258.0</ele><time>2026-04-29T14:37:15Z</time></trkpt><trkpt lat="43.91551603805047" lon="11.56325576649203"><ele>258.0</ele><time>2026-04-29T14:37:16Z</time></trkpt><trkpt lat="43.915425781586556" lon="11.563073388601342"><ele>258.0</ele><time>2026-04-29T14:37:17Z</time></trkpt><trkpt lat="43.91530100275353" lon="11.562920059320305"><ele>258.0</ele><time>2026-04-29T14:37:18Z</time></trkpt><trkpt lat="43.91514664056066" lon="11.562774318798837"><ele>258.0</ele><time>2026-04-29T14:37:19Z</time></trkpt><trkpt lat="43.91498503041382" lon="11.562618259570053"><ele>253.33333333333331</ele><time>2026-04-29T14:37:20Z</time></trkpt><trkpt lat="43.91482596399409" lon="11.562455052431082"><ele>248.66666666666666</ele><time>2026-04-29T14:37:21Z</time></trkpt><trkpt lat="43.91466830293194" lon="11.562284905451824"><ele>244.0</ele><time>2026-04-29T14:37:22Z</time></trkpt><trkpt lat="43.91451377368466" lon="11.562128978422205"><ele>246.25</ele><time>2026-04-29T14:37:23Z</time></trkpt><trkpt lat="43.91437102571777" lon="11.562020462524316"><ele>248.5</ele><time>2026-04-29T14:37:24Z</time></trkpt><trkpt lat="43.914230515096534" lon="11.561964045284306"><ele>250.75</ele><time>2026-04-29T14:37:25Z</time></trkpt><trkpt lat="43.91409388245602" lon="11.561922628967858"><ele>253.0</ele><time>2026-04-29T14:37:26Z</time></trkpt><trkpt lat="43.913977039236975" lon="11.56190176934434"><ele>253.0</ele><time>2026-04-29T14:37:27Z</time></trkpt><trkpt lat="43.913863901413116" lon="11.561870672548153"><ele>253.0</ele><time>2026-04-29T14:37:28Z</time></trkpt><trkpt lat="43.9137627065539" lon="11.561834453954635"><ele>253.0</ele><time>2026-04-29T14:37:29Z</time></trkpt><trkpt lat="43.91366317483056" lon="11.561800510666538"><ele>253.0</ele><time>2026-04-29T14:37:30Z</time></trkpt><trkpt lat="43.913563103231056" lon="11.561763684691153"><ele>253.0</ele><time>2026-04-29T14:37:31Z</time></trkpt><trkpt lat="43.913465033934116" lon="11.561732477846748"><ele>251.2</ele><time>2026-04-29T14:37:32Z</time></trkpt><trkpt lat="43.9133602258906" lon="11.561698384735175"><ele>249.4</ele><time>2026-04-29T14:37:33Z</time></trkpt><trkpt lat="43.91325830275661" lon="11.561666072064973"><ele>247.59999999999997</ele><time>2026-04-29T14:37:34Z</time></trkpt><trkpt lat="43.91315202069336" lon="11.561645407385145"><ele>245.79999999999998</ele><time>2026-04-29T14:37:35Z</time></trkpt><trkpt lat="43.9130562125361" lon="11.561603945517287"><ele>244.0</ele><time>2026-04-29T14:37:36Z</time></trkpt><trkpt lat="43.9129580897376" lon="11.56156801609838"><ele>244.0</ele><time>2026-04-29T14:37:37Z</time></trkpt><trkpt lat="43.91285759348616" lon="11.56153189876452"><ele>243.99999999999997</ele><time>2026-04-29T14:37:38Z</time></trkpt><trkpt lat="43.91275805111023" lon="11.56150351475585"><ele>243.99999999999997</ele><time>2026-04-29T14:37:39Z</time></trkpt><trkpt lat="43.91266362686164" lon="11.561489107623801"><ele>244.0</ele><time>2026-04-29T14:37:40Z</time></trkpt><trkpt lat="43.91256499898678" lon="11.561485296680901"><ele>244.0</ele><time>2026-04-29T14:37:41Z</time></trkpt><trkpt lat="43.91245165955481" lon="11.561517443642835"><ele>242.25</ele><time>2026-04-29T14:37:42Z</time></trkpt><trkpt lat="43.91231777945412" lon="11.561544138399025"><ele>240.5</ele><time>2026-04-29T14:37:43Z</time></trkpt><trkpt lat="43.91216419081734" lon="11.561587654881366"><ele>238.75</ele><time>2026-04-29T14:37:44Z</time></trkpt><trkpt lat="43.91202029940251" lon="11.56160760334978"><ele>237.0</ele><time>2026-04-29T14:37:45Z</time></trkpt><trkpt lat="43.91188998803825" lon="11.561585596215547"><ele>237.0</ele><time>2026-04-29T14:37:46Z</time></trkpt><trkpt lat="43.9117694278202" lon="11.56153596136566"><ele>237.0</ele><time>2026-04-29T14:37:47Z</time></trkpt><trkpt lat="43.91166669262964" lon="11.561457737426403"><ele>237.0</ele><time>2026-04-29T14:37:48Z</time></trkpt><trkpt lat="43.91157229723726" lon="11.561365031619625"><ele>237.0</ele><time>2026-04-29T14:37:49Z</time></trkpt><trkpt lat="43.91147279000975" lon="11.561261870039534"><ele>240.66666666666669</ele><time>2026-04-29T14:37:50Z</time></trkpt><trkpt lat="43.91138799263773" lon="11.561114032408437"><ele>244.33333333333334</ele><time>2026-04-29T14:37:51Z</time></trkpt><trkpt lat="43.91130659416275" lon="11.560935502829599"><ele>248.0</ele><time>2026-04-29T14:37:52Z</time></trkpt><trkpt lat="43.911226310729965" lon="11.560733869163013"><ele>248.0</ele><time>2026-04-29T14:37:53Z</time></trkpt><trkpt lat="43.91114716229445" lon="11.56053300963842"><ele>248.0</ele><time>2026-04-29T14:37:54Z</time></trkpt><trkpt lat="43.9110743948514" lon="11.560340907207125"><ele>248.0</ele><time>2026-04-29T14:37:55Z</time></trkpt><trkpt lat="43.911028603563736" lon="11.560129708709587"><ele>244.0</ele><time>2026-04-29T14:37:56Z</time></trkpt><trkpt lat="43.91097166197894" lon="11.559924992861793"><ele>240.0</ele><time>2026-04-29T14:37:57Z</time></trkpt><trkpt lat="43.9109156692195" lon="11.559725792928662"><ele>236.0</ele><time>2026-04-29T14:37:58Z</time></trkpt><trkpt lat="43.91085638779585" lon="11.559518332385885"><ele>236.0</ele><time>2026-04-29T14:37:59Z</time></trkpt><trkpt lat="43.91076887015435" lon="11.559308967936632"><ele>236.0</ele><time>2026-04-29T14:38:00Z</time></trkpt><trkpt lat="43.91069150534903" lon="11.559085210143227"><ele>236.0</ele><time>2026-04-29T14:38:01Z</time></trkpt><trkpt lat="43.91058406582333" lon="11.558857524288777"><ele>242.66666666666669</ele><time>2026-04-29T14:38:02Z</time></trkpt><trkpt lat="43.910476778055006" lon="11.558628029510484"><ele>249.33333333333331</ele><time>2026-04-29T14:38:03Z</time></trkpt><trkpt lat="43.910363335057276" lon="11.558426102036613"><ele>256.0</ele><time>2026-04-29T14:38:04Z</time></trkpt><trkpt lat="43.91022127401535" lon="11.558242373168255"><ele>251.66666666666666</ele><time>2026-04-29T14:38:05Z</time></trkpt><trkpt lat="43.910069641371486" lon="11.55808184313769"><ele>247.33333333333331</ele><time>2026-04-29T14:38:06Z</time></trkpt><trkpt lat="43.90991729636308" lon="11.557938778079677"><ele>243.0</ele><time>2026-04-29T14:38:07Z</time></trkpt><trkpt lat="43.9097443185958" lon="11.557804606796289"><ele>243.0</ele><time>2026-04-29T14:38:08Z</time></trkpt><trkpt lat="43.909599228390505" lon="11.557698296079904"><ele>243.0</ele><time>2026-04-29T14:38:09Z</time></trkpt><trkpt lat="43.90945910291471" lon="11.557703553624828"><ele>243.0</ele><time>2026-04-29T14:38:10Z</time></trkpt><trkpt lat="43.90931678900793" lon="11.557720444663198"><ele>243.0</ele><time>2026-04-29T14:38:11Z</time></trkpt><trkpt lat="43.90915118429608" lon="11.557798528274075"><ele>237.66666666666669</ele><time>2026-04-29T14:38:12Z</time></trkpt><trkpt lat="43.90899900948085" lon="11.557880572480983"><ele>232.33333333333334</ele><time>2026-04-29T14:38:13Z</time></trkpt><trkpt lat="43.90885503358151" lon="11.557900188027787"><ele>227.0</ele><time>2026-04-29T14:38:13.999Z</time></trkpt><trkpt lat="43.908718981503135" lon="11.5578210065331"><ele>227.0</ele><time>2026-04-29T14:38:14.999Z</time></trkpt><trkpt lat="43.90861199172412" lon="11.557725278385485"><ele>227.0</ele><time>2026-04-29T14:38:15.999Z</time></trkpt><trkpt lat="43.90852592009431" lon="11.557551682131576"><ele>227.0</ele><time>2026-04-29T14:38:16.999Z</time></trkpt><trkpt lat="43.90843688666196" lon="11.55731389423178"><ele>225.33333333333334</ele><time>2026-04-29T14:38:17.999Z</time></trkpt><trkpt lat="43.90833235902826" lon="11.557107269193333"><ele>223.66666666666669</ele><time>2026-04-29T14:38:18.999Z</time></trkpt><trkpt lat="43.908229547073624" lon="11.556914489612334"><ele>222.0</ele><time>2026-04-29T14:38:19.999Z</time></trkpt><trkpt lat="43.908156476163796" lon="11.556723843103448"><ele>222.0</ele><time>2026-04-29T14:38:20.999Z</time></trkpt><trkpt lat="43.90810490428052" lon="11.556598323572574"><ele>222.0</ele><time>2026-04-29T14:38:21.999Z</time></trkpt><trkpt lat="43.90800875402794" lon="11.556470026085014"><ele>222.0</ele><time>2026-04-29T14:38:22.999Z</time></trkpt><trkpt lat="43.90788701897927" lon="11.556434064248997"><ele>222.0</ele><time>2026-04-29T14:38:23.999Z</time></trkpt><trkpt lat="43.90774710023691" lon="11.556476352638988"><ele>222.0</ele><time>2026-04-29T14:38:24.999Z</time></trkpt><trkpt lat="43.90760406381378" lon="11.556539743268916"><ele>222.0</ele><time>2026-04-29T14:38:25.999Z</time></trkpt><trkpt lat="43.90741452339615" lon="11.55651777428811"><ele>222.0</ele><time>2026-04-29T14:38:26.999Z</time></trkpt><trkpt lat="43.907263072368046" lon="11.556443944583291"><ele>219.66666666666669</ele><time>2026-04-29T14:38:27.999Z</time></trkpt><trkpt lat="43.9071393754476" lon="11.556341093501105"><ele>217.33333333333334</ele><time>2026-04-29T14:38:28.999Z</time></trkpt><trkpt lat="43.90699541982788" lon="11.556161086861763"><ele>215.0</ele><time>2026-04-29T14:38:29.999Z</time></trkpt><trkpt lat="43.906854467383006" lon="11.55596751788802"><ele>214.66666666666669</ele><time>2026-04-29T14:38:30.999Z</time></trkpt><trkpt lat="43.906688770896075" lon="11.555769114574513"><ele>214.33333333333331</ele><time>2026-04-29T14:38:31.999Z</time></trkpt><trkpt lat="43.90653132683104" lon="11.55554780144612"><ele>214.0</ele><time>2026-04-29T14:38:32.999Z</time></trkpt><trkpt lat="43.90638743275075" lon="11.555353512556707"><ele>212.5</ele><time>2026-04-29T14:38:33.999Z</time></trkpt><trkpt lat="43.90623370805298" lon="11.55513841788956"><ele>211.0</ele><time>2026-04-29T14:38:34.999Z</time></trkpt><trkpt lat="43.90606192057069" lon="11.554906055074245"><ele>210.0</ele><time>2026-04-29T14:38:35.999Z</time></trkpt><trkpt lat="43.90588896050449" lon="11.554662912010839"><ele>209.0</ele><time>2026-04-29T14:38:36.999Z</time></trkpt><trkpt lat="43.90572844608197" lon="11.554438072019906"><ele>209.0</ele><time>2026-04-29T14:38:37.999Z</time></trkpt><trkpt lat="43.905570914404855" lon="11.554222493542222"><ele>209.0</ele><time>2026-04-29T14:38:38.999Z</time></trkpt><trkpt lat="43.90540794216212" lon="11.554027002733086"><ele>209.0</ele><time>2026-04-29T14:38:39.999Z</time></trkpt><trkpt lat="43.90522814925981" lon="11.553866602676834"><ele>209.0</ele><time>2026-04-29T14:38:40.999Z</time></trkpt><trkpt lat="43.90504813248499" lon="11.553733994852479"><ele>209.0</ele><time>2026-04-29T14:38:41.999Z</time></trkpt><trkpt lat="43.90486836302092" lon="11.553631543618856"><ele>209.0</ele><time>2026-04-29T14:38:42.999Z</time></trkpt><trkpt lat="43.90465318059457" lon="11.553592038552724"><ele>209.0</ele><time>2026-04-29T14:38:43.999Z</time></trkpt><trkpt lat="43.90441661220478" lon="11.55357813975414"><ele>209.0</ele><time>2026-04-29T14:38:44.999Z</time></trkpt><trkpt lat="43.90418187312492" lon="11.553555909693163"><ele>208.5</ele><time>2026-04-29T14:38:45.999Z</time></trkpt><trkpt lat="43.90394023715694" lon="11.553512922997355"><ele>208.0</ele><time>2026-04-29T14:38:46.999Z</time></trkpt><trkpt lat="43.903703451805505" lon="11.553474392946395"><ele>208.0</ele><time>2026-04-29T14:38:47.999Z</time></trkpt><trkpt lat="43.90348616988527" lon="11.553444823945354"><ele>208.0</ele><time>2026-04-29T14:38:48.999Z</time></trkpt><trkpt lat="43.90327189565345" lon="11.553408289853442"><ele>208.0</ele><time>2026-04-29T14:38:49.999Z</time></trkpt><trkpt lat="43.90307108854081" lon="11.5533737269143"><ele>208.33333333333331</ele><time>2026-04-29T14:38:50.999Z</time></trkpt><trkpt lat="43.902880503632474" lon="11.553352364810761"><ele>208.66666666666669</ele><time>2026-04-29T14:38:51.999Z</time></trkpt><trkpt lat="43.902695036567856" lon="11.553315035195952"><ele>209.0</ele><time>2026-04-29T14:38:52.999Z</time></trkpt><trkpt lat="43.90250610033719" lon="11.55323562363244"><ele>209.0</ele><time>2026-04-29T14:38:53.999Z</time></trkpt><trkpt lat="43.90232215554185" lon="11.553065332210547"><ele>209.0</ele><time>2026-04-29T14:38:55Z</time></trkpt><trkpt lat="43.90210930689634" lon="11.552913643392703"><ele>206.0</ele><time>2026-04-29T14:38:56Z</time></trkpt><trkpt lat="43.90189398483048" lon="11.552738672150898"><ele>203.0</ele><time>2026-04-29T14:38:57Z</time></trkpt><trkpt lat="43.90168475220951" lon="11.552561126797514"><ele>203.0</ele><time>2026-04-29T14:38:58Z</time></trkpt><trkpt lat="43.90149206946914" lon="11.552410072145003"><ele>203.0</ele><time>2026-04-29T14:38:59Z</time></trkpt><trkpt lat="43.90131671964662" lon="11.552244186210165"><ele>203.0</ele><time>2026-04-29T14:39:00Z</time></trkpt><trkpt lat="43.90116398274579" lon="11.552043136420794"><ele>202.0</ele><time>2026-04-29T14:39:01Z</time></trkpt><trkpt lat="43.901013256855926" lon="11.551824636395718"><ele>201.0</ele><time>2026-04-29T14:39:02Z</time></trkpt><trkpt lat="43.90086057546449" lon="11.551614623182207"><ele>200.0</ele><time>2026-04-29T14:39:03Z</time></trkpt><trkpt lat="43.90071477759244" lon="11.55141378928267"><ele>200.0</ele><time>2026-04-29T14:39:04Z</time></trkpt><trkpt lat="43.90058931562904" lon="11.551216284859818"><ele>200.0</ele><time>2026-04-29T14:39:05Z</time></trkpt><trkpt lat="43.900526400661185" lon="11.550972861304247"><ele>200.0</ele><time>2026-04-29T14:39:06Z</time></trkpt><trkpt lat="43.90044494103293" lon="11.550702178597895"><ele>199.33333333333334</ele><time>2026-04-29T14:39:07Z</time></trkpt><trkpt lat="43.90037701322395" lon="11.550432388522886"><ele>198.66666666666669</ele><time>2026-04-29T14:39:08Z</time></trkpt><trkpt lat="43.90028895613627" lon="11.550182310945994"><ele>198.0</ele><time>2026-04-29T14:39:09Z</time></trkpt><trkpt lat="43.90016970526486" lon="11.549932123411738"><ele>197.5</ele><time>2026-04-29T14:39:10Z</time></trkpt><trkpt lat="43.90001366737748" lon="11.549697538265372"><ele>197.0</ele><time>2026-04-29T14:39:11Z</time></trkpt><trkpt lat="43.89982892599131" lon="11.549480458062499"><ele>195.0</ele><time>2026-04-29T14:39:12Z</time></trkpt><trkpt lat="43.899641970340404" lon="11.549251486999763"><ele>193.0</ele><time>2026-04-29T14:39:13Z</time></trkpt><trkpt lat="43.89946557641883" lon="11.549028136142033"><ele>193.0</ele><time>2026-04-29T14:39:14Z</time></trkpt><trkpt lat="43.899302479367655" lon="11.548824645089153"><ele>193.0</ele><time>2026-04-29T14:39:15Z</time></trkpt><trkpt lat="43.89914210650862" lon="11.548636981322948"><ele>193.0</ele><time>2026-04-29T14:39:16Z</time></trkpt><trkpt lat="43.89897955166405" lon="11.548474652311235"><ele>197.66666666666666</ele><time>2026-04-29T14:39:17Z</time></trkpt><trkpt lat="43.89880578847872" lon="11.548355325989487"><ele>202.33333333333331</ele><time>2026-04-29T14:39:18Z</time></trkpt><trkpt lat="43.8986142940191" lon="11.548288216990919"><ele>207.0</ele><time>2026-04-29T14:39:19Z</time></trkpt><trkpt lat="43.89839966083099" lon="11.548246949074116"><ele>207.0</ele><time>2026-04-29T14:39:20Z</time></trkpt><trkpt lat="43.8981933757364" lon="11.54822106286537"><ele>207.0</ele><time>2026-04-29T14:39:21Z</time></trkpt><trkpt lat="43.89801088569962" lon="11.548179100182287"><ele>207.0</ele><time>2026-04-29T14:39:22Z</time></trkpt><trkpt lat="43.89785461147326" lon="11.548068306765439"><ele>207.0</ele><time>2026-04-29T14:39:23Z</time></trkpt><trkpt lat="43.897727584598826" lon="11.547932722938345"><ele>207.0</ele><time>2026-04-29T14:39:24Z</time></trkpt><trkpt lat="43.89762066998572" lon="11.547772139231594"><ele>207.0</ele><time>2026-04-29T14:39:25Z</time></trkpt><trkpt lat="43.89752344380501" lon="11.547579986981404"><ele>206.0</ele><time>2026-04-29T14:39:26Z</time></trkpt><trkpt lat="43.897445413319694" lon="11.547326709347676"><ele>205.0</ele><time>2026-04-29T14:39:27Z</time></trkpt><trkpt lat="43.89735745403715" lon="11.54704936700625"><ele>204.0</ele><time>2026-04-29T14:39:28Z</time></trkpt><trkpt lat="43.897257480948596" lon="11.546764336300509"><ele>204.0</ele><time>2026-04-29T14:39:29Z</time></trkpt><trkpt lat="43.897154165293934" lon="11.54646788249635"><ele>204.0</ele><time>2026-04-29T14:39:30Z</time></trkpt><trkpt lat="43.89705941883261" lon="11.546182997894388"><ele>207.0</ele><time>2026-04-29T14:39:31Z</time></trkpt><trkpt lat="43.89697473752158" lon="11.545913975118204"><ele>210.0</ele><time>2026-04-29T14:39:32Z</time></trkpt><trkpt lat="43.89688895290161" lon="11.545650326068454"><ele>213.0</ele><time>2026-04-29T14:39:33Z</time></trkpt><trkpt lat="43.89680378390597" lon="11.545389090561766"><ele>206.66666666666669</ele><time>2026-04-29T14:39:34Z</time></trkpt><trkpt lat="43.896729663151135" lon="11.54513622800994"><ele>200.33333333333334</ele><time>2026-04-29T14:39:35Z</time></trkpt><trkpt lat="43.896657866304636" lon="11.54489083313997"><ele>194.0</ele><time>2026-04-29T14:39:36Z</time></trkpt><trkpt lat="43.89658330870266" lon="11.544666386862717"><ele>199.0</ele><time>2026-04-29T14:39:37Z</time></trkpt><trkpt lat="43.896480635621316" lon="11.544476815805902"><ele>204.0</ele><time>2026-04-29T14:39:38Z</time></trkpt><trkpt lat="43.89634465780571" lon="11.544325591874372"><ele>209.0</ele><time>2026-04-29T14:39:39Z</time></trkpt><trkpt lat="43.89617790126579" lon="11.54422885893079"><ele>209.0</ele><time>2026-04-29T14:39:40Z</time></trkpt><trkpt lat="43.89599125757881" lon="11.544171624571472"><ele>209.0</ele><time>2026-04-29T14:39:41Z</time></trkpt><trkpt lat="43.89584751166557" lon="11.544088279796199"><ele>209.0</ele><time>2026-04-29T14:39:42Z</time></trkpt><trkpt lat="43.895683258120265" lon="11.54400275996158"><ele>208.33333333333334</ele><time>2026-04-29T14:39:43Z</time></trkpt><trkpt lat="43.89556234856433" lon="11.543856576056104"><ele>207.66666666666669</ele><time>2026-04-29T14:39:44Z</time></trkpt><trkpt lat="43.89543815334783" lon="11.543689850617472"><ele>207.0</ele><time>2026-04-29T14:39:45Z</time></trkpt><trkpt lat="43.89533440780453" lon="11.543496759416273"><ele>207.0</ele><time>2026-04-29T14:39:46Z</time></trkpt><trkpt lat="43.895244448467764" lon="11.543271652493738"><ele>207.0</ele><time>2026-04-29T14:39:47Z</time></trkpt><trkpt lat="43.89513842079984" lon="11.543017020420722"><ele>207.0</ele><time>2026-04-29T14:39:48Z</time></trkpt><trkpt lat="43.89504839937097" lon="11.542758932108764"><ele>202.33333333333331</ele><time>2026-04-29T14:39:49Z</time></trkpt><trkpt lat="43.89497105682309" lon="11.542540661345177"><ele>197.66666666666666</ele><time>2026-04-29T14:39:50Z</time></trkpt><trkpt lat="43.894904863213974" lon="11.542303398747691"><ele>193.0</ele><time>2026-04-29T14:39:51Z</time></trkpt><trkpt lat="43.89486897391438" lon="11.542023750766983"><ele>193.0</ele><time>2026-04-29T14:39:52Z</time></trkpt><trkpt lat="43.894848206318194" lon="11.541732104968053"><ele>193.0</ele><time>2026-04-29T14:39:53Z</time></trkpt><trkpt lat="43.89482089750553" lon="11.541458198540353"><ele>193.0</ele><time>2026-04-29T14:39:54Z</time></trkpt><trkpt lat="43.894792862691794" lon="11.54116463197881"><ele>194.0</ele><time>2026-04-29T14:39:55Z</time></trkpt><trkpt lat="43.89476828587211" lon="11.540880119305697"><ele>195.0</ele><time>2026-04-29T14:39:56Z</time></trkpt><trkpt lat="43.894739515390256" lon="11.540602922221199"><ele>196.0</ele><time>2026-04-29T14:39:57Z</time></trkpt><trkpt lat="43.894708887333024" lon="11.540333737862595"><ele>196.33333333333331</ele><time>2026-04-29T14:39:58Z</time></trkpt><trkpt lat="43.89467753792796" lon="11.54005682785798"><ele>196.66666666666669</ele><time>2026-04-29T14:39:59Z</time></trkpt><trkpt lat="43.89464494653984" lon="11.539775576854838"><ele>197.0</ele><time>2026-04-29T14:40:00Z</time></trkpt><trkpt lat="43.894599503753064" lon="11.539490512915105"><ele>196.66666666666669</ele><time>2026-04-29T14:40:01Z</time></trkpt><trkpt lat="43.89454403583457" lon="11.53920542140193"><ele>196.33333333333331</ele><time>2026-04-29T14:40:02Z</time></trkpt><trkpt lat="43.89448273177679" lon="11.53891443967961"><ele>196.0</ele><time>2026-04-29T14:40:03Z</time></trkpt><trkpt lat="43.89441818744401" lon="11.53863001043168"><ele>196.0</ele><time>2026-04-29T14:40:04Z</time></trkpt><trkpt lat="43.89435423727253" lon="11.538362105172014"><ele>196.0</ele><time>2026-04-29T14:40:05Z</time></trkpt><trkpt lat="43.894297383721685" lon="11.538101948188032"><ele>196.0</ele><time>2026-04-29T14:40:06Z</time></trkpt><trkpt lat="43.894250525687056" lon="11.537844884060393"><ele>190.33333333333331</ele><time>2026-04-29T14:40:07Z</time></trkpt><trkpt lat="43.894199888931574" lon="11.537598356914778"><ele>184.66666666666666</ele><time>2026-04-29T14:40:08Z</time></trkpt><trkpt lat="43.894149259584694" lon="11.537374305642148"><ele>179.0</ele><time>2026-04-29T14:40:09Z</time></trkpt><trkpt lat="43.89410192846975" lon="11.537163855352162"><ele>179.25</ele><time>2026-04-29T14:40:10Z</time></trkpt><trkpt lat="43.89405622051444" lon="11.536962861020656"><ele>179.5</ele><time>2026-04-29T14:40:11Z</time></trkpt><trkpt lat="43.89401016038314" lon="11.53677810056811"><ele>179.75</ele><time>2026-04-29T14:40:12Z</time></trkpt><trkpt lat="43.89394955792144" lon="11.53661623461086"><ele>180.0</ele><time>2026-04-29T14:40:13Z</time></trkpt><trkpt lat="43.89383972082789" lon="11.536488695684996"><ele>180.0</ele><time>2026-04-29T14:40:14Z</time></trkpt><trkpt lat="43.89368111706194" lon="11.536386219173767"><ele>180.0</ele><time>2026-04-29T14:40:15Z</time></trkpt><trkpt lat="43.89352102709882" lon="11.536306683526309"><ele>180.0</ele><time>2026-04-29T14:40:15.999Z</time></trkpt><trkpt lat="43.89339431622205" lon="11.536218640645954"><ele>178.75</ele><time>2026-04-29T14:40:16.999Z</time></trkpt><trkpt lat="43.89329161287453" lon="11.536108963761993"><ele>177.5</ele><time>2026-04-29T14:40:17.999Z</time></trkpt><trkpt lat="43.89321588553352" lon="11.535959502389055"><ele>176.25</ele><time>2026-04-29T14:40:18.999Z</time></trkpt><trkpt lat="43.893162106950804" lon="11.535760727906501"><ele>175.0</ele><time>2026-04-29T14:40:19.999Z</time></trkpt><trkpt lat="43.89307738043772" lon="11.535568480692369"><ele>175.0</ele><time>2026-04-29T14:40:20.999Z</time></trkpt><trkpt lat="43.893008620491806" lon="11.535391569565576"><ele>175.0</ele><time>2026-04-29T14:40:21.999Z</time></trkpt><trkpt lat="43.892945362835015" lon="11.535228012874207"><ele>175.0</ele><time>2026-04-29T14:40:22.999Z</time></trkpt><trkpt lat="43.89289260429722" lon="11.535057404179014"><ele>175.0</ele><time>2026-04-29T14:40:23.999Z</time></trkpt><trkpt lat="43.892856239218915" lon="11.534856720302017"><ele>177.0</ele><time>2026-04-29T14:40:24.999Z</time></trkpt><trkpt lat="43.892841128080775" lon="11.53462910759902"><ele>179.0</ele><time>2026-04-29T14:40:25.999Z</time></trkpt><trkpt lat="43.89283852215271" lon="11.534381638147657"><ele>181.0</ele><time>2026-04-29T14:40:26.999Z</time></trkpt><trkpt lat="43.89283082821088" lon="11.53411670029366"><ele>183.0</ele><time>2026-04-29T14:40:27.999Z</time></trkpt><trkpt lat="43.89281572639407" lon="11.533849781987806"><ele>185.0</ele><time>2026-04-29T14:40:28.999Z</time></trkpt><trkpt lat="43.89279599298095" lon="11.5336006098072"><ele>187.0</ele><time>2026-04-29T14:40:29.999Z</time></trkpt><trkpt lat="43.89274878017663" lon="11.533364992982495"><ele>187.66666666666669</ele><time>2026-04-29T14:40:30.999Z</time></trkpt><trkpt lat="43.892663133994795" lon="11.533129546319582"><ele>188.33333333333334</ele><time>2026-04-29T14:40:31.999Z</time></trkpt><trkpt lat="43.892562773523835" lon="11.532900853210787"><ele>189.0</ele><time>2026-04-29T14:40:32.999Z</time></trkpt><trkpt lat="43.892461818956626" lon="11.532698616731487"><ele>184.0</ele><time>2026-04-29T14:40:33.999Z</time></trkpt><trkpt lat="43.89237979470059" lon="11.532516176301296"><ele>179.0</ele><time>2026-04-29T14:40:34.999Z</time></trkpt><trkpt lat="43.8923123346637" lon="11.532349726048466"><ele>174.0</ele><time>2026-04-29T14:40:35.999Z</time></trkpt><trkpt lat="43.89226006553051" lon="11.532184426006642"><ele>169.0</ele><time>2026-04-29T14:40:36.999Z</time></trkpt><trkpt lat="43.892243414487936" lon="11.531974096551727"><ele>168.66666666666669</ele><time>2026-04-29T14:40:37.999Z</time></trkpt><trkpt lat="43.892270745869915" lon="11.531718412253328"><ele>168.33333333333334</ele><time>2026-04-29T14:40:38.999Z</time></trkpt><trkpt lat="43.89231183460905" lon="11.531473353357946"><ele>168.0</ele><time>2026-04-29T14:40:39.999Z</time></trkpt><trkpt lat="43.89233984201227" lon="11.53126205486658"><ele>168.2</ele><time>2026-04-29T14:40:40.999Z</time></trkpt><trkpt lat="43.89235304556253" lon="11.531118092771203"><ele>168.4</ele><time>2026-04-29T14:40:41.999Z</time></trkpt><trkpt lat="43.89236460057145" lon="11.531009618038167"><ele>168.6</ele><time>2026-04-29T14:40:42.999Z</time></trkpt><trkpt lat="43.892380186602374" lon="11.53082707055782"><ele>168.79999999999998</ele><time>2026-04-29T14:40:44.999Z</time></trkpt><trkpt lat="43.892382559508505" lon="11.530681142381987"><ele>169.0</ele><time>2026-04-29T14:40:45.999Z</time></trkpt><trkpt lat="43.89238320270263" lon="11.530493744903143"><ele>169.33333333333334</ele><time>2026-04-29T14:40:46.999Z</time></trkpt><trkpt lat="43.89238845322219" lon="11.530272293872184"><ele>169.66666666666666</ele><time>2026-04-29T14:40:47.999Z</time></trkpt><trkpt lat="43.892393390141315" lon="11.530040433408066"><ele>170.0</ele><time>2026-04-29T14:40:48.999Z</time></trkpt><trkpt lat="43.89239607437177" lon="11.529778611738623"><ele>170.33333333333331</ele><time>2026-04-29T14:40:49.999Z</time></trkpt><trkpt lat="43.892398366242006" lon="11.529512835515355"><ele>170.66666666666666</ele><time>2026-04-29T14:40:50.999Z</time></trkpt><trkpt lat="43.89239173879312" lon="11.529233794942678"><ele>171.0</ele><time>2026-04-29T14:40:51.999Z</time></trkpt><trkpt lat="43.89237896808438" lon="11.528958929450374"><ele>172.0</ele><time>2026-04-29T14:40:52.999Z</time></trkpt><trkpt lat="43.892364102525256" lon="11.528702132340904"><ele>173.0</ele><time>2026-04-29T14:40:53.999Z</time></trkpt><trkpt lat="43.89234215220985" lon="11.528462426558121"><ele>174.0</ele><time>2026-04-29T14:40:54.999Z</time></trkpt><trkpt lat="43.89231810471733" lon="11.528229942848379"><ele>174.0</ele><time>2026-04-29T14:40:55.999Z</time></trkpt><trkpt lat="43.89228697063188" lon="11.528016477708672"><ele>174.0</ele><time>2026-04-29T14:40:56.999Z</time></trkpt><trkpt lat="43.89224923836954" lon="11.527812138388622"><ele>174.0</ele><time>2026-04-29T14:40:57.999Z</time></trkpt><trkpt lat="43.892210009505305" lon="11.527615317929301"><ele>175.0</ele><time>2026-04-29T14:40:58.999Z</time></trkpt><trkpt lat="43.892164404897876" lon="11.527423918126381"><ele>176.0</ele><time>2026-04-29T14:40:59.999Z</time></trkpt><trkpt lat="43.89211782469706" lon="11.52723590142876"><ele>177.0</ele><time>2026-04-29T14:41:01Z</time></trkpt><trkpt lat="43.89207607849018" lon="11.527058484888968"><ele>178.0</ele><time>2026-04-29T14:41:02Z</time></trkpt><trkpt lat="43.892040069171436" lon="11.526879990152134"><ele>178.25</ele><time>2026-04-29T14:41:03Z</time></trkpt><trkpt lat="43.89201269464898" lon="11.52670659105633"><ele>178.5</ele><time>2026-04-29T14:41:04Z</time></trkpt><trkpt lat="43.89199495529097" lon="11.526534116707067"><ele>178.75</ele><time>2026-04-29T14:41:05Z</time></trkpt><trkpt lat="43.89198048437519" lon="11.526367475450177"><ele>179.0</ele><time>2026-04-29T14:41:06Z</time></trkpt><trkpt lat="43.89196635286636" lon="11.526209661929931"><ele>179.0</ele><time>2026-04-29T14:41:07Z</time></trkpt><trkpt lat="43.891956193143976" lon="11.52605726649405"><ele>179.0</ele><time>2026-04-29T14:41:08Z</time></trkpt><trkpt lat="43.89194708421777" lon="11.525909024901233"><ele>179.0</ele><time>2026-04-29T14:41:09Z</time></trkpt><trkpt lat="43.891932623232755" lon="11.52575381554525"><ele>179.0</ele><time>2026-04-29T14:41:10Z</time></trkpt><trkpt lat="43.891914942886075" lon="11.525595010155243"><ele>179.0</ele><time>2026-04-29T14:41:11Z</time></trkpt><trkpt lat="43.89189919905675" lon="11.525434364374249"><ele>179.39999999999998</ele><time>2026-04-29T14:41:12Z</time></trkpt><trkpt lat="43.89188455048281" lon="11.525276063593322"><ele>179.8</ele><time>2026-04-29T14:41:13Z</time></trkpt><trkpt lat="43.89187322437903" lon="11.525128351689437"><ele>180.2</ele><time>2026-04-29T14:41:14Z</time></trkpt><trkpt lat="43.891863669576544" lon="11.524986753616128"><ele>180.60000000000002</ele><time>2026-04-29T14:41:15Z</time></trkpt><trkpt lat="43.89185078827788" lon="11.524852475114374"><ele>181.0</ele><time>2026-04-29T14:41:16Z</time></trkpt><trkpt lat="43.89183992761148" lon="11.52472137597763"><ele>181.0</ele><time>2026-04-29T14:41:17Z</time></trkpt><trkpt lat="43.89183043067551" lon="11.524596917821261"><ele>181.0</ele><time>2026-04-29T14:41:18Z</time></trkpt><trkpt lat="43.89181847221978" lon="11.524478969350305"><ele>181.0</ele><time>2026-04-29T14:41:19Z</time></trkpt><trkpt lat="43.891805690025166" lon="11.524369060886315"><ele>181.0</ele><time>2026-04-29T14:41:20Z</time></trkpt><trkpt lat="43.891799942349586" lon="11.524264111368648"><ele>181.0</ele><time>2026-04-29T14:41:21Z</time></trkpt><trkpt lat="43.891797932816715" lon="11.524164195636702"><ele>181.0</ele><time>2026-04-29T14:41:22Z</time></trkpt><trkpt lat="43.89178523362811" lon="11.52405819390268"><ele>179.83333333333334</ele><time>2026-04-29T14:41:23Z</time></trkpt><trkpt lat="43.89177192969929" lon="11.523941969882886"><ele>178.66666666666669</ele><time>2026-04-29T14:41:24Z</time></trkpt><trkpt lat="43.89176137494815" lon="11.523811795766498"><ele>177.5</ele><time>2026-04-29T14:41:25Z</time></trkpt><trkpt lat="43.89174646355306" lon="11.523682357543116"><ele>176.33333333333334</ele><time>2026-04-29T14:41:26Z</time></trkpt><trkpt lat="43.89172490356835" lon="11.523568721267456"><ele>175.16666666666666</ele><time>2026-04-29T14:41:27Z</time></trkpt><trkpt lat="43.891697174002346" lon="11.523468434224926"><ele>174.0</ele><time>2026-04-29T14:41:28Z</time></trkpt><trkpt lat="43.89165581241947" lon="11.523382082642778"><ele>171.79999999999998</ele><time>2026-04-29T14:41:29Z</time></trkpt><trkpt lat="43.8916125944412" lon="11.523308786632768"><ele>169.6</ele><time>2026-04-29T14:41:30Z</time></trkpt><trkpt lat="43.8915624070595" lon="11.52325141271516"><ele>167.4</ele><time>2026-04-29T14:41:31Z</time></trkpt><trkpt lat="43.89146461791045" lon="11.523180442847536"><ele>165.2</ele><time>2026-04-29T14:41:33Z</time></trkpt><trkpt lat="43.8913593433513" lon="11.523158939476094"><ele>163.0</ele><time>2026-04-29T14:41:35Z</time></trkpt><trkpt lat="43.89125587786242" lon="11.523152927531797"><ele>163.0</ele><time>2026-04-29T14:41:37Z</time></trkpt><trkpt lat="43.89115488065322" lon="11.52316816632908"><ele>163.0</ele><time>2026-04-29T14:41:39Z</time></trkpt><trkpt lat="43.891088856468286" lon="11.523173240778078"><ele>163.0</ele><time>2026-04-29T14:41:42Z</time></trkpt><trkpt lat="43.891019347274785" lon="11.523161489973656"><ele>163.0</ele><time>2026-04-29T14:41:45Z</time></trkpt><trkpt lat="43.890978111490114" lon="11.523077878569644"><ele>163.0</ele><time>2026-04-29T14:41:47Z</time></trkpt><trkpt lat="43.8909836403084" lon="11.522964628026383"><ele>163.0</ele><time>2026-04-29T14:41:49Z</time></trkpt><trkpt lat="43.89098778410834" lon="11.522852360299082"><ele>162.8</ele><time>2026-04-29T14:41:51Z</time></trkpt><trkpt lat="43.89099802379594" lon="11.522744775239547"><ele>162.60000000000002</ele><time>2026-04-29T14:41:55Z</time></trkpt><trkpt lat="43.8910124693464" lon="11.522618783818935"><ele>162.39999999999998</ele><time>2026-04-29T14:41:59Z</time></trkpt><trkpt lat="43.890936641425256" lon="11.522519520735784"><ele>162.2</ele><time>2026-04-29T14:42:01Z</time></trkpt><trkpt lat="43.89092482050474" lon="11.522353850663446"><ele>162.0</ele><time>2026-04-29T14:42:03Z</time></trkpt><trkpt lat="43.89092008473722" lon="11.52224329409274"><ele>161.4</ele><time>2026-04-29T14:42:04Z</time></trkpt><trkpt lat="43.89091208368388" lon="11.52213512548576"><ele>160.79999999999998</ele><time>2026-04-29T14:42:05Z</time></trkpt><trkpt lat="43.8908996507046" lon="11.521999330033882"><ele>160.2</ele><time>2026-04-29T14:42:06Z</time></trkpt><trkpt lat="43.89088469685418" lon="11.521857180171947"><ele>159.6</ele><time>2026-04-29T14:42:07Z</time></trkpt><trkpt lat="43.89086814708077" lon="11.521727721544348"><ele>159.0</ele><time>2026-04-29T14:42:08Z</time></trkpt><trkpt lat="43.89085227297629" lon="11.521602103731745"><ele>158.8</ele><time>2026-04-29T14:42:09Z</time></trkpt><trkpt lat="43.890842151806275" lon="11.521482154516791"><ele>158.60000000000002</ele><time>2026-04-29T14:42:10Z</time></trkpt><trkpt lat="43.89082439722674" lon="11.521373073506732"><ele>158.4</ele><time>2026-04-29T14:42:11Z</time></trkpt><trkpt lat="43.89079231200867" lon="11.521261093205048"><ele>158.20000000000002</ele><time>2026-04-29T14:42:12Z</time></trkpt><trkpt lat="43.89073401756515" lon="11.521153895632716"><ele>158.0</ele><time>2026-04-29T14:42:13Z</time></trkpt><trkpt lat="43.89064488940186" lon="11.52106972669842"><ele>157.6</ele><time>2026-04-29T14:42:14Z</time></trkpt><trkpt lat="43.890545765052565" lon="11.521009155188711"><ele>157.20000000000002</ele><time>2026-04-29T14:42:15Z</time></trkpt><trkpt lat="43.89043776687951" lon="11.520972653503538"><ele>156.8</ele><time>2026-04-29T14:42:16Z</time></trkpt><trkpt lat="43.89032353053616" lon="11.520963001531978"><ele>156.4</ele><time>2026-04-29T14:42:17Z</time></trkpt><trkpt lat="43.89021621622726" lon="11.520965065470818"><ele>156.0</ele><time>2026-04-29T14:42:18Z</time></trkpt><trkpt lat="43.890117028969016" lon="11.52097383775115"><ele>155.83333333333334</ele><time>2026-04-29T14:42:19Z</time></trkpt><trkpt lat="43.890026766848365" lon="11.520973102870409"><ele>155.66666666666666</ele><time>2026-04-29T14:42:19.999Z</time></trkpt><trkpt lat="43.8899362274204" lon="11.520967069139013"><ele>155.5</ele><time>2026-04-29T14:42:20.999Z</time></trkpt><trkpt lat="43.88985404910766" lon="11.52095885727784"><ele>155.33333333333331</ele><time>2026-04-29T14:42:21.999Z</time></trkpt><trkpt lat="43.88978083426992" lon="11.520953010623867"><ele>155.16666666666666</ele><time>2026-04-29T14:42:22.999Z</time></trkpt><trkpt lat="43.88970331172473" lon="11.520953934233892"><ele>155.0</ele><time>2026-04-29T14:42:23.999Z</time></trkpt><trkpt lat="43.889621936881916" lon="11.520948289658238"><ele>155.0</ele><time>2026-04-29T14:42:24.999Z</time></trkpt><trkpt lat="43.88953026864736" lon="11.520941817469499"><ele>155.0</ele><time>2026-04-29T14:42:25.999Z</time></trkpt><trkpt lat="43.88942663788194" lon="11.52093275852337"><ele>155.0</ele><time>2026-04-29T14:42:26.999Z</time></trkpt><trkpt lat="43.88930196466685" lon="11.520927975051007"><ele>155.0</ele><time>2026-04-29T14:42:27.999Z</time></trkpt><trkpt lat="43.88916761392305" lon="11.52091612108365"><ele>153.75</ele><time>2026-04-29T14:42:28.999Z</time></trkpt><trkpt lat="43.88903284571427" lon="11.520907175185208"><ele>152.5</ele><time>2026-04-29T14:42:29.999Z</time></trkpt><trkpt lat="43.88890380020387" lon="11.520899257926915"><ele>151.25</ele><time>2026-04-29T14:42:30.999Z</time></trkpt><trkpt lat="43.8887910907798" lon="11.520888791669197"><ele>150.0</ele><time>2026-04-29T14:42:31.999Z</time></trkpt><trkpt lat="43.88869369004704" lon="11.520885563077425"><ele>150.0</ele><time>2026-04-29T14:42:32.999Z</time></trkpt><trkpt lat="43.888601787445985" lon="11.520880564858684"><ele>150.0</ele><time>2026-04-29T14:42:33.999Z</time></trkpt><trkpt lat="43.88852005780965" lon="11.520886443896847"><ele>150.0</ele><time>2026-04-29T14:42:34.999Z</time></trkpt><trkpt lat="43.888443656988926" lon="11.520878192059916"><ele>150.0</ele><time>2026-04-29T14:42:35.999Z</time></trkpt><trkpt lat="43.88837615621389" lon="11.520908053340614"><ele>150.0</ele><time>2026-04-29T14:42:36.999Z</time></trkpt><trkpt lat="43.88829796590394" lon="11.520920051687114"><ele>150.0</ele><time>2026-04-29T14:42:37.999Z</time></trkpt><trkpt lat="43.888208982824544" lon="11.520967163737254"><ele>150.0</ele><time>2026-04-29T14:42:38.999Z</time></trkpt><trkpt lat="43.88812522343347" lon="11.521031264523389"><ele>150.0</ele><time>2026-04-29T14:42:39.999Z</time></trkpt><trkpt lat="43.88803870491172" lon="11.521083474290396"><ele>150.0</ele><time>2026-04-29T14:42:40.999Z</time></trkpt><trkpt lat="43.88796248541315" lon="11.52112853880953"><ele>150.0</ele><time>2026-04-29T14:42:41.999Z</time></trkpt><trkpt lat="43.88788151496932" lon="11.521153380263648"><ele>150.0</ele><time>2026-04-29T14:42:42.999Z</time></trkpt><trkpt lat="43.887798059588654" lon="11.521200452759265"><ele>150.0</ele><time>2026-04-29T14:42:43.999Z</time></trkpt><trkpt lat="43.88771144500963" lon="11.52125951549532"><ele>150.0</ele><time>2026-04-29T14:42:44.999Z</time></trkpt><trkpt lat="43.88763749670332" lon="11.521308014267234"><ele>150.0</ele><time>2026-04-29T14:42:45.999Z</time></trkpt><trkpt lat="43.88757118032538" lon="11.52134747033356"><ele>150.0</ele><time>2026-04-29T14:42:46.999Z</time></trkpt><trkpt lat="43.8875096226985" lon="11.521375760046292"><ele>150.0</ele><time>2026-04-29T14:42:47.999Z</time></trkpt><trkpt lat="43.88738128827138" lon="11.521430607115025"><ele>150.0</ele><time>2026-04-29T14:42:49.999Z</time></trkpt><trkpt lat="43.887316478580416" lon="11.521417603862112"><ele>150.0</ele><time>2026-04-29T14:42:50.999Z</time></trkpt><trkpt lat="43.88720569154247" lon="11.521267982695461"><ele>150.25</ele><time>2026-04-29T14:42:52.999Z</time></trkpt><trkpt lat="43.887212338609906" lon="11.521113746535063"><ele>150.5</ele><time>2026-04-29T14:42:53.999Z</time></trkpt><trkpt lat="43.88718057500383" lon="11.520944378700717"><ele>150.75</ele><time>2026-04-29T14:42:54.999Z</time></trkpt><trkpt lat="43.88713569174872" lon="11.520762169744392"><ele>151.0</ele><time>2026-04-29T14:42:55.999Z</time></trkpt><trkpt lat="43.887097293288775" lon="11.520545897012289"><ele>151.0</ele><time>2026-04-29T14:42:56.999Z</time></trkpt><trkpt lat="43.88705150411633" lon="11.520320922362522"><ele>151.0</ele><time>2026-04-29T14:42:57.999Z</time></trkpt><trkpt lat="43.88700115536235" lon="11.520065231852845"><ele>151.0</ele><time>2026-04-29T14:42:58.999Z</time></trkpt><trkpt lat="43.88695068524468" lon="11.519795252843963"><ele>151.0</ele><time>2026-04-29T14:42:59.999Z</time></trkpt><trkpt lat="43.88691413171209" lon="11.5195715465601"><ele>151.0</ele><time>2026-04-29T14:43:00.999Z</time></trkpt><trkpt lat="43.88687745574831" lon="11.519368987897092"><ele>151.0</ele><time>2026-04-29T14:43:01.999Z</time></trkpt><trkpt lat="43.886835525806134" lon="11.519177103927642"><ele>151.0</ele><time>2026-04-29T14:43:02.999Z</time></trkpt><trkpt lat="43.886793773761404" lon="11.518972512464778"><ele>151.0</ele><time>2026-04-29T14:43:03.999Z</time></trkpt><trkpt lat="43.88675065500822" lon="11.518753036335017"><ele>151.0</ele><time>2026-04-29T14:43:04.999Z</time></trkpt><trkpt lat="43.88670019724614" lon="11.518538064208279"><ele>155.25</ele><time>2026-04-29T14:43:05.999Z</time></trkpt><trkpt lat="43.886668395741964" lon="11.518344625637397"><ele>159.5</ele><time>2026-04-29T14:43:07Z</time></trkpt><trkpt lat="43.88664340598719" lon="11.518145882989293"><ele>163.75</ele><time>2026-04-29T14:43:08Z</time></trkpt><trkpt lat="43.886649470911564" lon="11.517963964825643"><ele>168.0</ele><time>2026-04-29T14:43:09Z</time></trkpt><trkpt lat="43.886674081049954" lon="11.517793035104491"><ele>169.5</ele><time>2026-04-29T14:43:10Z</time></trkpt><trkpt lat="43.88672219377999" lon="11.517646519070988"><ele>171.0</ele><time>2026-04-29T14:43:11Z</time></trkpt><trkpt lat="43.88679035408086" lon="11.517518161278181"><ele>172.5</ele><time>2026-04-29T14:43:12Z</time></trkpt><trkpt lat="43.886893895297476" lon="11.51742163873906"><ele>174.0</ele><time>2026-04-29T14:43:13Z</time></trkpt><trkpt lat="43.887007617302004" lon="11.517276343388613"><ele>174.33333333333334</ele><time>2026-04-29T14:43:14Z</time></trkpt><trkpt lat="43.88716134992989" lon="11.517144644308535"><ele>174.66666666666669</ele><time>2026-04-29T14:43:15Z</time></trkpt><trkpt lat="43.88732028372043" lon="11.516995109585954"><ele>175.0</ele><time>2026-04-29T14:43:16Z</time></trkpt><trkpt lat="43.88747690121932" lon="11.516847120837035"><ele>167.33333333333334</ele><time>2026-04-29T14:43:17Z</time></trkpt><trkpt lat="43.88762992819818" lon="11.51670897556477"><ele>159.66666666666666</ele><time>2026-04-29T14:43:18Z</time></trkpt><trkpt lat="43.88776884030376" lon="11.51658017200754"><ele>152.0</ele><time>2026-04-29T14:43:19Z</time></trkpt><trkpt lat="43.887902361593504" lon="11.516419552540773"><ele>159.0</ele><time>2026-04-29T14:43:20Z</time></trkpt><trkpt lat="43.88803134064953" lon="11.516213930867593"><ele>166.0</ele><time>2026-04-29T14:43:21Z</time></trkpt><trkpt lat="43.888154351904234" lon="11.515986593198274"><ele>173.0</ele><time>2026-04-29T14:43:22Z</time></trkpt><trkpt lat="43.8882672606524" lon="11.515785369646625"><ele>173.0</ele><time>2026-04-29T14:43:23Z</time></trkpt><trkpt lat="43.888400466470515" lon="11.515602678539606"><ele>173.0</ele><time>2026-04-29T14:43:24Z</time></trkpt><trkpt lat="43.88856141382656" lon="11.515423087007246"><ele>173.0</ele><time>2026-04-29T14:43:25Z</time></trkpt><trkpt lat="43.88873073415061" lon="11.515225832356851"><ele>170.5</ele><time>2026-04-29T14:43:26Z</time></trkpt><trkpt lat="43.88890013686543" lon="11.515019942613154"><ele>168.0</ele><time>2026-04-29T14:43:27Z</time></trkpt><trkpt lat="43.88908394593734" lon="11.514816577537061"><ele>166.33333333333334</ele><time>2026-04-29T14:43:28Z</time></trkpt><trkpt lat="43.889264801645396" lon="11.514639751410767"><ele>164.66666666666669</ele><time>2026-04-29T14:43:29Z</time></trkpt><trkpt lat="43.889430462639226" lon="11.514494819337063"><ele>163.0</ele><time>2026-04-29T14:43:30Z</time></trkpt><trkpt lat="43.88957997422835" lon="11.514352869198001"><ele>163.0</ele><time>2026-04-29T14:43:31Z</time></trkpt><trkpt lat="43.88972933296461" lon="11.514201898572182"><ele>163.0</ele><time>2026-04-29T14:43:32Z</time></trkpt><trkpt lat="43.889874383356236" lon="11.514046642370005"><ele>163.0</ele><time>2026-04-29T14:43:33Z</time></trkpt><trkpt lat="43.89000038892662" lon="11.513891966804975"><ele>164.75</ele><time>2026-04-29T14:43:34Z</time></trkpt><trkpt lat="43.890095927314135" lon="11.513723891861773"><ele>166.5</ele><time>2026-04-29T14:43:35Z</time></trkpt><trkpt lat="43.89016038076515" lon="11.513561703797869"><ele>168.25</ele><time>2026-04-29T14:43:36Z</time></trkpt><trkpt lat="43.89021122561121" lon="11.513425256510033"><ele>170.0</ele><time>2026-04-29T14:43:37Z</time></trkpt><trkpt lat="43.890279955046495" lon="11.513323410007997"><ele>170.0</ele><time>2026-04-29T14:43:38Z</time></trkpt><trkpt lat="43.8903783411941" lon="11.513240237437362"><ele>170.0</ele><time>2026-04-29T14:43:39Z</time></trkpt><trkpt lat="43.890533395600926" lon="11.513226924361275"><ele>170.0</ele><time>2026-04-29T14:43:40Z</time></trkpt><trkpt lat="43.89071357673926" lon="11.51320465706448"><ele>170.0</ele><time>2026-04-29T14:43:41Z</time></trkpt><trkpt lat="43.89090443536547" lon="11.513191936282734"><ele>170.0</ele><time>2026-04-29T14:43:42Z</time></trkpt><trkpt lat="43.89110816686245" lon="11.513216225210922"><ele>170.0</ele><time>2026-04-29T14:43:43Z</time></trkpt><trkpt lat="43.89133679883623" lon="11.51326776472019"><ele>170.5</ele><time>2026-04-29T14:43:44Z</time></trkpt><trkpt lat="43.89159804784" lon="11.513316810978674"><ele>171.0</ele><time>2026-04-29T14:43:45Z</time></trkpt><trkpt lat="43.89187309191549" lon="11.513393155990345"><ele>173.0</ele><time>2026-04-29T14:43:46Z</time></trkpt><trkpt lat="43.89212147442653" lon="11.51346208177661"><ele>175.0</ele><time>2026-04-29T14:43:47Z</time></trkpt><trkpt lat="43.89234490712753" lon="11.513519862577546"><ele>175.0</ele><time>2026-04-29T14:43:48Z</time></trkpt><trkpt lat="43.89254647208682" lon="11.51357019966838"><ele>175.0</ele><time>2026-04-29T14:43:49Z</time></trkpt><trkpt lat="43.89274111145386" lon="11.513616271628647"><ele>175.0</ele><time>2026-04-29T14:43:50Z</time></trkpt><trkpt lat="43.89292422333935" lon="11.513656119853474"><ele>173.66666666666669</ele><time>2026-04-29T14:43:51Z</time></trkpt><trkpt lat="43.8930869386079" lon="11.51366831396763"><ele>172.33333333333334</ele><time>2026-04-29T14:43:52Z</time></trkpt><trkpt lat="43.89324380171" lon="11.513648077798715"><ele>171.0</ele><time>2026-04-29T14:43:53Z</time></trkpt><trkpt lat="43.89339058707377" lon="11.513590257990813"><ele>167.33333333333334</ele><time>2026-04-29T14:43:54Z</time></trkpt><trkpt lat="43.89354385253767" lon="11.513476605173922"><ele>163.66666666666669</ele><time>2026-04-29T14:43:55Z</time></trkpt><trkpt lat="43.89369719942563" lon="11.513344295168173"><ele>160.0</ele><time>2026-04-29T14:43:56Z</time></trkpt><trkpt lat="43.893831278476675" lon="11.513192333359774"><ele>160.0</ele><time>2026-04-29T14:43:57Z</time></trkpt><trkpt lat="43.89392945588231" lon="11.513042210040497"><ele>160.0</ele><time>2026-04-29T14:43:58Z</time></trkpt><trkpt lat="43.894024546802726" lon="11.512936008742146"><ele>160.0</ele><time>2026-04-29T14:43:59Z</time></trkpt><trkpt lat="43.89409995471625" lon="11.512841201695236"><ele>160.0</ele><time>2026-04-29T14:44:00Z</time></trkpt><trkpt lat="43.894161539211055" lon="11.512771871129674"><ele>160.0</ele><time>2026-04-29T14:44:01Z</time></trkpt><trkpt lat="43.89421955079821" lon="11.512720310496912"><ele>160.5</ele><time>2026-04-29T14:44:02Z</time></trkpt><trkpt lat="43.894287495335305" lon="11.512753243722363"><ele>161.0</ele><time>2026-04-29T14:44:03Z</time></trkpt><trkpt lat="43.894326423637715" lon="11.512866458162964"><ele>161.5</ele><time>2026-04-29T14:44:04Z</time></trkpt><trkpt lat="43.89438945523765" lon="11.51295438030966"><ele>162.0</ele><time>2026-04-29T14:44:05Z</time></trkpt><trkpt lat="43.89443348271641" lon="11.513030907537253"><ele>162.5</ele><time>2026-04-29T14:44:06Z</time></trkpt><trkpt lat="43.894422390869615" lon="11.513191287714797"><ele>163.0</ele><time>2026-04-29T14:44:08Z</time></trkpt><trkpt lat="43.89439343288003" lon="11.513348046012434"><ele>163.0</ele><time>2026-04-29T14:44:09Z</time></trkpt><trkpt lat="43.89436103182057" lon="11.513519055616108"><ele>163.0</ele><time>2026-04-29T14:44:10Z</time></trkpt><trkpt lat="43.89433300808427" lon="11.513660518982888"><ele>163.0</ele><time>2026-04-29T14:44:11Z</time></trkpt><trkpt lat="43.89432065044042" lon="11.513753253069357"><ele>163.0</ele><time>2026-04-29T14:44:12Z</time></trkpt><trkpt lat="43.89433801661733" lon="11.513842381590104"><ele>163.0</ele><time>2026-04-29T14:44:13Z</time></trkpt><trkpt lat="43.894398424271124" lon="11.513918753169053"><ele>163.0</ele><time>2026-04-29T14:44:14Z</time></trkpt><trkpt lat="43.89451020296116" lon="11.513930788415315"><ele>160.5</ele><time>2026-04-29T14:44:15Z</time></trkpt><trkpt lat="43.89462320934824" lon="11.513824493786606"><ele>158.0</ele><time>2026-04-29T14:44:16Z</time></trkpt><trkpt lat="43.89476211087444" lon="11.513777821622638"><ele>155.5</ele><time>2026-04-29T14:44:17Z</time></trkpt><trkpt lat="43.894919599653704" lon="11.51374494098892"><ele>153.0</ele><time>2026-04-29T14:44:18Z</time></trkpt><trkpt lat="43.89509404521203" lon="11.513737248679636"><ele>160.66666666666666</ele><time>2026-04-29T14:44:19Z</time></trkpt><trkpt lat="43.895281434176745" lon="11.513735170028385"><ele>168.33333333333331</ele><time>2026-04-29T14:44:20Z</time></trkpt><trkpt lat="43.895445513473334" lon="11.513720646366503"><ele>176.0</ele><time>2026-04-29T14:44:21Z</time></trkpt><trkpt lat="43.89559951456024" lon="11.513718003302571"><ele>176.0</ele><time>2026-04-29T14:44:22Z</time></trkpt><trkpt lat="43.895745056625906" lon="11.513711764424677"><ele>176.0</ele><time>2026-04-29T14:44:23Z</time></trkpt><trkpt lat="43.89588037563551" lon="11.513703264805134"><ele>176.0</ele><time>2026-04-29T14:44:23.999Z</time></trkpt><trkpt lat="43.89601101615963" lon="11.513682883481845"><ele>176.0</ele><time>2026-04-29T14:44:24.999Z</time></trkpt><trkpt lat="43.89614591518954" lon="11.513627819875467"><ele>169.33333333333331</ele><time>2026-04-29T14:44:25.999Z</time></trkpt><trkpt lat="43.89628763422693" lon="11.513528075998044"><ele>162.66666666666666</ele><time>2026-04-29T14:44:26.999Z</time></trkpt><trkpt lat="43.8964181007859" lon="11.51340898014043"><ele>156.0</ele><time>2026-04-29T14:44:27.999Z</time></trkpt><trkpt lat="43.896528475579636" lon="11.513265258156906"><ele>156.0</ele><time>2026-04-29T14:44:28.999Z</time></trkpt><trkpt lat="43.896639050292784" lon="11.513076379800003"><ele>156.0</ele><time>2026-04-29T14:44:29.999Z</time></trkpt><trkpt lat="43.89675950133789" lon="11.512846637971448"><ele>156.0</ele><time>2026-04-29T14:44:30.999Z</time></trkpt><trkpt lat="43.89689866531735" lon="11.512582479188662"><ele>156.5</ele><time>2026-04-29T14:44:31.999Z</time></trkpt><trkpt lat="43.89705168573932" lon="11.51230747259746"><ele>157.0</ele><time>2026-04-29T14:44:32.999Z</time></trkpt><trkpt lat="43.897216337267885" lon="11.512007404085198"><ele>157.0</ele><time>2026-04-29T14:44:33.999Z</time></trkpt><trkpt lat="43.89739360164842" lon="11.511678639328537"><ele>157.0</ele><time>2026-04-29T14:44:34.999Z</time></trkpt><trkpt lat="43.89756910153293" lon="11.511355063787173"><ele>155.5</ele><time>2026-04-29T14:44:35.999Z</time></trkpt><trkpt lat="43.897726424177314" lon="11.511063074770076"><ele>154.0</ele><time>2026-04-29T14:44:36.999Z</time></trkpt><trkpt lat="43.89786294800812" lon="11.510801536127554"><ele>154.0</ele><time>2026-04-29T14:44:37.999Z</time></trkpt><trkpt lat="43.89798961935399" lon="11.510534553611222"><ele>154.0</ele><time>2026-04-29T14:44:38.999Z</time></trkpt><trkpt lat="43.89809791452479" lon="11.510269977216009"><ele>155.33333333333334</ele><time>2026-04-29T14:44:39.999Z</time></trkpt><trkpt lat="43.89819937195862" lon="11.510025779672993"><ele>156.66666666666666</ele><time>2026-04-29T14:44:40.999Z</time></trkpt><trkpt lat="43.89830452931152" lon="11.509793410023496"><ele>158.0</ele><time>2026-04-29T14:44:41.999Z</time></trkpt><trkpt lat="43.8984361695467" lon="11.509560571280424"><ele>158.0</ele><time>2026-04-29T14:44:42.999Z</time></trkpt><trkpt lat="43.89858606397574" lon="11.509341684939471"><ele>158.0</ele><time>2026-04-29T14:44:43.999Z</time></trkpt><trkpt lat="43.89872220200331" lon="11.509149522813603"><ele>158.0</ele><time>2026-04-29T14:44:44.999Z</time></trkpt><trkpt lat="43.898847125112894" lon="11.50896804835579"><ele>158.0</ele><time>2026-04-29T14:44:45.999Z</time></trkpt><trkpt lat="43.89895645933079" lon="11.508804401369275"><ele>158.0</ele><time>2026-04-29T14:44:46.999Z</time></trkpt><trkpt lat="43.89905339212357" lon="11.508655803084531"><ele>158.0</ele><time>2026-04-29T14:44:47.999Z</time></trkpt><trkpt lat="43.89914139319132" lon="11.508539506506173"><ele>158.0</ele><time>2026-04-29T14:44:48.999Z</time></trkpt><trkpt lat="43.899251171348126" lon="11.508462637634894"><ele>157.66666666666666</ele><time>2026-04-29T14:44:49.999Z</time></trkpt><trkpt lat="43.89936246638238" lon="11.508359053712583"><ele>157.33333333333334</ele><time>2026-04-29T14:44:50.999Z</time></trkpt><trkpt lat="43.89950922275788" lon="11.50826817794198"><ele>157.0</ele><time>2026-04-29T14:44:51.999Z</time></trkpt><trkpt lat="43.899670571070196" lon="11.50815930332646"><ele>157.0</ele><time>2026-04-29T14:44:52.999Z</time></trkpt><trkpt lat="43.89983050823158" lon="11.508034573116742"><ele>157.0</ele><time>2026-04-29T14:44:53.999Z</time></trkpt><trkpt lat="43.899974813039094" lon="11.507897030807074"><ele>157.0</ele><time>2026-04-29T14:44:54.999Z</time></trkpt><trkpt lat="43.9001073130335" lon="11.507761452606722"><ele>157.0</ele><time>2026-04-29T14:44:55.999Z</time></trkpt><trkpt lat="43.90022350220436" lon="11.507633959963663"><ele>157.0</ele><time>2026-04-29T14:44:56.999Z</time></trkpt><trkpt lat="43.900327113623995" lon="11.507482404384465"><ele>157.0</ele><time>2026-04-29T14:44:57.999Z</time></trkpt><trkpt lat="43.90042968990441" lon="11.507258610044504"><ele>158.0</ele><time>2026-04-29T14:44:58.999Z</time></trkpt><trkpt lat="43.90054925327479" lon="11.506999009826647"><ele>159.0</ele><time>2026-04-29T14:44:59.999Z</time></trkpt><trkpt lat="43.90067847841545" lon="11.50672272470695"><ele>159.0</ele><time>2026-04-29T14:45:00.999Z</time></trkpt><trkpt lat="43.900812758729046" lon="11.506437996314752"><ele>159.0</ele><time>2026-04-29T14:45:01.999Z</time></trkpt><trkpt lat="43.90094838347434" lon="11.506156940127726"><ele>157.0</ele><time>2026-04-29T14:45:02.999Z</time></trkpt><trkpt lat="43.90108876379392" lon="11.505869786364254"><ele>155.0</ele><time>2026-04-29T14:45:03.999Z</time></trkpt><trkpt lat="43.901214730481534" lon="11.505608089366296"><ele>157.66666666666666</ele><time>2026-04-29T14:45:04.999Z</time></trkpt><trkpt lat="43.90133325801489" lon="11.505360219661569"><ele>160.33333333333334</ele><time>2026-04-29T14:45:05.999Z</time></trkpt><trkpt lat="43.901445352753996" lon="11.505131158529709"><ele>163.0</ele><time>2026-04-29T14:45:06.999Z</time></trkpt><trkpt lat="43.90156292585673" lon="11.504917032914946"><ele>163.0</ele><time>2026-04-29T14:45:07.999Z</time></trkpt><trkpt lat="43.90167963283664" lon="11.504733587154213"><ele>163.0</ele><time>2026-04-29T14:45:08.999Z</time></trkpt><trkpt lat="43.90180546390081" lon="11.504551838918745"><ele>163.0</ele><time>2026-04-29T14:45:09.999Z</time></trkpt><trkpt lat="43.90194746129334" lon="11.504362527730345"><ele>161.0</ele><time>2026-04-29T14:45:10.999Z</time></trkpt><trkpt lat="43.90212054386694" lon="11.504160145274025"><ele>159.0</ele><time>2026-04-29T14:45:11.999Z</time></trkpt><trkpt lat="43.902319880438014" lon="11.503959474046955"><ele>159.0</ele><time>2026-04-29T14:45:13Z</time></trkpt><trkpt lat="43.90250067176189" lon="11.50376569869065"><ele>159.0</ele><time>2026-04-29T14:45:14Z</time></trkpt><trkpt lat="43.90267638941975" lon="11.503597489845895"><ele>159.0</ele><time>2026-04-29T14:45:15Z</time></trkpt><trkpt lat="43.902835381914585" lon="11.503438581745545"><ele>159.0</ele><time>2026-04-29T14:45:16Z</time></trkpt><trkpt lat="43.902987027153266" lon="11.503277156210338"><ele>159.0</ele><time>2026-04-29T14:45:17Z</time></trkpt><trkpt lat="43.903132391326935" lon="11.5031264453493"><ele>159.0</ele><time>2026-04-29T14:45:18Z</time></trkpt><trkpt lat="43.903263259892384" lon="11.502995888910997"><ele>158.5</ele><time>2026-04-29T14:45:19Z</time></trkpt><trkpt lat="43.90337762734283" lon="11.502878438306078"><ele>158.0</ele><time>2026-04-29T14:45:20Z</time></trkpt><trkpt lat="43.90346448840817" lon="11.502745347722819"><ele>157.5</ele><time>2026-04-29T14:45:21Z</time></trkpt><trkpt lat="43.903542075816006" lon="11.502607317508243"><ele>157.0</ele><time>2026-04-29T14:45:22Z</time></trkpt><trkpt lat="43.903610782267805" lon="11.50246692908408"><ele>157.0</ele><time>2026-04-29T14:45:23Z</time></trkpt><trkpt lat="43.90367649190724" lon="11.502345535824217"><ele>157.0</ele><time>2026-04-29T14:45:24Z</time></trkpt><trkpt lat="43.9037414390988" lon="11.50222978422032"><ele>157.0</ele><time>2026-04-29T14:45:25Z</time></trkpt><trkpt lat="43.90380566834237" lon="11.502127474003473"><ele>157.0</ele><time>2026-04-29T14:45:26Z</time></trkpt><trkpt lat="43.903869520736706" lon="11.50201972809248"><ele>157.0</ele><time>2026-04-29T14:45:27Z</time></trkpt><trkpt lat="43.903930912793186" lon="11.501906422097923"><ele>157.66666666666669</ele><time>2026-04-29T14:45:28Z</time></trkpt><trkpt lat="43.90398323661396" lon="11.501799913787224"><ele>158.33333333333334</ele><time>2026-04-29T14:45:29Z</time></trkpt><trkpt lat="43.90404105131769" lon="11.501698505978858"><ele>159.0</ele><time>2026-04-29T14:45:30Z</time></trkpt><trkpt lat="43.9041058772964" lon="11.501634667042063"><ele>159.66666666666666</ele><time>2026-04-29T14:45:31Z</time></trkpt><trkpt lat="43.90418057939075" lon="11.501600660132125"><ele>160.33333333333331</ele><time>2026-04-29T14:45:32Z</time></trkpt><trkpt lat="43.90426151820497" lon="11.501586262634717"><ele>161.0</ele><time>2026-04-29T14:45:33Z</time></trkpt><trkpt lat="43.90434135508213" lon="11.501589002000765"><ele>161.0</ele><time>2026-04-29T14:45:34Z</time></trkpt><trkpt lat="43.90442553434152" lon="11.50156280089485"><ele>161.0</ele><time>2026-04-29T14:45:35Z</time></trkpt><trkpt lat="43.90451333442281" lon="11.50150782253193"><ele>161.0</ele><time>2026-04-29T14:45:36Z</time></trkpt><trkpt lat="43.9046416262447" lon="11.501442003374391"><ele>161.0</ele><time>2026-04-29T14:45:37Z</time></trkpt><trkpt lat="43.90477270315057" lon="11.501348339460135"><ele>160.33333333333331</ele><time>2026-04-29T14:45:38Z</time></trkpt><trkpt lat="43.9049097416441" lon="11.501228377759269"><ele>159.66666666666666</ele><time>2026-04-29T14:45:39Z</time></trkpt><trkpt lat="43.905057068734635" lon="11.501147530461992"><ele>159.0</ele><time>2026-04-29T14:45:40Z</time></trkpt><trkpt lat="43.905186547028094" lon="11.501056097486252"><ele>159.0</ele><time>2026-04-29T14:45:41Z</time></trkpt><trkpt lat="43.905304353067166" lon="11.500961339654415"><ele>159.0</ele><time>2026-04-29T14:45:42Z</time></trkpt><trkpt lat="43.905444929091225" lon="11.500908289967093"><ele>159.0</ele><time>2026-04-29T14:45:43Z</time></trkpt><trkpt lat="43.90560299902457" lon="11.500874447024454"><ele>159.0</ele><time>2026-04-29T14:45:44Z</time></trkpt><trkpt lat="43.905778512782305" lon="11.500846612381238"><ele>160.0</ele><time>2026-04-29T14:45:45Z</time></trkpt><trkpt lat="43.9059658090883" lon="11.500815848092044"><ele>161.0</ele><time>2026-04-29T14:45:46Z</time></trkpt><trkpt lat="43.90615760681945" lon="11.50079837327265"><ele>162.0</ele><time>2026-04-29T14:45:47Z</time></trkpt><trkpt lat="43.90635412983534" lon="11.50078676075896"><ele>162.0</ele><time>2026-04-29T14:45:48Z</time></trkpt><trkpt lat="43.90655292390056" lon="11.500772947388207"><ele>162.0</ele><time>2026-04-29T14:45:49Z</time></trkpt><trkpt lat="43.9067453837612" lon="11.50076053510721"><ele>162.0</ele><time>2026-04-29T14:45:50Z</time></trkpt><trkpt lat="43.90692310935735" lon="11.500749087571418"><ele>164.66666666666666</ele><time>2026-04-29T14:45:51Z</time></trkpt><trkpt lat="43.90709258125394" lon="11.500737514963916"><ele>167.33333333333331</ele><time>2026-04-29T14:45:52Z</time></trkpt><trkpt lat="43.907255302210686" lon="11.500744218672306"><ele>170.0</ele><time>2026-04-29T14:45:53Z</time></trkpt><trkpt lat="43.90742123356724" lon="11.50077751392566"><ele>175.0</ele><time>2026-04-29T14:45:54Z</time></trkpt><trkpt lat="43.90758842791906" lon="11.500858938798558"><ele>180.0</ele><time>2026-04-29T14:45:55Z</time></trkpt><trkpt lat="43.90776848672489" lon="11.500998671734608"><ele>185.0</ele><time>2026-04-29T14:45:56Z</time></trkpt><trkpt lat="43.90795635176842" lon="11.501167425415797"><ele>174.5</ele><time>2026-04-29T14:45:57Z</time></trkpt><trkpt lat="43.90815602478426" lon="11.501344962884026"><ele>164.0</ele><time>2026-04-29T14:45:58Z</time></trkpt><trkpt lat="43.908356532469256" lon="11.501525793349103"><ele>166.5</ele><time>2026-04-29T14:45:59Z</time></trkpt><trkpt lat="43.908559967694934" lon="11.501716492215266"><ele>169.0</ele><time>2026-04-29T14:46:00Z</time></trkpt><trkpt lat="43.908772582234064" lon="11.501905821418939"><ele>165.0</ele><time>2026-04-29T14:46:01Z</time></trkpt><trkpt lat="43.90899583391876" lon="11.502098513538726"><ele>161.0</ele><time>2026-04-29T14:46:02Z</time></trkpt><trkpt lat="43.909226897336794" lon="11.50230241004532"><ele>169.0</ele><time>2026-04-29T14:46:03Z</time></trkpt><trkpt lat="43.909448819575616" lon="11.502526633033916"><ele>177.0</ele><time>2026-04-29T14:46:04Z</time></trkpt><trkpt lat="43.90967216566633" lon="11.502725243770465"><ele>177.0</ele><time>2026-04-29T14:46:05Z</time></trkpt><trkpt lat="43.909882090596085" lon="11.502886707079016"><ele>177.0</ele><time>2026-04-29T14:46:06Z</time></trkpt><trkpt lat="43.91004807877243" lon="11.503063546167622"><ele>177.0</ele><time>2026-04-29T14:46:07Z</time></trkpt><trkpt lat="43.91021097735195" lon="11.50318175224005"><ele>179.33333333333334</ele><time>2026-04-29T14:46:08Z</time></trkpt><trkpt lat="43.91035481095403" lon="11.503315848031798"><ele>181.66666666666669</ele><time>2026-04-29T14:46:09Z</time></trkpt><trkpt lat="43.91049173573269" lon="11.503446540422324"><ele>184.0</ele><time>2026-04-29T14:46:10Z</time></trkpt><trkpt lat="43.91063366040778" lon="11.503560317282796"><ele>184.0</ele><time>2026-04-29T14:46:11Z</time></trkpt><trkpt lat="43.91080828774715" lon="11.503658900281563"><ele>184.0</ele><time>2026-04-29T14:46:12Z</time></trkpt><trkpt lat="43.91099057710534" lon="11.503754821482396"><ele>184.0</ele><time>2026-04-29T14:46:13Z</time></trkpt><trkpt lat="43.911158023322656" lon="11.503837986049438"><ele>179.75</ele><time>2026-04-29T14:46:14Z</time></trkpt><trkpt lat="43.911303595242295" lon="11.503904951540765"><ele>175.5</ele><time>2026-04-29T14:46:15Z</time></trkpt><trkpt lat="43.91143615931962" lon="11.503966862938523"><ele>171.25</ele><time>2026-04-29T14:46:16Z</time></trkpt><trkpt lat="43.911562442625595" lon="11.503983095997473"><ele>167.0</ele><time>2026-04-29T14:46:17Z</time></trkpt><trkpt lat="43.91168131352855" lon="11.503946232910836"><ele>168.0</ele><time>2026-04-29T14:46:18Z</time></trkpt><trkpt lat="43.91180751229384" lon="11.503852492567606"><ele>169.0</ele><time>2026-04-29T14:46:19Z</time></trkpt><trkpt lat="43.911946791853076" lon="11.503694227840365"><ele>170.0</ele><time>2026-04-29T14:46:20Z</time></trkpt><trkpt lat="43.91210300910654" lon="11.503549232458596"><ele>170.0</ele><time>2026-04-29T14:46:21Z</time></trkpt><trkpt lat="43.9122425384109" lon="11.50340881507142"><ele>170.0</ele><time>2026-04-29T14:46:22Z</time></trkpt><trkpt lat="43.912386111143576" lon="11.503281601634715"><ele>170.0</ele><time>2026-04-29T14:46:23Z</time></trkpt><trkpt lat="43.91252411328169" lon="11.503167688727203"><ele>167.33333333333331</ele><time>2026-04-29T14:46:24Z</time></trkpt><trkpt lat="43.91265150533902" lon="11.503044665606255"><ele>164.66666666666666</ele><time>2026-04-29T14:46:25Z</time></trkpt><trkpt lat="43.91275744221943" lon="11.502906786450227"><ele>162.0</ele><time>2026-04-29T14:46:26Z</time></trkpt><trkpt lat="43.9128437566755" lon="11.50273106147976"><ele>162.0</ele><time>2026-04-29T14:46:27Z</time></trkpt><trkpt lat="43.91293076098279" lon="11.50250426362586"><ele>162.0</ele><time>2026-04-29T14:46:28Z</time></trkpt><trkpt lat="43.91303753711927" lon="11.502280249627672"><ele>162.0</ele><time>2026-04-29T14:46:29Z</time></trkpt><trkpt lat="43.913106481678156" lon="11.50214736823287"><ele>164.25</ele><time>2026-04-29T14:46:30Z</time></trkpt><trkpt lat="43.913178304602276" lon="11.501942890098803"><ele>166.5</ele><time>2026-04-29T14:46:31Z</time></trkpt><trkpt lat="43.9132438042333" lon="11.501759917026963"><ele>168.75</ele><time>2026-04-29T14:46:32Z</time></trkpt><trkpt lat="43.913298814538614" lon="11.501609384424329"><ele>171.0</ele><time>2026-04-29T14:46:33Z</time></trkpt><trkpt lat="43.91334030985511" lon="11.501502606652682"><ele>168.25</ele><time>2026-04-29T14:46:34Z</time></trkpt><trkpt lat="43.91344075715274" lon="11.501450940043439"><ele>165.5</ele><time>2026-04-29T14:46:36Z</time></trkpt><trkpt lat="43.91349462606812" lon="11.501537755885144"><ele>162.75</ele><time>2026-04-29T14:46:37Z</time></trkpt><trkpt lat="43.9136595647708" lon="11.501517170887489"><ele>160.0</ele><time>2026-04-29T14:46:39Z</time></trkpt><trkpt lat="43.91380760568288" lon="11.501482184210763"><ele>160.0</ele><time>2026-04-29T14:46:39.999Z</time></trkpt><trkpt lat="43.91396399808825" lon="11.501412473889435"><ele>160.0</ele><time>2026-04-29T14:46:40.999Z</time></trkpt><trkpt lat="43.914142557479735" lon="11.50133366315048"><ele>160.0</ele><time>2026-04-29T14:46:41.999Z</time></trkpt><trkpt lat="43.91433769902852" lon="11.50124829159618"><ele>160.0</ele><time>2026-04-29T14:46:42.999Z</time></trkpt><trkpt lat="43.914536456153634" lon="11.501160605864058"><ele>160.0</ele><time>2026-04-29T14:46:43.999Z</time></trkpt><trkpt lat="43.914754637323156" lon="11.501091033052882"><ele>160.0</ele><time>2026-04-29T14:46:44.999Z</time></trkpt><trkpt lat="43.91496383375263" lon="11.501004279381593"><ele>160.5</ele><time>2026-04-29T14:46:45.999Z</time></trkpt><trkpt lat="43.915181315266594" lon="11.500912975078046"><ele>161.0</ele><time>2026-04-29T14:46:46.999Z</time></trkpt><trkpt lat="43.91539963993088" lon="11.500820675132918"><ele>161.0</ele><time>2026-04-29T14:46:47.999Z</time></trkpt><trkpt lat="43.915596025862335" lon="11.500707683307756"><ele>161.0</ele><time>2026-04-29T14:46:48.999Z</time></trkpt><trkpt lat="43.91579033527288" lon="11.500645770573144"><ele>161.0</ele><time>2026-04-29T14:46:49.999Z</time></trkpt><trkpt lat="43.9159754282472" lon="11.500583902357077"><ele>161.33333333333331</ele><time>2026-04-29T14:46:50.999Z</time></trkpt><trkpt lat="43.91617475195483" lon="11.500527036543991"><ele>161.66666666666666</ele><time>2026-04-29T14:46:51.999Z</time></trkpt><trkpt lat="43.91636941243963" lon="11.500474519862108"><ele>162.0</ele><time>2026-04-29T14:46:52.999Z</time></trkpt><trkpt lat="43.916549094150376" lon="11.500426406802262"><ele>162.33333333333334</ele><time>2026-04-29T14:46:53.999Z</time></trkpt><trkpt lat="43.91673423936831" lon="11.500382693163948"><ele>162.66666666666669</ele><time>2026-04-29T14:46:54.999Z</time></trkpt><trkpt lat="43.91692021430916" lon="11.500362339254083"><ele>163.0</ele><time>2026-04-29T14:46:55.999Z</time></trkpt><trkpt lat="43.91710047161497" lon="11.500362103311652"><ele>163.66666666666669</ele><time>2026-04-29T14:46:56.999Z</time></trkpt><trkpt lat="43.9172693653023" lon="11.50034662827615"><ele>164.33333333333334</ele><time>2026-04-29T14:46:57.999Z</time></trkpt><trkpt lat="43.91742099917583" lon="11.500338808222246"><ele>165.0</ele><time>2026-04-29T14:46:58.999Z</time></trkpt><trkpt lat="43.91755394759366" lon="11.500315227633731"><ele>165.0</ele><time>2026-04-29T14:46:59.999Z</time></trkpt><trkpt lat="43.91769339213486" lon="11.500247603953627"><ele>165.0</ele><time>2026-04-29T14:47:00.999Z</time></trkpt><trkpt lat="43.91785764299534" lon="11.500148666929658"><ele>165.0</ele><time>2026-04-29T14:47:01.999Z</time></trkpt><trkpt lat="43.91804079264819" lon="11.500025969305636"><ele>165.0</ele><time>2026-04-29T14:47:02.999Z</time></trkpt><trkpt lat="43.918225611768094" lon="11.499905117399349"><ele>165.0</ele><time>2026-04-29T14:47:03.999Z</time></trkpt><trkpt lat="43.91838871387413" lon="11.499812474403113"><ele>165.0</ele><time>2026-04-29T14:47:04.999Z</time></trkpt><trkpt lat="43.91854238681623" lon="11.499727584819132"><ele>164.0</ele><time>2026-04-29T14:47:05.999Z</time></trkpt><trkpt lat="43.918702336803854" lon="11.499614183256197"><ele>163.0</ele><time>2026-04-29T14:47:06.999Z</time></trkpt><trkpt lat="43.9188686746391" lon="11.499463179965055"><ele>162.0</ele><time>2026-04-29T14:47:07.999Z</time></trkpt><trkpt lat="43.91902242182103" lon="11.499323126034907"><ele>162.0</ele><time>2026-04-29T14:47:08.999Z</time></trkpt><trkpt lat="43.91914995816399" lon="11.499202570334559"><ele>162.0</ele><time>2026-04-29T14:47:09.999Z</time></trkpt><trkpt lat="43.91925299919197" lon="11.499078561577255"><ele>162.0</ele><time>2026-04-29T14:47:10.999Z</time></trkpt><trkpt lat="43.919332876524535" lon="11.498942938259233"><ele>162.0</ele><time>2026-04-29T14:47:11.999Z</time></trkpt><trkpt lat="43.9193761674618" lon="11.498759194691914"><ele>161.66666666666666</ele><time>2026-04-29T14:47:12.999Z</time></trkpt><trkpt lat="43.919400142316135" lon="11.498533127950342"><ele>161.33333333333331</ele><time>2026-04-29T14:47:13.999Z</time></trkpt><trkpt lat="43.91941843622426" lon="11.498279451355039"><ele>161.0</ele><time>2026-04-29T14:47:14.999Z</time></trkpt><trkpt lat="43.91944253140703" lon="11.498022814570033"><ele>161.33333333333331</ele><time>2026-04-29T14:47:15.999Z</time></trkpt><trkpt lat="43.91947691921905" lon="11.497762905214435"><ele>161.66666666666666</ele><time>2026-04-29T14:47:16.999Z</time></trkpt><trkpt lat="43.91951028242304" lon="11.49751150889534"><ele>162.0</ele><time>2026-04-29T14:47:18Z</time></trkpt><trkpt lat="43.91954250003909" lon="11.497298581956846"><ele>162.0</ele><time>2026-04-29T14:47:19Z</time></trkpt><trkpt lat="43.91956575965688" lon="11.497101212675258"><ele>162.0</ele><time>2026-04-29T14:47:20Z</time></trkpt><trkpt lat="43.91958924812272" lon="11.496911692788057"><ele>162.0</ele><time>2026-04-29T14:47:21Z</time></trkpt><trkpt lat="43.91959966369561" lon="11.496749028059918"><ele>162.0</ele><time>2026-04-29T14:47:22Z</time></trkpt><trkpt lat="43.91963085976769" lon="11.496587435663455"><ele>163.0</ele><time>2026-04-29T14:47:23Z</time></trkpt><trkpt lat="43.9196332866641" lon="11.496393180858677"><ele>164.0</ele><time>2026-04-29T14:47:24Z</time></trkpt><trkpt lat="43.91966005179605" lon="11.496174202637844"><ele>165.0</ele><time>2026-04-29T14:47:25Z</time></trkpt><trkpt lat="43.91967676289778" lon="11.495955400983274"><ele>166.5</ele><time>2026-04-29T14:47:26Z</time></trkpt><trkpt lat="43.91967818287955" lon="11.495752283699625"><ele>168.0</ele><time>2026-04-29T14:47:27Z</time></trkpt><trkpt lat="43.919664963141166" lon="11.495581187342882"><ele>169.5</ele><time>2026-04-29T14:47:28Z</time></trkpt><trkpt lat="43.91967485106883" lon="11.495426103644139"><ele>171.0</ele><time>2026-04-29T14:47:29Z</time></trkpt><trkpt lat="43.9196817964353" lon="11.495292233101962"><ele>171.66666666666666</ele><time>2026-04-29T14:47:30Z</time></trkpt><trkpt lat="43.919704046027974" lon="11.495121093329047"><ele>172.33333333333331</ele><time>2026-04-29T14:47:31Z</time></trkpt><trkpt lat="43.91976990063428" lon="11.49491634983059"><ele>173.0</ele><time>2026-04-29T14:47:32Z</time></trkpt><trkpt lat="43.919840285264236" lon="11.494687111115136"><ele>174.0</ele><time>2026-04-29T14:47:33Z</time></trkpt><trkpt lat="43.91990594211632" lon="11.49446505692294"><ele>175.0</ele><time>2026-04-29T14:47:34Z</time></trkpt><trkpt lat="43.919974963682215" lon="11.494279853638625"><ele>176.0</ele><time>2026-04-29T14:47:35Z</time></trkpt><trkpt lat="43.92005991349382" lon="11.49412953443865"><ele>175.75</ele><time>2026-04-29T14:47:36Z</time></trkpt><trkpt lat="43.92017727062442" lon="11.494030656551084"><ele>175.5</ele><time>2026-04-29T14:47:37Z</time></trkpt><trkpt lat="43.92028756614447" lon="11.493892437497394"><ele>175.25</ele><time>2026-04-29T14:47:38Z</time></trkpt><trkpt lat="43.920417864995066" lon="11.493770240114143"><ele>175.0</ele><time>2026-04-29T14:47:39Z</time></trkpt><trkpt lat="43.92052474968367" lon="11.493645132918218"><ele>175.0</ele><time>2026-04-29T14:47:40Z</time></trkpt><trkpt lat="43.92061982562919" lon="11.493525254535438"><ele>175.0</ele><time>2026-04-29T14:47:41Z</time></trkpt><trkpt lat="43.92070707072885" lon="11.493415010114136"><ele>175.0</ele><time>2026-04-29T14:47:42Z</time></trkpt><trkpt lat="43.92080091195839" lon="11.493326708576923"><ele>175.0</ele><time>2026-04-29T14:47:43Z</time></trkpt><trkpt lat="43.92092131274641" lon="11.493281817630832"><ele>173.0</ele><time>2026-04-29T14:47:44Z</time></trkpt><trkpt lat="43.92106006528132" lon="11.49321850209624"><ele>171.0</ele><time>2026-04-29T14:47:45Z</time></trkpt><trkpt lat="43.92120998847908" lon="11.493137840138441"><ele>169.0</ele><time>2026-04-29T14:47:46Z</time></trkpt><trkpt lat="43.92137601614428" lon="11.49306913789798"><ele>169.0</ele><time>2026-04-29T14:47:47Z</time></trkpt><trkpt lat="43.92154732765332" lon="11.492993658324279"><ele>169.0</ele><time>2026-04-29T14:47:48Z</time></trkpt><trkpt lat="43.92171686233226" lon="11.492914361069715"><ele>169.0</ele><time>2026-04-29T14:47:49Z</time></trkpt><trkpt lat="43.92189073413193" lon="11.492831947225794"><ele>170.33333333333334</ele><time>2026-04-29T14:47:50Z</time></trkpt><trkpt lat="43.92206864795939" lon="11.492748323889224"><ele>171.66666666666666</ele><time>2026-04-29T14:47:51Z</time></trkpt><trkpt lat="43.92225181300983" lon="11.492659738035524"><ele>173.0</ele><time>2026-04-29T14:47:52Z</time></trkpt><trkpt lat="43.922434735179685" lon="11.49257491600999"><ele>173.33333333333331</ele><time>2026-04-29T14:47:53Z</time></trkpt><trkpt lat="43.9226185394714" lon="11.492487437532901"><ele>173.66666666666666</ele><time>2026-04-29T14:47:54Z</time></trkpt><trkpt lat="43.922784957205344" lon="11.492403083689059"><ele>174.0</ele><time>2026-04-29T14:47:55Z</time></trkpt><trkpt lat="43.92294556717324" lon="11.492335409969796"><ele>174.0</ele><time>2026-04-29T14:47:56Z</time></trkpt><trkpt lat="43.923104620347885" lon="11.492297828861245"><ele>174.0</ele><time>2026-04-29T14:47:57Z</time></trkpt><trkpt lat="43.92327240914437" lon="11.492268621472409"><ele>174.0</ele><time>2026-04-29T14:47:58Z</time></trkpt><trkpt lat="43.923454064807544" lon="11.492250606262298"><ele>174.0</ele><time>2026-04-29T14:47:59Z</time></trkpt><trkpt lat="43.92363646466509" lon="11.49221800818734"><ele>174.0</ele><time>2026-04-29T14:48:00Z</time></trkpt><trkpt lat="43.92380137028625" lon="11.492213759936819"><ele>174.0</ele><time>2026-04-29T14:48:01Z</time></trkpt><trkpt lat="43.92394822165376" lon="11.49221505376486"><ele>174.0</ele><time>2026-04-29T14:48:02Z</time></trkpt><trkpt lat="43.92408204656539" lon="11.49219979909839"><ele>174.0</ele><time>2026-04-29T14:48:03Z</time></trkpt><trkpt lat="43.92420429133249" lon="11.492160893819662"><ele>174.0</ele><time>2026-04-29T14:48:04Z</time></trkpt><trkpt lat="43.924314952495166" lon="11.49208537326033"><ele>174.0</ele><time>2026-04-29T14:48:05Z</time></trkpt><trkpt lat="43.92440929230529" lon="11.491976300444195"><ele>175.33333333333334</ele><time>2026-04-29T14:48:06Z</time></trkpt><trkpt lat="43.92449386952924" lon="11.491816005497112"><ele>176.66666666666669</ele><time>2026-04-29T14:48:07Z</time></trkpt><trkpt lat="43.92458837243683" lon="11.491611514058405"><ele>178.0</ele><time>2026-04-29T14:48:08Z</time></trkpt><trkpt lat="43.92469092326711" lon="11.491386330572018"><ele>178.33333333333334</ele><time>2026-04-29T14:48:09Z</time></trkpt><trkpt lat="43.92481893949174" lon="11.491167965438404"><ele>178.66666666666666</ele><time>2026-04-29T14:48:10Z</time></trkpt><trkpt lat="43.924941209584354" lon="11.490934756102696"><ele>179.0</ele><time>2026-04-29T14:48:11Z</time></trkpt><trkpt lat="43.925063062757246" lon="11.490710909714906"><ele>179.0</ele><time>2026-04-29T14:48:12Z</time></trkpt><trkpt lat="43.9251700647646" lon="11.490509434438573"><ele>179.0</ele><time>2026-04-29T14:48:13Z</time></trkpt><trkpt lat="43.92527173873988" lon="11.490311411758917"><ele>179.0</ele><time>2026-04-29T14:48:14Z</time></trkpt><trkpt lat="43.925371627786966" lon="11.490124607744725"><ele>180.5</ele><time>2026-04-29T14:48:15Z</time></trkpt><trkpt lat="43.92546657266304" lon="11.489947399340954"><ele>182.0</ele><time>2026-04-29T14:48:16Z</time></trkpt><trkpt lat="43.92555326405649" lon="11.489782894470707"><ele>183.5</ele><time>2026-04-29T14:48:17Z</time></trkpt><trkpt lat="43.925639172885845" lon="11.489634171911616"><ele>185.0</ele><time>2026-04-29T14:48:18Z</time></trkpt><trkpt lat="43.92572281924633" lon="11.489497934481124"><ele>186.0</ele><time>2026-04-29T14:48:19Z</time></trkpt><trkpt lat="43.925784020252316" lon="11.48937756261932"><ele>187.0</ele><time>2026-04-29T14:48:20Z</time></trkpt><trkpt lat="43.92581753244485" lon="11.489253894625657"><ele>188.0</ele><time>2026-04-29T14:48:21Z</time></trkpt><trkpt lat="43.92583183274726" lon="11.489123467062965"><ele>189.0</ele><time>2026-04-29T14:48:22Z</time></trkpt><trkpt lat="43.92582153524281" lon="11.488969962768914"><ele>190.0</ele><time>2026-04-29T14:48:23Z</time></trkpt><trkpt lat="43.925784094623914" lon="11.488797914653391"><ele>189.25</ele><time>2026-04-29T14:48:24Z</time></trkpt><trkpt lat="43.92571759491537" lon="11.488602127408571"><ele>188.5</ele><time>2026-04-29T14:48:25Z</time></trkpt><trkpt lat="43.925668902310754" lon="11.48842090127455"><ele>187.75</ele><time>2026-04-29T14:48:26Z</time></trkpt><trkpt lat="43.925676047747814" lon="11.488244170656698"><ele>187.0</ele><time>2026-04-29T14:48:27Z</time></trkpt><trkpt lat="43.925675312513924" lon="11.488072584688352"><ele>188.0</ele><time>2026-04-29T14:48:28Z</time></trkpt><trkpt lat="43.92571786210828" lon="11.487886293323992"><ele>189.0</ele><time>2026-04-29T14:48:29Z</time></trkpt><trkpt lat="43.92577838022146" lon="11.48767233137496"><ele>190.0</ele><time>2026-04-29T14:48:30Z</time></trkpt><trkpt lat="43.92584402175621" lon="11.487443154095418"><ele>184.0</ele><time>2026-04-29T14:48:31Z</time></trkpt><trkpt lat="43.92590886918485" lon="11.48720710771589"><ele>178.0</ele><time>2026-04-29T14:48:32Z</time></trkpt><trkpt lat="43.92597419036158" lon="11.486950648714489"><ele>172.0</ele><time>2026-04-29T14:48:33Z</time></trkpt><trkpt lat="43.92603581064949" lon="11.486677533645937"><ele>172.0</ele><time>2026-04-29T14:48:34Z</time></trkpt><trkpt lat="43.92609574889105" lon="11.486417401515231"><ele>172.0</ele><time>2026-04-29T14:48:35Z</time></trkpt><trkpt lat="43.92615012615701" lon="11.48617602750341"><ele>172.0</ele><time>2026-04-29T14:48:36Z</time></trkpt><trkpt lat="43.926197922202995" lon="11.485950179343392"><ele>173.66666666666669</ele><time>2026-04-29T14:48:37Z</time></trkpt><trkpt lat="43.92624728251707" lon="11.485738777427699"><ele>175.33333333333334</ele><time>2026-04-29T14:48:38Z</time></trkpt><trkpt lat="43.92628997220668" lon="11.485535136952349"><ele>177.0</ele><time>2026-04-29T14:48:39Z</time></trkpt><trkpt lat="43.9263179635332" lon="11.485303142256267"><ele>178.66666666666666</ele><time>2026-04-29T14:48:40Z</time></trkpt><trkpt lat="43.92632607627674" lon="11.48504957672555"><ele>180.33333333333331</ele><time>2026-04-29T14:48:41Z</time></trkpt><trkpt lat="43.92632462458214" lon="11.48479007629463"><ele>182.0</ele><time>2026-04-29T14:48:42Z</time></trkpt><trkpt lat="43.92635021601022" lon="11.484549421785566"><ele>183.66666666666666</ele><time>2026-04-29T14:48:43Z</time></trkpt><trkpt lat="43.92640962801966" lon="11.484299321230807"><ele>185.33333333333334</ele><time>2026-04-29T14:48:44Z</time></trkpt><trkpt lat="43.92649960674684" lon="11.484050247075722"><ele>187.0</ele><time>2026-04-29T14:48:45Z</time></trkpt><trkpt lat="43.926590735592704" lon="11.48380108797827"><ele>189.33333333333334</ele><time>2026-04-29T14:48:46Z</time></trkpt><trkpt lat="43.92667564744163" lon="11.483564658322713"><ele>191.66666666666669</ele><time>2026-04-29T14:48:47Z</time></trkpt><trkpt lat="43.92675662656958" lon="11.483345362183591"><ele>194.0</ele><time>2026-04-29T14:48:48Z</time></trkpt><trkpt lat="43.92682383339036" lon="11.48313901307959"><ele>188.33333333333334</ele><time>2026-04-29T14:48:49Z</time></trkpt><trkpt lat="43.92686884725807" lon="11.482927532710699"><ele>182.66666666666669</ele><time>2026-04-29T14:48:50Z</time></trkpt><trkpt lat="43.92689893564032" lon="11.48271208483837"><ele>177.0</ele><time>2026-04-29T14:48:51Z</time></trkpt><trkpt lat="43.926923496761205" lon="11.482506010418078"><ele>177.0</ele><time>2026-04-29T14:48:52Z</time></trkpt><trkpt lat="43.92695331940386" lon="11.482313990616904"><ele>177.0</ele><time>2026-04-29T14:48:53Z</time></trkpt><trkpt lat="43.92698710470026" lon="11.482129217914371"><ele>177.0</ele><time>2026-04-29T14:48:54Z</time></trkpt><trkpt lat="43.927039077653575" lon="11.481960010443624"><ele>177.0</ele><time>2026-04-29T14:48:55Z</time></trkpt><trkpt lat="43.927113341060796" lon="11.481801442981151"><ele>177.66666666666666</ele><time>2026-04-29T14:48:55.999Z</time></trkpt><trkpt lat="43.92720840807507" lon="11.481623717342023"><ele>178.33333333333331</ele><time>2026-04-29T14:48:56.999Z</time></trkpt><trkpt lat="43.927311796285345" lon="11.48140666486017"><ele>179.0</ele><time>2026-04-29T14:48:57.999Z</time></trkpt><trkpt lat="43.927413769723124" lon="11.48117468444228"><ele>180.33333333333331</ele><time>2026-04-29T14:48:58.999Z</time></trkpt><trkpt lat="43.927525110369324" lon="11.480935444540624"><ele>181.66666666666666</ele><time>2026-04-29T14:48:59.999Z</time></trkpt><trkpt lat="43.927639413232804" lon="11.480693642787404"><ele>183.0</ele><time>2026-04-29T14:49:00.999Z</time></trkpt><trkpt lat="43.92774537490571" lon="11.480452303236685"><ele>181.0</ele><time>2026-04-29T14:49:01.999Z</time></trkpt><trkpt lat="43.927849404469086" lon="11.480223677527354"><ele>179.0</ele><time>2026-04-29T14:49:02.999Z</time></trkpt><trkpt lat="43.92795845603215" lon="11.480010151602936"><ele>177.0</ele><time>2026-04-29T14:49:03.999Z</time></trkpt><trkpt lat="43.9280769861034" lon="11.479815389809973"><ele>177.0</ele><time>2026-04-29T14:49:04.999Z</time></trkpt><trkpt lat="43.92821602381319" lon="11.47961714165048"><ele>177.0</ele><time>2026-04-29T14:49:05.999Z</time></trkpt><trkpt lat="43.92836946002462" lon="11.479420452827208"><ele>177.0</ele><time>2026-04-29T14:49:06.999Z</time></trkpt><trkpt lat="43.92851407839611" lon="11.479238427726306"><ele>176.66666666666666</ele><time>2026-04-29T14:49:07.999Z</time></trkpt><trkpt lat="43.9286522664738" lon="11.47905539786214"><ele>176.33333333333331</ele><time>2026-04-29T14:49:08.999Z</time></trkpt><trkpt lat="43.928780156634126" lon="11.478874623301891"><ele>176.0</ele><time>2026-04-29T14:49:09.999Z</time></trkpt><trkpt lat="43.92890390302164" lon="11.478689572521972"><ele>177.0</ele><time>2026-04-29T14:49:10.999Z</time></trkpt><trkpt lat="43.92901936466044" lon="11.478503416026351"><ele>178.0</ele><time>2026-04-29T14:49:11.999Z</time></trkpt><trkpt lat="43.92911584762877" lon="11.478305745903125"><ele>179.0</ele><time>2026-04-29T14:49:12.999Z</time></trkpt><trkpt lat="43.92920785785703" lon="11.478075174519992"><ele>178.33333333333331</ele><time>2026-04-29T14:49:13.999Z</time></trkpt><trkpt lat="43.92930481457255" lon="11.47782431920379"><ele>177.66666666666666</ele><time>2026-04-29T14:49:14.999Z</time></trkpt><trkpt lat="43.92940897561347" lon="11.477569407727374"><ele>177.0</ele><time>2026-04-29T14:49:15.999Z</time></trkpt><trkpt lat="43.92951338034589" lon="11.477309760183806"><ele>178.0</ele><time>2026-04-29T14:49:16.999Z</time></trkpt><trkpt lat="43.929618945218216" lon="11.477041660560003"><ele>179.0</ele><time>2026-04-29T14:49:17.999Z</time></trkpt><trkpt lat="43.92972394276509" lon="11.476776966936045"><ele>180.0</ele><time>2026-04-29T14:49:18.999Z</time></trkpt><trkpt lat="43.92982836117155" lon="11.476530566441584"><ele>180.0</ele><time>2026-04-29T14:49:19.999Z</time></trkpt><trkpt lat="43.92992898404375" lon="11.476298918624837"><ele>180.0</ele><time>2026-04-29T14:49:20.999Z</time></trkpt><trkpt lat="43.93002240780288" lon="11.476077533520842"><ele>180.0</ele><time>2026-04-29T14:49:21.999Z</time></trkpt><trkpt lat="43.93010785328659" lon="11.475869012422596"><ele>179.75</ele><time>2026-04-29T14:49:22.999Z</time></trkpt><trkpt lat="43.9301887611992" lon="11.475677044346636"><ele>179.5</ele><time>2026-04-29T14:49:24Z</time></trkpt><trkpt lat="43.930259445667375" lon="11.47549574462"><ele>179.25</ele><time>2026-04-29T14:49:25Z</time></trkpt><trkpt lat="43.930324986415414" lon="11.475333339135762"><ele>179.0</ele><time>2026-04-29T14:49:26Z</time></trkpt><trkpt lat="43.930385587028525" lon="11.475174154660712"><ele>179.0</ele><time>2026-04-29T14:49:27Z</time></trkpt><trkpt lat="43.93044040740152" lon="11.47501786265231"><ele>179.0</ele><time>2026-04-29T14:49:28Z</time></trkpt><trkpt lat="43.93048196743329" lon="11.474865586564736"><ele>179.0</ele><time>2026-04-29T14:49:29Z</time></trkpt><trkpt lat="43.93050725155016" lon="11.474701809911727"><ele>179.0</ele><time>2026-04-29T14:49:30Z</time></trkpt><trkpt lat="43.93050027153439" lon="11.474511714613858"><ele>178.66666666666666</ele><time>2026-04-29T14:49:31Z</time></trkpt><trkpt lat="43.93047668071983" lon="11.474287880179464"><ele>178.33333333333334</ele><time>2026-04-29T14:49:32Z</time></trkpt><trkpt lat="43.93043977950575" lon="11.474060319997367"><ele>178.0</ele><time>2026-04-29T14:49:33Z</time></trkpt><trkpt lat="43.93038123606208" lon="11.473813734017767"><ele>176.66666666666669</ele><time>2026-04-29T14:49:34Z</time></trkpt><trkpt lat="43.930309185715586" lon="11.473561269272642"><ele>175.33333333333334</ele><time>2026-04-29T14:49:35Z</time></trkpt><trkpt lat="43.930234529090754" lon="11.473300828252063"><ele>174.0</ele><time>2026-04-29T14:49:36Z</time></trkpt><trkpt lat="43.93015332643868" lon="11.473047444521885"><ele>173.66666666666666</ele><time>2026-04-29T14:49:37Z</time></trkpt><trkpt lat="43.9300769278547" lon="11.472815481707583"><ele>173.33333333333331</ele><time>2026-04-29T14:49:38Z</time></trkpt><trkpt lat="43.93000406695558" lon="11.472596133633239"><ele>173.0</ele><time>2026-04-29T14:49:39Z</time></trkpt><trkpt lat="43.929934593657805" lon="11.472377349180949"><ele>175.66666666666666</ele><time>2026-04-29T14:49:40Z</time></trkpt><trkpt lat="43.92987931184202" lon="11.47215984930844"><ele>178.33333333333334</ele><time>2026-04-29T14:49:41Z</time></trkpt><trkpt lat="43.92984229287464" lon="11.471942861430556"><ele>181.0</ele><time>2026-04-29T14:49:42Z</time></trkpt><trkpt lat="43.92980557135971" lon="11.471730636376588"><ele>181.0</ele><time>2026-04-29T14:49:43Z</time></trkpt><trkpt lat="43.92977342851727" lon="11.471524885603625"><ele>181.0</ele><time>2026-04-29T14:49:44Z</time></trkpt><trkpt lat="43.929749322322955" lon="11.471322238760667"><ele>181.0</ele><time>2026-04-29T14:49:45Z</time></trkpt><trkpt lat="43.92972494784053" lon="11.471109296917318"><ele>179.25</ele><time>2026-04-29T14:49:46Z</time></trkpt><trkpt lat="43.92971129126768" lon="11.47089256182522"><ele>177.5</ele><time>2026-04-29T14:49:47Z</time></trkpt><trkpt lat="43.929706343938044" lon="11.470688760823938"><ele>175.75</ele><time>2026-04-29T14:49:48Z</time></trkpt><trkpt lat="43.92968284493293" lon="11.470495425295155"><ele>174.0</ele><time>2026-04-29T14:49:49Z</time></trkpt><trkpt lat="43.92963326754245" lon="11.470305092326871"><ele>172.75</ele><time>2026-04-29T14:49:50Z</time></trkpt><trkpt lat="43.92957076629956" lon="11.470138413360127"><ele>171.5</ele><time>2026-04-29T14:49:51Z</time></trkpt><trkpt lat="43.929517637300506" lon="11.469979040992051"><ele>170.25</ele><time>2026-04-29T14:49:52Z</time></trkpt><trkpt lat="43.92945122945026" lon="11.469811556023409"><ele>169.0</ele><time>2026-04-29T14:49:53Z</time></trkpt><trkpt lat="43.929377465108026" lon="11.469642201534443"><ele>169.5</ele><time>2026-04-29T14:49:54Z</time></trkpt><trkpt lat="43.929307797444494" lon="11.469490406871909"><ele>170.0</ele><time>2026-04-29T14:49:55Z</time></trkpt><trkpt lat="43.92924083515841" lon="11.469345542721541"><ele>170.5</ele><time>2026-04-29T14:49:56Z</time></trkpt><trkpt lat="43.92917596792292" lon="11.469203276498666"><ele>171.0</ele><time>2026-04-29T14:49:57Z</time></trkpt><trkpt lat="43.92912073224717" lon="11.46906924185749"><ele>171.16666666666666</ele><time>2026-04-29T14:49:58Z</time></trkpt><trkpt lat="43.92906036698505" lon="11.468942464700957"><ele>171.33333333333334</ele><time>2026-04-29T14:49:59Z</time></trkpt><trkpt lat="43.92900591637985" lon="11.46883096600995"><ele>171.5</ele><time>2026-04-29T14:50:00Z</time></trkpt><trkpt lat="43.9289574754763" lon="11.468729290018853"><ele>171.66666666666669</ele><time>2026-04-29T14:50:01Z</time></trkpt><trkpt lat="43.92891792701249" lon="11.468641783345818"><ele>171.83333333333334</ele><time>2026-04-29T14:50:02Z</time></trkpt><trkpt lat="43.928885945038516" lon="11.468559039825855"><ele>172.0</ele><time>2026-04-29T14:50:03Z</time></trkpt><trkpt lat="43.92882135773327" lon="11.468418658961937"><ele>172.0</ele><time>2026-04-29T14:50:05Z</time></trkpt><trkpt lat="43.92875817278875" lon="11.468283198243629"><ele>172.0</ele><time>2026-04-29T14:50:07Z</time></trkpt><trkpt lat="43.928716082052794" lon="11.468188123111851"><ele>172.0</ele><time>2026-04-29T14:50:09Z</time></trkpt><trkpt lat="43.92867313758016" lon="11.468101561019377"><ele>172.0</ele><time>2026-04-29T14:50:12Z</time></trkpt><trkpt lat="43.928578490868766" lon="11.467991534589526"><ele>172.0</ele><time>2026-04-29T14:52:22Z</time></trkpt><trkpt lat="43.92853136031593" lon="11.46791144736304"><ele>172.2</ele><time>2026-04-29T14:52:23Z</time></trkpt><trkpt lat="43.92843580612406" lon="11.467803658428961"><ele>172.39999999999998</ele><time>2026-04-29T14:52:25Z</time></trkpt><trkpt lat="43.92836675285341" lon="11.467717236422104"><ele>172.60000000000002</ele><time>2026-04-29T14:52:26Z</time></trkpt><trkpt lat="43.928290701514946" lon="11.467630723638827"><ele>172.8</ele><time>2026-04-29T14:52:27Z</time></trkpt><trkpt lat="43.928203850539724" lon="11.46753576315711"><ele>173.0</ele><time>2026-04-29T14:52:28Z</time></trkpt><trkpt lat="43.92810474571017" lon="11.46742265292235"><ele>173.0</ele><time>2026-04-29T14:52:29Z</time></trkpt><trkpt lat="43.92799780221083" lon="11.467303732743993"><ele>173.0</ele><time>2026-04-29T14:52:30Z</time></trkpt><trkpt lat="43.92789504809082" lon="11.46718476665921"><ele>173.0</ele><time>2026-04-29T14:52:31Z</time></trkpt><trkpt lat="43.92779807582554" lon="11.467060254254555"><ele>173.0</ele><time>2026-04-29T14:52:32Z</time></trkpt><trkpt lat="43.92771073420029" lon="11.466910570951088"><ele>173.0</ele><time>2026-04-29T14:52:33Z</time></trkpt><trkpt lat="43.927631971636046" lon="11.466731363948393"><ele>173.0</ele><time>2026-04-29T14:52:34Z</time></trkpt><trkpt lat="43.92756411760762" lon="11.46652173904622"><ele>173.0</ele><time>2026-04-29T14:52:35Z</time></trkpt><trkpt lat="43.927505150953046" lon="11.466287961374011"><ele>173.66666666666666</ele><time>2026-04-29T14:52:36Z</time></trkpt><trkpt lat="43.92744783998061" lon="11.466039734234567"><ele>174.33333333333334</ele><time>2026-04-29T14:52:37Z</time></trkpt><trkpt lat="43.92738965438213" lon="11.465796115972257"><ele>175.0</ele><time>2026-04-29T14:52:38Z</time></trkpt><trkpt lat="43.92734222774311" lon="11.465555570924701"><ele>175.0</ele><time>2026-04-29T14:52:39Z</time></trkpt><trkpt lat="43.92730107055815" lon="11.465315229637936"><ele>175.0</ele><time>2026-04-29T14:52:40Z</time></trkpt><trkpt lat="43.92727459986242" lon="11.465078887118294"><ele>175.0</ele><time>2026-04-29T14:52:41Z</time></trkpt><trkpt lat="43.927265665643766" lon="11.464819699231604"><ele>175.0</ele><time>2026-04-29T14:52:42Z</time></trkpt><trkpt lat="43.9272779830233" lon="11.464554560463062"><ele>175.0</ele><time>2026-04-29T14:52:43Z</time></trkpt><trkpt lat="43.92732161388978" lon="11.464273715444502"><ele>175.0</ele><time>2026-04-29T14:52:44Z</time></trkpt><trkpt lat="43.92736017312893" lon="11.463958691063677"><ele>175.5</ele><time>2026-04-29T14:52:45Z</time></trkpt><trkpt lat="43.927394472042415" lon="11.463613703421963"><ele>176.0</ele><time>2026-04-29T14:52:46Z</time></trkpt><trkpt lat="43.92744389397903" lon="11.463270273293361"><ele>177.0</ele><time>2026-04-29T14:52:47Z</time></trkpt><trkpt lat="43.92748390311463" lon="11.462917088615132"><ele>178.0</ele><time>2026-04-29T14:52:48Z</time></trkpt><trkpt lat="43.9275311371596" lon="11.462560885568326"><ele>175.0</ele><time>2026-04-29T14:52:49Z</time></trkpt><trkpt lat="43.92758575843294" lon="11.462222661887909"><ele>172.0</ele><time>2026-04-29T14:52:50Z</time></trkpt><trkpt lat="43.927652908985756" lon="11.461887570314532"><ele>172.0</ele><time>2026-04-29T14:52:51Z</time></trkpt><trkpt lat="43.92773437878014" lon="11.461550917748168"><ele>172.0</ele><time>2026-04-29T14:52:52Z</time></trkpt><trkpt lat="43.92782349073433" lon="11.461211194296288"><ele>172.5</ele><time>2026-04-29T14:52:53Z</time></trkpt><trkpt lat="43.92791465317625" lon="11.46088057499586"><ele>173.0</ele><time>2026-04-29T14:52:54Z</time></trkpt><trkpt lat="43.92799994376355" lon="11.460560273324342"><ele>173.66666666666666</ele><time>2026-04-29T14:52:55Z</time></trkpt><trkpt lat="43.928076306486254" lon="11.460264478944413"><ele>174.33333333333334</ele><time>2026-04-29T14:52:56Z</time></trkpt><trkpt lat="43.92813122645571" lon="11.459980681957894"><ele>175.0</ele><time>2026-04-29T14:52:57Z</time></trkpt><trkpt lat="43.92815567567832" lon="11.45969238931627"><ele>175.66666666666669</ele><time>2026-04-29T14:52:58Z</time></trkpt><trkpt lat="43.928154448658766" lon="11.459404724304207"><ele>176.33333333333334</ele><time>2026-04-29T14:52:58.999Z</time></trkpt><trkpt lat="43.92811311846759" lon="11.45912056972956"><ele>177.0</ele><time>2026-04-29T14:52:59.999Z</time></trkpt><trkpt lat="43.92804790800917" lon="11.458849342043264"><ele>176.0</ele><time>2026-04-29T14:53:00.999Z</time></trkpt><trkpt lat="43.927944260813995" lon="11.458593377363517"><ele>175.0</ele><time>2026-04-29T14:53:01.999Z</time></trkpt><trkpt lat="43.92780472765821" lon="11.45837089533511"><ele>174.0</ele><time>2026-04-29T14:53:02.999Z</time></trkpt><trkpt lat="43.927624062519875" lon="11.458172764145676"><ele>174.5</ele><time>2026-04-29T14:53:03.999Z</time></trkpt><trkpt lat="43.927416896382766" lon="11.45797505309227"><ele>175.0</ele><time>2026-04-29T14:53:04.999Z</time></trkpt><trkpt lat="43.927200125750296" lon="11.457769101783132"><ele>175.0</ele><time>2026-04-29T14:53:05.999Z</time></trkpt><trkpt lat="43.92697843976689" lon="11.45756428734502"><ele>175.0</ele><time>2026-04-29T14:53:06.999Z</time></trkpt><trkpt lat="43.926756151555665" lon="11.457358955181471"><ele>176.0</ele><time>2026-04-29T14:53:07.999Z</time></trkpt><trkpt lat="43.92654481683238" lon="11.457159148815098"><ele>177.0</ele><time>2026-04-29T14:53:08.999Z</time></trkpt><trkpt lat="43.92634600784958" lon="11.456977759210385"><ele>177.0</ele><time>2026-04-29T14:53:09.999Z</time></trkpt><trkpt lat="43.92615459054958" lon="11.45680033052371"><ele>177.0</ele><time>2026-04-29T14:53:10.999Z</time></trkpt><trkpt lat="43.92597438147652" lon="11.456621538487124"><ele>176.5</ele><time>2026-04-29T14:53:11.999Z</time></trkpt><trkpt lat="43.925800496259285" lon="11.45642328281775"><ele>176.0</ele><time>2026-04-29T14:53:12.999Z</time></trkpt><trkpt lat="43.925637282987616" lon="11.456183438640481"><ele>176.0</ele><time>2026-04-29T14:53:13.999Z</time></trkpt><trkpt lat="43.92551406818464" lon="11.455899267631333"><ele>176.0</ele><time>2026-04-29T14:53:14.999Z</time></trkpt><trkpt lat="43.925413883053125" lon="11.455618324605995"><ele>175.5</ele><time>2026-04-29T14:53:15.999Z</time></trkpt><trkpt lat="43.92533967401199" lon="11.455318279630845"><ele>175.0</ele><time>2026-04-29T14:53:16.999Z</time></trkpt><trkpt lat="43.92526443553717" lon="11.4549890385038"><ele>175.0</ele><time>2026-04-29T14:53:17.999Z</time></trkpt><trkpt lat="43.925206678144995" lon="11.454650681965932"><ele>175.0</ele><time>2026-04-29T14:53:18.999Z</time></trkpt><trkpt lat="43.925149465128044" lon="11.45431450454865"><ele>174.0</ele><time>2026-04-29T14:53:19.999Z</time></trkpt><trkpt lat="43.92509614393126" lon="11.453973386839857"><ele>173.0</ele><time>2026-04-29T14:53:20.999Z</time></trkpt><trkpt lat="43.92505669953606" lon="11.453622431945927"><ele>175.0</ele><time>2026-04-29T14:53:21.999Z</time></trkpt><trkpt lat="43.92504408039473" lon="11.453267642536812"><ele>177.0</ele><time>2026-04-29T14:53:22.999Z</time></trkpt><trkpt lat="43.925037726680415" lon="11.45292554992212"><ele>177.0</ele><time>2026-04-29T14:53:23.999Z</time></trkpt><trkpt lat="43.925030196331754" lon="11.452568516931771"><ele>177.0</ele><time>2026-04-29T14:53:24.999Z</time></trkpt><trkpt lat="43.92503048237732" lon="11.452199812482506"><ele>176.5</ele><time>2026-04-29T14:53:25.999Z</time></trkpt><trkpt lat="43.925048935970636" lon="11.451844499932777"><ele>176.0</ele><time>2026-04-29T14:53:26.999Z</time></trkpt><trkpt lat="43.92508506435085" lon="11.45149816287903"><ele>175.0</ele><time>2026-04-29T14:53:27.999Z</time></trkpt><trkpt lat="43.925125210802456" lon="11.451145893114974"><ele>174.0</ele><time>2026-04-29T14:53:28.999Z</time></trkpt><trkpt lat="43.92517230598132" lon="11.450782077870684"><ele>174.5</ele><time>2026-04-29T14:53:29.999Z</time></trkpt><trkpt lat="43.92523742984532" lon="11.450418227290147"><ele>175.0</ele><time>2026-04-29T14:53:30.999Z</time></trkpt><trkpt lat="43.925318941659064" lon="11.450053259026099"><ele>175.0</ele><time>2026-04-29T14:53:31.999Z</time></trkpt><trkpt lat="43.92540613906645" lon="11.449687183220746"><ele>175.0</ele><time>2026-04-29T14:53:32.999Z</time></trkpt><trkpt lat="43.92549395368925" lon="11.449318306959727"><ele>176.0</ele><time>2026-04-29T14:53:33.999Z</time></trkpt><trkpt lat="43.92558273005898" lon="11.448939292099412"><ele>177.0</ele><time>2026-04-29T14:53:34.999Z</time></trkpt><trkpt lat="43.925664862721604" lon="11.4485648968117"><ele>179.0</ele><time>2026-04-29T14:53:35.999Z</time></trkpt><trkpt lat="43.92574886734241" lon="11.448196831972966"><ele>181.0</ele><time>2026-04-29T14:53:36.999Z</time></trkpt><trkpt lat="43.9258309310991" lon="11.447851543969039"><ele>180.5</ele><time>2026-04-29T14:53:37.999Z</time></trkpt><trkpt lat="43.925910703100094" lon="11.44751092762026"><ele>180.0</ele><time>2026-04-29T14:53:38.999Z</time></trkpt><trkpt lat="43.925988020786455" lon="11.447173131706624"><ele>179.5</ele><time>2026-04-29T14:53:39.999Z</time></trkpt><trkpt lat="43.926058366416456" lon="11.446851295978968"><ele>179.0</ele><time>2026-04-29T14:53:40.999Z</time></trkpt><trkpt lat="43.92613087905562" lon="11.446516214882683"><ele>179.0</ele><time>2026-04-29T14:53:41.999Z</time></trkpt><trkpt lat="43.92620739570551" lon="11.446169102672311"><ele>179.0</ele><time>2026-04-29T14:53:42.999Z</time></trkpt><trkpt lat="43.926292871894844" lon="11.445813940690064"><ele>178.5</ele><time>2026-04-29T14:53:43.999Z</time></trkpt><trkpt lat="43.926392231531345" lon="11.445455858582488"><ele>178.0</ele><time>2026-04-29T14:53:44.999Z</time></trkpt><trkpt lat="43.92650914632029" lon="11.44509665682591"><ele>178.0</ele><time>2026-04-29T14:53:45.999Z</time></trkpt><trkpt lat="43.92663340911262" lon="11.444735682407691"><ele>178.0</ele><time>2026-04-29T14:53:46.999Z</time></trkpt><trkpt lat="43.92675900786687" lon="11.444397355152475"><ele>178.0</ele><time>2026-04-29T14:53:47.999Z</time></trkpt><trkpt lat="43.926885710319375" lon="11.44408778717988"><ele>178.0</ele><time>2026-04-29T14:53:48.999Z</time></trkpt><trkpt lat="43.92701941086926" lon="11.443782499937274"><ele>178.5</ele><time>2026-04-29T14:53:49.999Z</time></trkpt><trkpt lat="43.9271637629294" lon="11.443475570893227"><ele>179.0</ele><time>2026-04-29T14:53:50.999Z</time></trkpt><trkpt lat="43.92731644972178" lon="11.443177743177316"><ele>179.0</ele><time>2026-04-29T14:53:51.999Z</time></trkpt><trkpt lat="43.92748251422168" lon="11.442890447480531"><ele>179.0</ele><time>2026-04-29T14:53:52.999Z</time></trkpt><trkpt lat="43.92765887522394" lon="11.442588187563047"><ele>178.0</ele><time>2026-04-29T14:53:53.999Z</time></trkpt><trkpt lat="43.92783707912765" lon="11.442284212286804"><ele>177.0</ele><time>2026-04-29T14:53:54.999Z</time></trkpt><trkpt lat="43.92802087741218" lon="11.441975658523933"><ele>176.5</ele><time>2026-04-29T14:53:55.999Z</time></trkpt><trkpt lat="43.928202897610255" lon="11.441662687012723"><ele>176.0</ele><time>2026-04-29T14:53:56.999Z</time></trkpt><trkpt lat="43.92838678243217" lon="11.44134521926559"><ele>175.5</ele><time>2026-04-29T14:53:57.999Z</time></trkpt><trkpt lat="43.928575208765736" lon="11.441031936403105"><ele>175.0</ele><time>2026-04-29T14:53:58.999Z</time></trkpt><trkpt lat="43.928764491169055" lon="11.440716691151358"><ele>175.5</ele><time>2026-04-29T14:53:59.999Z</time></trkpt><trkpt lat="43.92894779231585" lon="11.440407926013007"><ele>176.0</ele><time>2026-04-29T14:54:00.999Z</time></trkpt><trkpt lat="43.92912372624473" lon="11.440110224773749"><ele>176.0</ele><time>2026-04-29T14:54:01.999Z</time></trkpt><trkpt lat="43.92929802082107" lon="11.439817119262937"><ele>176.0</ele><time>2026-04-29T14:54:02.999Z</time></trkpt><trkpt lat="43.92947160274173" lon="11.439520384058303"><ele>178.0</ele><time>2026-04-29T14:54:03.999Z</time></trkpt><trkpt lat="43.929642749182136" lon="11.439224107538273"><ele>180.0</ele><time>2026-04-29T14:54:04.999Z</time></trkpt><trkpt lat="43.92980866484513" lon="11.438931069840892"><ele>179.5</ele><time>2026-04-29T14:54:05.999Z</time></trkpt><trkpt lat="43.92997334229851" lon="11.438628885923668"><ele>179.0</ele><time>2026-04-29T14:54:06.999Z</time></trkpt><trkpt lat="43.930126193976264" lon="11.438316079362863"><ele>179.0</ele><time>2026-04-29T14:54:07.999Z</time></trkpt><trkpt lat="43.930268840440206" lon="11.437996302412834"><ele>179.0</ele><time>2026-04-29T14:54:08.999Z</time></trkpt><trkpt lat="43.93040165091785" lon="11.437690689157918"><ele>180.0</ele><time>2026-04-29T14:54:09.999Z</time></trkpt><trkpt lat="43.93053732957569" lon="11.437391666670566"><ele>181.0</ele><time>2026-04-29T14:54:10.999Z</time></trkpt><trkpt lat="43.930675171030224" lon="11.437082997337086"><ele>180.5</ele><time>2026-04-29T14:54:11.999Z</time></trkpt><trkpt lat="43.930806123323336" lon="11.436779096673423"><ele>180.0</ele><time>2026-04-29T14:54:12.999Z</time></trkpt><trkpt lat="43.9309106177838" lon="11.436490860163033"><ele>180.0</ele><time>2026-04-29T14:54:13.999Z</time></trkpt><trkpt lat="43.93098970775363" lon="11.436184073860083"><ele>180.0</ele><time>2026-04-29T14:54:14.999Z</time></trkpt><trkpt lat="43.93103914573171" lon="11.435864604106156"><ele>180.0</ele><time>2026-04-29T14:54:15.999Z</time></trkpt><trkpt lat="43.93105765244396" lon="11.435520445467048"><ele>180.0</ele><time>2026-04-29T14:54:16.999Z</time></trkpt><trkpt lat="43.9310542001655" lon="11.435146666909182"><ele>179.5</ele><time>2026-04-29T14:54:17.999Z</time></trkpt><trkpt lat="43.93103072618383" lon="11.434762277617107"><ele>179.0</ele><time>2026-04-29T14:54:18.999Z</time></trkpt><trkpt lat="43.93101929563491" lon="11.434402356589883"><ele>178.5</ele><time>2026-04-29T14:54:19.999Z</time></trkpt><trkpt lat="43.9310330959705" lon="11.43406303049386"><ele>178.0</ele><time>2026-04-29T14:54:20.999Z</time></trkpt><trkpt lat="43.93107549569076" lon="11.43371518950314"><ele>178.0</ele><time>2026-04-29T14:54:21.999Z</time></trkpt><trkpt lat="43.93114565017097" lon="11.433390632546127"><ele>178.0</ele><time>2026-04-29T14:54:22.999Z</time></trkpt><trkpt lat="43.931249021946606" lon="11.433075864759529"><ele>178.5</ele><time>2026-04-29T14:54:23.999Z</time></trkpt><trkpt lat="43.93137610414306" lon="11.43275179789223"><ele>179.0</ele><time>2026-04-29T14:54:24.999Z</time></trkpt><trkpt lat="43.93151252010844" lon="11.43242323914601"><ele>180.0</ele><time>2026-04-29T14:54:25.999Z</time></trkpt><trkpt lat="43.931650604522986" lon="11.432082623064542"><ele>181.0</ele><time>2026-04-29T14:54:26.999Z</time></trkpt><trkpt lat="43.93178902485401" lon="11.431731078301613"><ele>179.5</ele><time>2026-04-29T14:54:27.999Z</time></trkpt><trkpt lat="43.9319230471013" lon="11.43137856894654"><ele>178.0</ele><time>2026-04-29T14:54:28.999Z</time></trkpt><trkpt lat="43.93205840139806" lon="11.43102178696106"><ele>178.0</ele><time>2026-04-29T14:54:29.999Z</time></trkpt><trkpt lat="43.93219305495114" lon="11.430666425771632"><ele>178.0</ele><time>2026-04-29T14:54:30.999Z</time></trkpt><trkpt lat="43.93232905225955" lon="11.430320334345248"><ele>178.0</ele><time>2026-04-29T14:54:31.999Z</time></trkpt><trkpt lat="43.93245937410338" lon="11.429990267007165"><ele>178.0</ele><time>2026-04-29T14:54:32.999Z</time></trkpt><trkpt lat="43.9325842538259" lon="11.429662221377875"><ele>177.5</ele><time>2026-04-29T14:54:33.999Z</time></trkpt><trkpt lat="43.93271141831305" lon="11.429327469156824"><ele>177.0</ele><time>2026-04-29T14:54:34.999Z</time></trkpt><trkpt lat="43.93283919607536" lon="11.428983557316446"><ele>178.0</ele><time>2026-04-29T14:54:35.999Z</time></trkpt><trkpt lat="43.93296528654008" lon="11.428623522548726"><ele>179.0</ele><time>2026-04-29T14:54:36.999Z</time></trkpt><trkpt lat="43.933087975228666" lon="11.428259055340558"><ele>179.5</ele><time>2026-04-29T14:54:37.999Z</time></trkpt><trkpt lat="43.9332045974908" lon="11.42791268196285"><ele>180.0</ele><time>2026-04-29T14:54:38.999Z</time></trkpt><trkpt lat="43.93331418338449" lon="11.427584443464147"><ele>179.0</ele><time>2026-04-29T14:54:39.999Z</time></trkpt><trkpt lat="43.933422351184106" lon="11.427276138264817"><ele>178.0</ele><time>2026-04-29T14:54:40.999Z</time></trkpt><trkpt lat="43.93352546539169" lon="11.426982018871351"><ele>178.0</ele><time>2026-04-29T14:54:41.999Z</time></trkpt><trkpt lat="43.93362110077648" lon="11.426690950201957"><ele>178.0</ele><time>2026-04-29T14:54:42.999Z</time></trkpt><trkpt lat="43.933691962350416" lon="11.426394419619154"><ele>178.5</ele><time>2026-04-29T14:54:43.999Z</time></trkpt><trkpt lat="43.933737400546754" lon="11.42607818235055"><ele>179.0</ele><time>2026-04-29T14:54:44.999Z</time></trkpt><trkpt lat="43.93375151919533" lon="11.425749075338146"><ele>179.5</ele><time>2026-04-29T14:54:45.999Z</time></trkpt><trkpt lat="43.93373063208258" lon="11.42541414024095"><ele>180.0</ele><time>2026-04-29T14:54:46.999Z</time></trkpt><trkpt lat="43.9336786962763" lon="11.42507839713799"><ele>180.0</ele><time>2026-04-29T14:54:47.999Z</time></trkpt><trkpt lat="43.93359809516537" lon="11.424751735412723"><ele>180.0</ele><time>2026-04-29T14:54:48.999Z</time></trkpt><trkpt lat="43.933512274431436" lon="11.424453391124448"><ele>180.0</ele><time>2026-04-29T14:54:49.999Z</time></trkpt><trkpt lat="43.93343676523967" lon="11.42417103866859"><ele>180.0</ele><time>2026-04-29T14:54:50.999Z</time></trkpt><trkpt lat="43.9333656203896" lon="11.423877553744704"><ele>180.0</ele><time>2026-04-29T14:54:51.999Z</time></trkpt><trkpt lat="43.933294853939856" lon="11.423575041906705"><ele>180.33333333333334</ele><time>2026-04-29T14:54:52.999Z</time></trkpt><trkpt lat="43.93324292055221" lon="11.423287118364046"><ele>180.66666666666669</ele><time>2026-04-29T14:54:53.999Z</time></trkpt><trkpt lat="43.933192379852024" lon="11.423014317448136"><ele>181.0</ele><time>2026-04-29T14:54:54.999Z</time></trkpt><trkpt lat="43.93313692319905" lon="11.422757858293817"><ele>181.33333333333334</ele><time>2026-04-29T14:54:55.999Z</time></trkpt><trkpt lat="43.93308425726715" lon="11.422511733587744"><ele>181.66666666666666</ele><time>2026-04-29T14:54:56.999Z</time></trkpt><trkpt lat="43.9330348249125" lon="11.42227801940065"><ele>182.0</ele><time>2026-04-29T14:54:57.999Z</time></trkpt><trkpt lat="43.93299571568099" lon="11.42205261045699"><ele>182.0</ele><time>2026-04-29T14:54:58.999Z</time></trkpt><trkpt lat="43.93296970259555" lon="11.421842173506063"><ele>182.0</ele><time>2026-04-29T14:54:59.999Z</time></trkpt><trkpt lat="43.932959599524615" lon="11.421659173453449"><ele>182.0</ele><time>2026-04-29T14:55:00.999Z</time></trkpt><trkpt lat="43.932958517004636" lon="11.42150272202131"><ele>182.0</ele><time>2026-04-29T14:55:01.999Z</time></trkpt><trkpt lat="43.93296752191306" lon="11.42136587721961"><ele>181.8</ele><time>2026-04-29T14:55:02.999Z</time></trkpt><trkpt lat="43.93297684101403" lon="11.421229719733224"><ele>181.6</ele><time>2026-04-29T14:55:03.999Z</time></trkpt><trkpt lat="43.93299015566181" lon="11.421093688937502"><ele>181.4</ele><time>2026-04-29T14:55:04.999Z</time></trkpt><trkpt lat="43.93300523868359" lon="11.420945568508513"><ele>181.20000000000002</ele><time>2026-04-29T14:55:05.999Z</time></trkpt><trkpt lat="43.933028290764675" lon="11.420790055216088"><ele>181.0</ele><time>2026-04-29T14:55:06.999Z</time></trkpt><trkpt lat="43.93304989861701" lon="11.420629799829797"><ele>180.75</ele><time>2026-04-29T14:55:07.999Z</time></trkpt><trkpt lat="43.93307071621315" lon="11.420459259761387"><ele>180.5</ele><time>2026-04-29T14:55:08.999Z</time></trkpt><trkpt lat="43.93309064407556" lon="11.420275265777539"><ele>180.25</ele><time>2026-04-29T14:55:09.999Z</time></trkpt><trkpt lat="43.93310643384732" lon="11.420077402840615"><ele>180.0</ele><time>2026-04-29T14:55:10.999Z</time></trkpt><trkpt lat="43.9331241788924" lon="11.419874121592759"><ele>180.0</ele><time>2026-04-29T14:55:11.999Z</time></trkpt><trkpt lat="43.93313964888493" lon="11.419659403989616"><ele>180.0</ele><time>2026-04-29T14:55:12.999Z</time></trkpt><trkpt lat="43.93315020145132" lon="11.419441786495648"><ele>180.0</ele><time>2026-04-29T14:55:13.999Z</time></trkpt><trkpt lat="43.93315262164243" lon="11.419237201082762"><ele>180.0</ele><time>2026-04-29T14:55:14.999Z</time></trkpt><trkpt lat="43.93314989873578" lon="11.419046594902271"><ele>180.0</ele><time>2026-04-29T14:55:15.999Z</time></trkpt><trkpt lat="43.9331532341616" lon="11.418845091160172"><ele>180.0</ele><time>2026-04-29T14:55:16.999Z</time></trkpt><trkpt lat="43.93314948612691" lon="11.418613985709463"><ele>180.0</ele><time>2026-04-29T14:55:17.999Z</time></trkpt><trkpt lat="43.93314368877584" lon="11.418368712061099"><ele>180.0</ele><time>2026-04-29T14:55:18.999Z</time></trkpt><trkpt lat="43.93313746869666" lon="11.418122955168867"><ele>180.0</ele><time>2026-04-29T14:55:19.999Z</time></trkpt><trkpt lat="43.93313359712458" lon="11.41789270096811"><ele>180.0</ele><time>2026-04-29T14:55:20.999Z</time></trkpt><trkpt lat="43.93312669238255" lon="11.417677721698977"><ele>180.25</ele><time>2026-04-29T14:55:21.999Z</time></trkpt><trkpt lat="43.93311933301436" lon="11.417476092963257"><ele>180.5</ele><time>2026-04-29T14:55:22.999Z</time></trkpt><trkpt lat="43.933114698231094" lon="11.417283192836665"><ele>180.75</ele><time>2026-04-29T14:55:23.999Z</time></trkpt><trkpt lat="43.933111831857985" lon="11.41709699058313"><ele>181.0</ele><time>2026-04-29T14:55:24.999Z</time></trkpt><trkpt lat="43.93310746903859" lon="11.41692425282188"><ele>181.0</ele><time>2026-04-29T14:55:25.999Z</time></trkpt><trkpt lat="43.93310306025" lon="11.416756379551867"><ele>181.0</ele><time>2026-04-29T14:55:26.999Z</time></trkpt><trkpt lat="43.93309855738904" lon="11.416608482126744"><ele>181.0</ele><time>2026-04-29T14:55:27.999Z</time></trkpt><trkpt lat="43.933090963724126" lon="11.416461756296398"><ele>181.0</ele><time>2026-04-29T14:55:28.999Z</time></trkpt><trkpt lat="43.93308695833872" lon="11.41632459615034"><ele>181.0</ele><time>2026-04-29T14:55:29.999Z</time></trkpt><trkpt lat="43.933086733277186" lon="11.416185051833429"><ele>181.0</ele><time>2026-04-29T14:55:30.999Z</time></trkpt><trkpt lat="43.93307925069435" lon="11.416027783359631"><ele>181.0</ele><time>2026-04-29T14:55:31.999Z</time></trkpt><trkpt lat="43.933066507516905" lon="11.415848095762952"><ele>181.0</ele><time>2026-04-29T14:55:32.999Z</time></trkpt><trkpt lat="43.933054679596445" lon="11.415648200810178"><ele>181.0</ele><time>2026-04-29T14:55:33.999Z</time></trkpt><trkpt lat="43.933043086943826" lon="11.415418574872781"><ele>181.0</ele><time>2026-04-29T14:55:34.999Z</time></trkpt><trkpt lat="43.93302227720732" lon="11.415149706980602"><ele>181.0</ele><time>2026-04-29T14:55:35.999Z</time></trkpt><trkpt lat="43.93299166152068" lon="11.414851107592801"><ele>181.0</ele><time>2026-04-29T14:55:36.999Z</time></trkpt><trkpt lat="43.93295236681668" lon="11.414526426456758"><ele>181.0</ele><time>2026-04-29T14:55:37.999Z</time></trkpt><trkpt lat="43.93290123429087" lon="11.41417759545921"><ele>181.0</ele><time>2026-04-29T14:55:38.999Z</time></trkpt><trkpt lat="43.932843888505666" lon="11.413798570903378"><ele>182.0</ele><time>2026-04-29T14:55:39.999Z</time></trkpt><trkpt lat="43.932811389846314" lon="11.413496421916346"><ele>183.0</ele><time>2026-04-29T14:55:40.999Z</time></trkpt><trkpt lat="43.93276284262058" lon="11.413179680298347"><ele>184.5</ele><time>2026-04-29T14:55:41.998Z</time></trkpt><trkpt lat="43.932721616853165" lon="11.412863985106405"><ele>186.0</ele><time>2026-04-29T14:55:42.998Z</time></trkpt><trkpt lat="43.93268527182176" lon="11.412547045585834"><ele>186.0</ele><time>2026-04-29T14:55:43.998Z</time></trkpt><trkpt lat="43.93266542051644" lon="11.412214648714794"><ele>186.0</ele><time>2026-04-29T14:55:44.998Z</time></trkpt><trkpt lat="43.93269120621907" lon="11.41187411994184"><ele>186.0</ele><time>2026-04-29T14:55:45.998Z</time></trkpt><trkpt lat="43.93274007404965" lon="11.411529416650279"><ele>186.0</ele><time>2026-04-29T14:55:46.998Z</time></trkpt><trkpt lat="43.93279099033062" lon="11.411171591346179"><ele>186.0</ele><time>2026-04-29T14:55:47.998Z</time></trkpt><trkpt lat="43.93286291151704" lon="11.410805984307913"><ele>186.0</ele><time>2026-04-29T14:55:48.998Z</time></trkpt><trkpt lat="43.932934090893376" lon="11.410428600293852"><ele>187.0</ele><time>2026-04-29T14:55:49.998Z</time></trkpt><trkpt lat="43.932989214599424" lon="11.410067879894571"><ele>188.0</ele><time>2026-04-29T14:55:50.998Z</time></trkpt><trkpt lat="43.93304878609314" lon="11.409717355421844"><ele>189.0</ele><time>2026-04-29T14:55:51.998Z</time></trkpt><trkpt lat="43.933124197752086" lon="11.40936862582318"><ele>190.0</ele><time>2026-04-29T14:55:52.998Z</time></trkpt><trkpt lat="43.93320786373804" lon="11.40903099630026"><ele>188.5</ele><time>2026-04-29T14:55:53.998Z</time></trkpt><trkpt lat="43.933327030687934" lon="11.408739393964943"><ele>187.0</ele><time>2026-04-29T14:55:54.998Z</time></trkpt><trkpt lat="43.93344855500158" lon="11.4084354931874"><ele>187.0</ele><time>2026-04-29T14:55:55.999Z</time></trkpt><trkpt lat="43.93360895459106" lon="11.408132914489963"><ele>187.0</ele><time>2026-04-29T14:55:56.999Z</time></trkpt><trkpt lat="43.933776084133534" lon="11.407806125382946"><ele>186.0</ele><time>2026-04-29T14:55:57.999Z</time></trkpt><trkpt lat="43.93395007208327" lon="11.407451878860044"><ele>185.0</ele><time>2026-04-29T14:55:58.999Z</time></trkpt><trkpt lat="43.93412358879082" lon="11.407093517927077"><ele>183.0</ele><time>2026-04-29T14:55:59.999Z</time></trkpt><trkpt lat="43.93430329127982" lon="11.40672742546314"><ele>181.0</ele><time>2026-04-29T14:56:00.999Z</time></trkpt><trkpt lat="43.93449025148202" lon="11.406342982420865"><ele>183.0</ele><time>2026-04-29T14:56:01.999Z</time></trkpt><trkpt lat="43.93468042782364" lon="11.405951221794554"><ele>185.0</ele><time>2026-04-29T14:56:02.999Z</time></trkpt><trkpt lat="43.934874314017456" lon="11.405552216774062"><ele>183.0</ele><time>2026-04-29T14:56:03.999Z</time></trkpt><trkpt lat="43.93507420982402" lon="11.405149794617055"><ele>181.0</ele><time>2026-04-29T14:56:04.999Z</time></trkpt><trkpt lat="43.93526718967583" lon="11.404762964496259"><ele>182.5</ele><time>2026-04-29T14:56:05.999Z</time></trkpt><trkpt lat="43.935442999559385" lon="11.404412486545473"><ele>184.0</ele><time>2026-04-29T14:56:06.999Z</time></trkpt><trkpt lat="43.93562101473824" lon="11.40404372622426"><ele>183.5</ele><time>2026-04-29T14:56:07.999Z</time></trkpt><trkpt lat="43.93580590804407" lon="11.403667860554114"><ele>183.0</ele><time>2026-04-29T14:56:08.999Z</time></trkpt><trkpt lat="43.93598038947958" lon="11.403311302038718"><ele>183.5</ele><time>2026-04-29T14:56:09.999Z</time></trkpt><trkpt lat="43.936147144271594" lon="11.402968865906734"><ele>184.0</ele><time>2026-04-29T14:56:10.999Z</time></trkpt><trkpt lat="43.93630337456804" lon="11.402630294370773"><ele>184.0</ele><time>2026-04-29T14:56:11.999Z</time></trkpt><trkpt lat="43.936451227892746" lon="11.40227386508469"><ele>184.0</ele><time>2026-04-29T14:56:12.999Z</time></trkpt><trkpt lat="43.936584527747264" lon="11.401891536257859"><ele>185.0</ele><time>2026-04-29T14:56:13.999Z</time></trkpt><trkpt lat="43.936700884463505" lon="11.401500451221686"><ele>186.0</ele><time>2026-04-29T14:56:14.999Z</time></trkpt><trkpt lat="43.936801464977385" lon="11.401125972426803"><ele>184.0</ele><time>2026-04-29T14:56:15.999Z</time></trkpt><trkpt lat="43.93689890202463" lon="11.400778994494544"><ele>182.0</ele><time>2026-04-29T14:56:16.999Z</time></trkpt><trkpt lat="43.936996288782886" lon="11.400442867358088"><ele>187.5</ele><time>2026-04-29T14:56:17.999Z</time></trkpt><trkpt lat="43.93707923043249" lon="11.400124965804025"><ele>193.0</ele><time>2026-04-29T14:56:18.999Z</time></trkpt><trkpt lat="43.93714008970631" lon="11.399802295041065"><ele>194.5</ele><time>2026-04-29T14:56:19.999Z</time></trkpt><trkpt lat="43.93718282165942" lon="11.399457573529727"><ele>196.0</ele><time>2026-04-29T14:56:20.999Z</time></trkpt><trkpt lat="43.93721018096339" lon="11.39908597107739"><ele>193.0</ele><time>2026-04-29T14:56:21.999Z</time></trkpt><trkpt lat="43.937234867997844" lon="11.398699103282535"><ele>190.0</ele><time>2026-04-29T14:56:22.999Z</time></trkpt><trkpt lat="43.937266643593276" lon="11.398298972861841"><ele>189.0</ele><time>2026-04-29T14:56:23.999Z</time></trkpt><trkpt lat="43.93730056534368" lon="11.397927946621932"><ele>188.0</ele><time>2026-04-29T14:56:24.999Z</time></trkpt><trkpt lat="43.93734003309747" lon="11.397571156493031"><ele>188.0</ele><time>2026-04-29T14:56:25.999Z</time></trkpt><trkpt lat="43.93742529541657" lon="11.397252670673923"><ele>188.0</ele><time>2026-04-29T14:56:26.999Z</time></trkpt><trkpt lat="43.937551989225675" lon="11.396951177808866"><ele>188.5</ele><time>2026-04-29T14:56:27.999Z</time></trkpt><trkpt lat="43.93771538853319" lon="11.396659175361851"><ele>189.0</ele><time>2026-04-29T14:56:28.999Z</time></trkpt><trkpt lat="43.93790752593379" lon="11.396371422312384"><ele>190.0</ele><time>2026-04-29T14:56:29.999Z</time></trkpt><trkpt lat="43.93810586074413" lon="11.396078131023316"><ele>191.0</ele><time>2026-04-29T14:56:30.999Z</time></trkpt><trkpt lat="43.93829716308293" lon="11.395783946579922"><ele>191.5</ele><time>2026-04-29T14:56:31.999Z</time></trkpt><trkpt lat="43.93847900045965" lon="11.395507167360506"><ele>192.0</ele><time>2026-04-29T14:56:32.999Z</time></trkpt><trkpt lat="43.93865912732752" lon="11.395236741704254"><ele>192.5</ele><time>2026-04-29T14:56:33.999Z</time></trkpt><trkpt lat="43.93883409057967" lon="11.39497020045203"><ele>193.0</ele><time>2026-04-29T14:56:34.999Z</time></trkpt><trkpt lat="43.9390033346843" lon="11.394700345828142"><ele>193.5</ele><time>2026-04-29T14:56:35.999Z</time></trkpt><trkpt lat="43.9391723647613" lon="11.394430331567479"><ele>194.0</ele><time>2026-04-29T14:56:36.999Z</time></trkpt><trkpt lat="43.939349148494166" lon="11.39415571435014"><ele>195.0</ele><time>2026-04-29T14:56:37.999Z</time></trkpt><trkpt lat="43.93953335013368" lon="11.393872838627331"><ele>196.0</ele><time>2026-04-29T14:56:38.999Z</time></trkpt><trkpt lat="43.939720663564586" lon="11.39358041097467"><ele>196.0</ele><time>2026-04-29T14:56:39.999Z</time></trkpt><trkpt lat="43.93991112010259" lon="11.393286233268817"><ele>196.0</ele><time>2026-04-29T14:56:40.999Z</time></trkpt><trkpt lat="43.94010661804823" lon="11.392990335681318"><ele>196.0</ele><time>2026-04-29T14:56:41.999Z</time></trkpt><trkpt lat="43.94030113023163" lon="11.392691423244175"><ele>196.0</ele><time>2026-04-29T14:56:42.999Z</time></trkpt><trkpt lat="43.94049700468221" lon="11.392388292443266"><ele>196.0</ele><time>2026-04-29T14:56:43.999Z</time></trkpt><trkpt lat="43.94069472958949" lon="11.392083235719479"><ele>196.0</ele><time>2026-04-29T14:56:44.999Z</time></trkpt><trkpt lat="43.94089249614344" lon="11.391773451894965"><ele>196.0</ele><time>2026-04-29T14:56:45.999Z</time></trkpt><trkpt lat="43.9410924788533" lon="11.391457384905793"><ele>196.0</ele><time>2026-04-29T14:56:46.999Z</time></trkpt><trkpt lat="43.94129779912585" lon="11.39113999602055"><ele>195.0</ele><time>2026-04-29T14:56:47.999Z</time></trkpt><trkpt lat="43.941506320798325" lon="11.390821861935386"><ele>194.0</ele><time>2026-04-29T14:56:48.999Z</time></trkpt><trkpt lat="43.941715145825356" lon="11.390500305935916"><ele>195.0</ele><time>2026-04-29T14:56:49.999Z</time></trkpt><trkpt lat="43.94192169407168" lon="11.390174252253546"><ele>196.0</ele><time>2026-04-29T14:56:50.999Z</time></trkpt><trkpt lat="43.942129383821424" lon="11.389848850673111"><ele>196.5</ele><time>2026-04-29T14:56:51.999Z</time></trkpt><trkpt lat="43.94233138787496" lon="11.389533754383177"><ele>197.0</ele><time>2026-04-29T14:56:52.999Z</time></trkpt><trkpt lat="43.9425226770839" lon="11.389236238591991"><ele>195.5</ele><time>2026-04-29T14:56:53.999Z</time></trkpt><trkpt lat="43.942709614500224" lon="11.38895584033522"><ele>194.0</ele><time>2026-04-29T14:56:54.999Z</time></trkpt><trkpt lat="43.942896877603395" lon="11.388713974139373"><ele>193.0</ele><time>2026-04-29T14:56:55.999Z</time></trkpt><trkpt lat="43.943086828649534" lon="11.388503132464638"><ele>192.0</ele><time>2026-04-29T14:56:56.999Z</time></trkpt><trkpt lat="43.94328317378504" lon="11.38831443077656"><ele>192.0</ele><time>2026-04-29T14:56:57.999Z</time></trkpt><trkpt lat="43.943491782414554" lon="11.388143434899911"><ele>192.0</ele><time>2026-04-29T14:56:58.999Z</time></trkpt><trkpt lat="43.943700679956" lon="11.388003053401185"><ele>192.5</ele><time>2026-04-29T14:56:59.999Z</time></trkpt><trkpt lat="43.94392840229773" lon="11.387874205110784"><ele>193.0</ele><time>2026-04-29T14:57:00.999Z</time></trkpt><trkpt lat="43.9441707202479" lon="11.387759872108047"><ele>192.0</ele><time>2026-04-29T14:57:01.999Z</time></trkpt><trkpt lat="43.94442243458772" lon="11.387655175317294"><ele>191.0</ele><time>2026-04-29T14:57:02.999Z</time></trkpt><trkpt lat="43.94466014682116" lon="11.387549974541997"><ele>191.0</ele><time>2026-04-29T14:57:03.999Z</time></trkpt><trkpt lat="43.9448789357287" lon="11.387447002301895"><ele>191.0</ele><time>2026-04-29T14:57:04.999Z</time></trkpt><trkpt lat="43.94507877849505" lon="11.38735621687902"><ele>191.0</ele><time>2026-04-29T14:57:05.999Z</time></trkpt><trkpt lat="43.945262414220615" lon="11.387275519431775"><ele>191.0</ele><time>2026-04-29T14:57:06.999Z</time></trkpt><trkpt lat="43.945426504499125" lon="11.387198036421053"><ele>191.0</ele><time>2026-04-29T14:57:07.999Z</time></trkpt><trkpt lat="43.94557883463207" lon="11.387128766250978"><ele>191.0</ele><time>2026-04-29T14:57:08.999Z</time></trkpt><trkpt lat="43.945716888265544" lon="11.387070312466474"><ele>190.5</ele><time>2026-04-29T14:57:09.999Z</time></trkpt><trkpt lat="43.94583475172197" lon="11.38701449020468"><ele>190.0</ele><time>2026-04-29T14:57:10.999Z</time></trkpt><trkpt lat="43.945927315165136" lon="11.386945198804744"><ele>189.5</ele><time>2026-04-29T14:57:11.999Z</time></trkpt><trkpt lat="43.945994920009085" lon="11.386887309635176"><ele>189.0</ele><time>2026-04-29T14:57:12.999Z</time></trkpt><trkpt lat="43.946018697501366" lon="11.386802413976968"><ele>188.5</ele><time>2026-04-29T14:57:14.999Z</time></trkpt><trkpt lat="43.94604747775512" lon="11.386720808191331"><ele>188.0</ele><time>2026-04-29T14:57:16.999Z</time></trkpt><trkpt lat="43.94600830951034" lon="11.386610523913703"><ele>188.0</ele><time>2026-04-29T14:57:17.999Z</time></trkpt><trkpt lat="43.94594500331101" lon="11.386521050060013"><ele>188.0</ele><time>2026-04-29T14:57:18.999Z</time></trkpt><trkpt lat="43.9458507715384" lon="11.386420967494436"><ele>188.0</ele><time>2026-04-29T14:57:19.999Z</time></trkpt><trkpt lat="43.94574537500823" lon="11.38630670819786"><ele>188.0</ele><time>2026-04-29T14:57:20.999Z</time></trkpt><trkpt lat="43.945624322435265" lon="11.386152292477727"><ele>188.33333333333331</ele><time>2026-04-29T14:57:21.999Z</time></trkpt><trkpt lat="43.945492823207815" lon="11.385970643399332"><ele>188.66666666666666</ele><time>2026-04-29T14:57:22.999Z</time></trkpt><trkpt lat="43.945341898739244" lon="11.385765659166225"><ele>189.0</ele><time>2026-04-29T14:57:23.999Z</time></trkpt><trkpt lat="43.945175780855735" lon="11.385548947587646"><ele>189.5</ele><time>2026-04-29T14:57:24.999Z</time></trkpt><trkpt lat="43.94500283479444" lon="11.38531681436715"><ele>190.0</ele><time>2026-04-29T14:57:25.999Z</time></trkpt><trkpt lat="43.9448292214484" lon="11.385079973482629"><ele>190.0</ele><time>2026-04-29T14:57:26.999Z</time></trkpt><trkpt lat="43.944659390213026" lon="11.384852832404635"><ele>190.0</ele><time>2026-04-29T14:57:27.999Z</time></trkpt><trkpt lat="43.94450298220941" lon="11.384645377345638"><ele>189.0</ele><time>2026-04-29T14:57:28.999Z</time></trkpt><trkpt lat="43.94435349131285" lon="11.384454616098829"><ele>188.0</ele><time>2026-04-29T14:57:29.999Z</time></trkpt><trkpt lat="43.94421048539162" lon="11.384268483463847"><ele>187.0</ele><time>2026-04-29T14:57:30.999Z</time></trkpt><trkpt lat="43.9440865497186" lon="11.384100864306477"><ele>189.0</ele><time>2026-04-29T14:57:31.999Z</time></trkpt><trkpt lat="43.943981994277685" lon="11.38394852818424"><ele>191.0</ele><time>2026-04-29T14:57:32.999Z</time></trkpt><trkpt lat="43.94391013605755" lon="11.383782587115672"><ele>193.0</ele><time>2026-04-29T14:57:33.999Z</time></trkpt><trkpt lat="43.94389907374527" lon="11.383560771295713"><ele>193.0</ele><time>2026-04-29T14:57:34.999Z</time></trkpt><trkpt lat="43.94390631395369" lon="11.38331136689448"><ele>193.0</ele><time>2026-04-29T14:57:35.999Z</time></trkpt><trkpt lat="43.94396368783345" lon="11.383027013625226"><ele>193.0</ele><time>2026-04-29T14:57:36.999Z</time></trkpt><trkpt lat="43.94402286220345" lon="11.382711262526124"><ele>193.5</ele><time>2026-04-29T14:57:37.999Z</time></trkpt><trkpt lat="43.94406918077334" lon="11.382364144449621"><ele>194.0</ele><time>2026-04-29T14:57:38.999Z</time></trkpt><trkpt lat="43.944116697995035" lon="11.382005211498111"><ele>195.0</ele><time>2026-04-29T14:57:39.999Z</time></trkpt><trkpt lat="43.94417009532459" lon="11.38164540235392"><ele>196.0</ele><time>2026-04-29T14:57:40.999Z</time></trkpt><trkpt lat="43.94422156721349" lon="11.381279392627444"><ele>191.5</ele><time>2026-04-29T14:57:41.999Z</time></trkpt><trkpt lat="43.94426860705792" lon="11.38092060527571"><ele>187.0</ele><time>2026-04-29T14:57:42.999Z</time></trkpt><trkpt lat="43.94431317088636" lon="11.380584629151924"><ele>189.0</ele><time>2026-04-29T14:57:43.999Z</time></trkpt><trkpt lat="43.944356864951594" lon="11.380261868348539"><ele>191.0</ele><time>2026-04-29T14:57:44.999Z</time></trkpt><trkpt lat="43.94439642107247" lon="11.3799537288753"><ele>193.66666666666666</ele><time>2026-04-29T14:57:45.999Z</time></trkpt><trkpt lat="43.9444360112545" lon="11.379668926897553"><ele>196.33333333333331</ele><time>2026-04-29T14:57:46.999Z</time></trkpt><trkpt lat="43.94447630778945" lon="11.379405880602503"><ele>199.0</ele><time>2026-04-29T14:57:47.999Z</time></trkpt><trkpt lat="43.94451382664573" lon="11.379164244272808"><ele>199.0</ele><time>2026-04-29T14:57:48.999Z</time></trkpt><trkpt lat="43.94454820903155" lon="11.378933624305946"><ele>199.0</ele><time>2026-04-29T14:57:49.999Z</time></trkpt><trkpt lat="43.94458062371619" lon="11.378718556235254"><ele>199.0</ele><time>2026-04-29T14:57:50.999Z</time></trkpt><trkpt lat="43.944610540079076" lon="11.378496930591917"><ele>200.66666666666666</ele><time>2026-04-29T14:57:51.999Z</time></trkpt><trkpt lat="43.94464465836847" lon="11.37827529520848"><ele>202.33333333333331</ele><time>2026-04-29T14:57:52.999Z</time></trkpt><trkpt lat="43.94467678930761" lon="11.378047683730827"><ele>204.0</ele><time>2026-04-29T14:57:53.999Z</time></trkpt><trkpt lat="43.94470997204745" lon="11.377828508441958"><ele>205.0</ele><time>2026-04-29T14:57:54.999Z</time></trkpt><trkpt lat="43.94474447887241" lon="11.377614937083976"><ele>206.0</ele><time>2026-04-29T14:57:55.999Z</time></trkpt><trkpt lat="43.94478267218248" lon="11.377397088451028"><ele>207.0</ele><time>2026-04-29T14:57:56.999Z</time></trkpt><trkpt lat="43.94483300956042" lon="11.377177349887619"><ele>207.0</ele><time>2026-04-29T14:57:57.999Z</time></trkpt><trkpt lat="43.94490326700327" lon="11.37696155067357"><ele>207.0</ele><time>2026-04-29T14:57:58.999Z</time></trkpt><trkpt lat="43.94499439321177" lon="11.376745221257739"><ele>207.0</ele><time>2026-04-29T14:57:59.999Z</time></trkpt><trkpt lat="43.945101433919874" lon="11.376516441143746"><ele>208.0</ele><time>2026-04-29T14:58:00.999Z</time></trkpt><trkpt lat="43.945232848169006" lon="11.376285804296527"><ele>209.0</ele><time>2026-04-29T14:58:01.999Z</time></trkpt><trkpt lat="43.945369530550856" lon="11.376006727021062"><ele>209.0</ele><time>2026-04-29T14:58:02.999Z</time></trkpt><trkpt lat="43.945524507957465" lon="11.375692695571972"><ele>209.0</ele><time>2026-04-29T14:58:03.999Z</time></trkpt><trkpt lat="43.945681111092156" lon="11.375352698540787"><ele>205.0</ele><time>2026-04-29T14:58:04.999Z</time></trkpt><trkpt lat="43.94585514057016" lon="11.375030658474346"><ele>201.0</ele><time>2026-04-29T14:58:05.999Z</time></trkpt><trkpt lat="43.946024082637805" lon="11.374684072763994"><ele>200.0</ele><time>2026-04-29T14:58:06.999Z</time></trkpt><trkpt lat="43.94619485465452" lon="11.374329251040992"><ele>199.0</ele><time>2026-04-29T14:58:07.999Z</time></trkpt><trkpt lat="43.94636285522819" lon="11.373989905536046"><ele>201.5</ele><time>2026-04-29T14:58:08.999Z</time></trkpt><trkpt lat="43.94652056856161" lon="11.37367184664706"><ele>204.0</ele><time>2026-04-29T14:58:09.999Z</time></trkpt><trkpt lat="43.94666865601212" lon="11.373379598083021"><ele>203.5</ele><time>2026-04-29T14:58:10.999Z</time></trkpt><trkpt lat="43.946808497400646" lon="11.373073807417242"><ele>203.0</ele><time>2026-04-29T14:58:11.999Z</time></trkpt><trkpt lat="43.94694035161287" lon="11.372732224402945"><ele>203.0</ele><time>2026-04-29T14:58:12.999Z</time></trkpt><trkpt lat="43.94705146795307" lon="11.372370427585118"><ele>203.0</ele><time>2026-04-29T14:58:13.999Z</time></trkpt><trkpt lat="43.94714299948176" lon="11.372031893808355"><ele>203.0</ele><time>2026-04-29T14:58:14.999Z</time></trkpt><trkpt lat="43.947226933482966" lon="11.371712996185613"><ele>203.0</ele><time>2026-04-29T14:58:15.999Z</time></trkpt><trkpt lat="43.947311306058204" lon="11.371377504066189"><ele>203.5</ele><time>2026-04-29T14:58:16.999Z</time></trkpt><trkpt lat="43.94741301422309" lon="11.371016174769998"><ele>204.0</ele><time>2026-04-29T14:58:17.999Z</time></trkpt><trkpt lat="43.94753276626344" lon="11.370638165165534"><ele>199.0</ele><time>2026-04-29T14:58:18.999Z</time></trkpt><trkpt lat="43.94765107348714" lon="11.370285767734108"><ele>194.0</ele><time>2026-04-29T14:58:19.999Z</time></trkpt><trkpt lat="43.94775456218782" lon="11.369944076563526"><ele>196.5</ele><time>2026-04-29T14:58:21Z</time></trkpt><trkpt lat="43.94785578925224" lon="11.36959047205525"><ele>199.0</ele><time>2026-04-29T14:58:22Z</time></trkpt><trkpt lat="43.94796614906905" lon="11.369216124375805"><ele>200.0</ele><time>2026-04-29T14:58:23Z</time></trkpt><trkpt lat="43.94808160541343" lon="11.368822620230759"><ele>201.0</ele><time>2026-04-29T14:58:24Z</time></trkpt><trkpt lat="43.94820156877427" lon="11.368422467778924"><ele>201.0</ele><time>2026-04-29T14:58:25Z</time></trkpt><trkpt lat="43.94831391325014" lon="11.368050111793083"><ele>201.0</ele><time>2026-04-29T14:58:26Z</time></trkpt><trkpt lat="43.948413132899496" lon="11.367716863644784"><ele>199.0</ele><time>2026-04-29T14:58:27Z</time></trkpt><trkpt lat="43.94850344964454" lon="11.367421316638966"><ele>197.0</ele><time>2026-04-29T14:58:28Z</time></trkpt><trkpt lat="43.94858413630979" lon="11.367154517251551"><ele>195.0</ele><time>2026-04-29T14:58:29Z</time></trkpt><trkpt lat="43.948653816433435" lon="11.36689814193543"><ele>195.0</ele><time>2026-04-29T14:58:30Z</time></trkpt><trkpt lat="43.94869692280536" lon="11.366630128204926"><ele>195.0</ele><time>2026-04-29T14:58:31Z</time></trkpt><trkpt lat="43.948688195980054" lon="11.366355012974653"><ele>195.0</ele><time>2026-04-29T14:58:32Z</time></trkpt><trkpt lat="43.948632488636406" lon="11.3660557010393"><ele>195.5</ele><time>2026-04-29T14:58:33Z</time></trkpt><trkpt lat="43.948555596675924" lon="11.365745285192524"><ele>196.0</ele><time>2026-04-29T14:58:34Z</time></trkpt><trkpt lat="43.94848122366593" lon="11.365459428347933"><ele>196.0</ele><time>2026-04-29T14:58:35Z</time></trkpt><trkpt lat="43.94842759927001" lon="11.365176214599655"><ele>196.0</ele><time>2026-04-29T14:58:36Z</time></trkpt><trkpt lat="43.948302811574244" lon="11.364850392828485"><ele>196.5</ele><time>2026-04-29T14:58:37Z</time></trkpt><trkpt lat="43.94814817289911" lon="11.364541977478845"><ele>197.0</ele><time>2026-04-29T14:58:38Z</time></trkpt><trkpt lat="43.948001931410516" lon="11.36427422355658"><ele>197.0</ele><time>2026-04-29T14:58:39Z</time></trkpt><trkpt lat="43.947869023240024" lon="11.364041021005528"><ele>197.0</ele><time>2026-04-29T14:58:40Z</time></trkpt><trkpt lat="43.94770428420243" lon="11.363847408924226"><ele>197.0</ele><time>2026-04-29T14:58:41Z</time></trkpt><trkpt lat="43.94752121528877" lon="11.36369028288086"><ele>197.0</ele><time>2026-04-29T14:58:42Z</time></trkpt><trkpt lat="43.94734627926216" lon="11.363519492564684"><ele>197.0</ele><time>2026-04-29T14:58:43Z</time></trkpt><trkpt lat="43.947203708092" lon="11.36330090191647"><ele>197.0</ele><time>2026-04-29T14:58:44Z</time></trkpt><trkpt lat="43.94709989568193" lon="11.363049994400034"><ele>197.33333333333334</ele><time>2026-04-29T14:58:45Z</time></trkpt><trkpt lat="43.9470446610703" lon="11.362755760530646"><ele>197.66666666666669</ele><time>2026-04-29T14:58:46Z</time></trkpt><trkpt lat="43.94700434360582" lon="11.362448335073706"><ele>198.0</ele><time>2026-04-29T14:58:47Z</time></trkpt><trkpt lat="43.94697328918706" lon="11.362173795062633"><ele>198.33333333333331</ele><time>2026-04-29T14:58:48Z</time></trkpt><trkpt lat="43.9469521411136" lon="11.361949302413368"><ele>198.66666666666666</ele><time>2026-04-29T14:58:49Z</time></trkpt><trkpt lat="43.94692141000215" lon="11.361736989603791"><ele>199.0</ele><time>2026-04-29T14:58:50Z</time></trkpt><trkpt lat="43.9468995398783" lon="11.361549405310736"><ele>199.0</ele><time>2026-04-29T14:58:51Z</time></trkpt><trkpt lat="43.946873052304824" lon="11.3613707020782"><ele>199.0</ele><time>2026-04-29T14:58:52Z</time></trkpt><trkpt lat="43.94647306132416" lon="11.361272201023056"><ele>199.66666666666666</ele><time>2026-04-29T14:58:53Z</time></trkpt><trkpt lat="43.94627737742083" lon="11.361139739426962"><ele>200.33333333333331</ele><time>2026-04-29T14:58:54Z</time></trkpt><trkpt lat="43.946094817537166" lon="11.361035834440809"><ele>201.0</ele><time>2026-04-29T14:58:55Z</time></trkpt><trkpt lat="43.94590212226189" lon="11.360954711316548"><ele>201.66666666666669</ele><time>2026-04-29T14:58:56Z</time></trkpt><trkpt lat="43.94571946192581" lon="11.360895373175103"><ele>202.33333333333334</ele><time>2026-04-29T14:58:57Z</time></trkpt><trkpt lat="43.94553032854237" lon="11.360862886346679"><ele>203.0</ele><time>2026-04-29T14:58:58Z</time></trkpt><trkpt lat="43.94534786267129" lon="11.360879974221413"><ele>203.0</ele><time>2026-04-29T14:58:59Z</time></trkpt><trkpt lat="43.945181082912136" lon="11.360909518812456"><ele>203.0</ele><time>2026-04-29T14:59:00Z</time></trkpt><trkpt lat="43.945039893954714" lon="11.360939548321966"><ele>203.0</ele><time>2026-04-29T14:59:01Z</time></trkpt><trkpt lat="43.94492540001825" lon="11.360950027239696"><ele>203.0</ele><time>2026-04-29T14:59:02Z</time></trkpt><trkpt lat="43.94482880461833" lon="11.360917028466774"><ele>203.50000000000003</ele><time>2026-04-29T14:59:03Z</time></trkpt><trkpt lat="43.94475189662389" lon="11.360841029637678"><ele>204.0</ele><time>2026-04-29T14:59:04Z</time></trkpt><trkpt lat="43.944707585698694" lon="11.360743150542664"><ele>204.5</ele><time>2026-04-29T14:59:05Z</time></trkpt><trkpt lat="43.94468822671563" lon="11.360636470694706"><ele>205.0</ele><time>2026-04-29T14:59:06Z</time></trkpt><trkpt lat="43.944679191776565" lon="11.360538953487882"><ele>205.50000000000003</ele><time>2026-04-29T14:59:07Z</time></trkpt><trkpt lat="43.94468553403564" lon="11.360438419642684"><ele>206.0</ele><time>2026-04-29T14:59:08Z</time></trkpt><trkpt lat="43.944726522287" lon="11.36037157537262"><ele>206.4</ele><time>2026-04-29T14:59:09Z</time></trkpt><trkpt lat="43.94479476093883" lon="11.360311291151218"><ele>206.8</ele><time>2026-04-29T14:59:10Z</time></trkpt><trkpt lat="43.94488957501373" lon="11.360263084342748"><ele>207.20000000000002</ele><time>2026-04-29T14:59:11Z</time></trkpt><trkpt lat="43.94499974737476" lon="11.360218702019816"><ele>207.60000000000002</ele><time>2026-04-29T14:59:12Z</time></trkpt><trkpt lat="43.945116448745786" lon="11.360159820135827"><ele>208.0</ele><time>2026-04-29T14:59:13Z</time></trkpt><trkpt lat="43.94523069819174" lon="11.360102418104816"><ele>208.0</ele><time>2026-04-29T14:59:14Z</time></trkpt><trkpt lat="43.945356092592085" lon="11.360012603943263"><ele>208.0</ele><time>2026-04-29T14:59:15Z</time></trkpt><trkpt lat="43.94548559710219" lon="11.359878467395019"><ele>208.0</ele><time>2026-04-29T14:59:16Z</time></trkpt><trkpt lat="43.94559837265443" lon="11.359758659190957"><ele>208.0</ele><time>2026-04-29T14:59:17Z</time></trkpt><trkpt lat="43.94569331471701" lon="11.35964585847552"><ele>207.4</ele><time>2026-04-29T14:59:18Z</time></trkpt><trkpt lat="43.94578613712381" lon="11.359549127698667"><ele>206.8</ele><time>2026-04-29T14:59:19Z</time></trkpt><trkpt lat="43.94587232191954" lon="11.359476744316057"><ele>206.2</ele><time>2026-04-29T14:59:20Z</time></trkpt><trkpt lat="43.9459490127887" lon="11.359425761126142"><ele>205.6</ele><time>2026-04-29T14:59:21Z</time></trkpt><trkpt lat="43.94603762659188" lon="11.359392996220361"><ele>205.0</ele><time>2026-04-29T14:59:22Z</time></trkpt><trkpt lat="43.94613097804142" lon="11.359399169828071"><ele>205.0</ele><time>2026-04-29T14:59:23Z</time></trkpt><trkpt lat="43.946228631960636" lon="11.359399854561746"><ele>205.0</ele><time>2026-04-29T14:59:24Z</time></trkpt><trkpt lat="43.94631541046651" lon="11.35936262797895"><ele>205.0</ele><time>2026-04-29T14:59:25Z</time></trkpt><trkpt lat="43.9463761740192" lon="11.359275160926606"><ele>205.0</ele><time>2026-04-29T14:59:26Z</time></trkpt><trkpt lat="43.94640907684185" lon="11.359136621723941"><ele>205.0</ele><time>2026-04-29T14:59:27Z</time></trkpt><trkpt lat="43.94640372701772" lon="11.35897161248147"><ele>204.66666666666666</ele><time>2026-04-29T14:59:28Z</time></trkpt><trkpt lat="43.94635301957476" lon="11.358772399398552"><ele>204.33333333333331</ele><time>2026-04-29T14:59:29Z</time></trkpt><trkpt lat="43.946293471932236" lon="11.358549460137928"><ele>204.0</ele><time>2026-04-29T14:59:30Z</time></trkpt><trkpt lat="43.94624371967641" lon="11.358302543564129"><ele>204.0</ele><time>2026-04-29T14:59:31Z</time></trkpt><trkpt lat="43.94619991379745" lon="11.358053047124352"><ele>204.0</ele><time>2026-04-29T14:59:32Z</time></trkpt><trkpt lat="43.94615170107359" lon="11.357780738916368"><ele>204.0</ele><time>2026-04-29T14:59:33Z</time></trkpt><trkpt lat="43.946116086119176" lon="11.357518522221477"><ele>203.0</ele><time>2026-04-29T14:59:34Z</time></trkpt><trkpt lat="43.94609146497875" lon="11.357270380004227"><ele>202.0</ele><time>2026-04-29T14:59:35Z</time></trkpt><trkpt lat="43.946077523052196" lon="11.357034998092189"><ele>201.0</ele><time>2026-04-29T14:59:36Z</time></trkpt><trkpt lat="43.946080963080874" lon="11.356806297105052"><ele>200.33333333333331</ele><time>2026-04-29T14:59:37Z</time></trkpt><trkpt lat="43.94609638763154" lon="11.356595897611351"><ele>199.66666666666666</ele><time>2026-04-29T14:59:38Z</time></trkpt><trkpt lat="43.946119833870505" lon="11.356386726985011"><ele>199.0</ele><time>2026-04-29T14:59:39Z</time></trkpt><trkpt lat="43.94614281263704" lon="11.356179277209977"><ele>198.66666666666666</ele><time>2026-04-29T14:59:40Z</time></trkpt><trkpt lat="43.946161579992435" lon="11.355958758193022"><ele>198.33333333333331</ele><time>2026-04-29T14:59:41Z</time></trkpt><trkpt lat="43.94617754529856" lon="11.355742558621381"><ele>198.0</ele><time>2026-04-29T14:59:42Z</time></trkpt><trkpt lat="43.94619108599028" lon="11.355511220423526"><ele>198.0</ele><time>2026-04-29T14:59:43Z</time></trkpt><trkpt lat="43.946202745444126" lon="11.355250667038922"><ele>198.0</ele><time>2026-04-29T14:59:44Z</time></trkpt><trkpt lat="43.94623024618497" lon="11.354969834055593"><ele>198.0</ele><time>2026-04-29T14:59:45Z</time></trkpt><trkpt lat="43.94627111261221" lon="11.3546791103187"><ele>198.33333333333331</ele><time>2026-04-29T14:59:46Z</time></trkpt><trkpt lat="43.94630390144455" lon="11.354391328461617"><ele>198.66666666666666</ele><time>2026-04-29T14:59:47Z</time></trkpt><trkpt lat="43.94632931680624" lon="11.354104439389976"><ele>199.0</ele><time>2026-04-29T14:59:48Z</time></trkpt><trkpt lat="43.94635374437428" lon="11.353813742470816"><ele>200.33333333333331</ele><time>2026-04-29T14:59:49Z</time></trkpt><trkpt lat="43.94638572036919" lon="11.353521303578615"><ele>201.66666666666669</ele><time>2026-04-29T14:59:50Z</time></trkpt><trkpt lat="43.946435320712986" lon="11.35322782066118"><ele>203.0</ele><time>2026-04-29T14:59:51Z</time></trkpt><trkpt lat="43.946499275620496" lon="11.352924739553563"><ele>204.0</ele><time>2026-04-29T14:59:52Z</time></trkpt><trkpt lat="43.946552795078674" lon="11.352618804627198"><ele>205.0</ele><time>2026-04-29T14:59:53Z</time></trkpt><trkpt lat="43.9466038737809" lon="11.352313229759739"><ele>205.33333333333331</ele><time>2026-04-29T14:59:54Z</time></trkpt><trkpt lat="43.94665319661665" lon="11.352012117231515"><ele>205.66666666666669</ele><time>2026-04-29T14:59:55Z</time></trkpt><trkpt lat="43.946702147243386" lon="11.35171491356543"><ele>206.0</ele><time>2026-04-29T14:59:56Z</time></trkpt><trkpt lat="43.94675143758228" lon="11.351427295967797"><ele>206.0</ele><time>2026-04-29T14:59:57Z</time></trkpt><trkpt lat="43.94679914459462" lon="11.351138639148642"><ele>206.0</ele><time>2026-04-29T14:59:58Z</time></trkpt><trkpt lat="43.94684621124174" lon="11.35085666689864"><ele>206.0</ele><time>2026-04-29T14:59:59Z</time></trkpt><trkpt lat="43.94689499199212" lon="11.350570935853376"><ele>207.0</ele><time>2026-04-29T15:00:00Z</time></trkpt><trkpt lat="43.94694422594823" lon="11.350281368327037"><ele>208.0</ele><time>2026-04-29T15:00:01Z</time></trkpt><trkpt lat="43.94698978052196" lon="11.349999030228467"><ele>209.0</ele><time>2026-04-29T15:00:02Z</time></trkpt><trkpt lat="43.947036293149566" lon="11.349710235281933"><ele>209.33333333333334</ele><time>2026-04-29T15:00:03Z</time></trkpt><trkpt lat="43.947084404950196" lon="11.349425093623799"><ele>209.66666666666669</ele><time>2026-04-29T15:00:04Z</time></trkpt><trkpt lat="43.94713402921013" lon="11.349150611889689"><ele>210.0</ele><time>2026-04-29T15:00:05Z</time></trkpt><trkpt lat="43.947181775530524" lon="11.3488700426558"><ele>210.66666666666669</ele><time>2026-04-29T15:00:06Z</time></trkpt><trkpt lat="43.94722840487154" lon="11.348585194127315"><ele>211.33333333333334</ele><time>2026-04-29T15:00:07Z</time></trkpt><trkpt lat="43.947275769707225" lon="11.348298019640247"><ele>212.0</ele><time>2026-04-29T15:00:08Z</time></trkpt><trkpt lat="43.94732494475043" lon="11.348009682975471"><ele>213.33333333333334</ele><time>2026-04-29T15:00:09Z</time></trkpt><trkpt lat="43.94737412597328" lon="11.347718646623067"><ele>214.66666666666669</ele><time>2026-04-29T15:00:10Z</time></trkpt><trkpt lat="43.94742343853944" lon="11.347421267477015"><ele>216.0</ele><time>2026-04-29T15:00:11Z</time></trkpt><trkpt lat="43.94747389080401" lon="11.34712984028529"><ele>216.0</ele><time>2026-04-29T15:00:12Z</time></trkpt><trkpt lat="43.94751960583985" lon="11.346841061809279"><ele>216.0</ele><time>2026-04-29T15:00:13Z</time></trkpt><trkpt lat="43.94756581777109" lon="11.346574714535022"><ele>216.0</ele><time>2026-04-29T15:00:14Z</time></trkpt><trkpt lat="43.94761310727598" lon="11.346308577924543"><ele>216.0</ele><time>2026-04-29T15:00:15Z</time></trkpt><trkpt lat="43.94767303365829" lon="11.346032877941383"><ele>216.0</ele><time>2026-04-29T15:00:16Z</time></trkpt><trkpt lat="43.9477553240205" lon="11.345762947002004"><ele>216.0</ele><time>2026-04-29T15:00:17Z</time></trkpt><trkpt lat="43.94785664698536" lon="11.345499431582665"><ele>216.33333333333331</ele><time>2026-04-29T15:00:18Z</time></trkpt><trkpt lat="43.947965528120754" lon="11.345263718463437"><ele>216.66666666666666</ele><time>2026-04-29T15:00:19Z</time></trkpt><trkpt lat="43.94809296562285" lon="11.345029221473496"><ele>217.0</ele><time>2026-04-29T15:00:20Z</time></trkpt><trkpt lat="43.94823691186981" lon="11.344810636612406"><ele>216.33333333333331</ele><time>2026-04-29T15:00:21Z</time></trkpt><trkpt lat="43.948393585209736" lon="11.344601318632431"><ele>215.66666666666669</ele><time>2026-04-29T15:00:22Z</time></trkpt><trkpt lat="43.948550444691094" lon="11.344394891692696"><ele>215.0</ele><time>2026-04-29T15:00:23Z</time></trkpt><trkpt lat="43.94870047638561" lon="11.344179493714094"><ele>215.0</ele><time>2026-04-29T15:00:24Z</time></trkpt><trkpt lat="43.94884594633443" lon="11.343962605656758"><ele>215.0</ele><time>2026-04-29T15:00:25Z</time></trkpt><trkpt lat="43.94897534495778" lon="11.343754080140942"><ele>215.0</ele><time>2026-04-29T15:00:26Z</time></trkpt><trkpt lat="43.949090357023984" lon="11.343534705517989"><ele>215.33333333333334</ele><time>2026-04-29T15:00:27Z</time></trkpt><trkpt lat="43.94919337506845" lon="11.343289655990805"><ele>215.66666666666669</ele><time>2026-04-29T15:00:28Z</time></trkpt><trkpt lat="43.94928791076415" lon="11.343024853393251"><ele>216.0</ele><time>2026-04-29T15:00:29Z</time></trkpt><trkpt lat="43.949369518080054" lon="11.342769624005438"><ele>216.0</ele><time>2026-04-29T15:00:30Z</time></trkpt><trkpt lat="43.94942127619247" lon="11.34251696465436"><ele>216.0</ele><time>2026-04-29T15:00:31Z</time></trkpt><trkpt lat="43.9494727137458" lon="11.342265884750946"><ele>216.0</ele><time>2026-04-29T15:00:32Z</time></trkpt><trkpt lat="43.94953715510384" lon="11.341993638962148"><ele>215.66666666666669</ele><time>2026-04-29T15:00:33Z</time></trkpt><trkpt lat="43.94960602997224" lon="11.341718945684233"><ele>215.33333333333334</ele><time>2026-04-29T15:00:34Z</time></trkpt><trkpt lat="43.94968298923623" lon="11.341435399217355"><ele>215.0</ele><time>2026-04-29T15:00:35Z</time></trkpt><trkpt lat="43.949778163189414" lon="11.341170995040658"><ele>213.33333333333334</ele><time>2026-04-29T15:00:36Z</time></trkpt><trkpt lat="43.949898896209945" lon="11.34091586253456"><ele>211.66666666666669</ele><time>2026-04-29T15:00:37Z</time></trkpt><trkpt lat="43.95003766278542" lon="11.340669398724177"><ele>210.0</ele><time>2026-04-29T15:00:38Z</time></trkpt><trkpt lat="43.9501902933066" lon="11.340431579881676"><ele>209.0</ele><time>2026-04-29T15:00:39Z</time></trkpt><trkpt lat="43.950355529564575" lon="11.34020928586054"><ele>208.0</ele><time>2026-04-29T15:00:40Z</time></trkpt><trkpt lat="43.95053287334273" lon="11.339996935401945"><ele>208.0</ele><time>2026-04-29T15:00:41Z</time></trkpt><trkpt lat="43.95070626231223" lon="11.339789970471822"><ele>208.0</ele><time>2026-04-29T15:00:42Z</time></trkpt><trkpt lat="43.95086241904678" lon="11.33958509952776"><ele>208.0</ele><time>2026-04-29T15:00:43Z</time></trkpt><trkpt lat="43.95100574256075" lon="11.339376704526455"><ele>210.0</ele><time>2026-04-29T15:00:44Z</time></trkpt><trkpt lat="43.951143031928225" lon="11.339155494441716"><ele>212.0</ele><time>2026-04-29T15:00:45Z</time></trkpt><trkpt lat="43.95126782007526" lon="11.338918081626462"><ele>214.0</ele><time>2026-04-29T15:00:46Z</time></trkpt><trkpt lat="43.95137599545673" lon="11.338689630463248"><ele>214.0</ele><time>2026-04-29T15:00:47Z</time></trkpt><trkpt lat="43.951471849486545" lon="11.338480487043242"><ele>214.0</ele><time>2026-04-29T15:00:48Z</time></trkpt><trkpt lat="43.95156289221641" lon="11.338261304303987"><ele>214.0</ele><time>2026-04-29T15:00:49Z</time></trkpt><trkpt lat="43.95165959212381" lon="11.338032049461166"><ele>213.66666666666666</ele><time>2026-04-29T15:00:50Z</time></trkpt><trkpt lat="43.95175907503404" lon="11.337799082414099"><ele>213.33333333333331</ele><time>2026-04-29T15:00:51Z</time></trkpt><trkpt lat="43.951865580061124" lon="11.337569632616677"><ele>213.0</ele><time>2026-04-29T15:00:52Z</time></trkpt><trkpt lat="43.95196756347547" lon="11.337331347256464"><ele>213.66666666666669</ele><time>2026-04-29T15:00:53Z</time></trkpt><trkpt lat="43.9520621483222" lon="11.337100737660377"><ele>214.33333333333334</ele><time>2026-04-29T15:00:54Z</time></trkpt><trkpt lat="43.95215584370137" lon="11.336888571786242"><ele>215.0</ele><time>2026-04-29T15:00:55Z</time></trkpt><trkpt lat="43.95224956226701" lon="11.336670786023225"><ele>215.0</ele><time>2026-04-29T15:00:56Z</time></trkpt><trkpt lat="43.952357252795075" lon="11.336427755160766"><ele>215.0</ele><time>2026-04-29T15:00:57Z</time></trkpt><trkpt lat="43.95245944172922" lon="11.336200805067762"><ele>215.0</ele><time>2026-04-29T15:00:58Z</time></trkpt><trkpt lat="43.95254813467356" lon="11.336001040591329"><ele>214.0</ele><time>2026-04-29T15:00:59Z</time></trkpt><trkpt lat="43.95263210168417" lon="11.335814250716641"><ele>213.0</ele><time>2026-04-29T15:01:00Z</time></trkpt><trkpt lat="43.95271039492657" lon="11.335627458672755"><ele>212.0</ele><time>2026-04-29T15:01:01Z</time></trkpt><trkpt lat="43.95278437082521" lon="11.335414182765787"><ele>212.0</ele><time>2026-04-29T15:01:02Z</time></trkpt><trkpt lat="43.95286114987311" lon="11.335174202805009"><ele>212.0</ele><time>2026-04-29T15:01:03Z</time></trkpt><trkpt lat="43.95294791231492" lon="11.334919536498893"><ele>212.0</ele><time>2026-04-29T15:01:04Z</time></trkpt><trkpt lat="43.9530401360099" lon="11.334645909494027"><ele>211.0</ele><time>2026-04-29T15:01:05Z</time></trkpt><trkpt lat="43.95312554667162" lon="11.334346643004993"><ele>210.0</ele><time>2026-04-29T15:01:06Z</time></trkpt><trkpt lat="43.953207879241134" lon="11.33404295055718"><ele>209.5</ele><time>2026-04-29T15:01:07Z</time></trkpt><trkpt lat="43.95328799583742" lon="11.333752782371203"><ele>209.0</ele><time>2026-04-29T15:01:08Z</time></trkpt><trkpt lat="43.95337196895179" lon="11.333434010079234"><ele>208.0</ele><time>2026-04-29T15:01:09Z</time></trkpt><trkpt lat="43.953460603491905" lon="11.333101492772993"><ele>207.0</ele><time>2026-04-29T15:01:10Z</time></trkpt><trkpt lat="43.953542004229014" lon="11.332784995310098"><ele>206.0</ele><time>2026-04-29T15:01:11Z</time></trkpt><trkpt lat="43.95361937428523" lon="11.332481168985348"><ele>205.0</ele><time>2026-04-29T15:01:12Z</time></trkpt><trkpt lat="43.95370786929636" lon="11.332195146408292"><ele>204.66666666666666</ele><time>2026-04-29T15:01:13Z</time></trkpt><trkpt lat="43.953815958604494" lon="11.33192775878855"><ele>204.33333333333331</ele><time>2026-04-29T15:01:14Z</time></trkpt><trkpt lat="43.95394772557232" lon="11.331674196892257"><ele>204.0</ele><time>2026-04-29T15:01:15Z</time></trkpt><trkpt lat="43.95409498587211" lon="11.33142100485981"><ele>202.0</ele><time>2026-04-29T15:01:16Z</time></trkpt><trkpt lat="43.9542507124663" lon="11.331169934747997"><ele>200.0</ele><time>2026-04-29T15:01:17Z</time></trkpt><trkpt lat="43.95440997216799" lon="11.330913398826729"><ele>200.0</ele><time>2026-04-29T15:01:18Z</time></trkpt><trkpt lat="43.95456452524899" lon="11.330643716719875"><ele>200.0</ele><time>2026-04-29T15:01:19Z</time></trkpt><trkpt lat="43.954719381516355" lon="11.330373390886002"><ele>202.5</ele><time>2026-04-29T15:01:20Z</time></trkpt><trkpt lat="43.95487368521922" lon="11.330119177684566"><ele>205.0</ele><time>2026-04-29T15:01:21Z</time></trkpt><trkpt lat="43.95502214644511" lon="11.329859661281928"><ele>204.5</ele><time>2026-04-29T15:01:22Z</time></trkpt><trkpt lat="43.955156271049255" lon="11.329572693385172"><ele>204.0</ele><time>2026-04-29T15:01:23Z</time></trkpt><trkpt lat="43.95526715712789" lon="11.329260095313444"><ele>204.0</ele><time>2026-04-29T15:01:24Z</time></trkpt><trkpt lat="43.955359367345686" lon="11.32893439172181"><ele>204.0</ele><time>2026-04-29T15:01:25Z</time></trkpt><trkpt lat="43.95545203296134" lon="11.328604858306951"><ele>205.5</ele><time>2026-04-29T15:01:26Z</time></trkpt><trkpt lat="43.95555065094897" lon="11.328274099687434"><ele>207.0</ele><time>2026-04-29T15:01:27Z</time></trkpt><trkpt lat="43.95565117721939" lon="11.327955509635766"><ele>208.0</ele><time>2026-04-29T15:01:28Z</time></trkpt><trkpt lat="43.955740883226966" lon="11.327647728592238"><ele>209.0</ele><time>2026-04-29T15:01:29Z</time></trkpt><trkpt lat="43.955812680526115" lon="11.327339023403749"><ele>210.0</ele><time>2026-04-29T15:01:30Z</time></trkpt><trkpt lat="43.95585497991405" lon="11.327016118256038"><ele>211.0</ele><time>2026-04-29T15:01:31Z</time></trkpt><trkpt lat="43.95587759995889" lon="11.326677103667258"><ele>210.0</ele><time>2026-04-29T15:01:32Z</time></trkpt><trkpt lat="43.95588011750131" lon="11.32633273897274"><ele>209.0</ele><time>2026-04-29T15:01:33Z</time></trkpt><trkpt lat="43.955858222646576" lon="11.325980487915345"><ele>212.0</ele><time>2026-04-29T15:01:34Z</time></trkpt><trkpt lat="43.95580440982307" lon="11.325626093074034"><ele>215.0</ele><time>2026-04-29T15:01:35Z</time></trkpt><trkpt lat="43.9557450906214" lon="11.325254544320938"><ele>217.5</ele><time>2026-04-29T15:01:36Z</time></trkpt><trkpt lat="43.95569699380546" lon="11.324892045438963"><ele>220.0</ele><time>2026-04-29T15:01:37Z</time></trkpt><trkpt lat="43.95565721653481" lon="11.324559326149888"><ele>221.0</ele><time>2026-04-29T15:01:38Z</time></trkpt><trkpt lat="43.95561631534647" lon="11.324250877501239"><ele>222.0</ele><time>2026-04-29T15:01:39Z</time></trkpt><trkpt lat="43.95558074627055" lon="11.32396549824234"><ele>223.0</ele><time>2026-04-29T15:01:40Z</time></trkpt><trkpt lat="43.95555047611611" lon="11.323691465067975"><ele>224.33333333333331</ele><time>2026-04-29T15:01:41Z</time></trkpt><trkpt lat="43.95553454328659" lon="11.323429253534238"><ele>225.66666666666669</ele><time>2026-04-29T15:01:42Z</time></trkpt><trkpt lat="43.95553813120401" lon="11.323182644418374"><ele>227.0</ele><time>2026-04-29T15:01:43Z</time></trkpt><trkpt lat="43.95555599312922" lon="11.322935001260435"><ele>227.33333333333334</ele><time>2026-04-29T15:01:44Z</time></trkpt><trkpt lat="43.955585178342645" lon="11.322703391925588"><ele>227.66666666666669</ele><time>2026-04-29T15:01:45Z</time></trkpt><trkpt lat="43.95562570627917" lon="11.322459895249896"><ele>228.0</ele><time>2026-04-29T15:01:46Z</time></trkpt><trkpt lat="43.955662665415524" lon="11.32219804821357"><ele>226.5</ele><time>2026-04-29T15:01:47Z</time></trkpt><trkpt lat="43.95570855529642" lon="11.321903994718234"><ele>225.0</ele><time>2026-04-29T15:01:48Z</time></trkpt><trkpt lat="43.95576734713501" lon="11.321576224843689"><ele>223.5</ele><time>2026-04-29T15:01:49Z</time></trkpt><trkpt lat="43.95583303800445" lon="11.321223365135609"><ele>222.0</ele><time>2026-04-29T15:01:50Z</time></trkpt><trkpt lat="43.955892535474945" lon="11.320863777183508"><ele>217.0</ele><time>2026-04-29T15:01:51Z</time></trkpt><trkpt lat="43.95595089928345" lon="11.320485265065285"><ele>212.0</ele><time>2026-04-29T15:01:52Z</time></trkpt><trkpt lat="43.95601281684936" lon="11.320094932436854"><ele>214.5</ele><time>2026-04-29T15:01:53Z</time></trkpt><trkpt lat="43.956077235489055" lon="11.319702321629485"><ele>217.0</ele><time>2026-04-29T15:01:54Z</time></trkpt><trkpt lat="43.9561411093297" lon="11.31931164194593"><ele>217.0</ele><time>2026-04-29T15:01:55Z</time></trkpt><trkpt lat="43.9561988830741" lon="11.318935185993054"><ele>217.0</ele><time>2026-04-29T15:01:56Z</time></trkpt><trkpt lat="43.956233095191976" lon="11.318575190701084"><ele>217.5</ele><time>2026-04-29T15:01:57Z</time></trkpt><trkpt lat="43.95624138382693" lon="11.318213595905723"><ele>218.0</ele><time>2026-04-29T15:01:58Z</time></trkpt><trkpt lat="43.95620497732372" lon="11.317870684884872"><ele>218.0</ele><time>2026-04-29T15:01:59Z</time></trkpt><trkpt lat="43.956130573645076" lon="11.317542249510163"><ele>218.0</ele><time>2026-04-29T15:02:00Z</time></trkpt><trkpt lat="43.956015424137355" lon="11.317223009600976"><ele>218.5</ele><time>2026-04-29T15:02:01Z</time></trkpt><trkpt lat="43.95587561157195" lon="11.316938051672011"><ele>219.0</ele><time>2026-04-29T15:02:02Z</time></trkpt><trkpt lat="43.95571480683321" lon="11.316708344530722"><ele>223.33333333333331</ele><time>2026-04-29T15:02:03Z</time></trkpt><trkpt lat="43.95555141631801" lon="11.316520655450251"><ele>227.66666666666666</ele><time>2026-04-29T15:02:04Z</time></trkpt><trkpt lat="43.955368835337815" lon="11.31634421713661"><ele>232.0</ele><time>2026-04-29T15:02:05Z</time></trkpt><trkpt lat="43.95517567868651" lon="11.316145849437971"><ele>246.0</ele><time>2026-04-29T15:02:06Z</time></trkpt><trkpt lat="43.95498709796454" lon="11.315934160549363"><ele>260.0</ele><time>2026-04-29T15:02:07Z</time></trkpt><trkpt lat="43.95480200153813" lon="11.315728654195688"><ele>247.0</ele><time>2026-04-29T15:02:08Z</time></trkpt><trkpt lat="43.9546148934279" lon="11.315520525963333"><ele>234.0</ele><time>2026-04-29T15:02:09Z</time></trkpt><trkpt lat="43.95442061316091" lon="11.315305419286918"><ele>234.0</ele><time>2026-04-29T15:02:10Z</time></trkpt><trkpt lat="43.95421927687959" lon="11.315071304463029"><ele>234.0</ele><time>2026-04-29T15:02:11Z</time></trkpt><trkpt lat="43.954027153761345" lon="11.314840580099842"><ele>227.0</ele><time>2026-04-29T15:02:12Z</time></trkpt><trkpt lat="43.95374917066565" lon="11.314569287615951"><ele>220.0</ele><time>2026-04-29T15:02:13Z</time></trkpt><trkpt lat="43.95351815182819" lon="11.314309854746393"><ele>219.66666666666666</ele><time>2026-04-29T15:02:14Z</time></trkpt><trkpt lat="43.953358129126485" lon="11.314106476529604"><ele>219.33333333333331</ele><time>2026-04-29T15:02:15Z</time></trkpt><trkpt lat="43.95322065616062" lon="11.31387986701363"><ele>219.0</ele><time>2026-04-29T15:02:16Z</time></trkpt><trkpt lat="43.95310562426462" lon="11.313639929414196"><ele>219.0</ele><time>2026-04-29T15:02:17Z</time></trkpt><trkpt lat="43.95301255259985" lon="11.313369302535499"><ele>219.0</ele><time>2026-04-29T15:02:18Z</time></trkpt><trkpt lat="43.9529459693562" lon="11.31306874787225"><ele>219.0</ele><time>2026-04-29T15:02:19Z</time></trkpt><trkpt lat="43.95287521551778" lon="11.312784130392073"><ele>219.0</ele><time>2026-04-29T15:02:20Z</time></trkpt><trkpt lat="43.95283473339811" lon="11.312517567044775"><ele>219.0</ele><time>2026-04-29T15:02:21Z</time></trkpt><trkpt lat="43.95279174676676" lon="11.31228240156685"><ele>219.0</ele><time>2026-04-29T15:02:22Z</time></trkpt><trkpt lat="43.952759225226146" lon="11.312077113775546"><ele>220.0</ele><time>2026-04-29T15:02:23Z</time></trkpt><trkpt lat="43.95272760734866" lon="11.311903293063803"><ele>220.99999999999997</ele><time>2026-04-29T15:02:24Z</time></trkpt><trkpt lat="43.952702746099106" lon="11.311763871140272"><ele>221.99999999999997</ele><time>2026-04-29T15:02:25Z</time></trkpt><trkpt lat="43.95269354881413" lon="11.311650709118455"><ele>223.0</ele><time>2026-04-29T15:02:26Z</time></trkpt><trkpt lat="43.952709982694046" lon="11.311546334142616"><ele>224.0</ele><time>2026-04-29T15:02:27Z</time></trkpt><trkpt lat="43.95275409031047" lon="11.311443839210437"><ele>225.0</ele><time>2026-04-29T15:02:28Z</time></trkpt><trkpt lat="43.95279745667628" lon="11.311304814506098"><ele>225.99999999999997</ele><time>2026-04-29T15:02:29Z</time></trkpt><trkpt lat="43.95279785822406" lon="11.311160995936865"><ele>226.99999999999997</ele><time>2026-04-29T15:02:30Z</time></trkpt><trkpt lat="43.95276039064255" lon="11.311026636051878"><ele>228.0</ele><time>2026-04-29T15:02:31Z</time></trkpt><trkpt lat="43.95267801413033" lon="11.310898657742671"><ele>229.0</ele><time>2026-04-29T15:02:32Z</time></trkpt><trkpt lat="43.95257147735046" lon="11.310763085645041"><ele>229.0</ele><time>2026-04-29T15:02:33Z</time></trkpt><trkpt lat="43.95246684500975" lon="11.310615564703538"><ele>229.0</ele><time>2026-04-29T15:02:34Z</time></trkpt><trkpt lat="43.952446309715704" lon="11.310358623868355"><ele>229.0</ele><time>2026-04-29T15:02:35Z</time></trkpt><trkpt lat="43.95239064776269" lon="11.310092881131935"><ele>229.0</ele><time>2026-04-29T15:02:36Z</time></trkpt><trkpt lat="43.952346339256074" lon="11.309811755796787"><ele>229.0</ele><time>2026-04-29T15:02:37Z</time></trkpt><trkpt lat="43.95229091657402" lon="11.30952210945068"><ele>229.0</ele><time>2026-04-29T15:02:38Z</time></trkpt><trkpt lat="43.95224105875824" lon="11.3092459639101"><ele>233.0</ele><time>2026-04-29T15:02:39Z</time></trkpt><trkpt lat="43.95218653328627" lon="11.308943794532258"><ele>237.0</ele><time>2026-04-29T15:02:40Z</time></trkpt><trkpt lat="43.95214477695008" lon="11.308605287363921"><ele>238.33333333333331</ele><time>2026-04-29T15:02:41Z</time></trkpt><trkpt lat="43.952096045534915" lon="11.308299348131005"><ele>239.66666666666666</ele><time>2026-04-29T15:02:42Z</time></trkpt><trkpt lat="43.95206309290934" lon="11.308022519633846"><ele>241.0</ele><time>2026-04-29T15:02:43Z</time></trkpt><trkpt lat="43.95209264608685" lon="11.30775980093149"><ele>241.0</ele><time>2026-04-29T15:02:44Z</time></trkpt><trkpt lat="43.952161611260415" lon="11.307530294753617"><ele>241.0</ele><time>2026-04-29T15:02:45Z</time></trkpt><trkpt lat="43.95227702662658" lon="11.307375118394216"><ele>241.0</ele><time>2026-04-29T15:02:46Z</time></trkpt><trkpt lat="43.95238122104492" lon="11.307235608360253"><ele>241.66666666666666</ele><time>2026-04-29T15:02:47Z</time></trkpt><trkpt lat="43.952513598101824" lon="11.307143843620572"><ele>242.33333333333331</ele><time>2026-04-29T15:02:48Z</time></trkpt><trkpt lat="43.95268873673665" lon="11.307013124420282"><ele>243.0</ele><time>2026-04-29T15:02:49Z</time></trkpt><trkpt lat="43.9528697486114" lon="11.306865004140132"><ele>246.33333333333331</ele><time>2026-04-29T15:02:50Z</time></trkpt><trkpt lat="43.953066698245514" lon="11.306707199223723"><ele>249.66666666666666</ele><time>2026-04-29T15:02:51Z</time></trkpt><trkpt lat="43.953230180860025" lon="11.306582640359641"><ele>253.0</ele><time>2026-04-29T15:02:52Z</time></trkpt><trkpt lat="43.95338025540319" lon="11.306480835468838"><ele>253.66666666666666</ele><time>2026-04-29T15:02:53Z</time></trkpt><trkpt lat="43.953541737320705" lon="11.306417673536629"><ele>254.33333333333331</ele><time>2026-04-29T15:02:54Z</time></trkpt><trkpt lat="43.95369504393739" lon="11.30638459936517"><ele>255.0</ele><time>2026-04-29T15:02:55Z</time></trkpt><trkpt lat="43.95385353732102" lon="11.306364499093977"><ele>255.0</ele><time>2026-04-29T15:02:56Z</time></trkpt><trkpt lat="43.95401984643254" lon="11.306359446090658"><ele>255.0</ele><time>2026-04-29T15:02:57Z</time></trkpt><trkpt lat="43.9542105304907" lon="11.306348913771453"><ele>255.0</ele><time>2026-04-29T15:02:58Z</time></trkpt><trkpt lat="43.95441507598593" lon="11.306286731447463"><ele>255.33333333333331</ele><time>2026-04-29T15:02:59Z</time></trkpt><trkpt lat="43.95460838056775" lon="11.30620888733871"><ele>255.66666666666666</ele><time>2026-04-29T15:03:00Z</time></trkpt><trkpt lat="43.95481216993329" lon="11.306092981469254"><ele>256.0</ele><time>2026-04-29T15:03:01Z</time></trkpt><trkpt lat="43.95497664123504" lon="11.305996020901667"><ele>254.0</ele><time>2026-04-29T15:03:02Z</time></trkpt><trkpt lat="43.95514160922473" lon="11.305904008452028"><ele>252.0</ele><time>2026-04-29T15:03:03Z</time></trkpt><trkpt lat="43.95529591761306" lon="11.305816515618005"><ele>250.0</ele><time>2026-04-29T15:03:04Z</time></trkpt><trkpt lat="43.95543409987841" lon="11.30576891300956"><ele>250.0</ele><time>2026-04-29T15:03:05Z</time></trkpt><trkpt lat="43.955561629781755" lon="11.305758153097925"><ele>250.0</ele><time>2026-04-29T15:03:06Z</time></trkpt><trkpt lat="43.95570305918779" lon="11.30581442959414"><ele>250.0</ele><time>2026-04-29T15:03:07Z</time></trkpt><trkpt lat="43.9558548839666" lon="11.305947947338847"><ele>246.0</ele><time>2026-04-29T15:03:08Z</time></trkpt><trkpt lat="43.95604817515583" lon="11.306078801694898"><ele>242.0</ele><time>2026-04-29T15:03:09Z</time></trkpt><trkpt lat="43.9562495639819" lon="11.306182600109775"><ele>238.0</ele><time>2026-04-29T15:03:10Z</time></trkpt><trkpt lat="43.95645711567587" lon="11.306248213352719"><ele>235.5</ele><time>2026-04-29T15:03:11Z</time></trkpt><trkpt lat="43.95670505010982" lon="11.306256365324053"><ele>233.0</ele><time>2026-04-29T15:03:12Z</time></trkpt><trkpt lat="43.95696816973432" lon="11.306211584654285"><ele>233.0</ele><time>2026-04-29T15:03:13Z</time></trkpt><trkpt lat="43.957235072845016" lon="11.306165857256547"><ele>233.0</ele><time>2026-04-29T15:03:14Z</time></trkpt><trkpt lat="43.957481328114646" lon="11.306137318901742"><ele>232.5</ele><time>2026-04-29T15:03:15Z</time></trkpt><trkpt lat="43.957727613632066" lon="11.306111952462354"><ele>232.0</ele><time>2026-04-29T15:03:16Z</time></trkpt><trkpt lat="43.9579680940255" lon="11.306078509141987"><ele>232.0</ele><time>2026-04-29T15:03:17Z</time></trkpt><trkpt lat="43.95819482911282" lon="11.30604740838249"><ele>232.0</ele><time>2026-04-29T15:03:18Z</time></trkpt><trkpt lat="43.95841640268413" lon="11.306031973951242"><ele>230.0</ele><time>2026-04-29T15:03:19Z</time></trkpt><trkpt lat="43.95862807755172" lon="11.306014747538743"><ele>228.0</ele><time>2026-04-29T15:03:20Z</time></trkpt><trkpt lat="43.95883732876261" lon="11.305974401875744"><ele>226.0</ele><time>2026-04-29T15:03:21Z</time></trkpt><trkpt lat="43.95904218127296" lon="11.305899524843287"><ele>226.33333333333331</ele><time>2026-04-29T15:03:22Z</time></trkpt><trkpt lat="43.95924014814819" lon="11.305789910830299"><ele>226.66666666666669</ele><time>2026-04-29T15:03:23Z</time></trkpt><trkpt lat="43.95943396560962" lon="11.305696103169668"><ele>227.0</ele><time>2026-04-29T15:03:24Z</time></trkpt><trkpt lat="43.959621220657326" lon="11.30560260135764"><ele>224.66666666666669</ele><time>2026-04-29T15:03:25Z</time></trkpt><trkpt lat="43.95980494296562" lon="11.305500054884725"><ele>222.33333333333331</ele><time>2026-04-29T15:03:26Z</time></trkpt><trkpt lat="43.959982315890386" lon="11.30538407494282"><ele>220.0</ele><time>2026-04-29T15:03:27Z</time></trkpt><trkpt lat="43.96014821657041" lon="11.305257145917112"><ele>219.66666666666666</ele><time>2026-04-29T15:03:28Z</time></trkpt><trkpt lat="43.96031906560739" lon="11.305113807378346"><ele>219.33333333333331</ele><time>2026-04-29T15:03:29Z</time></trkpt><trkpt lat="43.96048462846732" lon="11.304953206381304"><ele>219.0</ele><time>2026-04-29T15:03:30Z</time></trkpt><trkpt lat="43.9606290271768" lon="11.304775426108998"><ele>217.0</ele><time>2026-04-29T15:03:31Z</time></trkpt><trkpt lat="43.96075683874881" lon="11.304580797535266"><ele>215.0</ele><time>2026-04-29T15:03:32Z</time></trkpt><trkpt lat="43.960867638365514" lon="11.30436731626421"><ele>213.0</ele><time>2026-04-29T15:03:33Z</time></trkpt><trkpt lat="43.96096885137808" lon="11.304132466103683"><ele>213.0</ele><time>2026-04-29T15:03:34Z</time></trkpt><trkpt lat="43.96108528564453" lon="11.303948204004278"><ele>213.0</ele><time>2026-04-29T15:03:35Z</time></trkpt><trkpt lat="43.96119683113803" lon="11.303740552870675"><ele>213.0</ele><time>2026-04-29T15:03:36Z</time></trkpt><trkpt lat="43.961309125983185" lon="11.303540947497314"><ele>213.0</ele><time>2026-04-29T15:03:37Z</time></trkpt><trkpt lat="43.96141867736544" lon="11.303359730744406"><ele>213.0</ele><time>2026-04-29T15:03:38Z</time></trkpt><trkpt lat="43.96151856540512" lon="11.3031861525877"><ele>213.0</ele><time>2026-04-29T15:03:39Z</time></trkpt><trkpt lat="43.9616119697334" lon="11.303023730305329"><ele>212.5</ele><time>2026-04-29T15:03:40Z</time></trkpt><trkpt lat="43.96169993261592" lon="11.302872218818168"><ele>212.0</ele><time>2026-04-29T15:03:41Z</time></trkpt><trkpt lat="43.96178681114078" lon="11.302722939165077"><ele>211.5</ele><time>2026-04-29T15:03:42Z</time></trkpt><trkpt lat="43.961866644714696" lon="11.302577250639159"><ele>211.0</ele><time>2026-04-29T15:03:43Z</time></trkpt><trkpt lat="43.96194426305064" lon="11.30241948199003"><ele>212.25</ele><time>2026-04-29T15:03:44Z</time></trkpt><trkpt lat="43.96203278015729" lon="11.302246071944635"><ele>213.5</ele><time>2026-04-29T15:03:45Z</time></trkpt><trkpt lat="43.96213351936154" lon="11.302100070505787"><ele>214.75</ele><time>2026-04-29T15:03:46Z</time></trkpt><trkpt lat="43.962245508735" lon="11.301987945020315"><ele>216.0</ele><time>2026-04-29T15:03:47Z</time></trkpt><trkpt lat="43.96237182398257" lon="11.301917761688133"><ele>216.0</ele><time>2026-04-29T15:03:48Z</time></trkpt><trkpt lat="43.9625088665254" lon="11.301904517002377"><ele>216.0</ele><time>2026-04-29T15:03:49Z</time></trkpt><trkpt lat="43.96265071239039" lon="11.301867773692404"><ele>216.0</ele><time>2026-04-29T15:03:50Z</time></trkpt><trkpt lat="43.96278968057056" lon="11.301860262839236"><ele>216.0</ele><time>2026-04-29T15:03:51Z</time></trkpt><trkpt lat="43.96291090520665" lon="11.301844067157818"><ele>215.75</ele><time>2026-04-29T15:03:52Z</time></trkpt><trkpt lat="43.963020153163534" lon="11.301821465803311"><ele>215.5</ele><time>2026-04-29T15:03:53Z</time></trkpt><trkpt lat="43.96311991514377" lon="11.301776771685919"><ele>215.25</ele><time>2026-04-29T15:03:54Z</time></trkpt><trkpt lat="43.96322733509684" lon="11.301693845029583"><ele>215.0</ele><time>2026-04-29T15:03:55Z</time></trkpt><trkpt lat="43.963334245064594" lon="11.301575483227431"><ele>215.0</ele><time>2026-04-29T15:03:56Z</time></trkpt><trkpt lat="43.96342696140867" lon="11.301448714940516"><ele>215.0</ele><time>2026-04-29T15:03:57Z</time></trkpt><trkpt lat="43.96353596788541" lon="11.301312481366761"><ele>215.0</ele><time>2026-04-29T15:03:58Z</time></trkpt><trkpt lat="43.96367224007348" lon="11.301138625901501"><ele>215.0</ele><time>2026-04-29T15:03:59Z</time></trkpt><trkpt lat="43.96382833094385" lon="11.300941307248813"><ele>215.0</ele><time>2026-04-29T15:04:00Z</time></trkpt><trkpt lat="43.96396500961462" lon="11.300741940938122"><ele>215.0</ele><time>2026-04-29T15:04:01Z</time></trkpt><trkpt lat="43.96409666783905" lon="11.300592094550172"><ele>215.0</ele><time>2026-04-29T15:04:02Z</time></trkpt><trkpt lat="43.96420687164941" lon="11.300463441532907"><ele>215.0</ele><time>2026-04-29T15:04:03Z</time></trkpt><trkpt lat="43.9643046548046" lon="11.300345099766153"><ele>215.0</ele><time>2026-04-29T15:04:04Z</time></trkpt><trkpt lat="43.96439695167247" lon="11.300225034047058"><ele>215.0</ele><time>2026-04-29T15:04:05Z</time></trkpt><trkpt lat="43.96448883119137" lon="11.300110601862283"><ele>215.0</ele><time>2026-04-29T15:04:06Z</time></trkpt><trkpt lat="43.964581480210114" lon="11.299992699467676"><ele>215.0</ele><time>2026-04-29T15:04:07Z</time></trkpt><trkpt lat="43.96467362806765" lon="11.299872818790956"><ele>215.0</ele><time>2026-04-29T15:04:08Z</time></trkpt><trkpt lat="43.96475958569703" lon="11.299755511386302"><ele>215.0</ele><time>2026-04-29T15:04:09Z</time></trkpt><trkpt lat="43.96483940543691" lon="11.299639220245368"><ele>215.5</ele><time>2026-04-29T15:04:10Z</time></trkpt><trkpt lat="43.964908972483464" lon="11.29951653550208"><ele>216.0</ele><time>2026-04-29T15:04:11Z</time></trkpt><trkpt lat="43.96496027229793" lon="11.299379219966614"><ele>216.5</ele><time>2026-04-29T15:04:12Z</time></trkpt><trkpt lat="43.96498888091177" lon="11.299208395064687"><ele>217.0</ele><time>2026-04-29T15:04:13Z</time></trkpt><trkpt lat="43.96499737583502" lon="11.299029099993323"><ele>217.66666666666666</ele><time>2026-04-29T15:04:14Z</time></trkpt><trkpt lat="43.964978461772866" lon="11.29883216176672"><ele>218.33333333333331</ele><time>2026-04-29T15:04:15Z</time></trkpt><trkpt lat="43.964955377425134" lon="11.298618710771878"><ele>219.0</ele><time>2026-04-29T15:04:16Z</time></trkpt><trkpt lat="43.96493536173693" lon="11.29836718123543"><ele>219.0</ele><time>2026-04-29T15:04:17Z</time></trkpt><trkpt lat="43.964924452101535" lon="11.298085267221676"><ele>219.0</ele><time>2026-04-29T15:04:18Z</time></trkpt><trkpt lat="43.96491346945635" lon="11.297802455470094"><ele>219.0</ele><time>2026-04-29T15:04:19Z</time></trkpt><trkpt lat="43.96489474575142" lon="11.297495781794812"><ele>221.0</ele><time>2026-04-29T15:04:20Z</time></trkpt><trkpt lat="43.964874293108025" lon="11.297181213078119"><ele>223.0</ele><time>2026-04-29T15:04:21Z</time></trkpt><trkpt lat="43.96485669403131" lon="11.296888977164821"><ele>225.0</ele><time>2026-04-29T15:04:22Z</time></trkpt><trkpt lat="43.96484174144479" lon="11.296629476650487"><ele>225.25</ele><time>2026-04-29T15:04:23Z</time></trkpt><trkpt lat="43.96483777949844" lon="11.296400999292343"><ele>225.5</ele><time>2026-04-29T15:04:24Z</time></trkpt><trkpt lat="43.96486818506385" lon="11.296220331139093"><ele>225.75</ele><time>2026-04-29T15:04:25Z</time></trkpt><trkpt lat="43.964946468128375" lon="11.29607331879191"><ele>226.0</ele><time>2026-04-29T15:04:26Z</time></trkpt><trkpt lat="43.9650797474299" lon="11.295935160087046"><ele>226.0</ele><time>2026-04-29T15:04:27Z</time></trkpt><trkpt lat="43.96524797792238" lon="11.295788022287812"><ele>226.0</ele><time>2026-04-29T15:04:28Z</time></trkpt><trkpt lat="43.96541962498384" lon="11.295613193357918"><ele>226.0</ele><time>2026-04-29T15:04:29Z</time></trkpt><trkpt lat="43.96559946088817" lon="11.29542775924602"><ele>226.5</ele><time>2026-04-29T15:04:30Z</time></trkpt><trkpt lat="43.96579097486996" lon="11.29525062865455"><ele>227.0</ele><time>2026-04-29T15:04:31Z</time></trkpt><trkpt lat="43.965996227198744" lon="11.295075273536419"><ele>227.0</ele><time>2026-04-29T15:04:32Z</time></trkpt><trkpt lat="43.966207151289474" lon="11.294891596569036"><ele>227.0</ele><time>2026-04-29T15:04:33Z</time></trkpt><trkpt lat="43.96642230946263" lon="11.294704094997273"><ele>227.0</ele><time>2026-04-29T15:04:34Z</time></trkpt><trkpt lat="43.96662843740953" lon="11.294520471317897"><ele>227.0</ele><time>2026-04-29T15:04:35Z</time></trkpt><trkpt lat="43.96682276787587" lon="11.294346773877574"><ele>225.5</ele><time>2026-04-29T15:04:36Z</time></trkpt><trkpt lat="43.96701688113069" lon="11.294174209565696"><ele>224.0</ele><time>2026-04-29T15:04:37Z</time></trkpt><trkpt lat="43.9672141229708" lon="11.293998038197945"><ele>224.5</ele><time>2026-04-29T15:04:38Z</time></trkpt><trkpt lat="43.96741049411416" lon="11.293826110293168"><ele>225.0</ele><time>2026-04-29T15:04:39Z</time></trkpt><trkpt lat="43.96760492784357" lon="11.293658562704621"><ele>225.0</ele><time>2026-04-29T15:04:40Z</time></trkpt><trkpt lat="43.9677971493956" lon="11.293488657799545"><ele>225.0</ele><time>2026-04-29T15:04:41Z</time></trkpt><trkpt lat="43.96798723535753" lon="11.293311985201749"><ele>225.0</ele><time>2026-04-29T15:04:42Z</time></trkpt><trkpt lat="43.96817910647308" lon="11.293142709213818"><ele>225.0</ele><time>2026-04-29T15:04:43Z</time></trkpt><trkpt lat="43.968374234272254" lon="11.292971310834305"><ele>224.5</ele><time>2026-04-29T15:04:44Z</time></trkpt><trkpt lat="43.96856649983368" lon="11.292800579192077"><ele>224.0</ele><time>2026-04-29T15:04:45Z</time></trkpt><trkpt lat="43.968756468147824" lon="11.292630461883473"><ele>224.0</ele><time>2026-04-29T15:04:46Z</time></trkpt><trkpt lat="43.96895057559885" lon="11.29245530668032"><ele>224.0</ele><time>2026-04-29T15:04:47Z</time></trkpt><trkpt lat="43.96914563119522" lon="11.292282914432304"><ele>224.0</ele><time>2026-04-29T15:04:48Z</time></trkpt><trkpt lat="43.969338978617124" lon="11.292113956077808"><ele>224.0</ele><time>2026-04-29T15:04:49Z</time></trkpt><trkpt lat="43.969524625918254" lon="11.291949341297881"><ele>224.0</ele><time>2026-04-29T15:04:50Z</time></trkpt><trkpt lat="43.96971645275222" lon="11.291774166285066"><ele>224.0</ele><time>2026-04-29T15:04:51Z</time></trkpt><trkpt lat="43.969901987701995" lon="11.29160204721009"><ele>224.0</ele><time>2026-04-29T15:04:52Z</time></trkpt><trkpt lat="43.97008942888799" lon="11.291429679419442"><ele>224.0</ele><time>2026-04-29T15:04:53Z</time></trkpt><trkpt lat="43.97028146418822" lon="11.291266282701743"><ele>223.5</ele><time>2026-04-29T15:04:54Z</time></trkpt><trkpt lat="43.97047299641037" lon="11.291097175758543"><ele>223.0</ele><time>2026-04-29T15:04:55Z</time></trkpt><trkpt lat="43.97066334639242" lon="11.290933932762641"><ele>223.0</ele><time>2026-04-29T15:04:56Z</time></trkpt><trkpt lat="43.970857147797716" lon="11.290758581527422"><ele>223.0</ele><time>2026-04-29T15:04:57Z</time></trkpt><trkpt lat="43.971054535764175" lon="11.290583887828554"><ele>222.5</ele><time>2026-04-29T15:04:58Z</time></trkpt><trkpt lat="43.97125158159963" lon="11.29040692967769"><ele>222.0</ele><time>2026-04-29T15:04:59Z</time></trkpt><trkpt lat="43.97144900360985" lon="11.290233107007998"><ele>222.0</ele><time>2026-04-29T15:05:00Z</time></trkpt><trkpt lat="43.971645759024845" lon="11.290060579846505"><ele>222.0</ele><time>2026-04-29T15:05:01Z</time></trkpt><trkpt lat="43.971833163848814" lon="11.289892271195923"><ele>222.0</ele><time>2026-04-29T15:05:02Z</time></trkpt><trkpt lat="43.97200937707684" lon="11.289739856291192"><ele>222.0</ele><time>2026-04-29T15:05:03Z</time></trkpt><trkpt lat="43.97217078893245" lon="11.289599651332804"><ele>222.0</ele><time>2026-04-29T15:05:04Z</time></trkpt><trkpt lat="43.97232409268327" lon="11.289459794155356"><ele>222.0</ele><time>2026-04-29T15:05:05Z</time></trkpt><trkpt lat="43.97247307331245" lon="11.289329750736398"><ele>222.0</ele><time>2026-04-29T15:05:06Z</time></trkpt><trkpt lat="43.97260501098764" lon="11.289212591028642"><ele>222.0</ele><time>2026-04-29T15:05:07Z</time></trkpt><trkpt lat="43.97272107545001" lon="11.289111934330485"><ele>222.0</ele><time>2026-04-29T15:05:08Z</time></trkpt><trkpt lat="43.97282313895484" lon="11.289063626577326"><ele>222.0</ele><time>2026-04-29T15:05:09Z</time></trkpt><trkpt lat="43.972915573042776" lon="11.289068933675766"><ele>222.0</ele><time>2026-04-29T15:05:10Z</time></trkpt><trkpt lat="43.972996487845016" lon="11.289132517440448"><ele>222.0</ele><time>2026-04-29T15:05:11Z</time></trkpt><trkpt lat="43.97309560254041" lon="11.289165713387684"><ele>222.0</ele><time>2026-04-29T15:05:12Z</time></trkpt><trkpt lat="43.973195949839486" lon="11.289181030707587"><ele>222.0</ele><time>2026-04-29T15:05:13Z</time></trkpt><trkpt lat="43.97330123084105" lon="11.289124449128535"><ele>222.0</ele><time>2026-04-29T15:05:14Z</time></trkpt><trkpt lat="43.97339096198696" lon="11.289036938998919"><ele>222.0</ele><time>2026-04-29T15:05:15Z</time></trkpt><trkpt lat="43.973444041458876" lon="11.288855053802449"><ele>222.0</ele><time>2026-04-29T15:05:16Z</time></trkpt><trkpt lat="43.97345038884501" lon="11.288662924843477"><ele>222.0</ele><time>2026-04-29T15:05:17Z</time></trkpt><trkpt lat="43.9736088294501" lon="11.288535861304508"><ele>222.0</ele><time>2026-04-29T15:05:18Z</time></trkpt><trkpt lat="43.973761453790246" lon="11.28844617791095"><ele>222.0</ele><time>2026-04-29T15:05:19Z</time></trkpt><trkpt lat="43.97395141771757" lon="11.288387658741973"><ele>222.0</ele><time>2026-04-29T15:05:20Z</time></trkpt><trkpt lat="43.97415377321983" lon="11.288321165318155"><ele>222.0</ele><time>2026-04-29T15:05:21Z</time></trkpt><trkpt lat="43.97435972646612" lon="11.288255563380066"><ele>222.0</ele><time>2026-04-29T15:05:22Z</time></trkpt><trkpt lat="43.97458014547989" lon="11.288195566299557"><ele>223.0</ele><time>2026-04-29T15:05:23Z</time></trkpt><trkpt lat="43.97480447944295" lon="11.288156275514837"><ele>224.0</ele><time>2026-04-29T15:05:24Z</time></trkpt><trkpt lat="43.97503085590542" lon="11.288125817000443"><ele>222.0</ele><time>2026-04-29T15:05:25Z</time></trkpt><trkpt lat="43.97526351993864" lon="11.288105499455252"><ele>220.0</ele><time>2026-04-29T15:05:26Z</time></trkpt><trkpt lat="43.97549962079317" lon="11.288097431037302"><ele>220.0</ele><time>2026-04-29T15:05:27Z</time></trkpt><trkpt lat="43.97573266452413" lon="11.288104796550561"><ele>220.0</ele><time>2026-04-29T15:05:28Z</time></trkpt><trkpt lat="43.975968703898786" lon="11.288131410775096"><ele>221.0</ele><time>2026-04-29T15:05:29Z</time></trkpt><trkpt lat="43.97620097616478" lon="11.288166113307366"><ele>222.0</ele><time>2026-04-29T15:05:30Z</time></trkpt><trkpt lat="43.976433492310626" lon="11.288213832107742"><ele>222.0</ele><time>2026-04-29T15:05:31Z</time></trkpt><trkpt lat="43.97666710577719" lon="11.288262215078056"><ele>222.0</ele><time>2026-04-29T15:05:32Z</time></trkpt><trkpt lat="43.976901981398655" lon="11.288307865905253"><ele>225.0</ele><time>2026-04-29T15:05:33Z</time></trkpt><trkpt lat="43.97713962859404" lon="11.288345724815528"><ele>228.0</ele><time>2026-04-29T15:05:34Z</time></trkpt><trkpt lat="43.97738852896632" lon="11.28838537187877"><ele>230.0</ele><time>2026-04-29T15:05:35Z</time></trkpt><trkpt lat="43.97763569910278" lon="11.288428150119648"><ele>232.0</ele><time>2026-04-29T15:05:36Z</time></trkpt><trkpt lat="43.97788547648979" lon="11.28846694459157"><ele>232.0</ele><time>2026-04-29T15:05:37Z</time></trkpt><trkpt lat="43.978135111998306" lon="11.288495577711467"><ele>232.0</ele><time>2026-04-29T15:05:38Z</time></trkpt><trkpt lat="43.97838496502641" lon="11.288515795843308"><ele>234.5</ele><time>2026-04-29T15:05:39Z</time></trkpt><trkpt lat="43.97863640192598" lon="11.288521170824428"><ele>237.0</ele><time>2026-04-29T15:05:40Z</time></trkpt><trkpt lat="43.978888669873264" lon="11.288514966182243"><ele>237.0</ele><time>2026-04-29T15:05:41Z</time></trkpt><trkpt lat="43.97913904972273" lon="11.288499034901312"><ele>237.0</ele><time>2026-04-29T15:05:42Z</time></trkpt><trkpt lat="43.979392174546376" lon="11.288473161098477"><ele>238.0</ele><time>2026-04-29T15:05:43Z</time></trkpt><trkpt lat="43.979638595443426" lon="11.2884282667997"><ele>239.0</ele><time>2026-04-29T15:05:44Z</time></trkpt><trkpt lat="43.97988636211081" lon="11.288363135303541"><ele>242.0</ele><time>2026-04-29T15:05:45Z</time></trkpt><trkpt lat="43.980126936133864" lon="11.288278599058366"><ele>245.0</ele><time>2026-04-29T15:05:46Z</time></trkpt><trkpt lat="43.9803637136957" lon="11.288171271167634"><ele>244.5</ele><time>2026-04-29T15:05:47Z</time></trkpt><trkpt lat="43.98058865157689" lon="11.288031451000743"><ele>244.0</ele><time>2026-04-29T15:05:48Z</time></trkpt><trkpt lat="43.98080466668784" lon="11.287864103857482"><ele>246.5</ele><time>2026-04-29T15:05:49Z</time></trkpt><trkpt lat="43.981009038170704" lon="11.287675379568704"><ele>249.0</ele><time>2026-04-29T15:05:50Z</time></trkpt><trkpt lat="43.9812047357562" lon="11.287462207654466"><ele>246.0</ele><time>2026-04-29T15:05:51Z</time></trkpt><trkpt lat="43.98138641055042" lon="11.287234158693717"><ele>243.0</ele><time>2026-04-29T15:05:52Z</time></trkpt><trkpt lat="43.981566372768846" lon="11.286999883113806"><ele>245.5</ele><time>2026-04-29T15:05:53Z</time></trkpt><trkpt lat="43.98173743657159" lon="11.286753242642783"><ele>248.0</ele><time>2026-04-29T15:05:54Z</time></trkpt><trkpt lat="43.98189537511629" lon="11.286490035226196"><ele>249.5</ele><time>2026-04-29T15:05:55Z</time></trkpt><trkpt lat="43.98203285123231" lon="11.286209882728569"><ele>251.0</ele><time>2026-04-29T15:05:56Z</time></trkpt><trkpt lat="43.98216279495342" lon="11.28591543043381"><ele>251.0</ele><time>2026-04-29T15:05:57Z</time></trkpt><trkpt lat="43.98227503345372" lon="11.285608824097636"><ele>251.0</ele><time>2026-04-29T15:05:58Z</time></trkpt><trkpt lat="43.98237430832922" lon="11.285286194711611"><ele>253.0</ele><time>2026-04-29T15:05:59Z</time></trkpt><trkpt lat="43.98246059674532" lon="11.284955186697692"><ele>255.0</ele><time>2026-04-29T15:06:00Z</time></trkpt><trkpt lat="43.98253093719407" lon="11.284615165715257"><ele>262.5</ele><time>2026-04-29T15:06:01Z</time></trkpt><trkpt lat="43.98259147538528" lon="11.284266642940334"><ele>270.0</ele><time>2026-04-29T15:06:02Z</time></trkpt><trkpt lat="43.98263779738624" lon="11.283912942732577"><ele>271.0</ele><time>2026-04-29T15:06:03Z</time></trkpt><trkpt lat="43.98267093564998" lon="11.283557808553953"><ele>272.0</ele><time>2026-04-29T15:06:04Z</time></trkpt><trkpt lat="43.98269907658456" lon="11.283214333156824"><ele>272.5</ele><time>2026-04-29T15:06:05Z</time></trkpt><trkpt lat="43.982711557581084" lon="11.28283887434732"><ele>273.0</ele><time>2026-04-29T15:06:06Z</time></trkpt><trkpt lat="43.982721490364504" lon="11.282479131287943"><ele>275.0</ele><time>2026-04-29T15:06:07Z</time></trkpt><trkpt lat="43.982726544276154" lon="11.282125932438165"><ele>277.0</ele><time>2026-04-29T15:06:08Z</time></trkpt><trkpt lat="43.98275694302376" lon="11.281787920571166"><ele>277.0</ele><time>2026-04-29T15:06:09Z</time></trkpt><trkpt lat="43.98272400776875" lon="11.281448145533869"><ele>277.0</ele><time>2026-04-29T15:06:10Z</time></trkpt><trkpt lat="43.98272630769764" lon="11.281113266869006"><ele>276.5</ele><time>2026-04-29T15:06:11Z</time></trkpt><trkpt lat="43.98273779512775" lon="11.280774216233564"><ele>276.0</ele><time>2026-04-29T15:06:12Z</time></trkpt><trkpt lat="43.98276796026794" lon="11.280437164161091"><ele>264.5</ele><time>2026-04-29T15:06:13Z</time></trkpt><trkpt lat="43.98282207393791" lon="11.280103448384562"><ele>253.0</ele><time>2026-04-29T15:06:14Z</time></trkpt><trkpt lat="43.982895037937844" lon="11.27976765461308"><ele>248.5</ele><time>2026-04-29T15:06:15Z</time></trkpt><trkpt lat="43.98297299136223" lon="11.279437093976078"><ele>244.0</ele><time>2026-04-29T15:06:16Z</time></trkpt><trkpt lat="43.98304878697106" lon="11.279101796808812"><ele>242.5</ele><time>2026-04-29T15:06:17Z</time></trkpt><trkpt lat="43.983122044215136" lon="11.27876540121522"><ele>241.0</ele><time>2026-04-29T15:06:18Z</time></trkpt><trkpt lat="43.98319245992932" lon="11.278425502153341"><ele>241.0</ele><time>2026-04-29T15:06:19Z</time></trkpt><trkpt lat="43.983262286243566" lon="11.278082659837853"><ele>241.0</ele><time>2026-04-29T15:06:20Z</time></trkpt><trkpt lat="43.98333179400241" lon="11.277743787345203"><ele>241.0</ele><time>2026-04-29T15:06:21Z</time></trkpt><trkpt lat="43.983403613636625" lon="11.277407032624003"><ele>241.0</ele><time>2026-04-29T15:06:22Z</time></trkpt><trkpt lat="43.98347698812134" lon="11.277072077145053"><ele>245.5</ele><time>2026-04-29T15:06:23Z</time></trkpt><trkpt lat="43.98354421028751" lon="11.276735585390629"><ele>250.0</ele><time>2026-04-29T15:06:24Z</time></trkpt><trkpt lat="43.98360619684822" lon="11.276419306110215"><ele>261.0</ele><time>2026-04-29T15:06:25Z</time></trkpt><trkpt lat="43.983667653776465" lon="11.276111564499233"><ele>272.0</ele><time>2026-04-29T15:06:26Z</time></trkpt><trkpt lat="43.98373361536687" lon="11.275812108396028"><ele>272.6666666666667</ele><time>2026-04-29T15:06:27Z</time></trkpt><trkpt lat="43.983802036242196" lon="11.275526665976749"><ele>273.3333333333333</ele><time>2026-04-29T15:06:28Z</time></trkpt><trkpt lat="43.98388302090064" lon="11.27525252788169"><ele>274.0</ele><time>2026-04-29T15:06:29Z</time></trkpt><trkpt lat="43.98398663306001" lon="11.274992935983605"><ele>273.3333333333333</ele><time>2026-04-29T15:06:30Z</time></trkpt><trkpt lat="43.98410734437462" lon="11.274761213131935"><ele>272.6666666666667</ele><time>2026-04-29T15:06:31Z</time></trkpt><trkpt lat="43.98422927731622" lon="11.274562444461377"><ele>272.0</ele><time>2026-04-29T15:06:32Z</time></trkpt><trkpt lat="43.9843515250939" lon="11.27438277235098"><ele>275.6666666666667</ele><time>2026-04-29T15:06:33Z</time></trkpt><trkpt lat="43.98447699869159" lon="11.274230477699183"><ele>279.3333333333333</ele><time>2026-04-29T15:06:34Z</time></trkpt><trkpt lat="43.98460549338024" lon="11.274109106434574"><ele>283.0</ele><time>2026-04-29T15:06:35Z</time></trkpt><trkpt lat="43.984725026294065" lon="11.274015826245963"><ele>283.0</ele><time>2026-04-29T15:06:36Z</time></trkpt><trkpt lat="43.98483945938205" lon="11.273936596639201"><ele>283.0</ele><time>2026-04-29T15:06:37Z</time></trkpt><trkpt lat="43.984947784844884" lon="11.27386377455631"><ele>283.0</ele><time>2026-04-29T15:06:38Z</time></trkpt><trkpt lat="43.98505753767153" lon="11.273791334919304"><ele>283.0</ele><time>2026-04-29T15:06:39Z</time></trkpt><trkpt lat="43.98518350349927" lon="11.27373024028814"><ele>283.0</ele><time>2026-04-29T15:06:40Z</time></trkpt><trkpt lat="43.985320620864364" lon="11.273680582491632"><ele>283.0</ele><time>2026-04-29T15:06:41Z</time></trkpt><trkpt lat="43.985456189365216" lon="11.273640124245295"><ele>283.0</ele><time>2026-04-29T15:06:42Z</time></trkpt><trkpt lat="43.985576303294486" lon="11.27360546005986"><ele>283.0</ele><time>2026-04-29T15:06:43Z</time></trkpt><trkpt lat="43.98568303343929" lon="11.273576981163961"><ele>283.0</ele><time>2026-04-29T15:06:44Z</time></trkpt><trkpt lat="43.985777920588184" lon="11.273535532411982"><ele>283.0</ele><time>2026-04-29T15:06:45Z</time></trkpt><trkpt lat="43.98585939192701" lon="11.27344450437903"><ele>283.0</ele><time>2026-04-29T15:06:46Z</time></trkpt><trkpt lat="43.98591265377722" lon="11.273317975310775"><ele>283.0</ele><time>2026-04-29T15:06:47Z</time></trkpt><trkpt lat="43.98592875748824" lon="11.273180434174494"><ele>283.0</ele><time>2026-04-29T15:06:48Z</time></trkpt><trkpt lat="43.985938105878525" lon="11.273048494355193"><ele>282.25</ele><time>2026-04-29T15:06:49Z</time></trkpt><trkpt lat="43.985983124508145" lon="11.272927809077327"><ele>281.5</ele><time>2026-04-29T15:06:50Z</time></trkpt><trkpt lat="43.98607684377747" lon="11.2728323814053"><ele>280.75</ele><time>2026-04-29T15:06:51Z</time></trkpt><trkpt lat="43.98621917537241" lon="11.272749868631085"><ele>280.0</ele><time>2026-04-29T15:06:52Z</time></trkpt><trkpt lat="43.98638322338255" lon="11.272672556975543"><ele>280.0</ele><time>2026-04-29T15:06:53Z</time></trkpt><trkpt lat="43.986553615606525" lon="11.272575257073399"><ele>280.0</ele><time>2026-04-29T15:06:54Z</time></trkpt><trkpt lat="43.986727494599464" lon="11.27246005766511"><ele>280.0</ele><time>2026-04-29T15:06:55Z</time></trkpt><trkpt lat="43.98690199674895" lon="11.272326017981257"><ele>278.66666666666663</ele><time>2026-04-29T15:06:56Z</time></trkpt><trkpt lat="43.98707431257521" lon="11.272177773914798"><ele>277.3333333333333</ele><time>2026-04-29T15:06:57Z</time></trkpt><trkpt lat="43.98723963682423" lon="11.271996998716952"><ele>276.0</ele><time>2026-04-29T15:06:58Z</time></trkpt><trkpt lat="43.98739628232353" lon="11.271796376184293"><ele>276.3333333333333</ele><time>2026-04-29T15:06:59Z</time></trkpt><trkpt lat="43.98754447042468" lon="11.271578228882058"><ele>276.66666666666663</ele><time>2026-04-29T15:07:00Z</time></trkpt><trkpt lat="43.98768214854574" lon="11.271350241776133"><ele>277.0</ele><time>2026-04-29T15:07:01Z</time></trkpt><trkpt lat="43.987823251250084" lon="11.27110583345288"><ele>274.0</ele><time>2026-04-29T15:07:02Z</time></trkpt><trkpt lat="43.98796142050463" lon="11.270856714377189"><ele>271.0</ele><time>2026-04-29T15:07:03Z</time></trkpt><trkpt lat="43.98808819643707" lon="11.270593915506595"><ele>270.66666666666663</ele><time>2026-04-29T15:07:04Z</time></trkpt><trkpt lat="43.98818959179602" lon="11.270332608149236"><ele>270.3333333333333</ele><time>2026-04-29T15:07:05Z</time></trkpt><trkpt lat="43.98827753463629" lon="11.270063301572085"><ele>270.0</ele><time>2026-04-29T15:07:06Z</time></trkpt><trkpt lat="43.98836358365724" lon="11.269796495695225"><ele>271.3333333333333</ele><time>2026-04-29T15:07:07Z</time></trkpt><trkpt lat="43.988447293623636" lon="11.269528311724935"><ele>272.66666666666663</ele><time>2026-04-29T15:07:08Z</time></trkpt><trkpt lat="43.98852498468501" lon="11.269263172871382"><ele>274.0</ele><time>2026-04-29T15:07:09Z</time></trkpt><trkpt lat="43.98857886314495" lon="11.268989470974978"><ele>276.3333333333333</ele><time>2026-04-29T15:07:10Z</time></trkpt><trkpt lat="43.98862093343358" lon="11.268720485798763"><ele>278.6666666666667</ele><time>2026-04-29T15:07:11Z</time></trkpt><trkpt lat="43.98865798402251" lon="11.268465748304347"><ele>281.0</ele><time>2026-04-29T15:07:12Z</time></trkpt><trkpt lat="43.98868725565436" lon="11.268199231144258"><ele>282.0</ele><time>2026-04-29T15:07:13Z</time></trkpt><trkpt lat="43.98870629528828" lon="11.267921310656169"><ele>283.0</ele><time>2026-04-29T15:07:14Z</time></trkpt><trkpt lat="43.98872075530796" lon="11.267651624839276"><ele>284.0</ele><time>2026-04-29T15:07:15Z</time></trkpt><trkpt lat="43.98873417115587" lon="11.267388822346915"><ele>283.6666666666667</ele><time>2026-04-29T15:07:16Z</time></trkpt><trkpt lat="43.988742831158255" lon="11.267131968492764"><ele>283.3333333333333</ele><time>2026-04-29T15:07:17Z</time></trkpt><trkpt lat="43.98874929202692" lon="11.26687121899624"><ele>283.0</ele><time>2026-04-29T15:07:18Z</time></trkpt><trkpt lat="43.98875136115147" lon="11.266609742897478"><ele>282.3333333333333</ele><time>2026-04-29T15:07:19Z</time></trkpt><trkpt lat="43.98874848385039" lon="11.266341817131385"><ele>281.6666666666667</ele><time>2026-04-29T15:07:20Z</time></trkpt><trkpt lat="43.988747035740936" lon="11.266069725207933"><ele>281.0</ele><time>2026-04-29T15:07:21Z</time></trkpt><trkpt lat="43.98874256856737" lon="11.265802051015966"><ele>278.6666666666667</ele><time>2026-04-29T15:07:22Z</time></trkpt><trkpt lat="43.988734704216164" lon="11.265528336634759"><ele>276.3333333333333</ele><time>2026-04-29T15:07:23Z</time></trkpt><trkpt lat="43.988720831942125" lon="11.265251020173814"><ele>274.0</ele><time>2026-04-29T15:07:24Z</time></trkpt><trkpt lat="43.98870449602557" lon="11.264956063515296"><ele>270.66666666666663</ele><time>2026-04-29T15:07:25Z</time></trkpt><trkpt lat="43.98869328423311" lon="11.264648329646025"><ele>267.3333333333333</ele><time>2026-04-29T15:07:26Z</time></trkpt><trkpt lat="43.98868590500558" lon="11.264341657820234"><ele>264.0</ele><time>2026-04-29T15:07:27Z</time></trkpt><trkpt lat="43.98867255420371" lon="11.264040251813528"><ele>258.3333333333333</ele><time>2026-04-29T15:07:28Z</time></trkpt><trkpt lat="43.98864965274014" lon="11.263759924987884"><ele>252.66666666666666</ele><time>2026-04-29T15:07:29Z</time></trkpt><trkpt lat="43.98861943268474" lon="11.263484219343775"><ele>247.0</ele><time>2026-04-29T15:07:30Z</time></trkpt><trkpt lat="43.98857616515127" lon="11.263209509870668"><ele>246.33333333333331</ele><time>2026-04-29T15:07:31Z</time></trkpt><trkpt lat="43.98853028701324" lon="11.262922711902002"><ele>245.66666666666669</ele><time>2026-04-29T15:07:32Z</time></trkpt><trkpt lat="43.98847980712814" lon="11.262629533627749"><ele>245.0</ele><time>2026-04-29T15:07:33Z</time></trkpt><trkpt lat="43.98842647182385" lon="11.262338977921178"><ele>246.33333333333334</ele><time>2026-04-29T15:07:34Z</time></trkpt><trkpt lat="43.988369615768974" lon="11.262048978579852"><ele>247.66666666666669</ele><time>2026-04-29T15:07:35Z</time></trkpt><trkpt lat="43.98831053034168" lon="11.261761940300415"><ele>249.0</ele><time>2026-04-29T15:07:36Z</time></trkpt><trkpt lat="43.98824868609547" lon="11.261472555038232"><ele>254.0</ele><time>2026-04-29T15:07:37Z</time></trkpt><trkpt lat="43.988180439498905" lon="11.261190641971815"><ele>259.0</ele><time>2026-04-29T15:07:38Z</time></trkpt><trkpt lat="43.98810856045407" lon="11.260903183975577"><ele>264.0</ele><time>2026-04-29T15:07:39Z</time></trkpt><trkpt lat="43.98804088683173" lon="11.260618762479101"><ele>265.0</ele><time>2026-04-29T15:07:40Z</time></trkpt><trkpt lat="43.98797692991721" lon="11.260347020811624"><ele>266.0</ele><time>2026-04-29T15:07:41Z</time></trkpt><trkpt lat="43.98791627476521" lon="11.260091309567724"><ele>267.0</ele><time>2026-04-29T15:07:42Z</time></trkpt><trkpt lat="43.987856448765505" lon="11.259848516415095"><ele>270.3333333333333</ele><time>2026-04-29T15:07:43Z</time></trkpt><trkpt lat="43.987794761380314" lon="11.259602921443921"><ele>273.66666666666663</ele><time>2026-04-29T15:07:44Z</time></trkpt><trkpt lat="43.987740502226" lon="11.259378222378428"><ele>277.0</ele><time>2026-04-29T15:07:45Z</time></trkpt><trkpt lat="43.987692562241904" lon="11.259165200031385"><ele>277.0</ele><time>2026-04-29T15:07:46Z</time></trkpt><trkpt lat="43.98765237659628" lon="11.258967557091363"><ele>277.0</ele><time>2026-04-29T15:07:47Z</time></trkpt><trkpt lat="43.98761708750552" lon="11.258782109137298"><ele>277.0</ele><time>2026-04-29T15:07:48Z</time></trkpt><trkpt lat="43.987590363218885" lon="11.258617187652632"><ele>277.0</ele><time>2026-04-29T15:07:49Z</time></trkpt><trkpt lat="43.987568176979934" lon="11.258457716029941"><ele>279.5</ele><time>2026-04-29T15:07:50Z</time></trkpt><trkpt lat="43.98754935761811" lon="11.25828515373838"><ele>282.0</ele><time>2026-04-29T15:07:51Z</time></trkpt><trkpt lat="43.98753431134078" lon="11.25808540378094"><ele>284.5</ele><time>2026-04-29T15:07:52Z</time></trkpt><trkpt lat="43.98752841188515" lon="11.25785974908661"><ele>287.0</ele><time>2026-04-29T15:07:53Z</time></trkpt><trkpt lat="43.987535068062144" lon="11.257607940486137"><ele>289.33333333333337</ele><time>2026-04-29T15:07:54Z</time></trkpt><trkpt lat="43.98755322560908" lon="11.257349426361781"><ele>291.6666666666667</ele><time>2026-04-29T15:07:55Z</time></trkpt><trkpt lat="43.98758138028782" lon="11.257082883365136"><ele>294.0</ele><time>2026-04-29T15:07:56Z</time></trkpt><trkpt lat="43.98762799348335" lon="11.256800015772654"><ele>294.3333333333333</ele><time>2026-04-29T15:07:57Z</time></trkpt><trkpt lat="43.987690865107176" lon="11.256529704046763"><ele>294.66666666666663</ele><time>2026-04-29T15:07:58Z</time></trkpt><trkpt lat="43.98776692250716" lon="11.256251999637122"><ele>295.0</ele><time>2026-04-29T15:07:59Z</time></trkpt><trkpt lat="43.9878537139923" lon="11.255973481539153"><ele>293.66666666666663</ele><time>2026-04-29T15:08:00Z</time></trkpt><trkpt lat="43.987961488243386" lon="11.255707870080437"><ele>292.3333333333333</ele><time>2026-04-29T15:08:01Z</time></trkpt><trkpt lat="43.9880849128017" lon="11.255458583785282"><ele>291.0</ele><time>2026-04-29T15:08:02Z</time></trkpt><trkpt lat="43.98821899365056" lon="11.25522149537055"><ele>291.3333333333333</ele><time>2026-04-29T15:08:03Z</time></trkpt><trkpt lat="43.988351283083524" lon="11.255009916279787"><ele>291.66666666666663</ele><time>2026-04-29T15:08:04Z</time></trkpt><trkpt lat="43.988483157425726" lon="11.254816478040778"><ele>292.0</ele><time>2026-04-29T15:08:05Z</time></trkpt><trkpt lat="43.988624869377304" lon="11.254632431753844"><ele>290.3333333333333</ele><time>2026-04-29T15:08:06Z</time></trkpt><trkpt lat="43.98877924075901" lon="11.254443091923706"><ele>288.6666666666667</ele><time>2026-04-29T15:08:07Z</time></trkpt><trkpt lat="43.988944008656524" lon="11.254250412931997"><ele>287.0</ele><time>2026-04-29T15:08:08Z</time></trkpt><trkpt lat="43.989120234727146" lon="11.254049324970357"><ele>287.5</ele><time>2026-04-29T15:08:09Z</time></trkpt><trkpt lat="43.989295636468476" lon="11.253852444705506"><ele>288.0</ele><time>2026-04-29T15:08:10Z</time></trkpt><trkpt lat="43.989471089616174" lon="11.253645043256482"><ele>288.0</ele><time>2026-04-29T15:08:11Z</time></trkpt><trkpt lat="43.98964664814975" lon="11.253438412050036"><ele>288.0</ele><time>2026-04-29T15:08:12Z</time></trkpt><trkpt lat="43.98982119097948" lon="11.253236747941314"><ele>288.5</ele><time>2026-04-29T15:08:13Z</time></trkpt><trkpt lat="43.98999387163978" lon="11.253035491152273"><ele>289.0</ele><time>2026-04-29T15:08:14Z</time></trkpt><trkpt lat="43.99016586228682" lon="11.252831287447181"><ele>289.0</ele><time>2026-04-29T15:08:15Z</time></trkpt><trkpt lat="43.99033333763214" lon="11.252641326042818"><ele>289.0</ele><time>2026-04-29T15:08:16Z</time></trkpt><trkpt lat="43.99049555504605" lon="11.252449360419627"><ele>289.0</ele><time>2026-04-29T15:08:17Z</time></trkpt><trkpt lat="43.99065129011434" lon="11.252254451514368"><ele>288.3333333333333</ele><time>2026-04-29T15:08:18Z</time></trkpt><trkpt lat="43.990805122801014" lon="11.252060895945105"><ele>287.6666666666667</ele><time>2026-04-29T15:08:19Z</time></trkpt><trkpt lat="43.990954548595106" lon="11.251875715809035"><ele>287.0</ele><time>2026-04-29T15:08:20Z</time></trkpt><trkpt lat="43.9910997736425" lon="11.251705295147552"><ele>287.0</ele><time>2026-04-29T15:08:21Z</time></trkpt><trkpt lat="43.99124603305307" lon="11.251541021978241"><ele>287.0</ele><time>2026-04-29T15:08:22Z</time></trkpt><trkpt lat="43.9913929839081" lon="11.251374253204165"><ele>287.0</ele><time>2026-04-29T15:08:23Z</time></trkpt><trkpt lat="43.99153877853345" lon="11.25119219733186"><ele>285.33333333333337</ele><time>2026-04-29T15:08:24Z</time></trkpt><trkpt lat="43.99169157827922" lon="11.250998392356255"><ele>283.6666666666667</ele><time>2026-04-29T15:08:25Z</time></trkpt><trkpt lat="43.99183640826577" lon="11.250806755359422"><ele>282.0</ele><time>2026-04-29T15:08:26Z</time></trkpt><trkpt lat="43.99197595323357" lon="11.250613474135463"><ele>279.3333333333333</ele><time>2026-04-29T15:08:27Z</time></trkpt><trkpt lat="43.99210969171211" lon="11.250420585126262"><ele>276.66666666666663</ele><time>2026-04-29T15:08:28Z</time></trkpt><trkpt lat="43.992227818173966" lon="11.250214260501961"><ele>274.0</ele><time>2026-04-29T15:08:29Z</time></trkpt><trkpt lat="43.99232942675917" lon="11.249995662975824"><ele>274.66666666666663</ele><time>2026-04-29T15:08:30Z</time></trkpt><trkpt lat="43.99242371117828" lon="11.249769723039787"><ele>275.3333333333333</ele><time>2026-04-29T15:08:31Z</time></trkpt><trkpt lat="43.99250127106667" lon="11.24953981143788"><ele>276.0</ele><time>2026-04-29T15:08:32Z</time></trkpt><trkpt lat="43.99254779560368" lon="11.24933119286116"><ele>276.0</ele><time>2026-04-29T15:08:33Z</time></trkpt><trkpt lat="43.99261703235288" lon="11.249078319409895"><ele>276.0</ele><time>2026-04-29T15:08:34Z</time></trkpt><trkpt lat="43.99265751248804" lon="11.248836776253313"><ele>276.0</ele><time>2026-04-29T15:08:35Z</time></trkpt><trkpt lat="43.992693200046716" lon="11.248591340160642"><ele>274.3333333333333</ele><time>2026-04-29T15:08:36Z</time></trkpt><trkpt lat="43.99272106130609" lon="11.248350504334883"><ele>272.66666666666663</ele><time>2026-04-29T15:08:37Z</time></trkpt><trkpt lat="43.99273076170133" lon="11.248102926994365"><ele>271.0</ele><time>2026-04-29T15:08:38Z</time></trkpt><trkpt lat="43.99272724248317" lon="11.247852644595223"><ele>269.66666666666663</ele><time>2026-04-29T15:08:39Z</time></trkpt><trkpt lat="43.99271089165199" lon="11.247600715700052"><ele>268.3333333333333</ele><time>2026-04-29T15:08:40Z</time></trkpt><trkpt lat="43.99268421069091" lon="11.247343514009424"><ele>267.0</ele><time>2026-04-29T15:08:41Z</time></trkpt><trkpt lat="43.99264274975865" lon="11.247093147749583"><ele>265.0</ele><time>2026-04-29T15:08:42Z</time></trkpt><trkpt lat="43.992575249563366" lon="11.246845816543487"><ele>263.0</ele><time>2026-04-29T15:08:43Z</time></trkpt><trkpt lat="43.992509554616966" lon="11.246586667248124"><ele>261.0</ele><time>2026-04-29T15:08:44Z</time></trkpt><trkpt lat="43.992430716711006" lon="11.246344450634863"><ele>259.6666666666667</ele><time>2026-04-29T15:08:45Z</time></trkpt><trkpt lat="43.99234766317507" lon="11.246111529707688"><ele>258.33333333333337</ele><time>2026-04-29T15:08:46Z</time></trkpt><trkpt lat="43.99225780507408" lon="11.245876789849003"><ele>257.0</ele><time>2026-04-29T15:08:47Z</time></trkpt><trkpt lat="43.99215387928042" lon="11.245657073880002"><ele>256.0</ele><time>2026-04-29T15:08:48Z</time></trkpt><trkpt lat="43.99205493286819" lon="11.245443362984657"><ele>255.0</ele><time>2026-04-29T15:08:49Z</time></trkpt><trkpt lat="43.99196469136943" lon="11.245234897028265"><ele>254.0</ele><time>2026-04-29T15:08:50Z</time></trkpt><trkpt lat="43.99187594730433" lon="11.245024510134852"><ele>254.0</ele><time>2026-04-29T15:08:51Z</time></trkpt><trkpt lat="43.99178087712849" lon="11.244805251050465"><ele>254.0</ele><time>2026-04-29T15:08:52Z</time></trkpt><trkpt lat="43.99167529404452" lon="11.24457124827177"><ele>254.0</ele><time>2026-04-29T15:08:53Z</time></trkpt><trkpt lat="43.991562524574604" lon="11.24431510746643"><ele>253.0</ele><time>2026-04-29T15:08:54Z</time></trkpt><trkpt lat="43.991451928871456" lon="11.244054858701649"><ele>252.0</ele><time>2026-04-29T15:08:55Z</time></trkpt><trkpt lat="43.991349403638296" lon="11.2438070091545"><ele>251.0</ele><time>2026-04-29T15:08:56Z</time></trkpt><trkpt lat="43.99123473372159" lon="11.243546111696347"><ele>250.33333333333334</ele><time>2026-04-29T15:08:57Z</time></trkpt><trkpt lat="43.991121521768065" lon="11.243275414351624"><ele>249.66666666666669</ele><time>2026-04-29T15:08:58Z</time></trkpt><trkpt lat="43.99101826552532" lon="11.243024094882626"><ele>249.0</ele><time>2026-04-29T15:08:59Z</time></trkpt><trkpt lat="43.99091373563362" lon="11.242789015854333"><ele>251.33333333333331</ele><time>2026-04-29T15:09:00Z</time></trkpt><trkpt lat="43.99081057220169" lon="11.242559935326748"><ele>253.66666666666666</ele><time>2026-04-29T15:09:01Z</time></trkpt><trkpt lat="43.99070829171148" lon="11.24232198163149"><ele>256.0</ele><time>2026-04-29T15:09:02Z</time></trkpt><trkpt lat="43.990605600674" lon="11.242077057893626"><ele>256.3333333333333</ele><time>2026-04-29T15:09:03Z</time></trkpt><trkpt lat="43.990503512402896" lon="11.241842647132472"><ele>256.6666666666667</ele><time>2026-04-29T15:09:04Z</time></trkpt><trkpt lat="43.99040496100084" lon="11.241622418768632"><ele>257.0</ele><time>2026-04-29T15:09:05Z</time></trkpt><trkpt lat="43.99030889826554" lon="11.241398806017946"><ele>257.33333333333337</ele><time>2026-04-29T15:09:06Z</time></trkpt><trkpt lat="43.9902177398319" lon="11.241182855786493"><ele>257.6666666666667</ele><time>2026-04-29T15:09:07Z</time></trkpt><trkpt lat="43.99012592077898" lon="11.240968451447173"><ele>258.0</ele><time>2026-04-29T15:09:08Z</time></trkpt><trkpt lat="43.990032543150235" lon="11.240750728050221"><ele>258.0</ele><time>2026-04-29T15:09:09Z</time></trkpt><trkpt lat="43.98993397984651" lon="11.240525393822955"><ele>258.0</ele><time>2026-04-29T15:09:10Z</time></trkpt><trkpt lat="43.989831023643006" lon="11.24028887225964"><ele>258.0</ele><time>2026-04-29T15:09:11Z</time></trkpt><trkpt lat="43.989720045310655" lon="11.240036143136141"><ele>258.5</ele><time>2026-04-29T15:09:12Z</time></trkpt><trkpt lat="43.98960462197009" lon="11.239761143681195"><ele>259.0</ele><time>2026-04-29T15:09:13Z</time></trkpt><trkpt lat="43.98949007501527" lon="11.239489070408922"><ele>259.0</ele><time>2026-04-29T15:09:14Z</time></trkpt><trkpt lat="43.989383967947965" lon="11.239236036046895"><ele>259.0</ele><time>2026-04-29T15:09:15Z</time></trkpt><trkpt lat="43.98927835797395" lon="11.238987993494543"><ele>259.0</ele><time>2026-04-29T15:09:16Z</time></trkpt><trkpt lat="43.98918137879953" lon="11.238735350393226"><ele>258.66666666666663</ele><time>2026-04-29T15:09:17Z</time></trkpt><trkpt lat="43.989100798543014" lon="11.238459882654416"><ele>258.3333333333333</ele><time>2026-04-29T15:09:18Z</time></trkpt><trkpt lat="43.98903821829127" lon="11.238183412914776"><ele>258.0</ele><time>2026-04-29T15:09:19Z</time></trkpt><trkpt lat="43.988990457095625" lon="11.237916821474084"><ele>258.0</ele><time>2026-04-29T15:09:20Z</time></trkpt><trkpt lat="43.98895710695564" lon="11.237653483072215"><ele>258.0</ele><time>2026-04-29T15:09:21Z</time></trkpt><trkpt lat="43.98893578398843" lon="11.237382631701195"><ele>258.0</ele><time>2026-04-29T15:09:22Z</time></trkpt><trkpt lat="43.98892915257209" lon="11.2371128448555"><ele>258.3333333333333</ele><time>2026-04-29T15:09:23Z</time></trkpt><trkpt lat="43.98893909053235" lon="11.236841588783728"><ele>258.66666666666663</ele><time>2026-04-29T15:09:24Z</time></trkpt><trkpt lat="43.988961487708494" lon="11.23658710277792"><ele>259.0</ele><time>2026-04-29T15:09:25Z</time></trkpt><trkpt lat="43.988992451178206" lon="11.236348149813328"><ele>259.66666666666663</ele><time>2026-04-29T15:09:26Z</time></trkpt><trkpt lat="43.98902845988904" lon="11.236121476358338"><ele>260.3333333333333</ele><time>2026-04-29T15:09:27Z</time></trkpt><trkpt lat="43.989073475238975" lon="11.235908019271061"><ele>261.0</ele><time>2026-04-29T15:09:28Z</time></trkpt><trkpt lat="43.98912775158474" lon="11.23571178382342"><ele>261.0</ele><time>2026-04-29T15:09:29Z</time></trkpt><trkpt lat="43.98919181180351" lon="11.235523790340707"><ele>261.0</ele><time>2026-04-29T15:09:30Z</time></trkpt><trkpt lat="43.98926382902944" lon="11.235337981099233"><ele>261.0</ele><time>2026-04-29T15:09:31Z</time></trkpt><trkpt lat="43.989338605092236" lon="11.23513396422613"><ele>261.0</ele><time>2026-04-29T15:09:32Z</time></trkpt><trkpt lat="43.98941514194138" lon="11.234925194063512"><ele>261.0</ele><time>2026-04-29T15:09:33Z</time></trkpt><trkpt lat="43.98948492313466" lon="11.234733247786323"><ele>261.0</ele><time>2026-04-29T15:09:34Z</time></trkpt><trkpt lat="43.98954718946411" lon="11.234570770643542"><ele>260.75</ele><time>2026-04-29T15:09:35Z</time></trkpt><trkpt lat="43.98961075301132" lon="11.234413852428188"><ele>260.5</ele><time>2026-04-29T15:09:36Z</time></trkpt><trkpt lat="43.98967191585308" lon="11.234262372251651"><ele>260.25</ele><time>2026-04-29T15:09:37Z</time></trkpt><trkpt lat="43.98973175758474" lon="11.2341067686223"><ele>260.0</ele><time>2026-04-29T15:09:38Z</time></trkpt><trkpt lat="43.98979657565003" lon="11.233937879264046"><ele>259.75</ele><time>2026-04-29T15:09:39Z</time></trkpt><trkpt lat="43.98986707088779" lon="11.233768068181744"><ele>259.5</ele><time>2026-04-29T15:09:40Z</time></trkpt><trkpt lat="43.9899377001206" lon="11.233587928860603"><ele>259.25</ele><time>2026-04-29T15:09:41Z</time></trkpt><trkpt lat="43.9900104107373" lon="11.233400478728846"><ele>259.0</ele><time>2026-04-29T15:09:42Z</time></trkpt><trkpt lat="43.990085079045286" lon="11.233209544517042"><ele>259.66666666666663</ele><time>2026-04-29T15:09:43Z</time></trkpt><trkpt lat="43.99016668610273" lon="11.233010785970416"><ele>260.3333333333333</ele><time>2026-04-29T15:09:44Z</time></trkpt><trkpt lat="43.99024729292418" lon="11.232808894341437"><ele>261.0</ele><time>2026-04-29T15:09:45Z</time></trkpt><trkpt lat="43.99033091730022" lon="11.232587758802456"><ele>261.0</ele><time>2026-04-29T15:09:46Z</time></trkpt><trkpt lat="43.99040853313165" lon="11.232352060469664"><ele>261.0</ele><time>2026-04-29T15:09:47Z</time></trkpt><trkpt lat="43.99047639539981" lon="11.23210229697158"><ele>261.0</ele><time>2026-04-29T15:09:48Z</time></trkpt><trkpt lat="43.99052694783029" lon="11.23184367593775"><ele>260.6666666666667</ele><time>2026-04-29T15:09:49Z</time></trkpt><trkpt lat="43.99056368392277" lon="11.231568895480892"><ele>260.33333333333337</ele><time>2026-04-29T15:09:50Z</time></trkpt><trkpt lat="43.99058402162068" lon="11.23128958755626"><ele>260.0</ele><time>2026-04-29T15:09:51Z</time></trkpt><trkpt lat="43.99059338893189" lon="11.231013262039719"><ele>260.33333333333337</ele><time>2026-04-29T15:09:52Z</time></trkpt><trkpt lat="43.990588115334724" lon="11.230739754135925"><ele>260.6666666666667</ele><time>2026-04-29T15:09:53Z</time></trkpt><trkpt lat="43.99056914448077" lon="11.230464909051788"><ele>261.0</ele><time>2026-04-29T15:09:54Z</time></trkpt><trkpt lat="43.99052924069502" lon="11.230178614686258"><ele>261.0</ele><time>2026-04-29T15:09:55Z</time></trkpt><trkpt lat="43.99047033484442" lon="11.229897434168695"><ele>261.0</ele><time>2026-04-29T15:09:56Z</time></trkpt><trkpt lat="43.99039715915461" lon="11.229626902310084"><ele>261.0</ele><time>2026-04-29T15:09:57Z</time></trkpt><trkpt lat="43.99031759652451" lon="11.22937008679822"><ele>261.3333333333333</ele><time>2026-04-29T15:09:58Z</time></trkpt><trkpt lat="43.990228039822064" lon="11.229126464992042"><ele>261.66666666666663</ele><time>2026-04-29T15:09:59Z</time></trkpt><trkpt lat="43.990127782549685" lon="11.22889598522759"><ele>262.0</ele><time>2026-04-29T15:10:00Z</time></trkpt><trkpt lat="43.990013961169005" lon="11.228681996703065"><ele>264.3333333333333</ele><time>2026-04-29T15:10:01Z</time></trkpt><trkpt lat="43.98989460539988" lon="11.228477929446907"><ele>266.6666666666667</ele><time>2026-04-29T15:10:02Z</time></trkpt><trkpt lat="43.98976632997402" lon="11.2282914012491"><ele>269.0</ele><time>2026-04-29T15:10:03Z</time></trkpt><trkpt lat="43.98963061667129" lon="11.228136541365599"><ele>270.0</ele><time>2026-04-29T15:10:04Z</time></trkpt><trkpt lat="43.989486126988666" lon="11.227991381386033"><ele>271.0</ele><time>2026-04-29T15:10:05Z</time></trkpt><trkpt lat="43.989343920711505" lon="11.227853403987453"><ele>272.0</ele><time>2026-04-29T15:10:06Z</time></trkpt><trkpt lat="43.989206934237984" lon="11.227738213642949"><ele>272.6666666666667</ele><time>2026-04-29T15:10:07Z</time></trkpt><trkpt lat="43.9890682987753" lon="11.227638363601361"><ele>273.3333333333333</ele><time>2026-04-29T15:10:08Z</time></trkpt><trkpt lat="43.98892042456641" lon="11.227547260515705"><ele>274.0</ele><time>2026-04-29T15:10:09Z</time></trkpt><trkpt lat="43.988770555265944" lon="11.227467045911366"><ele>274.0</ele><time>2026-04-29T15:10:10Z</time></trkpt><trkpt lat="43.988643390791545" lon="11.227406696183898"><ele>274.0</ele><time>2026-04-29T15:10:11Z</time></trkpt><trkpt lat="43.98850479059057" lon="11.227310700579421"><ele>274.0</ele><time>2026-04-29T15:10:12Z</time></trkpt><trkpt lat="43.988382339558434" lon="11.227236063458202"><ele>274.0</ele><time>2026-04-29T15:10:13Z</time></trkpt><trkpt lat="43.988263476864745" lon="11.227168740554246"><ele>275.75</ele><time>2026-04-29T15:10:14Z</time></trkpt><trkpt lat="43.98815145748852" lon="11.227106160190093"><ele>277.5</ele><time>2026-04-29T15:10:15Z</time></trkpt><trkpt lat="43.98803791430993" lon="11.227038333120971"><ele>279.25</ele><time>2026-04-29T15:10:16Z</time></trkpt><trkpt lat="43.98792514922568" lon="11.226967499076226"><ele>281.0</ele><time>2026-04-29T15:10:17Z</time></trkpt><trkpt lat="43.98780750349125" lon="11.226896055769744"><ele>281.0</ele><time>2026-04-29T15:10:18Z</time></trkpt><trkpt lat="43.987687940651014" lon="11.22681461569592"><ele>281.0</ele><time>2026-04-29T15:10:19Z</time></trkpt><trkpt lat="43.98757304671429" lon="11.226717688166628"><ele>281.0</ele><time>2026-04-29T15:10:20Z</time></trkpt><trkpt lat="43.98745779968913" lon="11.226606874553436"><ele>281.0</ele><time>2026-04-29T15:10:21.001Z</time></trkpt><trkpt lat="43.987348514534716" lon="11.226494277320349"><ele>282.25</ele><time>2026-04-29T15:10:22.001Z</time></trkpt><trkpt lat="43.98724834268133" lon="11.226383806243145"><ele>283.5</ele><time>2026-04-29T15:10:23Z</time></trkpt><trkpt lat="43.987154785484194" lon="11.226267341701313"><ele>284.75</ele><time>2026-04-29T15:10:24Z</time></trkpt><trkpt lat="43.98705815750635" lon="11.226137237093111"><ele>286.0</ele><time>2026-04-29T15:10:25Z</time></trkpt><trkpt lat="43.9869616269005" lon="11.226000431063055"><ele>286.0</ele><time>2026-04-29T15:10:26Z</time></trkpt><trkpt lat="43.986862922770406" lon="11.22586081420709"><ele>286.0</ele><time>2026-04-29T15:10:27Z</time></trkpt><trkpt lat="43.98677456035843" lon="11.225687468928015"><ele>286.0</ele><time>2026-04-29T15:10:28Z</time></trkpt><trkpt lat="43.98668953982328" lon="11.22555053159654"><ele>286.0</ele><time>2026-04-29T15:10:29Z</time></trkpt><trkpt lat="43.98661085602968" lon="11.225408172430662"><ele>285.75</ele><time>2026-04-29T15:10:30Z</time></trkpt><trkpt lat="43.98653367629595" lon="11.22527551418329"><ele>285.5</ele><time>2026-04-29T15:10:31Z</time></trkpt><trkpt lat="43.98645724751264" lon="11.225151617270342"><ele>285.25</ele><time>2026-04-29T15:10:32Z</time></trkpt><trkpt lat="43.98638595878078" lon="11.225022129093832"><ele>285.0</ele><time>2026-04-29T15:10:33Z</time></trkpt><trkpt lat="43.98630332993205" lon="11.22488216899917"><ele>284.25</ele><time>2026-04-29T15:10:34Z</time></trkpt><trkpt lat="43.986215765026614" lon="11.224734010028945"><ele>283.5</ele><time>2026-04-29T15:10:35Z</time></trkpt><trkpt lat="43.98612458483149" lon="11.224573182054328"><ele>282.75</ele><time>2026-04-29T15:10:36Z</time></trkpt><trkpt lat="43.98603542934059" lon="11.224409195615209"><ele>282.0</ele><time>2026-04-29T15:10:37Z</time></trkpt><trkpt lat="43.9859489551842" lon="11.22425169755398"><ele>282.0</ele><time>2026-04-29T15:10:38Z</time></trkpt><trkpt lat="43.98586802686311" lon="11.22410174167144"><ele>282.0</ele><time>2026-04-29T15:10:39Z</time></trkpt><trkpt lat="43.985788873772826" lon="11.223955330132988"><ele>282.0</ele><time>2026-04-29T15:10:40Z</time></trkpt><trkpt lat="43.98570842970041" lon="11.223815212891793"><ele>282.0</ele><time>2026-04-29T15:10:41Z</time></trkpt><trkpt lat="43.985638492751505" lon="11.223672364620016"><ele>280.5</ele><time>2026-04-29T15:10:42Z</time></trkpt><trkpt lat="43.985573343335126" lon="11.223528716724411"><ele>279.0</ele><time>2026-04-29T15:10:43Z</time></trkpt><trkpt lat="43.98552416892211" lon="11.223375537908607"><ele>277.5</ele><time>2026-04-29T15:10:44Z</time></trkpt><trkpt lat="43.98550811839791" lon="11.223216406041969"><ele>276.0</ele><time>2026-04-29T15:10:45Z</time></trkpt><trkpt lat="43.98553443708721" lon="11.223059484474687"><ele>275.6</ele><time>2026-04-29T15:10:46Z</time></trkpt><trkpt lat="43.985566808923004" lon="11.222924377113397"><ele>275.20000000000005</ele><time>2026-04-29T15:10:47Z</time></trkpt><trkpt lat="43.98560307202516" lon="11.222786820663012"><ele>274.79999999999995</ele><time>2026-04-29T15:10:48Z</time></trkpt><trkpt lat="43.98563363406074" lon="11.22266780056713"><ele>274.4</ele><time>2026-04-29T15:10:49Z</time></trkpt><trkpt lat="43.985662002983446" lon="11.222547940287846"><ele>274.0</ele><time>2026-04-29T15:10:50Z</time></trkpt><trkpt lat="43.98569175182242" lon="11.222443417440045"><ele>274.0</ele><time>2026-04-29T15:10:51Z</time></trkpt><trkpt lat="43.985734191554336" lon="11.22235058195886"><ele>274.0</ele><time>2026-04-29T15:10:52Z</time></trkpt><trkpt lat="43.98577430723024" lon="11.22226039907408"><ele>274.0</ele><time>2026-04-29T15:10:53Z</time></trkpt><trkpt lat="43.98577899542927" lon="11.222152855175427"><ele>274.0</ele><time>2026-04-29T15:10:54Z</time></trkpt><trkpt lat="43.985743207332135" lon="11.222040929446655"><ele>274.0</ele><time>2026-04-29T15:10:55Z</time></trkpt><trkpt lat="43.98567904063212" lon="11.221967364756102"><ele>274.0</ele><time>2026-04-29T15:10:56Z</time></trkpt><trkpt lat="43.98559586796562" lon="11.221947279030585"><ele>274.0</ele><time>2026-04-29T15:10:57Z</time></trkpt><trkpt lat="43.98551239376316" lon="11.221984337510671"><ele>274.0</ele><time>2026-04-29T15:10:58Z</time></trkpt><trkpt lat="43.985441023708546" lon="11.222074086264044"><ele>274.0</ele><time>2026-04-29T15:10:59Z</time></trkpt><trkpt lat="43.985399347407494" lon="11.222207460479739"><ele>274.0</ele><time>2026-04-29T15:11:00Z</time></trkpt><trkpt lat="43.98540167542861" lon="11.222379859731697"><ele>274.0</ele><time>2026-04-29T15:11:01Z</time></trkpt><trkpt lat="43.98528872820446" lon="11.222536376409273"><ele>274.0</ele><time>2026-04-29T15:11:02Z</time></trkpt><trkpt lat="43.98516980253866" lon="11.222686390769514"><ele>274.0</ele><time>2026-04-29T15:11:03Z</time></trkpt><trkpt lat="43.98506466623456" lon="11.222835562215028"><ele>274.0</ele><time>2026-04-29T15:11:04Z</time></trkpt><trkpt lat="43.98498838181947" lon="11.222950424333671"><ele>274.0</ele><time>2026-04-29T15:11:05Z</time></trkpt><trkpt lat="43.98491455592523" lon="11.22304333652166"><ele>274.2</ele><time>2026-04-29T15:11:06Z</time></trkpt><trkpt lat="43.98483487011687" lon="11.22312853038648"><ele>274.4</ele><time>2026-04-29T15:11:07Z</time></trkpt><trkpt lat="43.98474027058045" lon="11.223183830857511"><ele>274.6</ele><time>2026-04-29T15:11:08Z</time></trkpt><trkpt lat="43.98463868469218" lon="11.223214083191568"><ele>274.8</ele><time>2026-04-29T15:11:09Z</time></trkpt><trkpt lat="43.9845304939616" lon="11.223213775770551"><ele>275.0</ele><time>2026-04-29T15:11:10Z</time></trkpt><trkpt lat="43.984403528114576" lon="11.22317352151518"><ele>274.25</ele><time>2026-04-29T15:11:11Z</time></trkpt><trkpt lat="43.98428748617334" lon="11.22307020264014"><ele>273.5</ele><time>2026-04-29T15:11:12Z</time></trkpt><trkpt lat="43.98415388089669" lon="11.22302746721719"><ele>272.75</ele><time>2026-04-29T15:11:13Z</time></trkpt><trkpt lat="43.98400120088152" lon="11.222999800279192"><ele>272.0</ele><time>2026-04-29T15:11:14Z</time></trkpt><trkpt lat="43.98383658899266" lon="11.222989370549449"><ele>272.0</ele><time>2026-04-29T15:11:15Z</time></trkpt><trkpt lat="43.98365954513657" lon="11.222994579269084"><ele>272.0</ele><time>2026-04-29T15:11:16Z</time></trkpt><trkpt lat="43.98347222007025" lon="11.223018523434824"><ele>272.0</ele><time>2026-04-29T15:11:17Z</time></trkpt><trkpt lat="43.98329183529047" lon="11.2230580148212"><ele>272.0</ele><time>2026-04-29T15:11:18Z</time></trkpt><trkpt lat="43.98312216500108" lon="11.223118055084363"><ele>272.0</ele><time>2026-04-29T15:11:19Z</time></trkpt><trkpt lat="43.9829631289742" lon="11.223192776675635"><ele>272.0</ele><time>2026-04-29T15:11:20Z</time></trkpt><trkpt lat="43.982796214815856" lon="11.223280020864829"><ele>272.0</ele><time>2026-04-29T15:11:21Z</time></trkpt><trkpt lat="43.98261718353975" lon="11.2233987435657"><ele>272.0</ele><time>2026-04-29T15:11:22Z</time></trkpt><trkpt lat="43.98243749972282" lon="11.223530233595628"><ele>272.0</ele><time>2026-04-29T15:11:23Z</time></trkpt><trkpt lat="43.98226562727585" lon="11.223662453553178"><ele>272.6666666666667</ele><time>2026-04-29T15:11:24Z</time></trkpt><trkpt lat="43.982100882067364" lon="11.223754058442793"><ele>273.3333333333333</ele><time>2026-04-29T15:11:25Z</time></trkpt><trkpt lat="43.981956968411325" lon="11.223852773853503"><ele>274.0</ele><time>2026-04-29T15:11:26Z</time></trkpt><trkpt lat="43.981828214456165" lon="11.223934436828849"><ele>274.0</ele><time>2026-04-29T15:11:27Z</time></trkpt><trkpt lat="43.98170252528061" lon="11.22399697921227"><ele>274.0</ele><time>2026-04-29T15:11:28Z</time></trkpt><trkpt lat="43.98159097579486" lon="11.224029839437824"><ele>274.0</ele><time>2026-04-29T15:11:29Z</time></trkpt><trkpt lat="43.98148878551586" lon="11.224039354039775"><ele>274.0</ele><time>2026-04-29T15:11:30Z</time></trkpt><trkpt lat="43.98139114886788" lon="11.224038254125428"><ele>274.0</ele><time>2026-04-29T15:11:31Z</time></trkpt><trkpt lat="43.981309789948256" lon="11.224030240440449"><ele>272.25</ele><time>2026-04-29T15:11:32Z</time></trkpt><trkpt lat="43.981237078983334" lon="11.224178284335393"><ele>270.5</ele><time>2026-04-29T15:11:33Z</time></trkpt><trkpt lat="43.98118212975768" lon="11.224279772349407"><ele>268.75</ele><time>2026-04-29T15:11:34Z</time></trkpt><trkpt lat="43.9811408114311" lon="11.224419522189564"><ele>267.0</ele><time>2026-04-29T15:11:35Z</time></trkpt><trkpt lat="43.9811208692311" lon="11.224600396506466"><ele>267.0</ele><time>2026-04-29T15:11:36Z</time></trkpt><trkpt lat="43.981100715762814" lon="11.2248088114744"><ele>267.0</ele><time>2026-04-29T15:11:37Z</time></trkpt><trkpt lat="43.98105331803591" lon="11.225021746648174"><ele>267.0</ele><time>2026-04-29T15:11:38Z</time></trkpt><trkpt lat="43.980992329078326" lon="11.225222804100413"><ele>267.5</ele><time>2026-04-29T15:11:39Z</time></trkpt><trkpt lat="43.980936134409525" lon="11.225403840624509"><ele>268.0</ele><time>2026-04-29T15:11:40Z</time></trkpt><trkpt lat="43.98088133170152" lon="11.22556787211286"><ele>268.5</ele><time>2026-04-29T15:11:41Z</time></trkpt><trkpt lat="43.98081254116663" lon="11.225716299114135"><ele>269.0</ele><time>2026-04-29T15:11:42Z</time></trkpt><trkpt lat="43.98071867872768" lon="11.225826205312185"><ele>266.75</ele><time>2026-04-29T15:11:43Z</time></trkpt><trkpt lat="43.98061512219005" lon="11.225908601735295"><ele>264.5</ele><time>2026-04-29T15:11:44.001Z</time></trkpt><trkpt lat="43.980496203221065" lon="11.225972092589119"><ele>262.25</ele><time>2026-04-29T15:11:45.001Z</time></trkpt><trkpt lat="43.980356185097115" lon="11.225992962995749"><ele>260.0</ele><time>2026-04-29T15:11:46.001Z</time></trkpt><trkpt lat="43.98021443713062" lon="11.225974280018676"><ele>260.0</ele><time>2026-04-29T15:11:47.001Z</time></trkpt><trkpt lat="43.98006439084872" lon="11.225915621997256"><ele>260.0</ele><time>2026-04-29T15:11:48.001Z</time></trkpt><trkpt lat="43.97990200047399" lon="11.22582400326125"><ele>260.0</ele><time>2026-04-29T15:11:49.001Z</time></trkpt><trkpt lat="43.97974490037903" lon="11.225722183026736"><ele>260.0</ele><time>2026-04-29T15:11:50.001Z</time></trkpt><trkpt lat="43.97960189271041" lon="11.225630940700759"><ele>260.0</ele><time>2026-04-29T15:11:51.001Z</time></trkpt><trkpt lat="43.97945457438962" lon="11.225543300741535"><ele>260.0</ele><time>2026-04-29T15:11:52.001Z</time></trkpt><trkpt lat="43.979299410290764" lon="11.225462784566558"><ele>260.6666666666667</ele><time>2026-04-29T15:11:53.001Z</time></trkpt><trkpt lat="43.97914056503008" lon="11.225378511552774"><ele>261.3333333333333</ele><time>2026-04-29T15:11:54.001Z</time></trkpt><trkpt lat="43.97894281205866" lon="11.22525190684809"><ele>262.0</ele><time>2026-04-29T15:11:55.001Z</time></trkpt><trkpt lat="43.978727349207546" lon="11.225148525589095"><ele>262.0</ele><time>2026-04-29T15:11:56.001Z</time></trkpt><trkpt lat="43.978503364065986" lon="11.225046229192808"><ele>262.0</ele><time>2026-04-29T15:11:57.001Z</time></trkpt><trkpt lat="43.978256575653305" lon="11.224955563883663"><ele>264.0</ele><time>2026-04-29T15:11:58.001Z</time></trkpt><trkpt lat="43.97801950095288" lon="11.224839595209948"><ele>266.0</ele><time>2026-04-29T15:11:59.001Z</time></trkpt><trkpt lat="43.97777351731781" lon="11.22473791178253"><ele>269.0</ele><time>2026-04-29T15:12:00.001Z</time></trkpt><trkpt lat="43.977520155387076" lon="11.224638764655333"><ele>272.0</ele><time>2026-04-29T15:12:01.001Z</time></trkpt><trkpt lat="43.97726200176804" lon="11.22450737814499"><ele>275.5</ele><time>2026-04-29T15:12:02.001Z</time></trkpt><trkpt lat="43.977012876942304" lon="11.224422010606915"><ele>279.0</ele><time>2026-04-29T15:12:03.001Z</time></trkpt><trkpt lat="43.97679754313777" lon="11.224311138409577"><ele>279.0</ele><time>2026-04-29T15:12:04.001Z</time></trkpt><trkpt lat="43.97659873302173" lon="11.224226386585151"><ele>279.0</ele><time>2026-04-29T15:12:05.001Z</time></trkpt><trkpt lat="43.976428366105964" lon="11.224140074870888"><ele>279.0</ele><time>2026-04-29T15:12:06.001Z</time></trkpt><trkpt lat="43.97628198200237" lon="11.22402408504273"><ele>283.0</ele><time>2026-04-29T15:12:07.001Z</time></trkpt><trkpt lat="43.97617358773922" lon="11.223867653345472"><ele>287.0</ele><time>2026-04-29T15:12:08.001Z</time></trkpt><trkpt lat="43.976105380760295" lon="11.223674131606774"><ele>291.0</ele><time>2026-04-29T15:12:09.001Z</time></trkpt><trkpt lat="43.976089967092236" lon="11.223453218304881"><ele>291.0</ele><time>2026-04-29T15:12:10.001Z</time></trkpt><trkpt lat="43.97611636276645" lon="11.223199462054993"><ele>291.0</ele><time>2026-04-29T15:12:11.001Z</time></trkpt><trkpt lat="43.97614291597929" lon="11.22291473344436"><ele>291.0</ele><time>2026-04-29T15:12:12.001Z</time></trkpt><trkpt lat="43.976152352995605" lon="11.2225978124132"><ele>293.5</ele><time>2026-04-29T15:12:13.001Z</time></trkpt><trkpt lat="43.9761704547286" lon="11.222257444469777"><ele>296.0</ele><time>2026-04-29T15:12:14.001Z</time></trkpt><trkpt lat="43.97618823464277" lon="11.221911722087745"><ele>296.0</ele><time>2026-04-29T15:12:15.001Z</time></trkpt><trkpt lat="43.976205812032845" lon="11.221596936481086"><ele>296.0</ele><time>2026-04-29T15:12:16.001Z</time></trkpt><trkpt lat="43.97621622101174" lon="11.221300865445766"><ele>296.0</ele><time>2026-04-29T15:12:17.001Z</time></trkpt><trkpt lat="43.97619920357079" lon="11.221021693667835"><ele>296.33333333333337</ele><time>2026-04-29T15:12:18.001Z</time></trkpt><trkpt lat="43.976131868287524" lon="11.220750587424586"><ele>296.6666666666667</ele><time>2026-04-29T15:12:19.001Z</time></trkpt><trkpt lat="43.976018257550564" lon="11.220486087712494"><ele>297.0</ele><time>2026-04-29T15:12:20.001Z</time></trkpt><trkpt lat="43.97587626276372" lon="11.220220571007319"><ele>297.3333333333333</ele><time>2026-04-29T15:12:21.001Z</time></trkpt><trkpt lat="43.975743900402485" lon="11.219962442643414"><ele>297.66666666666663</ele><time>2026-04-29T15:12:22.001Z</time></trkpt><trkpt lat="43.97562406173627" lon="11.219729340104251"><ele>298.0</ele><time>2026-04-29T15:12:23.001Z</time></trkpt><trkpt lat="43.97551357522222" lon="11.219516848497246"><ele>298.0</ele><time>2026-04-29T15:12:24.001Z</time></trkpt><trkpt lat="43.97541368605845" lon="11.219314533386648"><ele>298.0</ele><time>2026-04-29T15:12:25.001Z</time></trkpt><trkpt lat="43.97532088555963" lon="11.219129039421773"><ele>298.0</ele><time>2026-04-29T15:12:26.001Z</time></trkpt><trkpt lat="43.97522466511549" lon="11.218960294887923"><ele>297.66666666666663</ele><time>2026-04-29T15:12:27.001Z</time></trkpt><trkpt lat="43.97511116003637" lon="11.21881391704192"><ele>297.3333333333333</ele><time>2026-04-29T15:12:28.001Z</time></trkpt><trkpt lat="43.974979145686405" lon="11.218684322058607"><ele>297.0</ele><time>2026-04-29T15:12:29.001Z</time></trkpt><trkpt lat="43.9748411879223" lon="11.218572797922791"><ele>298.3333333333333</ele><time>2026-04-29T15:12:30.001Z</time></trkpt><trkpt lat="43.974696749187665" lon="11.218479173863779"><ele>299.66666666666663</ele><time>2026-04-29T15:12:31.001Z</time></trkpt><trkpt lat="43.97456351056122" lon="11.21838107940236"><ele>301.0</ele><time>2026-04-29T15:12:32.001Z</time></trkpt><trkpt lat="43.97442659483269" lon="11.218301126665953"><ele>301.0</ele><time>2026-04-29T15:12:33.001Z</time></trkpt><trkpt lat="43.97428555582638" lon="11.218209725444146"><ele>301.0</ele><time>2026-04-29T15:12:34.001Z</time></trkpt><trkpt lat="43.97414775884278" lon="11.218135194869161"><ele>301.0</ele><time>2026-04-29T15:12:35.001Z</time></trkpt><trkpt lat="43.97402383612983" lon="11.218012857004865"><ele>303.66666666666663</ele><time>2026-04-29T15:12:36.001Z</time></trkpt><trkpt lat="43.97389126277166" lon="11.217872486306199"><ele>306.3333333333333</ele><time>2026-04-29T15:12:37.001Z</time></trkpt><trkpt lat="43.97373135094598" lon="11.217699634512316"><ele>309.0</ele><time>2026-04-29T15:12:38.001Z</time></trkpt><trkpt lat="43.97354454925429" lon="11.217501228113802"><ele>308.0</ele><time>2026-04-29T15:12:39.001Z</time></trkpt><trkpt lat="43.973334953391706" lon="11.217299013884805"><ele>307.0</ele><time>2026-04-29T15:12:40.001Z</time></trkpt><trkpt lat="43.97311996433858" lon="11.217094103747465"><ele>307.0</ele><time>2026-04-29T15:12:41.001Z</time></trkpt><trkpt lat="43.972927524223515" lon="11.216913025674593"><ele>307.0</ele><time>2026-04-29T15:12:42.001Z</time></trkpt><trkpt lat="43.9727265728973" lon="11.216802379642594"><ele>307.0</ele><time>2026-04-29T15:12:43.001Z</time></trkpt><trkpt lat="43.97254842260399" lon="11.216697667084576"><ele>307.0</ele><time>2026-04-29T15:12:44.001Z</time></trkpt><trkpt lat="43.97233959923595" lon="11.21667832068268"><ele>307.0</ele><time>2026-04-29T15:12:45.001Z</time></trkpt><trkpt lat="43.972105314258634" lon="11.216718648283033"><ele>307.0</ele><time>2026-04-29T15:12:46.001Z</time></trkpt><trkpt lat="43.97185550160649" lon="11.216790534890995"><ele>310.0</ele><time>2026-04-29T15:12:47.001Z</time></trkpt><trkpt lat="43.97164107585828" lon="11.216870455865815"><ele>313.0</ele><time>2026-04-29T15:12:48.001Z</time></trkpt><trkpt lat="43.97144354671946" lon="11.216926200577559"><ele>316.0</ele><time>2026-04-29T15:12:49.001Z</time></trkpt><trkpt lat="43.9712536667089" lon="11.216923011291186"><ele>316.0</ele><time>2026-04-29T15:12:50.001Z</time></trkpt><trkpt lat="43.971077941699484" lon="11.216866924871763"><ele>316.0</ele><time>2026-04-29T15:12:51.001Z</time></trkpt><trkpt lat="43.970915203734315" lon="11.216843518244028"><ele>316.0</ele><time>2026-04-29T15:12:52.001Z</time></trkpt><trkpt lat="43.97076589432149" lon="11.216891687767813"><ele>318.0</ele><time>2026-04-29T15:12:53.001Z</time></trkpt><trkpt lat="43.97061800605002" lon="11.217006947037948"><ele>320.0</ele><time>2026-04-29T15:12:54.001Z</time></trkpt><trkpt lat="43.970442807432306" lon="11.217158561943798"><ele>322.0</ele><time>2026-04-29T15:12:55.001Z</time></trkpt><trkpt lat="43.97025548809847" lon="11.21727633957392"><ele>322.3333333333333</ele><time>2026-04-29T15:12:56.001Z</time></trkpt><trkpt lat="43.97004595859284" lon="11.21732550952977"><ele>322.6666666666667</ele><time>2026-04-29T15:12:57.001Z</time></trkpt><trkpt lat="43.96983440280875" lon="11.217279423470403"><ele>323.0</ele><time>2026-04-29T15:12:58.001Z</time></trkpt><trkpt lat="43.9695957152995" lon="11.217179551575102"><ele>323.0</ele><time>2026-04-29T15:12:59.001Z</time></trkpt><trkpt lat="43.9693378948558" lon="11.21709226865094"><ele>323.0</ele><time>2026-04-29T15:13:00.001Z</time></trkpt><trkpt lat="43.96910152698637" lon="11.217038093945847"><ele>320.6666666666667</ele><time>2026-04-29T15:13:01.001Z</time></trkpt><trkpt lat="43.968877865607325" lon="11.21700078957353"><ele>318.3333333333333</ele><time>2026-04-29T15:13:02.001Z</time></trkpt><trkpt lat="43.9686619934436" lon="11.216994425036638"><ele>316.0</ele><time>2026-04-29T15:13:03.001Z</time></trkpt><trkpt lat="43.96845294910292" lon="11.217021559103278"><ele>312.66666666666663</ele><time>2026-04-29T15:13:04.001Z</time></trkpt><trkpt lat="43.968275439536164" lon="11.217081955804838"><ele>309.3333333333333</ele><time>2026-04-29T15:13:05.001Z</time></trkpt><trkpt lat="43.96810647738932" lon="11.217118731962927"><ele>306.0</ele><time>2026-04-29T15:13:06.001Z</time></trkpt><trkpt lat="43.9679476077616" lon="11.217111395961982"><ele>306.0</ele><time>2026-04-29T15:13:07.001Z</time></trkpt><trkpt lat="43.96779035141149" lon="11.217038395370059"><ele>306.0</ele><time>2026-04-29T15:13:08.001Z</time></trkpt><trkpt lat="43.96761779779671" lon="11.216893188011955"><ele>306.0</ele><time>2026-04-29T15:13:09.001Z</time></trkpt><trkpt lat="43.96744947469213" lon="11.21672390393021"><ele>305.0</ele><time>2026-04-29T15:13:10.001Z</time></trkpt><trkpt lat="43.967233570441046" lon="11.216569185026396"><ele>304.0</ele><time>2026-04-29T15:13:11.001Z</time></trkpt><trkpt lat="43.967034568527296" lon="11.216482711479573"><ele>304.0</ele><time>2026-04-29T15:13:12.001Z</time></trkpt><trkpt lat="43.96680868483261" lon="11.21647411684803"><ele>304.0</ele><time>2026-04-29T15:13:13.001Z</time></trkpt><trkpt lat="43.96656138672393" lon="11.216522411381591"><ele>299.5</ele><time>2026-04-29T15:13:14.001Z</time></trkpt><trkpt lat="43.96631063897611" lon="11.216617403414427"><ele>295.0</ele><time>2026-04-29T15:13:15.001Z</time></trkpt><trkpt lat="43.96606370493048" lon="11.21670664414889"><ele>295.0</ele><time>2026-04-29T15:13:16.001Z</time></trkpt><trkpt lat="43.96581275479813" lon="11.216744662309141"><ele>295.0</ele><time>2026-04-29T15:13:17.001Z</time></trkpt><trkpt lat="43.965546593206525" lon="11.216734029494997"><ele>295.0</ele><time>2026-04-29T15:13:18.001Z</time></trkpt><trkpt lat="43.96527028210976" lon="11.216695911766667"><ele>295.0</ele><time>2026-04-29T15:13:19.001Z</time></trkpt><trkpt lat="43.96498945909762" lon="11.216623761952242"><ele>297.0</ele><time>2026-04-29T15:13:20.001Z</time></trkpt><trkpt lat="43.96473783801493" lon="11.21653390497757"><ele>299.0</ele><time>2026-04-29T15:13:21.001Z</time></trkpt><trkpt lat="43.964519739232315" lon="11.216444944663417"><ele>300.33333333333337</ele><time>2026-04-29T15:13:22.001Z</time></trkpt><trkpt lat="43.96431503655429" lon="11.216410753489123"><ele>301.6666666666667</ele><time>2026-04-29T15:13:23.001Z</time></trkpt><trkpt lat="43.964102472969934" lon="11.216451319862548"><ele>303.0</ele><time>2026-04-29T15:13:24.001Z</time></trkpt><trkpt lat="43.96389526826819" lon="11.216522661147163"><ele>303.0</ele><time>2026-04-29T15:13:25.001Z</time></trkpt><trkpt lat="43.96371124985595" lon="11.216610138774248"><ele>303.0</ele><time>2026-04-29T15:13:26.001Z</time></trkpt><trkpt lat="43.96353459167602" lon="11.216667604577909"><ele>303.0</ele><time>2026-04-29T15:13:27.001Z</time></trkpt><trkpt lat="43.96334991493973" lon="11.216665644609531"><ele>302.6666666666667</ele><time>2026-04-29T15:13:28.001Z</time></trkpt><trkpt lat="43.96315962621654" lon="11.216590877440298"><ele>302.33333333333337</ele><time>2026-04-29T15:13:29.001Z</time></trkpt><trkpt lat="43.96297144973237" lon="11.216452159372736"><ele>302.0</ele><time>2026-04-29T15:13:30.001Z</time></trkpt><trkpt lat="43.962811193084306" lon="11.216304784697611"><ele>303.0</ele><time>2026-04-29T15:13:31.001Z</time></trkpt><trkpt lat="43.962683332459456" lon="11.216195851133037"><ele>304.0</ele><time>2026-04-29T15:13:32.001Z</time></trkpt><trkpt lat="43.96257570593742" lon="11.216118503142926"><ele>305.0</ele><time>2026-04-29T15:13:33.001Z</time></trkpt><trkpt lat="43.96248932058667" lon="11.216056079314711"><ele>306.0</ele><time>2026-04-29T15:13:34.001Z</time></trkpt><trkpt lat="43.96241151399892" lon="11.216004331000303"><ele>306.0</ele><time>2026-04-29T15:13:35.001Z</time></trkpt><trkpt lat="43.96233893598939" lon="11.215961945418332"><ele>306.0</ele><time>2026-04-29T15:13:36.001Z</time></trkpt><trkpt lat="43.96228187299365" lon="11.215894206575351"><ele>306.0</ele><time>2026-04-29T15:13:37.001Z</time></trkpt><trkpt lat="43.962217149057324" lon="11.215868774870515"><ele>306.0</ele><time>2026-04-29T15:13:38.001Z</time></trkpt><trkpt lat="43.96212925995856" lon="11.215774122083108"><ele>306.0</ele><time>2026-04-29T15:13:40.001Z</time></trkpt><trkpt lat="43.96206219093222" lon="11.215719716735235"><ele>306.0</ele><time>2026-04-29T15:13:43.001Z</time></trkpt><trkpt lat="43.96200062142177" lon="11.215672775928644"><ele>306.0</ele><time>2026-04-29T15:13:46.001Z</time></trkpt><trkpt lat="43.96193815850214" lon="11.21562437791935"><ele>306.0</ele><time>2026-04-29T15:13:47.001Z</time></trkpt><trkpt lat="43.96186868789779" lon="11.215574440047014"><ele>306.0</ele><time>2026-04-29T15:13:48.001Z</time></trkpt><trkpt lat="43.961780044367956" lon="11.21550597227176"><ele>306.0</ele><time>2026-04-29T15:13:50.001Z</time></trkpt><trkpt lat="43.961712585541875" lon="11.215459719403214"><ele>306.0</ele><time>2026-04-29T15:13:53.001Z</time></trkpt><trkpt lat="43.96162103844234" lon="11.215401043074536"><ele>306.0</ele><time>2026-04-29T15:13:55.001Z</time></trkpt><trkpt lat="43.9615371840948" lon="11.21534680234874"><ele>306.0</ele><time>2026-04-29T15:13:56.001Z</time></trkpt><trkpt lat="43.961439808501964" lon="11.215280723319623"><ele>306.0</ele><time>2026-04-29T15:13:57.001Z</time></trkpt><trkpt lat="43.961332071331626" lon="11.21520429808151"><ele>306.0</ele><time>2026-04-29T15:13:58.001Z</time></trkpt><trkpt lat="43.96120515839807" lon="11.215115490258375"><ele>306.0</ele><time>2026-04-29T15:13:59.001Z</time></trkpt><trkpt lat="43.961071834808735" lon="11.215017424081058"><ele>306.0</ele><time>2026-04-29T15:14:00.001Z</time></trkpt><trkpt lat="43.960931148490005" lon="11.214916029513828"><ele>306.0</ele><time>2026-04-29T15:14:01.001Z</time></trkpt><trkpt lat="43.96078523330895" lon="11.214799698389005"><ele>306.0</ele><time>2026-04-29T15:14:02.001Z</time></trkpt><trkpt lat="43.96063827928529" lon="11.21468622004098"><ele>306.3333333333333</ele><time>2026-04-29T15:14:03.001Z</time></trkpt><trkpt lat="43.96048264108328" lon="11.214574817920706"><ele>306.66666666666663</ele><time>2026-04-29T15:14:04.001Z</time></trkpt><trkpt lat="43.96032033849207" lon="11.214482893403606"><ele>307.0</ele><time>2026-04-29T15:14:05.001Z</time></trkpt><trkpt lat="43.9601392277476" lon="11.214425254045972"><ele>308.3333333333333</ele><time>2026-04-29T15:14:06.001Z</time></trkpt><trkpt lat="43.95993526561201" lon="11.214427028033127"><ele>309.6666666666667</ele><time>2026-04-29T15:14:07.001Z</time></trkpt><trkpt lat="43.95971142420157" lon="11.214460898056661"><ele>311.0</ele><time>2026-04-29T15:14:08.001Z</time></trkpt><trkpt lat="43.95948952854886" lon="11.214482048632988"><ele>311.0</ele><time>2026-04-29T15:14:09.001Z</time></trkpt><trkpt lat="43.95926572459378" lon="11.214462065456216"><ele>311.0</ele><time>2026-04-29T15:14:10.001Z</time></trkpt><trkpt lat="43.95906608457557" lon="11.214401242686943"><ele>311.0</ele><time>2026-04-29T15:14:11.001Z</time></trkpt><trkpt lat="43.95887997946824" lon="11.214309250168832"><ele>311.0</ele><time>2026-04-29T15:14:12.001Z</time></trkpt><trkpt lat="43.958694348832495" lon="11.214177757959403"><ele>311.0</ele><time>2026-04-29T15:14:13.001Z</time></trkpt><trkpt lat="43.95852546927696" lon="11.214021660517622"><ele>311.0</ele><time>2026-04-29T15:14:14.001Z</time></trkpt><trkpt lat="43.95837933222355" lon="11.213877019520343"><ele>313.25</ele><time>2026-04-29T15:14:15.001Z</time></trkpt><trkpt lat="43.95824872787287" lon="11.21376891743477"><ele>315.5</ele><time>2026-04-29T15:14:16.001Z</time></trkpt><trkpt lat="43.958139177357246" lon="11.213648179304217"><ele>317.75</ele><time>2026-04-29T15:14:17.001Z</time></trkpt><trkpt lat="43.958010641978746" lon="11.213538104158179"><ele>320.0</ele><time>2026-04-29T15:14:18.001Z</time></trkpt><trkpt lat="43.95786611267195" lon="11.213435672076164"><ele>320.0</ele><time>2026-04-29T15:14:19.001Z</time></trkpt><trkpt lat="43.95772981242471" lon="11.213358704539948"><ele>320.0</ele><time>2026-04-29T15:14:20.001Z</time></trkpt><trkpt lat="43.9575747103056" lon="11.213306771828139"><ele>320.0</ele><time>2026-04-29T15:14:21.001Z</time></trkpt><trkpt lat="43.957380922694774" lon="11.2133148172776"><ele>324.6666666666667</ele><time>2026-04-29T15:14:22.001Z</time></trkpt><trkpt lat="43.957171937542476" lon="11.213349177921243"><ele>329.3333333333333</ele><time>2026-04-29T15:14:23.001Z</time></trkpt><trkpt lat="43.956952223001686" lon="11.213372031192598"><ele>334.0</ele><time>2026-04-29T15:14:24.001Z</time></trkpt><trkpt lat="43.95672617154292" lon="11.213363159719789"><ele>340.0</ele><time>2026-04-29T15:14:25.001Z</time></trkpt><trkpt lat="43.95650178687074" lon="11.213327073864415"><ele>346.0</ele><time>2026-04-29T15:14:26.001Z</time></trkpt><trkpt lat="43.956259019873606" lon="11.213289101388888"><ele>346.0</ele><time>2026-04-29T15:14:27.001Z</time></trkpt><trkpt lat="43.95601821530931" lon="11.213256435719293"><ele>346.0</ele><time>2026-04-29T15:14:28.001Z</time></trkpt><trkpt lat="43.95577198967482" lon="11.213234025659004"><ele>350.5</ele><time>2026-04-29T15:14:29.001Z</time></trkpt><trkpt lat="43.95552686690986" lon="11.213240175666085"><ele>355.0</ele><time>2026-04-29T15:14:30.001Z</time></trkpt><trkpt lat="43.95528007497814" lon="11.213315213798927"><ele>355.0</ele><time>2026-04-29T15:14:31.001Z</time></trkpt><trkpt lat="43.95504028651848" lon="11.213417316237354"><ele>355.0</ele><time>2026-04-29T15:14:32.001Z</time></trkpt><trkpt lat="43.954824281270625" lon="11.213503547374414"><ele>359.3333333333333</ele><time>2026-04-29T15:14:33.001Z</time></trkpt><trkpt lat="43.95463244544437" lon="11.213567689369325"><ele>363.6666666666667</ele><time>2026-04-29T15:14:34.001Z</time></trkpt><trkpt lat="43.95445370076031" lon="11.213598059957276"><ele>368.0</ele><time>2026-04-29T15:14:35.001Z</time></trkpt><trkpt lat="43.95427740175952" lon="11.213561993617727"><ele>371.33333333333337</ele><time>2026-04-29T15:14:36.001Z</time></trkpt><trkpt lat="43.95410736379472" lon="11.21346440839509"><ele>374.6666666666667</ele><time>2026-04-29T15:14:37.001Z</time></trkpt><trkpt lat="43.95393253309362" lon="11.213351144348456"><ele>378.0</ele><time>2026-04-29T15:14:38.001Z</time></trkpt><trkpt lat="43.95375498916157" lon="11.213289351147177"><ele>378.0</ele><time>2026-04-29T15:14:39.001Z</time></trkpt><trkpt lat="43.9535538040501" lon="11.213318224168711"><ele>378.0</ele><time>2026-04-29T15:14:40.001Z</time></trkpt><trkpt lat="43.95333298998962" lon="11.213380145192057"><ele>378.0</ele><time>2026-04-29T15:14:41.001Z</time></trkpt><trkpt lat="43.95310791328919" lon="11.213343877176367"><ele>377.3333333333333</ele><time>2026-04-29T15:14:42.001Z</time></trkpt><trkpt lat="43.95289403017569" lon="11.21329794116415"><ele>376.66666666666663</ele><time>2026-04-29T15:14:43.001Z</time></trkpt><trkpt lat="43.95271512125557" lon="11.21322535103449"><ele>376.0</ele><time>2026-04-29T15:14:44.001Z</time></trkpt><trkpt lat="43.95253957928464" lon="11.213083831623349"><ele>381.5</ele><time>2026-04-29T15:14:45.001Z</time></trkpt><trkpt lat="43.952335221695776" lon="11.212943758440373"><ele>387.0</ele><time>2026-04-29T15:14:46.001Z</time></trkpt><trkpt lat="43.95214006880158" lon="11.21277295491881"><ele>387.0</ele><time>2026-04-29T15:14:47.001Z</time></trkpt><trkpt lat="43.95196048758655" lon="11.212605466394905"><ele>387.0</ele><time>2026-04-29T15:14:48.001Z</time></trkpt><trkpt lat="43.95178165715284" lon="11.212396681971043"><ele>393.5</ele><time>2026-04-29T15:14:49.001Z</time></trkpt><trkpt lat="43.95161039380911" lon="11.212141387808066"><ele>400.0</ele><time>2026-04-29T15:14:50.001Z</time></trkpt><trkpt lat="43.951439761273264" lon="11.211878979233793"><ele>400.0</ele><time>2026-04-29T15:14:51.001Z</time></trkpt><trkpt lat="43.951271023491046" lon="11.21163190467576"><ele>400.0</ele><time>2026-04-29T15:14:52.001Z</time></trkpt><trkpt lat="43.95111559238863" lon="11.211408751536856"><ele>399.33333333333337</ele><time>2026-04-29T15:14:53.001Z</time></trkpt><trkpt lat="43.95098728888707" lon="11.211182260091935"><ele>398.66666666666663</ele><time>2026-04-29T15:14:54.001Z</time></trkpt><trkpt lat="43.95090643596014" lon="11.210935048721003"><ele>398.0</ele><time>2026-04-29T15:14:55.001Z</time></trkpt><trkpt lat="43.950865198257986" lon="11.21065190129188"><ele>398.0</ele><time>2026-04-29T15:14:56.001Z</time></trkpt><trkpt lat="43.95083262586628" lon="11.210322576972198"><ele>398.0</ele><time>2026-04-29T15:14:57.001Z</time></trkpt><trkpt lat="43.950785983346634" lon="11.210015014498909"><ele>400.0</ele><time>2026-04-29T15:14:58.001Z</time></trkpt><trkpt lat="43.95074416836764" lon="11.209756023310016"><ele>402.0</ele><time>2026-04-29T15:14:59.001Z</time></trkpt><trkpt lat="43.95070557689616" lon="11.209551344646927"><ele>404.0</ele><time>2026-04-29T15:15:00.001Z</time></trkpt><trkpt lat="43.95065247121326" lon="11.2093895129041"><ele>404.0</ele><time>2026-04-29T15:15:01.001Z</time></trkpt><trkpt lat="43.95061095759623" lon="11.209226223392154"><ele>404.0</ele><time>2026-04-29T15:15:02.001Z</time></trkpt><trkpt lat="43.95042945184034" lon="11.209194865426168"><ele>404.0</ele><time>2026-04-29T15:15:03.001Z</time></trkpt><trkpt lat="43.9502916163877" lon="11.209203638867015"><ele>404.0</ele><time>2026-04-29T15:15:04.001Z</time></trkpt><trkpt lat="43.95016941988487" lon="11.209290539768695"><ele>404.0</ele><time>2026-04-29T15:15:05.001Z</time></trkpt><trkpt lat="43.95007014042001" lon="11.209452598737956"><ele>404.0</ele><time>2026-04-29T15:15:06.001Z</time></trkpt><trkpt lat="43.950004382822485" lon="11.20968049533725"><ele>404.0</ele><time>2026-04-29T15:15:07.001Z</time></trkpt><trkpt lat="43.949946315564866" lon="11.209950857291947"><ele>403.66666666666663</ele><time>2026-04-29T15:15:08.001Z</time></trkpt><trkpt lat="43.949878397539784" lon="11.21019080091065"><ele>403.33333333333337</ele><time>2026-04-29T15:15:09.001Z</time></trkpt><trkpt lat="43.949776717862775" lon="11.210367445777289"><ele>403.0</ele><time>2026-04-29T15:15:10.001Z</time></trkpt><trkpt lat="43.94966088586772" lon="11.210536809534647"><ele>402.6666666666667</ele><time>2026-04-29T15:15:11.001Z</time></trkpt><trkpt lat="43.949509965492965" lon="11.210686882833889"><ele>402.33333333333337</ele><time>2026-04-29T15:15:12.001Z</time></trkpt><trkpt lat="43.94933850910324" lon="11.21077128823079"><ele>402.0</ele><time>2026-04-29T15:15:13.001Z</time></trkpt><trkpt lat="43.94915607543577" lon="11.21081219950483"><ele>402.0</ele><time>2026-04-29T15:15:14.001Z</time></trkpt><trkpt lat="43.948958096641135" lon="11.210765548771969"><ele>402.0</ele><time>2026-04-29T15:15:15.001Z</time></trkpt><trkpt lat="43.948763192197056" lon="11.210648498965522"><ele>402.0</ele><time>2026-04-29T15:15:16.001Z</time></trkpt><trkpt lat="43.948588736547414" lon="11.21049083508522"><ele>406.33333333333337</ele><time>2026-04-29T15:15:17.001Z</time></trkpt><trkpt lat="43.94843384463199" lon="11.210390533616337"><ele>410.6666666666667</ele><time>2026-04-29T15:15:18.001Z</time></trkpt><trkpt lat="43.948266399863186" lon="11.210392251592342"><ele>415.0</ele><time>2026-04-29T15:15:19.001Z</time></trkpt><trkpt lat="43.94810990422182" lon="11.210478135199505"><ele>415.0</ele><time>2026-04-29T15:15:20.001Z</time></trkpt><trkpt lat="43.94798093340431" lon="11.210637451936247"><ele>415.0</ele><time>2026-04-29T15:15:21.001Z</time></trkpt><trkpt lat="43.947885593556144" lon="11.210848480756585"><ele>415.0</ele><time>2026-04-29T15:15:22.001Z</time></trkpt><trkpt lat="43.94785106577491" lon="11.211109143273628"><ele>410.33333333333337</ele><time>2026-04-29T15:15:23.001Z</time></trkpt><trkpt lat="43.9478481913027" lon="11.211380952289561"><ele>405.66666666666663</ele><time>2026-04-29T15:15:24.001Z</time></trkpt><trkpt lat="43.947811666728526" lon="11.211600324751478"><ele>401.0</ele><time>2026-04-29T15:15:25.001Z</time></trkpt><trkpt lat="43.94774501287216" lon="11.211797483528027"><ele>400.66666666666663</ele><time>2026-04-29T15:15:26.001Z</time></trkpt><trkpt lat="43.94761372565559" lon="11.211961928233459"><ele>400.33333333333337</ele><time>2026-04-29T15:15:27.001Z</time></trkpt><trkpt lat="43.94744309099042" lon="11.21207579926124"><ele>400.0</ele><time>2026-04-29T15:15:28.001Z</time></trkpt><trkpt lat="43.94728419781674" lon="11.212191201847737"><ele>403.0</ele><time>2026-04-29T15:15:29.001Z</time></trkpt><trkpt lat="43.9471725918807" lon="11.212393344527257"><ele>406.0</ele><time>2026-04-29T15:15:30.001Z</time></trkpt><trkpt lat="43.94709816781845" lon="11.212621071564659"><ele>409.0</ele><time>2026-04-29T15:15:31.001Z</time></trkpt><trkpt lat="43.947031931952935" lon="11.212822332190168"><ele>409.0</ele><time>2026-04-29T15:15:32.001Z</time></trkpt><trkpt lat="43.94692031957407" lon="11.212978301240918"><ele>409.0</ele><time>2026-04-29T15:15:33.001Z</time></trkpt><trkpt lat="43.94677778204492" lon="11.213110741359971"><ele>409.0</ele><time>2026-04-29T15:15:34.001Z</time></trkpt><trkpt lat="43.9465744383292" lon="11.213160553437548"><ele>412.0</ele><time>2026-04-29T15:15:35.001Z</time></trkpt><trkpt lat="43.946340921100436" lon="11.213178699281949"><ele>415.0</ele><time>2026-04-29T15:15:36.001Z</time></trkpt><trkpt lat="43.94613609711538" lon="11.21326137219376"><ele>418.0</ele><time>2026-04-29T15:15:37.001Z</time></trkpt><trkpt lat="43.94593134335774" lon="11.213355654721932"><ele>421.6666666666667</ele><time>2026-04-29T15:15:38.001Z</time></trkpt><trkpt lat="43.94575530894672" lon="11.213476966329774"><ele>425.33333333333337</ele><time>2026-04-29T15:15:39.001Z</time></trkpt><trkpt lat="43.94560771424496" lon="11.213589617971506"><ele>429.0</ele><time>2026-04-29T15:15:40.001Z</time></trkpt><trkpt lat="43.9454794694328" lon="11.21367391742312"><ele>429.0</ele><time>2026-04-29T15:15:41.001Z</time></trkpt><trkpt lat="43.94535406468496" lon="11.213726275375066"><ele>429.0</ele><time>2026-04-29T15:15:42.001Z</time></trkpt><trkpt lat="43.94523320068964" lon="11.213755921574089"><ele>429.0</ele><time>2026-04-29T15:15:43.001Z</time></trkpt><trkpt lat="43.94512130928835" lon="11.213754965914267"><ele>429.0</ele><time>2026-04-29T15:15:44.001Z</time></trkpt><trkpt lat="43.94501701806882" lon="11.213744350335382"><ele>428.6</ele><time>2026-04-29T15:15:45.001Z</time></trkpt><trkpt lat="43.944915051134515" lon="11.213729929922168"><ele>428.2</ele><time>2026-04-29T15:15:46.001Z</time></trkpt><trkpt lat="43.9448236947724" lon="11.21377434850708"><ele>427.80000000000007</ele><time>2026-04-29T15:15:47.001Z</time></trkpt><trkpt lat="43.94474382499614" lon="11.213855432932988"><ele>427.40000000000003</ele><time>2026-04-29T15:15:48.001Z</time></trkpt><trkpt lat="43.94469377942984" lon="11.213961560457333"><ele>427.0</ele><time>2026-04-29T15:15:49.001Z</time></trkpt><trkpt lat="43.94462833328177" lon="11.214081337250569"><ele>427.0</ele><time>2026-04-29T15:15:50.001Z</time></trkpt><trkpt lat="43.94455414167682" lon="11.214199403360402"><ele>427.0</ele><time>2026-04-29T15:15:51.001Z</time></trkpt><trkpt lat="43.94448290287115" lon="11.21433075094814"><ele>427.0</ele><time>2026-04-29T15:15:52.001Z</time></trkpt><trkpt lat="43.94440497594623" lon="11.214467154257505"><ele>427.0</ele><time>2026-04-29T15:15:53.001Z</time></trkpt><trkpt lat="43.94432471108592" lon="11.214594488199612"><ele>427.0</ele><time>2026-04-29T15:15:54.001Z</time></trkpt><trkpt lat="43.94424693461639" lon="11.214717270468347"><ele>427.00000000000006</ele><time>2026-04-29T15:15:55.001Z</time></trkpt><trkpt lat="43.94417565345477" lon="11.214839031478844"><ele>427.00000000000006</ele><time>2026-04-29T15:15:56.001Z</time></trkpt><trkpt lat="43.94410240816114" lon="11.214957526328492"><ele>427.0</ele><time>2026-04-29T15:15:57.001Z</time></trkpt><trkpt lat="43.9440367134607" lon="11.21507307508472"><ele>427.0</ele><time>2026-04-29T15:15:58.001Z</time></trkpt><trkpt lat="43.94396627914193" lon="11.215186829832763"><ele>426.75</ele><time>2026-04-29T15:15:59.001Z</time></trkpt><trkpt lat="43.943889614349935" lon="11.215313768064235"><ele>426.5</ele><time>2026-04-29T15:16:00.001Z</time></trkpt><trkpt lat="43.94380432590662" lon="11.215446845888273"><ele>426.25</ele><time>2026-04-29T15:16:01.001Z</time></trkpt><trkpt lat="43.943712889831374" lon="11.215571929760497"><ele>426.0</ele><time>2026-04-29T15:16:02.001Z</time></trkpt><trkpt lat="43.943587714692725" lon="11.215675269463045"><ele>426.0</ele><time>2026-04-29T15:16:03.001Z</time></trkpt><trkpt lat="43.94345012334988" lon="11.215763313573605"><ele>426.0</ele><time>2026-04-29T15:16:04.001Z</time></trkpt><trkpt lat="43.94338188565334" lon="11.21581434631718"><ele>426.0</ele><time>2026-04-29T15:16:05.001Z</time></trkpt><trkpt lat="43.943233864467814" lon="11.215859703133795"><ele>426.0</ele><time>2026-04-29T15:16:06.001Z</time></trkpt><trkpt lat="43.94307269446856" lon="11.215926558514537"><ele>422.0</ele><time>2026-04-29T15:16:07.001Z</time></trkpt><trkpt lat="43.94290094953732" lon="11.216018590984204"><ele>418.0</ele><time>2026-04-29T15:16:08.001Z</time></trkpt><trkpt lat="43.94273411727151" lon="11.216112816617704"><ele>414.0</ele><time>2026-04-29T15:16:09.001Z</time></trkpt><trkpt lat="43.942574449022466" lon="11.21620125742107"><ele>413.0</ele><time>2026-04-29T15:16:10.001Z</time></trkpt><trkpt lat="43.94242960525915" lon="11.216293062862977"><ele>412.0</ele><time>2026-04-29T15:16:11.001Z</time></trkpt><trkpt lat="43.94229522173454" lon="11.216379462025253"><ele>411.0</ele><time>2026-04-29T15:16:12.001Z</time></trkpt><trkpt lat="43.9421901075577" lon="11.216508632036751"><ele>410.0</ele><time>2026-04-29T15:16:13.001Z</time></trkpt><trkpt lat="43.94211006071597" lon="11.216659434011241"><ele>410.0</ele><time>2026-04-29T15:16:14.001Z</time></trkpt><trkpt lat="43.9420570555378" lon="11.216821408909576"><ele>410.0</ele><time>2026-04-29T15:16:15.001Z</time></trkpt><trkpt lat="43.942002999129784" lon="11.216955156441664"><ele>410.0</ele><time>2026-04-29T15:16:16.001Z</time></trkpt><trkpt lat="43.94194164918234" lon="11.217063423581603"><ele>410.0</ele><time>2026-04-29T15:16:17.001Z</time></trkpt><trkpt lat="43.941850635826995" lon="11.217096764638034"><ele>410.0</ele><time>2026-04-29T15:16:18.001Z</time></trkpt><trkpt lat="43.94176051237817" lon="11.217110544538691"><ele>407.6</ele><time>2026-04-29T15:16:19.001Z</time></trkpt><trkpt lat="43.94166579518161" lon="11.217087621011972"><ele>405.2</ele><time>2026-04-29T15:16:20.001Z</time></trkpt><trkpt lat="43.94157795421066" lon="11.21702493619498"><ele>402.79999999999995</ele><time>2026-04-29T15:16:21.001Z</time></trkpt><trkpt lat="43.94150795392481" lon="11.216925110159355"><ele>400.4</ele><time>2026-04-29T15:16:22.001Z</time></trkpt><trkpt lat="43.94146182165881" lon="11.216790198641167"><ele>398.0</ele><time>2026-04-29T15:16:23.001Z</time></trkpt><trkpt lat="43.941460883992285" lon="11.216631625985215"><ele>396.5</ele><time>2026-04-29T15:16:24.001Z</time></trkpt><trkpt lat="43.94147890932592" lon="11.216463346335793"><ele>395.0</ele><time>2026-04-29T15:16:25.001Z</time></trkpt><trkpt lat="43.94149208700902" lon="11.216304656103189"><ele>393.5</ele><time>2026-04-29T15:16:26.001Z</time></trkpt><trkpt lat="43.94153292944345" lon="11.216162245254155"><ele>392.0</ele><time>2026-04-29T15:16:27.001Z</time></trkpt><trkpt lat="43.941615208003604" lon="11.21605348085399"><ele>391.99999999999994</ele><time>2026-04-29T15:16:28.001Z</time></trkpt><trkpt lat="43.94169307802274" lon="11.215953592381975"><ele>392.0</ele><time>2026-04-29T15:16:29.001Z</time></trkpt><trkpt lat="43.94178611668268" lon="11.215894193873332"><ele>392.0</ele><time>2026-04-29T15:16:30.001Z</time></trkpt><trkpt lat="43.94186511159792" lon="11.215873280585404"><ele>392.0</ele><time>2026-04-29T15:16:31.001Z</time></trkpt><trkpt lat="43.941922728273866" lon="11.21582270381955"><ele>391.99999999999994</ele><time>2026-04-29T15:16:32.001Z</time></trkpt><trkpt lat="43.94198579406528" lon="11.215786700984722"><ele>392.0</ele><time>2026-04-29T15:16:33.001Z</time></trkpt><trkpt lat="43.9420296210431" lon="11.215712831333478"><ele>392.49999999999994</ele><time>2026-04-29T15:16:34.001Z</time></trkpt><trkpt lat="43.942062391498254" lon="11.21563205767839"><ele>393.0</ele><time>2026-04-29T15:16:35.001Z</time></trkpt><trkpt lat="43.942072082962554" lon="11.215529532337131"><ele>393.5</ele><time>2026-04-29T15:16:36.001Z</time></trkpt><trkpt lat="43.94206443805211" lon="11.215414857230382"><ele>394.0</ele><time>2026-04-29T15:16:37.001Z</time></trkpt><trkpt lat="43.942024757644724" lon="11.215298714545636"><ele>394.49999999999994</ele><time>2026-04-29T15:16:38.001Z</time></trkpt><trkpt lat="43.94195590413841" lon="11.215197005580102"><ele>395.0</ele><time>2026-04-29T15:16:39.001Z</time></trkpt><trkpt lat="43.94186139011693" lon="11.215133253212205"><ele>395.0</ele><time>2026-04-29T15:16:40.001Z</time></trkpt><trkpt lat="43.94174738584721" lon="11.21512667330116"><ele>395.0</ele><time>2026-04-29T15:16:41.001Z</time></trkpt><trkpt lat="43.94163394954799" lon="11.215170763662869"><ele>395.0</ele><time>2026-04-29T15:16:42.001Z</time></trkpt><trkpt lat="43.941528176255936" lon="11.215250681816013"><ele>395.0</ele><time>2026-04-29T15:16:43.001Z</time></trkpt><trkpt lat="43.941413933842774" lon="11.215340250265543"><ele>391.0</ele><time>2026-04-29T15:16:44.001Z</time></trkpt><trkpt lat="43.9412656943366" lon="11.21539406010446"><ele>387.0</ele><time>2026-04-29T15:16:45.001Z</time></trkpt><trkpt lat="43.941107430329915" lon="11.215471842718028"><ele>383.0</ele><time>2026-04-29T15:16:46.001Z</time></trkpt><trkpt lat="43.940937856311216" lon="11.215544570518873"><ele>382.0</ele><time>2026-04-29T15:16:47.001Z</time></trkpt><trkpt lat="43.94076436001562" lon="11.215616916338883"><ele>381.0</ele><time>2026-04-29T15:16:48.001Z</time></trkpt><trkpt lat="43.94059940280308" lon="11.215684543248893"><ele>380.0</ele><time>2026-04-29T15:16:49.001Z</time></trkpt><trkpt lat="43.94044227898235" lon="11.215783474119766"><ele>380.0</ele><time>2026-04-29T15:16:50.001Z</time></trkpt><trkpt lat="43.94027777849813" lon="11.215836624510125"><ele>380.0</ele><time>2026-04-29T15:16:51.001Z</time></trkpt><trkpt lat="43.94011521654064" lon="11.21587637118234"><ele>380.0</ele><time>2026-04-29T15:16:52.001Z</time></trkpt><trkpt lat="43.93995581871995" lon="11.215913002675018"><ele>378.0</ele><time>2026-04-29T15:16:53.001Z</time></trkpt><trkpt lat="43.93979930106349" lon="11.215916160584825"><ele>376.0</ele><time>2026-04-29T15:16:54.001Z</time></trkpt><trkpt lat="43.93965669866521" lon="11.215960600049685"><ele>374.0</ele><time>2026-04-29T15:16:55.001Z</time></trkpt><trkpt lat="43.93951636271078" lon="11.215972270384235"><ele>372.0</ele><time>2026-04-29T15:16:56.001Z</time></trkpt><trkpt lat="43.9393751979623" lon="11.21594246008899"><ele>372.0</ele><time>2026-04-29T15:16:57.001Z</time></trkpt><trkpt lat="43.93924454664304" lon="11.215864870423106"><ele>372.0</ele><time>2026-04-29T15:16:58.001Z</time></trkpt><trkpt lat="43.93913307116363" lon="11.215763455722346"><ele>372.0</ele><time>2026-04-29T15:16:59.001Z</time></trkpt><trkpt lat="43.93902532167107" lon="11.215671002282335"><ele>372.0</ele><time>2026-04-29T15:17:00.001Z</time></trkpt><trkpt lat="43.93890748844163" lon="11.215605027845523"><ele>367.5</ele><time>2026-04-29T15:17:01.001Z</time></trkpt><trkpt lat="43.93878599706461" lon="11.21554814860516"><ele>363.0</ele><time>2026-04-29T15:17:02.001Z</time></trkpt><trkpt lat="43.93866758654991" lon="11.215489085597024"><ele>358.5</ele><time>2026-04-29T15:17:03.001Z</time></trkpt><trkpt lat="43.938537512646796" lon="11.215428433635969"><ele>354.0</ele><time>2026-04-29T15:17:04.001Z</time></trkpt><trkpt lat="43.938384290693605" lon="11.215368594417209"><ele>352.6666666666667</ele><time>2026-04-29T15:17:05.001Z</time></trkpt><trkpt lat="43.938224970093" lon="11.215301081138469"><ele>351.33333333333337</ele><time>2026-04-29T15:17:06.001Z</time></trkpt><trkpt lat="43.938068915486426" lon="11.215232929433965"><ele>350.0</ele><time>2026-04-29T15:17:07.001Z</time></trkpt><trkpt lat="43.9379126983698" lon="11.215169122695695"><ele>350.0</ele><time>2026-04-29T15:17:08.001Z</time></trkpt><trkpt lat="43.93775569019454" lon="11.215119560217557"><ele>350.0</ele><time>2026-04-29T15:17:09.001Z</time></trkpt><trkpt lat="43.93759650311012" lon="11.215094976913445"><ele>350.0</ele><time>2026-04-29T15:17:10.001Z</time></trkpt><trkpt lat="43.937444189810584" lon="11.215082723282908"><ele>350.5</ele><time>2026-04-29T15:17:11.001Z</time></trkpt><trkpt lat="43.93730174500516" lon="11.215051584219314"><ele>351.0</ele><time>2026-04-29T15:17:12.001Z</time></trkpt><trkpt lat="43.93716762827522" lon="11.21497506785449"><ele>351.5</ele><time>2026-04-29T15:17:13.001Z</time></trkpt><trkpt lat="43.937055725384575" lon="11.214849966764431"><ele>352.0</ele><time>2026-04-29T15:17:14.001Z</time></trkpt><trkpt lat="43.93696952246327" lon="11.214698785737037"><ele>348.0</ele><time>2026-04-29T15:17:15.001Z</time></trkpt><trkpt lat="43.936893398527886" lon="11.214557651423787"><ele>344.0</ele><time>2026-04-29T15:17:16.001Z</time></trkpt><trkpt lat="43.93679384734438" lon="11.214460186680741"><ele>340.0</ele><time>2026-04-29T15:17:17.001Z</time></trkpt><trkpt lat="43.93666228001236" lon="11.21443576542259"><ele>336.0</ele><time>2026-04-29T15:17:18.001Z</time></trkpt><trkpt lat="43.936517848583364" lon="11.214451041337727"><ele>336.0</ele><time>2026-04-29T15:17:19.001Z</time></trkpt><trkpt lat="43.9363696085615" lon="11.214490397671879"><ele>336.0</ele><time>2026-04-29T15:17:20.001Z</time></trkpt><trkpt lat="43.936228242890735" lon="11.2145129525877"><ele>336.0</ele><time>2026-04-29T15:17:21.001Z</time></trkpt><trkpt lat="43.93608323182092" lon="11.214509776251784"><ele>336.0</ele><time>2026-04-29T15:17:22.001Z</time></trkpt><trkpt lat="43.935938660926" lon="11.214466788131535"><ele>335.75</ele><time>2026-04-29T15:17:23.001Z</time></trkpt><trkpt lat="43.935807774114565" lon="11.214385612661905"><ele>335.5</ele><time>2026-04-29T15:17:24.001Z</time></trkpt><trkpt lat="43.93568418459688" lon="11.214277417855865"><ele>335.25</ele><time>2026-04-29T15:17:25.001Z</time></trkpt><trkpt lat="43.93556796703097" lon="11.214155646543041"><ele>335.0</ele><time>2026-04-29T15:17:26.001Z</time></trkpt><trkpt lat="43.93544956301022" lon="11.214040028793995"><ele>328.0</ele><time>2026-04-29T15:17:27.001Z</time></trkpt><trkpt lat="43.9353073037163" lon="11.213947397196783"><ele>321.0</ele><time>2026-04-29T15:17:28.001Z</time></trkpt><trkpt lat="43.93513422760837" lon="11.21386657824025"><ele>314.0</ele><time>2026-04-29T15:17:29.001Z</time></trkpt><trkpt lat="43.93493878934476" lon="11.21378498677357"><ele>314.0</ele><time>2026-04-29T15:17:30.001Z</time></trkpt><trkpt lat="43.93474067212345" lon="11.213700831634396"><ele>314.0</ele><time>2026-04-29T15:17:31.001Z</time></trkpt><trkpt lat="43.93454636791886" lon="11.213615296623756"><ele>314.0</ele><time>2026-04-29T15:17:32.001Z</time></trkpt><trkpt lat="43.93435432104886" lon="11.213530320566658"><ele>315.33333333333337</ele><time>2026-04-29T15:17:33.001Z</time></trkpt><trkpt lat="43.93417822264691" lon="11.213453499038916"><ele>316.6666666666667</ele><time>2026-04-29T15:17:34.001Z</time></trkpt><trkpt lat="43.93401176549279" lon="11.213379123627094"><ele>318.0</ele><time>2026-04-29T15:17:35.001Z</time></trkpt><trkpt lat="43.933854945260364" lon="11.213289833380802"><ele>318.0</ele><time>2026-04-29T15:17:36.001Z</time></trkpt><trkpt lat="43.933711159274736" lon="11.213187110577998"><ele>318.0</ele><time>2026-04-29T15:17:37.001Z</time></trkpt><trkpt lat="43.93358353362164" lon="11.213079918157629"><ele>318.0</ele><time>2026-04-29T15:17:38.001Z</time></trkpt><trkpt lat="43.933464630749434" lon="11.212957790900838"><ele>313.75</ele><time>2026-04-29T15:17:39.001Z</time></trkpt><trkpt lat="43.93335313367382" lon="11.212824524484754"><ele>309.5</ele><time>2026-04-29T15:17:40.001Z</time></trkpt><trkpt lat="43.933248556628264" lon="11.212698711493458"><ele>305.25</ele><time>2026-04-29T15:17:41.001Z</time></trkpt><trkpt lat="43.933148671571715" lon="11.212589969639293"><ele>301.0</ele><time>2026-04-29T15:17:42.001Z</time></trkpt><trkpt lat="43.93305392276172" lon="11.21250730884923"><ele>301.0</ele><time>2026-04-29T15:17:43.001Z</time></trkpt><trkpt lat="43.932946239647336" lon="11.212462324255974"><ele>301.0</ele><time>2026-04-29T15:17:44.001Z</time></trkpt><trkpt lat="43.932819144394266" lon="11.212478858165646"><ele>301.0</ele><time>2026-04-29T15:17:45.001Z</time></trkpt><trkpt lat="43.932690308720495" lon="11.212505579754685"><ele>301.0</ele><time>2026-04-29T15:17:46.001Z</time></trkpt><trkpt lat="43.93256498788785" lon="11.212508069344052"><ele>303.0</ele><time>2026-04-29T15:17:47.001Z</time></trkpt><trkpt lat="43.93244872719017" lon="11.21245379673151"><ele>305.0</ele><time>2026-04-29T15:17:48.001Z</time></trkpt><trkpt lat="43.93235467347399" lon="11.21232874368388"><ele>307.0</ele><time>2026-04-29T15:17:49.001Z</time></trkpt><trkpt lat="43.932278380205766" lon="11.212159181570955"><ele>309.0</ele><time>2026-04-29T15:17:50.001Z</time></trkpt><trkpt lat="43.93218893277487" lon="11.211983587856725"><ele>298.6666666666667</ele><time>2026-04-29T15:17:51.001Z</time></trkpt><trkpt lat="43.932068987697036" lon="11.211839150745048"><ele>288.33333333333337</ele><time>2026-04-29T15:17:52.001Z</time></trkpt><trkpt lat="43.931937836631135" lon="11.211729516589916"><ele>278.0</ele><time>2026-04-29T15:17:53.001Z</time></trkpt><trkpt lat="43.93180908857137" lon="11.211620910427749"><ele>274.5</ele><time>2026-04-29T15:17:54.001Z</time></trkpt><trkpt lat="43.9316874406508" lon="11.211504767573857"><ele>271.0</ele><time>2026-04-29T15:17:55.001Z</time></trkpt><trkpt lat="43.93157071968788" lon="11.211386578116205"><ele>267.5</ele><time>2026-04-29T15:17:56.001Z</time></trkpt><trkpt lat="43.931448584673696" lon="11.211277532972325"><ele>264.0</ele><time>2026-04-29T15:17:57.001Z</time></trkpt><trkpt lat="43.931326827095" lon="11.211173059633722"><ele>264.0</ele><time>2026-04-29T15:17:58.001Z</time></trkpt><trkpt lat="43.93120151355297" lon="11.211084300371411"><ele>264.0</ele><time>2026-04-29T15:17:59.001Z</time></trkpt><trkpt lat="43.9310728876116" lon="11.210999439635382"><ele>264.0</ele><time>2026-04-29T15:18:00.001Z</time></trkpt><trkpt lat="43.93094559868811" lon="11.210914107763692"><ele>264.0</ele><time>2026-04-29T15:18:01.001Z</time></trkpt><trkpt lat="43.93081171636779" lon="11.210824389325165"><ele>259.3333333333333</ele><time>2026-04-29T15:18:02.001Z</time></trkpt><trkpt lat="43.93067300395679" lon="11.210731020453943"><ele>254.66666666666666</ele><time>2026-04-29T15:18:03.001Z</time></trkpt><trkpt lat="43.93050907562612" lon="11.210645224931346"><ele>250.0</ele><time>2026-04-29T15:18:04.001Z</time></trkpt><trkpt lat="43.93033886315233" lon="11.210561555918988"><ele>250.0</ele><time>2026-04-29T15:18:05.001Z</time></trkpt><trkpt lat="43.930180591658925" lon="11.210462948396469"><ele>250.0</ele><time>2026-04-29T15:18:06.001Z</time></trkpt><trkpt lat="43.930026651160624" lon="11.210315786895958"><ele>250.0</ele><time>2026-04-29T15:18:07.001Z</time></trkpt><trkpt lat="43.929879338384744" lon="11.21012683632596"><ele>254.0</ele><time>2026-04-29T15:18:08.001Z</time></trkpt><trkpt lat="43.929746460156665" lon="11.209919806128037"><ele>258.0</ele><time>2026-04-29T15:18:09.001Z</time></trkpt><trkpt lat="43.92961778479415" lon="11.209711645423612"><ele>262.0</ele><time>2026-04-29T15:18:10.001Z</time></trkpt><trkpt lat="43.92947596115646" lon="11.20952017164186"><ele>259.0</ele><time>2026-04-29T15:18:11.001Z</time></trkpt><trkpt lat="43.92931892300829" lon="11.209346930255405"><ele>256.0</ele><time>2026-04-29T15:18:12.001Z</time></trkpt><trkpt lat="43.929154098938085" lon="11.20919243911844"><ele>253.0</ele><time>2026-04-29T15:18:13.001Z</time></trkpt><trkpt lat="43.92899497839208" lon="11.209048825377936"><ele>245.0</ele><time>2026-04-29T15:18:14.001Z</time></trkpt><trkpt lat="43.92884096309774" lon="11.208905239573381"><ele>237.0</ele><time>2026-04-29T15:18:15.001Z</time></trkpt><trkpt lat="43.928677502372054" lon="11.208772155598036"><ele>229.0</ele><time>2026-04-29T15:18:16.001Z</time></trkpt><trkpt lat="43.92850293422303" lon="11.208660123756966"><ele>232.33333333333331</ele><time>2026-04-29T15:18:17.001Z</time></trkpt><trkpt lat="43.9283306655297" lon="11.208556940218363"><ele>235.66666666666669</ele><time>2026-04-29T15:18:18.001Z</time></trkpt><trkpt lat="43.928164223959755" lon="11.208455122716158"><ele>239.0</ele><time>2026-04-29T15:18:19.001Z</time></trkpt><trkpt lat="43.92799920846817" lon="11.208356111940649"><ele>239.0</ele><time>2026-04-29T15:18:20.001Z</time></trkpt><trkpt lat="43.92783586758833" lon="11.20825988726685"><ele>239.0</ele><time>2026-04-29T15:18:21.001Z</time></trkpt><trkpt lat="43.92767377454381" lon="11.208185589328078"><ele>239.0</ele><time>2026-04-29T15:18:22.001Z</time></trkpt><trkpt lat="43.927505336686885" lon="11.208136611159091"><ele>232.66666666666669</ele><time>2026-04-29T15:18:23.001Z</time></trkpt><trkpt lat="43.92732855095427" lon="11.208097060842958"><ele>226.33333333333331</ele><time>2026-04-29T15:18:24.001Z</time></trkpt><trkpt lat="43.9271464738527" lon="11.208080436050006"><ele>220.0</ele><time>2026-04-29T15:18:25.001Z</time></trkpt><trkpt lat="43.92698477921776" lon="11.208055190198834"><ele>220.0</ele><time>2026-04-29T15:18:26.001Z</time></trkpt><trkpt lat="43.92682199561656" lon="11.208039838238767"><ele>220.0</ele><time>2026-04-29T15:18:27.001Z</time></trkpt><trkpt lat="43.926655676186606" lon="11.208032257711372"><ele>220.0</ele><time>2026-04-29T15:18:28.001Z</time></trkpt><trkpt lat="43.92648261565438" lon="11.208006357031609"><ele>219.0</ele><time>2026-04-29T15:18:29.001Z</time></trkpt><trkpt lat="43.92630110778104" lon="11.207935161303771"><ele>218.0</ele><time>2026-04-29T15:18:30.001Z</time></trkpt><trkpt lat="43.92612022553814" lon="11.207905089192453"><ele>217.0</ele><time>2026-04-29T15:18:31.001Z</time></trkpt><trkpt lat="43.92596163105796" lon="11.207860179138406"><ele>216.33333333333331</ele><time>2026-04-29T15:18:32.001Z</time></trkpt><trkpt lat="43.925805828772006" lon="11.20782100074425"><ele>215.66666666666669</ele><time>2026-04-29T15:18:33.001Z</time></trkpt><trkpt lat="43.925657226666736" lon="11.207804820323085"><ele>215.0</ele><time>2026-04-29T15:18:34.001Z</time></trkpt><trkpt lat="43.92550691492106" lon="11.207791019826924"><ele>215.0</ele><time>2026-04-29T15:18:35.001Z</time></trkpt><trkpt lat="43.92535705237412" lon="11.207805267078175"><ele>215.0</ele><time>2026-04-29T15:18:36.001Z</time></trkpt><trkpt lat="43.92521363445003" lon="11.207831565851109"><ele>215.0</ele><time>2026-04-29T15:18:37.001Z</time></trkpt><trkpt lat="43.9250825840528" lon="11.20787119784554"><ele>215.0</ele><time>2026-04-29T15:18:38.001Z</time></trkpt><trkpt lat="43.92495844317444" lon="11.207947703977121"><ele>217.25</ele><time>2026-04-29T15:18:39.001Z</time></trkpt><trkpt lat="43.92484582511021" lon="11.208051439504933"><ele>219.5</ele><time>2026-04-29T15:18:40.001Z</time></trkpt><trkpt lat="43.924748696744466" lon="11.208171071959539"><ele>221.75</ele><time>2026-04-29T15:18:41.001Z</time></trkpt><trkpt lat="43.92463095449867" lon="11.208273287059345"><ele>224.0</ele><time>2026-04-29T15:18:42.001Z</time></trkpt><trkpt lat="43.92450708514361" lon="11.208354732061347"><ele>224.0</ele><time>2026-04-29T15:18:43.001Z</time></trkpt><trkpt lat="43.92436305596238" lon="11.208433226171195"><ele>224.0</ele><time>2026-04-29T15:18:44.001Z</time></trkpt><trkpt lat="43.924197830858795" lon="11.20845447852571"><ele>224.0</ele><time>2026-04-29T15:18:45.001Z</time></trkpt><trkpt lat="43.92402077043848" lon="11.208419041649305"><ele>216.66666666666669</ele><time>2026-04-29T15:18:46.001Z</time></trkpt><trkpt lat="43.92386395691968" lon="11.208351701079604"><ele>209.33333333333331</ele><time>2026-04-29T15:18:47.001Z</time></trkpt><trkpt lat="43.92372129141146" lon="11.208254303628335"><ele>202.0</ele><time>2026-04-29T15:18:48.001Z</time></trkpt><trkpt lat="43.9235968465844" lon="11.208121583328122"><ele>201.5</ele><time>2026-04-29T15:18:49.001Z</time></trkpt><trkpt lat="43.923485338770135" lon="11.207964328560761"><ele>201.0</ele><time>2026-04-29T15:18:50.001Z</time></trkpt><trkpt lat="43.92338863510918" lon="11.207812252733449"><ele>200.5</ele><time>2026-04-29T15:18:51.001Z</time></trkpt><trkpt lat="43.92330202019918" lon="11.207678404536319"><ele>200.0</ele><time>2026-04-29T15:18:52.001Z</time></trkpt><trkpt lat="43.923224402506854" lon="11.20754471249418"><ele>200.0</ele><time>2026-04-29T15:18:53.001Z</time></trkpt><trkpt lat="43.92315029418548" lon="11.207417737783308"><ele>200.0</ele><time>2026-04-29T15:18:54.001Z</time></trkpt><trkpt lat="43.92307441144518" lon="11.207294354645795"><ele>200.0</ele><time>2026-04-29T15:18:55.001Z</time></trkpt><trkpt lat="43.92299568468931" lon="11.207161808943063"><ele>200.0</ele><time>2026-04-29T15:18:56.001Z</time></trkpt><trkpt lat="43.92291838595351" lon="11.207032504071476"><ele>198.0</ele><time>2026-04-29T15:18:57.001Z</time></trkpt><trkpt lat="43.92284175443501" lon="11.206906019344466"><ele>196.0</ele><time>2026-04-29T15:18:58.001Z</time></trkpt><trkpt lat="43.922769273283066" lon="11.20677219401946"><ele>194.0</ele><time>2026-04-29T15:18:59.001Z</time></trkpt><trkpt lat="43.92270131096521" lon="11.206621202559374"><ele>192.0</ele><time>2026-04-29T15:19:00.001Z</time></trkpt><trkpt lat="43.922632591848064" lon="11.206480822918328"><ele>192.0</ele><time>2026-04-29T15:19:01.001Z</time></trkpt><trkpt lat="43.92257361864757" lon="11.206314327108425"><ele>192.0</ele><time>2026-04-29T15:19:02.001Z</time></trkpt><trkpt lat="43.9225123797915" lon="11.206150146370248"><ele>192.0</ele><time>2026-04-29T15:19:03.001Z</time></trkpt><trkpt lat="43.92245883326053" lon="11.20600293394226"><ele>192.0</ele><time>2026-04-29T15:19:04.001Z</time></trkpt><trkpt lat="43.92240094217139" lon="11.205853742960512"><ele>193.5</ele><time>2026-04-29T15:19:05.001Z</time></trkpt><trkpt lat="43.922351808601405" lon="11.205706692554688"><ele>195.0</ele><time>2026-04-29T15:19:06.001Z</time></trkpt><trkpt lat="43.92230535529942" lon="11.205556098516283"><ele>196.5</ele><time>2026-04-29T15:19:07.001Z</time></trkpt><trkpt lat="43.922253299714654" lon="11.205408550083403"><ele>198.0</ele><time>2026-04-29T15:19:08.001Z</time></trkpt><trkpt lat="43.922182255541756" lon="11.205234358069793"><ele>198.0</ele><time>2026-04-29T15:19:09.001Z</time></trkpt><trkpt lat="43.92211168345143" lon="11.205011280654503"><ele>198.0</ele><time>2026-04-29T15:19:10.001Z</time></trkpt><trkpt lat="43.92203258402916" lon="11.204762528352784"><ele>198.0</ele><time>2026-04-29T15:19:11.001Z</time></trkpt><trkpt lat="43.92194441793273" lon="11.204514363798818"><ele>197.33333333333331</ele><time>2026-04-29T15:19:12.001Z</time></trkpt><trkpt lat="43.92182949581507" lon="11.204275624613253"><ele>196.66666666666666</ele><time>2026-04-29T15:19:13.001Z</time></trkpt><trkpt lat="43.921698862170565" lon="11.204071221246588"><ele>196.0</ele><time>2026-04-29T15:19:14.001Z</time></trkpt><trkpt lat="43.921550989098215" lon="11.203909963590032"><ele>196.0</ele><time>2026-04-29T15:19:15.001Z</time></trkpt><trkpt lat="43.92137179989392" lon="11.203766926444242"><ele>196.0</ele><time>2026-04-29T15:19:16.001Z</time></trkpt><trkpt lat="43.92118038101882" lon="11.203647695053832"><ele>196.0</ele><time>2026-04-29T15:19:17.001Z</time></trkpt><trkpt lat="43.920985659059" lon="11.203518994390855"><ele>197.0</ele><time>2026-04-29T15:19:18.001Z</time></trkpt><trkpt lat="43.92081535422039" lon="11.20336589060261"><ele>198.0</ele><time>2026-04-29T15:19:19.001Z</time></trkpt><trkpt lat="43.92066074496122" lon="11.203177404553996"><ele>199.0</ele><time>2026-04-29T15:19:20.001Z</time></trkpt><trkpt lat="43.92052434974053" lon="11.202975066642786"><ele>199.0</ele><time>2026-04-29T15:19:21.001Z</time></trkpt><trkpt lat="43.92043035849751" lon="11.202729892381104"><ele>199.0</ele><time>2026-04-29T15:19:22.001Z</time></trkpt><trkpt lat="43.92031795545463" lon="11.202478034664507"><ele>199.0</ele><time>2026-04-29T15:19:23.001Z</time></trkpt><trkpt lat="43.92023081299927" lon="11.20217876873239"><ele>198.5</ele><time>2026-04-29T15:19:24.001Z</time></trkpt><trkpt lat="43.92010730753223" lon="11.201903755260805"><ele>198.0</ele><time>2026-04-29T15:19:25.001Z</time></trkpt><trkpt lat="43.91996097035033" lon="11.201645644807677"><ele>191.5</ele><time>2026-04-29T15:19:26.001Z</time></trkpt><trkpt lat="43.919793622044416" lon="11.201388283143755"><ele>185.0</ele><time>2026-04-29T15:19:27.001Z</time></trkpt><trkpt lat="43.9196256802464" lon="11.201129844399457"><ele>185.0</ele><time>2026-04-29T15:19:28.001Z</time></trkpt><trkpt lat="43.91947307603241" lon="11.20088382066794"><ele>185.0</ele><time>2026-04-29T15:19:29.001Z</time></trkpt><trkpt lat="43.91931568046351" lon="11.200655353281014"><ele>184.33333333333331</ele><time>2026-04-29T15:19:30.001Z</time></trkpt><trkpt lat="43.91915230333809" lon="11.200446228579185"><ele>183.66666666666666</ele><time>2026-04-29T15:19:31.001Z</time></trkpt><trkpt lat="43.91898880752552" lon="11.200250830679133"><ele>183.0</ele><time>2026-04-29T15:19:32.001Z</time></trkpt><trkpt lat="43.918844301968974" lon="11.200005914018153"><ele>178.0</ele><time>2026-04-29T15:19:33.001Z</time></trkpt><trkpt lat="43.91871576469299" lon="11.19973667050314"><ele>173.0</ele><time>2026-04-29T15:19:34.001Z</time></trkpt><trkpt lat="43.91858745044184" lon="11.199477343446024"><ele>173.0</ele><time>2026-04-29T15:19:35.001Z</time></trkpt><trkpt lat="43.918448056970014" lon="11.199231743552229"><ele>173.0</ele><time>2026-04-29T15:19:36.001Z</time></trkpt><trkpt lat="43.91828724589662" lon="11.199013695287798"><ele>172.0</ele><time>2026-04-29T15:19:37.001Z</time></trkpt><trkpt lat="43.918097205286664" lon="11.198827741383623"><ele>171.0</ele><time>2026-04-29T15:19:38.001Z</time></trkpt><trkpt lat="43.91787849735255" lon="11.198674450250836"><ele>171.0</ele><time>2026-04-29T15:19:39.001Z</time></trkpt><trkpt lat="43.91764826809599" lon="11.198514582438046"><ele>171.0</ele><time>2026-04-29T15:19:40.001Z</time></trkpt><trkpt lat="43.917416197640264" lon="11.19835257927306"><ele>172.0</ele><time>2026-04-29T15:19:41.001Z</time></trkpt><trkpt lat="43.917179480523494" lon="11.198195206134299"><ele>173.0</ele><time>2026-04-29T15:19:42.001Z</time></trkpt><trkpt lat="43.91694088888717" lon="11.198040452033174"><ele>170.0</ele><time>2026-04-29T15:19:43.001Z</time></trkpt><trkpt lat="43.91670299114039" lon="11.197887741408403"><ele>167.0</ele><time>2026-04-29T15:19:44.001Z</time></trkpt><trkpt lat="43.91646214849131" lon="11.197745302634655"><ele>167.0</ele><time>2026-04-29T15:19:45.001Z</time></trkpt><trkpt lat="43.91622416515419" lon="11.197606531600318"><ele>167.0</ele><time>2026-04-29T15:19:46.001Z</time></trkpt><trkpt lat="43.91598742789836" lon="11.19746672476338"><ele>164.0</ele><time>2026-04-29T15:19:47.001Z</time></trkpt><trkpt lat="43.91575777360528" lon="11.197322898619355"><ele>161.0</ele><time>2026-04-29T15:19:48.001Z</time></trkpt><trkpt lat="43.915535533477325" lon="11.197170842998744"><ele>161.0</ele><time>2026-04-29T15:19:49.001Z</time></trkpt><trkpt lat="43.91531684461998" lon="11.19702728206089"><ele>161.0</ele><time>2026-04-29T15:19:50.001Z</time></trkpt><trkpt lat="43.91510000655795" lon="11.196886345876113"><ele>161.5</ele><time>2026-04-29T15:19:51.001Z</time></trkpt><trkpt lat="43.91488602394185" lon="11.196746650861272"><ele>162.0</ele><time>2026-04-29T15:19:52.001Z</time></trkpt><trkpt lat="43.91467359528497" lon="11.196604636297154"><ele>159.5</ele><time>2026-04-29T15:19:53.001Z</time></trkpt><trkpt lat="43.91446999715191" lon="11.196449805194776"><ele>157.0</ele><time>2026-04-29T15:19:54.001Z</time></trkpt><trkpt lat="43.914280001615474" lon="11.19628264438196"><ele>157.66666666666669</ele><time>2026-04-29T15:19:55.001Z</time></trkpt><trkpt lat="43.91409694562837" lon="11.196094915058822"><ele>158.33333333333334</ele><time>2026-04-29T15:19:56.001Z</time></trkpt><trkpt lat="43.91394020884894" lon="11.195898773169002"><ele>159.0</ele><time>2026-04-29T15:19:57.001Z</time></trkpt><trkpt lat="43.91379259031303" lon="11.195684141322381"><ele>158.66666666666666</ele><time>2026-04-29T15:19:58.001Z</time></trkpt><trkpt lat="43.91364138183122" lon="11.195473789665412"><ele>158.33333333333331</ele><time>2026-04-29T15:19:59.001Z</time></trkpt><trkpt lat="43.91350148078392" lon="11.195256216801992"><ele>158.0</ele><time>2026-04-29T15:20:00.001Z</time></trkpt><trkpt lat="43.91335858587743" lon="11.195043901571191"><ele>155.0</ele><time>2026-04-29T15:20:01.001Z</time></trkpt><trkpt lat="43.913207288870076" lon="11.194834281557812"><ele>152.0</ele><time>2026-04-29T15:20:02.001Z</time></trkpt><trkpt lat="43.912898209654465" lon="11.194834034273022"><ele>152.0</ele><time>2026-04-29T15:20:03.001Z</time></trkpt><trkpt lat="43.91268784676784" lon="11.194686899665927"><ele>152.0</ele><time>2026-04-29T15:20:04.001Z</time></trkpt><trkpt lat="43.91247737408266" lon="11.194537812426107"><ele>152.0</ele><time>2026-04-29T15:20:05.001Z</time></trkpt><trkpt lat="43.912261187306335" lon="11.194387530816186"><ele>152.0</ele><time>2026-04-29T15:20:06.001Z</time></trkpt><trkpt lat="43.91204489180108" lon="11.194234925618806"><ele>152.0</ele><time>2026-04-29T15:20:07.001Z</time></trkpt><trkpt lat="43.91183024630511" lon="11.194084483618338"><ele>152.0</ele><time>2026-04-29T15:20:08.001Z</time></trkpt><trkpt lat="43.911617175316856" lon="11.193935509009608"><ele>151.0</ele><time>2026-04-29T15:20:09.001Z</time></trkpt><trkpt lat="43.91140505009834" lon="11.193785377523769"><ele>150.0</ele><time>2026-04-29T15:20:10.001Z</time></trkpt><trkpt lat="43.91119253579935" lon="11.193634764436288"><ele>150.0</ele><time>2026-04-29T15:20:11.001Z</time></trkpt><trkpt lat="43.91098924804552" lon="11.19349381698689"><ele>150.0</ele><time>2026-04-29T15:20:12.001Z</time></trkpt><trkpt lat="43.91079341367707" lon="11.19336495347897"><ele>150.0</ele><time>2026-04-29T15:20:13.001Z</time></trkpt><trkpt lat="43.91060795955274" lon="11.193237953313348"><ele>149.0</ele><time>2026-04-29T15:20:14.001Z</time></trkpt><trkpt lat="43.91043184790515" lon="11.193113987114637"><ele>148.0</ele><time>2026-04-29T15:20:15.001Z</time></trkpt><trkpt lat="43.91026184519967" lon="11.192997213794072"><ele>147.0</ele><time>2026-04-29T15:20:16.001Z</time></trkpt><trkpt lat="43.910094679672575" lon="11.192880517903882"><ele>146.0</ele><time>2026-04-29T15:20:17.001Z</time></trkpt><trkpt lat="43.909934556691034" lon="11.192767376099098"><ele>145.0</ele><time>2026-04-29T15:20:18.001Z</time></trkpt><trkpt lat="43.90976473152012" lon="11.19265473958943"><ele>144.0</ele><time>2026-04-29T15:20:19.001Z</time></trkpt><trkpt lat="43.90959375902812" lon="11.19254519396374"><ele>144.0</ele><time>2026-04-29T15:20:20.001Z</time></trkpt><trkpt lat="43.90942180056083" lon="11.192436222594234"><ele>144.0</ele><time>2026-04-29T15:20:21.001Z</time></trkpt><trkpt lat="43.90924631915584" lon="11.19233563556459"><ele>144.0</ele><time>2026-04-29T15:20:22.001Z</time></trkpt><trkpt lat="43.90906392397266" lon="11.192258369551185"><ele>143.33333333333334</ele><time>2026-04-29T15:20:23.001Z</time></trkpt><trkpt lat="43.90887315789588" lon="11.192206755467211"><ele>142.66666666666669</ele><time>2026-04-29T15:20:24.001Z</time></trkpt><trkpt lat="43.90867559756512" lon="11.19216587490652"><ele>142.0</ele><time>2026-04-29T15:20:25.001Z</time></trkpt><trkpt lat="43.90847762226974" lon="11.192130734413963"><ele>141.66666666666669</ele><time>2026-04-29T15:20:26.001Z</time></trkpt><trkpt lat="43.908273325631875" lon="11.19208162998121"><ele>141.33333333333334</ele><time>2026-04-29T15:20:27.001Z</time></trkpt><trkpt lat="43.90808202534023" lon="11.192001226349332"><ele>141.0</ele><time>2026-04-29T15:20:28.001Z</time></trkpt><trkpt lat="43.90789779348356" lon="11.191909340970195"><ele>141.0</ele><time>2026-04-29T15:20:29.001Z</time></trkpt><trkpt lat="43.907679249253334" lon="11.191727147900938"><ele>141.0</ele><time>2026-04-29T15:20:30.001Z</time></trkpt><trkpt lat="43.90749672074869" lon="11.191567025902803"><ele>139.66666666666666</ele><time>2026-04-29T15:20:31.001Z</time></trkpt><trkpt lat="43.907322041791375" lon="11.19141735746958"><ele>138.33333333333331</ele><time>2026-04-29T15:20:32.001Z</time></trkpt><trkpt lat="43.907145284397075" lon="11.191271210820343"><ele>137.0</ele><time>2026-04-29T15:20:33.001Z</time></trkpt><trkpt lat="43.9069682577875" lon="11.191127331035418"><ele>137.0</ele><time>2026-04-29T15:20:34.001Z</time></trkpt><trkpt lat="43.906790673107004" lon="11.190995541750613"><ele>137.0</ele><time>2026-04-29T15:20:35.001Z</time></trkpt><trkpt lat="43.906594324862944" lon="11.190902667665203"><ele>137.0</ele><time>2026-04-29T15:20:36.001Z</time></trkpt><trkpt lat="43.9063826038024" lon="11.190811755409234"><ele>136.0</ele><time>2026-04-29T15:20:37.001Z</time></trkpt><trkpt lat="43.90617709869677" lon="11.190680140253155"><ele>135.0</ele><time>2026-04-29T15:20:38.001Z</time></trkpt><trkpt lat="43.9059782329008" lon="11.190499571013296"><ele>133.66666666666666</ele><time>2026-04-29T15:20:39.001Z</time></trkpt><trkpt lat="43.90578602244786" lon="11.190328991230796"><ele>132.33333333333331</ele><time>2026-04-29T15:20:40Z</time></trkpt><trkpt lat="43.90560464772601" lon="11.190177169715897"><ele>131.0</ele><time>2026-04-29T15:20:41Z</time></trkpt><trkpt lat="43.90543292179913" lon="11.190029487337643"><ele>131.0</ele><time>2026-04-29T15:20:42Z</time></trkpt><trkpt lat="43.90526661455729" lon="11.18989135605233"><ele>131.0</ele><time>2026-04-29T15:20:43Z</time></trkpt><trkpt lat="43.90510336823534" lon="11.189762129222565"><ele>131.0</ele><time>2026-04-29T15:20:44Z</time></trkpt><trkpt lat="43.90495164525696" lon="11.189628319295124"><ele>130.0</ele><time>2026-04-29T15:20:45Z</time></trkpt><trkpt lat="43.904807897270146" lon="11.189497783388646"><ele>129.0</ele><time>2026-04-29T15:20:46Z</time></trkpt><trkpt lat="43.9046728675242" lon="11.189383168164742"><ele>128.0</ele><time>2026-04-29T15:20:47Z</time></trkpt><trkpt lat="43.90453983740324" lon="11.189293280408249"><ele>128.0</ele><time>2026-04-29T15:20:48Z</time></trkpt><trkpt lat="43.90439207318067" lon="11.189240362080948"><ele>128.0</ele><time>2026-04-29T15:20:49Z</time></trkpt><trkpt lat="43.90422433115496" lon="11.18923015098571"><ele>128.0</ele><time>2026-04-29T15:20:50Z</time></trkpt><trkpt lat="43.904041512800724" lon="11.189235475764072"><ele>128.0</ele><time>2026-04-29T15:20:51Z</time></trkpt><trkpt lat="43.903850440451755" lon="11.189222939620196"><ele>128.0</ele><time>2026-04-29T15:20:52.001Z</time></trkpt><trkpt lat="43.903655795936984" lon="11.189202019306327"><ele>128.0</ele><time>2026-04-29T15:20:53.001Z</time></trkpt><trkpt lat="43.90345555065328" lon="11.18917798716929"><ele>127.0</ele><time>2026-04-29T15:20:54.001Z</time></trkpt><trkpt lat="43.903250131484945" lon="11.18916360007495"><ele>126.0</ele><time>2026-04-29T15:20:55.001Z</time></trkpt><trkpt lat="43.90303432817343" lon="11.18915225240026"><ele>125.0</ele><time>2026-04-29T15:20:56.001Z</time></trkpt><trkpt lat="43.902808879252994" lon="11.189143568832018"><ele>124.0</ele><time>2026-04-29T15:20:57.001Z</time></trkpt><trkpt lat="43.902570670088224" lon="11.189139465759608"><ele>123.0</ele><time>2026-04-29T15:20:58.001Z</time></trkpt><trkpt lat="43.90233996460586" lon="11.189143475128503"><ele>123.0</ele><time>2026-04-29T15:20:59.001Z</time></trkpt><trkpt lat="43.90210572256352" lon="11.18914046722782"><ele>123.0</ele><time>2026-04-29T15:21:00.001Z</time></trkpt><trkpt lat="43.90188548072781" lon="11.18913645266242"><ele>122.66666666666666</ele><time>2026-04-29T15:21:01.001Z</time></trkpt><trkpt lat="43.901667602699526" lon="11.189128772225175"><ele>122.33333333333333</ele><time>2026-04-29T15:21:02.001Z</time></trkpt><trkpt lat="43.901453498040034" lon="11.189112593017587"><ele>122.0</ele><time>2026-04-29T15:21:03.001Z</time></trkpt><trkpt lat="43.90125028801048" lon="11.189074762410337"><ele>122.0</ele><time>2026-04-29T15:21:04.001Z</time></trkpt><trkpt lat="43.901064458846605" lon="11.189029710361703"><ele>122.0</ele><time>2026-04-29T15:21:05.001Z</time></trkpt><trkpt lat="43.900895889092155" lon="11.188994870304008"><ele>122.0</ele><time>2026-04-29T15:21:06.001Z</time></trkpt><trkpt lat="43.900743852364215" lon="11.188960844207285"><ele>121.66666666666666</ele><time>2026-04-29T15:21:07.001Z</time></trkpt><trkpt lat="43.900606341642415" lon="11.188925505384761"><ele>121.33333333333334</ele><time>2026-04-29T15:21:08.001Z</time></trkpt><trkpt lat="43.90047146034492" lon="11.188842476695575"><ele>121.0</ele><time>2026-04-29T15:21:09.001Z</time></trkpt><trkpt lat="43.900322374224615" lon="11.188728697627402"><ele>121.0</ele><time>2026-04-29T15:21:10.001Z</time></trkpt><trkpt lat="43.900151520047864" lon="11.188593251075707"><ele>121.0</ele><time>2026-04-29T15:21:11.001Z</time></trkpt><trkpt lat="43.8999674738988" lon="11.188448395260018"><ele>121.0</ele><time>2026-04-29T15:21:12.001Z</time></trkpt><trkpt lat="43.89980353351063" lon="11.188302344649685"><ele>120.66666666666667</ele><time>2026-04-29T15:21:13.001Z</time></trkpt><trkpt lat="43.899647514318495" lon="11.188183513614543"><ele>120.33333333333334</ele><time>2026-04-29T15:21:14.001Z</time></trkpt><trkpt lat="43.89950331896802" lon="11.18807018722957"><ele>120.0</ele><time>2026-04-29T15:21:15.001Z</time></trkpt><trkpt lat="43.89937896402586" lon="11.187969623929682"><ele>119.6</ele><time>2026-04-29T15:21:16.001Z</time></trkpt><trkpt lat="43.899268351329326" lon="11.18790485844517"><ele>119.2</ele><time>2026-04-29T15:21:17.001Z</time></trkpt><trkpt lat="43.89916695996505" lon="11.187863730954238"><ele>118.80000000000001</ele><time>2026-04-29T15:21:18.001Z</time></trkpt><trkpt lat="43.899076185531435" lon="11.187818155442326"><ele>118.4</ele><time>2026-04-29T15:21:19.001Z</time></trkpt><trkpt lat="43.899002197900465" lon="11.18774098440424"><ele>118.0</ele><time>2026-04-29T15:21:20.001Z</time></trkpt><trkpt lat="43.898933379154435" lon="11.187691167106706"><ele>117.5</ele><time>2026-04-29T15:21:21.001Z</time></trkpt><trkpt lat="43.89885306298916" lon="11.187726230306268"><ele>117.0</ele><time>2026-04-29T15:21:22.001Z</time></trkpt><trkpt lat="43.898772445046305" lon="11.187813781347577"><ele>116.5</ele><time>2026-04-29T15:21:23.001Z</time></trkpt><trkpt lat="43.89869577908351" lon="11.187966627782897"><ele>116.0</ele><time>2026-04-29T15:21:24.001Z</time></trkpt><trkpt lat="43.89859617735546" lon="11.188106037339246"><ele>117.0</ele><time>2026-04-29T15:21:25.001Z</time></trkpt><trkpt lat="43.8984336260353" lon="11.188185429968076"><ele>118.0</ele><time>2026-04-29T15:21:26.001Z</time></trkpt><trkpt lat="43.898259826053945" lon="11.188255603811493"><ele>119.0</ele><time>2026-04-29T15:21:27.001Z</time></trkpt><trkpt lat="43.89806667529297" lon="11.188305311951424"><ele>120.33333333333333</ele><time>2026-04-29T15:21:28.001Z</time></trkpt><trkpt lat="43.897851035841676" lon="11.188287326406028"><ele>121.66666666666666</ele><time>2026-04-29T15:21:29.001Z</time></trkpt><trkpt lat="43.89765198393051" lon="11.188239247948822"><ele>123.0</ele><time>2026-04-29T15:21:30.001Z</time></trkpt><trkpt lat="43.897460161391756" lon="11.188186616144122"><ele>121.33333333333334</ele><time>2026-04-29T15:21:31.001Z</time></trkpt><trkpt lat="43.897254665800034" lon="11.188143379566514"><ele>119.66666666666667</ele><time>2026-04-29T15:21:32.001Z</time></trkpt><trkpt lat="43.897040306789826" lon="11.188092418165512"><ele>118.0</ele><time>2026-04-29T15:21:33.001Z</time></trkpt><trkpt lat="43.896823161112394" lon="11.188038786471706"><ele>119.0</ele><time>2026-04-29T15:21:34.001Z</time></trkpt><trkpt lat="43.896608652515134" lon="11.187987968630038"><ele>120.0</ele><time>2026-04-29T15:21:35.001Z</time></trkpt><trkpt lat="43.89639614125137" lon="11.187927490401648"><ele>121.0</ele><time>2026-04-29T15:21:36.001Z</time></trkpt><trkpt lat="43.89617692600982" lon="11.187840650592683"><ele>121.0</ele><time>2026-04-29T15:21:37.001Z</time></trkpt><trkpt lat="43.89596191797394" lon="11.187735117084744"><ele>121.0</ele><time>2026-04-29T15:21:38.001Z</time></trkpt><trkpt lat="43.89575289423534" lon="11.187613958907374"><ele>119.5</ele><time>2026-04-29T15:21:39.001Z</time></trkpt><trkpt lat="43.895545897750246" lon="11.187478778982838"><ele>118.0</ele><time>2026-04-29T15:21:40.001Z</time></trkpt><trkpt lat="43.895347168528055" lon="11.187336856200805"><ele>118.0</ele><time>2026-04-29T15:21:41.001Z</time></trkpt><trkpt lat="43.895159761690174" lon="11.187177455972494"><ele>118.0</ele><time>2026-04-29T15:21:42.001Z</time></trkpt><trkpt lat="43.89497584122467" lon="11.187004831297036"><ele>118.0</ele><time>2026-04-29T15:21:43.001Z</time></trkpt><trkpt lat="43.89479486481721" lon="11.186819888812257"><ele>117.5</ele><time>2026-04-29T15:21:44.001Z</time></trkpt><trkpt lat="43.894620949183945" lon="11.186626214689072"><ele>117.0</ele><time>2026-04-29T15:21:45.001Z</time></trkpt><trkpt lat="43.894452883720064" lon="11.186411111529235"><ele>117.0</ele><time>2026-04-29T15:21:46.001Z</time></trkpt><trkpt lat="43.89429434369478" lon="11.186184563106968"><ele>117.0</ele><time>2026-04-29T15:21:47.001Z</time></trkpt><trkpt lat="43.89413993947192" lon="11.18593984165531"><ele>115.5</ele><time>2026-04-29T15:21:48.001Z</time></trkpt><trkpt lat="43.89398349191946" lon="11.185691508657982"><ele>114.0</ele><time>2026-04-29T15:21:49.001Z</time></trkpt><trkpt lat="43.89382738290223" lon="11.185445206439757"><ele>114.0</ele><time>2026-04-29T15:21:50.001Z</time></trkpt><trkpt lat="43.893679847021595" lon="11.185212328448213"><ele>114.0</ele><time>2026-04-29T15:21:51.001Z</time></trkpt><trkpt lat="43.893535132811884" lon="11.18498629935219"><ele>114.0</ele><time>2026-04-29T15:21:52.001Z</time></trkpt><trkpt lat="43.89339605984222" lon="11.18476687151483"><ele>113.0</ele><time>2026-04-29T15:21:53.001Z</time></trkpt><trkpt lat="43.89326390401055" lon="11.18455967022735"><ele>112.0</ele><time>2026-04-29T15:21:54.001Z</time></trkpt><trkpt lat="43.89313572296776" lon="11.184353739239588"><ele>111.0</ele><time>2026-04-29T15:21:55.001Z</time></trkpt><trkpt lat="43.89301589876556" lon="11.184162592365718"><ele>108.66666666666666</ele><time>2026-04-29T15:21:56.001Z</time></trkpt><trkpt lat="43.89289853345716" lon="11.183989537242221"><ele>106.33333333333333</ele><time>2026-04-29T15:21:57.001Z</time></trkpt><trkpt lat="43.892784439297145" lon="11.183832769141905"><ele>104.0</ele><time>2026-04-29T15:21:58.001Z</time></trkpt><trkpt lat="43.89267551635756" lon="11.183704796285149"><ele>105.2</ele><time>2026-04-29T15:21:59.001Z</time></trkpt><trkpt lat="43.89257695024027" lon="11.18359818836371"><ele>106.4</ele><time>2026-04-29T15:22:00.001Z</time></trkpt><trkpt lat="43.89248310165418" lon="11.183518751708341"><ele>107.6</ele><time>2026-04-29T15:22:01.001Z</time></trkpt><trkpt lat="43.89240969011478" lon="11.18346047593738"><ele>108.8</ele><time>2026-04-29T15:22:02Z</time></trkpt><trkpt lat="43.89234296074172" lon="11.183409583938456"><ele>110.0</ele><time>2026-04-29T15:22:03Z</time></trkpt><trkpt lat="43.89228860490301" lon="11.183353058560645"><ele>109.99999999999999</ele><time>2026-04-29T15:22:04Z</time></trkpt><trkpt lat="43.89224758838091" lon="11.183277991540864"><ele>110.0</ele><time>2026-04-29T15:22:05Z</time></trkpt><trkpt lat="43.892200766033426" lon="11.18320551693842"><ele>110.0</ele><time>2026-04-29T15:22:06Z</time></trkpt><trkpt lat="43.892129397396175" lon="11.183154512620693"><ele>110.0</ele><time>2026-04-29T15:22:07Z</time></trkpt><trkpt lat="43.892037943547784" lon="11.183134641764894"><ele>109.99999999999999</ele><time>2026-04-29T15:22:08Z</time></trkpt><trkpt lat="43.89193484855121" lon="11.183098071439629"><ele>110.0</ele><time>2026-04-29T15:22:09Z</time></trkpt><trkpt lat="43.891812247906245" lon="11.183027634844272"><ele>108.0</ele><time>2026-04-29T15:22:10Z</time></trkpt><trkpt lat="43.891669173194515" lon="11.182945077188398"><ele>106.0</ele><time>2026-04-29T15:22:11Z</time></trkpt><trkpt lat="43.89150604510714" lon="11.182862082169901"><ele>104.0</ele><time>2026-04-29T15:22:12Z</time></trkpt><trkpt lat="43.891331282825455" lon="11.182796635815649"><ele>104.0</ele><time>2026-04-29T15:22:13Z</time></trkpt><trkpt lat="43.89114537442861" lon="11.182732018297248"><ele>104.0</ele><time>2026-04-29T15:22:14Z</time></trkpt><trkpt lat="43.89097737349342" lon="11.182663988286254"><ele>104.0</ele><time>2026-04-29T15:22:15Z</time></trkpt><trkpt lat="43.890785230740676" lon="11.182621923158766"><ele>103.66666666666666</ele><time>2026-04-29T15:22:16Z</time></trkpt><trkpt lat="43.890600796320754" lon="11.182599996106159"><ele>103.33333333333334</ele><time>2026-04-29T15:22:17Z</time></trkpt><trkpt lat="43.89041697898181" lon="11.18258448099069"><ele>103.0</ele><time>2026-04-29T15:22:18Z</time></trkpt><trkpt lat="43.89022998185808" lon="11.182579225202833"><ele>102.33333333333334</ele><time>2026-04-29T15:22:19Z</time></trkpt><trkpt lat="43.890046584224876" lon="11.182569943126012"><ele>101.66666666666666</ele><time>2026-04-29T15:22:20Z</time></trkpt><trkpt lat="43.889871627897875" lon="11.182552648155143"><ele>101.0</ele><time>2026-04-29T15:22:21Z</time></trkpt><trkpt lat="43.889703096530965" lon="11.182517734683689"><ele>101.0</ele><time>2026-04-29T15:22:22Z</time></trkpt><trkpt lat="43.889537561663516" lon="11.182502218499703"><ele>101.0</ele><time>2026-04-29T15:22:23Z</time></trkpt><trkpt lat="43.88937820632776" lon="11.182507239526828"><ele>101.0</ele><time>2026-04-29T15:22:24Z</time></trkpt><trkpt lat="43.889224087560365" lon="11.182488865739925"><ele>101.66666666666666</ele><time>2026-04-29T15:22:25Z</time></trkpt><trkpt lat="43.889060725076234" lon="11.182458394100113"><ele>102.33333333333334</ele><time>2026-04-29T15:22:26Z</time></trkpt><trkpt lat="43.88887699462059" lon="11.182442469131841"><ele>103.0</ele><time>2026-04-29T15:22:27Z</time></trkpt><trkpt lat="43.88869795739209" lon="11.182423538112097"><ele>103.0</ele><time>2026-04-29T15:22:28Z</time></trkpt><trkpt lat="43.88853142017729" lon="11.182397538814653"><ele>103.0</ele><time>2026-04-29T15:22:29Z</time></trkpt><trkpt lat="43.88837228841488" lon="11.182372967398262"><ele>103.0</ele><time>2026-04-29T15:22:30Z</time></trkpt><trkpt lat="43.88822414034488" lon="11.182331878003396"><ele>100.75</ele><time>2026-04-29T15:22:31Z</time></trkpt><trkpt lat="43.888083204166" lon="11.182293654416899"><ele>98.5</ele><time>2026-04-29T15:22:32Z</time></trkpt><trkpt lat="43.88795424658493" lon="11.182258618975613"><ele>96.25</ele><time>2026-04-29T15:22:33Z</time></trkpt><trkpt lat="43.8878347431275" lon="11.182233608382107"><ele>94.0</ele><time>2026-04-29T15:22:34Z</time></trkpt><trkpt lat="43.88771283086694" lon="11.18220957300935"><ele>94.0</ele><time>2026-04-29T15:22:35Z</time></trkpt><trkpt lat="43.88757427312017" lon="11.18218494071023"><ele>94.0</ele><time>2026-04-29T15:22:36Z</time></trkpt><trkpt lat="43.88743343779307" lon="11.182153721368014"><ele>94.0</ele><time>2026-04-29T15:22:37Z</time></trkpt><trkpt lat="43.88729565603918" lon="11.182121184393747"><ele>94.0</ele><time>2026-04-29T15:22:38Z</time></trkpt><trkpt lat="43.887160711288466" lon="11.182088894448885"><ele>94.0</ele><time>2026-04-29T15:22:39Z</time></trkpt><trkpt lat="43.88702103942856" lon="11.182064558317185"><ele>94.0</ele><time>2026-04-29T15:22:40Z</time></trkpt><trkpt lat="43.88690150317233" lon="11.182025578827467"><ele>94.0</ele><time>2026-04-29T15:22:41Z</time></trkpt><trkpt lat="43.88679264406412" lon="11.181980600191192"><ele>94.0</ele><time>2026-04-29T15:22:42Z</time></trkpt><trkpt lat="43.88669528383323" lon="11.181921720346496"><ele>94.0</ele><time>2026-04-29T15:22:43Z</time></trkpt><trkpt lat="43.88659649344038" lon="11.18185799409801"><ele>94.0</ele><time>2026-04-29T15:22:44Z</time></trkpt><trkpt lat="43.88648997568548" lon="11.18178166554672"><ele>94.0</ele><time>2026-04-29T15:22:45Z</time></trkpt><trkpt lat="43.88638225857082" lon="11.181699668401"><ele>94.0</ele><time>2026-04-29T15:22:46Z</time></trkpt><trkpt lat="43.88626241255079" lon="11.181611378084435"><ele>94.0</ele><time>2026-04-29T15:22:47Z</time></trkpt><trkpt lat="43.8861340937162" lon="11.181524192879722"><ele>94.0</ele><time>2026-04-29T15:22:48Z</time></trkpt><trkpt lat="43.88600359665196" lon="11.181435800262337"><ele>94.0</ele><time>2026-04-29T15:22:49Z</time></trkpt><trkpt lat="43.885874132598545" lon="11.181347856364246"><ele>94.0</ele><time>2026-04-29T15:22:50Z</time></trkpt><trkpt lat="43.88573777691712" lon="11.181269030138761"><ele>93.25</ele><time>2026-04-29T15:22:51Z</time></trkpt><trkpt lat="43.88560454966526" lon="11.181201599277678"><ele>92.5</ele><time>2026-04-29T15:22:52Z</time></trkpt><trkpt lat="43.88547293061805" lon="11.181140669194024"><ele>91.75</ele><time>2026-04-29T15:22:53Z</time></trkpt><trkpt lat="43.88533537368001" lon="11.181091732743106"><ele>91.0</ele><time>2026-04-29T15:22:54Z</time></trkpt><trkpt lat="43.8852047091724" lon="11.181055449060484"><ele>91.0</ele><time>2026-04-29T15:22:55Z</time></trkpt><trkpt lat="43.8850814065335" lon="11.181022004039171"><ele>91.0</ele><time>2026-04-29T15:22:56Z</time></trkpt><trkpt lat="43.88496133233418" lon="11.181001675601264"><ele>91.0</ele><time>2026-04-29T15:22:57Z</time></trkpt><trkpt lat="43.884848535657305" lon="11.180981456386402"><ele>91.0</ele><time>2026-04-29T15:22:58.001Z</time></trkpt><trkpt lat="43.88473039053105" lon="11.180963605413478"><ele>91.0</ele><time>2026-04-29T15:22:59.001Z</time></trkpt><trkpt lat="43.88459275239055" lon="11.18093609477984"><ele>91.0</ele><time>2026-04-29T15:23:00.001Z</time></trkpt><trkpt lat="43.88442399647315" lon="11.180920160998676"><ele>91.0</ele><time>2026-04-29T15:23:01.001Z</time></trkpt><trkpt lat="43.88426783770982" lon="11.1809279142974"><ele>91.0</ele><time>2026-04-29T15:23:02.001Z</time></trkpt><trkpt lat="43.88414082163884" lon="11.180913428544304"><ele>91.0</ele><time>2026-04-29T15:23:03.001Z</time></trkpt><trkpt lat="43.88402688757093" lon="11.18090020420156"><ele>91.0</ele><time>2026-04-29T15:23:04.001Z</time></trkpt><trkpt lat="43.88393009323915" lon="11.180889001172213"><ele>91.0</ele><time>2026-04-29T15:23:05.001Z</time></trkpt><trkpt lat="43.88383581965725" lon="11.180869034786461"><ele>91.0</ele><time>2026-04-29T15:23:06.001Z</time></trkpt><trkpt lat="43.883746979781456" lon="11.180820675983846"><ele>91.0</ele><time>2026-04-29T15:23:07.001Z</time></trkpt><trkpt lat="43.88368097326262" lon="11.18072299109414"><ele>91.0</ele><time>2026-04-29T15:23:08.001Z</time></trkpt><trkpt lat="43.883608340338604" lon="11.180676196993403"><ele>91.0</ele><time>2026-04-29T15:23:09.001Z</time></trkpt><trkpt lat="43.88351606865582" lon="11.180655764224252"><ele>91.0</ele><time>2026-04-29T15:23:10.001Z</time></trkpt><trkpt lat="43.88340645994184" lon="11.180688700255176"><ele>91.0</ele><time>2026-04-29T15:23:11.001Z</time></trkpt><trkpt lat="43.88330847861818" lon="11.180765212968494"><ele>91.0</ele><time>2026-04-29T15:23:12.001Z</time></trkpt><trkpt lat="43.883184931089566" lon="11.180701373686631"><ele>91.0</ele><time>2026-04-29T15:23:13.001Z</time></trkpt><trkpt lat="43.883092488421276" lon="11.1806558847792"><ele>91.0</ele><time>2026-04-29T15:23:14.001Z</time></trkpt><trkpt lat="43.88301157442336" lon="11.180607821351698"><ele>91.0</ele><time>2026-04-29T15:23:15.001Z</time></trkpt><trkpt lat="43.88292671873898" lon="11.180570621426536"><ele>91.0</ele><time>2026-04-29T15:23:16.001Z</time></trkpt><trkpt lat="43.88284393701115" lon="11.180530589057586"><ele>91.0</ele><time>2026-04-29T15:23:17.001Z</time></trkpt><trkpt lat="43.882764044999995" lon="11.180489153260634"><ele>91.0</ele><time>2026-04-29T15:23:18.001Z</time></trkpt><trkpt lat="43.88266248404667" lon="11.180448200602468"><ele>91.0</ele><time>2026-04-29T15:23:19.001Z</time></trkpt><trkpt lat="43.88254867548067" lon="11.18040001246283"><ele>91.0</ele><time>2026-04-29T15:23:20.001Z</time></trkpt><trkpt lat="43.88243191800749" lon="11.180360041157964"><ele>91.0</ele><time>2026-04-29T15:23:21.001Z</time></trkpt><trkpt lat="43.8822922837681" lon="11.180301644599563"><ele>91.0</ele><time>2026-04-29T15:23:22.001Z</time></trkpt><trkpt lat="43.882142975764964" lon="11.180267735696724"><ele>91.0</ele><time>2026-04-29T15:23:23.001Z</time></trkpt><trkpt lat="43.88201897393429" lon="11.180245556837331"><ele>91.0</ele><time>2026-04-29T15:23:24.001Z</time></trkpt><trkpt lat="43.88191803213034" lon="11.180187124187709"><ele>91.0</ele><time>2026-04-29T15:23:25.001Z</time></trkpt><trkpt lat="43.88182474303775" lon="11.180123825004191"><ele>90.4</ele><time>2026-04-29T15:23:26.001Z</time></trkpt><trkpt lat="43.8817425260634" lon="11.180088332971806"><ele>89.8</ele><time>2026-04-29T15:23:27.001Z</time></trkpt><trkpt lat="43.88165713861285" lon="11.180122590893443"><ele>89.2</ele><time>2026-04-29T15:23:28.001Z</time></trkpt><trkpt lat="43.88158050377877" lon="11.180217119498653"><ele>88.60000000000001</ele><time>2026-04-29T15:23:29.001Z</time></trkpt><trkpt lat="43.88149424388905" lon="11.18035490629926"><ele>88.0</ele><time>2026-04-29T15:23:30.001Z</time></trkpt><trkpt lat="43.88139316938187" lon="11.1804861200815"><ele>88.0</ele><time>2026-04-29T15:23:31.001Z</time></trkpt><trkpt lat="43.881213432974" lon="11.180511557937688"><ele>88.0</ele><time>2026-04-29T15:23:32.001Z</time></trkpt><trkpt lat="43.881046051521395" lon="11.180496322855904"><ele>88.0</ele><time>2026-04-29T15:23:33.001Z</time></trkpt><trkpt lat="43.88087543463223" lon="11.180436012528267"><ele>87.66666666666666</ele><time>2026-04-29T15:23:34.001Z</time></trkpt><trkpt lat="43.88070233510324" lon="11.18038935617526"><ele>87.33333333333333</ele><time>2026-04-29T15:23:35.001Z</time></trkpt><trkpt lat="43.88052692371143" lon="11.180269515279209"><ele>87.0</ele><time>2026-04-29T15:23:36.001Z</time></trkpt><trkpt lat="43.88034794527987" lon="11.18011044941136"><ele>87.0</ele><time>2026-04-29T15:23:37.001Z</time></trkpt><trkpt lat="43.88018193835027" lon="11.17991779552023"><ele>87.0</ele><time>2026-04-29T15:23:38.001Z</time></trkpt><trkpt lat="43.88003625962827" lon="11.179689766798374"><ele>87.0</ele><time>2026-04-29T15:23:39.001Z</time></trkpt><trkpt lat="43.87989855235693" lon="11.179423384260712"><ele>87.0</ele><time>2026-04-29T15:23:40.001Z</time></trkpt><trkpt lat="43.87977111674583" lon="11.179144249416545"><ele>87.0</ele><time>2026-04-29T15:23:41.001Z</time></trkpt><trkpt lat="43.87964186617534" lon="11.178852122758396"><ele>84.5</ele><time>2026-04-29T15:23:42.001Z</time></trkpt><trkpt lat="43.87950397488855" lon="11.178557798635405"><ele>82.0</ele><time>2026-04-29T15:23:43Z</time></trkpt><trkpt lat="43.87936139213982" lon="11.17827003339409"><ele>83.0</ele><time>2026-04-29T15:23:44Z</time></trkpt><trkpt lat="43.87920551767273" lon="11.177984200018098"><ele>84.0</ele><time>2026-04-29T15:23:45Z</time></trkpt><trkpt lat="43.87904587139031" lon="11.17770946334234"><ele>84.0</ele><time>2026-04-29T15:23:46Z</time></trkpt><trkpt lat="43.87889130272166" lon="11.177454094803501"><ele>84.0</ele><time>2026-04-29T15:23:47Z</time></trkpt><trkpt lat="43.87874083179504" lon="11.177215541456114"><ele>84.5</ele><time>2026-04-29T15:23:48Z</time></trkpt><trkpt lat="43.87857879150122" lon="11.176984052211484"><ele>85.0</ele><time>2026-04-29T15:23:49Z</time></trkpt><trkpt lat="43.878419607179254" lon="11.176768971454193"><ele>85.0</ele><time>2026-04-29T15:23:50Z</time></trkpt><trkpt lat="43.878262410231514" lon="11.176568433161071"><ele>85.0</ele><time>2026-04-29T15:23:51Z</time></trkpt><trkpt lat="43.87809941516257" lon="11.176373493539629"><ele>85.0</ele><time>2026-04-29T15:23:52Z</time></trkpt><trkpt lat="43.87792135240521" lon="11.17618644842243"><ele>85.0</ele><time>2026-04-29T15:23:53Z</time></trkpt><trkpt lat="43.87773242827056" lon="11.176014490601807"><ele>85.0</ele><time>2026-04-29T15:23:54Z</time></trkpt><trkpt lat="43.87753810273972" lon="11.175850007607494"><ele>85.0</ele><time>2026-04-29T15:23:55Z</time></trkpt><trkpt lat="43.87734563477568" lon="11.1756912178796"><ele>85.0</ele><time>2026-04-29T15:23:56Z</time></trkpt><trkpt lat="43.87716479009415" lon="11.175538620136603"><ele>85.0</ele><time>2026-04-29T15:23:57Z</time></trkpt><trkpt lat="43.87699904977985" lon="11.175392500817063"><ele>85.0</ele><time>2026-04-29T15:23:58Z</time></trkpt><trkpt lat="43.87683763007277" lon="11.175253125200662"><ele>85.0</ele><time>2026-04-29T15:23:59Z</time></trkpt><trkpt lat="43.87668048542453" lon="11.175118552449543"><ele>85.0</ele><time>2026-04-29T15:24:00Z</time></trkpt><trkpt lat="43.87653061641459" lon="11.174992779637478"><ele>85.0</ele><time>2026-04-29T15:24:01Z</time></trkpt><trkpt lat="43.87639153452708" lon="11.17486743610157"><ele>85.0</ele><time>2026-04-29T15:24:02Z</time></trkpt><trkpt lat="43.87624795706638" lon="11.174745026898325"><ele>85.0</ele><time>2026-04-29T15:24:03Z</time></trkpt><trkpt lat="43.876101892646915" lon="11.174619073128667"><ele>83.66666666666666</ele><time>2026-04-29T15:24:04Z</time></trkpt><trkpt lat="43.87595602769007" lon="11.174486597286378"><ele>82.33333333333333</ele><time>2026-04-29T15:24:05Z</time></trkpt><trkpt lat="43.87580825164404" lon="11.17435605188133"><ele>81.0</ele><time>2026-04-29T15:24:06Z</time></trkpt><trkpt lat="43.875666297239746" lon="11.17421429593801"><ele>81.0</ele><time>2026-04-29T15:24:07Z</time></trkpt><trkpt lat="43.875524866117956" lon="11.174072533430122"><ele>81.0</ele><time>2026-04-29T15:24:08Z</time></trkpt><trkpt lat="43.8753893087741" lon="11.173934662799052"><ele>81.0</ele><time>2026-04-29T15:24:09Z</time></trkpt><trkpt lat="43.8752583003646" lon="11.173795967787514"><ele>81.66666666666667</ele><time>2026-04-29T15:24:10Z</time></trkpt><trkpt lat="43.875124468974555" lon="11.173659534849627"><ele>82.33333333333334</ele><time>2026-04-29T15:24:11Z</time></trkpt><trkpt lat="43.87498623710352" lon="11.173534065990877"><ele>83.0</ele><time>2026-04-29T15:24:12Z</time></trkpt><trkpt lat="43.874845419151804" lon="11.173418673123987"><ele>83.0</ele><time>2026-04-29T15:24:13Z</time></trkpt><trkpt lat="43.87471335905419" lon="11.17331229523435"><ele>83.0</ele><time>2026-04-29T15:24:14Z</time></trkpt><trkpt lat="43.87457620883393" lon="11.173210083343182"><ele>83.0</ele><time>2026-04-29T15:24:15Z</time></trkpt><trkpt lat="43.87444854218561" lon="11.173113145472477"><ele>81.66666666666667</ele><time>2026-04-29T15:24:16Z</time></trkpt><trkpt lat="43.87431108976177" lon="11.173007021201052"><ele>80.33333333333333</ele><time>2026-04-29T15:24:17Z</time></trkpt><trkpt lat="43.874172732199604" lon="11.172905753068939"><ele>79.0</ele><time>2026-04-29T15:24:18Z</time></trkpt><trkpt lat="43.874025449151425" lon="11.17279954206877"><ele>79.0</ele><time>2026-04-29T15:24:19Z</time></trkpt><trkpt lat="43.87388418628063" lon="11.172699570263022"><ele>79.0</ele><time>2026-04-29T15:24:20Z</time></trkpt><trkpt lat="43.87374114137008" lon="11.17259359914495"><ele>79.0</ele><time>2026-04-29T15:24:21Z</time></trkpt><trkpt lat="43.873603878275496" lon="11.172472361508476"><ele>77.66666666666666</ele><time>2026-04-29T15:24:22Z</time></trkpt><trkpt lat="43.87347521283345" lon="11.172326858573195"><ele>76.33333333333333</ele><time>2026-04-29T15:24:23Z</time></trkpt><trkpt lat="43.873363282888796" lon="11.172164453540741"><ele>75.0</ele><time>2026-04-29T15:24:24Z</time></trkpt><trkpt lat="43.87325536180442" lon="11.171991915911532"><ele>75.0</ele><time>2026-04-29T15:24:25Z</time></trkpt><trkpt lat="43.87315390433451" lon="11.171821691110646"><ele>75.0</ele><time>2026-04-29T15:24:26Z</time></trkpt><trkpt lat="43.8730484671524" lon="11.17166787427713"><ele>75.0</ele><time>2026-04-29T15:24:27Z</time></trkpt><trkpt lat="43.87294952505132" lon="11.171516182733292"><ele>74.75</ele><time>2026-04-29T15:24:28Z</time></trkpt><trkpt lat="43.87285665895643" lon="11.171364613920256"><ele>74.5</ele><time>2026-04-29T15:24:29Z</time></trkpt><trkpt lat="43.872759770205846" lon="11.171206962954743"><ele>74.25</ele><time>2026-04-29T15:24:30Z</time></trkpt><trkpt lat="43.8726627242794" lon="11.171053731602294"><ele>74.0</ele><time>2026-04-29T15:24:31Z</time></trkpt><trkpt lat="43.87256632541457" lon="11.170905188557319"><ele>73.75</ele><time>2026-04-29T15:24:32Z</time></trkpt><trkpt lat="43.87247265537402" lon="11.17075498459377"><ele>73.5</ele><time>2026-04-29T15:24:33Z</time></trkpt><trkpt lat="43.872384282971694" lon="11.170616233701791"><ele>73.25</ele><time>2026-04-29T15:24:34Z</time></trkpt><trkpt lat="43.872300494851366" lon="11.170483549834769"><ele>73.0</ele><time>2026-04-29T15:24:35Z</time></trkpt><trkpt lat="43.872224496317855" lon="11.170361519615932"><ele>73.0</ele><time>2026-04-29T15:24:36Z</time></trkpt><trkpt lat="43.87216159800715" lon="11.170261251033702"><ele>73.0</ele><time>2026-04-29T15:24:37Z</time></trkpt><trkpt lat="43.872117644352564" lon="11.170183655030263"><ele>73.0</ele><time>2026-04-29T15:24:38Z</time></trkpt><trkpt lat="43.87206514797606" lon="11.170067990945459"><ele>73.0</ele><time>2026-04-29T15:24:40Z</time></trkpt><trkpt lat="43.87206337406977" lon="11.169924529559852"><ele>73.0</ele><time>2026-04-29T15:24:42Z</time></trkpt><trkpt lat="43.87205278940185" lon="11.169825743172023"><ele>73.0</ele><time>2026-04-29T15:24:43Z</time></trkpt><trkpt lat="43.87197695436198" lon="11.169699163818384"><ele>72.83333333333333</ele><time>2026-04-29T15:24:45Z</time></trkpt><trkpt lat="43.87190552002278" lon="11.169682493283705"><ele>72.66666666666666</ele><time>2026-04-29T15:24:46Z</time></trkpt><trkpt lat="43.87182965337929" lon="11.16971820421219"><ele>72.5</ele><time>2026-04-29T15:24:47Z</time></trkpt><trkpt lat="43.871783053017815" lon="11.169778728796594"><ele>72.33333333333333</ele><time>2026-04-29T15:24:48Z</time></trkpt><trkpt lat="43.87175114690896" lon="11.16987128785484"><ele>72.16666666666667</ele><time>2026-04-29T15:24:49Z</time></trkpt><trkpt lat="43.87174316423728" lon="11.17000095581509"><ele>72.0</ele><time>2026-04-29T15:24:50Z</time></trkpt><trkpt lat="43.8717304505663" lon="11.170149394524069"><ele>73.75</ele><time>2026-04-29T15:24:51Z</time></trkpt><trkpt lat="43.87168793086628" lon="11.170298146238347"><ele>75.5</ele><time>2026-04-29T15:24:52Z</time></trkpt><trkpt lat="43.871620242212416" lon="11.170417746533392"><ele>77.25</ele><time>2026-04-29T15:24:53Z</time></trkpt><trkpt lat="43.87153047572441" lon="11.1705903773109"><ele>79.0</ele><time>2026-04-29T15:24:54Z</time></trkpt><trkpt lat="43.871437279111916" lon="11.170785315594838"><ele>79.0</ele><time>2026-04-29T15:24:55Z</time></trkpt><trkpt lat="43.871318732941944" lon="11.170984762177962"><ele>79.0</ele><time>2026-04-29T15:24:56Z</time></trkpt><trkpt lat="43.87117926953068" lon="11.171179585090274"><ele>79.0</ele><time>2026-04-29T15:24:57Z</time></trkpt><trkpt lat="43.87105108453287" lon="11.17137184114975"><ele>81.66666666666666</ele><time>2026-04-29T15:24:58Z</time></trkpt><trkpt lat="43.870911378053876" lon="11.171571531508414"><ele>84.33333333333333</ele><time>2026-04-29T15:24:59Z</time></trkpt><trkpt lat="43.87076202246926" lon="11.171773333507302"><ele>87.0</ele><time>2026-04-29T15:25:00Z</time></trkpt><trkpt lat="43.870598819219104" lon="11.171979989646227"><ele>87.0</ele><time>2026-04-29T15:25:01Z</time></trkpt><trkpt lat="43.87042973016793" lon="11.172178006340651"><ele>87.0</ele><time>2026-04-29T15:25:02Z</time></trkpt><trkpt lat="43.870247505855374" lon="11.172369415622981"><ele>94.0</ele><time>2026-04-29T15:25:03Z</time></trkpt><trkpt lat="43.870055818565824" lon="11.172553669147726"><ele>101.0</ele><time>2026-04-29T15:25:04.001Z</time></trkpt><trkpt lat="43.8698573393441" lon="11.172727876651662"><ele>101.0</ele><time>2026-04-29T15:25:05.001Z</time></trkpt><trkpt lat="43.86965732792007" lon="11.172885335267745"><ele>101.0</ele><time>2026-04-29T15:25:06.001Z</time></trkpt><trkpt lat="43.869453707173555" lon="11.173029593671293"><ele>108.0</ele><time>2026-04-29T15:25:07.001Z</time></trkpt><trkpt lat="43.86925609015933" lon="11.173158668797706"><ele>115.0</ele><time>2026-04-29T15:25:08.001Z</time></trkpt><trkpt lat="43.86905029090066" lon="11.173276257190354"><ele>122.0</ele><time>2026-04-29T15:25:09.001Z</time></trkpt><trkpt lat="43.86882989102" lon="11.173402188002681"><ele>123.0</ele><time>2026-04-29T15:25:10.076Z</time></trkpt><trkpt lat="43.86862469707363" lon="11.173519430542683"><ele>124.0</ele><time>2026-04-29T15:25:11.068Z</time></trkpt><trkpt lat="43.868419320369966" lon="11.173636777520661"><ele>125.0</ele><time>2026-04-29T15:25:12.061Z</time></trkpt><trkpt lat="43.86676735870334" lon="11.174605570444749"><ele>110.0</ele><time>2026-04-29T15:25:16.04Z</time></trkpt><trkpt lat="43.8666938" lon="11.1746476"><ele>95.0</ele><time>2026-04-29T15:25:17.04Z</time></trkpt><trkpt lat="43.865484560796155" lon="11.175435553893873"><ele>89.5</ele><time>2026-04-29T15:25:25Z</time></trkpt><trkpt lat="43.865215080385475" lon="11.17557877658672"><ele>84.0</ele><time>2026-04-29T15:25:26Z</time></trkpt><trkpt lat="43.864812097040925" lon="11.17567167690232"><ele>84.5</ele><time>2026-04-29T15:25:27Z</time></trkpt><trkpt lat="43.86454021823884" lon="11.175786097729585"><ele>85.0</ele><time>2026-04-29T15:25:28Z</time></trkpt><trkpt lat="43.864301413502325" lon="11.175861048875435"><ele>84.0</ele><time>2026-04-29T15:25:29Z</time></trkpt><trkpt lat="43.86407921399983" lon="11.175940703943812"><ele>83.0</ele><time>2026-04-29T15:25:30Z</time></trkpt><trkpt lat="43.86387432924577" lon="11.17602084123981"><ele>82.0</ele><time>2026-04-29T15:25:31Z</time></trkpt><trkpt lat="43.86368122897489" lon="11.17610830786654"><ele>82.0</ele><time>2026-04-29T15:25:32Z</time></trkpt><trkpt lat="43.863501947148656" lon="11.176166244504943"><ele>82.0</ele><time>2026-04-29T15:25:33Z</time></trkpt><trkpt lat="43.86335521618985" lon="11.17619099634146"><ele>82.0</ele><time>2026-04-29T15:25:34Z</time></trkpt><trkpt lat="43.86324741125149" lon="11.176183677933972"><ele>82.0</ele><time>2026-04-29T15:25:35Z</time></trkpt><trkpt lat="43.86317187895138" lon="11.176161937353962"><ele>81.5</ele><time>2026-04-29T15:25:36Z</time></trkpt><trkpt lat="43.86310764435843" lon="11.176135678520453"><ele>81.0</ele><time>2026-04-29T15:25:37Z</time></trkpt><trkpt lat="43.86304536640919" lon="11.176030546975374"><ele>80.5</ele><time>2026-04-29T15:25:38Z</time></trkpt><trkpt lat="43.862976201054195" lon="11.175967324163574"><ele>80.0</ele><time>2026-04-29T15:25:39Z</time></trkpt><trkpt lat="43.86290039335752" lon="11.175942190464157"><ele>79.5</ele><time>2026-04-29T15:25:40Z</time></trkpt><trkpt lat="43.86283327037653" lon="11.175973872394978"><ele>79.0</ele><time>2026-04-29T15:25:41Z</time></trkpt><trkpt lat="43.86277944405454" lon="11.176023039182171"><ele>79.0</ele><time>2026-04-29T15:25:42Z</time></trkpt><trkpt lat="43.8627667554967" lon="11.176144375892964"><ele>79.0</ele><time>2026-04-29T15:25:43Z</time></trkpt><trkpt lat="43.862801065308034" lon="11.176274714776765"><ele>79.0</ele><time>2026-04-29T15:25:44Z</time></trkpt><trkpt lat="43.8628480905248" lon="11.176403544279884"><ele>79.0</ele><time>2026-04-29T15:25:45Z</time></trkpt><trkpt lat="43.86287599368495" lon="11.176559218758696"><ele>79.0</ele><time>2026-04-29T15:25:46Z</time></trkpt><trkpt lat="43.86286459222476" lon="11.176742603031695"><ele>79.0</ele><time>2026-04-29T15:25:47Z</time></trkpt><trkpt lat="43.86283886835087" lon="11.176952736914956"><ele>79.0</ele><time>2026-04-29T15:25:48Z</time></trkpt><trkpt lat="43.86281912041781" lon="11.177173238635605"><ele>79.0</ele><time>2026-04-29T15:25:49Z</time></trkpt><trkpt lat="43.86278607007221" lon="11.177372807401508"><ele>79.0</ele><time>2026-04-29T15:25:50Z</time></trkpt><trkpt lat="43.86272443542119" lon="11.177577698665011"><ele>79.0</ele><time>2026-04-29T15:25:51Z</time></trkpt><trkpt lat="43.862633959172854" lon="11.177731073271445"><ele>79.0</ele><time>2026-04-29T15:25:52Z</time></trkpt><trkpt lat="43.862492103550956" lon="11.177825424348272"><ele>79.0</ele><time>2026-04-29T15:25:53Z</time></trkpt><trkpt lat="43.8623188219754" lon="11.177920403455783"><ele>79.0</ele><time>2026-04-29T15:25:54Z</time></trkpt><trkpt lat="43.8621244133624" lon="11.178056846152108"><ele>79.0</ele><time>2026-04-29T15:25:55Z</time></trkpt><trkpt lat="43.861934329980656" lon="11.178193948996155"><ele>80.0</ele><time>2026-04-29T15:25:56Z</time></trkpt><trkpt lat="43.861750542395214" lon="11.178322128266725"><ele>81.0</ele><time>2026-04-29T15:25:57Z</time></trkpt><trkpt lat="43.861579750184085" lon="11.178397025331787"><ele>82.0</ele><time>2026-04-29T15:25:58Z</time></trkpt><trkpt lat="43.86141554898805" lon="11.178434292453336"><ele>82.0</ele><time>2026-04-29T15:25:59Z</time></trkpt><trkpt lat="43.861241617890386" lon="11.178450402815722"><ele>82.0</ele><time>2026-04-29T15:26:00Z</time></trkpt><trkpt lat="43.86102900530585" lon="11.1784933152179"><ele>82.0</ele><time>2026-04-29T15:26:01Z</time></trkpt><trkpt lat="43.860811227994866" lon="11.178524999590524"><ele>82.0</ele><time>2026-04-29T15:26:02Z</time></trkpt><trkpt lat="43.860599323406674" lon="11.178543198075225"><ele>82.0</ele><time>2026-04-29T15:26:03Z</time></trkpt><trkpt lat="43.86040334291669" lon="11.178586288964711"><ele>82.0</ele><time>2026-04-29T15:26:04Z</time></trkpt><trkpt lat="43.86019453010244" lon="11.178643821310988"><ele>81.66666666666666</ele><time>2026-04-29T15:26:05Z</time></trkpt><trkpt lat="43.85997606122771" lon="11.17870221138779"><ele>81.33333333333333</ele><time>2026-04-29T15:26:06Z</time></trkpt><trkpt lat="43.859773927498246" lon="11.17876417652352"><ele>81.0</ele><time>2026-04-29T15:26:07Z</time></trkpt><trkpt lat="43.859582812397925" lon="11.178825442953455"><ele>81.0</ele><time>2026-04-29T15:26:08Z</time></trkpt><trkpt lat="43.85940507022178" lon="11.178882392644713"><ele>81.0</ele><time>2026-04-29T15:26:09Z</time></trkpt><trkpt lat="43.859243117872666" lon="11.178938194188758"><ele>81.0</ele><time>2026-04-29T15:26:10Z</time></trkpt><trkpt lat="43.859092489350594" lon="11.178987546776415"><ele>81.0</ele><time>2026-04-29T15:26:11Z</time></trkpt><trkpt lat="43.85896312759511" lon="11.179012766971308"><ele>81.0</ele><time>2026-04-29T15:26:12Z</time></trkpt><trkpt lat="43.85884447237051" lon="11.179007151703221"><ele>81.0</ele><time>2026-04-29T15:26:13Z</time></trkpt><trkpt lat="43.858737833405314" lon="11.178965530997347"><ele>81.0</ele><time>2026-04-29T15:26:14Z</time></trkpt><trkpt lat="43.85864587421314" lon="11.178889072898762"><ele>81.0</ele><time>2026-04-29T15:26:15Z</time></trkpt><trkpt lat="43.85856262277121" lon="11.178784245241676"><ele>81.0</ele><time>2026-04-29T15:26:16Z</time></trkpt><trkpt lat="43.85848894574123" lon="11.17864438360367"><ele>81.0</ele><time>2026-04-29T15:26:17Z</time></trkpt><trkpt lat="43.8584277792379" lon="11.178486941123976"><ele>81.0</ele><time>2026-04-29T15:26:18Z</time></trkpt><trkpt lat="43.85836521096617" lon="11.178335278199235"><ele>80.25</ele><time>2026-04-29T15:26:19Z</time></trkpt><trkpt lat="43.85829826972698" lon="11.178197429832498"><ele>79.5</ele><time>2026-04-29T15:26:20Z</time></trkpt><trkpt lat="43.85823093657578" lon="11.178071800943071"><ele>78.75</ele><time>2026-04-29T15:26:21Z</time></trkpt><trkpt lat="43.858156793952496" lon="11.177962941108046"><ele>78.0</ele><time>2026-04-29T15:26:22Z</time></trkpt><trkpt lat="43.858062811542645" lon="11.177882923733835"><ele>77.75</ele><time>2026-04-29T15:26:23Z</time></trkpt><trkpt lat="43.85794444499332" lon="11.177826539705846"><ele>77.5</ele><time>2026-04-29T15:26:24Z</time></trkpt><trkpt lat="43.857821421884104" lon="11.17783075277054"><ele>77.25</ele><time>2026-04-29T15:26:25Z</time></trkpt><trkpt lat="43.85768276814497" lon="11.17787194816908"><ele>77.0</ele><time>2026-04-29T15:26:26Z</time></trkpt><trkpt lat="43.8575878035904" lon="11.177924938284464"><ele>76.75</ele><time>2026-04-29T15:26:27Z</time></trkpt><trkpt lat="43.857481780771515" lon="11.1780413859155"><ele>76.5</ele><time>2026-04-29T15:26:28Z</time></trkpt><trkpt lat="43.85737997377567" lon="11.178193382975392"><ele>76.25</ele><time>2026-04-29T15:26:29Z</time></trkpt><trkpt lat="43.85730449462889" lon="11.178348198556664"><ele>76.0</ele><time>2026-04-29T15:26:30Z</time></trkpt><trkpt lat="43.857236820024994" lon="11.178452045187202"><ele>76.0</ele><time>2026-04-29T15:26:31Z</time></trkpt><trkpt lat="43.85713691398836" lon="11.17853063726448"><ele>76.0</ele><time>2026-04-29T15:26:32Z</time></trkpt><trkpt lat="43.857040501067594" lon="11.1785756840765"><ele>76.0</ele><time>2026-04-29T15:26:33Z</time></trkpt><trkpt lat="43.856939219915986" lon="11.17860706008632"><ele>76.0</ele><time>2026-04-29T15:26:34Z</time></trkpt><trkpt lat="43.856842823171384" lon="11.178623110607688"><ele>76.0</ele><time>2026-04-29T15:26:35Z</time></trkpt><trkpt lat="43.856753050714545" lon="11.178668178860118"><ele>75.5</ele><time>2026-04-29T15:26:36Z</time></trkpt><trkpt lat="43.856645245052626" lon="11.178726162490081"><ele>75.0</ele><time>2026-04-29T15:26:37Z</time></trkpt><trkpt lat="43.85653607709667" lon="11.178777961861257"><ele>74.5</ele><time>2026-04-29T15:26:38Z</time></trkpt><trkpt lat="43.85642450411301" lon="11.178828017041956"><ele>74.0</ele><time>2026-04-29T15:26:39Z</time></trkpt><trkpt lat="43.85631516123203" lon="11.17886642593598"><ele>74.0</ele><time>2026-04-29T15:26:40Z</time></trkpt><trkpt lat="43.856224726947765" lon="11.17889683417281"><ele>74.0</ele><time>2026-04-29T15:26:41Z</time></trkpt><trkpt lat="43.8561321199837" lon="11.178925409339099"><ele>74.0</ele><time>2026-04-29T15:26:42Z</time></trkpt><trkpt lat="43.85604817624453" lon="11.1789534743372"><ele>74.0</ele><time>2026-04-29T15:26:43Z</time></trkpt><trkpt lat="43.85596752187565" lon="11.178977844224958"><ele>74.0</ele><time>2026-04-29T15:26:44Z</time></trkpt><trkpt lat="43.855894877609444" lon="11.178994864264078"><ele>74.0</ele><time>2026-04-29T15:26:45Z</time></trkpt><trkpt lat="43.855817747048604" lon="11.179010745918085"><ele>74.0</ele><time>2026-04-29T15:26:47Z</time></trkpt><trkpt lat="43.85573568475652" lon="11.179015543034268"><ele>74.0</ele><time>2026-04-29T15:26:50Z</time></trkpt><trkpt lat="43.85558260809028" lon="11.178961207645086"><ele>74.0</ele><time>2026-04-29T15:26:52Z</time></trkpt><trkpt lat="43.85548863629208" lon="11.178968830665276"><ele>74.0</ele><time>2026-04-29T15:26:53Z</time></trkpt><trkpt lat="43.855403554693616" lon="11.178985064489373"><ele>74.0</ele><time>2026-04-29T15:26:54Z</time></trkpt><trkpt lat="43.85530411310807" lon="11.178984135244756"><ele>74.0</ele><time>2026-04-29T15:26:55Z</time></trkpt><trkpt lat="43.85519338689634" lon="11.178998283817673"><ele>74.0</ele><time>2026-04-29T15:26:56Z</time></trkpt><trkpt lat="43.855091551984636" lon="11.17901083520938"><ele>74.0</ele><time>2026-04-29T15:26:57Z</time></trkpt><trkpt lat="43.85499588946792" lon="11.179027269565882"><ele>74.0</ele><time>2026-04-29T15:26:58Z</time></trkpt><trkpt lat="43.85491148531721" lon="11.179052976158259"><ele>74.0</ele><time>2026-04-29T15:26:59Z</time></trkpt><trkpt lat="43.85483295937374" lon="11.179075522270368"><ele>73.8</ele><time>2026-04-29T15:27:00Z</time></trkpt><trkpt lat="43.854757876724335" lon="11.179134398050996"><ele>73.60000000000001</ele><time>2026-04-29T15:27:01Z</time></trkpt><trkpt lat="43.85466754410256" lon="11.179141659518383"><ele>73.4</ele><time>2026-04-29T15:27:02Z</time></trkpt><trkpt lat="43.85457177329974" lon="11.179145117887987"><ele>73.2</ele><time>2026-04-29T15:27:03Z</time></trkpt><trkpt lat="43.85448097871321" lon="11.17915164239753"><ele>73.0</ele><time>2026-04-29T15:27:04Z</time></trkpt><trkpt lat="43.85439404154248" lon="11.1791636827448"><ele>73.0</ele><time>2026-04-29T15:27:05Z</time></trkpt><trkpt lat="43.85429982970217" lon="11.179176552415003"><ele>73.0</ele><time>2026-04-29T15:27:06Z</time></trkpt><trkpt lat="43.854195798558244" lon="11.179188485572011"><ele>73.0</ele><time>2026-04-29T15:27:07Z</time></trkpt><trkpt lat="43.85407327361061" lon="11.179219799760848"><ele>73.0</ele><time>2026-04-29T15:27:08Z</time></trkpt><trkpt lat="43.853931379418114" lon="11.179239015234517"><ele>73.0</ele><time>2026-04-29T15:27:09Z</time></trkpt><trkpt lat="43.853788025809294" lon="11.179244371890606"><ele>73.0</ele><time>2026-04-29T15:27:10Z</time></trkpt><trkpt lat="43.853653078547325" lon="11.179250666262492"><ele>73.0</ele><time>2026-04-29T15:27:11Z</time></trkpt><trkpt lat="43.85350815106244" lon="11.179268418580579"><ele>73.0</ele><time>2026-04-29T15:27:12Z</time></trkpt><trkpt lat="43.85335666944219" lon="11.17928680652524"><ele>72.0</ele><time>2026-04-29T15:27:13Z</time></trkpt><trkpt lat="43.85321604994453" lon="11.179294806987514"><ele>71.0</ele><time>2026-04-29T15:27:14Z</time></trkpt><trkpt lat="43.85309614220889" lon="11.179311993386484"><ele>70.0</ele><time>2026-04-29T15:27:15Z</time></trkpt><trkpt lat="43.85298921543438" lon="11.179319032725049"><ele>69.0</ele><time>2026-04-29T15:27:16Z</time></trkpt><trkpt lat="43.85289156314625" lon="11.17933004252729"><ele>69.0</ele><time>2026-04-29T15:27:17Z</time></trkpt><trkpt lat="43.852797267195214" lon="11.1793415303521"><ele>69.0</ele><time>2026-04-29T15:27:18Z</time></trkpt><trkpt lat="43.85270685530516" lon="11.179353591117284"><ele>69.0</ele><time>2026-04-29T15:27:19Z</time></trkpt><trkpt lat="43.8526222585789" lon="11.179364785445497"><ele>69.0</ele><time>2026-04-29T15:27:20Z</time></trkpt><trkpt lat="43.85253548497964" lon="11.179371080381708"><ele>69.0</ele><time>2026-04-29T15:27:21Z</time></trkpt><trkpt lat="43.85245232524089" lon="11.179384834236785"><ele>69.0</ele><time>2026-04-29T15:27:22Z</time></trkpt><trkpt lat="43.85236862968004" lon="11.179398364828998"><ele>68.60000000000001</ele><time>2026-04-29T15:27:23Z</time></trkpt><trkpt lat="43.852273516710284" lon="11.179409315089265"><ele>68.2</ele><time>2026-04-29T15:27:24Z</time></trkpt><trkpt lat="43.85216948981247" lon="11.179425933285081"><ele>67.80000000000001</ele><time>2026-04-29T15:27:25Z</time></trkpt><trkpt lat="43.85207430239456" lon="11.179437432279254"><ele>67.4</ele><time>2026-04-29T15:27:26Z</time></trkpt><trkpt lat="43.85198388495273" lon="11.179425467211338"><ele>67.0</ele><time>2026-04-29T15:27:27Z</time></trkpt><trkpt lat="43.851904660273604" lon="11.17945429017307"><ele>67.0</ele><time>2026-04-29T15:27:28Z</time></trkpt><trkpt lat="43.85182562359001" lon="11.179462413590405"><ele>67.0</ele><time>2026-04-29T15:27:29Z</time></trkpt><trkpt lat="43.851751160623486" lon="11.17946381257162"><ele>67.0</ele><time>2026-04-29T15:27:30Z</time></trkpt><trkpt lat="43.85167167162784" lon="11.179468531007405"><ele>67.0</ele><time>2026-04-29T15:27:31Z</time></trkpt><trkpt lat="43.851584372520406" lon="11.179472012269398"><ele>67.0</ele><time>2026-04-29T15:27:32Z</time></trkpt><trkpt lat="43.85149318847377" lon="11.179480391321022"><ele>67.0</ele><time>2026-04-29T15:27:33Z</time></trkpt><trkpt lat="43.85139548442258" lon="11.17949360607208"><ele>66.6</ele><time>2026-04-29T15:27:34Z</time></trkpt><trkpt lat="43.851304678748406" lon="11.179501357309913"><ele>66.2</ele><time>2026-04-29T15:27:35Z</time></trkpt><trkpt lat="43.851216268093516" lon="11.179518870325829"><ele>65.8</ele><time>2026-04-29T15:27:36Z</time></trkpt><trkpt lat="43.851122220270874" lon="11.17953636721904"><ele>65.4</ele><time>2026-04-29T15:27:37Z</time></trkpt><trkpt lat="43.85102742608522" lon="11.179554856031528"><ele>65.0</ele><time>2026-04-29T15:27:38Z</time></trkpt><trkpt lat="43.85093294957383" lon="11.179565914573756"><ele>64.33333333333334</ele><time>2026-04-29T15:27:39Z</time></trkpt><trkpt lat="43.85083749916455" lon="11.179577235606939"><ele>63.66666666666667</ele><time>2026-04-29T15:27:40Z</time></trkpt><trkpt lat="43.8507495233024" lon="11.179595287992262"><ele>63.0</ele><time>2026-04-29T15:27:41Z</time></trkpt><trkpt lat="43.8506784590581" lon="11.179596562491334"><ele>62.33333333333333</ele><time>2026-04-29T15:27:42Z</time></trkpt><trkpt lat="43.85059869387418" lon="11.179614122340933"><ele>61.666666666666664</ele><time>2026-04-29T15:27:43Z</time></trkpt><trkpt lat="43.85052676092626" lon="11.179629048822758"><ele>61.0</ele><time>2026-04-29T15:27:44Z</time></trkpt><trkpt lat="43.85045890840924" lon="11.179636817160747"><ele>61.0</ele><time>2026-04-29T15:27:45Z</time></trkpt><trkpt lat="43.850337983493745" lon="11.179635282619262"><ele>60.99999999999999</ele><time>2026-04-29T15:27:47Z</time></trkpt><trkpt lat="43.85027547549433" lon="11.17965939936546"><ele>60.99999999999999</ele><time>2026-04-29T15:27:48Z</time></trkpt><trkpt lat="43.85021077460298" lon="11.179663343167375"><ele>61.0</ele><time>2026-04-29T15:27:49Z</time></trkpt><trkpt lat="43.85010755183727" lon="11.179660511328647"><ele>61.0</ele><time>2026-04-29T15:27:51Z</time></trkpt><trkpt lat="43.85000072799208" lon="11.17965149979557"><ele>60.199999999999996</ele><time>2026-04-29T15:27:53Z</time></trkpt><trkpt lat="43.8498777108143" lon="11.179562785939472"><ele>59.39999999999999</ele><time>2026-04-29T15:27:55Z</time></trkpt><trkpt lat="43.8498194353493" lon="11.179463306471787"><ele>58.6</ele><time>2026-04-29T15:27:56Z</time></trkpt><trkpt lat="43.8497282249825" lon="11.179436700472623"><ele>57.8</ele><time>2026-04-29T15:27:57Z</time></trkpt><trkpt lat="43.84963960853435" lon="11.179461436247232"><ele>57.0</ele><time>2026-04-29T15:27:58Z</time></trkpt><trkpt lat="43.84955680320541" lon="11.179544407691944"><ele>57.0</ele><time>2026-04-29T15:27:59Z</time></trkpt><trkpt lat="43.84948010100256" lon="11.179685136731106"><ele>57.0</ele><time>2026-04-29T15:28:00Z</time></trkpt><trkpt lat="43.849394808298705" lon="11.179800226032313"><ele>57.0</ele><time>2026-04-29T15:28:01Z</time></trkpt><trkpt lat="43.84924614372474" lon="11.17976428390207"><ele>57.0</ele><time>2026-04-29T15:28:02Z</time></trkpt><trkpt lat="43.849118214121354" lon="11.179791328692298"><ele>56.66666666666667</ele><time>2026-04-29T15:28:03Z</time></trkpt><trkpt lat="43.84897018974131" lon="11.179796732675232"><ele>56.333333333333336</ele><time>2026-04-29T15:28:04Z</time></trkpt><trkpt lat="43.848811066449045" lon="11.1798226140946"><ele>56.0</ele><time>2026-04-29T15:28:05Z</time></trkpt><trkpt lat="43.8486486934185" lon="11.179840961564507"><ele>56.0</ele><time>2026-04-29T15:28:06Z</time></trkpt><trkpt lat="43.84848072835794" lon="11.179858149926343"><ele>56.0</ele><time>2026-04-29T15:28:07Z</time></trkpt><trkpt lat="43.84830386051526" lon="11.179873463639092"><ele>56.0</ele><time>2026-04-29T15:28:08Z</time></trkpt><trkpt lat="43.84813520222808" lon="11.17989488992301"><ele>55.66666666666667</ele><time>2026-04-29T15:28:09Z</time></trkpt><trkpt lat="43.847975263873025" lon="11.17991710317968"><ele>55.33333333333333</ele><time>2026-04-29T15:28:10Z</time></trkpt><trkpt lat="43.84782112515038" lon="11.179929174330438"><ele>55.0</ele><time>2026-04-29T15:28:11Z</time></trkpt><trkpt lat="43.8476768208096" lon="11.179943661274837"><ele>55.0</ele><time>2026-04-29T15:28:12Z</time></trkpt><trkpt lat="43.8475302062888" lon="11.179962624708951"><ele>55.0</ele><time>2026-04-29T15:28:13Z</time></trkpt><trkpt lat="43.84738485167205" lon="11.1799859197326"><ele>55.0</ele><time>2026-04-29T15:28:14Z</time></trkpt><trkpt lat="43.847241407370845" lon="11.18000155782613"><ele>55.0</ele><time>2026-04-29T15:28:15Z</time></trkpt><trkpt lat="43.84709914945578" lon="11.180018895218359"><ele>55.0</ele><time>2026-04-29T15:28:16Z</time></trkpt><trkpt lat="43.8469567859688" lon="11.18003727717675"><ele>55.0</ele><time>2026-04-29T15:28:17Z</time></trkpt><trkpt lat="43.84680499844655" lon="11.180054629441527"><ele>55.0</ele><time>2026-04-29T15:28:18Z</time></trkpt><trkpt lat="43.846652585407426" lon="11.180072663870472"><ele>55.0</ele><time>2026-04-29T15:28:19Z</time></trkpt><trkpt lat="43.8464955594189" lon="11.180088352487246"><ele>54.75</ele><time>2026-04-29T15:28:20Z</time></trkpt><trkpt lat="43.84634464362893" lon="11.180108096205283"><ele>54.5</ele><time>2026-04-29T15:28:21Z</time></trkpt><trkpt lat="43.84619666459059" lon="11.18013192906372"><ele>54.25</ele><time>2026-04-29T15:28:22Z</time></trkpt><trkpt lat="43.84605731186394" lon="11.18014732288764"><ele>54.0</ele><time>2026-04-29T15:28:23Z</time></trkpt><trkpt lat="43.84592444129836" lon="11.180158679815602"><ele>53.75</ele><time>2026-04-29T15:28:24Z</time></trkpt><trkpt lat="43.84579630768784" lon="11.180179421119398"><ele>53.5</ele><time>2026-04-29T15:28:25Z</time></trkpt><trkpt lat="43.84567342346362" lon="11.18020154417203"><ele>53.25</ele><time>2026-04-29T15:28:26Z</time></trkpt><trkpt lat="43.84555984531159" lon="11.180218848767772"><ele>53.0</ele><time>2026-04-29T15:28:27Z</time></trkpt><trkpt lat="43.84545870931435" lon="11.18023154613874"><ele>53.00000000000001</ele><time>2026-04-29T15:28:28Z</time></trkpt><trkpt lat="43.8453703842914" lon="11.180243918723601"><ele>53.0</ele><time>2026-04-29T15:28:29Z</time></trkpt><trkpt lat="43.84529124978608" lon="11.18025693544404"><ele>53.0</ele><time>2026-04-29T15:28:30Z</time></trkpt><trkpt lat="43.84522429299298" lon="11.180267017046466"><ele>53.0</ele><time>2026-04-29T15:28:31Z</time></trkpt><trkpt lat="43.84513153369457" lon="11.180274828885636"><ele>53.00000000000001</ele><time>2026-04-29T15:28:33Z</time></trkpt><trkpt lat="43.84506470378878" lon="11.180256578278547"><ele>53.0</ele><time>2026-04-29T15:28:37Z</time></trkpt><trkpt lat="43.84499464564526" lon="11.18025233711177"><ele>52.833333333333336</ele><time>2026-04-29T15:28:43Z</time></trkpt><trkpt lat="43.84491754433167" lon="11.180207555390306"><ele>52.66666666666667</ele><time>2026-04-29T15:28:45Z</time></trkpt><trkpt lat="43.84484224642411" lon="11.18015414594897"><ele>52.5</ele><time>2026-04-29T15:28:46Z</time></trkpt><trkpt lat="43.84477437840586" lon="11.18016965761083"><ele>52.33333333333333</ele><time>2026-04-29T15:28:47Z</time></trkpt><trkpt lat="43.844713106292254" lon="11.180196975988592"><ele>52.166666666666664</ele><time>2026-04-29T15:28:48Z</time></trkpt><trkpt lat="43.84467733702759" lon="11.180286230285661"><ele>52.0</ele><time>2026-04-29T15:28:49Z</time></trkpt><trkpt lat="43.84462407311588" lon="11.180384300675483"><ele>51.99999999999999</ele><time>2026-04-29T15:28:50Z</time></trkpt><trkpt lat="43.84456353619441" lon="11.180507159117743"><ele>52.0</ele><time>2026-04-29T15:28:51Z</time></trkpt><trkpt lat="43.84450080719103" lon="11.180598078029918"><ele>52.0</ele><time>2026-04-29T15:28:52Z</time></trkpt><trkpt lat="43.844442758863394" lon="11.180671380115127"><ele>52.0</ele><time>2026-04-29T15:28:53Z</time></trkpt><trkpt lat="43.84438608570175" lon="11.18072584902323"><ele>51.99999999999999</ele><time>2026-04-29T15:28:54Z</time></trkpt><trkpt lat="43.844325640131004" lon="11.180758199722202"><ele>52.0</ele><time>2026-04-29T15:28:55Z</time></trkpt><trkpt lat="43.84418869382202" lon="11.180734073042387"><ele>51.83333333333333</ele><time>2026-04-29T15:28:57Z</time></trkpt><trkpt lat="43.84411100797542" lon="11.18069325434246"><ele>51.666666666666664</ele><time>2026-04-29T15:28:58Z</time></trkpt><trkpt lat="43.844037312679056" lon="11.180678098365265"><ele>51.5</ele><time>2026-04-29T15:28:59Z</time></trkpt><trkpt lat="43.84396732234101" lon="11.1806913650933"><ele>51.33333333333333</ele><time>2026-04-29T15:29:00Z</time></trkpt><trkpt lat="43.84389973510181" lon="11.180715651002515"><ele>51.166666666666664</ele><time>2026-04-29T15:29:01Z</time></trkpt><trkpt lat="43.843852883195325" lon="11.180789613541327"><ele>51.0</ele><time>2026-04-29T15:29:02Z</time></trkpt><trkpt lat="43.843821312281015" lon="11.180954895347108"><ele>51.0</ele><time>2026-04-29T15:29:04Z</time></trkpt><trkpt lat="43.84382405014042" lon="11.181043234752671"><ele>51.0</ele><time>2026-04-29T15:29:05Z</time></trkpt><trkpt lat="43.84386539303181" lon="11.181164676300156"><ele>51.0</ele><time>2026-04-29T15:29:06Z</time></trkpt><trkpt lat="43.843904953808575" lon="11.181255814530312"><ele>51.0</ele><time>2026-04-29T15:29:07Z</time></trkpt><trkpt lat="43.84391639453089" lon="11.181341888168292"><ele>51.0</ele><time>2026-04-29T15:29:08Z</time></trkpt><trkpt lat="43.84393170309676" lon="11.181510295345715"><ele>51.0</ele><time>2026-04-29T15:29:10Z</time></trkpt><trkpt lat="43.84392702216483" lon="11.181625615847416"><ele>51.333333333333336</ele><time>2026-04-29T15:29:11Z</time></trkpt><trkpt lat="43.84390408677454" lon="11.181730105674792"><ele>51.66666666666667</ele><time>2026-04-29T15:29:12Z</time></trkpt><trkpt lat="43.84384726595547" lon="11.181793855481652"><ele>52.0</ele><time>2026-04-29T15:29:13Z</time></trkpt><trkpt lat="43.84378066972891" lon="11.181921324844039"><ele>52.333333333333336</ele><time>2026-04-29T15:29:15Z</time></trkpt><trkpt lat="43.84373311177777" lon="11.18201284412093"><ele>52.66666666666667</ele><time>2026-04-29T15:29:17Z</time></trkpt><trkpt lat="43.8437090931214" lon="11.182100079272502"><ele>53.0</ele><time>2026-04-29T15:29:19Z</time></trkpt><trkpt lat="43.84365239387374" lon="11.182215056713966"><ele>53.0</ele><time>2026-04-29T15:29:22Z</time></trkpt><trkpt lat="43.84359260642049" lon="11.182345971274"><ele>53.0</ele><time>2026-04-29T15:29:24Z</time></trkpt><trkpt lat="43.84351841098991" lon="11.182476245623512"><ele>53.0</ele><time>2026-04-29T15:29:26Z</time></trkpt><trkpt lat="43.843477758344925" lon="11.18257030398563"><ele>53.0</ele><time>2026-04-29T15:29:27Z</time></trkpt><trkpt lat="43.84342727722067" lon="11.182692226070873"><ele>53.0</ele><time>2026-04-29T15:29:28Z</time></trkpt><trkpt lat="43.84338956877785" lon="11.182805715862981"><ele>52.66666666666667</ele><time>2026-04-29T15:29:29Z</time></trkpt><trkpt lat="43.84333908126154" lon="11.182899789173634"><ele>52.333333333333336</ele><time>2026-04-29T15:29:30Z</time></trkpt><trkpt lat="43.84329470077926" lon="11.182995095000482"><ele>52.0</ele><time>2026-04-29T15:29:31Z</time></trkpt><trkpt lat="43.84325970600361" lon="11.183083963006963"><ele>51.66666666666667</ele><time>2026-04-29T15:29:32Z</time></trkpt><trkpt lat="43.8432283456532" lon="11.18316122228969"><ele>51.333333333333336</ele><time>2026-04-29T15:29:33Z</time></trkpt><trkpt lat="43.84319536556231" lon="11.183241073016799"><ele>51.0</ele><time>2026-04-29T15:29:34Z</time></trkpt><trkpt lat="43.84312770470803" lon="11.183405435892862"><ele>51.0</ele><time>2026-04-29T15:29:36Z</time></trkpt><trkpt lat="43.84309254603422" lon="11.183498592016969"><ele>51.0</ele><time>2026-04-29T15:29:37Z</time></trkpt><trkpt lat="43.84305802508749" lon="11.183574827245039"><ele>51.0</ele><time>2026-04-29T15:29:38Z</time></trkpt><trkpt lat="43.84300205269296" lon="11.183714784422131"><ele>51.0</ele><time>2026-04-29T15:29:40Z</time></trkpt><trkpt lat="43.84295638320941" lon="11.183810459834268"><ele>51.0</ele><time>2026-04-29T15:29:42Z</time></trkpt><trkpt lat="43.84290070523444" lon="11.183865876420787"><ele>51.0</ele><time>2026-04-29T15:29:45Z</time></trkpt><trkpt lat="43.84278576271173" lon="11.183819275344904"><ele>51.0</ele><time>2026-04-29T15:29:48Z</time></trkpt><trkpt lat="43.84269606270182" lon="11.183738956245161"><ele>51.0</ele><time>2026-04-29T15:29:50Z</time></trkpt><trkpt lat="43.84259699838358" lon="11.183646995550346"><ele>51.0</ele><time>2026-04-29T15:29:52Z</time></trkpt><trkpt lat="43.84253331059966" lon="11.183592075155419"><ele>51.0</ele><time>2026-04-29T15:29:53Z</time></trkpt><trkpt lat="43.84247502887039" lon="11.183545139157786"><ele>51.0</ele><time>2026-04-29T15:29:54Z</time></trkpt><trkpt lat="43.84240108764776" lon="11.183515158539201"><ele>51.0</ele><time>2026-04-29T15:29:56Z</time></trkpt><trkpt lat="43.84235381520837" lon="11.183623877535169"><ele>50.5</ele><time>2026-04-29T15:30:01Z</time></trkpt><trkpt lat="43.84231767130315" lon="11.183700083744066"><ele>50.0</ele><time>2026-04-29T15:30:04Z</time></trkpt><trkpt lat="43.84224103860355" lon="11.183713633344452"><ele>49.5</ele><time>2026-04-29T15:31:19Z</time></trkpt><trkpt lat="43.84216673143443" lon="11.183632019541145"><ele>49.0</ele><time>2026-04-29T15:31:21Z</time></trkpt><trkpt lat="43.842244974533564" lon="11.183355406008907"><ele>49.0</ele><time>2026-04-29T15:31:23Z</time></trkpt><trkpt lat="43.84212248401625" lon="11.18357669925476"><ele>49.0</ele><time>2026-04-29T15:34:37Z</time></trkpt><trkpt lat="43.84207409112424" lon="11.18365878716582"><ele>49.0</ele><time>2026-04-29T15:40:37Z</time></trkpt><trkpt lat="43.84212727898972" lon="11.183584323151164"><ele>49.0</ele><time>2026-04-29T15:40:55Z</time></trkpt><trkpt lat="43.842115993728456" lon="11.183489610161555"><ele>49.0</ele><time>2026-04-29T15:41:19Z</time></trkpt><trkpt lat="43.84213410253253" lon="11.18338862406172"><ele>49.0</ele><time>2026-04-29T15:41:31Z</time></trkpt><trkpt lat="43.84218214931052" lon="11.183460788793079"><ele>49.0</ele><time>2026-04-29T15:43:08Z</time></trkpt><trkpt lat="43.84223041523078" lon="11.183554803082883"><ele>49.0</ele><time>2026-04-29T15:43:11Z</time></trkpt><trkpt lat="43.84214684401535" lon="11.183552815076007"><ele>49.0</ele><time>2026-04-29T15:58:17.999Z</time></trkpt></trkseg></trk></gpx>